<?xml version="1.0" encoding="UTF-8" standalone="no" ?>
<gpx xmlns="http://www.topografix.com/GPX/1/1" xmlns:xsi="http://www.w3.org/2001/XMLSchema-instance" xsi:schemaLocation="http://www.topografix.com/GPX/1/1 http://www.topografix.com/GPX/1/1/gpx.xsd" version="1.1" creator="VisuGPX - https://www.visugpx.com">
  <metadata>
    <name>Oursiere - Gde Lauziere - Pic du Gd Domenon </name>
  </metadata>
  <trk>
    <name><![CDATA[Oursiere - Gde Lauziere - Pic du Gd Domenon ]]></name>
    <trkseg>
      <trkpt lat="45.15212" lon="5.88664">
        <ele>1094.6</ele>
        <time>2020-08-11T05:28:49Z</time>
      </trkpt>
      <trkpt lat="45.15211" lon="5.88669">
        <ele>1094.6</ele>
        <time>2020-08-11T05:28:51Z</time>
      </trkpt>
      <trkpt lat="45.1521" lon="5.88673">
        <ele>1094.6</ele>
        <time>2020-08-11T05:28:58Z</time>
      </trkpt>
      <trkpt lat="45.1521" lon="5.88677">
        <ele>1094.6</ele>
        <time>2020-08-11T05:28:59Z</time>
      </trkpt>
      <trkpt lat="45.15209" lon="5.88679">
        <ele>1094.6</ele>
        <time>2020-08-11T05:29:00Z</time>
      </trkpt>
      <trkpt lat="45.15209" lon="5.8868">
        <ele>1094.6</ele>
        <time>2020-08-11T05:29:01Z</time>
      </trkpt>
      <trkpt lat="45.15209" lon="5.88681">
        <ele>1094.4</ele>
        <time>2020-08-11T05:29:02Z</time>
      </trkpt>
      <trkpt lat="45.15209" lon="5.88683">
        <ele>1094.4</ele>
        <time>2020-08-11T05:29:03Z</time>
      </trkpt>
      <trkpt lat="45.15208" lon="5.88684">
        <ele>1094</ele>
        <time>2020-08-11T05:29:04Z</time>
      </trkpt>
      <trkpt lat="45.15208" lon="5.88686">
        <ele>1093.8</ele>
        <time>2020-08-11T05:29:05Z</time>
      </trkpt>
      <trkpt lat="45.15208" lon="5.88687">
        <ele>1093.4</ele>
        <time>2020-08-11T05:29:06Z</time>
      </trkpt>
      <trkpt lat="45.15208" lon="5.88689">
        <ele>1093.6</ele>
        <time>2020-08-11T05:29:07Z</time>
      </trkpt>
      <trkpt lat="45.15207" lon="5.8869">
        <ele>1093.8</ele>
        <time>2020-08-11T05:29:08Z</time>
      </trkpt>
      <trkpt lat="45.15207" lon="5.8869">
        <ele>1093.8</ele>
        <time>2020-08-11T05:29:09Z</time>
      </trkpt>
      <trkpt lat="45.15207" lon="5.88693">
        <ele>1093.8</ele>
        <time>2020-08-11T05:29:10Z</time>
      </trkpt>
      <trkpt lat="45.15207" lon="5.88693">
        <ele>1093.4</ele>
        <time>2020-08-11T05:29:11Z</time>
      </trkpt>
      <trkpt lat="45.15207" lon="5.88695">
        <ele>1093.2</ele>
        <time>2020-08-11T05:29:12Z</time>
      </trkpt>
      <trkpt lat="45.15207" lon="5.88697">
        <ele>1093</ele>
        <time>2020-08-11T05:29:13Z</time>
      </trkpt>
      <trkpt lat="45.15207" lon="5.88699">
        <ele>1093</ele>
        <time>2020-08-11T05:29:14Z</time>
      </trkpt>
      <trkpt lat="45.15207" lon="5.88701">
        <ele>1092.8</ele>
        <time>2020-08-11T05:29:15Z</time>
      </trkpt>
      <trkpt lat="45.15207" lon="5.88703">
        <ele>1092.6</ele>
        <time>2020-08-11T05:29:16Z</time>
      </trkpt>
      <trkpt lat="45.15207" lon="5.88705">
        <ele>1092.4</ele>
        <time>2020-08-11T05:29:17Z</time>
      </trkpt>
      <trkpt lat="45.15207" lon="5.88707">
        <ele>1092.2</ele>
        <time>2020-08-11T05:29:18Z</time>
      </trkpt>
      <trkpt lat="45.15207" lon="5.88707">
        <ele>1092.4</ele>
        <time>2020-08-11T05:29:19Z</time>
      </trkpt>
      <trkpt lat="45.15206" lon="5.88711">
        <ele>1092.6</ele>
        <time>2020-08-11T05:29:20Z</time>
      </trkpt>
      <trkpt lat="45.15206" lon="5.88712">
        <ele>1092.8</ele>
        <time>2020-08-11T05:29:21Z</time>
      </trkpt>
      <trkpt lat="45.15206" lon="5.88714">
        <ele>1093</ele>
        <time>2020-08-11T05:29:22Z</time>
      </trkpt>
      <trkpt lat="45.15206" lon="5.88715">
        <ele>1093</ele>
        <time>2020-08-11T05:29:23Z</time>
      </trkpt>
      <trkpt lat="45.15207" lon="5.88716">
        <ele>1093</ele>
        <time>2020-08-11T05:29:24Z</time>
      </trkpt>
      <trkpt lat="45.15207" lon="5.88716">
        <ele>1093.2</ele>
        <time>2020-08-11T05:29:25Z</time>
      </trkpt>
      <trkpt lat="45.15206" lon="5.88719">
        <ele>1092.6</ele>
        <time>2020-08-11T05:29:26Z</time>
      </trkpt>
      <trkpt lat="45.15206" lon="5.88721">
        <ele>1092.2</ele>
        <time>2020-08-11T05:29:27Z</time>
      </trkpt>
      <trkpt lat="45.15206" lon="5.88723">
        <ele>1092.2</ele>
        <time>2020-08-11T05:29:28Z</time>
      </trkpt>
      <trkpt lat="45.15206" lon="5.88725">
        <ele>1092</ele>
        <time>2020-08-11T05:29:29Z</time>
      </trkpt>
      <trkpt lat="45.15206" lon="5.88727">
        <ele>1092</ele>
        <time>2020-08-11T05:29:30Z</time>
      </trkpt>
      <trkpt lat="45.15205" lon="5.88729">
        <ele>1092</ele>
        <time>2020-08-11T05:29:31Z</time>
      </trkpt>
      <trkpt lat="45.15205" lon="5.88734">
        <ele>1091.8</ele>
        <time>2020-08-11T05:29:32Z</time>
      </trkpt>
      <trkpt lat="45.15205" lon="5.88737">
        <ele>1091.8</ele>
        <time>2020-08-11T05:29:33Z</time>
      </trkpt>
      <trkpt lat="45.15205" lon="5.88739">
        <ele>1091.8</ele>
        <time>2020-08-11T05:29:34Z</time>
      </trkpt>
      <trkpt lat="45.15205" lon="5.88739">
        <ele>1091.4</ele>
        <time>2020-08-11T05:29:35Z</time>
      </trkpt>
      <trkpt lat="45.15204" lon="5.88742">
        <ele>1091.2</ele>
        <time>2020-08-11T05:29:36Z</time>
      </trkpt>
      <trkpt lat="45.15204" lon="5.88744">
        <ele>1091.2</ele>
        <time>2020-08-11T05:29:37Z</time>
      </trkpt>
      <trkpt lat="45.15204" lon="5.88746">
        <ele>1091.2</ele>
        <time>2020-08-11T05:29:38Z</time>
      </trkpt>
      <trkpt lat="45.15203" lon="5.8875">
        <ele>1091.2</ele>
        <time>2020-08-11T05:29:39Z</time>
      </trkpt>
      <trkpt lat="45.15203" lon="5.88752">
        <ele>1091.2</ele>
        <time>2020-08-11T05:29:40Z</time>
      </trkpt>
      <trkpt lat="45.15203" lon="5.88752">
        <ele>1091</ele>
        <time>2020-08-11T05:29:41Z</time>
      </trkpt>
      <trkpt lat="45.15202" lon="5.88754">
        <ele>1091.2</ele>
        <time>2020-08-11T05:29:42Z</time>
      </trkpt>
      <trkpt lat="45.15202" lon="5.88756">
        <ele>1090.8</ele>
        <time>2020-08-11T05:29:43Z</time>
      </trkpt>
      <trkpt lat="45.15202" lon="5.88758">
        <ele>1090.8</ele>
        <time>2020-08-11T05:29:44Z</time>
      </trkpt>
      <trkpt lat="45.15202" lon="5.8876">
        <ele>1091.4</ele>
        <time>2020-08-11T05:29:45Z</time>
      </trkpt>
      <trkpt lat="45.15201" lon="5.88762">
        <ele>1090.8</ele>
        <time>2020-08-11T05:29:46Z</time>
      </trkpt>
      <trkpt lat="45.15201" lon="5.88764">
        <ele>1091.4</ele>
        <time>2020-08-11T05:29:47Z</time>
      </trkpt>
      <trkpt lat="45.15201" lon="5.88766">
        <ele>1091</ele>
        <time>2020-08-11T05:29:48Z</time>
      </trkpt>
      <trkpt lat="45.152" lon="5.88769">
        <ele>1091.4</ele>
        <time>2020-08-11T05:29:49Z</time>
      </trkpt>
      <trkpt lat="45.152" lon="5.88772">
        <ele>1091.4</ele>
        <time>2020-08-11T05:29:50Z</time>
      </trkpt>
      <trkpt lat="45.15199" lon="5.88775">
        <ele>1092</ele>
        <time>2020-08-11T05:29:51Z</time>
      </trkpt>
      <trkpt lat="45.15199" lon="5.88777">
        <ele>1091.6</ele>
        <time>2020-08-11T05:29:52Z</time>
      </trkpt>
      <trkpt lat="45.15199" lon="5.8878">
        <ele>1091.8</ele>
        <time>2020-08-11T05:29:53Z</time>
      </trkpt>
      <trkpt lat="45.15198" lon="5.88784">
        <ele>1091.4</ele>
        <time>2020-08-11T05:29:54Z</time>
      </trkpt>
      <trkpt lat="45.15197" lon="5.88787">
        <ele>1091.8</ele>
        <time>2020-08-11T05:29:55Z</time>
      </trkpt>
      <trkpt lat="45.15196" lon="5.8879">
        <ele>1091.6</ele>
        <time>2020-08-11T05:29:56Z</time>
      </trkpt>
      <trkpt lat="45.15195" lon="5.88794">
        <ele>1092</ele>
        <time>2020-08-11T05:29:57Z</time>
      </trkpt>
      <trkpt lat="45.15195" lon="5.88797">
        <ele>1091.8</ele>
        <time>2020-08-11T05:29:58Z</time>
      </trkpt>
      <trkpt lat="45.15195" lon="5.888">
        <ele>1092</ele>
        <time>2020-08-11T05:29:59Z</time>
      </trkpt>
      <trkpt lat="45.15195" lon="5.88803">
        <ele>1092</ele>
        <time>2020-08-11T05:30:00Z</time>
      </trkpt>
      <trkpt lat="45.15196" lon="5.88807">
        <ele>1092.2</ele>
        <time>2020-08-11T05:30:01Z</time>
      </trkpt>
      <trkpt lat="45.15195" lon="5.8881">
        <ele>1092</ele>
        <time>2020-08-11T05:30:02Z</time>
      </trkpt>
      <trkpt lat="45.15194" lon="5.88813">
        <ele>1092.4</ele>
        <time>2020-08-11T05:30:03Z</time>
      </trkpt>
      <trkpt lat="45.15194" lon="5.88816">
        <ele>1092.4</ele>
        <time>2020-08-11T05:30:04Z</time>
      </trkpt>
      <trkpt lat="45.15193" lon="5.88819">
        <ele>1092.8</ele>
        <time>2020-08-11T05:30:05Z</time>
      </trkpt>
      <trkpt lat="45.15192" lon="5.88822">
        <ele>1092.6</ele>
        <time>2020-08-11T05:30:06Z</time>
      </trkpt>
      <trkpt lat="45.15191" lon="5.88826">
        <ele>1092.8</ele>
        <time>2020-08-11T05:30:07Z</time>
      </trkpt>
      <trkpt lat="45.1519" lon="5.88829">
        <ele>1092.4</ele>
        <time>2020-08-11T05:30:08Z</time>
      </trkpt>
      <trkpt lat="45.15189" lon="5.88833">
        <ele>1092.6</ele>
        <time>2020-08-11T05:30:09Z</time>
      </trkpt>
      <trkpt lat="45.15188" lon="5.88836">
        <ele>1092.4</ele>
        <time>2020-08-11T05:30:10Z</time>
      </trkpt>
      <trkpt lat="45.15186" lon="5.88839">
        <ele>1092.6</ele>
        <time>2020-08-11T05:30:11Z</time>
      </trkpt>
      <trkpt lat="45.15185" lon="5.88841">
        <ele>1092.4</ele>
        <time>2020-08-11T05:30:12Z</time>
      </trkpt>
      <trkpt lat="45.15184" lon="5.88844">
        <ele>1092.4</ele>
        <time>2020-08-11T05:30:13Z</time>
      </trkpt>
      <trkpt lat="45.15182" lon="5.88847">
        <ele>1092.4</ele>
        <time>2020-08-11T05:30:14Z</time>
      </trkpt>
      <trkpt lat="45.15181" lon="5.88849">
        <ele>1092.8</ele>
        <time>2020-08-11T05:30:15Z</time>
      </trkpt>
      <trkpt lat="45.1518" lon="5.88851">
        <ele>1092.4</ele>
        <time>2020-08-11T05:30:16Z</time>
      </trkpt>
      <trkpt lat="45.15179" lon="5.88854">
        <ele>1092.6</ele>
        <time>2020-08-11T05:30:17Z</time>
      </trkpt>
      <trkpt lat="45.15177" lon="5.88856">
        <ele>1092.4</ele>
        <time>2020-08-11T05:30:18Z</time>
      </trkpt>
      <trkpt lat="45.15176" lon="5.88859">
        <ele>1092.6</ele>
        <time>2020-08-11T05:30:19Z</time>
      </trkpt>
      <trkpt lat="45.15175" lon="5.88861">
        <ele>1092.4</ele>
        <time>2020-08-11T05:30:20Z</time>
      </trkpt>
      <trkpt lat="45.15174" lon="5.88863">
        <ele>1092.4</ele>
        <time>2020-08-11T05:30:21Z</time>
      </trkpt>
      <trkpt lat="45.15173" lon="5.88866">
        <ele>1092.4</ele>
        <time>2020-08-11T05:30:22Z</time>
      </trkpt>
      <trkpt lat="45.15171" lon="5.88868">
        <ele>1092.2</ele>
        <time>2020-08-11T05:30:23Z</time>
      </trkpt>
      <trkpt lat="45.1517" lon="5.88869">
        <ele>1092</ele>
        <time>2020-08-11T05:30:24Z</time>
      </trkpt>
      <trkpt lat="45.15169" lon="5.8887">
        <ele>1091.8</ele>
        <time>2020-08-11T05:30:25Z</time>
      </trkpt>
      <trkpt lat="45.15167" lon="5.88871">
        <ele>1091.4</ele>
        <time>2020-08-11T05:30:26Z</time>
      </trkpt>
      <trkpt lat="45.15166" lon="5.88872">
        <ele>1091.2</ele>
        <time>2020-08-11T05:30:27Z</time>
      </trkpt>
      <trkpt lat="45.15165" lon="5.88873">
        <ele>1092</ele>
        <time>2020-08-11T05:30:28Z</time>
      </trkpt>
      <trkpt lat="45.15163" lon="5.88874">
        <ele>1091.8</ele>
        <time>2020-08-11T05:30:29Z</time>
      </trkpt>
      <trkpt lat="45.15161" lon="5.88875">
        <ele>1092.4</ele>
        <time>2020-08-11T05:30:30Z</time>
      </trkpt>
      <trkpt lat="45.15159" lon="5.88876">
        <ele>1092.4</ele>
        <time>2020-08-11T05:30:31Z</time>
      </trkpt>
      <trkpt lat="45.15157" lon="5.88878">
        <ele>1093</ele>
        <time>2020-08-11T05:30:32Z</time>
      </trkpt>
      <trkpt lat="45.15155" lon="5.88879">
        <ele>1093.2</ele>
        <time>2020-08-11T05:30:33Z</time>
      </trkpt>
      <trkpt lat="45.15153" lon="5.8888">
        <ele>1093.8</ele>
        <time>2020-08-11T05:30:34Z</time>
      </trkpt>
      <trkpt lat="45.15151" lon="5.88882">
        <ele>1093.8</ele>
        <time>2020-08-11T05:30:35Z</time>
      </trkpt>
      <trkpt lat="45.15149" lon="5.88884">
        <ele>1094</ele>
        <time>2020-08-11T05:30:36Z</time>
      </trkpt>
      <trkpt lat="45.15147" lon="5.88885">
        <ele>1094</ele>
        <time>2020-08-11T05:30:38Z</time>
      </trkpt>
      <trkpt lat="45.15144" lon="5.88887">
        <ele>1094</ele>
        <time>2020-08-11T05:30:39Z</time>
      </trkpt>
      <trkpt lat="45.15142" lon="5.8889">
        <ele>1094.2</ele>
        <time>2020-08-11T05:30:40Z</time>
      </trkpt>
      <trkpt lat="45.1514" lon="5.88892">
        <ele>1094.2</ele>
        <time>2020-08-11T05:30:41Z</time>
      </trkpt>
      <trkpt lat="45.15138" lon="5.88895">
        <ele>1094.2</ele>
        <time>2020-08-11T05:30:42Z</time>
      </trkpt>
      <trkpt lat="45.15136" lon="5.88897">
        <ele>1094.2</ele>
        <time>2020-08-11T05:30:43Z</time>
      </trkpt>
      <trkpt lat="45.15134" lon="5.88899">
        <ele>1094.2</ele>
        <time>2020-08-11T05:30:44Z</time>
      </trkpt>
      <trkpt lat="45.15132" lon="5.88901">
        <ele>1094.2</ele>
        <time>2020-08-11T05:30:45Z</time>
      </trkpt>
      <trkpt lat="45.15131" lon="5.88903">
        <ele>1094.2</ele>
        <time>2020-08-11T05:30:46Z</time>
      </trkpt>
      <trkpt lat="45.15129" lon="5.88905">
        <ele>1094.6</ele>
        <time>2020-08-11T05:30:47Z</time>
      </trkpt>
      <trkpt lat="45.15128" lon="5.88907">
        <ele>1094.2</ele>
        <time>2020-08-11T05:30:48Z</time>
      </trkpt>
      <trkpt lat="45.15126" lon="5.88909">
        <ele>1094.6</ele>
        <time>2020-08-11T05:30:49Z</time>
      </trkpt>
      <trkpt lat="45.15124" lon="5.88911">
        <ele>1094.6</ele>
        <time>2020-08-11T05:30:50Z</time>
      </trkpt>
      <trkpt lat="45.15122" lon="5.88912">
        <ele>1094.8</ele>
        <time>2020-08-11T05:30:51Z</time>
      </trkpt>
      <trkpt lat="45.1512" lon="5.88914">
        <ele>1094.6</ele>
        <time>2020-08-11T05:30:52Z</time>
      </trkpt>
      <trkpt lat="45.15118" lon="5.88915">
        <ele>1094.8</ele>
        <time>2020-08-11T05:30:53Z</time>
      </trkpt>
      <trkpt lat="45.15116" lon="5.88917">
        <ele>1094.8</ele>
        <time>2020-08-11T05:30:54Z</time>
      </trkpt>
      <trkpt lat="45.15115" lon="5.88919">
        <ele>1095</ele>
        <time>2020-08-11T05:30:55Z</time>
      </trkpt>
      <trkpt lat="45.15113" lon="5.88921">
        <ele>1094.8</ele>
        <time>2020-08-11T05:30:56Z</time>
      </trkpt>
      <trkpt lat="45.15112" lon="5.88923">
        <ele>1094.6</ele>
        <time>2020-08-11T05:30:57Z</time>
      </trkpt>
      <trkpt lat="45.1511" lon="5.88925">
        <ele>1094.4</ele>
        <time>2020-08-11T05:30:58Z</time>
      </trkpt>
      <trkpt lat="45.15109" lon="5.88928">
        <ele>1094.6</ele>
        <time>2020-08-11T05:30:59Z</time>
      </trkpt>
      <trkpt lat="45.15107" lon="5.8893">
        <ele>1094.6</ele>
        <time>2020-08-11T05:31:00Z</time>
      </trkpt>
      <trkpt lat="45.15105" lon="5.88932">
        <ele>1094.4</ele>
        <time>2020-08-11T05:31:01Z</time>
      </trkpt>
      <trkpt lat="45.15104" lon="5.88935">
        <ele>1094.4</ele>
        <time>2020-08-11T05:31:02Z</time>
      </trkpt>
      <trkpt lat="45.15102" lon="5.88937">
        <ele>1094</ele>
        <time>2020-08-11T05:31:03Z</time>
      </trkpt>
      <trkpt lat="45.151" lon="5.88939">
        <ele>1094.2</ele>
        <time>2020-08-11T05:31:04Z</time>
      </trkpt>
      <trkpt lat="45.15098" lon="5.88941">
        <ele>1094.2</ele>
        <time>2020-08-11T05:31:05Z</time>
      </trkpt>
      <trkpt lat="45.15096" lon="5.88943">
        <ele>1094.8</ele>
        <time>2020-08-11T05:31:06Z</time>
      </trkpt>
      <trkpt lat="45.15094" lon="5.88945">
        <ele>1094.6</ele>
        <time>2020-08-11T05:31:07Z</time>
      </trkpt>
      <trkpt lat="45.15092" lon="5.88947">
        <ele>1095</ele>
        <time>2020-08-11T05:31:08Z</time>
      </trkpt>
      <trkpt lat="45.1509" lon="5.88948">
        <ele>1094.8</ele>
        <time>2020-08-11T05:31:09Z</time>
      </trkpt>
      <trkpt lat="45.15088" lon="5.8895">
        <ele>1095</ele>
        <time>2020-08-11T05:31:10Z</time>
      </trkpt>
      <trkpt lat="45.15086" lon="5.88951">
        <ele>1094.8</ele>
        <time>2020-08-11T05:31:11Z</time>
      </trkpt>
      <trkpt lat="45.15083" lon="5.88953">
        <ele>1095.2</ele>
        <time>2020-08-11T05:31:12Z</time>
      </trkpt>
      <trkpt lat="45.15081" lon="5.88955">
        <ele>1095</ele>
        <time>2020-08-11T05:31:13Z</time>
      </trkpt>
      <trkpt lat="45.15079" lon="5.88957">
        <ele>1095.2</ele>
        <time>2020-08-11T05:31:14Z</time>
      </trkpt>
      <trkpt lat="45.15078" lon="5.88958">
        <ele>1095</ele>
        <time>2020-08-11T05:31:15Z</time>
      </trkpt>
      <trkpt lat="45.15076" lon="5.8896">
        <ele>1095</ele>
        <time>2020-08-11T05:31:16Z</time>
      </trkpt>
      <trkpt lat="45.15074" lon="5.88961">
        <ele>1095.2</ele>
        <time>2020-08-11T05:31:17Z</time>
      </trkpt>
      <trkpt lat="45.15072" lon="5.88963">
        <ele>1095.2</ele>
        <time>2020-08-11T05:31:18Z</time>
      </trkpt>
      <trkpt lat="45.1507" lon="5.88964">
        <ele>1095.6</ele>
        <time>2020-08-11T05:31:19Z</time>
      </trkpt>
      <trkpt lat="45.15068" lon="5.88965">
        <ele>1095.4</ele>
        <time>2020-08-11T05:31:20Z</time>
      </trkpt>
      <trkpt lat="45.15066" lon="5.88966">
        <ele>1095.8</ele>
        <time>2020-08-11T05:31:21Z</time>
      </trkpt>
      <trkpt lat="45.15064" lon="5.88967">
        <ele>1095.8</ele>
        <time>2020-08-11T05:31:22Z</time>
      </trkpt>
      <trkpt lat="45.15061" lon="5.88967">
        <ele>1096</ele>
        <time>2020-08-11T05:31:23Z</time>
      </trkpt>
      <trkpt lat="45.15059" lon="5.88968">
        <ele>1095.8</ele>
        <time>2020-08-11T05:31:24Z</time>
      </trkpt>
      <trkpt lat="45.15056" lon="5.88968">
        <ele>1095.8</ele>
        <time>2020-08-11T05:31:25Z</time>
      </trkpt>
      <trkpt lat="45.15053" lon="5.88968">
        <ele>1095.8</ele>
        <time>2020-08-11T05:31:26Z</time>
      </trkpt>
      <trkpt lat="45.15051" lon="5.88968">
        <ele>1095.2</ele>
        <time>2020-08-11T05:31:27Z</time>
      </trkpt>
      <trkpt lat="45.15048" lon="5.88968">
        <ele>1095.8</ele>
        <time>2020-08-11T05:31:28Z</time>
      </trkpt>
      <trkpt lat="45.15046" lon="5.88968">
        <ele>1095.6</ele>
        <time>2020-08-11T05:31:29Z</time>
      </trkpt>
      <trkpt lat="45.15043" lon="5.88968">
        <ele>1096.2</ele>
        <time>2020-08-11T05:31:30Z</time>
      </trkpt>
      <trkpt lat="45.15041" lon="5.88968">
        <ele>1096</ele>
        <time>2020-08-11T05:31:31Z</time>
      </trkpt>
      <trkpt lat="45.15038" lon="5.88968">
        <ele>1096.4</ele>
        <time>2020-08-11T05:31:32Z</time>
      </trkpt>
      <trkpt lat="45.15036" lon="5.88969">
        <ele>1096.4</ele>
        <time>2020-08-11T05:31:33Z</time>
      </trkpt>
      <trkpt lat="45.15034" lon="5.88969">
        <ele>1096.6</ele>
        <time>2020-08-11T05:31:34Z</time>
      </trkpt>
      <trkpt lat="45.15032" lon="5.88969">
        <ele>1096.6</ele>
        <time>2020-08-11T05:31:35Z</time>
      </trkpt>
      <trkpt lat="45.1503" lon="5.88969">
        <ele>1096.6</ele>
        <time>2020-08-11T05:31:36Z</time>
      </trkpt>
      <trkpt lat="45.15028" lon="5.88969">
        <ele>1096.4</ele>
        <time>2020-08-11T05:31:37Z</time>
      </trkpt>
      <trkpt lat="45.15025" lon="5.88969">
        <ele>1095.8</ele>
        <time>2020-08-11T05:31:38Z</time>
      </trkpt>
      <trkpt lat="45.15023" lon="5.88969">
        <ele>1096.2</ele>
        <time>2020-08-11T05:31:39Z</time>
      </trkpt>
      <trkpt lat="45.15021" lon="5.88969">
        <ele>1096</ele>
        <time>2020-08-11T05:31:40Z</time>
      </trkpt>
      <trkpt lat="45.15019" lon="5.88969">
        <ele>1096.4</ele>
        <time>2020-08-11T05:31:41Z</time>
      </trkpt>
      <trkpt lat="45.15017" lon="5.88971">
        <ele>1096.4</ele>
        <time>2020-08-11T05:31:42Z</time>
      </trkpt>
      <trkpt lat="45.15016" lon="5.88972">
        <ele>1096.8</ele>
        <time>2020-08-11T05:31:43Z</time>
      </trkpt>
      <trkpt lat="45.15014" lon="5.88973">
        <ele>1096.8</ele>
        <time>2020-08-11T05:31:44Z</time>
      </trkpt>
      <trkpt lat="45.15012" lon="5.88975">
        <ele>1097</ele>
        <time>2020-08-11T05:31:45Z</time>
      </trkpt>
      <trkpt lat="45.15011" lon="5.88976">
        <ele>1096.8</ele>
        <time>2020-08-11T05:31:46Z</time>
      </trkpt>
      <trkpt lat="45.15009" lon="5.88977">
        <ele>1097.2</ele>
        <time>2020-08-11T05:31:47Z</time>
      </trkpt>
      <trkpt lat="45.15007" lon="5.88979">
        <ele>1097</ele>
        <time>2020-08-11T05:31:48Z</time>
      </trkpt>
      <trkpt lat="45.15004" lon="5.8898">
        <ele>1097.2</ele>
        <time>2020-08-11T05:31:49Z</time>
      </trkpt>
      <trkpt lat="45.15002" lon="5.88982">
        <ele>1097.2</ele>
        <time>2020-08-11T05:31:50Z</time>
      </trkpt>
      <trkpt lat="45.15" lon="5.88984">
        <ele>1097.2</ele>
        <time>2020-08-11T05:31:51Z</time>
      </trkpt>
      <trkpt lat="45.14998" lon="5.88987">
        <ele>1097</ele>
        <time>2020-08-11T05:31:52Z</time>
      </trkpt>
      <trkpt lat="45.14996" lon="5.88989">
        <ele>1097</ele>
        <time>2020-08-11T05:31:53Z</time>
      </trkpt>
      <trkpt lat="45.14994" lon="5.88992">
        <ele>1097</ele>
        <time>2020-08-11T05:31:54Z</time>
      </trkpt>
      <trkpt lat="45.14993" lon="5.88994">
        <ele>1096.8</ele>
        <time>2020-08-11T05:31:55Z</time>
      </trkpt>
      <trkpt lat="45.14992" lon="5.88996">
        <ele>1097</ele>
        <time>2020-08-11T05:31:56Z</time>
      </trkpt>
      <trkpt lat="45.14991" lon="5.88998">
        <ele>1096.6</ele>
        <time>2020-08-11T05:31:57Z</time>
      </trkpt>
      <trkpt lat="45.1499" lon="5.88999">
        <ele>1096.8</ele>
        <time>2020-08-11T05:31:58Z</time>
      </trkpt>
      <trkpt lat="45.14988" lon="5.89001">
        <ele>1096.8</ele>
        <time>2020-08-11T05:31:59Z</time>
      </trkpt>
      <trkpt lat="45.14987" lon="5.89003">
        <ele>1097.2</ele>
        <time>2020-08-11T05:32:00Z</time>
      </trkpt>
      <trkpt lat="45.14985" lon="5.89005">
        <ele>1097.2</ele>
        <time>2020-08-11T05:32:01Z</time>
      </trkpt>
      <trkpt lat="45.14982" lon="5.89007">
        <ele>1097.4</ele>
        <time>2020-08-11T05:32:02Z</time>
      </trkpt>
      <trkpt lat="45.1498" lon="5.89008">
        <ele>1097.4</ele>
        <time>2020-08-11T05:32:03Z</time>
      </trkpt>
      <trkpt lat="45.14977" lon="5.8901">
        <ele>1097.6</ele>
        <time>2020-08-11T05:32:04Z</time>
      </trkpt>
      <trkpt lat="45.14975" lon="5.89012">
        <ele>1097.6</ele>
        <time>2020-08-11T05:32:05Z</time>
      </trkpt>
      <trkpt lat="45.14973" lon="5.89014">
        <ele>1097.2</ele>
        <time>2020-08-11T05:32:06Z</time>
      </trkpt>
      <trkpt lat="45.14971" lon="5.89016">
        <ele>1097</ele>
        <time>2020-08-11T05:32:07Z</time>
      </trkpt>
      <trkpt lat="45.14969" lon="5.89018">
        <ele>1097</ele>
        <time>2020-08-11T05:32:08Z</time>
      </trkpt>
      <trkpt lat="45.14966" lon="5.8902">
        <ele>1097.2</ele>
        <time>2020-08-11T05:32:09Z</time>
      </trkpt>
      <trkpt lat="45.14964" lon="5.89023">
        <ele>1097.4</ele>
        <time>2020-08-11T05:32:10Z</time>
      </trkpt>
      <trkpt lat="45.14962" lon="5.89025">
        <ele>1098</ele>
        <time>2020-08-11T05:32:11Z</time>
      </trkpt>
      <trkpt lat="45.14959" lon="5.89027">
        <ele>1098</ele>
        <time>2020-08-11T05:32:12Z</time>
      </trkpt>
      <trkpt lat="45.14956" lon="5.8903">
        <ele>1098.4</ele>
        <time>2020-08-11T05:32:13Z</time>
      </trkpt>
      <trkpt lat="45.14954" lon="5.89032">
        <ele>1098.4</ele>
        <time>2020-08-11T05:32:14Z</time>
      </trkpt>
      <trkpt lat="45.14951" lon="5.89034">
        <ele>1098.8</ele>
        <time>2020-08-11T05:32:15Z</time>
      </trkpt>
      <trkpt lat="45.14949" lon="5.89035">
        <ele>1098.8</ele>
        <time>2020-08-11T05:32:16Z</time>
      </trkpt>
      <trkpt lat="45.14947" lon="5.89037">
        <ele>1099</ele>
        <time>2020-08-11T05:32:17Z</time>
      </trkpt>
      <trkpt lat="45.14945" lon="5.89038">
        <ele>1099.2</ele>
        <time>2020-08-11T05:32:18Z</time>
      </trkpt>
      <trkpt lat="45.14943" lon="5.89039">
        <ele>1099.4</ele>
        <time>2020-08-11T05:32:19Z</time>
      </trkpt>
      <trkpt lat="45.14941" lon="5.8904">
        <ele>1099.2</ele>
        <time>2020-08-11T05:32:20Z</time>
      </trkpt>
      <trkpt lat="45.1494" lon="5.89042">
        <ele>1099.6</ele>
        <time>2020-08-11T05:32:21Z</time>
      </trkpt>
      <trkpt lat="45.14938" lon="5.89043">
        <ele>1099.6</ele>
        <time>2020-08-11T05:32:22Z</time>
      </trkpt>
      <trkpt lat="45.14936" lon="5.89044">
        <ele>1099.8</ele>
        <time>2020-08-11T05:32:23Z</time>
      </trkpt>
      <trkpt lat="45.14935" lon="5.89045">
        <ele>1099.4</ele>
        <time>2020-08-11T05:32:24Z</time>
      </trkpt>
      <trkpt lat="45.14933" lon="5.89046">
        <ele>1099.8</ele>
        <time>2020-08-11T05:32:25Z</time>
      </trkpt>
      <trkpt lat="45.14931" lon="5.89047">
        <ele>1099.6</ele>
        <time>2020-08-11T05:32:26Z</time>
      </trkpt>
      <trkpt lat="45.14929" lon="5.89048">
        <ele>1099.6</ele>
        <time>2020-08-11T05:32:27Z</time>
      </trkpt>
      <trkpt lat="45.14927" lon="5.89049">
        <ele>1099.4</ele>
        <time>2020-08-11T05:32:28Z</time>
      </trkpt>
      <trkpt lat="45.14925" lon="5.89051">
        <ele>1099.2</ele>
        <time>2020-08-11T05:32:29Z</time>
      </trkpt>
      <trkpt lat="45.14923" lon="5.89052">
        <ele>1099.6</ele>
        <time>2020-08-11T05:32:30Z</time>
      </trkpt>
      <trkpt lat="45.1492" lon="5.89052">
        <ele>1099.4</ele>
        <time>2020-08-11T05:32:31Z</time>
      </trkpt>
      <trkpt lat="45.14918" lon="5.89053">
        <ele>1099.6</ele>
        <time>2020-08-11T05:32:32Z</time>
      </trkpt>
      <trkpt lat="45.14915" lon="5.89053">
        <ele>1099.8</ele>
        <time>2020-08-11T05:32:33Z</time>
      </trkpt>
      <trkpt lat="45.14913" lon="5.89054">
        <ele>1100</ele>
        <time>2020-08-11T05:32:34Z</time>
      </trkpt>
      <trkpt lat="45.14911" lon="5.89054">
        <ele>1100</ele>
        <time>2020-08-11T05:32:35Z</time>
      </trkpt>
      <trkpt lat="45.14909" lon="5.89054">
        <ele>1100.4</ele>
        <time>2020-08-11T05:32:36Z</time>
      </trkpt>
      <trkpt lat="45.14907" lon="5.89054">
        <ele>1100.6</ele>
        <time>2020-08-11T05:32:37Z</time>
      </trkpt>
      <trkpt lat="45.14906" lon="5.89054">
        <ele>1100.8</ele>
        <time>2020-08-11T05:32:38Z</time>
      </trkpt>
      <trkpt lat="45.14904" lon="5.89054">
        <ele>1100.8</ele>
        <time>2020-08-11T05:32:39Z</time>
      </trkpt>
      <trkpt lat="45.14902" lon="5.89054">
        <ele>1101</ele>
        <time>2020-08-11T05:32:40Z</time>
      </trkpt>
      <trkpt lat="45.149" lon="5.89056">
        <ele>1101</ele>
        <time>2020-08-11T05:32:41Z</time>
      </trkpt>
      <trkpt lat="45.14899" lon="5.89057">
        <ele>1101.4</ele>
        <time>2020-08-11T05:32:42Z</time>
      </trkpt>
      <trkpt lat="45.14897" lon="5.89058">
        <ele>1101.2</ele>
        <time>2020-08-11T05:32:43Z</time>
      </trkpt>
      <trkpt lat="45.14895" lon="5.8906">
        <ele>1101.4</ele>
        <time>2020-08-11T05:32:44Z</time>
      </trkpt>
      <trkpt lat="45.14894" lon="5.89061">
        <ele>1101.2</ele>
        <time>2020-08-11T05:32:45Z</time>
      </trkpt>
      <trkpt lat="45.14892" lon="5.89062">
        <ele>1101.4</ele>
        <time>2020-08-11T05:32:46Z</time>
      </trkpt>
      <trkpt lat="45.1489" lon="5.89063">
        <ele>1101.6</ele>
        <time>2020-08-11T05:32:47Z</time>
      </trkpt>
      <trkpt lat="45.14888" lon="5.89063">
        <ele>1101.6</ele>
        <time>2020-08-11T05:32:48Z</time>
      </trkpt>
      <trkpt lat="45.14886" lon="5.89064">
        <ele>1101.6</ele>
        <time>2020-08-11T05:32:49Z</time>
      </trkpt>
      <trkpt lat="45.14884" lon="5.89065">
        <ele>1101.4</ele>
        <time>2020-08-11T05:32:50Z</time>
      </trkpt>
      <trkpt lat="45.14881" lon="5.89066">
        <ele>1101.4</ele>
        <time>2020-08-11T05:32:51Z</time>
      </trkpt>
      <trkpt lat="45.14878" lon="5.89068">
        <ele>1101.4</ele>
        <time>2020-08-11T05:32:52Z</time>
      </trkpt>
      <trkpt lat="45.14875" lon="5.89069">
        <ele>1101.2</ele>
        <time>2020-08-11T05:32:53Z</time>
      </trkpt>
      <trkpt lat="45.14873" lon="5.89071">
        <ele>1101.2</ele>
        <time>2020-08-11T05:32:54Z</time>
      </trkpt>
      <trkpt lat="45.14871" lon="5.89072">
        <ele>1101.6</ele>
        <time>2020-08-11T05:32:55Z</time>
      </trkpt>
      <trkpt lat="45.1487" lon="5.89073">
        <ele>1101.4</ele>
        <time>2020-08-11T05:32:56Z</time>
      </trkpt>
      <trkpt lat="45.14868" lon="5.89075">
        <ele>1101.6</ele>
        <time>2020-08-11T05:32:57Z</time>
      </trkpt>
      <trkpt lat="45.14866" lon="5.89076">
        <ele>1101.4</ele>
        <time>2020-08-11T05:32:58Z</time>
      </trkpt>
      <trkpt lat="45.14865" lon="5.89078">
        <ele>1101.8</ele>
        <time>2020-08-11T05:32:59Z</time>
      </trkpt>
      <trkpt lat="45.14863" lon="5.8908">
        <ele>1101.4</ele>
        <time>2020-08-11T05:33:00Z</time>
      </trkpt>
      <trkpt lat="45.14862" lon="5.89082">
        <ele>1101.8</ele>
        <time>2020-08-11T05:33:01Z</time>
      </trkpt>
      <trkpt lat="45.1486" lon="5.89084">
        <ele>1101.4</ele>
        <time>2020-08-11T05:33:02Z</time>
      </trkpt>
      <trkpt lat="45.14859" lon="5.89086">
        <ele>1101.4</ele>
        <time>2020-08-11T05:33:03Z</time>
      </trkpt>
      <trkpt lat="45.14857" lon="5.89088">
        <ele>1101</ele>
        <time>2020-08-11T05:33:04Z</time>
      </trkpt>
      <trkpt lat="45.14855" lon="5.89089">
        <ele>1101</ele>
        <time>2020-08-11T05:33:05Z</time>
      </trkpt>
      <trkpt lat="45.14853" lon="5.89091">
        <ele>1100.8</ele>
        <time>2020-08-11T05:33:06Z</time>
      </trkpt>
      <trkpt lat="45.14851" lon="5.89092">
        <ele>1100.4</ele>
        <time>2020-08-11T05:33:07Z</time>
      </trkpt>
      <trkpt lat="45.14849" lon="5.89094">
        <ele>1100.4</ele>
        <time>2020-08-11T05:33:08Z</time>
      </trkpt>
      <trkpt lat="45.14847" lon="5.89095">
        <ele>1100.4</ele>
        <time>2020-08-11T05:33:09Z</time>
      </trkpt>
      <trkpt lat="45.14846" lon="5.89096">
        <ele>1100.4</ele>
        <time>2020-08-11T05:33:10Z</time>
      </trkpt>
      <trkpt lat="45.14844" lon="5.89097">
        <ele>1100.4</ele>
        <time>2020-08-11T05:33:11Z</time>
      </trkpt>
      <trkpt lat="45.14842" lon="5.89099">
        <ele>1100.4</ele>
        <time>2020-08-11T05:33:12Z</time>
      </trkpt>
      <trkpt lat="45.1484" lon="5.891">
        <ele>1100.2</ele>
        <time>2020-08-11T05:33:13Z</time>
      </trkpt>
      <trkpt lat="45.14837" lon="5.89101">
        <ele>1100</ele>
        <time>2020-08-11T05:33:14Z</time>
      </trkpt>
      <trkpt lat="45.14835" lon="5.89102">
        <ele>1100</ele>
        <time>2020-08-11T05:33:15Z</time>
      </trkpt>
      <trkpt lat="45.14833" lon="5.89103">
        <ele>1099.8</ele>
        <time>2020-08-11T05:33:16Z</time>
      </trkpt>
      <trkpt lat="45.14831" lon="5.89104">
        <ele>1099.6</ele>
        <time>2020-08-11T05:33:17Z</time>
      </trkpt>
      <trkpt lat="45.14829" lon="5.89106">
        <ele>1099.2</ele>
        <time>2020-08-11T05:33:18Z</time>
      </trkpt>
      <trkpt lat="45.14827" lon="5.89107">
        <ele>1098.8</ele>
        <time>2020-08-11T05:33:19Z</time>
      </trkpt>
      <trkpt lat="45.14824" lon="5.89109">
        <ele>1099</ele>
        <time>2020-08-11T05:33:20Z</time>
      </trkpt>
      <trkpt lat="45.14823" lon="5.89111">
        <ele>1098.6</ele>
        <time>2020-08-11T05:33:21Z</time>
      </trkpt>
      <trkpt lat="45.14821" lon="5.89113">
        <ele>1098.4</ele>
        <time>2020-08-11T05:33:22Z</time>
      </trkpt>
      <trkpt lat="45.14819" lon="5.89115">
        <ele>1097.8</ele>
        <time>2020-08-11T05:33:23Z</time>
      </trkpt>
      <trkpt lat="45.14817" lon="5.89117">
        <ele>1097.6</ele>
        <time>2020-08-11T05:33:24Z</time>
      </trkpt>
      <trkpt lat="45.14816" lon="5.89119">
        <ele>1096.6</ele>
        <time>2020-08-11T05:33:25Z</time>
      </trkpt>
      <trkpt lat="45.14813" lon="5.89121">
        <ele>1096.2</ele>
        <time>2020-08-11T05:33:26Z</time>
      </trkpt>
      <trkpt lat="45.14811" lon="5.89123">
        <ele>1096.6</ele>
        <time>2020-08-11T05:33:27Z</time>
      </trkpt>
      <trkpt lat="45.14808" lon="5.89125">
        <ele>1096.4</ele>
        <time>2020-08-11T05:33:28Z</time>
      </trkpt>
      <trkpt lat="45.14806" lon="5.89126">
        <ele>1096.4</ele>
        <time>2020-08-11T05:33:29Z</time>
      </trkpt>
      <trkpt lat="45.14804" lon="5.89128">
        <ele>1095.8</ele>
        <time>2020-08-11T05:33:30Z</time>
      </trkpt>
      <trkpt lat="45.14802" lon="5.8913">
        <ele>1095.6</ele>
        <time>2020-08-11T05:33:31Z</time>
      </trkpt>
      <trkpt lat="45.148" lon="5.89132">
        <ele>1095.6</ele>
        <time>2020-08-11T05:33:32Z</time>
      </trkpt>
      <trkpt lat="45.14798" lon="5.89134">
        <ele>1095.4</ele>
        <time>2020-08-11T05:33:33Z</time>
      </trkpt>
      <trkpt lat="45.14797" lon="5.89136">
        <ele>1095.4</ele>
        <time>2020-08-11T05:33:34Z</time>
      </trkpt>
      <trkpt lat="45.14795" lon="5.89138">
        <ele>1095</ele>
        <time>2020-08-11T05:33:35Z</time>
      </trkpt>
      <trkpt lat="45.14794" lon="5.89139">
        <ele>1094.4</ele>
        <time>2020-08-11T05:33:36Z</time>
      </trkpt>
      <trkpt lat="45.14792" lon="5.89141">
        <ele>1094.4</ele>
        <time>2020-08-11T05:33:37Z</time>
      </trkpt>
      <trkpt lat="45.14791" lon="5.89143">
        <ele>1094</ele>
        <time>2020-08-11T05:33:38Z</time>
      </trkpt>
      <trkpt lat="45.14789" lon="5.89144">
        <ele>1094</ele>
        <time>2020-08-11T05:33:39Z</time>
      </trkpt>
      <trkpt lat="45.14787" lon="5.89145">
        <ele>1093.8</ele>
        <time>2020-08-11T05:33:40Z</time>
      </trkpt>
      <trkpt lat="45.14785" lon="5.89146">
        <ele>1093.6</ele>
        <time>2020-08-11T05:33:41Z</time>
      </trkpt>
      <trkpt lat="45.14783" lon="5.89147">
        <ele>1093.8</ele>
        <time>2020-08-11T05:33:42Z</time>
      </trkpt>
      <trkpt lat="45.14781" lon="5.89148">
        <ele>1093.6</ele>
        <time>2020-08-11T05:33:43Z</time>
      </trkpt>
      <trkpt lat="45.14779" lon="5.89149">
        <ele>1093.6</ele>
        <time>2020-08-11T05:33:44Z</time>
      </trkpt>
      <trkpt lat="45.14776" lon="5.89151">
        <ele>1093.2</ele>
        <time>2020-08-11T05:33:45Z</time>
      </trkpt>
      <trkpt lat="45.14774" lon="5.89152">
        <ele>1092.8</ele>
        <time>2020-08-11T05:33:46Z</time>
      </trkpt>
      <trkpt lat="45.14772" lon="5.89154">
        <ele>1093</ele>
        <time>2020-08-11T05:33:47Z</time>
      </trkpt>
      <trkpt lat="45.1477" lon="5.89155">
        <ele>1092.8</ele>
        <time>2020-08-11T05:33:48Z</time>
      </trkpt>
      <trkpt lat="45.14769" lon="5.89156">
        <ele>1092.8</ele>
        <time>2020-08-11T05:33:49Z</time>
      </trkpt>
      <trkpt lat="45.14768" lon="5.89156">
        <ele>1092.8</ele>
        <time>2020-08-11T05:33:50Z</time>
      </trkpt>
      <trkpt lat="45.14767" lon="5.89157">
        <ele>1093</ele>
        <time>2020-08-11T05:33:51Z</time>
      </trkpt>
      <trkpt lat="45.14765" lon="5.89157">
        <ele>1093.2</ele>
        <time>2020-08-11T05:33:52Z</time>
      </trkpt>
      <trkpt lat="45.14764" lon="5.89158">
        <ele>1093.4</ele>
        <time>2020-08-11T05:33:53Z</time>
      </trkpt>
      <trkpt lat="45.14763" lon="5.89158">
        <ele>1093.4</ele>
        <time>2020-08-11T05:33:54Z</time>
      </trkpt>
      <trkpt lat="45.14762" lon="5.89158">
        <ele>1093.4</ele>
        <time>2020-08-11T05:33:55Z</time>
      </trkpt>
      <trkpt lat="45.14761" lon="5.89159">
        <ele>1093.6</ele>
        <time>2020-08-11T05:33:56Z</time>
      </trkpt>
      <trkpt lat="45.14761" lon="5.8916">
        <ele>1093.4</ele>
        <time>2020-08-11T05:33:57Z</time>
      </trkpt>
      <trkpt lat="45.14761" lon="5.89161">
        <ele>1093.6</ele>
        <time>2020-08-11T05:33:58Z</time>
      </trkpt>
      <trkpt lat="45.14761" lon="5.89162">
        <ele>1093.4</ele>
        <time>2020-08-11T05:33:59Z</time>
      </trkpt>
      <trkpt lat="45.14761" lon="5.89163">
        <ele>1093.4</ele>
        <time>2020-08-11T05:34:00Z</time>
      </trkpt>
      <trkpt lat="45.14761" lon="5.89163">
        <ele>1093</ele>
        <time>2020-08-11T05:34:01Z</time>
      </trkpt>
      <trkpt lat="45.14761" lon="5.89164">
        <ele>1092.6</ele>
        <time>2020-08-11T05:34:02Z</time>
      </trkpt>
      <trkpt lat="45.14761" lon="5.89165">
        <ele>1092.4</ele>
        <time>2020-08-11T05:34:03Z</time>
      </trkpt>
      <trkpt lat="45.14761" lon="5.89166">
        <ele>1092.2</ele>
        <time>2020-08-11T05:34:04Z</time>
      </trkpt>
      <trkpt lat="45.14761" lon="5.89167">
        <ele>1092.4</ele>
        <time>2020-08-11T05:34:05Z</time>
      </trkpt>
      <trkpt lat="45.1476" lon="5.89168">
        <ele>1092.4</ele>
        <time>2020-08-11T05:34:06Z</time>
      </trkpt>
      <trkpt lat="45.1476" lon="5.89169">
        <ele>1092.4</ele>
        <time>2020-08-11T05:34:07Z</time>
      </trkpt>
      <trkpt lat="45.1476" lon="5.8917">
        <ele>1092.6</ele>
        <time>2020-08-11T05:34:08Z</time>
      </trkpt>
      <trkpt lat="45.1476" lon="5.89171">
        <ele>1092.4</ele>
        <time>2020-08-11T05:34:09Z</time>
      </trkpt>
      <trkpt lat="45.1476" lon="5.89172">
        <ele>1092.6</ele>
        <time>2020-08-11T05:34:10Z</time>
      </trkpt>
      <trkpt lat="45.1476" lon="5.89172">
        <ele>1092.4</ele>
        <time>2020-08-11T05:34:11Z</time>
      </trkpt>
      <trkpt lat="45.14761" lon="5.89175">
        <ele>1092.6</ele>
        <time>2020-08-11T05:34:12Z</time>
      </trkpt>
      <trkpt lat="45.14762" lon="5.89177">
        <ele>1092.2</ele>
        <time>2020-08-11T05:34:13Z</time>
      </trkpt>
      <trkpt lat="45.14763" lon="5.8918">
        <ele>1092.2</ele>
        <time>2020-08-11T05:34:14Z</time>
      </trkpt>
      <trkpt lat="45.14764" lon="5.89182">
        <ele>1092.8</ele>
        <time>2020-08-11T05:34:15Z</time>
      </trkpt>
      <trkpt lat="45.14764" lon="5.89184">
        <ele>1093.2</ele>
        <time>2020-08-11T05:34:16Z</time>
      </trkpt>
      <trkpt lat="45.14765" lon="5.89187">
        <ele>1093.8</ele>
        <time>2020-08-11T05:34:17Z</time>
      </trkpt>
      <trkpt lat="45.14765" lon="5.8919">
        <ele>1094</ele>
        <time>2020-08-11T05:34:18Z</time>
      </trkpt>
      <trkpt lat="45.14766" lon="5.89193">
        <ele>1094.4</ele>
        <time>2020-08-11T05:34:19Z</time>
      </trkpt>
      <trkpt lat="45.14766" lon="5.89195">
        <ele>1094.6</ele>
        <time>2020-08-11T05:34:20Z</time>
      </trkpt>
      <trkpt lat="45.14766" lon="5.89198">
        <ele>1094.8</ele>
        <time>2020-08-11T05:34:21Z</time>
      </trkpt>
      <trkpt lat="45.14767" lon="5.89201">
        <ele>1094.8</ele>
        <time>2020-08-11T05:34:22Z</time>
      </trkpt>
      <trkpt lat="45.14768" lon="5.89203">
        <ele>1094.8</ele>
        <time>2020-08-11T05:34:23Z</time>
      </trkpt>
      <trkpt lat="45.14769" lon="5.89206">
        <ele>1094.8</ele>
        <time>2020-08-11T05:34:24Z</time>
      </trkpt>
      <trkpt lat="45.1477" lon="5.89208">
        <ele>1094.4</ele>
        <time>2020-08-11T05:34:25Z</time>
      </trkpt>
      <trkpt lat="45.14771" lon="5.89211">
        <ele>1095.2</ele>
        <time>2020-08-11T05:34:26Z</time>
      </trkpt>
      <trkpt lat="45.14772" lon="5.89213">
        <ele>1095.4</ele>
        <time>2020-08-11T05:34:27Z</time>
      </trkpt>
      <trkpt lat="45.14773" lon="5.89216">
        <ele>1096</ele>
        <time>2020-08-11T05:34:28Z</time>
      </trkpt>
      <trkpt lat="45.14774" lon="5.89219">
        <ele>1095.8</ele>
        <time>2020-08-11T05:34:29Z</time>
      </trkpt>
      <trkpt lat="45.14775" lon="5.89221">
        <ele>1096.2</ele>
        <time>2020-08-11T05:34:30Z</time>
      </trkpt>
      <trkpt lat="45.14776" lon="5.89224">
        <ele>1096.2</ele>
        <time>2020-08-11T05:34:31Z</time>
      </trkpt>
      <trkpt lat="45.14777" lon="5.89227">
        <ele>1096.4</ele>
        <time>2020-08-11T05:34:32Z</time>
      </trkpt>
      <trkpt lat="45.14777" lon="5.8923">
        <ele>1096.2</ele>
        <time>2020-08-11T05:34:33Z</time>
      </trkpt>
      <trkpt lat="45.14778" lon="5.89233">
        <ele>1096.4</ele>
        <time>2020-08-11T05:34:34Z</time>
      </trkpt>
      <trkpt lat="45.14779" lon="5.89236">
        <ele>1096.2</ele>
        <time>2020-08-11T05:34:35Z</time>
      </trkpt>
      <trkpt lat="45.14779" lon="5.89239">
        <ele>1096</ele>
        <time>2020-08-11T05:34:36Z</time>
      </trkpt>
      <trkpt lat="45.1478" lon="5.89242">
        <ele>1096</ele>
        <time>2020-08-11T05:34:37Z</time>
      </trkpt>
      <trkpt lat="45.1478" lon="5.89245">
        <ele>1095.6</ele>
        <time>2020-08-11T05:34:38Z</time>
      </trkpt>
      <trkpt lat="45.1478" lon="5.89248">
        <ele>1095.8</ele>
        <time>2020-08-11T05:34:39Z</time>
      </trkpt>
      <trkpt lat="45.1478" lon="5.89251">
        <ele>1095.8</ele>
        <time>2020-08-11T05:34:40Z</time>
      </trkpt>
      <trkpt lat="45.1478" lon="5.89254">
        <ele>1096</ele>
        <time>2020-08-11T05:34:41Z</time>
      </trkpt>
      <trkpt lat="45.14781" lon="5.89256">
        <ele>1096</ele>
        <time>2020-08-11T05:34:42Z</time>
      </trkpt>
      <trkpt lat="45.14782" lon="5.89259">
        <ele>1096</ele>
        <time>2020-08-11T05:34:43Z</time>
      </trkpt>
      <trkpt lat="45.14783" lon="5.89262">
        <ele>1095.8</ele>
        <time>2020-08-11T05:34:44Z</time>
      </trkpt>
      <trkpt lat="45.14784" lon="5.89265">
        <ele>1096</ele>
        <time>2020-08-11T05:34:45Z</time>
      </trkpt>
      <trkpt lat="45.14785" lon="5.89268">
        <ele>1095.8</ele>
        <time>2020-08-11T05:34:46Z</time>
      </trkpt>
      <trkpt lat="45.14786" lon="5.8927">
        <ele>1095.8</ele>
        <time>2020-08-11T05:34:47Z</time>
      </trkpt>
      <trkpt lat="45.14788" lon="5.89272">
        <ele>1095.6</ele>
        <time>2020-08-11T05:34:48Z</time>
      </trkpt>
      <trkpt lat="45.14789" lon="5.89274">
        <ele>1095.8</ele>
        <time>2020-08-11T05:34:49Z</time>
      </trkpt>
      <trkpt lat="45.1479" lon="5.89275">
        <ele>1095.6</ele>
        <time>2020-08-11T05:34:50Z</time>
      </trkpt>
      <trkpt lat="45.14792" lon="5.89277">
        <ele>1095.6</ele>
        <time>2020-08-11T05:34:51Z</time>
      </trkpt>
      <trkpt lat="45.14793" lon="5.89279">
        <ele>1095.6</ele>
        <time>2020-08-11T05:34:52Z</time>
      </trkpt>
      <trkpt lat="45.14794" lon="5.89281">
        <ele>1095.4</ele>
        <time>2020-08-11T05:34:53Z</time>
      </trkpt>
      <trkpt lat="45.14795" lon="5.89283">
        <ele>1095.6</ele>
        <time>2020-08-11T05:34:54Z</time>
      </trkpt>
      <trkpt lat="45.14796" lon="5.89284">
        <ele>1095.8</ele>
        <time>2020-08-11T05:34:55Z</time>
      </trkpt>
      <trkpt lat="45.14797" lon="5.89286">
        <ele>1096.2</ele>
        <time>2020-08-11T05:34:56Z</time>
      </trkpt>
      <trkpt lat="45.14798" lon="5.89288">
        <ele>1095.8</ele>
        <time>2020-08-11T05:34:57Z</time>
      </trkpt>
      <trkpt lat="45.148" lon="5.89291">
        <ele>1096.2</ele>
        <time>2020-08-11T05:34:58Z</time>
      </trkpt>
      <trkpt lat="45.14802" lon="5.89293">
        <ele>1096</ele>
        <time>2020-08-11T05:34:59Z</time>
      </trkpt>
      <trkpt lat="45.14804" lon="5.89296">
        <ele>1096.4</ele>
        <time>2020-08-11T05:35:00Z</time>
      </trkpt>
      <trkpt lat="45.14806" lon="5.89299">
        <ele>1096.2</ele>
        <time>2020-08-11T05:35:01Z</time>
      </trkpt>
      <trkpt lat="45.14808" lon="5.89302">
        <ele>1096.4</ele>
        <time>2020-08-11T05:35:02Z</time>
      </trkpt>
      <trkpt lat="45.1481" lon="5.89305">
        <ele>1096.6</ele>
        <time>2020-08-11T05:35:03Z</time>
      </trkpt>
      <trkpt lat="45.14812" lon="5.89308">
        <ele>1096.8</ele>
        <time>2020-08-11T05:35:04Z</time>
      </trkpt>
      <trkpt lat="45.14814" lon="5.89311">
        <ele>1096.8</ele>
        <time>2020-08-11T05:35:05Z</time>
      </trkpt>
      <trkpt lat="45.14816" lon="5.89315">
        <ele>1096.8</ele>
        <time>2020-08-11T05:35:06Z</time>
      </trkpt>
      <trkpt lat="45.14818" lon="5.89318">
        <ele>1096.6</ele>
        <time>2020-08-11T05:35:07Z</time>
      </trkpt>
      <trkpt lat="45.1482" lon="5.8932">
        <ele>1096.6</ele>
        <time>2020-08-11T05:35:08Z</time>
      </trkpt>
      <trkpt lat="45.14821" lon="5.89323">
        <ele>1096.6</ele>
        <time>2020-08-11T05:35:09Z</time>
      </trkpt>
      <trkpt lat="45.14822" lon="5.89326">
        <ele>1096.2</ele>
        <time>2020-08-11T05:35:10Z</time>
      </trkpt>
      <trkpt lat="45.14824" lon="5.89328">
        <ele>1096</ele>
        <time>2020-08-11T05:35:11Z</time>
      </trkpt>
      <trkpt lat="45.14825" lon="5.89331">
        <ele>1096</ele>
        <time>2020-08-11T05:35:12Z</time>
      </trkpt>
      <trkpt lat="45.14826" lon="5.89333">
        <ele>1096.6</ele>
        <time>2020-08-11T05:35:13Z</time>
      </trkpt>
      <trkpt lat="45.14827" lon="5.89336">
        <ele>1096.8</ele>
        <time>2020-08-11T05:35:14Z</time>
      </trkpt>
      <trkpt lat="45.14828" lon="5.89339">
        <ele>1097.2</ele>
        <time>2020-08-11T05:35:15Z</time>
      </trkpt>
      <trkpt lat="45.14829" lon="5.89341">
        <ele>1097.2</ele>
        <time>2020-08-11T05:35:16Z</time>
      </trkpt>
      <trkpt lat="45.1483" lon="5.89344">
        <ele>1097.6</ele>
        <time>2020-08-11T05:35:17Z</time>
      </trkpt>
      <trkpt lat="45.14831" lon="5.89347">
        <ele>1097.6</ele>
        <time>2020-08-11T05:35:18Z</time>
      </trkpt>
      <trkpt lat="45.14832" lon="5.89349">
        <ele>1097.6</ele>
        <time>2020-08-11T05:35:19Z</time>
      </trkpt>
      <trkpt lat="45.14833" lon="5.89352">
        <ele>1097.4</ele>
        <time>2020-08-11T05:35:20Z</time>
      </trkpt>
      <trkpt lat="45.14833" lon="5.89355">
        <ele>1097.6</ele>
        <time>2020-08-11T05:35:21Z</time>
      </trkpt>
      <trkpt lat="45.14834" lon="5.89358">
        <ele>1097.6</ele>
        <time>2020-08-11T05:35:22Z</time>
      </trkpt>
      <trkpt lat="45.14835" lon="5.89359">
        <ele>1097.6</ele>
        <time>2020-08-11T05:35:23Z</time>
      </trkpt>
      <trkpt lat="45.14837" lon="5.89361">
        <ele>1097.4</ele>
        <time>2020-08-11T05:35:24Z</time>
      </trkpt>
      <trkpt lat="45.14838" lon="5.89362">
        <ele>1097.2</ele>
        <time>2020-08-11T05:35:25Z</time>
      </trkpt>
      <trkpt lat="45.14839" lon="5.89364">
        <ele>1097.4</ele>
        <time>2020-08-11T05:35:26Z</time>
      </trkpt>
      <trkpt lat="45.1484" lon="5.89366">
        <ele>1097.6</ele>
        <time>2020-08-11T05:35:27Z</time>
      </trkpt>
      <trkpt lat="45.14842" lon="5.89367">
        <ele>1098</ele>
        <time>2020-08-11T05:35:28Z</time>
      </trkpt>
      <trkpt lat="45.14843" lon="5.89369">
        <ele>1098.2</ele>
        <time>2020-08-11T05:35:29Z</time>
      </trkpt>
      <trkpt lat="45.14844" lon="5.8937">
        <ele>1098.6</ele>
        <time>2020-08-11T05:35:30Z</time>
      </trkpt>
      <trkpt lat="45.14845" lon="5.89371">
        <ele>1098.6</ele>
        <time>2020-08-11T05:35:31Z</time>
      </trkpt>
      <trkpt lat="45.14846" lon="5.89372">
        <ele>1098.6</ele>
        <time>2020-08-11T05:35:32Z</time>
      </trkpt>
      <trkpt lat="45.14847" lon="5.89374">
        <ele>1099</ele>
        <time>2020-08-11T05:35:33Z</time>
      </trkpt>
      <trkpt lat="45.14848" lon="5.89375">
        <ele>1099</ele>
        <time>2020-08-11T05:35:34Z</time>
      </trkpt>
      <trkpt lat="45.14848" lon="5.89376">
        <ele>1099.8</ele>
        <time>2020-08-11T05:35:35Z</time>
      </trkpt>
      <trkpt lat="45.14849" lon="5.89378">
        <ele>1099.8</ele>
        <time>2020-08-11T05:35:36Z</time>
      </trkpt>
      <trkpt lat="45.1485" lon="5.8938">
        <ele>1100.2</ele>
        <time>2020-08-11T05:35:37Z</time>
      </trkpt>
      <trkpt lat="45.14851" lon="5.89382">
        <ele>1100.2</ele>
        <time>2020-08-11T05:35:38Z</time>
      </trkpt>
      <trkpt lat="45.14852" lon="5.89385">
        <ele>1100.4</ele>
        <time>2020-08-11T05:35:39Z</time>
      </trkpt>
      <trkpt lat="45.14853" lon="5.89387">
        <ele>1100.4</ele>
        <time>2020-08-11T05:35:40Z</time>
      </trkpt>
      <trkpt lat="45.14854" lon="5.89389">
        <ele>1100.6</ele>
        <time>2020-08-11T05:35:41Z</time>
      </trkpt>
      <trkpt lat="45.14856" lon="5.89391">
        <ele>1100.8</ele>
        <time>2020-08-11T05:35:42Z</time>
      </trkpt>
      <trkpt lat="45.14857" lon="5.89393">
        <ele>1101</ele>
        <time>2020-08-11T05:35:43Z</time>
      </trkpt>
      <trkpt lat="45.14859" lon="5.89395">
        <ele>1101.4</ele>
        <time>2020-08-11T05:35:44Z</time>
      </trkpt>
      <trkpt lat="45.1486" lon="5.89397">
        <ele>1101.6</ele>
        <time>2020-08-11T05:35:45Z</time>
      </trkpt>
      <trkpt lat="45.14862" lon="5.89399">
        <ele>1101.8</ele>
        <time>2020-08-11T05:35:46Z</time>
      </trkpt>
      <trkpt lat="45.14863" lon="5.89401">
        <ele>1101.8</ele>
        <time>2020-08-11T05:35:47Z</time>
      </trkpt>
      <trkpt lat="45.14864" lon="5.89402">
        <ele>1102</ele>
        <time>2020-08-11T05:35:48Z</time>
      </trkpt>
      <trkpt lat="45.14866" lon="5.89404">
        <ele>1102.4</ele>
        <time>2020-08-11T05:35:49Z</time>
      </trkpt>
      <trkpt lat="45.14867" lon="5.89406">
        <ele>1102.6</ele>
        <time>2020-08-11T05:35:50Z</time>
      </trkpt>
      <trkpt lat="45.14868" lon="5.89408">
        <ele>1102.6</ele>
        <time>2020-08-11T05:35:51Z</time>
      </trkpt>
      <trkpt lat="45.1487" lon="5.89408">
        <ele>1102.8</ele>
        <time>2020-08-11T05:35:52Z</time>
      </trkpt>
      <trkpt lat="45.14871" lon="5.89409">
        <ele>1103.2</ele>
        <time>2020-08-11T05:35:53Z</time>
      </trkpt>
      <trkpt lat="45.14873" lon="5.8941">
        <ele>1103.4</ele>
        <time>2020-08-11T05:35:54Z</time>
      </trkpt>
      <trkpt lat="45.14874" lon="5.8941">
        <ele>1103.6</ele>
        <time>2020-08-11T05:35:55Z</time>
      </trkpt>
      <trkpt lat="45.14876" lon="5.89411">
        <ele>1103.8</ele>
        <time>2020-08-11T05:35:56Z</time>
      </trkpt>
      <trkpt lat="45.14878" lon="5.89412">
        <ele>1104</ele>
        <time>2020-08-11T05:35:57Z</time>
      </trkpt>
      <trkpt lat="45.14879" lon="5.89413">
        <ele>1104.4</ele>
        <time>2020-08-11T05:35:58Z</time>
      </trkpt>
      <trkpt lat="45.1488" lon="5.89414">
        <ele>1104.6</ele>
        <time>2020-08-11T05:35:59Z</time>
      </trkpt>
      <trkpt lat="45.14882" lon="5.89415">
        <ele>1104.6</ele>
        <time>2020-08-11T05:36:00Z</time>
      </trkpt>
      <trkpt lat="45.14883" lon="5.89416">
        <ele>1104.8</ele>
        <time>2020-08-11T05:36:01Z</time>
      </trkpt>
      <trkpt lat="45.14885" lon="5.89417">
        <ele>1105</ele>
        <time>2020-08-11T05:36:02Z</time>
      </trkpt>
      <trkpt lat="45.14886" lon="5.89418">
        <ele>1105.2</ele>
        <time>2020-08-11T05:36:03Z</time>
      </trkpt>
      <trkpt lat="45.14889" lon="5.89421">
        <ele>1105.4</ele>
        <time>2020-08-11T05:36:04Z</time>
      </trkpt>
      <trkpt lat="45.14891" lon="5.89424">
        <ele>1105.4</ele>
        <time>2020-08-11T05:36:05Z</time>
      </trkpt>
      <trkpt lat="45.14893" lon="5.89428">
        <ele>1105.6</ele>
        <time>2020-08-11T05:36:06Z</time>
      </trkpt>
      <trkpt lat="45.14896" lon="5.89429">
        <ele>1105.6</ele>
        <time>2020-08-11T05:36:07Z</time>
      </trkpt>
      <trkpt lat="45.14898" lon="5.89431">
        <ele>1105.8</ele>
        <time>2020-08-11T05:36:08Z</time>
      </trkpt>
      <trkpt lat="45.149" lon="5.89432">
        <ele>1105.8</ele>
        <time>2020-08-11T05:36:09Z</time>
      </trkpt>
      <trkpt lat="45.14902" lon="5.89434">
        <ele>1106.2</ele>
        <time>2020-08-11T05:36:10Z</time>
      </trkpt>
      <trkpt lat="45.14903" lon="5.89435">
        <ele>1106.4</ele>
        <time>2020-08-11T05:36:11Z</time>
      </trkpt>
      <trkpt lat="45.14905" lon="5.89437">
        <ele>1106.8</ele>
        <time>2020-08-11T05:36:12Z</time>
      </trkpt>
      <trkpt lat="45.14906" lon="5.89438">
        <ele>1107.2</ele>
        <time>2020-08-11T05:36:13Z</time>
      </trkpt>
      <trkpt lat="45.14907" lon="5.89439">
        <ele>1107.6</ele>
        <time>2020-08-11T05:36:14Z</time>
      </trkpt>
      <trkpt lat="45.14909" lon="5.89441">
        <ele>1107.8</ele>
        <time>2020-08-11T05:36:15Z</time>
      </trkpt>
      <trkpt lat="45.1491" lon="5.89442">
        <ele>1108.2</ele>
        <time>2020-08-11T05:36:16Z</time>
      </trkpt>
      <trkpt lat="45.14912" lon="5.89444">
        <ele>1108.2</ele>
        <time>2020-08-11T05:36:17Z</time>
      </trkpt>
      <trkpt lat="45.14913" lon="5.89445">
        <ele>1108.8</ele>
        <time>2020-08-11T05:36:18Z</time>
      </trkpt>
      <trkpt lat="45.14915" lon="5.89447">
        <ele>1109.2</ele>
        <time>2020-08-11T05:36:19Z</time>
      </trkpt>
      <trkpt lat="45.14916" lon="5.89448">
        <ele>1109.2</ele>
        <time>2020-08-11T05:36:20Z</time>
      </trkpt>
      <trkpt lat="45.14918" lon="5.8945">
        <ele>1109.4</ele>
        <time>2020-08-11T05:36:21Z</time>
      </trkpt>
      <trkpt lat="45.14918" lon="5.89451">
        <ele>1109.4</ele>
        <time>2020-08-11T05:36:22Z</time>
      </trkpt>
      <trkpt lat="45.14919" lon="5.89451">
        <ele>1109.4</ele>
        <time>2020-08-11T05:36:23Z</time>
      </trkpt>
      <trkpt lat="45.14919" lon="5.89452">
        <ele>1109.4</ele>
        <time>2020-08-11T05:36:24Z</time>
      </trkpt>
      <trkpt lat="45.1492" lon="5.89453">
        <ele>1109.6</ele>
        <time>2020-08-11T05:36:25Z</time>
      </trkpt>
      <trkpt lat="45.1492" lon="5.89454">
        <ele>1109.6</ele>
        <time>2020-08-11T05:36:26Z</time>
      </trkpt>
      <trkpt lat="45.14921" lon="5.89455">
        <ele>1110</ele>
        <time>2020-08-11T05:36:27Z</time>
      </trkpt>
      <trkpt lat="45.14921" lon="5.89456">
        <ele>1110.4</ele>
        <time>2020-08-11T05:36:28Z</time>
      </trkpt>
      <trkpt lat="45.14922" lon="5.89456">
        <ele>1110.6</ele>
        <time>2020-08-11T05:36:29Z</time>
      </trkpt>
      <trkpt lat="45.14922" lon="5.89457">
        <ele>1111</ele>
        <time>2020-08-11T05:36:30Z</time>
      </trkpt>
      <trkpt lat="45.14923" lon="5.89458">
        <ele>1111</ele>
        <time>2020-08-11T05:36:31Z</time>
      </trkpt>
      <trkpt lat="45.14923" lon="5.89459">
        <ele>1111.2</ele>
        <time>2020-08-11T05:36:32Z</time>
      </trkpt>
      <trkpt lat="45.14924" lon="5.8946">
        <ele>1111.4</ele>
        <time>2020-08-11T05:36:33Z</time>
      </trkpt>
      <trkpt lat="45.14925" lon="5.89461">
        <ele>1111.4</ele>
        <time>2020-08-11T05:36:34Z</time>
      </trkpt>
      <trkpt lat="45.14926" lon="5.89462">
        <ele>1111.6</ele>
        <time>2020-08-11T05:36:35Z</time>
      </trkpt>
      <trkpt lat="45.14926" lon="5.89464">
        <ele>1111.8</ele>
        <time>2020-08-11T05:36:36Z</time>
      </trkpt>
      <trkpt lat="45.14927" lon="5.89465">
        <ele>1111.8</ele>
        <time>2020-08-11T05:36:37Z</time>
      </trkpt>
      <trkpt lat="45.14928" lon="5.89467">
        <ele>1112</ele>
        <time>2020-08-11T05:36:38Z</time>
      </trkpt>
      <trkpt lat="45.14929" lon="5.89468">
        <ele>1112</ele>
        <time>2020-08-11T05:36:39Z</time>
      </trkpt>
      <trkpt lat="45.1493" lon="5.89469">
        <ele>1112.2</ele>
        <time>2020-08-11T05:36:40Z</time>
      </trkpt>
      <trkpt lat="45.1493" lon="5.89471">
        <ele>1112.4</ele>
        <time>2020-08-11T05:36:41Z</time>
      </trkpt>
      <trkpt lat="45.14931" lon="5.89473">
        <ele>1112.8</ele>
        <time>2020-08-11T05:36:42Z</time>
      </trkpt>
      <trkpt lat="45.14932" lon="5.89475">
        <ele>1113</ele>
        <time>2020-08-11T05:36:43Z</time>
      </trkpt>
      <trkpt lat="45.14933" lon="5.89476">
        <ele>1113.4</ele>
        <time>2020-08-11T05:36:44Z</time>
      </trkpt>
      <trkpt lat="45.14934" lon="5.89478">
        <ele>1113.6</ele>
        <time>2020-08-11T05:36:45Z</time>
      </trkpt>
      <trkpt lat="45.14935" lon="5.8948">
        <ele>1113.6</ele>
        <time>2020-08-11T05:36:46Z</time>
      </trkpt>
      <trkpt lat="45.14936" lon="5.89482">
        <ele>1113.6</ele>
        <time>2020-08-11T05:36:47Z</time>
      </trkpt>
      <trkpt lat="45.14937" lon="5.89483">
        <ele>1113.8</ele>
        <time>2020-08-11T05:36:48Z</time>
      </trkpt>
      <trkpt lat="45.14938" lon="5.89484">
        <ele>1114</ele>
        <time>2020-08-11T05:36:49Z</time>
      </trkpt>
      <trkpt lat="45.14938" lon="5.89486">
        <ele>1114</ele>
        <time>2020-08-11T05:36:50Z</time>
      </trkpt>
      <trkpt lat="45.14939" lon="5.89487">
        <ele>1114.2</ele>
        <time>2020-08-11T05:36:51Z</time>
      </trkpt>
      <trkpt lat="45.1494" lon="5.89488">
        <ele>1114.2</ele>
        <time>2020-08-11T05:36:52Z</time>
      </trkpt>
      <trkpt lat="45.14941" lon="5.89489">
        <ele>1114.4</ele>
        <time>2020-08-11T05:36:53Z</time>
      </trkpt>
      <trkpt lat="45.14941" lon="5.8949">
        <ele>1114.6</ele>
        <time>2020-08-11T05:36:54Z</time>
      </trkpt>
      <trkpt lat="45.14942" lon="5.89491">
        <ele>1114.6</ele>
        <time>2020-08-11T05:36:55Z</time>
      </trkpt>
      <trkpt lat="45.14943" lon="5.89492">
        <ele>1114.8</ele>
        <time>2020-08-11T05:36:56Z</time>
      </trkpt>
      <trkpt lat="45.14943" lon="5.89494">
        <ele>1114.8</ele>
        <time>2020-08-11T05:36:57Z</time>
      </trkpt>
      <trkpt lat="45.14944" lon="5.89495">
        <ele>1115</ele>
        <time>2020-08-11T05:36:58Z</time>
      </trkpt>
      <trkpt lat="45.14944" lon="5.89497">
        <ele>1115.2</ele>
        <time>2020-08-11T05:36:59Z</time>
      </trkpt>
      <trkpt lat="45.14945" lon="5.89498">
        <ele>1115.4</ele>
        <time>2020-08-11T05:37:00Z</time>
      </trkpt>
      <trkpt lat="45.14946" lon="5.89499">
        <ele>1115.6</ele>
        <time>2020-08-11T05:37:01Z</time>
      </trkpt>
      <trkpt lat="45.14946" lon="5.89501">
        <ele>1115.6</ele>
        <time>2020-08-11T05:37:02Z</time>
      </trkpt>
      <trkpt lat="45.14947" lon="5.89502">
        <ele>1116</ele>
        <time>2020-08-11T05:37:03Z</time>
      </trkpt>
      <trkpt lat="45.14948" lon="5.89504">
        <ele>1116</ele>
        <time>2020-08-11T05:37:04Z</time>
      </trkpt>
      <trkpt lat="45.14948" lon="5.89505">
        <ele>1116.2</ele>
        <time>2020-08-11T05:37:05Z</time>
      </trkpt>
      <trkpt lat="45.14949" lon="5.89507">
        <ele>1116.2</ele>
        <time>2020-08-11T05:37:06Z</time>
      </trkpt>
      <trkpt lat="45.14949" lon="5.89509">
        <ele>1116.2</ele>
        <time>2020-08-11T05:37:07Z</time>
      </trkpt>
      <trkpt lat="45.1495" lon="5.8951">
        <ele>1116.4</ele>
        <time>2020-08-11T05:37:08Z</time>
      </trkpt>
      <trkpt lat="45.14951" lon="5.89512">
        <ele>1116.8</ele>
        <time>2020-08-11T05:37:09Z</time>
      </trkpt>
      <trkpt lat="45.14951" lon="5.89513">
        <ele>1117.2</ele>
        <time>2020-08-11T05:37:10Z</time>
      </trkpt>
      <trkpt lat="45.14952" lon="5.89515">
        <ele>1117.8</ele>
        <time>2020-08-11T05:37:11Z</time>
      </trkpt>
      <trkpt lat="45.14952" lon="5.89517">
        <ele>1118.2</ele>
        <time>2020-08-11T05:37:12Z</time>
      </trkpt>
      <trkpt lat="45.14952" lon="5.89519">
        <ele>1118.4</ele>
        <time>2020-08-11T05:37:13Z</time>
      </trkpt>
      <trkpt lat="45.14952" lon="5.89521">
        <ele>1118.6</ele>
        <time>2020-08-11T05:37:14Z</time>
      </trkpt>
      <trkpt lat="45.14952" lon="5.89523">
        <ele>1119</ele>
        <time>2020-08-11T05:37:15Z</time>
      </trkpt>
      <trkpt lat="45.14952" lon="5.89525">
        <ele>1119.2</ele>
        <time>2020-08-11T05:37:16Z</time>
      </trkpt>
      <trkpt lat="45.14952" lon="5.89527">
        <ele>1119.2</ele>
        <time>2020-08-11T05:37:17Z</time>
      </trkpt>
      <trkpt lat="45.14952" lon="5.89529">
        <ele>1119.8</ele>
        <time>2020-08-11T05:37:18Z</time>
      </trkpt>
      <trkpt lat="45.14953" lon="5.89532">
        <ele>1119.8</ele>
        <time>2020-08-11T05:37:19Z</time>
      </trkpt>
      <trkpt lat="45.14954" lon="5.89535">
        <ele>1120.2</ele>
        <time>2020-08-11T05:37:20Z</time>
      </trkpt>
      <trkpt lat="45.14955" lon="5.89538">
        <ele>1120</ele>
        <time>2020-08-11T05:37:21Z</time>
      </trkpt>
      <trkpt lat="45.14957" lon="5.89541">
        <ele>1120</ele>
        <time>2020-08-11T05:37:22Z</time>
      </trkpt>
      <trkpt lat="45.14956" lon="5.89544">
        <ele>1120</ele>
        <time>2020-08-11T05:37:23Z</time>
      </trkpt>
      <trkpt lat="45.14956" lon="5.89546">
        <ele>1119.8</ele>
        <time>2020-08-11T05:37:24Z</time>
      </trkpt>
      <trkpt lat="45.14956" lon="5.89548">
        <ele>1120.2</ele>
        <time>2020-08-11T05:37:25Z</time>
      </trkpt>
      <trkpt lat="45.14955" lon="5.89551">
        <ele>1120.4</ele>
        <time>2020-08-11T05:37:26Z</time>
      </trkpt>
      <trkpt lat="45.14955" lon="5.89553">
        <ele>1120.8</ele>
        <time>2020-08-11T05:37:27Z</time>
      </trkpt>
      <trkpt lat="45.14955" lon="5.89556">
        <ele>1121</ele>
        <time>2020-08-11T05:37:28Z</time>
      </trkpt>
      <trkpt lat="45.14955" lon="5.89559">
        <ele>1121.2</ele>
        <time>2020-08-11T05:37:29Z</time>
      </trkpt>
      <trkpt lat="45.14955" lon="5.89562">
        <ele>1121.2</ele>
        <time>2020-08-11T05:37:30Z</time>
      </trkpt>
      <trkpt lat="45.14955" lon="5.89566">
        <ele>1121.4</ele>
        <time>2020-08-11T05:37:31Z</time>
      </trkpt>
      <trkpt lat="45.14955" lon="5.89569">
        <ele>1121.4</ele>
        <time>2020-08-11T05:37:32Z</time>
      </trkpt>
      <trkpt lat="45.14956" lon="5.89572">
        <ele>1121.4</ele>
        <time>2020-08-11T05:37:33Z</time>
      </trkpt>
      <trkpt lat="45.14956" lon="5.89575">
        <ele>1121.4</ele>
        <time>2020-08-11T05:37:34Z</time>
      </trkpt>
      <trkpt lat="45.14956" lon="5.89579">
        <ele>1121.4</ele>
        <time>2020-08-11T05:37:35Z</time>
      </trkpt>
      <trkpt lat="45.14957" lon="5.89582">
        <ele>1121.4</ele>
        <time>2020-08-11T05:37:36Z</time>
      </trkpt>
      <trkpt lat="45.14956" lon="5.89585">
        <ele>1121.2</ele>
        <time>2020-08-11T05:37:37Z</time>
      </trkpt>
      <trkpt lat="45.14956" lon="5.89587">
        <ele>1121.6</ele>
        <time>2020-08-11T05:37:38Z</time>
      </trkpt>
      <trkpt lat="45.14955" lon="5.8959">
        <ele>1121.8</ele>
        <time>2020-08-11T05:37:39Z</time>
      </trkpt>
      <trkpt lat="45.14954" lon="5.89592">
        <ele>1122.2</ele>
        <time>2020-08-11T05:37:40Z</time>
      </trkpt>
      <trkpt lat="45.14954" lon="5.89595">
        <ele>1122.2</ele>
        <time>2020-08-11T05:37:41Z</time>
      </trkpt>
      <trkpt lat="45.14952" lon="5.89597">
        <ele>1122.4</ele>
        <time>2020-08-11T05:37:42Z</time>
      </trkpt>
      <trkpt lat="45.14951" lon="5.89599">
        <ele>1122.6</ele>
        <time>2020-08-11T05:37:43Z</time>
      </trkpt>
      <trkpt lat="45.14949" lon="5.89601">
        <ele>1122.8</ele>
        <time>2020-08-11T05:37:44Z</time>
      </trkpt>
      <trkpt lat="45.14947" lon="5.89603">
        <ele>1122.8</ele>
        <time>2020-08-11T05:37:45Z</time>
      </trkpt>
      <trkpt lat="45.14946" lon="5.89605">
        <ele>1123</ele>
        <time>2020-08-11T05:37:46Z</time>
      </trkpt>
      <trkpt lat="45.14944" lon="5.89606">
        <ele>1123</ele>
        <time>2020-08-11T05:37:47Z</time>
      </trkpt>
      <trkpt lat="45.14941" lon="5.89606">
        <ele>1123.2</ele>
        <time>2020-08-11T05:37:48Z</time>
      </trkpt>
      <trkpt lat="45.14939" lon="5.89607">
        <ele>1123.2</ele>
        <time>2020-08-11T05:37:49Z</time>
      </trkpt>
      <trkpt lat="45.14937" lon="5.89607">
        <ele>1123.2</ele>
        <time>2020-08-11T05:37:50Z</time>
      </trkpt>
      <trkpt lat="45.14935" lon="5.89608">
        <ele>1123.2</ele>
        <time>2020-08-11T05:37:51Z</time>
      </trkpt>
      <trkpt lat="45.14933" lon="5.8961">
        <ele>1122.8</ele>
        <time>2020-08-11T05:37:52Z</time>
      </trkpt>
      <trkpt lat="45.14931" lon="5.89611">
        <ele>1123.2</ele>
        <time>2020-08-11T05:37:53Z</time>
      </trkpt>
      <trkpt lat="45.14929" lon="5.89612">
        <ele>1123.6</ele>
        <time>2020-08-11T05:37:54Z</time>
      </trkpt>
      <trkpt lat="45.14927" lon="5.89613">
        <ele>1123.8</ele>
        <time>2020-08-11T05:37:55Z</time>
      </trkpt>
      <trkpt lat="45.14926" lon="5.89615">
        <ele>1124</ele>
        <time>2020-08-11T05:37:56Z</time>
      </trkpt>
      <trkpt lat="45.14925" lon="5.89617">
        <ele>1124.2</ele>
        <time>2020-08-11T05:37:57Z</time>
      </trkpt>
      <trkpt lat="45.14924" lon="5.89619">
        <ele>1124.2</ele>
        <time>2020-08-11T05:37:58Z</time>
      </trkpt>
      <trkpt lat="45.14923" lon="5.89621">
        <ele>1124.4</ele>
        <time>2020-08-11T05:37:59Z</time>
      </trkpt>
      <trkpt lat="45.14923" lon="5.89623">
        <ele>1124.6</ele>
        <time>2020-08-11T05:38:00Z</time>
      </trkpt>
      <trkpt lat="45.14922" lon="5.89625">
        <ele>1125</ele>
        <time>2020-08-11T05:38:01Z</time>
      </trkpt>
      <trkpt lat="45.1492" lon="5.89626">
        <ele>1124.8</ele>
        <time>2020-08-11T05:38:02Z</time>
      </trkpt>
      <trkpt lat="45.14919" lon="5.89627">
        <ele>1124.8</ele>
        <time>2020-08-11T05:38:03Z</time>
      </trkpt>
      <trkpt lat="45.14917" lon="5.89629">
        <ele>1124.8</ele>
        <time>2020-08-11T05:38:04Z</time>
      </trkpt>
      <trkpt lat="45.14916" lon="5.8963">
        <ele>1124.8</ele>
        <time>2020-08-11T05:38:05Z</time>
      </trkpt>
      <trkpt lat="45.14914" lon="5.89631">
        <ele>1125</ele>
        <time>2020-08-11T05:38:06Z</time>
      </trkpt>
      <trkpt lat="45.14913" lon="5.89632">
        <ele>1124.8</ele>
        <time>2020-08-11T05:38:07Z</time>
      </trkpt>
      <trkpt lat="45.14911" lon="5.89632">
        <ele>1125.4</ele>
        <time>2020-08-11T05:38:08Z</time>
      </trkpt>
      <trkpt lat="45.14909" lon="5.89633">
        <ele>1125.4</ele>
        <time>2020-08-11T05:38:09Z</time>
      </trkpt>
      <trkpt lat="45.14907" lon="5.89633">
        <ele>1125.8</ele>
        <time>2020-08-11T05:38:10Z</time>
      </trkpt>
      <trkpt lat="45.14906" lon="5.89633">
        <ele>1126</ele>
        <time>2020-08-11T05:38:11Z</time>
      </trkpt>
      <trkpt lat="45.14904" lon="5.89634">
        <ele>1126.2</ele>
        <time>2020-08-11T05:38:12Z</time>
      </trkpt>
      <trkpt lat="45.14902" lon="5.89634">
        <ele>1126.4</ele>
        <time>2020-08-11T05:38:13Z</time>
      </trkpt>
      <trkpt lat="45.14901" lon="5.89635">
        <ele>1126.6</ele>
        <time>2020-08-11T05:38:14Z</time>
      </trkpt>
      <trkpt lat="45.14899" lon="5.89636">
        <ele>1126.6</ele>
        <time>2020-08-11T05:38:15Z</time>
      </trkpt>
      <trkpt lat="45.14898" lon="5.89637">
        <ele>1126.8</ele>
        <time>2020-08-11T05:38:16Z</time>
      </trkpt>
      <trkpt lat="45.14896" lon="5.89638">
        <ele>1126.8</ele>
        <time>2020-08-11T05:38:17Z</time>
      </trkpt>
      <trkpt lat="45.14895" lon="5.89639">
        <ele>1126.8</ele>
        <time>2020-08-11T05:38:18Z</time>
      </trkpt>
      <trkpt lat="45.14893" lon="5.89641">
        <ele>1127.4</ele>
        <time>2020-08-11T05:38:19Z</time>
      </trkpt>
      <trkpt lat="45.14892" lon="5.89642">
        <ele>1127.6</ele>
        <time>2020-08-11T05:38:20Z</time>
      </trkpt>
      <trkpt lat="45.14891" lon="5.89644">
        <ele>1128.2</ele>
        <time>2020-08-11T05:38:21Z</time>
      </trkpt>
      <trkpt lat="45.14891" lon="5.89645">
        <ele>1128.2</ele>
        <time>2020-08-11T05:38:22Z</time>
      </trkpt>
      <trkpt lat="45.1489" lon="5.89647">
        <ele>1128.2</ele>
        <time>2020-08-11T05:38:23Z</time>
      </trkpt>
      <trkpt lat="45.14889" lon="5.89648">
        <ele>1128.4</ele>
        <time>2020-08-11T05:38:24Z</time>
      </trkpt>
      <trkpt lat="45.14888" lon="5.8965">
        <ele>1128.6</ele>
        <time>2020-08-11T05:38:25Z</time>
      </trkpt>
      <trkpt lat="45.14887" lon="5.89651">
        <ele>1128.8</ele>
        <time>2020-08-11T05:38:26Z</time>
      </trkpt>
      <trkpt lat="45.14886" lon="5.89653">
        <ele>1129</ele>
        <time>2020-08-11T05:38:27Z</time>
      </trkpt>
      <trkpt lat="45.14885" lon="5.89655">
        <ele>1129.4</ele>
        <time>2020-08-11T05:38:28Z</time>
      </trkpt>
      <trkpt lat="45.14884" lon="5.89657">
        <ele>1129.6</ele>
        <time>2020-08-11T05:38:29Z</time>
      </trkpt>
      <trkpt lat="45.14883" lon="5.89658">
        <ele>1129.8</ele>
        <time>2020-08-11T05:38:30Z</time>
      </trkpt>
      <trkpt lat="45.14883" lon="5.8966">
        <ele>1129.8</ele>
        <time>2020-08-11T05:38:31Z</time>
      </trkpt>
      <trkpt lat="45.14882" lon="5.89662">
        <ele>1129.6</ele>
        <time>2020-08-11T05:38:32Z</time>
      </trkpt>
      <trkpt lat="45.14881" lon="5.89663">
        <ele>1130.2</ele>
        <time>2020-08-11T05:38:33Z</time>
      </trkpt>
      <trkpt lat="45.1488" lon="5.89666">
        <ele>1130.4</ele>
        <time>2020-08-11T05:38:34Z</time>
      </trkpt>
      <trkpt lat="45.14879" lon="5.89668">
        <ele>1130.8</ele>
        <time>2020-08-11T05:38:35Z</time>
      </trkpt>
      <trkpt lat="45.14878" lon="5.8967">
        <ele>1131</ele>
        <time>2020-08-11T05:38:36Z</time>
      </trkpt>
      <trkpt lat="45.14877" lon="5.89672">
        <ele>1131.4</ele>
        <time>2020-08-11T05:38:37Z</time>
      </trkpt>
      <trkpt lat="45.14877" lon="5.89674">
        <ele>1131.2</ele>
        <time>2020-08-11T05:38:38Z</time>
      </trkpt>
      <trkpt lat="45.14876" lon="5.89677">
        <ele>1131.4</ele>
        <time>2020-08-11T05:38:39Z</time>
      </trkpt>
      <trkpt lat="45.14875" lon="5.8968">
        <ele>1131.6</ele>
        <time>2020-08-11T05:38:40Z</time>
      </trkpt>
      <trkpt lat="45.14874" lon="5.89683">
        <ele>1131.4</ele>
        <time>2020-08-11T05:38:41Z</time>
      </trkpt>
      <trkpt lat="45.14873" lon="5.89686">
        <ele>1131.6</ele>
        <time>2020-08-11T05:38:42Z</time>
      </trkpt>
      <trkpt lat="45.14872" lon="5.89689">
        <ele>1131.8</ele>
        <time>2020-08-11T05:38:43Z</time>
      </trkpt>
      <trkpt lat="45.14872" lon="5.89692">
        <ele>1132.2</ele>
        <time>2020-08-11T05:38:44Z</time>
      </trkpt>
      <trkpt lat="45.14871" lon="5.89694">
        <ele>1132.4</ele>
        <time>2020-08-11T05:38:45Z</time>
      </trkpt>
      <trkpt lat="45.1487" lon="5.89697">
        <ele>1132.6</ele>
        <time>2020-08-11T05:38:46Z</time>
      </trkpt>
      <trkpt lat="45.14869" lon="5.89699">
        <ele>1132.8</ele>
        <time>2020-08-11T05:38:47Z</time>
      </trkpt>
      <trkpt lat="45.14869" lon="5.89702">
        <ele>1132.8</ele>
        <time>2020-08-11T05:38:48Z</time>
      </trkpt>
      <trkpt lat="45.14868" lon="5.89703">
        <ele>1133.4</ele>
        <time>2020-08-11T05:38:49Z</time>
      </trkpt>
      <trkpt lat="45.14866" lon="5.89704">
        <ele>1133.2</ele>
        <time>2020-08-11T05:38:50Z</time>
      </trkpt>
      <trkpt lat="45.14865" lon="5.89705">
        <ele>1133.4</ele>
        <time>2020-08-11T05:38:51Z</time>
      </trkpt>
      <trkpt lat="45.14864" lon="5.89706">
        <ele>1133.8</ele>
        <time>2020-08-11T05:38:52Z</time>
      </trkpt>
      <trkpt lat="45.14863" lon="5.89707">
        <ele>1134</ele>
        <time>2020-08-11T05:38:53Z</time>
      </trkpt>
      <trkpt lat="45.14862" lon="5.89709">
        <ele>1134.2</ele>
        <time>2020-08-11T05:38:54Z</time>
      </trkpt>
      <trkpt lat="45.14861" lon="5.8971">
        <ele>1134.4</ele>
        <time>2020-08-11T05:38:55Z</time>
      </trkpt>
      <trkpt lat="45.1486" lon="5.8971">
        <ele>1134.6</ele>
        <time>2020-08-11T05:38:56Z</time>
      </trkpt>
      <trkpt lat="45.14858" lon="5.8971">
        <ele>1135</ele>
        <time>2020-08-11T05:38:57Z</time>
      </trkpt>
      <trkpt lat="45.14857" lon="5.89711">
        <ele>1135.2</ele>
        <time>2020-08-11T05:38:58Z</time>
      </trkpt>
      <trkpt lat="45.14856" lon="5.89711">
        <ele>1135.2</ele>
        <time>2020-08-11T05:38:59Z</time>
      </trkpt>
      <trkpt lat="45.14854" lon="5.89712">
        <ele>1135.4</ele>
        <time>2020-08-11T05:39:00Z</time>
      </trkpt>
      <trkpt lat="45.14853" lon="5.89712">
        <ele>1135.6</ele>
        <time>2020-08-11T05:39:01Z</time>
      </trkpt>
      <trkpt lat="45.14852" lon="5.89712">
        <ele>1135.8</ele>
        <time>2020-08-11T05:39:02Z</time>
      </trkpt>
      <trkpt lat="45.1485" lon="5.89712">
        <ele>1136</ele>
        <time>2020-08-11T05:39:03Z</time>
      </trkpt>
      <trkpt lat="45.14848" lon="5.89713">
        <ele>1136.2</ele>
        <time>2020-08-11T05:39:04Z</time>
      </trkpt>
      <trkpt lat="45.14846" lon="5.89713">
        <ele>1136.4</ele>
        <time>2020-08-11T05:39:05Z</time>
      </trkpt>
      <trkpt lat="45.14844" lon="5.89713">
        <ele>1136.6</ele>
        <time>2020-08-11T05:39:06Z</time>
      </trkpt>
      <trkpt lat="45.14842" lon="5.89713">
        <ele>1136.8</ele>
        <time>2020-08-11T05:39:07Z</time>
      </trkpt>
      <trkpt lat="45.14841" lon="5.89713">
        <ele>1137</ele>
        <time>2020-08-11T05:39:08Z</time>
      </trkpt>
      <trkpt lat="45.1484" lon="5.89714">
        <ele>1137</ele>
        <time>2020-08-11T05:39:09Z</time>
      </trkpt>
      <trkpt lat="45.14838" lon="5.89714">
        <ele>1137</ele>
        <time>2020-08-11T05:39:10Z</time>
      </trkpt>
      <trkpt lat="45.14837" lon="5.89715">
        <ele>1137.2</ele>
        <time>2020-08-11T05:39:11Z</time>
      </trkpt>
      <trkpt lat="45.14835" lon="5.89715">
        <ele>1137.4</ele>
        <time>2020-08-11T05:39:12Z</time>
      </trkpt>
      <trkpt lat="45.14834" lon="5.89716">
        <ele>1137.6</ele>
        <time>2020-08-11T05:39:13Z</time>
      </trkpt>
      <trkpt lat="45.14833" lon="5.89716">
        <ele>1137.8</ele>
        <time>2020-08-11T05:39:14Z</time>
      </trkpt>
      <trkpt lat="45.14832" lon="5.89717">
        <ele>1138</ele>
        <time>2020-08-11T05:39:15Z</time>
      </trkpt>
      <trkpt lat="45.14831" lon="5.89718">
        <ele>1138</ele>
        <time>2020-08-11T05:39:16Z</time>
      </trkpt>
      <trkpt lat="45.1483" lon="5.89719">
        <ele>1138.4</ele>
        <time>2020-08-11T05:39:17Z</time>
      </trkpt>
      <trkpt lat="45.14829" lon="5.8972">
        <ele>1138.6</ele>
        <time>2020-08-11T05:39:18Z</time>
      </trkpt>
      <trkpt lat="45.14828" lon="5.89721">
        <ele>1138.8</ele>
        <time>2020-08-11T05:39:19Z</time>
      </trkpt>
      <trkpt lat="45.14827" lon="5.89722">
        <ele>1139.2</ele>
        <time>2020-08-11T05:39:20Z</time>
      </trkpt>
      <trkpt lat="45.14826" lon="5.89723">
        <ele>1139.2</ele>
        <time>2020-08-11T05:39:21Z</time>
      </trkpt>
      <trkpt lat="45.14825" lon="5.89724">
        <ele>1139.4</ele>
        <time>2020-08-11T05:39:22Z</time>
      </trkpt>
      <trkpt lat="45.14825" lon="5.89725">
        <ele>1139.6</ele>
        <time>2020-08-11T05:39:23Z</time>
      </trkpt>
      <trkpt lat="45.14824" lon="5.89725">
        <ele>1139.8</ele>
        <time>2020-08-11T05:39:24Z</time>
      </trkpt>
      <trkpt lat="45.14823" lon="5.89726">
        <ele>1139.8</ele>
        <time>2020-08-11T05:39:25Z</time>
      </trkpt>
      <trkpt lat="45.14822" lon="5.89726">
        <ele>1140</ele>
        <time>2020-08-11T05:39:26Z</time>
      </trkpt>
      <trkpt lat="45.14821" lon="5.89727">
        <ele>1140</ele>
        <time>2020-08-11T05:39:27Z</time>
      </trkpt>
      <trkpt lat="45.1482" lon="5.89728">
        <ele>1140.2</ele>
        <time>2020-08-11T05:39:28Z</time>
      </trkpt>
      <trkpt lat="45.14819" lon="5.89728">
        <ele>1140.4</ele>
        <time>2020-08-11T05:39:29Z</time>
      </trkpt>
      <trkpt lat="45.14818" lon="5.89729">
        <ele>1140.6</ele>
        <time>2020-08-11T05:39:30Z</time>
      </trkpt>
      <trkpt lat="45.14817" lon="5.89729">
        <ele>1140.6</ele>
        <time>2020-08-11T05:39:31Z</time>
      </trkpt>
      <trkpt lat="45.14816" lon="5.8973">
        <ele>1141</ele>
        <time>2020-08-11T05:39:32Z</time>
      </trkpt>
      <trkpt lat="45.14815" lon="5.89731">
        <ele>1141.2</ele>
        <time>2020-08-11T05:39:33Z</time>
      </trkpt>
      <trkpt lat="45.14814" lon="5.89732">
        <ele>1141.6</ele>
        <time>2020-08-11T05:39:34Z</time>
      </trkpt>
      <trkpt lat="45.14813" lon="5.89733">
        <ele>1141.8</ele>
        <time>2020-08-11T05:39:35Z</time>
      </trkpt>
      <trkpt lat="45.14813" lon="5.89734">
        <ele>1142.2</ele>
        <time>2020-08-11T05:39:36Z</time>
      </trkpt>
      <trkpt lat="45.14812" lon="5.89735">
        <ele>1142.4</ele>
        <time>2020-08-11T05:39:37Z</time>
      </trkpt>
      <trkpt lat="45.14811" lon="5.89736">
        <ele>1142.6</ele>
        <time>2020-08-11T05:39:38Z</time>
      </trkpt>
      <trkpt lat="45.1481" lon="5.89737">
        <ele>1142.6</ele>
        <time>2020-08-11T05:39:39Z</time>
      </trkpt>
      <trkpt lat="45.1481" lon="5.89738">
        <ele>1142.8</ele>
        <time>2020-08-11T05:39:40Z</time>
      </trkpt>
      <trkpt lat="45.14809" lon="5.89739">
        <ele>1142.8</ele>
        <time>2020-08-11T05:39:41Z</time>
      </trkpt>
      <trkpt lat="45.14808" lon="5.8974">
        <ele>1143</ele>
        <time>2020-08-11T05:39:42Z</time>
      </trkpt>
      <trkpt lat="45.14807" lon="5.8974">
        <ele>1143</ele>
        <time>2020-08-11T05:39:43Z</time>
      </trkpt>
      <trkpt lat="45.14806" lon="5.89741">
        <ele>1143.2</ele>
        <time>2020-08-11T05:39:44Z</time>
      </trkpt>
      <trkpt lat="45.14805" lon="5.89742">
        <ele>1143.4</ele>
        <time>2020-08-11T05:39:45Z</time>
      </trkpt>
      <trkpt lat="45.14804" lon="5.89742">
        <ele>1143.8</ele>
        <time>2020-08-11T05:39:46Z</time>
      </trkpt>
      <trkpt lat="45.14803" lon="5.89743">
        <ele>1143.8</ele>
        <time>2020-08-11T05:39:47Z</time>
      </trkpt>
      <trkpt lat="45.14802" lon="5.89744">
        <ele>1144</ele>
        <time>2020-08-11T05:39:48Z</time>
      </trkpt>
      <trkpt lat="45.148" lon="5.89744">
        <ele>1144</ele>
        <time>2020-08-11T05:39:49Z</time>
      </trkpt>
      <trkpt lat="45.14799" lon="5.89745">
        <ele>1144</ele>
        <time>2020-08-11T05:39:50Z</time>
      </trkpt>
      <trkpt lat="45.14798" lon="5.89745">
        <ele>1144.2</ele>
        <time>2020-08-11T05:39:51Z</time>
      </trkpt>
      <trkpt lat="45.14797" lon="5.89746">
        <ele>1144.2</ele>
        <time>2020-08-11T05:39:52Z</time>
      </trkpt>
      <trkpt lat="45.14796" lon="5.89747">
        <ele>1144.2</ele>
        <time>2020-08-11T05:39:53Z</time>
      </trkpt>
      <trkpt lat="45.14795" lon="5.89748">
        <ele>1144.4</ele>
        <time>2020-08-11T05:39:54Z</time>
      </trkpt>
      <trkpt lat="45.14794" lon="5.89749">
        <ele>1144.8</ele>
        <time>2020-08-11T05:39:55Z</time>
      </trkpt>
      <trkpt lat="45.14793" lon="5.8975">
        <ele>1145.2</ele>
        <time>2020-08-11T05:39:56Z</time>
      </trkpt>
      <trkpt lat="45.14792" lon="5.8975">
        <ele>1145.4</ele>
        <time>2020-08-11T05:39:57Z</time>
      </trkpt>
      <trkpt lat="45.14791" lon="5.89751">
        <ele>1145.2</ele>
        <time>2020-08-11T05:39:58Z</time>
      </trkpt>
      <trkpt lat="45.1479" lon="5.89752">
        <ele>1145.4</ele>
        <time>2020-08-11T05:39:59Z</time>
      </trkpt>
      <trkpt lat="45.14789" lon="5.89753">
        <ele>1146.4</ele>
        <time>2020-08-11T05:40:01Z</time>
      </trkpt>
      <trkpt lat="45.14788" lon="5.89755">
        <ele>1147</ele>
        <time>2020-08-11T05:40:02Z</time>
      </trkpt>
      <trkpt lat="45.14787" lon="5.89756">
        <ele>1147.2</ele>
        <time>2020-08-11T05:40:03Z</time>
      </trkpt>
      <trkpt lat="45.14786" lon="5.89757">
        <ele>1147.4</ele>
        <time>2020-08-11T05:40:04Z</time>
      </trkpt>
      <trkpt lat="45.14785" lon="5.89758">
        <ele>1147.6</ele>
        <time>2020-08-11T05:40:05Z</time>
      </trkpt>
      <trkpt lat="45.14784" lon="5.8976">
        <ele>1147.6</ele>
        <time>2020-08-11T05:40:06Z</time>
      </trkpt>
      <trkpt lat="45.14783" lon="5.89761">
        <ele>1147.8</ele>
        <time>2020-08-11T05:40:07Z</time>
      </trkpt>
      <trkpt lat="45.14783" lon="5.89762">
        <ele>1147.6</ele>
        <time>2020-08-11T05:40:08Z</time>
      </trkpt>
      <trkpt lat="45.14782" lon="5.89764">
        <ele>1147.6</ele>
        <time>2020-08-11T05:40:09Z</time>
      </trkpt>
      <trkpt lat="45.14782" lon="5.89766">
        <ele>1147.8</ele>
        <time>2020-08-11T05:40:10Z</time>
      </trkpt>
      <trkpt lat="45.14781" lon="5.89767">
        <ele>1147.8</ele>
        <time>2020-08-11T05:40:11Z</time>
      </trkpt>
      <trkpt lat="45.14781" lon="5.89769">
        <ele>1147.8</ele>
        <time>2020-08-11T05:40:12Z</time>
      </trkpt>
      <trkpt lat="45.1478" lon="5.8977">
        <ele>1148.2</ele>
        <time>2020-08-11T05:40:13Z</time>
      </trkpt>
      <trkpt lat="45.1478" lon="5.89772">
        <ele>1148.4</ele>
        <time>2020-08-11T05:40:14Z</time>
      </trkpt>
      <trkpt lat="45.14779" lon="5.89773">
        <ele>1148.8</ele>
        <time>2020-08-11T05:40:15Z</time>
      </trkpt>
      <trkpt lat="45.14779" lon="5.89775">
        <ele>1149.2</ele>
        <time>2020-08-11T05:40:16Z</time>
      </trkpt>
      <trkpt lat="45.14778" lon="5.89776">
        <ele>1149.2</ele>
        <time>2020-08-11T05:40:17Z</time>
      </trkpt>
      <trkpt lat="45.14777" lon="5.89778">
        <ele>1149.2</ele>
        <time>2020-08-11T05:40:18Z</time>
      </trkpt>
      <trkpt lat="45.14777" lon="5.89779">
        <ele>1149.2</ele>
        <time>2020-08-11T05:40:19Z</time>
      </trkpt>
      <trkpt lat="45.14776" lon="5.89781">
        <ele>1149.4</ele>
        <time>2020-08-11T05:40:20Z</time>
      </trkpt>
      <trkpt lat="45.14775" lon="5.89783">
        <ele>1149.6</ele>
        <time>2020-08-11T05:40:21Z</time>
      </trkpt>
      <trkpt lat="45.14775" lon="5.89784">
        <ele>1149.6</ele>
        <time>2020-08-11T05:40:22Z</time>
      </trkpt>
      <trkpt lat="45.14774" lon="5.89786">
        <ele>1149.6</ele>
        <time>2020-08-11T05:40:23Z</time>
      </trkpt>
      <trkpt lat="45.14773" lon="5.89787">
        <ele>1149.8</ele>
        <time>2020-08-11T05:40:24Z</time>
      </trkpt>
      <trkpt lat="45.14773" lon="5.89789">
        <ele>1150</ele>
        <time>2020-08-11T05:40:25Z</time>
      </trkpt>
      <trkpt lat="45.14772" lon="5.89791">
        <ele>1150</ele>
        <time>2020-08-11T05:40:26Z</time>
      </trkpt>
      <trkpt lat="45.14771" lon="5.89793">
        <ele>1150.2</ele>
        <time>2020-08-11T05:40:27Z</time>
      </trkpt>
      <trkpt lat="45.1477" lon="5.89794">
        <ele>1150.2</ele>
        <time>2020-08-11T05:40:28Z</time>
      </trkpt>
      <trkpt lat="45.1477" lon="5.89796">
        <ele>1150.6</ele>
        <time>2020-08-11T05:40:29Z</time>
      </trkpt>
      <trkpt lat="45.14769" lon="5.89798">
        <ele>1150.6</ele>
        <time>2020-08-11T05:40:30Z</time>
      </trkpt>
      <trkpt lat="45.14767" lon="5.89799">
        <ele>1151</ele>
        <time>2020-08-11T05:40:31Z</time>
      </trkpt>
      <trkpt lat="45.14766" lon="5.89801">
        <ele>1151</ele>
        <time>2020-08-11T05:40:32Z</time>
      </trkpt>
      <trkpt lat="45.14765" lon="5.89802">
        <ele>1151.2</ele>
        <time>2020-08-11T05:40:33Z</time>
      </trkpt>
      <trkpt lat="45.14763" lon="5.89804">
        <ele>1151.6</ele>
        <time>2020-08-11T05:40:34Z</time>
      </trkpt>
      <trkpt lat="45.14762" lon="5.89805">
        <ele>1151.6</ele>
        <time>2020-08-11T05:40:35Z</time>
      </trkpt>
      <trkpt lat="45.14761" lon="5.89807">
        <ele>1151.8</ele>
        <time>2020-08-11T05:40:36Z</time>
      </trkpt>
      <trkpt lat="45.1476" lon="5.89808">
        <ele>1151.8</ele>
        <time>2020-08-11T05:40:37Z</time>
      </trkpt>
      <trkpt lat="45.1476" lon="5.89809">
        <ele>1151.8</ele>
        <time>2020-08-11T05:40:38Z</time>
      </trkpt>
      <trkpt lat="45.14759" lon="5.8981">
        <ele>1151.6</ele>
        <time>2020-08-11T05:40:39Z</time>
      </trkpt>
      <trkpt lat="45.14758" lon="5.89811">
        <ele>1151.8</ele>
        <time>2020-08-11T05:40:40Z</time>
      </trkpt>
      <trkpt lat="45.14758" lon="5.89812">
        <ele>1152</ele>
        <time>2020-08-11T05:40:41Z</time>
      </trkpt>
      <trkpt lat="45.14757" lon="5.89813">
        <ele>1152.2</ele>
        <time>2020-08-11T05:40:42Z</time>
      </trkpt>
      <trkpt lat="45.14756" lon="5.89814">
        <ele>1152.2</ele>
        <time>2020-08-11T05:40:43Z</time>
      </trkpt>
      <trkpt lat="45.14756" lon="5.89815">
        <ele>1152.4</ele>
        <time>2020-08-11T05:40:44Z</time>
      </trkpt>
      <trkpt lat="45.14755" lon="5.89816">
        <ele>1152.6</ele>
        <time>2020-08-11T05:40:45Z</time>
      </trkpt>
      <trkpt lat="45.14755" lon="5.89817">
        <ele>1152.8</ele>
        <time>2020-08-11T05:40:46Z</time>
      </trkpt>
      <trkpt lat="45.14754" lon="5.89818">
        <ele>1153</ele>
        <time>2020-08-11T05:40:47Z</time>
      </trkpt>
      <trkpt lat="45.14754" lon="5.8982">
        <ele>1153.2</ele>
        <time>2020-08-11T05:40:48Z</time>
      </trkpt>
      <trkpt lat="45.14753" lon="5.89822">
        <ele>1153.4</ele>
        <time>2020-08-11T05:40:49Z</time>
      </trkpt>
      <trkpt lat="45.14753" lon="5.89823">
        <ele>1153.4</ele>
        <time>2020-08-11T05:40:50Z</time>
      </trkpt>
      <trkpt lat="45.14752" lon="5.89825">
        <ele>1153.8</ele>
        <time>2020-08-11T05:40:51Z</time>
      </trkpt>
      <trkpt lat="45.14752" lon="5.89827">
        <ele>1154</ele>
        <time>2020-08-11T05:40:52Z</time>
      </trkpt>
      <trkpt lat="45.14751" lon="5.89828">
        <ele>1154</ele>
        <time>2020-08-11T05:40:53Z</time>
      </trkpt>
      <trkpt lat="45.14751" lon="5.8983">
        <ele>1154</ele>
        <time>2020-08-11T05:40:54Z</time>
      </trkpt>
      <trkpt lat="45.1475" lon="5.8983">
        <ele>1154</ele>
        <time>2020-08-11T05:40:55Z</time>
      </trkpt>
      <trkpt lat="45.14749" lon="5.89831">
        <ele>1154.2</ele>
        <time>2020-08-11T05:40:56Z</time>
      </trkpt>
      <trkpt lat="45.14748" lon="5.89831">
        <ele>1154.2</ele>
        <time>2020-08-11T05:40:57Z</time>
      </trkpt>
      <trkpt lat="45.14747" lon="5.89831">
        <ele>1154.4</ele>
        <time>2020-08-11T05:40:58Z</time>
      </trkpt>
      <trkpt lat="45.14746" lon="5.89832">
        <ele>1154.6</ele>
        <time>2020-08-11T05:40:59Z</time>
      </trkpt>
      <trkpt lat="45.14744" lon="5.89832">
        <ele>1154.6</ele>
        <time>2020-08-11T05:41:00Z</time>
      </trkpt>
      <trkpt lat="45.14743" lon="5.89832">
        <ele>1155</ele>
        <time>2020-08-11T05:41:01Z</time>
      </trkpt>
      <trkpt lat="45.14742" lon="5.89833">
        <ele>1155</ele>
        <time>2020-08-11T05:41:02Z</time>
      </trkpt>
      <trkpt lat="45.14741" lon="5.89833">
        <ele>1155</ele>
        <time>2020-08-11T05:41:03Z</time>
      </trkpt>
      <trkpt lat="45.14739" lon="5.89834">
        <ele>1155.2</ele>
        <time>2020-08-11T05:41:04Z</time>
      </trkpt>
      <trkpt lat="45.14737" lon="5.89835">
        <ele>1155.4</ele>
        <time>2020-08-11T05:41:05Z</time>
      </trkpt>
      <trkpt lat="45.14735" lon="5.89836">
        <ele>1155.6</ele>
        <time>2020-08-11T05:41:06Z</time>
      </trkpt>
      <trkpt lat="45.14733" lon="5.89837">
        <ele>1155.8</ele>
        <time>2020-08-11T05:41:07Z</time>
      </trkpt>
      <trkpt lat="45.14731" lon="5.89837">
        <ele>1156</ele>
        <time>2020-08-11T05:41:08Z</time>
      </trkpt>
      <trkpt lat="45.1473" lon="5.89839">
        <ele>1156</ele>
        <time>2020-08-11T05:41:09Z</time>
      </trkpt>
      <trkpt lat="45.14728" lon="5.8984">
        <ele>1156.4</ele>
        <time>2020-08-11T05:41:10Z</time>
      </trkpt>
      <trkpt lat="45.14726" lon="5.89842">
        <ele>1157</ele>
        <time>2020-08-11T05:41:11Z</time>
      </trkpt>
      <trkpt lat="45.14725" lon="5.89843">
        <ele>1157</ele>
        <time>2020-08-11T05:41:12Z</time>
      </trkpt>
      <trkpt lat="45.14723" lon="5.89845">
        <ele>1157</ele>
        <time>2020-08-11T05:41:13Z</time>
      </trkpt>
      <trkpt lat="45.14722" lon="5.89846">
        <ele>1157</ele>
        <time>2020-08-11T05:41:14Z</time>
      </trkpt>
      <trkpt lat="45.14721" lon="5.89848">
        <ele>1157</ele>
        <time>2020-08-11T05:41:15Z</time>
      </trkpt>
      <trkpt lat="45.1472" lon="5.8985">
        <ele>1157</ele>
        <time>2020-08-11T05:41:16Z</time>
      </trkpt>
      <trkpt lat="45.14719" lon="5.89851">
        <ele>1157</ele>
        <time>2020-08-11T05:41:17Z</time>
      </trkpt>
      <trkpt lat="45.14718" lon="5.89853">
        <ele>1157.2</ele>
        <time>2020-08-11T05:41:18Z</time>
      </trkpt>
      <trkpt lat="45.14717" lon="5.89854">
        <ele>1157.2</ele>
        <time>2020-08-11T05:41:19Z</time>
      </trkpt>
      <trkpt lat="45.14715" lon="5.89856">
        <ele>1157.4</ele>
        <time>2020-08-11T05:41:20Z</time>
      </trkpt>
      <trkpt lat="45.14714" lon="5.89858">
        <ele>1157.4</ele>
        <time>2020-08-11T05:41:21Z</time>
      </trkpt>
      <trkpt lat="45.14713" lon="5.89861">
        <ele>1158</ele>
        <time>2020-08-11T05:41:22Z</time>
      </trkpt>
      <trkpt lat="45.14712" lon="5.89863">
        <ele>1158</ele>
        <time>2020-08-11T05:41:23Z</time>
      </trkpt>
      <trkpt lat="45.14711" lon="5.89865">
        <ele>1158.4</ele>
        <time>2020-08-11T05:41:24Z</time>
      </trkpt>
      <trkpt lat="45.14711" lon="5.89867">
        <ele>1158.6</ele>
        <time>2020-08-11T05:41:25Z</time>
      </trkpt>
      <trkpt lat="45.14711" lon="5.89869">
        <ele>1158.8</ele>
        <time>2020-08-11T05:41:26Z</time>
      </trkpt>
      <trkpt lat="45.14711" lon="5.89871">
        <ele>1158.8</ele>
        <time>2020-08-11T05:41:27Z</time>
      </trkpt>
      <trkpt lat="45.14711" lon="5.89873">
        <ele>1159</ele>
        <time>2020-08-11T05:41:28Z</time>
      </trkpt>
      <trkpt lat="45.1471" lon="5.89874">
        <ele>1158.8</ele>
        <time>2020-08-11T05:41:29Z</time>
      </trkpt>
      <trkpt lat="45.1471" lon="5.89876">
        <ele>1159</ele>
        <time>2020-08-11T05:41:30Z</time>
      </trkpt>
      <trkpt lat="45.1471" lon="5.89878">
        <ele>1159</ele>
        <time>2020-08-11T05:41:31Z</time>
      </trkpt>
      <trkpt lat="45.1471" lon="5.89881">
        <ele>1159.2</ele>
        <time>2020-08-11T05:41:32Z</time>
      </trkpt>
      <trkpt lat="45.1471" lon="5.89884">
        <ele>1159.4</ele>
        <time>2020-08-11T05:41:33Z</time>
      </trkpt>
      <trkpt lat="45.14709" lon="5.89886">
        <ele>1159.6</ele>
        <time>2020-08-11T05:41:34Z</time>
      </trkpt>
      <trkpt lat="45.14709" lon="5.89889">
        <ele>1159.6</ele>
        <time>2020-08-11T05:41:35Z</time>
      </trkpt>
      <trkpt lat="45.14709" lon="5.89892">
        <ele>1159.8</ele>
        <time>2020-08-11T05:41:36Z</time>
      </trkpt>
      <trkpt lat="45.14709" lon="5.89894">
        <ele>1160</ele>
        <time>2020-08-11T05:41:37Z</time>
      </trkpt>
      <trkpt lat="45.14709" lon="5.89897">
        <ele>1160.2</ele>
        <time>2020-08-11T05:41:38Z</time>
      </trkpt>
      <trkpt lat="45.14709" lon="5.899">
        <ele>1160.6</ele>
        <time>2020-08-11T05:41:39Z</time>
      </trkpt>
      <trkpt lat="45.14709" lon="5.89902">
        <ele>1160.6</ele>
        <time>2020-08-11T05:41:40Z</time>
      </trkpt>
      <trkpt lat="45.14709" lon="5.89905">
        <ele>1160.8</ele>
        <time>2020-08-11T05:41:41Z</time>
      </trkpt>
      <trkpt lat="45.14709" lon="5.89909">
        <ele>1161.2</ele>
        <time>2020-08-11T05:41:42Z</time>
      </trkpt>
      <trkpt lat="45.14709" lon="5.89912">
        <ele>1161.6</ele>
        <time>2020-08-11T05:41:43Z</time>
      </trkpt>
      <trkpt lat="45.14709" lon="5.89916">
        <ele>1162</ele>
        <time>2020-08-11T05:41:44Z</time>
      </trkpt>
      <trkpt lat="45.14709" lon="5.8992">
        <ele>1162.4</ele>
        <time>2020-08-11T05:41:45Z</time>
      </trkpt>
      <trkpt lat="45.14709" lon="5.89923">
        <ele>1162.6</ele>
        <time>2020-08-11T05:41:46Z</time>
      </trkpt>
      <trkpt lat="45.14708" lon="5.89925">
        <ele>1162.8</ele>
        <time>2020-08-11T05:41:47Z</time>
      </trkpt>
      <trkpt lat="45.14707" lon="5.89928">
        <ele>1162.8</ele>
        <time>2020-08-11T05:41:48Z</time>
      </trkpt>
      <trkpt lat="45.14706" lon="5.89931">
        <ele>1163</ele>
        <time>2020-08-11T05:41:49Z</time>
      </trkpt>
      <trkpt lat="45.14705" lon="5.89934">
        <ele>1163</ele>
        <time>2020-08-11T05:41:50Z</time>
      </trkpt>
      <trkpt lat="45.14705" lon="5.89936">
        <ele>1163.2</ele>
        <time>2020-08-11T05:41:51Z</time>
      </trkpt>
      <trkpt lat="45.14704" lon="5.89938">
        <ele>1163.2</ele>
        <time>2020-08-11T05:41:52Z</time>
      </trkpt>
      <trkpt lat="45.14703" lon="5.8994">
        <ele>1163.2</ele>
        <time>2020-08-11T05:41:53Z</time>
      </trkpt>
      <trkpt lat="45.14703" lon="5.89942">
        <ele>1163.2</ele>
        <time>2020-08-11T05:41:54Z</time>
      </trkpt>
      <trkpt lat="45.14702" lon="5.89944">
        <ele>1163.4</ele>
        <time>2020-08-11T05:41:55Z</time>
      </trkpt>
      <trkpt lat="45.14701" lon="5.89946">
        <ele>1163.4</ele>
        <time>2020-08-11T05:41:56Z</time>
      </trkpt>
      <trkpt lat="45.147" lon="5.89947">
        <ele>1163.6</ele>
        <time>2020-08-11T05:41:57Z</time>
      </trkpt>
      <trkpt lat="45.147" lon="5.89949">
        <ele>1163.8</ele>
        <time>2020-08-11T05:41:58Z</time>
      </trkpt>
      <trkpt lat="45.14699" lon="5.8995">
        <ele>1164</ele>
        <time>2020-08-11T05:41:59Z</time>
      </trkpt>
      <trkpt lat="45.14698" lon="5.89951">
        <ele>1164.2</ele>
        <time>2020-08-11T05:42:00Z</time>
      </trkpt>
      <trkpt lat="45.14697" lon="5.89953">
        <ele>1164.2</ele>
        <time>2020-08-11T05:42:01Z</time>
      </trkpt>
      <trkpt lat="45.14696" lon="5.89954">
        <ele>1164.4</ele>
        <time>2020-08-11T05:42:02Z</time>
      </trkpt>
      <trkpt lat="45.14696" lon="5.89955">
        <ele>1164.2</ele>
        <time>2020-08-11T05:42:03Z</time>
      </trkpt>
      <trkpt lat="45.14695" lon="5.89957">
        <ele>1164.4</ele>
        <time>2020-08-11T05:42:04Z</time>
      </trkpt>
      <trkpt lat="45.14694" lon="5.89958">
        <ele>1164.4</ele>
        <time>2020-08-11T05:42:05Z</time>
      </trkpt>
      <trkpt lat="45.14694" lon="5.89959">
        <ele>1164.6</ele>
        <time>2020-08-11T05:42:06Z</time>
      </trkpt>
      <trkpt lat="45.14693" lon="5.8996">
        <ele>1164.6</ele>
        <time>2020-08-11T05:42:07Z</time>
      </trkpt>
      <trkpt lat="45.14692" lon="5.89961">
        <ele>1164.8</ele>
        <time>2020-08-11T05:42:08Z</time>
      </trkpt>
      <trkpt lat="45.14692" lon="5.89962">
        <ele>1164.8</ele>
        <time>2020-08-11T05:42:09Z</time>
      </trkpt>
      <trkpt lat="45.14691" lon="5.89963">
        <ele>1165</ele>
        <time>2020-08-11T05:42:10Z</time>
      </trkpt>
      <trkpt lat="45.1469" lon="5.89964">
        <ele>1165.2</ele>
        <time>2020-08-11T05:42:11Z</time>
      </trkpt>
      <trkpt lat="45.1469" lon="5.89965">
        <ele>1165.4</ele>
        <time>2020-08-11T05:42:12Z</time>
      </trkpt>
      <trkpt lat="45.14689" lon="5.89965">
        <ele>1165.6</ele>
        <time>2020-08-11T05:42:13Z</time>
      </trkpt>
      <trkpt lat="45.14689" lon="5.89966">
        <ele>1165.6</ele>
        <time>2020-08-11T05:42:14Z</time>
      </trkpt>
      <trkpt lat="45.14688" lon="5.89967">
        <ele>1165.8</ele>
        <time>2020-08-11T05:42:15Z</time>
      </trkpt>
      <trkpt lat="45.14687" lon="5.89968">
        <ele>1166.2</ele>
        <time>2020-08-11T05:42:16Z</time>
      </trkpt>
      <trkpt lat="45.14687" lon="5.89968">
        <ele>1166.4</ele>
        <time>2020-08-11T05:42:17Z</time>
      </trkpt>
      <trkpt lat="45.14686" lon="5.89969">
        <ele>1166.8</ele>
        <time>2020-08-11T05:42:18Z</time>
      </trkpt>
      <trkpt lat="45.14686" lon="5.8997">
        <ele>1166.8</ele>
        <time>2020-08-11T05:42:19Z</time>
      </trkpt>
      <trkpt lat="45.14685" lon="5.89971">
        <ele>1167</ele>
        <time>2020-08-11T05:42:20Z</time>
      </trkpt>
      <trkpt lat="45.14684" lon="5.89971">
        <ele>1167.2</ele>
        <time>2020-08-11T05:42:21Z</time>
      </trkpt>
      <trkpt lat="45.14684" lon="5.89972">
        <ele>1167.4</ele>
        <time>2020-08-11T05:42:22Z</time>
      </trkpt>
      <trkpt lat="45.14683" lon="5.89973">
        <ele>1167.6</ele>
        <time>2020-08-11T05:42:23Z</time>
      </trkpt>
      <trkpt lat="45.14683" lon="5.89973">
        <ele>1167.6</ele>
        <time>2020-08-11T05:42:24Z</time>
      </trkpt>
      <trkpt lat="45.14682" lon="5.89974">
        <ele>1167.8</ele>
        <time>2020-08-11T05:42:25Z</time>
      </trkpt>
      <trkpt lat="45.14681" lon="5.89975">
        <ele>1167.8</ele>
        <time>2020-08-11T05:42:26Z</time>
      </trkpt>
      <trkpt lat="45.1468" lon="5.89975">
        <ele>1167.8</ele>
        <time>2020-08-11T05:42:27Z</time>
      </trkpt>
      <trkpt lat="45.14679" lon="5.89976">
        <ele>1167.8</ele>
        <time>2020-08-11T05:42:28Z</time>
      </trkpt>
      <trkpt lat="45.14677" lon="5.89977">
        <ele>1168</ele>
        <time>2020-08-11T05:42:29Z</time>
      </trkpt>
      <trkpt lat="45.14676" lon="5.89977">
        <ele>1168.2</ele>
        <time>2020-08-11T05:42:30Z</time>
      </trkpt>
      <trkpt lat="45.14674" lon="5.89978">
        <ele>1168.4</ele>
        <time>2020-08-11T05:42:31Z</time>
      </trkpt>
      <trkpt lat="45.14673" lon="5.89979">
        <ele>1168.8</ele>
        <time>2020-08-11T05:42:32Z</time>
      </trkpt>
      <trkpt lat="45.14672" lon="5.8998">
        <ele>1169</ele>
        <time>2020-08-11T05:42:33Z</time>
      </trkpt>
      <trkpt lat="45.1467" lon="5.89981">
        <ele>1169.2</ele>
        <time>2020-08-11T05:42:34Z</time>
      </trkpt>
      <trkpt lat="45.14669" lon="5.89983">
        <ele>1169.4</ele>
        <time>2020-08-11T05:42:35Z</time>
      </trkpt>
      <trkpt lat="45.14667" lon="5.89985">
        <ele>1169.6</ele>
        <time>2020-08-11T05:42:36Z</time>
      </trkpt>
      <trkpt lat="45.14666" lon="5.89987">
        <ele>1169.8</ele>
        <time>2020-08-11T05:42:37Z</time>
      </trkpt>
      <trkpt lat="45.14664" lon="5.89988">
        <ele>1170</ele>
        <time>2020-08-11T05:42:38Z</time>
      </trkpt>
      <trkpt lat="45.14663" lon="5.89991">
        <ele>1170.4</ele>
        <time>2020-08-11T05:42:39Z</time>
      </trkpt>
      <trkpt lat="45.14662" lon="5.89994">
        <ele>1170.6</ele>
        <time>2020-08-11T05:42:40Z</time>
      </trkpt>
      <trkpt lat="45.1466" lon="5.89997">
        <ele>1170.8</ele>
        <time>2020-08-11T05:42:41Z</time>
      </trkpt>
      <trkpt lat="45.14659" lon="5.9">
        <ele>1170.8</ele>
        <time>2020-08-11T05:42:42Z</time>
      </trkpt>
      <trkpt lat="45.14657" lon="5.90003">
        <ele>1171</ele>
        <time>2020-08-11T05:42:43Z</time>
      </trkpt>
      <trkpt lat="45.14656" lon="5.90007">
        <ele>1171.2</ele>
        <time>2020-08-11T05:42:44Z</time>
      </trkpt>
      <trkpt lat="45.14654" lon="5.9001">
        <ele>1171.4</ele>
        <time>2020-08-11T05:42:45Z</time>
      </trkpt>
      <trkpt lat="45.14653" lon="5.90013">
        <ele>1171.6</ele>
        <time>2020-08-11T05:42:46Z</time>
      </trkpt>
      <trkpt lat="45.14652" lon="5.90015">
        <ele>1171.8</ele>
        <time>2020-08-11T05:42:47Z</time>
      </trkpt>
      <trkpt lat="45.14651" lon="5.90016">
        <ele>1172</ele>
        <time>2020-08-11T05:42:48Z</time>
      </trkpt>
      <trkpt lat="45.1465" lon="5.90018">
        <ele>1172.2</ele>
        <time>2020-08-11T05:42:49Z</time>
      </trkpt>
      <trkpt lat="45.1465" lon="5.9002">
        <ele>1172.4</ele>
        <time>2020-08-11T05:42:50Z</time>
      </trkpt>
      <trkpt lat="45.14649" lon="5.90021">
        <ele>1172.8</ele>
        <time>2020-08-11T05:42:51Z</time>
      </trkpt>
      <trkpt lat="45.14648" lon="5.90023">
        <ele>1173</ele>
        <time>2020-08-11T05:42:52Z</time>
      </trkpt>
      <trkpt lat="45.14647" lon="5.90024">
        <ele>1173</ele>
        <time>2020-08-11T05:42:53Z</time>
      </trkpt>
      <trkpt lat="45.14646" lon="5.90026">
        <ele>1173.4</ele>
        <time>2020-08-11T05:42:54Z</time>
      </trkpt>
      <trkpt lat="45.14646" lon="5.90027">
        <ele>1173.4</ele>
        <time>2020-08-11T05:42:55Z</time>
      </trkpt>
      <trkpt lat="45.14646" lon="5.90028">
        <ele>1173.6</ele>
        <time>2020-08-11T05:42:56Z</time>
      </trkpt>
      <trkpt lat="45.14646" lon="5.90029">
        <ele>1173.6</ele>
        <time>2020-08-11T05:42:57Z</time>
      </trkpt>
      <trkpt lat="45.14646" lon="5.9003">
        <ele>1174</ele>
        <time>2020-08-11T05:42:58Z</time>
      </trkpt>
      <trkpt lat="45.14645" lon="5.90031">
        <ele>1174.2</ele>
        <time>2020-08-11T05:42:59Z</time>
      </trkpt>
      <trkpt lat="45.14645" lon="5.90032">
        <ele>1174.2</ele>
        <time>2020-08-11T05:43:00Z</time>
      </trkpt>
      <trkpt lat="45.14645" lon="5.90033">
        <ele>1174.2</ele>
        <time>2020-08-11T05:43:01Z</time>
      </trkpt>
      <trkpt lat="45.14645" lon="5.90034">
        <ele>1174.2</ele>
        <time>2020-08-11T05:43:02Z</time>
      </trkpt>
      <trkpt lat="45.14645" lon="5.90035">
        <ele>1174.6</ele>
        <time>2020-08-11T05:43:03Z</time>
      </trkpt>
      <trkpt lat="45.14644" lon="5.90036">
        <ele>1174.6</ele>
        <time>2020-08-11T05:43:04Z</time>
      </trkpt>
      <trkpt lat="45.14644" lon="5.90037">
        <ele>1174.8</ele>
        <time>2020-08-11T05:43:05Z</time>
      </trkpt>
      <trkpt lat="45.14644" lon="5.90038">
        <ele>1175</ele>
        <time>2020-08-11T05:43:06Z</time>
      </trkpt>
      <trkpt lat="45.14644" lon="5.90039">
        <ele>1175</ele>
        <time>2020-08-11T05:43:07Z</time>
      </trkpt>
      <trkpt lat="45.14643" lon="5.90039">
        <ele>1175</ele>
        <time>2020-08-11T05:43:08Z</time>
      </trkpt>
      <trkpt lat="45.14642" lon="5.9004">
        <ele>1175.2</ele>
        <time>2020-08-11T05:43:09Z</time>
      </trkpt>
      <trkpt lat="45.14642" lon="5.90041">
        <ele>1175.4</ele>
        <time>2020-08-11T05:43:10Z</time>
      </trkpt>
      <trkpt lat="45.14641" lon="5.90042">
        <ele>1175.6</ele>
        <time>2020-08-11T05:43:11Z</time>
      </trkpt>
      <trkpt lat="45.1464" lon="5.90042">
        <ele>1175.6</ele>
        <time>2020-08-11T05:43:12Z</time>
      </trkpt>
      <trkpt lat="45.1464" lon="5.90043">
        <ele>1175.6</ele>
        <time>2020-08-11T05:43:13Z</time>
      </trkpt>
      <trkpt lat="45.14639" lon="5.90044">
        <ele>1175.4</ele>
        <time>2020-08-11T05:43:14Z</time>
      </trkpt>
      <trkpt lat="45.14638" lon="5.90045">
        <ele>1175.6</ele>
        <time>2020-08-11T05:43:15Z</time>
      </trkpt>
      <trkpt lat="45.14638" lon="5.90045">
        <ele>1175.4</ele>
        <time>2020-08-11T05:43:16Z</time>
      </trkpt>
      <trkpt lat="45.14637" lon="5.90046">
        <ele>1175.4</ele>
        <time>2020-08-11T05:43:17Z</time>
      </trkpt>
      <trkpt lat="45.14636" lon="5.90047">
        <ele>1175.4</ele>
        <time>2020-08-11T05:43:18Z</time>
      </trkpt>
      <trkpt lat="45.14636" lon="5.90048">
        <ele>1175.4</ele>
        <time>2020-08-11T05:43:19Z</time>
      </trkpt>
      <trkpt lat="45.14635" lon="5.90049">
        <ele>1175.4</ele>
        <time>2020-08-11T05:43:20Z</time>
      </trkpt>
      <trkpt lat="45.14634" lon="5.9005">
        <ele>1175.6</ele>
        <time>2020-08-11T05:43:21Z</time>
      </trkpt>
      <trkpt lat="45.14633" lon="5.90051">
        <ele>1175.6</ele>
        <time>2020-08-11T05:43:22Z</time>
      </trkpt>
      <trkpt lat="45.14632" lon="5.90052">
        <ele>1175.8</ele>
        <time>2020-08-11T05:43:23Z</time>
      </trkpt>
      <trkpt lat="45.14632" lon="5.90053">
        <ele>1176.2</ele>
        <time>2020-08-11T05:43:24Z</time>
      </trkpt>
      <trkpt lat="45.14631" lon="5.90054">
        <ele>1176.2</ele>
        <time>2020-08-11T05:43:25Z</time>
      </trkpt>
      <trkpt lat="45.1463" lon="5.90055">
        <ele>1176.6</ele>
        <time>2020-08-11T05:43:26Z</time>
      </trkpt>
      <trkpt lat="45.14629" lon="5.90056">
        <ele>1176.8</ele>
        <time>2020-08-11T05:43:27Z</time>
      </trkpt>
      <trkpt lat="45.14628" lon="5.90058">
        <ele>1176.8</ele>
        <time>2020-08-11T05:43:28Z</time>
      </trkpt>
      <trkpt lat="45.14628" lon="5.90059">
        <ele>1176.8</ele>
        <time>2020-08-11T05:43:29Z</time>
      </trkpt>
      <trkpt lat="45.14627" lon="5.90061">
        <ele>1177.2</ele>
        <time>2020-08-11T05:43:30Z</time>
      </trkpt>
      <trkpt lat="45.14626" lon="5.90062">
        <ele>1177.4</ele>
        <time>2020-08-11T05:43:31Z</time>
      </trkpt>
      <trkpt lat="45.14625" lon="5.90063">
        <ele>1177.6</ele>
        <time>2020-08-11T05:43:32Z</time>
      </trkpt>
      <trkpt lat="45.14625" lon="5.90065">
        <ele>1177.8</ele>
        <time>2020-08-11T05:43:33Z</time>
      </trkpt>
      <trkpt lat="45.14624" lon="5.90066">
        <ele>1178</ele>
        <time>2020-08-11T05:43:34Z</time>
      </trkpt>
      <trkpt lat="45.14623" lon="5.90068">
        <ele>1178.2</ele>
        <time>2020-08-11T05:43:35Z</time>
      </trkpt>
      <trkpt lat="45.14623" lon="5.9007">
        <ele>1178.4</ele>
        <time>2020-08-11T05:43:36Z</time>
      </trkpt>
      <trkpt lat="45.14622" lon="5.90072">
        <ele>1178.4</ele>
        <time>2020-08-11T05:43:37Z</time>
      </trkpt>
      <trkpt lat="45.14622" lon="5.90074">
        <ele>1178.4</ele>
        <time>2020-08-11T05:43:38Z</time>
      </trkpt>
      <trkpt lat="45.14621" lon="5.90076">
        <ele>1178.6</ele>
        <time>2020-08-11T05:43:39Z</time>
      </trkpt>
      <trkpt lat="45.14621" lon="5.90078">
        <ele>1178.6</ele>
        <time>2020-08-11T05:43:40Z</time>
      </trkpt>
      <trkpt lat="45.1462" lon="5.9008">
        <ele>1178.6</ele>
        <time>2020-08-11T05:43:41Z</time>
      </trkpt>
      <trkpt lat="45.1462" lon="5.90082">
        <ele>1178.8</ele>
        <time>2020-08-11T05:43:42Z</time>
      </trkpt>
      <trkpt lat="45.14619" lon="5.90083">
        <ele>1178.6</ele>
        <time>2020-08-11T05:43:43Z</time>
      </trkpt>
      <trkpt lat="45.14619" lon="5.90085">
        <ele>1178.8</ele>
        <time>2020-08-11T05:43:44Z</time>
      </trkpt>
      <trkpt lat="45.14618" lon="5.90086">
        <ele>1178.8</ele>
        <time>2020-08-11T05:43:45Z</time>
      </trkpt>
      <trkpt lat="45.14617" lon="5.90088">
        <ele>1179</ele>
        <time>2020-08-11T05:43:46Z</time>
      </trkpt>
      <trkpt lat="45.14617" lon="5.9009">
        <ele>1179</ele>
        <time>2020-08-11T05:43:47Z</time>
      </trkpt>
      <trkpt lat="45.14616" lon="5.90091">
        <ele>1179.2</ele>
        <time>2020-08-11T05:43:48Z</time>
      </trkpt>
      <trkpt lat="45.14616" lon="5.90093">
        <ele>1179.2</ele>
        <time>2020-08-11T05:43:49Z</time>
      </trkpt>
      <trkpt lat="45.14615" lon="5.90094">
        <ele>1179.4</ele>
        <time>2020-08-11T05:43:50Z</time>
      </trkpt>
      <trkpt lat="45.14615" lon="5.90095">
        <ele>1179.4</ele>
        <time>2020-08-11T05:43:51Z</time>
      </trkpt>
      <trkpt lat="45.14614" lon="5.90097">
        <ele>1179.4</ele>
        <time>2020-08-11T05:43:52Z</time>
      </trkpt>
      <trkpt lat="45.14614" lon="5.90098">
        <ele>1179.4</ele>
        <time>2020-08-11T05:43:53Z</time>
      </trkpt>
      <trkpt lat="45.14613" lon="5.90099">
        <ele>1179.4</ele>
        <time>2020-08-11T05:43:54Z</time>
      </trkpt>
      <trkpt lat="45.14613" lon="5.901">
        <ele>1179.4</ele>
        <time>2020-08-11T05:43:55Z</time>
      </trkpt>
      <trkpt lat="45.14612" lon="5.90101">
        <ele>1179.6</ele>
        <time>2020-08-11T05:43:56Z</time>
      </trkpt>
      <trkpt lat="45.14612" lon="5.90102">
        <ele>1180</ele>
        <time>2020-08-11T05:43:57Z</time>
      </trkpt>
      <trkpt lat="45.14612" lon="5.90103">
        <ele>1180.2</ele>
        <time>2020-08-11T05:43:58Z</time>
      </trkpt>
      <trkpt lat="45.14611" lon="5.90104">
        <ele>1180.2</ele>
        <time>2020-08-11T05:43:59Z</time>
      </trkpt>
      <trkpt lat="45.14611" lon="5.90105">
        <ele>1180.4</ele>
        <time>2020-08-11T05:44:00Z</time>
      </trkpt>
      <trkpt lat="45.1461" lon="5.90106">
        <ele>1180.4</ele>
        <time>2020-08-11T05:44:01Z</time>
      </trkpt>
      <trkpt lat="45.1461" lon="5.90107">
        <ele>1180.6</ele>
        <time>2020-08-11T05:44:02Z</time>
      </trkpt>
      <trkpt lat="45.14609" lon="5.90109">
        <ele>1180.8</ele>
        <time>2020-08-11T05:44:03Z</time>
      </trkpt>
      <trkpt lat="45.14609" lon="5.90111">
        <ele>1180.6</ele>
        <time>2020-08-11T05:44:04Z</time>
      </trkpt>
      <trkpt lat="45.14608" lon="5.90113">
        <ele>1180.6</ele>
        <time>2020-08-11T05:44:05Z</time>
      </trkpt>
      <trkpt lat="45.14608" lon="5.90115">
        <ele>1180.6</ele>
        <time>2020-08-11T05:44:06Z</time>
      </trkpt>
      <trkpt lat="45.14607" lon="5.90116">
        <ele>1180.6</ele>
        <time>2020-08-11T05:44:07Z</time>
      </trkpt>
      <trkpt lat="45.14607" lon="5.90118">
        <ele>1180.6</ele>
        <time>2020-08-11T05:44:08Z</time>
      </trkpt>
      <trkpt lat="45.14606" lon="5.9012">
        <ele>1181</ele>
        <time>2020-08-11T05:44:09Z</time>
      </trkpt>
      <trkpt lat="45.14605" lon="5.90123">
        <ele>1180.8</ele>
        <time>2020-08-11T05:44:10Z</time>
      </trkpt>
      <trkpt lat="45.14605" lon="5.90125">
        <ele>1180.8</ele>
        <time>2020-08-11T05:44:11Z</time>
      </trkpt>
      <trkpt lat="45.14604" lon="5.90128">
        <ele>1181</ele>
        <time>2020-08-11T05:44:12Z</time>
      </trkpt>
      <trkpt lat="45.14603" lon="5.9013">
        <ele>1181.2</ele>
        <time>2020-08-11T05:44:13Z</time>
      </trkpt>
      <trkpt lat="45.14602" lon="5.90133">
        <ele>1181.4</ele>
        <time>2020-08-11T05:44:14Z</time>
      </trkpt>
      <trkpt lat="45.14601" lon="5.90133">
        <ele>1181.6</ele>
        <time>2020-08-11T05:44:15Z</time>
      </trkpt>
      <trkpt lat="45.146" lon="5.90134">
        <ele>1181.6</ele>
        <time>2020-08-11T05:44:16Z</time>
      </trkpt>
      <trkpt lat="45.14599" lon="5.90134">
        <ele>1181.8</ele>
        <time>2020-08-11T05:44:17Z</time>
      </trkpt>
      <trkpt lat="45.14598" lon="5.90135">
        <ele>1182</ele>
        <time>2020-08-11T05:44:18Z</time>
      </trkpt>
      <trkpt lat="45.14597" lon="5.90135">
        <ele>1182.2</ele>
        <time>2020-08-11T05:44:19Z</time>
      </trkpt>
      <trkpt lat="45.14596" lon="5.90136">
        <ele>1182.4</ele>
        <time>2020-08-11T05:44:20Z</time>
      </trkpt>
      <trkpt lat="45.14595" lon="5.90136">
        <ele>1182.4</ele>
        <time>2020-08-11T05:44:21Z</time>
      </trkpt>
      <trkpt lat="45.14594" lon="5.90137">
        <ele>1182.8</ele>
        <time>2020-08-11T05:44:22Z</time>
      </trkpt>
      <trkpt lat="45.14593" lon="5.90137">
        <ele>1183</ele>
        <time>2020-08-11T05:44:23Z</time>
      </trkpt>
      <trkpt lat="45.14592" lon="5.90137">
        <ele>1183.2</ele>
        <time>2020-08-11T05:44:24Z</time>
      </trkpt>
      <trkpt lat="45.1459" lon="5.90139">
        <ele>1183.4</ele>
        <time>2020-08-11T05:44:25Z</time>
      </trkpt>
      <trkpt lat="45.14589" lon="5.9014">
        <ele>1183.8</ele>
        <time>2020-08-11T05:44:26Z</time>
      </trkpt>
      <trkpt lat="45.14587" lon="5.90141">
        <ele>1183.8</ele>
        <time>2020-08-11T05:44:27Z</time>
      </trkpt>
      <trkpt lat="45.14586" lon="5.90143">
        <ele>1184</ele>
        <time>2020-08-11T05:44:28Z</time>
      </trkpt>
      <trkpt lat="45.14584" lon="5.90144">
        <ele>1184</ele>
        <time>2020-08-11T05:44:29Z</time>
      </trkpt>
      <trkpt lat="45.14583" lon="5.90145">
        <ele>1184.2</ele>
        <time>2020-08-11T05:44:30Z</time>
      </trkpt>
      <trkpt lat="45.14582" lon="5.90147">
        <ele>1184.6</ele>
        <time>2020-08-11T05:44:31Z</time>
      </trkpt>
      <trkpt lat="45.14582" lon="5.90149">
        <ele>1184.6</ele>
        <time>2020-08-11T05:44:32Z</time>
      </trkpt>
      <trkpt lat="45.14581" lon="5.9015">
        <ele>1184.8</ele>
        <time>2020-08-11T05:44:33Z</time>
      </trkpt>
      <trkpt lat="45.1458" lon="5.90152">
        <ele>1185</ele>
        <time>2020-08-11T05:44:34Z</time>
      </trkpt>
      <trkpt lat="45.1458" lon="5.90154">
        <ele>1184.8</ele>
        <time>2020-08-11T05:44:35Z</time>
      </trkpt>
      <trkpt lat="45.14579" lon="5.90155">
        <ele>1184.6</ele>
        <time>2020-08-11T05:44:36Z</time>
      </trkpt>
      <trkpt lat="45.14579" lon="5.90157">
        <ele>1185</ele>
        <time>2020-08-11T05:44:37Z</time>
      </trkpt>
      <trkpt lat="45.14579" lon="5.90159">
        <ele>1185.2</ele>
        <time>2020-08-11T05:44:38Z</time>
      </trkpt>
      <trkpt lat="45.1458" lon="5.90161">
        <ele>1185.2</ele>
        <time>2020-08-11T05:44:39Z</time>
      </trkpt>
      <trkpt lat="45.1458" lon="5.90163">
        <ele>1184.8</ele>
        <time>2020-08-11T05:44:40Z</time>
      </trkpt>
      <trkpt lat="45.14581" lon="5.90165">
        <ele>1184.4</ele>
        <time>2020-08-11T05:44:41Z</time>
      </trkpt>
      <trkpt lat="45.14581" lon="5.90167">
        <ele>1184</ele>
        <time>2020-08-11T05:44:42Z</time>
      </trkpt>
      <trkpt lat="45.14582" lon="5.90168">
        <ele>1183.4</ele>
        <time>2020-08-11T05:44:43Z</time>
      </trkpt>
      <trkpt lat="45.14582" lon="5.9017">
        <ele>1183.2</ele>
        <time>2020-08-11T05:44:44Z</time>
      </trkpt>
      <trkpt lat="45.14582" lon="5.90171">
        <ele>1182.8</ele>
        <time>2020-08-11T05:44:45Z</time>
      </trkpt>
      <trkpt lat="45.14581" lon="5.90171">
        <ele>1183</ele>
        <time>2020-08-11T05:44:46Z</time>
      </trkpt>
      <trkpt lat="45.14581" lon="5.90171">
        <ele>1182.8</ele>
        <time>2020-08-11T05:44:47Z</time>
      </trkpt>
      <trkpt lat="45.1458" lon="5.90171">
        <ele>1182.6</ele>
        <time>2020-08-11T05:44:48Z</time>
      </trkpt>
      <trkpt lat="45.14579" lon="5.90171">
        <ele>1182.4</ele>
        <time>2020-08-11T05:44:49Z</time>
      </trkpt>
      <trkpt lat="45.14579" lon="5.90172">
        <ele>1182.6</ele>
        <time>2020-08-11T05:44:50Z</time>
      </trkpt>
      <trkpt lat="45.14578" lon="5.90172">
        <ele>1182.8</ele>
        <time>2020-08-11T05:44:51Z</time>
      </trkpt>
      <trkpt lat="45.14577" lon="5.90172">
        <ele>1182.8</ele>
        <time>2020-08-11T05:44:52Z</time>
      </trkpt>
      <trkpt lat="45.14577" lon="5.90172">
        <ele>1183.2</ele>
        <time>2020-08-11T05:44:53Z</time>
      </trkpt>
      <trkpt lat="45.14576" lon="5.90173">
        <ele>1183.6</ele>
        <time>2020-08-11T05:44:54Z</time>
      </trkpt>
      <trkpt lat="45.14576" lon="5.90173">
        <ele>1183.8</ele>
        <time>2020-08-11T05:44:55Z</time>
      </trkpt>
      <trkpt lat="45.14575" lon="5.90173">
        <ele>1184.4</ele>
        <time>2020-08-11T05:44:56Z</time>
      </trkpt>
      <trkpt lat="45.14574" lon="5.90173">
        <ele>1184.6</ele>
        <time>2020-08-11T05:44:57Z</time>
      </trkpt>
      <trkpt lat="45.14574" lon="5.90174">
        <ele>1185</ele>
        <time>2020-08-11T05:44:58Z</time>
      </trkpt>
      <trkpt lat="45.14573" lon="5.90174">
        <ele>1185.2</ele>
        <time>2020-08-11T05:44:59Z</time>
      </trkpt>
      <trkpt lat="45.14573" lon="5.90175">
        <ele>1185.4</ele>
        <time>2020-08-11T05:45:00Z</time>
      </trkpt>
      <trkpt lat="45.14574" lon="5.90176">
        <ele>1185.6</ele>
        <time>2020-08-11T05:45:01Z</time>
      </trkpt>
      <trkpt lat="45.14574" lon="5.90178">
        <ele>1186</ele>
        <time>2020-08-11T05:45:02Z</time>
      </trkpt>
      <trkpt lat="45.14575" lon="5.90179">
        <ele>1186</ele>
        <time>2020-08-11T05:45:03Z</time>
      </trkpt>
      <trkpt lat="45.14575" lon="5.9018">
        <ele>1186.2</ele>
        <time>2020-08-11T05:45:04Z</time>
      </trkpt>
      <trkpt lat="45.14575" lon="5.90182">
        <ele>1186.4</ele>
        <time>2020-08-11T05:45:05Z</time>
      </trkpt>
      <trkpt lat="45.14576" lon="5.90183">
        <ele>1186.4</ele>
        <time>2020-08-11T05:45:06Z</time>
      </trkpt>
      <trkpt lat="45.14576" lon="5.90184">
        <ele>1186.4</ele>
        <time>2020-08-11T05:45:07Z</time>
      </trkpt>
      <trkpt lat="45.14576" lon="5.90186">
        <ele>1186.6</ele>
        <time>2020-08-11T05:45:08Z</time>
      </trkpt>
      <trkpt lat="45.14576" lon="5.90187">
        <ele>1186.8</ele>
        <time>2020-08-11T05:45:09Z</time>
      </trkpt>
      <trkpt lat="45.14576" lon="5.90188">
        <ele>1187</ele>
        <time>2020-08-11T05:45:10Z</time>
      </trkpt>
      <trkpt lat="45.14575" lon="5.90189">
        <ele>1187.2</ele>
        <time>2020-08-11T05:45:11Z</time>
      </trkpt>
      <trkpt lat="45.14575" lon="5.90191">
        <ele>1187.6</ele>
        <time>2020-08-11T05:45:12Z</time>
      </trkpt>
      <trkpt lat="45.14574" lon="5.90192">
        <ele>1187.8</ele>
        <time>2020-08-11T05:45:13Z</time>
      </trkpt>
      <trkpt lat="45.14574" lon="5.90193">
        <ele>1188</ele>
        <time>2020-08-11T05:45:14Z</time>
      </trkpt>
      <trkpt lat="45.14573" lon="5.90195">
        <ele>1188.2</ele>
        <time>2020-08-11T05:45:15Z</time>
      </trkpt>
      <trkpt lat="45.14573" lon="5.90196">
        <ele>1188.6</ele>
        <time>2020-08-11T05:45:16Z</time>
      </trkpt>
      <trkpt lat="45.14572" lon="5.90197">
        <ele>1189</ele>
        <time>2020-08-11T05:45:17Z</time>
      </trkpt>
      <trkpt lat="45.14572" lon="5.90198">
        <ele>1189.4</ele>
        <time>2020-08-11T05:45:18Z</time>
      </trkpt>
      <trkpt lat="45.14571" lon="5.902">
        <ele>1189.6</ele>
        <time>2020-08-11T05:45:19Z</time>
      </trkpt>
      <trkpt lat="45.1457" lon="5.90201">
        <ele>1189.8</ele>
        <time>2020-08-11T05:45:20Z</time>
      </trkpt>
      <trkpt lat="45.1457" lon="5.90202">
        <ele>1190</ele>
        <time>2020-08-11T05:45:21Z</time>
      </trkpt>
      <trkpt lat="45.14569" lon="5.90204">
        <ele>1190.2</ele>
        <time>2020-08-11T05:45:22Z</time>
      </trkpt>
      <trkpt lat="45.14568" lon="5.90205">
        <ele>1190.4</ele>
        <time>2020-08-11T05:45:23Z</time>
      </trkpt>
      <trkpt lat="45.14567" lon="5.90206">
        <ele>1190.8</ele>
        <time>2020-08-11T05:45:24Z</time>
      </trkpt>
      <trkpt lat="45.14567" lon="5.90208">
        <ele>1191</ele>
        <time>2020-08-11T05:45:25Z</time>
      </trkpt>
      <trkpt lat="45.14566" lon="5.90209">
        <ele>1191.4</ele>
        <time>2020-08-11T05:45:26Z</time>
      </trkpt>
      <trkpt lat="45.14565" lon="5.9021">
        <ele>1191.6</ele>
        <time>2020-08-11T05:45:27Z</time>
      </trkpt>
      <trkpt lat="45.14564" lon="5.90212">
        <ele>1191.8</ele>
        <time>2020-08-11T05:45:28Z</time>
      </trkpt>
      <trkpt lat="45.14563" lon="5.90213">
        <ele>1191.8</ele>
        <time>2020-08-11T05:45:29Z</time>
      </trkpt>
      <trkpt lat="45.14563" lon="5.90214">
        <ele>1192</ele>
        <time>2020-08-11T05:45:30Z</time>
      </trkpt>
      <trkpt lat="45.14562" lon="5.90216">
        <ele>1192.2</ele>
        <time>2020-08-11T05:45:31Z</time>
      </trkpt>
      <trkpt lat="45.14561" lon="5.90217">
        <ele>1192.2</ele>
        <time>2020-08-11T05:45:32Z</time>
      </trkpt>
      <trkpt lat="45.1456" lon="5.90218">
        <ele>1192.4</ele>
        <time>2020-08-11T05:45:33Z</time>
      </trkpt>
      <trkpt lat="45.14559" lon="5.9022">
        <ele>1192.4</ele>
        <time>2020-08-11T05:45:34Z</time>
      </trkpt>
      <trkpt lat="45.14559" lon="5.90221">
        <ele>1192.6</ele>
        <time>2020-08-11T05:45:35Z</time>
      </trkpt>
      <trkpt lat="45.14558" lon="5.90222">
        <ele>1192.8</ele>
        <time>2020-08-11T05:45:36Z</time>
      </trkpt>
      <trkpt lat="45.14558" lon="5.90224">
        <ele>1193</ele>
        <time>2020-08-11T05:45:37Z</time>
      </trkpt>
      <trkpt lat="45.14557" lon="5.90225">
        <ele>1193.4</ele>
        <time>2020-08-11T05:45:38Z</time>
      </trkpt>
      <trkpt lat="45.14556" lon="5.90227">
        <ele>1193.8</ele>
        <time>2020-08-11T05:45:39Z</time>
      </trkpt>
      <trkpt lat="45.14556" lon="5.90228">
        <ele>1193.8</ele>
        <time>2020-08-11T05:45:40Z</time>
      </trkpt>
      <trkpt lat="45.14555" lon="5.90229">
        <ele>1194</ele>
        <time>2020-08-11T05:45:41Z</time>
      </trkpt>
      <trkpt lat="45.14554" lon="5.9023">
        <ele>1194.4</ele>
        <time>2020-08-11T05:45:42Z</time>
      </trkpt>
      <trkpt lat="45.14553" lon="5.9023">
        <ele>1194.6</ele>
        <time>2020-08-11T05:45:43Z</time>
      </trkpt>
      <trkpt lat="45.14552" lon="5.90231">
        <ele>1194.8</ele>
        <time>2020-08-11T05:45:44Z</time>
      </trkpt>
      <trkpt lat="45.14551" lon="5.90231">
        <ele>1195.2</ele>
        <time>2020-08-11T05:45:45Z</time>
      </trkpt>
      <trkpt lat="45.1455" lon="5.90232">
        <ele>1195.6</ele>
        <time>2020-08-11T05:45:46Z</time>
      </trkpt>
      <trkpt lat="45.14549" lon="5.90232">
        <ele>1195.8</ele>
        <time>2020-08-11T05:45:47Z</time>
      </trkpt>
      <trkpt lat="45.14548" lon="5.90233">
        <ele>1196</ele>
        <time>2020-08-11T05:45:48Z</time>
      </trkpt>
      <trkpt lat="45.14546" lon="5.90233">
        <ele>1196.4</ele>
        <time>2020-08-11T05:45:49Z</time>
      </trkpt>
      <trkpt lat="45.14546" lon="5.90235">
        <ele>1196.6</ele>
        <time>2020-08-11T05:45:50Z</time>
      </trkpt>
      <trkpt lat="45.14546" lon="5.90237">
        <ele>1196.6</ele>
        <time>2020-08-11T05:45:51Z</time>
      </trkpt>
      <trkpt lat="45.14546" lon="5.90241">
        <ele>1196.8</ele>
        <time>2020-08-11T05:45:52Z</time>
      </trkpt>
      <trkpt lat="45.14545" lon="5.90242">
        <ele>1197</ele>
        <time>2020-08-11T05:45:53Z</time>
      </trkpt>
      <trkpt lat="45.14544" lon="5.90244">
        <ele>1196.8</ele>
        <time>2020-08-11T05:45:54Z</time>
      </trkpt>
      <trkpt lat="45.14544" lon="5.90245">
        <ele>1197</ele>
        <time>2020-08-11T05:45:55Z</time>
      </trkpt>
      <trkpt lat="45.14543" lon="5.90247">
        <ele>1197</ele>
        <time>2020-08-11T05:45:56Z</time>
      </trkpt>
      <trkpt lat="45.14542" lon="5.90248">
        <ele>1197.4</ele>
        <time>2020-08-11T05:45:57Z</time>
      </trkpt>
      <trkpt lat="45.14542" lon="5.9025">
        <ele>1197.6</ele>
        <time>2020-08-11T05:45:58Z</time>
      </trkpt>
      <trkpt lat="45.14541" lon="5.90252">
        <ele>1197.8</ele>
        <time>2020-08-11T05:45:59Z</time>
      </trkpt>
      <trkpt lat="45.1454" lon="5.90253">
        <ele>1198</ele>
        <time>2020-08-11T05:46:00Z</time>
      </trkpt>
      <trkpt lat="45.1454" lon="5.90255">
        <ele>1198.4</ele>
        <time>2020-08-11T05:46:01Z</time>
      </trkpt>
      <trkpt lat="45.14539" lon="5.90256">
        <ele>1198.6</ele>
        <time>2020-08-11T05:46:02Z</time>
      </trkpt>
      <trkpt lat="45.14538" lon="5.90258">
        <ele>1199.4</ele>
        <time>2020-08-11T05:46:03Z</time>
      </trkpt>
      <trkpt lat="45.14538" lon="5.90259">
        <ele>1200</ele>
        <time>2020-08-11T05:46:04Z</time>
      </trkpt>
      <trkpt lat="45.14533" lon="5.9026">
        <ele>1200</ele>
        <time>2020-08-11T05:46:05Z</time>
      </trkpt>
      <trkpt lat="45.14528" lon="5.90261">
        <ele>1200.2</ele>
        <time>2020-08-11T05:46:06Z</time>
      </trkpt>
      <trkpt lat="45.14528" lon="5.90263">
        <ele>1200.4</ele>
        <time>2020-08-11T05:46:07Z</time>
      </trkpt>
      <trkpt lat="45.14528" lon="5.90265">
        <ele>1200.4</ele>
        <time>2020-08-11T05:46:08Z</time>
      </trkpt>
      <trkpt lat="45.14528" lon="5.90267">
        <ele>1200.6</ele>
        <time>2020-08-11T05:46:09Z</time>
      </trkpt>
      <trkpt lat="45.14528" lon="5.90269">
        <ele>1200.8</ele>
        <time>2020-08-11T05:46:10Z</time>
      </trkpt>
      <trkpt lat="45.14528" lon="5.90271">
        <ele>1201</ele>
        <time>2020-08-11T05:46:11Z</time>
      </trkpt>
      <trkpt lat="45.14528" lon="5.90273">
        <ele>1201.4</ele>
        <time>2020-08-11T05:46:12Z</time>
      </trkpt>
      <trkpt lat="45.14528" lon="5.90275">
        <ele>1201.6</ele>
        <time>2020-08-11T05:46:13Z</time>
      </trkpt>
      <trkpt lat="45.14528" lon="5.90277">
        <ele>1201.8</ele>
        <time>2020-08-11T05:46:14Z</time>
      </trkpt>
      <trkpt lat="45.14528" lon="5.90278">
        <ele>1202.2</ele>
        <time>2020-08-11T05:46:15Z</time>
      </trkpt>
      <trkpt lat="45.14529" lon="5.9028">
        <ele>1202.2</ele>
        <time>2020-08-11T05:46:16Z</time>
      </trkpt>
      <trkpt lat="45.14529" lon="5.90281">
        <ele>1202.6</ele>
        <time>2020-08-11T05:46:17Z</time>
      </trkpt>
      <trkpt lat="45.14529" lon="5.90283">
        <ele>1202.8</ele>
        <time>2020-08-11T05:46:18Z</time>
      </trkpt>
      <trkpt lat="45.1453" lon="5.90285">
        <ele>1203</ele>
        <time>2020-08-11T05:46:19Z</time>
      </trkpt>
      <trkpt lat="45.1453" lon="5.90286">
        <ele>1203.2</ele>
        <time>2020-08-11T05:46:20Z</time>
      </trkpt>
      <trkpt lat="45.1453" lon="5.90288">
        <ele>1203.4</ele>
        <time>2020-08-11T05:46:21Z</time>
      </trkpt>
      <trkpt lat="45.14531" lon="5.90289">
        <ele>1203.6</ele>
        <time>2020-08-11T05:46:22Z</time>
      </trkpt>
      <trkpt lat="45.1453" lon="5.9029">
        <ele>1203.6</ele>
        <time>2020-08-11T05:46:23Z</time>
      </trkpt>
      <trkpt lat="45.1453" lon="5.9029">
        <ele>1203.8</ele>
        <time>2020-08-11T05:46:24Z</time>
      </trkpt>
      <trkpt lat="45.1453" lon="5.90291">
        <ele>1204</ele>
        <time>2020-08-11T05:46:25Z</time>
      </trkpt>
      <trkpt lat="45.1453" lon="5.90292">
        <ele>1204.2</ele>
        <time>2020-08-11T05:46:26Z</time>
      </trkpt>
      <trkpt lat="45.14529" lon="5.90292">
        <ele>1204.4</ele>
        <time>2020-08-11T05:46:27Z</time>
      </trkpt>
      <trkpt lat="45.14529" lon="5.90293">
        <ele>1204.6</ele>
        <time>2020-08-11T05:46:28Z</time>
      </trkpt>
      <trkpt lat="45.14529" lon="5.90294">
        <ele>1204.8</ele>
        <time>2020-08-11T05:46:29Z</time>
      </trkpt>
      <trkpt lat="45.14529" lon="5.90294">
        <ele>1204.8</ele>
        <time>2020-08-11T05:46:30Z</time>
      </trkpt>
      <trkpt lat="45.14528" lon="5.90295">
        <ele>1204.8</ele>
        <time>2020-08-11T05:46:31Z</time>
      </trkpt>
      <trkpt lat="45.14528" lon="5.90296">
        <ele>1205.2</ele>
        <time>2020-08-11T05:46:32Z</time>
      </trkpt>
      <trkpt lat="45.14528" lon="5.90296">
        <ele>1205.4</ele>
        <time>2020-08-11T05:46:33Z</time>
      </trkpt>
      <trkpt lat="45.14528" lon="5.90297">
        <ele>1205.6</ele>
        <time>2020-08-11T05:46:34Z</time>
      </trkpt>
      <trkpt lat="45.14527" lon="5.90298">
        <ele>1206</ele>
        <time>2020-08-11T05:46:35Z</time>
      </trkpt>
      <trkpt lat="45.14527" lon="5.90298">
        <ele>1206.2</ele>
        <time>2020-08-11T05:46:36Z</time>
      </trkpt>
      <trkpt lat="45.14527" lon="5.90299">
        <ele>1206.2</ele>
        <time>2020-08-11T05:46:37Z</time>
      </trkpt>
      <trkpt lat="45.14527" lon="5.903">
        <ele>1206.6</ele>
        <time>2020-08-11T05:46:38Z</time>
      </trkpt>
      <trkpt lat="45.14526" lon="5.903">
        <ele>1206.8</ele>
        <time>2020-08-11T05:46:39Z</time>
      </trkpt>
      <trkpt lat="45.14526" lon="5.90301">
        <ele>1207.2</ele>
        <time>2020-08-11T05:46:40Z</time>
      </trkpt>
      <trkpt lat="45.14526" lon="5.90303">
        <ele>1207.2</ele>
        <time>2020-08-11T05:46:41Z</time>
      </trkpt>
      <trkpt lat="45.14526" lon="5.90304">
        <ele>1207.6</ele>
        <time>2020-08-11T05:46:42Z</time>
      </trkpt>
      <trkpt lat="45.14526" lon="5.90305">
        <ele>1208</ele>
        <time>2020-08-11T05:46:43Z</time>
      </trkpt>
      <trkpt lat="45.14527" lon="5.90307">
        <ele>1208.2</ele>
        <time>2020-08-11T05:46:44Z</time>
      </trkpt>
      <trkpt lat="45.14527" lon="5.90308">
        <ele>1208.6</ele>
        <time>2020-08-11T05:46:45Z</time>
      </trkpt>
      <trkpt lat="45.14527" lon="5.9031">
        <ele>1208.8</ele>
        <time>2020-08-11T05:46:46Z</time>
      </trkpt>
      <trkpt lat="45.14527" lon="5.90311">
        <ele>1209</ele>
        <time>2020-08-11T05:46:47Z</time>
      </trkpt>
      <trkpt lat="45.14527" lon="5.90313">
        <ele>1209.4</ele>
        <time>2020-08-11T05:46:48Z</time>
      </trkpt>
      <trkpt lat="45.14527" lon="5.90314">
        <ele>1209.4</ele>
        <time>2020-08-11T05:46:49Z</time>
      </trkpt>
      <trkpt lat="45.14529" lon="5.90317">
        <ele>1209.6</ele>
        <time>2020-08-11T05:46:50Z</time>
      </trkpt>
      <trkpt lat="45.14531" lon="5.90319">
        <ele>1209.4</ele>
        <time>2020-08-11T05:46:51Z</time>
      </trkpt>
      <trkpt lat="45.14532" lon="5.90322">
        <ele>1209.6</ele>
        <time>2020-08-11T05:46:52Z</time>
      </trkpt>
      <trkpt lat="45.14534" lon="5.90324">
        <ele>1209.6</ele>
        <time>2020-08-11T05:46:53Z</time>
      </trkpt>
      <trkpt lat="45.14534" lon="5.90325">
        <ele>1209.6</ele>
        <time>2020-08-11T05:46:54Z</time>
      </trkpt>
      <trkpt lat="45.14534" lon="5.90327">
        <ele>1209.8</ele>
        <time>2020-08-11T05:46:55Z</time>
      </trkpt>
      <trkpt lat="45.14535" lon="5.90328">
        <ele>1209.8</ele>
        <time>2020-08-11T05:46:56Z</time>
      </trkpt>
      <trkpt lat="45.14535" lon="5.90329">
        <ele>1210</ele>
        <time>2020-08-11T05:46:57Z</time>
      </trkpt>
      <trkpt lat="45.14535" lon="5.9033">
        <ele>1210.4</ele>
        <time>2020-08-11T05:46:58Z</time>
      </trkpt>
      <trkpt lat="45.14535" lon="5.90332">
        <ele>1210.6</ele>
        <time>2020-08-11T05:46:59Z</time>
      </trkpt>
      <trkpt lat="45.14535" lon="5.90333">
        <ele>1210.8</ele>
        <time>2020-08-11T05:47:00Z</time>
      </trkpt>
      <trkpt lat="45.14536" lon="5.90334">
        <ele>1211</ele>
        <time>2020-08-11T05:47:01Z</time>
      </trkpt>
      <trkpt lat="45.14536" lon="5.90335">
        <ele>1211.4</ele>
        <time>2020-08-11T05:47:02Z</time>
      </trkpt>
      <trkpt lat="45.14536" lon="5.90337">
        <ele>1211.4</ele>
        <time>2020-08-11T05:47:03Z</time>
      </trkpt>
      <trkpt lat="45.14536" lon="5.90337">
        <ele>1211.8</ele>
        <time>2020-08-11T05:47:04Z</time>
      </trkpt>
      <trkpt lat="45.14535" lon="5.90338">
        <ele>1212</ele>
        <time>2020-08-11T05:47:05Z</time>
      </trkpt>
      <trkpt lat="45.14535" lon="5.90339">
        <ele>1212.4</ele>
        <time>2020-08-11T05:47:06Z</time>
      </trkpt>
      <trkpt lat="45.14535" lon="5.90339">
        <ele>1212.6</ele>
        <time>2020-08-11T05:47:07Z</time>
      </trkpt>
      <trkpt lat="45.14534" lon="5.9034">
        <ele>1213</ele>
        <time>2020-08-11T05:47:08Z</time>
      </trkpt>
      <trkpt lat="45.14534" lon="5.90341">
        <ele>1213.2</ele>
        <time>2020-08-11T05:47:09Z</time>
      </trkpt>
      <trkpt lat="45.14534" lon="5.90341">
        <ele>1213.6</ele>
        <time>2020-08-11T05:47:10Z</time>
      </trkpt>
      <trkpt lat="45.14533" lon="5.90342">
        <ele>1213.6</ele>
        <time>2020-08-11T05:47:11Z</time>
      </trkpt>
      <trkpt lat="45.14533" lon="5.90343">
        <ele>1213.8</ele>
        <time>2020-08-11T05:47:12Z</time>
      </trkpt>
      <trkpt lat="45.14533" lon="5.90343">
        <ele>1214.2</ele>
        <time>2020-08-11T05:47:13Z</time>
      </trkpt>
      <trkpt lat="45.14532" lon="5.90344">
        <ele>1214.4</ele>
        <time>2020-08-11T05:47:14Z</time>
      </trkpt>
      <trkpt lat="45.14532" lon="5.90345">
        <ele>1214.6</ele>
        <time>2020-08-11T05:47:15Z</time>
      </trkpt>
      <trkpt lat="45.14531" lon="5.90345">
        <ele>1214.6</ele>
        <time>2020-08-11T05:47:16Z</time>
      </trkpt>
      <trkpt lat="45.14531" lon="5.90346">
        <ele>1214.8</ele>
        <time>2020-08-11T05:47:17Z</time>
      </trkpt>
      <trkpt lat="45.14531" lon="5.90347">
        <ele>1215.2</ele>
        <time>2020-08-11T05:47:18Z</time>
      </trkpt>
      <trkpt lat="45.1453" lon="5.90347">
        <ele>1215.4</ele>
        <time>2020-08-11T05:47:19Z</time>
      </trkpt>
      <trkpt lat="45.1453" lon="5.90348">
        <ele>1215.6</ele>
        <time>2020-08-11T05:47:20Z</time>
      </trkpt>
      <trkpt lat="45.1453" lon="5.90349">
        <ele>1215.8</ele>
        <time>2020-08-11T05:47:21Z</time>
      </trkpt>
      <trkpt lat="45.14529" lon="5.9035">
        <ele>1216</ele>
        <time>2020-08-11T05:47:22Z</time>
      </trkpt>
      <trkpt lat="45.14529" lon="5.90352">
        <ele>1216.2</ele>
        <time>2020-08-11T05:47:23Z</time>
      </trkpt>
      <trkpt lat="45.14529" lon="5.90353">
        <ele>1216.4</ele>
        <time>2020-08-11T05:47:24Z</time>
      </trkpt>
      <trkpt lat="45.14528" lon="5.90354">
        <ele>1216.6</ele>
        <time>2020-08-11T05:47:25Z</time>
      </trkpt>
      <trkpt lat="45.14528" lon="5.90355">
        <ele>1216.6</ele>
        <time>2020-08-11T05:47:26Z</time>
      </trkpt>
      <trkpt lat="45.14527" lon="5.90356">
        <ele>1216.8</ele>
        <time>2020-08-11T05:47:27Z</time>
      </trkpt>
      <trkpt lat="45.14527" lon="5.90357">
        <ele>1217</ele>
        <time>2020-08-11T05:47:28Z</time>
      </trkpt>
      <trkpt lat="45.14527" lon="5.90359">
        <ele>1217.2</ele>
        <time>2020-08-11T05:47:29Z</time>
      </trkpt>
      <trkpt lat="45.14526" lon="5.9036">
        <ele>1217.6</ele>
        <time>2020-08-11T05:47:30Z</time>
      </trkpt>
      <trkpt lat="45.14526" lon="5.90361">
        <ele>1217.8</ele>
        <time>2020-08-11T05:47:31Z</time>
      </trkpt>
      <trkpt lat="45.14525" lon="5.90362">
        <ele>1218</ele>
        <time>2020-08-11T05:47:32Z</time>
      </trkpt>
      <trkpt lat="45.14524" lon="5.90364">
        <ele>1218.2</ele>
        <time>2020-08-11T05:47:33Z</time>
      </trkpt>
      <trkpt lat="45.14524" lon="5.90365">
        <ele>1218.6</ele>
        <time>2020-08-11T05:47:34Z</time>
      </trkpt>
      <trkpt lat="45.14523" lon="5.90366">
        <ele>1218.6</ele>
        <time>2020-08-11T05:47:35Z</time>
      </trkpt>
      <trkpt lat="45.14522" lon="5.90368">
        <ele>1218.6</ele>
        <time>2020-08-11T05:47:36Z</time>
      </trkpt>
      <trkpt lat="45.14522" lon="5.90369">
        <ele>1218.8</ele>
        <time>2020-08-11T05:47:37Z</time>
      </trkpt>
      <trkpt lat="45.14521" lon="5.9037">
        <ele>1218.6</ele>
        <time>2020-08-11T05:47:38Z</time>
      </trkpt>
      <trkpt lat="45.1452" lon="5.90372">
        <ele>1218.8</ele>
        <time>2020-08-11T05:47:39Z</time>
      </trkpt>
      <trkpt lat="45.14519" lon="5.90373">
        <ele>1219</ele>
        <time>2020-08-11T05:47:40Z</time>
      </trkpt>
      <trkpt lat="45.14519" lon="5.90374">
        <ele>1219.2</ele>
        <time>2020-08-11T05:47:41Z</time>
      </trkpt>
      <trkpt lat="45.14518" lon="5.90376">
        <ele>1219.6</ele>
        <time>2020-08-11T05:47:42Z</time>
      </trkpt>
      <trkpt lat="45.14517" lon="5.90377">
        <ele>1220</ele>
        <time>2020-08-11T05:47:43Z</time>
      </trkpt>
      <trkpt lat="45.14516" lon="5.90378">
        <ele>1220.4</ele>
        <time>2020-08-11T05:47:44Z</time>
      </trkpt>
      <trkpt lat="45.14515" lon="5.9038">
        <ele>1220.6</ele>
        <time>2020-08-11T05:47:45Z</time>
      </trkpt>
      <trkpt lat="45.14514" lon="5.90381">
        <ele>1220.8</ele>
        <time>2020-08-11T05:47:46Z</time>
      </trkpt>
      <trkpt lat="45.14514" lon="5.90383">
        <ele>1221</ele>
        <time>2020-08-11T05:47:47Z</time>
      </trkpt>
      <trkpt lat="45.14512" lon="5.90383">
        <ele>1221.2</ele>
        <time>2020-08-11T05:47:48Z</time>
      </trkpt>
      <trkpt lat="45.14511" lon="5.90384">
        <ele>1221.4</ele>
        <time>2020-08-11T05:47:49Z</time>
      </trkpt>
      <trkpt lat="45.1451" lon="5.90385">
        <ele>1221.4</ele>
        <time>2020-08-11T05:47:50Z</time>
      </trkpt>
      <trkpt lat="45.14509" lon="5.90385">
        <ele>1221.6</ele>
        <time>2020-08-11T05:47:51Z</time>
      </trkpt>
      <trkpt lat="45.14508" lon="5.90386">
        <ele>1221.8</ele>
        <time>2020-08-11T05:47:52Z</time>
      </trkpt>
      <trkpt lat="45.14507" lon="5.90386">
        <ele>1221.8</ele>
        <time>2020-08-11T05:47:53Z</time>
      </trkpt>
      <trkpt lat="45.14506" lon="5.90387">
        <ele>1222.2</ele>
        <time>2020-08-11T05:47:54Z</time>
      </trkpt>
      <trkpt lat="45.14505" lon="5.90388">
        <ele>1222.4</ele>
        <time>2020-08-11T05:47:55Z</time>
      </trkpt>
      <trkpt lat="45.14504" lon="5.90389">
        <ele>1222.6</ele>
        <time>2020-08-11T05:47:56Z</time>
      </trkpt>
      <trkpt lat="45.14504" lon="5.9039">
        <ele>1222.6</ele>
        <time>2020-08-11T05:47:57Z</time>
      </trkpt>
      <trkpt lat="45.14504" lon="5.90391">
        <ele>1222.8</ele>
        <time>2020-08-11T05:47:58Z</time>
      </trkpt>
      <trkpt lat="45.14504" lon="5.90392">
        <ele>1223.2</ele>
        <time>2020-08-11T05:47:59Z</time>
      </trkpt>
      <trkpt lat="45.14504" lon="5.90393">
        <ele>1223.4</ele>
        <time>2020-08-11T05:48:00Z</time>
      </trkpt>
      <trkpt lat="45.14504" lon="5.90394">
        <ele>1223.4</ele>
        <time>2020-08-11T05:48:01Z</time>
      </trkpt>
      <trkpt lat="45.14503" lon="5.90395">
        <ele>1223.8</ele>
        <time>2020-08-11T05:48:02Z</time>
      </trkpt>
      <trkpt lat="45.14503" lon="5.90396">
        <ele>1224</ele>
        <time>2020-08-11T05:48:03Z</time>
      </trkpt>
      <trkpt lat="45.14503" lon="5.90398">
        <ele>1224.2</ele>
        <time>2020-08-11T05:48:04Z</time>
      </trkpt>
      <trkpt lat="45.14503" lon="5.90399">
        <ele>1224.4</ele>
        <time>2020-08-11T05:48:05Z</time>
      </trkpt>
      <trkpt lat="45.14503" lon="5.904">
        <ele>1224.8</ele>
        <time>2020-08-11T05:48:06Z</time>
      </trkpt>
      <trkpt lat="45.14502" lon="5.90401">
        <ele>1225</ele>
        <time>2020-08-11T05:48:07Z</time>
      </trkpt>
      <trkpt lat="45.14502" lon="5.90403">
        <ele>1225.4</ele>
        <time>2020-08-11T05:48:08Z</time>
      </trkpt>
      <trkpt lat="45.14501" lon="5.90405">
        <ele>1225.8</ele>
        <time>2020-08-11T05:48:09Z</time>
      </trkpt>
      <trkpt lat="45.14501" lon="5.90407">
        <ele>1226</ele>
        <time>2020-08-11T05:48:10Z</time>
      </trkpt>
      <trkpt lat="45.145" lon="5.90409">
        <ele>1226</ele>
        <time>2020-08-11T05:48:11Z</time>
      </trkpt>
      <trkpt lat="45.145" lon="5.90411">
        <ele>1226.2</ele>
        <time>2020-08-11T05:48:12Z</time>
      </trkpt>
      <trkpt lat="45.14499" lon="5.90413">
        <ele>1226.4</ele>
        <time>2020-08-11T05:48:13Z</time>
      </trkpt>
      <trkpt lat="45.14499" lon="5.90415">
        <ele>1226.4</ele>
        <time>2020-08-11T05:48:14Z</time>
      </trkpt>
      <trkpt lat="45.14498" lon="5.90417">
        <ele>1226.8</ele>
        <time>2020-08-11T05:48:15Z</time>
      </trkpt>
      <trkpt lat="45.14498" lon="5.90419">
        <ele>1227</ele>
        <time>2020-08-11T05:48:16Z</time>
      </trkpt>
      <trkpt lat="45.14498" lon="5.90421">
        <ele>1227.4</ele>
        <time>2020-08-11T05:48:17Z</time>
      </trkpt>
      <trkpt lat="45.14498" lon="5.90423">
        <ele>1227.6</ele>
        <time>2020-08-11T05:48:18Z</time>
      </trkpt>
      <trkpt lat="45.14498" lon="5.90426">
        <ele>1227.6</ele>
        <time>2020-08-11T05:48:19Z</time>
      </trkpt>
      <trkpt lat="45.14497" lon="5.90428">
        <ele>1227.6</ele>
        <time>2020-08-11T05:48:20Z</time>
      </trkpt>
      <trkpt lat="45.14497" lon="5.9043">
        <ele>1227.8</ele>
        <time>2020-08-11T05:48:21Z</time>
      </trkpt>
      <trkpt lat="45.14497" lon="5.90431">
        <ele>1228</ele>
        <time>2020-08-11T05:48:22Z</time>
      </trkpt>
      <trkpt lat="45.14497" lon="5.90432">
        <ele>1228.2</ele>
        <time>2020-08-11T05:48:23Z</time>
      </trkpt>
      <trkpt lat="45.14496" lon="5.90434">
        <ele>1228.6</ele>
        <time>2020-08-11T05:48:24Z</time>
      </trkpt>
      <trkpt lat="45.14496" lon="5.90435">
        <ele>1228.8</ele>
        <time>2020-08-11T05:48:25Z</time>
      </trkpt>
      <trkpt lat="45.14495" lon="5.90436">
        <ele>1228.8</ele>
        <time>2020-08-11T05:48:26Z</time>
      </trkpt>
      <trkpt lat="45.14495" lon="5.90437">
        <ele>1229</ele>
        <time>2020-08-11T05:48:27Z</time>
      </trkpt>
      <trkpt lat="45.14495" lon="5.90438">
        <ele>1229</ele>
        <time>2020-08-11T05:48:28Z</time>
      </trkpt>
      <trkpt lat="45.14494" lon="5.90439">
        <ele>1229</ele>
        <time>2020-08-11T05:48:29Z</time>
      </trkpt>
      <trkpt lat="45.14494" lon="5.9044">
        <ele>1229</ele>
        <time>2020-08-11T05:48:30Z</time>
      </trkpt>
      <trkpt lat="45.14494" lon="5.90442">
        <ele>1229.2</ele>
        <time>2020-08-11T05:48:31Z</time>
      </trkpt>
      <trkpt lat="45.14493" lon="5.90443">
        <ele>1229.2</ele>
        <time>2020-08-11T05:48:32Z</time>
      </trkpt>
      <trkpt lat="45.14493" lon="5.90444">
        <ele>1229.4</ele>
        <time>2020-08-11T05:48:33Z</time>
      </trkpt>
      <trkpt lat="45.14493" lon="5.90445">
        <ele>1229.6</ele>
        <time>2020-08-11T05:48:34Z</time>
      </trkpt>
      <trkpt lat="45.1449" lon="5.90447">
        <ele>1229.6</ele>
        <time>2020-08-11T05:48:35Z</time>
      </trkpt>
      <trkpt lat="45.14487" lon="5.90448">
        <ele>1230</ele>
        <time>2020-08-11T05:48:36Z</time>
      </trkpt>
      <trkpt lat="45.14485" lon="5.9045">
        <ele>1230.4</ele>
        <time>2020-08-11T05:48:37Z</time>
      </trkpt>
      <trkpt lat="45.14482" lon="5.90452">
        <ele>1230.4</ele>
        <time>2020-08-11T05:48:38Z</time>
      </trkpt>
      <trkpt lat="45.14479" lon="5.90453">
        <ele>1230.4</ele>
        <time>2020-08-11T05:48:39Z</time>
      </trkpt>
      <trkpt lat="45.14477" lon="5.90455">
        <ele>1230.6</ele>
        <time>2020-08-11T05:48:40Z</time>
      </trkpt>
      <trkpt lat="45.14477" lon="5.90456">
        <ele>1230.8</ele>
        <time>2020-08-11T05:48:41Z</time>
      </trkpt>
      <trkpt lat="45.14477" lon="5.90457">
        <ele>1231.2</ele>
        <time>2020-08-11T05:48:42Z</time>
      </trkpt>
      <trkpt lat="45.14477" lon="5.90458">
        <ele>1231.4</ele>
        <time>2020-08-11T05:48:43Z</time>
      </trkpt>
      <trkpt lat="45.14477" lon="5.9046">
        <ele>1231.8</ele>
        <time>2020-08-11T05:48:44Z</time>
      </trkpt>
      <trkpt lat="45.14477" lon="5.90461">
        <ele>1232</ele>
        <time>2020-08-11T05:48:45Z</time>
      </trkpt>
      <trkpt lat="45.14477" lon="5.90462">
        <ele>1232.4</ele>
        <time>2020-08-11T05:48:46Z</time>
      </trkpt>
      <trkpt lat="45.14477" lon="5.90463">
        <ele>1232.4</ele>
        <time>2020-08-11T05:48:47Z</time>
      </trkpt>
      <trkpt lat="45.14477" lon="5.90465">
        <ele>1232.6</ele>
        <time>2020-08-11T05:48:48Z</time>
      </trkpt>
      <trkpt lat="45.14477" lon="5.90466">
        <ele>1232.8</ele>
        <time>2020-08-11T05:48:49Z</time>
      </trkpt>
      <trkpt lat="45.14477" lon="5.90467">
        <ele>1233</ele>
        <time>2020-08-11T05:48:50Z</time>
      </trkpt>
      <trkpt lat="45.14477" lon="5.90468">
        <ele>1233</ele>
        <time>2020-08-11T05:48:51Z</time>
      </trkpt>
      <trkpt lat="45.14478" lon="5.9047">
        <ele>1233.2</ele>
        <time>2020-08-11T05:48:52Z</time>
      </trkpt>
      <trkpt lat="45.14478" lon="5.90472">
        <ele>1233.4</ele>
        <time>2020-08-11T05:48:53Z</time>
      </trkpt>
      <trkpt lat="45.14479" lon="5.90474">
        <ele>1233.8</ele>
        <time>2020-08-11T05:48:54Z</time>
      </trkpt>
      <trkpt lat="45.14479" lon="5.90475">
        <ele>1233.8</ele>
        <time>2020-08-11T05:48:55Z</time>
      </trkpt>
      <trkpt lat="45.1448" lon="5.90477">
        <ele>1234</ele>
        <time>2020-08-11T05:48:56Z</time>
      </trkpt>
      <trkpt lat="45.1448" lon="5.90479">
        <ele>1234.2</ele>
        <time>2020-08-11T05:48:57Z</time>
      </trkpt>
      <trkpt lat="45.14481" lon="5.9048">
        <ele>1234.4</ele>
        <time>2020-08-11T05:48:58Z</time>
      </trkpt>
      <trkpt lat="45.14482" lon="5.90482">
        <ele>1234.6</ele>
        <time>2020-08-11T05:48:59Z</time>
      </trkpt>
      <trkpt lat="45.14481" lon="5.90485">
        <ele>1234.8</ele>
        <time>2020-08-11T05:49:00Z</time>
      </trkpt>
      <trkpt lat="45.14481" lon="5.90487">
        <ele>1234.6</ele>
        <time>2020-08-11T05:49:01Z</time>
      </trkpt>
      <trkpt lat="45.14481" lon="5.9049">
        <ele>1234.8</ele>
        <time>2020-08-11T05:49:02Z</time>
      </trkpt>
      <trkpt lat="45.1448" lon="5.90492">
        <ele>1235</ele>
        <time>2020-08-11T05:49:03Z</time>
      </trkpt>
      <trkpt lat="45.1448" lon="5.90495">
        <ele>1235</ele>
        <time>2020-08-11T05:49:04Z</time>
      </trkpt>
      <trkpt lat="45.1448" lon="5.90496">
        <ele>1235.4</ele>
        <time>2020-08-11T05:49:05Z</time>
      </trkpt>
      <trkpt lat="45.14479" lon="5.90497">
        <ele>1235.6</ele>
        <time>2020-08-11T05:49:06Z</time>
      </trkpt>
      <trkpt lat="45.14478" lon="5.90498">
        <ele>1235.8</ele>
        <time>2020-08-11T05:49:07Z</time>
      </trkpt>
      <trkpt lat="45.14478" lon="5.905">
        <ele>1236</ele>
        <time>2020-08-11T05:49:08Z</time>
      </trkpt>
      <trkpt lat="45.14477" lon="5.90501">
        <ele>1236.2</ele>
        <time>2020-08-11T05:49:09Z</time>
      </trkpt>
      <trkpt lat="45.14477" lon="5.90502">
        <ele>1236.4</ele>
        <time>2020-08-11T05:49:10Z</time>
      </trkpt>
      <trkpt lat="45.14476" lon="5.90503">
        <ele>1236.6</ele>
        <time>2020-08-11T05:49:11Z</time>
      </trkpt>
      <trkpt lat="45.14476" lon="5.90504">
        <ele>1236.8</ele>
        <time>2020-08-11T05:49:12Z</time>
      </trkpt>
      <trkpt lat="45.14475" lon="5.90506">
        <ele>1237</ele>
        <time>2020-08-11T05:49:13Z</time>
      </trkpt>
      <trkpt lat="45.14475" lon="5.90507">
        <ele>1237.2</ele>
        <time>2020-08-11T05:49:14Z</time>
      </trkpt>
      <trkpt lat="45.14474" lon="5.90508">
        <ele>1237.4</ele>
        <time>2020-08-11T05:49:15Z</time>
      </trkpt>
      <trkpt lat="45.14474" lon="5.90509">
        <ele>1237.6</ele>
        <time>2020-08-11T05:49:16Z</time>
      </trkpt>
      <trkpt lat="45.14474" lon="5.9051">
        <ele>1237.6</ele>
        <time>2020-08-11T05:49:17Z</time>
      </trkpt>
      <trkpt lat="45.14473" lon="5.90512">
        <ele>1237.8</ele>
        <time>2020-08-11T05:49:18Z</time>
      </trkpt>
      <trkpt lat="45.14473" lon="5.90513">
        <ele>1238</ele>
        <time>2020-08-11T05:49:19Z</time>
      </trkpt>
      <trkpt lat="45.14473" lon="5.90514">
        <ele>1238.2</ele>
        <time>2020-08-11T05:49:20Z</time>
      </trkpt>
      <trkpt lat="45.14473" lon="5.90515">
        <ele>1238.4</ele>
        <time>2020-08-11T05:49:21Z</time>
      </trkpt>
      <trkpt lat="45.14472" lon="5.90517">
        <ele>1238.8</ele>
        <time>2020-08-11T05:49:22Z</time>
      </trkpt>
      <trkpt lat="45.14472" lon="5.90518">
        <ele>1239.4</ele>
        <time>2020-08-11T05:49:23Z</time>
      </trkpt>
      <trkpt lat="45.14472" lon="5.90519">
        <ele>1240</ele>
        <time>2020-08-11T05:49:24Z</time>
      </trkpt>
      <trkpt lat="45.1447" lon="5.90521">
        <ele>1240.6</ele>
        <time>2020-08-11T05:49:25Z</time>
      </trkpt>
      <trkpt lat="45.14467" lon="5.90522">
        <ele>1240.6</ele>
        <time>2020-08-11T05:49:26Z</time>
      </trkpt>
      <trkpt lat="45.14465" lon="5.90523">
        <ele>1240.6</ele>
        <time>2020-08-11T05:49:27Z</time>
      </trkpt>
      <trkpt lat="45.14463" lon="5.90525">
        <ele>1240.8</ele>
        <time>2020-08-11T05:49:28Z</time>
      </trkpt>
      <trkpt lat="45.14461" lon="5.90526">
        <ele>1241</ele>
        <time>2020-08-11T05:49:29Z</time>
      </trkpt>
      <trkpt lat="45.14459" lon="5.90528">
        <ele>1241</ele>
        <time>2020-08-11T05:49:30Z</time>
      </trkpt>
      <trkpt lat="45.14457" lon="5.90529">
        <ele>1241.2</ele>
        <time>2020-08-11T05:49:31Z</time>
      </trkpt>
      <trkpt lat="45.14451" lon="5.90533">
        <ele>1241.4</ele>
        <time>2020-08-11T05:49:32Z</time>
      </trkpt>
      <trkpt lat="45.14452" lon="5.90535">
        <ele>1241.6</ele>
        <time>2020-08-11T05:49:33Z</time>
      </trkpt>
      <trkpt lat="45.14452" lon="5.90538">
        <ele>1241.6</ele>
        <time>2020-08-11T05:49:34Z</time>
      </trkpt>
      <trkpt lat="45.14452" lon="5.90544">
        <ele>1241.6</ele>
        <time>2020-08-11T05:49:35Z</time>
      </trkpt>
      <trkpt lat="45.14452" lon="5.90549">
        <ele>1241.8</ele>
        <time>2020-08-11T05:49:36Z</time>
      </trkpt>
      <trkpt lat="45.14452" lon="5.90551">
        <ele>1242</ele>
        <time>2020-08-11T05:49:37Z</time>
      </trkpt>
      <trkpt lat="45.14452" lon="5.90554">
        <ele>1240.8</ele>
        <time>2020-08-11T05:49:38Z</time>
      </trkpt>
      <trkpt lat="45.14451" lon="5.90556">
        <ele>1241.2</ele>
        <time>2020-08-11T05:49:39Z</time>
      </trkpt>
      <trkpt lat="45.14451" lon="5.90558">
        <ele>1241.2</ele>
        <time>2020-08-11T05:49:40Z</time>
      </trkpt>
      <trkpt lat="45.14451" lon="5.9056">
        <ele>1241.4</ele>
        <time>2020-08-11T05:49:41Z</time>
      </trkpt>
      <trkpt lat="45.14451" lon="5.90563">
        <ele>1241.4</ele>
        <time>2020-08-11T05:49:42Z</time>
      </trkpt>
      <trkpt lat="45.14449" lon="5.90564">
        <ele>1241.6</ele>
        <time>2020-08-11T05:49:43Z</time>
      </trkpt>
      <trkpt lat="45.14447" lon="5.90565">
        <ele>1241.6</ele>
        <time>2020-08-11T05:49:44Z</time>
      </trkpt>
      <trkpt lat="45.14445" lon="5.90566">
        <ele>1241.8</ele>
        <time>2020-08-11T05:49:45Z</time>
      </trkpt>
      <trkpt lat="45.14442" lon="5.90567">
        <ele>1242</ele>
        <time>2020-08-11T05:49:46Z</time>
      </trkpt>
      <trkpt lat="45.1444" lon="5.90568">
        <ele>1242.2</ele>
        <time>2020-08-11T05:49:47Z</time>
      </trkpt>
      <trkpt lat="45.14438" lon="5.90569">
        <ele>1242.4</ele>
        <time>2020-08-11T05:49:48Z</time>
      </trkpt>
      <trkpt lat="45.14439" lon="5.9057">
        <ele>1242.6</ele>
        <time>2020-08-11T05:49:49Z</time>
      </trkpt>
      <trkpt lat="45.14439" lon="5.90571">
        <ele>1242.8</ele>
        <time>2020-08-11T05:49:50Z</time>
      </trkpt>
      <trkpt lat="45.14439" lon="5.90573">
        <ele>1243</ele>
        <time>2020-08-11T05:49:51Z</time>
      </trkpt>
      <trkpt lat="45.1444" lon="5.90574">
        <ele>1243.2</ele>
        <time>2020-08-11T05:49:52Z</time>
      </trkpt>
      <trkpt lat="45.1444" lon="5.90575">
        <ele>1243.4</ele>
        <time>2020-08-11T05:49:53Z</time>
      </trkpt>
      <trkpt lat="45.1444" lon="5.90577">
        <ele>1243.8</ele>
        <time>2020-08-11T05:49:54Z</time>
      </trkpt>
      <trkpt lat="45.14441" lon="5.90578">
        <ele>1244.2</ele>
        <time>2020-08-11T05:49:55Z</time>
      </trkpt>
      <trkpt lat="45.14441" lon="5.90579">
        <ele>1244.2</ele>
        <time>2020-08-11T05:49:56Z</time>
      </trkpt>
      <trkpt lat="45.14441" lon="5.90581">
        <ele>1244.4</ele>
        <time>2020-08-11T05:49:57Z</time>
      </trkpt>
      <trkpt lat="45.14442" lon="5.90582">
        <ele>1244.8</ele>
        <time>2020-08-11T05:49:58Z</time>
      </trkpt>
      <trkpt lat="45.14442" lon="5.90583">
        <ele>1245</ele>
        <time>2020-08-11T05:49:59Z</time>
      </trkpt>
      <trkpt lat="45.14442" lon="5.90586">
        <ele>1245.4</ele>
        <time>2020-08-11T05:50:01Z</time>
      </trkpt>
      <trkpt lat="45.14443" lon="5.90588">
        <ele>1245.6</ele>
        <time>2020-08-11T05:50:02Z</time>
      </trkpt>
      <trkpt lat="45.14443" lon="5.90591">
        <ele>1246</ele>
        <time>2020-08-11T05:50:03Z</time>
      </trkpt>
      <trkpt lat="45.14443" lon="5.90594">
        <ele>1246.4</ele>
        <time>2020-08-11T05:50:04Z</time>
      </trkpt>
      <trkpt lat="45.14444" lon="5.90596">
        <ele>1246.4</ele>
        <time>2020-08-11T05:50:05Z</time>
      </trkpt>
      <trkpt lat="45.14443" lon="5.90598">
        <ele>1246.6</ele>
        <time>2020-08-11T05:50:06Z</time>
      </trkpt>
      <trkpt lat="45.14442" lon="5.90599">
        <ele>1247</ele>
        <time>2020-08-11T05:50:07Z</time>
      </trkpt>
      <trkpt lat="45.1444" lon="5.90601">
        <ele>1247.4</ele>
        <time>2020-08-11T05:50:08Z</time>
      </trkpt>
      <trkpt lat="45.14439" lon="5.90603">
        <ele>1247.6</ele>
        <time>2020-08-11T05:50:09Z</time>
      </trkpt>
      <trkpt lat="45.14438" lon="5.90604">
        <ele>1247.6</ele>
        <time>2020-08-11T05:50:10Z</time>
      </trkpt>
      <trkpt lat="45.14437" lon="5.90606">
        <ele>1248</ele>
        <time>2020-08-11T05:50:11Z</time>
      </trkpt>
      <trkpt lat="45.14437" lon="5.90609">
        <ele>1248.2</ele>
        <time>2020-08-11T05:50:12Z</time>
      </trkpt>
      <trkpt lat="45.14436" lon="5.90613">
        <ele>1248.6</ele>
        <time>2020-08-11T05:50:13Z</time>
      </trkpt>
      <trkpt lat="45.14436" lon="5.90616">
        <ele>1249</ele>
        <time>2020-08-11T05:50:14Z</time>
      </trkpt>
      <trkpt lat="45.14436" lon="5.90619">
        <ele>1249.2</ele>
        <time>2020-08-11T05:50:15Z</time>
      </trkpt>
      <trkpt lat="45.14436" lon="5.9062">
        <ele>1249.2</ele>
        <time>2020-08-11T05:50:16Z</time>
      </trkpt>
      <trkpt lat="45.14436" lon="5.90622">
        <ele>1249.4</ele>
        <time>2020-08-11T05:50:17Z</time>
      </trkpt>
      <trkpt lat="45.14436" lon="5.90623">
        <ele>1249.4</ele>
        <time>2020-08-11T05:50:18Z</time>
      </trkpt>
      <trkpt lat="45.14437" lon="5.90624">
        <ele>1249.8</ele>
        <time>2020-08-11T05:50:19Z</time>
      </trkpt>
      <trkpt lat="45.14437" lon="5.90626">
        <ele>1250</ele>
        <time>2020-08-11T05:50:20Z</time>
      </trkpt>
      <trkpt lat="45.14437" lon="5.90627">
        <ele>1250.2</ele>
        <time>2020-08-11T05:50:21Z</time>
      </trkpt>
      <trkpt lat="45.14437" lon="5.90629">
        <ele>1250.6</ele>
        <time>2020-08-11T05:50:22Z</time>
      </trkpt>
      <trkpt lat="45.14437" lon="5.9063">
        <ele>1251</ele>
        <time>2020-08-11T05:50:23Z</time>
      </trkpt>
      <trkpt lat="45.14438" lon="5.90631">
        <ele>1251</ele>
        <time>2020-08-11T05:50:24Z</time>
      </trkpt>
      <trkpt lat="45.14438" lon="5.90633">
        <ele>1251.6</ele>
        <time>2020-08-11T05:50:26Z</time>
      </trkpt>
      <trkpt lat="45.14438" lon="5.90634">
        <ele>1252</ele>
        <time>2020-08-11T05:50:27Z</time>
      </trkpt>
      <trkpt lat="45.14436" lon="5.90635">
        <ele>1252.2</ele>
        <time>2020-08-11T05:50:28Z</time>
      </trkpt>
      <trkpt lat="45.14435" lon="5.90636">
        <ele>1252.2</ele>
        <time>2020-08-11T05:50:29Z</time>
      </trkpt>
      <trkpt lat="45.14433" lon="5.90637">
        <ele>1252.4</ele>
        <time>2020-08-11T05:50:30Z</time>
      </trkpt>
      <trkpt lat="45.14431" lon="5.90638">
        <ele>1252.4</ele>
        <time>2020-08-11T05:50:31Z</time>
      </trkpt>
      <trkpt lat="45.14429" lon="5.90638">
        <ele>1252.8</ele>
        <time>2020-08-11T05:50:32Z</time>
      </trkpt>
      <trkpt lat="45.14428" lon="5.90639">
        <ele>1253.2</ele>
        <time>2020-08-11T05:50:33Z</time>
      </trkpt>
      <trkpt lat="45.14426" lon="5.9064">
        <ele>1253.4</ele>
        <time>2020-08-11T05:50:34Z</time>
      </trkpt>
      <trkpt lat="45.14424" lon="5.90641">
        <ele>1253.4</ele>
        <time>2020-08-11T05:50:35Z</time>
      </trkpt>
      <trkpt lat="45.14423" lon="5.90642">
        <ele>1253.6</ele>
        <time>2020-08-11T05:50:36Z</time>
      </trkpt>
      <trkpt lat="45.14421" lon="5.90643">
        <ele>1254</ele>
        <time>2020-08-11T05:50:37Z</time>
      </trkpt>
      <trkpt lat="45.14419" lon="5.90644">
        <ele>1254.2</ele>
        <time>2020-08-11T05:50:38Z</time>
      </trkpt>
      <trkpt lat="45.14419" lon="5.90645">
        <ele>1254.6</ele>
        <time>2020-08-11T05:50:39Z</time>
      </trkpt>
      <trkpt lat="45.14419" lon="5.90647">
        <ele>1254.8</ele>
        <time>2020-08-11T05:50:40Z</time>
      </trkpt>
      <trkpt lat="45.14419" lon="5.90648">
        <ele>1255</ele>
        <time>2020-08-11T05:50:41Z</time>
      </trkpt>
      <trkpt lat="45.14419" lon="5.90649">
        <ele>1255</ele>
        <time>2020-08-11T05:50:42Z</time>
      </trkpt>
      <trkpt lat="45.14419" lon="5.90651">
        <ele>1255.2</ele>
        <time>2020-08-11T05:50:43Z</time>
      </trkpt>
      <trkpt lat="45.14419" lon="5.90652">
        <ele>1255.6</ele>
        <time>2020-08-11T05:50:44Z</time>
      </trkpt>
      <trkpt lat="45.14419" lon="5.90654">
        <ele>1255.8</ele>
        <time>2020-08-11T05:50:45Z</time>
      </trkpt>
      <trkpt lat="45.14419" lon="5.90655">
        <ele>1256.2</ele>
        <time>2020-08-11T05:50:46Z</time>
      </trkpt>
      <trkpt lat="45.14419" lon="5.90657">
        <ele>1256.6</ele>
        <time>2020-08-11T05:50:47Z</time>
      </trkpt>
      <trkpt lat="45.1442" lon="5.90659">
        <ele>1256.8</ele>
        <time>2020-08-11T05:50:48Z</time>
      </trkpt>
      <trkpt lat="45.14422" lon="5.9066">
        <ele>1257</ele>
        <time>2020-08-11T05:50:49Z</time>
      </trkpt>
      <trkpt lat="45.14424" lon="5.90662">
        <ele>1257.2</ele>
        <time>2020-08-11T05:50:50Z</time>
      </trkpt>
      <trkpt lat="45.14425" lon="5.90664">
        <ele>1257.6</ele>
        <time>2020-08-11T05:50:51Z</time>
      </trkpt>
      <trkpt lat="45.14427" lon="5.90665">
        <ele>1257.6</ele>
        <time>2020-08-11T05:50:52Z</time>
      </trkpt>
      <trkpt lat="45.14427" lon="5.90667">
        <ele>1257.8</ele>
        <time>2020-08-11T05:50:53Z</time>
      </trkpt>
      <trkpt lat="45.14428" lon="5.90668">
        <ele>1258</ele>
        <time>2020-08-11T05:50:54Z</time>
      </trkpt>
      <trkpt lat="45.14428" lon="5.90669">
        <ele>1258.2</ele>
        <time>2020-08-11T05:50:55Z</time>
      </trkpt>
      <trkpt lat="45.14428" lon="5.9067">
        <ele>1258.4</ele>
        <time>2020-08-11T05:50:56Z</time>
      </trkpt>
      <trkpt lat="45.14429" lon="5.90671">
        <ele>1258.8</ele>
        <time>2020-08-11T05:50:57Z</time>
      </trkpt>
      <trkpt lat="45.14429" lon="5.90672">
        <ele>1259</ele>
        <time>2020-08-11T05:50:58Z</time>
      </trkpt>
      <trkpt lat="45.1443" lon="5.90674">
        <ele>1259</ele>
        <time>2020-08-11T05:50:59Z</time>
      </trkpt>
      <trkpt lat="45.1443" lon="5.90675">
        <ele>1259.2</ele>
        <time>2020-08-11T05:51:00Z</time>
      </trkpt>
      <trkpt lat="45.14431" lon="5.90676">
        <ele>1259.4</ele>
        <time>2020-08-11T05:51:01Z</time>
      </trkpt>
      <trkpt lat="45.14431" lon="5.90677">
        <ele>1259.8</ele>
        <time>2020-08-11T05:51:02Z</time>
      </trkpt>
      <trkpt lat="45.14432" lon="5.90678">
        <ele>1259.8</ele>
        <time>2020-08-11T05:51:03Z</time>
      </trkpt>
      <trkpt lat="45.14432" lon="5.9068">
        <ele>1260</ele>
        <time>2020-08-11T05:51:04Z</time>
      </trkpt>
      <trkpt lat="45.14432" lon="5.90681">
        <ele>1260.2</ele>
        <time>2020-08-11T05:51:05Z</time>
      </trkpt>
      <trkpt lat="45.14433" lon="5.90682">
        <ele>1260.2</ele>
        <time>2020-08-11T05:51:06Z</time>
      </trkpt>
      <trkpt lat="45.14433" lon="5.90683">
        <ele>1260.6</ele>
        <time>2020-08-11T05:51:07Z</time>
      </trkpt>
      <trkpt lat="45.14433" lon="5.90685">
        <ele>1261</ele>
        <time>2020-08-11T05:51:08Z</time>
      </trkpt>
      <trkpt lat="45.14433" lon="5.90686">
        <ele>1261.4</ele>
        <time>2020-08-11T05:51:09Z</time>
      </trkpt>
      <trkpt lat="45.14433" lon="5.90687">
        <ele>1261.6</ele>
        <time>2020-08-11T05:51:10Z</time>
      </trkpt>
      <trkpt lat="45.14434" lon="5.90688">
        <ele>1262</ele>
        <time>2020-08-11T05:51:11Z</time>
      </trkpt>
      <trkpt lat="45.14434" lon="5.9069">
        <ele>1262</ele>
        <time>2020-08-11T05:51:12Z</time>
      </trkpt>
      <trkpt lat="45.14434" lon="5.90691">
        <ele>1262.4</ele>
        <time>2020-08-11T05:51:13Z</time>
      </trkpt>
      <trkpt lat="45.14434" lon="5.90692">
        <ele>1262.6</ele>
        <time>2020-08-11T05:51:14Z</time>
      </trkpt>
      <trkpt lat="45.14434" lon="5.90693">
        <ele>1263</ele>
        <time>2020-08-11T05:51:15Z</time>
      </trkpt>
      <trkpt lat="45.14435" lon="5.90695">
        <ele>1263.2</ele>
        <time>2020-08-11T05:51:16Z</time>
      </trkpt>
      <trkpt lat="45.14436" lon="5.90696">
        <ele>1263.4</ele>
        <time>2020-08-11T05:51:17Z</time>
      </trkpt>
      <trkpt lat="45.14436" lon="5.90698">
        <ele>1263.8</ele>
        <time>2020-08-11T05:51:18Z</time>
      </trkpt>
      <trkpt lat="45.14437" lon="5.90699">
        <ele>1264</ele>
        <time>2020-08-11T05:51:19Z</time>
      </trkpt>
      <trkpt lat="45.14438" lon="5.907">
        <ele>1264.4</ele>
        <time>2020-08-11T05:51:20Z</time>
      </trkpt>
      <trkpt lat="45.14438" lon="5.90702">
        <ele>1264.6</ele>
        <time>2020-08-11T05:51:21Z</time>
      </trkpt>
      <trkpt lat="45.14439" lon="5.90703">
        <ele>1265</ele>
        <time>2020-08-11T05:51:22Z</time>
      </trkpt>
      <trkpt lat="45.1444" lon="5.90704">
        <ele>1265.2</ele>
        <time>2020-08-11T05:51:23Z</time>
      </trkpt>
      <trkpt lat="45.14439" lon="5.90705">
        <ele>1265.4</ele>
        <time>2020-08-11T05:51:24Z</time>
      </trkpt>
      <trkpt lat="45.14439" lon="5.90707">
        <ele>1265.6</ele>
        <time>2020-08-11T05:51:25Z</time>
      </trkpt>
      <trkpt lat="45.14439" lon="5.90708">
        <ele>1265.8</ele>
        <time>2020-08-11T05:51:26Z</time>
      </trkpt>
      <trkpt lat="45.14439" lon="5.90709">
        <ele>1266.6</ele>
        <time>2020-08-11T05:51:27Z</time>
      </trkpt>
      <trkpt lat="45.14439" lon="5.9071">
        <ele>1266.6</ele>
        <time>2020-08-11T05:51:28Z</time>
      </trkpt>
      <trkpt lat="45.14439" lon="5.90711">
        <ele>1266.8</ele>
        <time>2020-08-11T05:51:29Z</time>
      </trkpt>
      <trkpt lat="45.14439" lon="5.90712">
        <ele>1267</ele>
        <time>2020-08-11T05:51:30Z</time>
      </trkpt>
      <trkpt lat="45.14439" lon="5.90713">
        <ele>1267.2</ele>
        <time>2020-08-11T05:51:31Z</time>
      </trkpt>
      <trkpt lat="45.14438" lon="5.90714">
        <ele>1267.4</ele>
        <time>2020-08-11T05:51:32Z</time>
      </trkpt>
      <trkpt lat="45.14438" lon="5.90715">
        <ele>1267.6</ele>
        <time>2020-08-11T05:51:33Z</time>
      </trkpt>
      <trkpt lat="45.14438" lon="5.90716">
        <ele>1267.8</ele>
        <time>2020-08-11T05:51:34Z</time>
      </trkpt>
      <trkpt lat="45.14438" lon="5.90718">
        <ele>1268</ele>
        <time>2020-08-11T05:51:35Z</time>
      </trkpt>
      <trkpt lat="45.14438" lon="5.90719">
        <ele>1268.2</ele>
        <time>2020-08-11T05:51:36Z</time>
      </trkpt>
      <trkpt lat="45.14438" lon="5.90721">
        <ele>1268.4</ele>
        <time>2020-08-11T05:51:37Z</time>
      </trkpt>
      <trkpt lat="45.14439" lon="5.90723">
        <ele>1268.4</ele>
        <time>2020-08-11T05:51:38Z</time>
      </trkpt>
      <trkpt lat="45.14439" lon="5.90724">
        <ele>1268.6</ele>
        <time>2020-08-11T05:51:39Z</time>
      </trkpt>
      <trkpt lat="45.14439" lon="5.90726">
        <ele>1268.8</ele>
        <time>2020-08-11T05:51:40Z</time>
      </trkpt>
      <trkpt lat="45.14439" lon="5.90728">
        <ele>1269</ele>
        <time>2020-08-11T05:51:41Z</time>
      </trkpt>
      <trkpt lat="45.14439" lon="5.90729">
        <ele>1269</ele>
        <time>2020-08-11T05:51:42Z</time>
      </trkpt>
      <trkpt lat="45.1444" lon="5.90731">
        <ele>1269.2</ele>
        <time>2020-08-11T05:51:43Z</time>
      </trkpt>
      <trkpt lat="45.1444" lon="5.90732">
        <ele>1269.4</ele>
        <time>2020-08-11T05:51:44Z</time>
      </trkpt>
      <trkpt lat="45.1444" lon="5.90733">
        <ele>1270</ele>
        <time>2020-08-11T05:51:45Z</time>
      </trkpt>
      <trkpt lat="45.1444" lon="5.90734">
        <ele>1270.2</ele>
        <time>2020-08-11T05:51:46Z</time>
      </trkpt>
      <trkpt lat="45.1444" lon="5.90735">
        <ele>1270.4</ele>
        <time>2020-08-11T05:51:47Z</time>
      </trkpt>
      <trkpt lat="45.1444" lon="5.90736">
        <ele>1270.6</ele>
        <time>2020-08-11T05:51:48Z</time>
      </trkpt>
      <trkpt lat="45.1444" lon="5.90737">
        <ele>1271.2</ele>
        <time>2020-08-11T05:51:49Z</time>
      </trkpt>
      <trkpt lat="45.1444" lon="5.90738">
        <ele>1271.4</ele>
        <time>2020-08-11T05:51:50Z</time>
      </trkpt>
      <trkpt lat="45.1444" lon="5.90739">
        <ele>1271.4</ele>
        <time>2020-08-11T05:51:51Z</time>
      </trkpt>
      <trkpt lat="45.14441" lon="5.9074">
        <ele>1271.6</ele>
        <time>2020-08-11T05:51:52Z</time>
      </trkpt>
      <trkpt lat="45.14441" lon="5.90741">
        <ele>1271.8</ele>
        <time>2020-08-11T05:51:53Z</time>
      </trkpt>
      <trkpt lat="45.14441" lon="5.90742">
        <ele>1272</ele>
        <time>2020-08-11T05:51:54Z</time>
      </trkpt>
      <trkpt lat="45.14441" lon="5.90743">
        <ele>1272.2</ele>
        <time>2020-08-11T05:51:55Z</time>
      </trkpt>
      <trkpt lat="45.14441" lon="5.90744">
        <ele>1272.6</ele>
        <time>2020-08-11T05:51:56Z</time>
      </trkpt>
      <trkpt lat="45.14441" lon="5.90745">
        <ele>1272.8</ele>
        <time>2020-08-11T05:51:57Z</time>
      </trkpt>
      <trkpt lat="45.14443" lon="5.90742">
        <ele>1273</ele>
        <time>2020-08-11T05:51:58Z</time>
      </trkpt>
      <trkpt lat="45.14445" lon="5.9074">
        <ele>1273.4</ele>
        <time>2020-08-11T05:51:59Z</time>
      </trkpt>
      <trkpt lat="45.14447" lon="5.90738">
        <ele>1273.4</ele>
        <time>2020-08-11T05:52:00Z</time>
      </trkpt>
      <trkpt lat="45.14448" lon="5.90736">
        <ele>1273.8</ele>
        <time>2020-08-11T05:52:01Z</time>
      </trkpt>
      <trkpt lat="45.1445" lon="5.90734">
        <ele>1274</ele>
        <time>2020-08-11T05:52:02Z</time>
      </trkpt>
      <trkpt lat="45.1445" lon="5.90735">
        <ele>1274.4</ele>
        <time>2020-08-11T05:52:03Z</time>
      </trkpt>
      <trkpt lat="45.1445" lon="5.90737">
        <ele>1274.8</ele>
        <time>2020-08-11T05:52:04Z</time>
      </trkpt>
      <trkpt lat="45.1445" lon="5.90738">
        <ele>1275</ele>
        <time>2020-08-11T05:52:05Z</time>
      </trkpt>
      <trkpt lat="45.14451" lon="5.9074">
        <ele>1275</ele>
        <time>2020-08-11T05:52:06Z</time>
      </trkpt>
      <trkpt lat="45.14451" lon="5.90741">
        <ele>1275.2</ele>
        <time>2020-08-11T05:52:07Z</time>
      </trkpt>
      <trkpt lat="45.14451" lon="5.90743">
        <ele>1275.4</ele>
        <time>2020-08-11T05:52:08Z</time>
      </trkpt>
      <trkpt lat="45.14451" lon="5.90744">
        <ele>1275.8</ele>
        <time>2020-08-11T05:52:09Z</time>
      </trkpt>
      <trkpt lat="45.14451" lon="5.90746">
        <ele>1276</ele>
        <time>2020-08-11T05:52:10Z</time>
      </trkpt>
      <trkpt lat="45.14451" lon="5.90747">
        <ele>1276.2</ele>
        <time>2020-08-11T05:52:11Z</time>
      </trkpt>
      <trkpt lat="45.14449" lon="5.90748">
        <ele>1276.4</ele>
        <time>2020-08-11T05:52:12Z</time>
      </trkpt>
      <trkpt lat="45.14447" lon="5.90749">
        <ele>1276.6</ele>
        <time>2020-08-11T05:52:13Z</time>
      </trkpt>
      <trkpt lat="45.14445" lon="5.9075">
        <ele>1276.8</ele>
        <time>2020-08-11T05:52:14Z</time>
      </trkpt>
      <trkpt lat="45.14443" lon="5.9075">
        <ele>1277.2</ele>
        <time>2020-08-11T05:52:15Z</time>
      </trkpt>
      <trkpt lat="45.14441" lon="5.90751">
        <ele>1277.4</ele>
        <time>2020-08-11T05:52:16Z</time>
      </trkpt>
      <trkpt lat="45.14442" lon="5.90752">
        <ele>1277.8</ele>
        <time>2020-08-11T05:52:17Z</time>
      </trkpt>
      <trkpt lat="45.14443" lon="5.90753">
        <ele>1278</ele>
        <time>2020-08-11T05:52:18Z</time>
      </trkpt>
      <trkpt lat="45.14443" lon="5.90754">
        <ele>1278.4</ele>
        <time>2020-08-11T05:52:19Z</time>
      </trkpt>
      <trkpt lat="45.14444" lon="5.90755">
        <ele>1278.6</ele>
        <time>2020-08-11T05:52:20Z</time>
      </trkpt>
      <trkpt lat="45.14445" lon="5.90756">
        <ele>1279</ele>
        <time>2020-08-11T05:52:21Z</time>
      </trkpt>
      <trkpt lat="45.14446" lon="5.90757">
        <ele>1279.2</ele>
        <time>2020-08-11T05:52:22Z</time>
      </trkpt>
      <trkpt lat="45.14447" lon="5.90758">
        <ele>1279.4</ele>
        <time>2020-08-11T05:52:23Z</time>
      </trkpt>
      <trkpt lat="45.14447" lon="5.90759">
        <ele>1279.8</ele>
        <time>2020-08-11T05:52:24Z</time>
      </trkpt>
      <trkpt lat="45.14448" lon="5.9076">
        <ele>1280.2</ele>
        <time>2020-08-11T05:52:25Z</time>
      </trkpt>
      <trkpt lat="45.14448" lon="5.90759">
        <ele>1280.2</ele>
        <time>2020-08-11T05:52:26Z</time>
      </trkpt>
      <trkpt lat="45.14449" lon="5.90758">
        <ele>1280.4</ele>
        <time>2020-08-11T05:52:27Z</time>
      </trkpt>
      <trkpt lat="45.14449" lon="5.90757">
        <ele>1280.6</ele>
        <time>2020-08-11T05:52:28Z</time>
      </trkpt>
      <trkpt lat="45.14449" lon="5.90756">
        <ele>1281</ele>
        <time>2020-08-11T05:52:29Z</time>
      </trkpt>
      <trkpt lat="45.14449" lon="5.90755">
        <ele>1281.2</ele>
        <time>2020-08-11T05:52:30Z</time>
      </trkpt>
      <trkpt lat="45.14449" lon="5.90754">
        <ele>1281.4</ele>
        <time>2020-08-11T05:52:31Z</time>
      </trkpt>
      <trkpt lat="45.14449" lon="5.90753">
        <ele>1281.6</ele>
        <time>2020-08-11T05:52:32Z</time>
      </trkpt>
      <trkpt lat="45.14449" lon="5.90752">
        <ele>1281.8</ele>
        <time>2020-08-11T05:52:33Z</time>
      </trkpt>
      <trkpt lat="45.1445" lon="5.90751">
        <ele>1282.2</ele>
        <time>2020-08-11T05:52:34Z</time>
      </trkpt>
      <trkpt lat="45.1445" lon="5.9075">
        <ele>1282.6</ele>
        <time>2020-08-11T05:52:35Z</time>
      </trkpt>
      <trkpt lat="45.1445" lon="5.90749">
        <ele>1282.6</ele>
        <time>2020-08-11T05:52:36Z</time>
      </trkpt>
      <trkpt lat="45.1445" lon="5.90748">
        <ele>1283</ele>
        <time>2020-08-11T05:52:37Z</time>
      </trkpt>
      <trkpt lat="45.1445" lon="5.90747">
        <ele>1283.4</ele>
        <time>2020-08-11T05:52:38Z</time>
      </trkpt>
      <trkpt lat="45.1445" lon="5.90746">
        <ele>1283.6</ele>
        <time>2020-08-11T05:52:39Z</time>
      </trkpt>
      <trkpt lat="45.14449" lon="5.90745">
        <ele>1284</ele>
        <time>2020-08-11T05:52:40Z</time>
      </trkpt>
      <trkpt lat="45.14448" lon="5.90745">
        <ele>1284</ele>
        <time>2020-08-11T05:52:41Z</time>
      </trkpt>
      <trkpt lat="45.14447" lon="5.90744">
        <ele>1284.2</ele>
        <time>2020-08-11T05:52:42Z</time>
      </trkpt>
      <trkpt lat="45.14446" lon="5.90744">
        <ele>1284.6</ele>
        <time>2020-08-11T05:52:43Z</time>
      </trkpt>
      <trkpt lat="45.14445" lon="5.90743">
        <ele>1284.6</ele>
        <time>2020-08-11T05:52:44Z</time>
      </trkpt>
      <trkpt lat="45.14444" lon="5.90742">
        <ele>1284.8</ele>
        <time>2020-08-11T05:52:45Z</time>
      </trkpt>
      <trkpt lat="45.14443" lon="5.90742">
        <ele>1285</ele>
        <time>2020-08-11T05:52:46Z</time>
      </trkpt>
      <trkpt lat="45.14442" lon="5.90741">
        <ele>1285.6</ele>
        <time>2020-08-11T05:52:47Z</time>
      </trkpt>
      <trkpt lat="45.14441" lon="5.90741">
        <ele>1285.8</ele>
        <time>2020-08-11T05:52:48Z</time>
      </trkpt>
      <trkpt lat="45.1444" lon="5.9074">
        <ele>1286</ele>
        <time>2020-08-11T05:52:49Z</time>
      </trkpt>
      <trkpt lat="45.14438" lon="5.9074">
        <ele>1286.2</ele>
        <time>2020-08-11T05:52:50Z</time>
      </trkpt>
      <trkpt lat="45.14436" lon="5.90741">
        <ele>1286.2</ele>
        <time>2020-08-11T05:52:51Z</time>
      </trkpt>
      <trkpt lat="45.14433" lon="5.90741">
        <ele>1286.6</ele>
        <time>2020-08-11T05:52:52Z</time>
      </trkpt>
      <trkpt lat="45.14431" lon="5.90741">
        <ele>1286.8</ele>
        <time>2020-08-11T05:52:53Z</time>
      </trkpt>
      <trkpt lat="45.1443" lon="5.9074">
        <ele>1287</ele>
        <time>2020-08-11T05:52:54Z</time>
      </trkpt>
      <trkpt lat="45.14429" lon="5.9074">
        <ele>1287.2</ele>
        <time>2020-08-11T05:52:55Z</time>
      </trkpt>
      <trkpt lat="45.14428" lon="5.90739">
        <ele>1287.4</ele>
        <time>2020-08-11T05:52:56Z</time>
      </trkpt>
      <trkpt lat="45.14428" lon="5.90739">
        <ele>1287.8</ele>
        <time>2020-08-11T05:52:57Z</time>
      </trkpt>
      <trkpt lat="45.14427" lon="5.90738">
        <ele>1288</ele>
        <time>2020-08-11T05:52:58Z</time>
      </trkpt>
      <trkpt lat="45.14426" lon="5.90738">
        <ele>1288.2</ele>
        <time>2020-08-11T05:52:59Z</time>
      </trkpt>
      <trkpt lat="45.14425" lon="5.90737">
        <ele>1288.4</ele>
        <time>2020-08-11T05:53:00Z</time>
      </trkpt>
      <trkpt lat="45.14424" lon="5.90737">
        <ele>1288.8</ele>
        <time>2020-08-11T05:53:01Z</time>
      </trkpt>
      <trkpt lat="45.14423" lon="5.90736">
        <ele>1289</ele>
        <time>2020-08-11T05:53:02Z</time>
      </trkpt>
      <trkpt lat="45.14422" lon="5.90736">
        <ele>1289.4</ele>
        <time>2020-08-11T05:53:03Z</time>
      </trkpt>
      <trkpt lat="45.1442" lon="5.90735">
        <ele>1289.6</ele>
        <time>2020-08-11T05:53:04Z</time>
      </trkpt>
      <trkpt lat="45.14418" lon="5.90735">
        <ele>1289.8</ele>
        <time>2020-08-11T05:53:05Z</time>
      </trkpt>
      <trkpt lat="45.14416" lon="5.90735">
        <ele>1290</ele>
        <time>2020-08-11T05:53:06Z</time>
      </trkpt>
      <trkpt lat="45.14414" lon="5.90735">
        <ele>1290.2</ele>
        <time>2020-08-11T05:53:07Z</time>
      </trkpt>
      <trkpt lat="45.14412" lon="5.90735">
        <ele>1290.4</ele>
        <time>2020-08-11T05:53:08Z</time>
      </trkpt>
      <trkpt lat="45.14412" lon="5.90735">
        <ele>1290.6</ele>
        <time>2020-08-11T05:53:09Z</time>
      </trkpt>
      <trkpt lat="45.14411" lon="5.90735">
        <ele>1290.6</ele>
        <time>2020-08-11T05:53:10Z</time>
      </trkpt>
      <trkpt lat="45.1441" lon="5.90734">
        <ele>1290.6</ele>
        <time>2020-08-11T05:53:11Z</time>
      </trkpt>
      <trkpt lat="45.1441" lon="5.90734">
        <ele>1291</ele>
        <time>2020-08-11T05:53:12Z</time>
      </trkpt>
      <trkpt lat="45.14409" lon="5.90734">
        <ele>1291.4</ele>
        <time>2020-08-11T05:53:13Z</time>
      </trkpt>
      <trkpt lat="45.14409" lon="5.90734">
        <ele>1291.8</ele>
        <time>2020-08-11T05:53:14Z</time>
      </trkpt>
      <trkpt lat="45.14408" lon="5.90733">
        <ele>1292</ele>
        <time>2020-08-11T05:53:15Z</time>
      </trkpt>
      <trkpt lat="45.14407" lon="5.90733">
        <ele>1292</ele>
        <time>2020-08-11T05:53:16Z</time>
      </trkpt>
      <trkpt lat="45.14407" lon="5.90733">
        <ele>1292.2</ele>
        <time>2020-08-11T05:53:17Z</time>
      </trkpt>
      <trkpt lat="45.14406" lon="5.90733">
        <ele>1292.4</ele>
        <time>2020-08-11T05:53:18Z</time>
      </trkpt>
      <trkpt lat="45.14406" lon="5.90732">
        <ele>1292.8</ele>
        <time>2020-08-11T05:53:19Z</time>
      </trkpt>
      <trkpt lat="45.14405" lon="5.90732">
        <ele>1292.8</ele>
        <time>2020-08-11T05:53:20Z</time>
      </trkpt>
      <trkpt lat="45.14404" lon="5.90732">
        <ele>1293.2</ele>
        <time>2020-08-11T05:53:21Z</time>
      </trkpt>
      <trkpt lat="45.14404" lon="5.90732">
        <ele>1293.6</ele>
        <time>2020-08-11T05:53:22Z</time>
      </trkpt>
      <trkpt lat="45.14403" lon="5.90731">
        <ele>1293.8</ele>
        <time>2020-08-11T05:53:23Z</time>
      </trkpt>
      <trkpt lat="45.14402" lon="5.90731">
        <ele>1294</ele>
        <time>2020-08-11T05:53:24Z</time>
      </trkpt>
      <trkpt lat="45.14401" lon="5.90731">
        <ele>1294.2</ele>
        <time>2020-08-11T05:53:25Z</time>
      </trkpt>
      <trkpt lat="45.144" lon="5.90731">
        <ele>1294.8</ele>
        <time>2020-08-11T05:53:26Z</time>
      </trkpt>
      <trkpt lat="45.14399" lon="5.9073">
        <ele>1295</ele>
        <time>2020-08-11T05:53:27Z</time>
      </trkpt>
      <trkpt lat="45.14397" lon="5.9073">
        <ele>1295.2</ele>
        <time>2020-08-11T05:53:28Z</time>
      </trkpt>
      <trkpt lat="45.14396" lon="5.9073">
        <ele>1295.2</ele>
        <time>2020-08-11T05:53:29Z</time>
      </trkpt>
      <trkpt lat="45.14395" lon="5.9073">
        <ele>1295.4</ele>
        <time>2020-08-11T05:53:30Z</time>
      </trkpt>
      <trkpt lat="45.14394" lon="5.9073">
        <ele>1295.8</ele>
        <time>2020-08-11T05:53:31Z</time>
      </trkpt>
      <trkpt lat="45.14393" lon="5.90729">
        <ele>1296</ele>
        <time>2020-08-11T05:53:32Z</time>
      </trkpt>
      <trkpt lat="45.14392" lon="5.90727">
        <ele>1296</ele>
        <time>2020-08-11T05:53:33Z</time>
      </trkpt>
      <trkpt lat="45.14392" lon="5.90726">
        <ele>1296.2</ele>
        <time>2020-08-11T05:53:34Z</time>
      </trkpt>
      <trkpt lat="45.14391" lon="5.90725">
        <ele>1296.8</ele>
        <time>2020-08-11T05:53:35Z</time>
      </trkpt>
      <trkpt lat="45.1439" lon="5.90724">
        <ele>1297</ele>
        <time>2020-08-11T05:53:36Z</time>
      </trkpt>
      <trkpt lat="45.1439" lon="5.90723">
        <ele>1297.2</ele>
        <time>2020-08-11T05:53:37Z</time>
      </trkpt>
      <trkpt lat="45.14389" lon="5.90722">
        <ele>1297.4</ele>
        <time>2020-08-11T05:53:38Z</time>
      </trkpt>
      <trkpt lat="45.14388" lon="5.90721">
        <ele>1297.8</ele>
        <time>2020-08-11T05:53:39Z</time>
      </trkpt>
      <trkpt lat="45.14388" lon="5.9072">
        <ele>1298</ele>
        <time>2020-08-11T05:53:40Z</time>
      </trkpt>
      <trkpt lat="45.14387" lon="5.90719">
        <ele>1298</ele>
        <time>2020-08-11T05:53:41Z</time>
      </trkpt>
      <trkpt lat="45.14387" lon="5.9072">
        <ele>1298.4</ele>
        <time>2020-08-11T05:53:42Z</time>
      </trkpt>
      <trkpt lat="45.14387" lon="5.90721">
        <ele>1298.8</ele>
        <time>2020-08-11T05:53:43Z</time>
      </trkpt>
      <trkpt lat="45.14387" lon="5.90721">
        <ele>1299</ele>
        <time>2020-08-11T05:53:44Z</time>
      </trkpt>
      <trkpt lat="45.14387" lon="5.90722">
        <ele>1299.2</ele>
        <time>2020-08-11T05:53:45Z</time>
      </trkpt>
      <trkpt lat="45.14387" lon="5.90723">
        <ele>1299.6</ele>
        <time>2020-08-11T05:53:46Z</time>
      </trkpt>
      <trkpt lat="45.14387" lon="5.90724">
        <ele>1299.8</ele>
        <time>2020-08-11T05:53:47Z</time>
      </trkpt>
      <trkpt lat="45.14387" lon="5.90725">
        <ele>1300</ele>
        <time>2020-08-11T05:53:48Z</time>
      </trkpt>
      <trkpt lat="45.14387" lon="5.90725">
        <ele>1300.2</ele>
        <time>2020-08-11T05:53:49Z</time>
      </trkpt>
      <trkpt lat="45.14387" lon="5.90726">
        <ele>1300.6</ele>
        <time>2020-08-11T05:53:50Z</time>
      </trkpt>
      <trkpt lat="45.14386" lon="5.90727">
        <ele>1300.6</ele>
        <time>2020-08-11T05:53:51Z</time>
      </trkpt>
      <trkpt lat="45.14386" lon="5.90728">
        <ele>1300.8</ele>
        <time>2020-08-11T05:53:52Z</time>
      </trkpt>
      <trkpt lat="45.14386" lon="5.90728">
        <ele>1301</ele>
        <time>2020-08-11T05:53:53Z</time>
      </trkpt>
      <trkpt lat="45.14386" lon="5.90729">
        <ele>1301.2</ele>
        <time>2020-08-11T05:53:54Z</time>
      </trkpt>
      <trkpt lat="45.14386" lon="5.9073">
        <ele>1301.6</ele>
        <time>2020-08-11T05:53:55Z</time>
      </trkpt>
      <trkpt lat="45.14386" lon="5.90731">
        <ele>1301.6</ele>
        <time>2020-08-11T05:53:56Z</time>
      </trkpt>
      <trkpt lat="45.14386" lon="5.90731">
        <ele>1301.8</ele>
        <time>2020-08-11T05:53:57Z</time>
      </trkpt>
      <trkpt lat="45.14386" lon="5.90732">
        <ele>1302</ele>
        <time>2020-08-11T05:53:58Z</time>
      </trkpt>
      <trkpt lat="45.14386" lon="5.90733">
        <ele>1302.4</ele>
        <time>2020-08-11T05:53:59Z</time>
      </trkpt>
      <trkpt lat="45.14386" lon="5.90736">
        <ele>1302.6</ele>
        <time>2020-08-11T05:54:00Z</time>
      </trkpt>
      <trkpt lat="45.14386" lon="5.90738">
        <ele>1303</ele>
        <time>2020-08-11T05:54:01Z</time>
      </trkpt>
      <trkpt lat="45.14386" lon="5.90741">
        <ele>1303.2</ele>
        <time>2020-08-11T05:54:02Z</time>
      </trkpt>
      <trkpt lat="45.14386" lon="5.90743">
        <ele>1303.4</ele>
        <time>2020-08-11T05:54:03Z</time>
      </trkpt>
      <trkpt lat="45.14386" lon="5.90746">
        <ele>1303.4</ele>
        <time>2020-08-11T05:54:04Z</time>
      </trkpt>
      <trkpt lat="45.14386" lon="5.90748">
        <ele>1303.6</ele>
        <time>2020-08-11T05:54:05Z</time>
      </trkpt>
      <trkpt lat="45.14386" lon="5.90751">
        <ele>1303.8</ele>
        <time>2020-08-11T05:54:06Z</time>
      </trkpt>
      <trkpt lat="45.14386" lon="5.90753">
        <ele>1304</ele>
        <time>2020-08-11T05:54:07Z</time>
      </trkpt>
      <trkpt lat="45.14386" lon="5.90756">
        <ele>1304.2</ele>
        <time>2020-08-11T05:54:08Z</time>
      </trkpt>
      <trkpt lat="45.14387" lon="5.90758">
        <ele>1304.6</ele>
        <time>2020-08-11T05:54:09Z</time>
      </trkpt>
      <trkpt lat="45.14387" lon="5.9076">
        <ele>1304.8</ele>
        <time>2020-08-11T05:54:10Z</time>
      </trkpt>
      <trkpt lat="45.14387" lon="5.90762">
        <ele>1305</ele>
        <time>2020-08-11T05:54:11Z</time>
      </trkpt>
      <trkpt lat="45.14387" lon="5.90764">
        <ele>1305.2</ele>
        <time>2020-08-11T05:54:12Z</time>
      </trkpt>
      <trkpt lat="45.14387" lon="5.90767">
        <ele>1305.4</ele>
        <time>2020-08-11T05:54:13Z</time>
      </trkpt>
      <trkpt lat="45.14387" lon="5.90769">
        <ele>1305.6</ele>
        <time>2020-08-11T05:54:14Z</time>
      </trkpt>
      <trkpt lat="45.14387" lon="5.90771">
        <ele>1306</ele>
        <time>2020-08-11T05:54:15Z</time>
      </trkpt>
      <trkpt lat="45.14387" lon="5.90773">
        <ele>1306</ele>
        <time>2020-08-11T05:54:16Z</time>
      </trkpt>
      <trkpt lat="45.14387" lon="5.90775">
        <ele>1306.4</ele>
        <time>2020-08-11T05:54:17Z</time>
      </trkpt>
      <trkpt lat="45.14386" lon="5.90777">
        <ele>1306.4</ele>
        <time>2020-08-11T05:54:18Z</time>
      </trkpt>
      <trkpt lat="45.14386" lon="5.90778">
        <ele>1306.6</ele>
        <time>2020-08-11T05:54:19Z</time>
      </trkpt>
      <trkpt lat="45.14386" lon="5.9078">
        <ele>1307</ele>
        <time>2020-08-11T05:54:20Z</time>
      </trkpt>
      <trkpt lat="45.14386" lon="5.90781">
        <ele>1307</ele>
        <time>2020-08-11T05:54:21Z</time>
      </trkpt>
      <trkpt lat="45.14386" lon="5.90783">
        <ele>1307.4</ele>
        <time>2020-08-11T05:54:22Z</time>
      </trkpt>
      <trkpt lat="45.14386" lon="5.90784">
        <ele>1307.6</ele>
        <time>2020-08-11T05:54:23Z</time>
      </trkpt>
      <trkpt lat="45.14386" lon="5.90786">
        <ele>1307.8</ele>
        <time>2020-08-11T05:54:24Z</time>
      </trkpt>
      <trkpt lat="45.14385" lon="5.90787">
        <ele>1308</ele>
        <time>2020-08-11T05:54:25Z</time>
      </trkpt>
      <trkpt lat="45.14385" lon="5.90789">
        <ele>1308.2</ele>
        <time>2020-08-11T05:54:26Z</time>
      </trkpt>
      <trkpt lat="45.14386" lon="5.9079">
        <ele>1308.8</ele>
        <time>2020-08-11T05:54:27Z</time>
      </trkpt>
      <trkpt lat="45.14386" lon="5.90791">
        <ele>1308.8</ele>
        <time>2020-08-11T05:54:28Z</time>
      </trkpt>
      <trkpt lat="45.14386" lon="5.90793">
        <ele>1309</ele>
        <time>2020-08-11T05:54:29Z</time>
      </trkpt>
      <trkpt lat="45.14387" lon="5.90794">
        <ele>1309.2</ele>
        <time>2020-08-11T05:54:30Z</time>
      </trkpt>
      <trkpt lat="45.14387" lon="5.90795">
        <ele>1309.6</ele>
        <time>2020-08-11T05:54:31Z</time>
      </trkpt>
      <trkpt lat="45.14387" lon="5.90796">
        <ele>1309.8</ele>
        <time>2020-08-11T05:54:32Z</time>
      </trkpt>
      <trkpt lat="45.14388" lon="5.90798">
        <ele>1309.8</ele>
        <time>2020-08-11T05:54:33Z</time>
      </trkpt>
      <trkpt lat="45.14388" lon="5.90799">
        <ele>1310</ele>
        <time>2020-08-11T05:54:34Z</time>
      </trkpt>
      <trkpt lat="45.14388" lon="5.908">
        <ele>1310.4</ele>
        <time>2020-08-11T05:54:35Z</time>
      </trkpt>
      <trkpt lat="45.14389" lon="5.90802">
        <ele>1310.8</ele>
        <time>2020-08-11T05:54:36Z</time>
      </trkpt>
      <trkpt lat="45.14386" lon="5.90803">
        <ele>1311</ele>
        <time>2020-08-11T05:54:37Z</time>
      </trkpt>
      <trkpt lat="45.14383" lon="5.90804">
        <ele>1311.2</ele>
        <time>2020-08-11T05:54:38Z</time>
      </trkpt>
      <trkpt lat="45.1438" lon="5.90805">
        <ele>1311.4</ele>
        <time>2020-08-11T05:54:39Z</time>
      </trkpt>
      <trkpt lat="45.14378" lon="5.90806">
        <ele>1311.6</ele>
        <time>2020-08-11T05:54:40Z</time>
      </trkpt>
      <trkpt lat="45.14378" lon="5.90806">
        <ele>1311.8</ele>
        <time>2020-08-11T05:54:41Z</time>
      </trkpt>
      <trkpt lat="45.14379" lon="5.90807">
        <ele>1312</ele>
        <time>2020-08-11T05:54:42Z</time>
      </trkpt>
      <trkpt lat="45.1438" lon="5.90808">
        <ele>1312.6</ele>
        <time>2020-08-11T05:54:43Z</time>
      </trkpt>
      <trkpt lat="45.14381" lon="5.90809">
        <ele>1312.8</ele>
        <time>2020-08-11T05:54:44Z</time>
      </trkpt>
      <trkpt lat="45.14382" lon="5.90809">
        <ele>1313</ele>
        <time>2020-08-11T05:54:45Z</time>
      </trkpt>
      <trkpt lat="45.14382" lon="5.9081">
        <ele>1313.2</ele>
        <time>2020-08-11T05:54:46Z</time>
      </trkpt>
      <trkpt lat="45.14383" lon="5.90811">
        <ele>1313.4</ele>
        <time>2020-08-11T05:54:47Z</time>
      </trkpt>
      <trkpt lat="45.14384" lon="5.90812">
        <ele>1313.6</ele>
        <time>2020-08-11T05:54:48Z</time>
      </trkpt>
      <trkpt lat="45.14385" lon="5.90812">
        <ele>1313.8</ele>
        <time>2020-08-11T05:54:49Z</time>
      </trkpt>
      <trkpt lat="45.14386" lon="5.90813">
        <ele>1314</ele>
        <time>2020-08-11T05:54:50Z</time>
      </trkpt>
      <trkpt lat="45.14385" lon="5.90813">
        <ele>1314.4</ele>
        <time>2020-08-11T05:54:51Z</time>
      </trkpt>
      <trkpt lat="45.14384" lon="5.90812">
        <ele>1314.4</ele>
        <time>2020-08-11T05:54:52Z</time>
      </trkpt>
      <trkpt lat="45.14384" lon="5.90812">
        <ele>1314.6</ele>
        <time>2020-08-11T05:54:53Z</time>
      </trkpt>
      <trkpt lat="45.14383" lon="5.90811">
        <ele>1314.8</ele>
        <time>2020-08-11T05:54:54Z</time>
      </trkpt>
      <trkpt lat="45.14383" lon="5.90811">
        <ele>1315</ele>
        <time>2020-08-11T05:54:55Z</time>
      </trkpt>
      <trkpt lat="45.14382" lon="5.9081">
        <ele>1315.4</ele>
        <time>2020-08-11T05:54:56Z</time>
      </trkpt>
      <trkpt lat="45.14382" lon="5.9081">
        <ele>1315.6</ele>
        <time>2020-08-11T05:54:57Z</time>
      </trkpt>
      <trkpt lat="45.14381" lon="5.90809">
        <ele>1315.8</ele>
        <time>2020-08-11T05:54:58Z</time>
      </trkpt>
      <trkpt lat="45.1438" lon="5.90809">
        <ele>1316</ele>
        <time>2020-08-11T05:54:59Z</time>
      </trkpt>
      <trkpt lat="45.1438" lon="5.90808">
        <ele>1316.4</ele>
        <time>2020-08-11T05:55:00Z</time>
      </trkpt>
      <trkpt lat="45.14379" lon="5.90808">
        <ele>1316.6</ele>
        <time>2020-08-11T05:55:01Z</time>
      </trkpt>
      <trkpt lat="45.14379" lon="5.90807">
        <ele>1316.8</ele>
        <time>2020-08-11T05:55:02Z</time>
      </trkpt>
      <trkpt lat="45.14378" lon="5.90807">
        <ele>1316.8</ele>
        <time>2020-08-11T05:55:03Z</time>
      </trkpt>
      <trkpt lat="45.14377" lon="5.90806">
        <ele>1317</ele>
        <time>2020-08-11T05:55:04Z</time>
      </trkpt>
      <trkpt lat="45.14377" lon="5.90806">
        <ele>1317.2</ele>
        <time>2020-08-11T05:55:05Z</time>
      </trkpt>
      <trkpt lat="45.14376" lon="5.90805">
        <ele>1317.4</ele>
        <time>2020-08-11T05:55:06Z</time>
      </trkpt>
      <trkpt lat="45.14375" lon="5.90805">
        <ele>1317.8</ele>
        <time>2020-08-11T05:55:07Z</time>
      </trkpt>
      <trkpt lat="45.14374" lon="5.90804">
        <ele>1317.8</ele>
        <time>2020-08-11T05:55:08Z</time>
      </trkpt>
      <trkpt lat="45.14373" lon="5.90803">
        <ele>1318</ele>
        <time>2020-08-11T05:55:09Z</time>
      </trkpt>
      <trkpt lat="45.14372" lon="5.90803">
        <ele>1318</ele>
        <time>2020-08-11T05:55:10Z</time>
      </trkpt>
      <trkpt lat="45.14372" lon="5.90802">
        <ele>1318.2</ele>
        <time>2020-08-11T05:55:11Z</time>
      </trkpt>
      <trkpt lat="45.14371" lon="5.90801">
        <ele>1318.2</ele>
        <time>2020-08-11T05:55:12Z</time>
      </trkpt>
      <trkpt lat="45.1437" lon="5.90801">
        <ele>1318.4</ele>
        <time>2020-08-11T05:55:13Z</time>
      </trkpt>
      <trkpt lat="45.14369" lon="5.908">
        <ele>1318.8</ele>
        <time>2020-08-11T05:55:14Z</time>
      </trkpt>
      <trkpt lat="45.14368" lon="5.90799">
        <ele>1319</ele>
        <time>2020-08-11T05:55:15Z</time>
      </trkpt>
      <trkpt lat="45.14367" lon="5.908">
        <ele>1319.2</ele>
        <time>2020-08-11T05:55:16Z</time>
      </trkpt>
      <trkpt lat="45.14366" lon="5.908">
        <ele>1319.2</ele>
        <time>2020-08-11T05:55:17Z</time>
      </trkpt>
      <trkpt lat="45.14365" lon="5.908">
        <ele>1319.4</ele>
        <time>2020-08-11T05:55:18Z</time>
      </trkpt>
      <trkpt lat="45.14363" lon="5.908">
        <ele>1319.6</ele>
        <time>2020-08-11T05:55:19Z</time>
      </trkpt>
      <trkpt lat="45.14362" lon="5.90801">
        <ele>1319.8</ele>
        <time>2020-08-11T05:55:20Z</time>
      </trkpt>
      <trkpt lat="45.14361" lon="5.90801">
        <ele>1320.2</ele>
        <time>2020-08-11T05:55:21Z</time>
      </trkpt>
      <trkpt lat="45.14359" lon="5.90801">
        <ele>1320.4</ele>
        <time>2020-08-11T05:55:22Z</time>
      </trkpt>
      <trkpt lat="45.14358" lon="5.90801">
        <ele>1320.6</ele>
        <time>2020-08-11T05:55:23Z</time>
      </trkpt>
      <trkpt lat="45.14357" lon="5.90801">
        <ele>1320.6</ele>
        <time>2020-08-11T05:55:24Z</time>
      </trkpt>
      <trkpt lat="45.14356" lon="5.908">
        <ele>1320.8</ele>
        <time>2020-08-11T05:55:25Z</time>
      </trkpt>
      <trkpt lat="45.14355" lon="5.908">
        <ele>1321.6</ele>
        <time>2020-08-11T05:55:26Z</time>
      </trkpt>
      <trkpt lat="45.14354" lon="5.908">
        <ele>1322.2</ele>
        <time>2020-08-11T05:55:27Z</time>
      </trkpt>
      <trkpt lat="45.14352" lon="5.908">
        <ele>1322</ele>
        <time>2020-08-11T05:55:28Z</time>
      </trkpt>
      <trkpt lat="45.14351" lon="5.90799">
        <ele>1322.2</ele>
        <time>2020-08-11T05:55:29Z</time>
      </trkpt>
      <trkpt lat="45.1435" lon="5.90799">
        <ele>1322.4</ele>
        <time>2020-08-11T05:55:30Z</time>
      </trkpt>
      <trkpt lat="45.14348" lon="5.90799">
        <ele>1322.6</ele>
        <time>2020-08-11T05:55:31Z</time>
      </trkpt>
      <trkpt lat="45.14346" lon="5.90799">
        <ele>1323</ele>
        <time>2020-08-11T05:55:32Z</time>
      </trkpt>
      <trkpt lat="45.14344" lon="5.90799">
        <ele>1323</ele>
        <time>2020-08-11T05:55:33Z</time>
      </trkpt>
      <trkpt lat="45.14342" lon="5.90799">
        <ele>1323.4</ele>
        <time>2020-08-11T05:55:34Z</time>
      </trkpt>
      <trkpt lat="45.1434" lon="5.90799">
        <ele>1323.4</ele>
        <time>2020-08-11T05:55:35Z</time>
      </trkpt>
      <trkpt lat="45.14339" lon="5.908">
        <ele>1323.6</ele>
        <time>2020-08-11T05:55:36Z</time>
      </trkpt>
      <trkpt lat="45.14337" lon="5.908">
        <ele>1323.8</ele>
        <time>2020-08-11T05:55:37Z</time>
      </trkpt>
      <trkpt lat="45.14336" lon="5.908">
        <ele>1324</ele>
        <time>2020-08-11T05:55:38Z</time>
      </trkpt>
      <trkpt lat="45.14335" lon="5.908">
        <ele>1324.2</ele>
        <time>2020-08-11T05:55:39Z</time>
      </trkpt>
      <trkpt lat="45.14333" lon="5.908">
        <ele>1324.6</ele>
        <time>2020-08-11T05:55:40Z</time>
      </trkpt>
      <trkpt lat="45.14332" lon="5.908">
        <ele>1324.8</ele>
        <time>2020-08-11T05:55:41Z</time>
      </trkpt>
      <trkpt lat="45.14331" lon="5.908">
        <ele>1325</ele>
        <time>2020-08-11T05:55:42Z</time>
      </trkpt>
      <trkpt lat="45.14329" lon="5.90798">
        <ele>1325.4</ele>
        <time>2020-08-11T05:55:43Z</time>
      </trkpt>
      <trkpt lat="45.14328" lon="5.90796">
        <ele>1325.6</ele>
        <time>2020-08-11T05:55:44Z</time>
      </trkpt>
      <trkpt lat="45.14326" lon="5.90794">
        <ele>1326</ele>
        <time>2020-08-11T05:55:45Z</time>
      </trkpt>
      <trkpt lat="45.14324" lon="5.90793">
        <ele>1326</ele>
        <time>2020-08-11T05:55:46Z</time>
      </trkpt>
      <trkpt lat="45.14323" lon="5.90791">
        <ele>1326.2</ele>
        <time>2020-08-11T05:55:47Z</time>
      </trkpt>
      <trkpt lat="45.14323" lon="5.90788">
        <ele>1326.6</ele>
        <time>2020-08-11T05:55:48Z</time>
      </trkpt>
      <trkpt lat="45.14322" lon="5.90786">
        <ele>1327</ele>
        <time>2020-08-11T05:55:49Z</time>
      </trkpt>
      <trkpt lat="45.14322" lon="5.90784">
        <ele>1327.2</ele>
        <time>2020-08-11T05:55:50Z</time>
      </trkpt>
      <trkpt lat="45.14322" lon="5.90781">
        <ele>1327.2</ele>
        <time>2020-08-11T05:55:51Z</time>
      </trkpt>
      <trkpt lat="45.14322" lon="5.90779">
        <ele>1327.4</ele>
        <time>2020-08-11T05:55:52Z</time>
      </trkpt>
      <trkpt lat="45.14322" lon="5.90777">
        <ele>1327.4</ele>
        <time>2020-08-11T05:55:53Z</time>
      </trkpt>
      <trkpt lat="45.14323" lon="5.90777">
        <ele>1327.8</ele>
        <time>2020-08-11T05:55:54Z</time>
      </trkpt>
      <trkpt lat="45.14324" lon="5.90777">
        <ele>1328.2</ele>
        <time>2020-08-11T05:55:55Z</time>
      </trkpt>
      <trkpt lat="45.14324" lon="5.90777">
        <ele>1328.4</ele>
        <time>2020-08-11T05:55:56Z</time>
      </trkpt>
      <trkpt lat="45.14325" lon="5.90778">
        <ele>1328.6</ele>
        <time>2020-08-11T05:55:57Z</time>
      </trkpt>
      <trkpt lat="45.14326" lon="5.90778">
        <ele>1328.8</ele>
        <time>2020-08-11T05:55:58Z</time>
      </trkpt>
      <trkpt lat="45.14327" lon="5.90778">
        <ele>1329.2</ele>
        <time>2020-08-11T05:55:59Z</time>
      </trkpt>
      <trkpt lat="45.14327" lon="5.90778">
        <ele>1329.4</ele>
        <time>2020-08-11T05:56:00Z</time>
      </trkpt>
      <trkpt lat="45.14328" lon="5.90778">
        <ele>1329.6</ele>
        <time>2020-08-11T05:56:01Z</time>
      </trkpt>
      <trkpt lat="45.14329" lon="5.90778">
        <ele>1330</ele>
        <time>2020-08-11T05:56:02Z</time>
      </trkpt>
      <trkpt lat="45.14329" lon="5.90779">
        <ele>1330.2</ele>
        <time>2020-08-11T05:56:03Z</time>
      </trkpt>
      <trkpt lat="45.1433" lon="5.90779">
        <ele>1330.4</ele>
        <time>2020-08-11T05:56:04Z</time>
      </trkpt>
      <trkpt lat="45.14331" lon="5.90779">
        <ele>1330.6</ele>
        <time>2020-08-11T05:56:05Z</time>
      </trkpt>
      <trkpt lat="45.14332" lon="5.90779">
        <ele>1331</ele>
        <time>2020-08-11T05:56:06Z</time>
      </trkpt>
      <trkpt lat="45.14332" lon="5.90779">
        <ele>1331.2</ele>
        <time>2020-08-11T05:56:07Z</time>
      </trkpt>
      <trkpt lat="45.14333" lon="5.9078">
        <ele>1331.6</ele>
        <time>2020-08-11T05:56:08Z</time>
      </trkpt>
      <trkpt lat="45.14335" lon="5.9078">
        <ele>1331.8</ele>
        <time>2020-08-11T05:56:09Z</time>
      </trkpt>
      <trkpt lat="45.14337" lon="5.90781">
        <ele>1332</ele>
        <time>2020-08-11T05:56:10Z</time>
      </trkpt>
      <trkpt lat="45.14338" lon="5.90782">
        <ele>1332.2</ele>
        <time>2020-08-11T05:56:11Z</time>
      </trkpt>
      <trkpt lat="45.1434" lon="5.90783">
        <ele>1332.6</ele>
        <time>2020-08-11T05:56:12Z</time>
      </trkpt>
      <trkpt lat="45.14342" lon="5.90784">
        <ele>1333</ele>
        <time>2020-08-11T05:56:13Z</time>
      </trkpt>
      <trkpt lat="45.14343" lon="5.90785">
        <ele>1333.2</ele>
        <time>2020-08-11T05:56:14Z</time>
      </trkpt>
      <trkpt lat="45.14345" lon="5.90786">
        <ele>1333.4</ele>
        <time>2020-08-11T05:56:15Z</time>
      </trkpt>
      <trkpt lat="45.14346" lon="5.90788">
        <ele>1333.8</ele>
        <time>2020-08-11T05:56:16Z</time>
      </trkpt>
      <trkpt lat="45.14347" lon="5.90789">
        <ele>1333.8</ele>
        <time>2020-08-11T05:56:17Z</time>
      </trkpt>
      <trkpt lat="45.14349" lon="5.9079">
        <ele>1334</ele>
        <time>2020-08-11T05:56:18Z</time>
      </trkpt>
      <trkpt lat="45.1435" lon="5.90791">
        <ele>1334.4</ele>
        <time>2020-08-11T05:56:19Z</time>
      </trkpt>
      <trkpt lat="45.14351" lon="5.90793">
        <ele>1334.6</ele>
        <time>2020-08-11T05:56:20Z</time>
      </trkpt>
      <trkpt lat="45.14353" lon="5.90794">
        <ele>1334.8</ele>
        <time>2020-08-11T05:56:21Z</time>
      </trkpt>
      <trkpt lat="45.14354" lon="5.90795">
        <ele>1335</ele>
        <time>2020-08-11T05:56:22Z</time>
      </trkpt>
      <trkpt lat="45.14355" lon="5.90797">
        <ele>1335.4</ele>
        <time>2020-08-11T05:56:23Z</time>
      </trkpt>
      <trkpt lat="45.14356" lon="5.90798">
        <ele>1335.6</ele>
        <time>2020-08-11T05:56:24Z</time>
      </trkpt>
      <trkpt lat="45.14357" lon="5.908">
        <ele>1335.6</ele>
        <time>2020-08-11T05:56:25Z</time>
      </trkpt>
      <trkpt lat="45.14358" lon="5.90801">
        <ele>1335.6</ele>
        <time>2020-08-11T05:56:26Z</time>
      </trkpt>
      <trkpt lat="45.14359" lon="5.90802">
        <ele>1335.8</ele>
        <time>2020-08-11T05:56:27Z</time>
      </trkpt>
      <trkpt lat="45.1436" lon="5.90804">
        <ele>1336</ele>
        <time>2020-08-11T05:56:28Z</time>
      </trkpt>
      <trkpt lat="45.1436" lon="5.90804">
        <ele>1336.2</ele>
        <time>2020-08-11T05:56:29Z</time>
      </trkpt>
      <trkpt lat="45.1436" lon="5.90805">
        <ele>1336.4</ele>
        <time>2020-08-11T05:56:30Z</time>
      </trkpt>
      <trkpt lat="45.1436" lon="5.90805">
        <ele>1336.6</ele>
        <time>2020-08-11T05:56:31Z</time>
      </trkpt>
      <trkpt lat="45.1436" lon="5.90806">
        <ele>1337</ele>
        <time>2020-08-11T05:56:32Z</time>
      </trkpt>
      <trkpt lat="45.14359" lon="5.90806">
        <ele>1337</ele>
        <time>2020-08-11T05:56:33Z</time>
      </trkpt>
      <trkpt lat="45.14359" lon="5.90807">
        <ele>1337.4</ele>
        <time>2020-08-11T05:56:34Z</time>
      </trkpt>
      <trkpt lat="45.14359" lon="5.90807">
        <ele>1337.4</ele>
        <time>2020-08-11T05:56:35Z</time>
      </trkpt>
      <trkpt lat="45.14359" lon="5.90807">
        <ele>1337.8</ele>
        <time>2020-08-11T05:56:36Z</time>
      </trkpt>
      <trkpt lat="45.14359" lon="5.90808">
        <ele>1338</ele>
        <time>2020-08-11T05:56:37Z</time>
      </trkpt>
      <trkpt lat="45.14359" lon="5.90808">
        <ele>1338</ele>
        <time>2020-08-11T05:56:38Z</time>
      </trkpt>
      <trkpt lat="45.14359" lon="5.90809">
        <ele>1338.2</ele>
        <time>2020-08-11T05:56:39Z</time>
      </trkpt>
      <trkpt lat="45.14358" lon="5.90809">
        <ele>1338.2</ele>
        <time>2020-08-11T05:56:40Z</time>
      </trkpt>
      <trkpt lat="45.14358" lon="5.9081">
        <ele>1338.2</ele>
        <time>2020-08-11T05:56:41Z</time>
      </trkpt>
      <trkpt lat="45.14358" lon="5.9081">
        <ele>1338.4</ele>
        <time>2020-08-11T05:56:42Z</time>
      </trkpt>
      <trkpt lat="45.14358" lon="5.90811">
        <ele>1338.6</ele>
        <time>2020-08-11T05:56:43Z</time>
      </trkpt>
      <trkpt lat="45.14358" lon="5.90811">
        <ele>1338.8</ele>
        <time>2020-08-11T05:56:44Z</time>
      </trkpt>
      <trkpt lat="45.14358" lon="5.90811">
        <ele>1339</ele>
        <time>2020-08-11T05:56:45Z</time>
      </trkpt>
      <trkpt lat="45.14358" lon="5.90812">
        <ele>1339.4</ele>
        <time>2020-08-11T05:56:46Z</time>
      </trkpt>
      <trkpt lat="45.14357" lon="5.90812">
        <ele>1339.6</ele>
        <time>2020-08-11T05:56:47Z</time>
      </trkpt>
      <trkpt lat="45.14357" lon="5.90813">
        <ele>1339.8</ele>
        <time>2020-08-11T05:56:48Z</time>
      </trkpt>
      <trkpt lat="45.14357" lon="5.90813">
        <ele>1340</ele>
        <time>2020-08-11T05:56:49Z</time>
      </trkpt>
      <trkpt lat="45.14357" lon="5.90814">
        <ele>1340.2</ele>
        <time>2020-08-11T05:56:50Z</time>
      </trkpt>
      <trkpt lat="45.14357" lon="5.90814">
        <ele>1340.2</ele>
        <time>2020-08-11T05:56:51Z</time>
      </trkpt>
      <trkpt lat="45.14357" lon="5.90814">
        <ele>1340.4</ele>
        <time>2020-08-11T05:56:52Z</time>
      </trkpt>
      <trkpt lat="45.14357" lon="5.90815">
        <ele>1340.6</ele>
        <time>2020-08-11T05:56:53Z</time>
      </trkpt>
      <trkpt lat="45.14357" lon="5.90815">
        <ele>1341</ele>
        <time>2020-08-11T05:56:54Z</time>
      </trkpt>
      <trkpt lat="45.14356" lon="5.90816">
        <ele>1341.2</ele>
        <time>2020-08-11T05:56:55Z</time>
      </trkpt>
      <trkpt lat="45.14356" lon="5.90816">
        <ele>1341.4</ele>
        <time>2020-08-11T05:56:56Z</time>
      </trkpt>
      <trkpt lat="45.14356" lon="5.90818">
        <ele>1342.2</ele>
        <time>2020-08-11T05:56:57Z</time>
      </trkpt>
      <trkpt lat="45.14355" lon="5.9082">
        <ele>1342.4</ele>
        <time>2020-08-11T05:56:58Z</time>
      </trkpt>
      <trkpt lat="45.14354" lon="5.90822">
        <ele>1342.4</ele>
        <time>2020-08-11T05:56:59Z</time>
      </trkpt>
      <trkpt lat="45.14353" lon="5.90824">
        <ele>1342.8</ele>
        <time>2020-08-11T05:57:00Z</time>
      </trkpt>
      <trkpt lat="45.14353" lon="5.90826">
        <ele>1342.8</ele>
        <time>2020-08-11T05:57:01Z</time>
      </trkpt>
      <trkpt lat="45.14352" lon="5.90828">
        <ele>1343.2</ele>
        <time>2020-08-11T05:57:02Z</time>
      </trkpt>
      <trkpt lat="45.14352" lon="5.90829">
        <ele>1343.2</ele>
        <time>2020-08-11T05:57:03Z</time>
      </trkpt>
      <trkpt lat="45.14352" lon="5.9083">
        <ele>1343.4</ele>
        <time>2020-08-11T05:57:04Z</time>
      </trkpt>
      <trkpt lat="45.14352" lon="5.90831">
        <ele>1343.8</ele>
        <time>2020-08-11T05:57:05Z</time>
      </trkpt>
      <trkpt lat="45.14352" lon="5.90832">
        <ele>1343.8</ele>
        <time>2020-08-11T05:57:06Z</time>
      </trkpt>
      <trkpt lat="45.14352" lon="5.90832">
        <ele>1344.2</ele>
        <time>2020-08-11T05:57:07Z</time>
      </trkpt>
      <trkpt lat="45.14352" lon="5.90833">
        <ele>1344.2</ele>
        <time>2020-08-11T05:57:08Z</time>
      </trkpt>
      <trkpt lat="45.14352" lon="5.90834">
        <ele>1344.6</ele>
        <time>2020-08-11T05:57:09Z</time>
      </trkpt>
      <trkpt lat="45.14352" lon="5.90835">
        <ele>1345</ele>
        <time>2020-08-11T05:57:10Z</time>
      </trkpt>
      <trkpt lat="45.14352" lon="5.90836">
        <ele>1345</ele>
        <time>2020-08-11T05:57:11Z</time>
      </trkpt>
      <trkpt lat="45.14352" lon="5.90837">
        <ele>1345.4</ele>
        <time>2020-08-11T05:57:12Z</time>
      </trkpt>
      <trkpt lat="45.14352" lon="5.90837">
        <ele>1345.8</ele>
        <time>2020-08-11T05:57:13Z</time>
      </trkpt>
      <trkpt lat="45.14352" lon="5.90838">
        <ele>1345.8</ele>
        <time>2020-08-11T05:57:14Z</time>
      </trkpt>
      <trkpt lat="45.14352" lon="5.90839">
        <ele>1346</ele>
        <time>2020-08-11T05:57:15Z</time>
      </trkpt>
      <trkpt lat="45.14352" lon="5.9084">
        <ele>1346.2</ele>
        <time>2020-08-11T05:57:16Z</time>
      </trkpt>
      <trkpt lat="45.14352" lon="5.90841">
        <ele>1346.2</ele>
        <time>2020-08-11T05:57:17Z</time>
      </trkpt>
      <trkpt lat="45.14352" lon="5.90843">
        <ele>1346.4</ele>
        <time>2020-08-11T05:57:18Z</time>
      </trkpt>
      <trkpt lat="45.14353" lon="5.90845">
        <ele>1346.8</ele>
        <time>2020-08-11T05:57:19Z</time>
      </trkpt>
      <trkpt lat="45.14353" lon="5.90847">
        <ele>1346.8</ele>
        <time>2020-08-11T05:57:20Z</time>
      </trkpt>
      <trkpt lat="45.14354" lon="5.9085">
        <ele>1347</ele>
        <time>2020-08-11T05:57:21Z</time>
      </trkpt>
      <trkpt lat="45.14354" lon="5.90852">
        <ele>1347.6</ele>
        <time>2020-08-11T05:57:22Z</time>
      </trkpt>
      <trkpt lat="45.14354" lon="5.90854">
        <ele>1347.8</ele>
        <time>2020-08-11T05:57:23Z</time>
      </trkpt>
      <trkpt lat="45.14354" lon="5.90856">
        <ele>1348</ele>
        <time>2020-08-11T05:57:24Z</time>
      </trkpt>
      <trkpt lat="45.14354" lon="5.90857">
        <ele>1348.2</ele>
        <time>2020-08-11T05:57:25Z</time>
      </trkpt>
      <trkpt lat="45.14354" lon="5.90859">
        <ele>1348.4</ele>
        <time>2020-08-11T05:57:26Z</time>
      </trkpt>
      <trkpt lat="45.14354" lon="5.90861">
        <ele>1348.6</ele>
        <time>2020-08-11T05:57:27Z</time>
      </trkpt>
      <trkpt lat="45.14354" lon="5.90862">
        <ele>1349</ele>
        <time>2020-08-11T05:57:28Z</time>
      </trkpt>
      <trkpt lat="45.14354" lon="5.90864">
        <ele>1349.4</ele>
        <time>2020-08-11T05:57:29Z</time>
      </trkpt>
      <trkpt lat="45.14354" lon="5.90866">
        <ele>1349.4</ele>
        <time>2020-08-11T05:57:30Z</time>
      </trkpt>
      <trkpt lat="45.14354" lon="5.90867">
        <ele>1349.6</ele>
        <time>2020-08-11T05:57:31Z</time>
      </trkpt>
      <trkpt lat="45.14354" lon="5.90869">
        <ele>1350</ele>
        <time>2020-08-11T05:57:32Z</time>
      </trkpt>
      <trkpt lat="45.14354" lon="5.9087">
        <ele>1350.2</ele>
        <time>2020-08-11T05:57:33Z</time>
      </trkpt>
      <trkpt lat="45.14354" lon="5.90871">
        <ele>1350.2</ele>
        <time>2020-08-11T05:57:34Z</time>
      </trkpt>
      <trkpt lat="45.14353" lon="5.90873">
        <ele>1351</ele>
        <time>2020-08-11T05:57:35Z</time>
      </trkpt>
      <trkpt lat="45.14353" lon="5.90874">
        <ele>1351.2</ele>
        <time>2020-08-11T05:57:36Z</time>
      </trkpt>
      <trkpt lat="45.14353" lon="5.90875">
        <ele>1351.4</ele>
        <time>2020-08-11T05:57:37Z</time>
      </trkpt>
      <trkpt lat="45.14353" lon="5.90876">
        <ele>1351.4</ele>
        <time>2020-08-11T05:57:38Z</time>
      </trkpt>
      <trkpt lat="45.14353" lon="5.90877">
        <ele>1351.8</ele>
        <time>2020-08-11T05:57:39Z</time>
      </trkpt>
      <trkpt lat="45.14353" lon="5.90878">
        <ele>1351.8</ele>
        <time>2020-08-11T05:57:40Z</time>
      </trkpt>
      <trkpt lat="45.14353" lon="5.9088">
        <ele>1352</ele>
        <time>2020-08-11T05:57:41Z</time>
      </trkpt>
      <trkpt lat="45.14353" lon="5.90881">
        <ele>1352.2</ele>
        <time>2020-08-11T05:57:42Z</time>
      </trkpt>
      <trkpt lat="45.14353" lon="5.90882">
        <ele>1352.4</ele>
        <time>2020-08-11T05:57:43Z</time>
      </trkpt>
      <trkpt lat="45.14354" lon="5.90881">
        <ele>1352.6</ele>
        <time>2020-08-11T05:57:44Z</time>
      </trkpt>
      <trkpt lat="45.14356" lon="5.9088">
        <ele>1353</ele>
        <time>2020-08-11T05:57:45Z</time>
      </trkpt>
      <trkpt lat="45.14358" lon="5.90879">
        <ele>1353.2</ele>
        <time>2020-08-11T05:57:46Z</time>
      </trkpt>
      <trkpt lat="45.1436" lon="5.90879">
        <ele>1353.4</ele>
        <time>2020-08-11T05:57:47Z</time>
      </trkpt>
      <trkpt lat="45.14362" lon="5.90878">
        <ele>1353.8</ele>
        <time>2020-08-11T05:57:48Z</time>
      </trkpt>
      <trkpt lat="45.14363" lon="5.90877">
        <ele>1354</ele>
        <time>2020-08-11T05:57:49Z</time>
      </trkpt>
      <trkpt lat="45.14364" lon="5.90877">
        <ele>1354.2</ele>
        <time>2020-08-11T05:57:50Z</time>
      </trkpt>
      <trkpt lat="45.14365" lon="5.90878">
        <ele>1354.4</ele>
        <time>2020-08-11T05:57:51Z</time>
      </trkpt>
      <trkpt lat="45.14366" lon="5.90879">
        <ele>1354.6</ele>
        <time>2020-08-11T05:57:52Z</time>
      </trkpt>
      <trkpt lat="45.14367" lon="5.90879">
        <ele>1354.8</ele>
        <time>2020-08-11T05:57:53Z</time>
      </trkpt>
      <trkpt lat="45.14368" lon="5.9088">
        <ele>1355</ele>
        <time>2020-08-11T05:57:54Z</time>
      </trkpt>
      <trkpt lat="45.14369" lon="5.90881">
        <ele>1355.4</ele>
        <time>2020-08-11T05:57:55Z</time>
      </trkpt>
      <trkpt lat="45.1437" lon="5.90881">
        <ele>1355.2</ele>
        <time>2020-08-11T05:57:56Z</time>
      </trkpt>
      <trkpt lat="45.1437" lon="5.90882">
        <ele>1355.4</ele>
        <time>2020-08-11T05:57:57Z</time>
      </trkpt>
      <trkpt lat="45.14371" lon="5.90883">
        <ele>1355.6</ele>
        <time>2020-08-11T05:57:58Z</time>
      </trkpt>
      <trkpt lat="45.14372" lon="5.90883">
        <ele>1355.8</ele>
        <time>2020-08-11T05:57:59Z</time>
      </trkpt>
      <trkpt lat="45.14373" lon="5.90884">
        <ele>1356.2</ele>
        <time>2020-08-11T05:58:00Z</time>
      </trkpt>
      <trkpt lat="45.14375" lon="5.90884">
        <ele>1356.4</ele>
        <time>2020-08-11T05:58:01Z</time>
      </trkpt>
      <trkpt lat="45.14376" lon="5.90884">
        <ele>1356.6</ele>
        <time>2020-08-11T05:58:02Z</time>
      </trkpt>
      <trkpt lat="45.14378" lon="5.90884">
        <ele>1356.6</ele>
        <time>2020-08-11T05:58:03Z</time>
      </trkpt>
      <trkpt lat="45.1438" lon="5.90885">
        <ele>1356.8</ele>
        <time>2020-08-11T05:58:04Z</time>
      </trkpt>
      <trkpt lat="45.14381" lon="5.90885">
        <ele>1357</ele>
        <time>2020-08-11T05:58:05Z</time>
      </trkpt>
      <trkpt lat="45.14383" lon="5.90885">
        <ele>1357.2</ele>
        <time>2020-08-11T05:58:06Z</time>
      </trkpt>
      <trkpt lat="45.14383" lon="5.90887">
        <ele>1357.6</ele>
        <time>2020-08-11T05:58:07Z</time>
      </trkpt>
      <trkpt lat="45.14383" lon="5.90889">
        <ele>1357.8</ele>
        <time>2020-08-11T05:58:08Z</time>
      </trkpt>
      <trkpt lat="45.14383" lon="5.90892">
        <ele>1358</ele>
        <time>2020-08-11T05:58:09Z</time>
      </trkpt>
      <trkpt lat="45.14383" lon="5.90894">
        <ele>1358</ele>
        <time>2020-08-11T05:58:10Z</time>
      </trkpt>
      <trkpt lat="45.14383" lon="5.90896">
        <ele>1358</ele>
        <time>2020-08-11T05:58:11Z</time>
      </trkpt>
      <trkpt lat="45.14383" lon="5.90898">
        <ele>1358</ele>
        <time>2020-08-11T05:58:12Z</time>
      </trkpt>
      <trkpt lat="45.14385" lon="5.90901">
        <ele>1358</ele>
        <time>2020-08-11T05:58:13Z</time>
      </trkpt>
      <trkpt lat="45.14386" lon="5.90903">
        <ele>1358</ele>
        <time>2020-08-11T05:58:14Z</time>
      </trkpt>
      <trkpt lat="45.14387" lon="5.90906">
        <ele>1358.4</ele>
        <time>2020-08-11T05:58:15Z</time>
      </trkpt>
      <trkpt lat="45.14389" lon="5.90909">
        <ele>1358.8</ele>
        <time>2020-08-11T05:58:16Z</time>
      </trkpt>
      <trkpt lat="45.1439" lon="5.90911">
        <ele>1358.8</ele>
        <time>2020-08-11T05:58:17Z</time>
      </trkpt>
      <trkpt lat="45.14385" lon="5.90912">
        <ele>1358.6</ele>
        <time>2020-08-11T05:58:18Z</time>
      </trkpt>
      <trkpt lat="45.14379" lon="5.90912">
        <ele>1358.6</ele>
        <time>2020-08-11T05:58:19Z</time>
      </trkpt>
      <trkpt lat="45.14374" lon="5.90913">
        <ele>1358.4</ele>
        <time>2020-08-11T05:58:20Z</time>
      </trkpt>
      <trkpt lat="45.1437" lon="5.90915">
        <ele>1358</ele>
        <time>2020-08-11T05:58:21Z</time>
      </trkpt>
      <trkpt lat="45.14365" lon="5.90917">
        <ele>1357.4</ele>
        <time>2020-08-11T05:58:22Z</time>
      </trkpt>
      <trkpt lat="45.14361" lon="5.90919">
        <ele>1357.2</ele>
        <time>2020-08-11T05:58:23Z</time>
      </trkpt>
      <trkpt lat="45.14356" lon="5.90922">
        <ele>1356.8</ele>
        <time>2020-08-11T05:58:24Z</time>
      </trkpt>
      <trkpt lat="45.14352" lon="5.90924">
        <ele>1356.4</ele>
        <time>2020-08-11T05:58:25Z</time>
      </trkpt>
      <trkpt lat="45.14347" lon="5.90926">
        <ele>1356.4</ele>
        <time>2020-08-11T05:58:26Z</time>
      </trkpt>
      <trkpt lat="45.14343" lon="5.90928">
        <ele>1356</ele>
        <time>2020-08-11T05:58:27Z</time>
      </trkpt>
      <trkpt lat="45.14338" lon="5.9093">
        <ele>1355.8</ele>
        <time>2020-08-11T05:58:28Z</time>
      </trkpt>
      <trkpt lat="45.14302" lon="5.90948">
        <ele>1355.2</ele>
        <time>2020-08-11T05:58:29Z</time>
      </trkpt>
      <trkpt lat="45.14301" lon="5.90947">
        <ele>1354.6</ele>
        <time>2020-08-11T05:58:30Z</time>
      </trkpt>
      <trkpt lat="45.143" lon="5.90946">
        <ele>1354.4</ele>
        <time>2020-08-11T05:58:31Z</time>
      </trkpt>
      <trkpt lat="45.14298" lon="5.90945">
        <ele>1354</ele>
        <time>2020-08-11T05:58:32Z</time>
      </trkpt>
      <trkpt lat="45.14297" lon="5.90944">
        <ele>1353.6</ele>
        <time>2020-08-11T05:58:33Z</time>
      </trkpt>
      <trkpt lat="45.14296" lon="5.90943">
        <ele>1353.2</ele>
        <time>2020-08-11T05:58:34Z</time>
      </trkpt>
      <trkpt lat="45.14295" lon="5.90942">
        <ele>1353</ele>
        <time>2020-08-11T05:58:35Z</time>
      </trkpt>
      <trkpt lat="45.14294" lon="5.90941">
        <ele>1352.6</ele>
        <time>2020-08-11T05:58:36Z</time>
      </trkpt>
      <trkpt lat="45.14296" lon="5.9094">
        <ele>1352.6</ele>
        <time>2020-08-11T05:58:37Z</time>
      </trkpt>
      <trkpt lat="45.14297" lon="5.9094">
        <ele>1352.4</ele>
        <time>2020-08-11T05:58:38Z</time>
      </trkpt>
      <trkpt lat="45.14299" lon="5.9094">
        <ele>1352</ele>
        <time>2020-08-11T05:58:39Z</time>
      </trkpt>
      <trkpt lat="45.14301" lon="5.9094">
        <ele>1352</ele>
        <time>2020-08-11T05:58:40Z</time>
      </trkpt>
      <trkpt lat="45.14303" lon="5.90939">
        <ele>1352.2</ele>
        <time>2020-08-11T05:58:41Z</time>
      </trkpt>
      <trkpt lat="45.14305" lon="5.90939">
        <ele>1352.4</ele>
        <time>2020-08-11T05:58:42Z</time>
      </trkpt>
      <trkpt lat="45.14307" lon="5.90939">
        <ele>1352.4</ele>
        <time>2020-08-11T05:58:43Z</time>
      </trkpt>
      <trkpt lat="45.14309" lon="5.90938">
        <ele>1352.4</ele>
        <time>2020-08-11T05:58:44Z</time>
      </trkpt>
      <trkpt lat="45.14311" lon="5.90938">
        <ele>1352.6</ele>
        <time>2020-08-11T05:58:45Z</time>
      </trkpt>
      <trkpt lat="45.14313" lon="5.90938">
        <ele>1352.8</ele>
        <time>2020-08-11T05:58:46Z</time>
      </trkpt>
      <trkpt lat="45.14315" lon="5.90938">
        <ele>1352.6</ele>
        <time>2020-08-11T05:58:47Z</time>
      </trkpt>
      <trkpt lat="45.14316" lon="5.90937">
        <ele>1352.6</ele>
        <time>2020-08-11T05:58:48Z</time>
      </trkpt>
      <trkpt lat="45.14326" lon="5.90936">
        <ele>1352.4</ele>
        <time>2020-08-11T05:58:49Z</time>
      </trkpt>
      <trkpt lat="45.14326" lon="5.90936">
        <ele>1352.2</ele>
        <time>2020-08-11T05:58:50Z</time>
      </trkpt>
      <trkpt lat="45.14329" lon="5.90935">
        <ele>1352</ele>
        <time>2020-08-11T05:58:51Z</time>
      </trkpt>
      <trkpt lat="45.14333" lon="5.90935">
        <ele>1352</ele>
        <time>2020-08-11T05:58:52Z</time>
      </trkpt>
      <trkpt lat="45.14336" lon="5.90934">
        <ele>1351.8</ele>
        <time>2020-08-11T05:58:53Z</time>
      </trkpt>
      <trkpt lat="45.14334" lon="5.90942">
        <ele>1351.6</ele>
        <time>2020-08-11T05:58:54Z</time>
      </trkpt>
      <trkpt lat="45.14331" lon="5.9095">
        <ele>1351.4</ele>
        <time>2020-08-11T05:58:55Z</time>
      </trkpt>
      <trkpt lat="45.14329" lon="5.90957">
        <ele>1351.2</ele>
        <time>2020-08-11T05:58:56Z</time>
      </trkpt>
      <trkpt lat="45.14327" lon="5.90965">
        <ele>1351.2</ele>
        <time>2020-08-11T05:58:57Z</time>
      </trkpt>
      <trkpt lat="45.14325" lon="5.90973">
        <ele>1351</ele>
        <time>2020-08-11T05:58:58Z</time>
      </trkpt>
      <trkpt lat="45.14322" lon="5.9098">
        <ele>1351.2</ele>
        <time>2020-08-11T05:58:59Z</time>
      </trkpt>
      <trkpt lat="45.1432" lon="5.90988">
        <ele>1351</ele>
        <time>2020-08-11T05:59:00Z</time>
      </trkpt>
      <trkpt lat="45.14323" lon="5.90987">
        <ele>1351</ele>
        <time>2020-08-11T05:59:01Z</time>
      </trkpt>
      <trkpt lat="45.14325" lon="5.90986">
        <ele>1351.2</ele>
        <time>2020-08-11T05:59:02Z</time>
      </trkpt>
      <trkpt lat="45.14328" lon="5.90985">
        <ele>1351.2</ele>
        <time>2020-08-11T05:59:03Z</time>
      </trkpt>
      <trkpt lat="45.1433" lon="5.90984">
        <ele>1351</ele>
        <time>2020-08-11T05:59:04Z</time>
      </trkpt>
      <trkpt lat="45.14333" lon="5.90984">
        <ele>1351.2</ele>
        <time>2020-08-11T05:59:05Z</time>
      </trkpt>
      <trkpt lat="45.14336" lon="5.90984">
        <ele>1351.2</ele>
        <time>2020-08-11T05:59:06Z</time>
      </trkpt>
      <trkpt lat="45.14339" lon="5.90984">
        <ele>1351.6</ele>
        <time>2020-08-11T05:59:07Z</time>
      </trkpt>
      <trkpt lat="45.14342" lon="5.90984">
        <ele>1351.4</ele>
        <time>2020-08-11T05:59:08Z</time>
      </trkpt>
      <trkpt lat="45.14345" lon="5.90984">
        <ele>1351.6</ele>
        <time>2020-08-11T05:59:09Z</time>
      </trkpt>
      <trkpt lat="45.14349" lon="5.9098">
        <ele>1351.2</ele>
        <time>2020-08-11T05:59:10Z</time>
      </trkpt>
      <trkpt lat="45.14349" lon="5.9098">
        <ele>1350.6</ele>
        <time>2020-08-11T05:59:11Z</time>
      </trkpt>
      <trkpt lat="45.14351" lon="5.90981">
        <ele>1351</ele>
        <time>2020-08-11T05:59:12Z</time>
      </trkpt>
      <trkpt lat="45.14353" lon="5.90982">
        <ele>1350.6</ele>
        <time>2020-08-11T05:59:13Z</time>
      </trkpt>
      <trkpt lat="45.14356" lon="5.90983">
        <ele>1351</ele>
        <time>2020-08-11T05:59:14Z</time>
      </trkpt>
      <trkpt lat="45.14358" lon="5.90984">
        <ele>1351</ele>
        <time>2020-08-11T05:59:15Z</time>
      </trkpt>
      <trkpt lat="45.14357" lon="5.90986">
        <ele>1351.6</ele>
        <time>2020-08-11T05:59:16Z</time>
      </trkpt>
      <trkpt lat="45.14356" lon="5.90988">
        <ele>1351.6</ele>
        <time>2020-08-11T05:59:17Z</time>
      </trkpt>
      <trkpt lat="45.14356" lon="5.90991">
        <ele>1352</ele>
        <time>2020-08-11T05:59:18Z</time>
      </trkpt>
      <trkpt lat="45.14355" lon="5.90993">
        <ele>1352</ele>
        <time>2020-08-11T05:59:19Z</time>
      </trkpt>
      <trkpt lat="45.14354" lon="5.90996">
        <ele>1352.2</ele>
        <time>2020-08-11T05:59:20Z</time>
      </trkpt>
      <trkpt lat="45.14347" lon="5.91004">
        <ele>1352</ele>
        <time>2020-08-11T05:59:21Z</time>
      </trkpt>
      <trkpt lat="45.14347" lon="5.91004">
        <ele>1352</ele>
        <time>2020-08-11T05:59:22Z</time>
      </trkpt>
      <trkpt lat="45.14349" lon="5.91004">
        <ele>1351.8</ele>
        <time>2020-08-11T05:59:23Z</time>
      </trkpt>
      <trkpt lat="45.14351" lon="5.91004">
        <ele>1351.6</ele>
        <time>2020-08-11T05:59:24Z</time>
      </trkpt>
      <trkpt lat="45.14353" lon="5.91004">
        <ele>1351.8</ele>
        <time>2020-08-11T05:59:25Z</time>
      </trkpt>
      <trkpt lat="45.14355" lon="5.91004">
        <ele>1351.8</ele>
        <time>2020-08-11T05:59:26Z</time>
      </trkpt>
      <trkpt lat="45.14357" lon="5.91004">
        <ele>1351.8</ele>
        <time>2020-08-11T05:59:27Z</time>
      </trkpt>
      <trkpt lat="45.14359" lon="5.91005">
        <ele>1351.6</ele>
        <time>2020-08-11T05:59:28Z</time>
      </trkpt>
      <trkpt lat="45.14361" lon="5.91005">
        <ele>1351.6</ele>
        <time>2020-08-11T05:59:29Z</time>
      </trkpt>
      <trkpt lat="45.14363" lon="5.91005">
        <ele>1351.6</ele>
        <time>2020-08-11T05:59:30Z</time>
      </trkpt>
      <trkpt lat="45.14365" lon="5.91006">
        <ele>1351.6</ele>
        <time>2020-08-11T05:59:31Z</time>
      </trkpt>
      <trkpt lat="45.14366" lon="5.91006">
        <ele>1351.8</ele>
        <time>2020-08-11T05:59:32Z</time>
      </trkpt>
      <trkpt lat="45.14369" lon="5.91008">
        <ele>1352</ele>
        <time>2020-08-11T05:59:33Z</time>
      </trkpt>
      <trkpt lat="45.14371" lon="5.9101">
        <ele>1352.2</ele>
        <time>2020-08-11T05:59:34Z</time>
      </trkpt>
      <trkpt lat="45.14374" lon="5.91012">
        <ele>1352.6</ele>
        <time>2020-08-11T05:59:35Z</time>
      </trkpt>
      <trkpt lat="45.14376" lon="5.91014">
        <ele>1352.6</ele>
        <time>2020-08-11T05:59:36Z</time>
      </trkpt>
      <trkpt lat="45.14379" lon="5.91016">
        <ele>1353</ele>
        <time>2020-08-11T05:59:37Z</time>
      </trkpt>
      <trkpt lat="45.14381" lon="5.91018">
        <ele>1353.2</ele>
        <time>2020-08-11T05:59:38Z</time>
      </trkpt>
      <trkpt lat="45.14384" lon="5.9102">
        <ele>1353.4</ele>
        <time>2020-08-11T05:59:39Z</time>
      </trkpt>
      <trkpt lat="45.14384" lon="5.9102">
        <ele>1353.6</ele>
        <time>2020-08-11T05:59:40Z</time>
      </trkpt>
      <trkpt lat="45.14386" lon="5.9102">
        <ele>1353.8</ele>
        <time>2020-08-11T05:59:41Z</time>
      </trkpt>
      <trkpt lat="45.14388" lon="5.9102">
        <ele>1353.8</ele>
        <time>2020-08-11T05:59:42Z</time>
      </trkpt>
      <trkpt lat="45.14391" lon="5.9102">
        <ele>1354.2</ele>
        <time>2020-08-11T05:59:43Z</time>
      </trkpt>
      <trkpt lat="45.14393" lon="5.91021">
        <ele>1354.6</ele>
        <time>2020-08-11T05:59:44Z</time>
      </trkpt>
      <trkpt lat="45.14395" lon="5.91021">
        <ele>1355</ele>
        <time>2020-08-11T05:59:45Z</time>
      </trkpt>
      <trkpt lat="45.14397" lon="5.91022">
        <ele>1355.4</ele>
        <time>2020-08-11T05:59:46Z</time>
      </trkpt>
      <trkpt lat="45.144" lon="5.91023">
        <ele>1355.6</ele>
        <time>2020-08-11T05:59:47Z</time>
      </trkpt>
      <trkpt lat="45.14402" lon="5.91023">
        <ele>1356</ele>
        <time>2020-08-11T05:59:48Z</time>
      </trkpt>
      <trkpt lat="45.14404" lon="5.91024">
        <ele>1356.6</ele>
        <time>2020-08-11T05:59:49Z</time>
      </trkpt>
      <trkpt lat="45.14405" lon="5.91024">
        <ele>1356.8</ele>
        <time>2020-08-11T05:59:50Z</time>
      </trkpt>
      <trkpt lat="45.14407" lon="5.91025">
        <ele>1357</ele>
        <time>2020-08-11T05:59:51Z</time>
      </trkpt>
      <trkpt lat="45.14408" lon="5.91025">
        <ele>1357.4</ele>
        <time>2020-08-11T05:59:52Z</time>
      </trkpt>
      <trkpt lat="45.1441" lon="5.91025">
        <ele>1357.6</ele>
        <time>2020-08-11T05:59:53Z</time>
      </trkpt>
      <trkpt lat="45.14411" lon="5.91026">
        <ele>1357.8</ele>
        <time>2020-08-11T05:59:54Z</time>
      </trkpt>
      <trkpt lat="45.14414" lon="5.91025">
        <ele>1358</ele>
        <time>2020-08-11T05:59:55Z</time>
      </trkpt>
      <trkpt lat="45.14417" lon="5.91024">
        <ele>1358.2</ele>
        <time>2020-08-11T05:59:56Z</time>
      </trkpt>
      <trkpt lat="45.14419" lon="5.91023">
        <ele>1358.6</ele>
        <time>2020-08-11T05:59:57Z</time>
      </trkpt>
      <trkpt lat="45.14422" lon="5.91022">
        <ele>1358.8</ele>
        <time>2020-08-11T05:59:58Z</time>
      </trkpt>
      <trkpt lat="45.14424" lon="5.91024">
        <ele>1359.2</ele>
        <time>2020-08-11T05:59:59Z</time>
      </trkpt>
      <trkpt lat="45.14425" lon="5.91025">
        <ele>1359.8</ele>
        <time>2020-08-11T06:00:01Z</time>
      </trkpt>
      <trkpt lat="45.14427" lon="5.91027">
        <ele>1360</ele>
        <time>2020-08-11T06:00:02Z</time>
      </trkpt>
      <trkpt lat="45.14429" lon="5.91028">
        <ele>1360</ele>
        <time>2020-08-11T06:00:03Z</time>
      </trkpt>
      <trkpt lat="45.14431" lon="5.9103">
        <ele>1360.2</ele>
        <time>2020-08-11T06:00:04Z</time>
      </trkpt>
      <trkpt lat="45.14432" lon="5.91031">
        <ele>1360.2</ele>
        <time>2020-08-11T06:00:05Z</time>
      </trkpt>
      <trkpt lat="45.14433" lon="5.91029">
        <ele>1360.4</ele>
        <time>2020-08-11T06:00:06Z</time>
      </trkpt>
      <trkpt lat="45.14434" lon="5.91028">
        <ele>1360.6</ele>
        <time>2020-08-11T06:00:07Z</time>
      </trkpt>
      <trkpt lat="45.14435" lon="5.91026">
        <ele>1360.8</ele>
        <time>2020-08-11T06:00:08Z</time>
      </trkpt>
      <trkpt lat="45.14436" lon="5.91024">
        <ele>1361.2</ele>
        <time>2020-08-11T06:00:09Z</time>
      </trkpt>
      <trkpt lat="45.14437" lon="5.91023">
        <ele>1361.4</ele>
        <time>2020-08-11T06:00:10Z</time>
      </trkpt>
      <trkpt lat="45.14438" lon="5.91021">
        <ele>1361.8</ele>
        <time>2020-08-11T06:00:11Z</time>
      </trkpt>
      <trkpt lat="45.14439" lon="5.91019">
        <ele>1362</ele>
        <time>2020-08-11T06:00:12Z</time>
      </trkpt>
      <trkpt lat="45.1444" lon="5.91019">
        <ele>1362.2</ele>
        <time>2020-08-11T06:00:13Z</time>
      </trkpt>
      <trkpt lat="45.14442" lon="5.9102">
        <ele>1362.2</ele>
        <time>2020-08-11T06:00:14Z</time>
      </trkpt>
      <trkpt lat="45.14444" lon="5.9102">
        <ele>1362.4</ele>
        <time>2020-08-11T06:00:15Z</time>
      </trkpt>
      <trkpt lat="45.14445" lon="5.9102">
        <ele>1362.6</ele>
        <time>2020-08-11T06:00:16Z</time>
      </trkpt>
      <trkpt lat="45.14447" lon="5.9102">
        <ele>1363</ele>
        <time>2020-08-11T06:00:17Z</time>
      </trkpt>
      <trkpt lat="45.14449" lon="5.9102">
        <ele>1363.2</ele>
        <time>2020-08-11T06:00:18Z</time>
      </trkpt>
      <trkpt lat="45.1445" lon="5.91021">
        <ele>1363.6</ele>
        <time>2020-08-11T06:00:19Z</time>
      </trkpt>
      <trkpt lat="45.14453" lon="5.91021">
        <ele>1364</ele>
        <time>2020-08-11T06:00:20Z</time>
      </trkpt>
      <trkpt lat="45.14455" lon="5.91022">
        <ele>1364</ele>
        <time>2020-08-11T06:00:21Z</time>
      </trkpt>
      <trkpt lat="45.14458" lon="5.91022">
        <ele>1364.4</ele>
        <time>2020-08-11T06:00:22Z</time>
      </trkpt>
      <trkpt lat="45.1446" lon="5.91023">
        <ele>1364.6</ele>
        <time>2020-08-11T06:00:23Z</time>
      </trkpt>
      <trkpt lat="45.14464" lon="5.91023">
        <ele>1365</ele>
        <time>2020-08-11T06:00:24Z</time>
      </trkpt>
      <trkpt lat="45.14467" lon="5.91022">
        <ele>1365.2</ele>
        <time>2020-08-11T06:00:25Z</time>
      </trkpt>
      <trkpt lat="45.14471" lon="5.91022">
        <ele>1365.6</ele>
        <time>2020-08-11T06:00:26Z</time>
      </trkpt>
      <trkpt lat="45.14473" lon="5.91023">
        <ele>1365.6</ele>
        <time>2020-08-11T06:00:27Z</time>
      </trkpt>
      <trkpt lat="45.14476" lon="5.91023">
        <ele>1366</ele>
        <time>2020-08-11T06:00:28Z</time>
      </trkpt>
      <trkpt lat="45.14478" lon="5.91023">
        <ele>1366.2</ele>
        <time>2020-08-11T06:00:30Z</time>
      </trkpt>
      <trkpt lat="45.1448" lon="5.91024">
        <ele>1366.2</ele>
        <time>2020-08-11T06:00:31Z</time>
      </trkpt>
      <trkpt lat="45.14482" lon="5.91025">
        <ele>1366.6</ele>
        <time>2020-08-11T06:00:32Z</time>
      </trkpt>
      <trkpt lat="45.14483" lon="5.91027">
        <ele>1366.8</ele>
        <time>2020-08-11T06:00:33Z</time>
      </trkpt>
      <trkpt lat="45.14485" lon="5.91028">
        <ele>1367.2</ele>
        <time>2020-08-11T06:00:34Z</time>
      </trkpt>
      <trkpt lat="45.14486" lon="5.9103">
        <ele>1367.4</ele>
        <time>2020-08-11T06:00:35Z</time>
      </trkpt>
      <trkpt lat="45.14487" lon="5.91031">
        <ele>1367.8</ele>
        <time>2020-08-11T06:00:36Z</time>
      </trkpt>
      <trkpt lat="45.14489" lon="5.91033">
        <ele>1368</ele>
        <time>2020-08-11T06:00:37Z</time>
      </trkpt>
      <trkpt lat="45.14489" lon="5.91034">
        <ele>1368.2</ele>
        <time>2020-08-11T06:00:38Z</time>
      </trkpt>
      <trkpt lat="45.1449" lon="5.91035">
        <ele>1368.4</ele>
        <time>2020-08-11T06:00:39Z</time>
      </trkpt>
      <trkpt lat="45.14491" lon="5.91035">
        <ele>1369</ele>
        <time>2020-08-11T06:00:40Z</time>
      </trkpt>
      <trkpt lat="45.14491" lon="5.91036">
        <ele>1369.2</ele>
        <time>2020-08-11T06:00:41Z</time>
      </trkpt>
      <trkpt lat="45.14492" lon="5.91037">
        <ele>1369.2</ele>
        <time>2020-08-11T06:00:42Z</time>
      </trkpt>
      <trkpt lat="45.14492" lon="5.91038">
        <ele>1369.2</ele>
        <time>2020-08-11T06:00:43Z</time>
      </trkpt>
      <trkpt lat="45.14493" lon="5.91039">
        <ele>1369.4</ele>
        <time>2020-08-11T06:00:44Z</time>
      </trkpt>
      <trkpt lat="45.14494" lon="5.9104">
        <ele>1369.6</ele>
        <time>2020-08-11T06:00:45Z</time>
      </trkpt>
      <trkpt lat="45.14494" lon="5.91041">
        <ele>1370</ele>
        <time>2020-08-11T06:00:46Z</time>
      </trkpt>
      <trkpt lat="45.14495" lon="5.91042">
        <ele>1370.4</ele>
        <time>2020-08-11T06:00:47Z</time>
      </trkpt>
      <trkpt lat="45.14495" lon="5.91043">
        <ele>1370.6</ele>
        <time>2020-08-11T06:00:48Z</time>
      </trkpt>
      <trkpt lat="45.14496" lon="5.91044">
        <ele>1370.6</ele>
        <time>2020-08-11T06:00:49Z</time>
      </trkpt>
      <trkpt lat="45.14497" lon="5.91045">
        <ele>1370.8</ele>
        <time>2020-08-11T06:00:50Z</time>
      </trkpt>
      <trkpt lat="45.14498" lon="5.91047">
        <ele>1371.2</ele>
        <time>2020-08-11T06:00:51Z</time>
      </trkpt>
      <trkpt lat="45.14499" lon="5.91048">
        <ele>1371.4</ele>
        <time>2020-08-11T06:00:52Z</time>
      </trkpt>
      <trkpt lat="45.14499" lon="5.9105">
        <ele>1371.6</ele>
        <time>2020-08-11T06:00:53Z</time>
      </trkpt>
      <trkpt lat="45.145" lon="5.91051">
        <ele>1371.8</ele>
        <time>2020-08-11T06:00:54Z</time>
      </trkpt>
      <trkpt lat="45.14501" lon="5.91053">
        <ele>1371.8</ele>
        <time>2020-08-11T06:00:55Z</time>
      </trkpt>
      <trkpt lat="45.14501" lon="5.91054">
        <ele>1372</ele>
        <time>2020-08-11T06:00:56Z</time>
      </trkpt>
      <trkpt lat="45.14501" lon="5.91056">
        <ele>1372.8</ele>
        <time>2020-08-11T06:00:57Z</time>
      </trkpt>
      <trkpt lat="45.14501" lon="5.91058">
        <ele>1373.4</ele>
        <time>2020-08-11T06:00:58Z</time>
      </trkpt>
      <trkpt lat="45.14501" lon="5.9106">
        <ele>1374</ele>
        <time>2020-08-11T06:00:59Z</time>
      </trkpt>
      <trkpt lat="45.14501" lon="5.91061">
        <ele>1374</ele>
        <time>2020-08-11T06:01:00Z</time>
      </trkpt>
      <trkpt lat="45.14501" lon="5.91063">
        <ele>1374.2</ele>
        <time>2020-08-11T06:01:01Z</time>
      </trkpt>
      <trkpt lat="45.14501" lon="5.91065">
        <ele>1374.4</ele>
        <time>2020-08-11T06:01:02Z</time>
      </trkpt>
      <trkpt lat="45.14501" lon="5.91067">
        <ele>1374.4</ele>
        <time>2020-08-11T06:01:03Z</time>
      </trkpt>
      <trkpt lat="45.14501" lon="5.91068">
        <ele>1375</ele>
        <time>2020-08-11T06:01:04Z</time>
      </trkpt>
      <trkpt lat="45.14501" lon="5.9107">
        <ele>1375.2</ele>
        <time>2020-08-11T06:01:05Z</time>
      </trkpt>
      <trkpt lat="45.145" lon="5.91071">
        <ele>1375.2</ele>
        <time>2020-08-11T06:01:06Z</time>
      </trkpt>
      <trkpt lat="45.14499" lon="5.91073">
        <ele>1375.2</ele>
        <time>2020-08-11T06:01:07Z</time>
      </trkpt>
      <trkpt lat="45.14497" lon="5.91074">
        <ele>1375.4</ele>
        <time>2020-08-11T06:01:08Z</time>
      </trkpt>
      <trkpt lat="45.14496" lon="5.91075">
        <ele>1375.8</ele>
        <time>2020-08-11T06:01:09Z</time>
      </trkpt>
      <trkpt lat="45.14495" lon="5.91077">
        <ele>1375.8</ele>
        <time>2020-08-11T06:01:10Z</time>
      </trkpt>
      <trkpt lat="45.14493" lon="5.91078">
        <ele>1376</ele>
        <time>2020-08-11T06:01:11Z</time>
      </trkpt>
      <trkpt lat="45.14493" lon="5.91079">
        <ele>1376.6</ele>
        <time>2020-08-11T06:01:12Z</time>
      </trkpt>
      <trkpt lat="45.14493" lon="5.9108">
        <ele>1376.8</ele>
        <time>2020-08-11T06:01:13Z</time>
      </trkpt>
      <trkpt lat="45.14492" lon="5.91082">
        <ele>1377</ele>
        <time>2020-08-11T06:01:14Z</time>
      </trkpt>
      <trkpt lat="45.14492" lon="5.91083">
        <ele>1377.2</ele>
        <time>2020-08-11T06:01:15Z</time>
      </trkpt>
      <trkpt lat="45.14492" lon="5.91084">
        <ele>1377.6</ele>
        <time>2020-08-11T06:01:16Z</time>
      </trkpt>
      <trkpt lat="45.14492" lon="5.91085">
        <ele>1378</ele>
        <time>2020-08-11T06:01:17Z</time>
      </trkpt>
      <trkpt lat="45.14491" lon="5.91086">
        <ele>1378.2</ele>
        <time>2020-08-11T06:01:18Z</time>
      </trkpt>
      <trkpt lat="45.14491" lon="5.91087">
        <ele>1378.4</ele>
        <time>2020-08-11T06:01:19Z</time>
      </trkpt>
      <trkpt lat="45.14491" lon="5.91089">
        <ele>1378.6</ele>
        <time>2020-08-11T06:01:20Z</time>
      </trkpt>
      <trkpt lat="45.14491" lon="5.9109">
        <ele>1378.8</ele>
        <time>2020-08-11T06:01:21Z</time>
      </trkpt>
      <trkpt lat="45.1449" lon="5.91091">
        <ele>1379</ele>
        <time>2020-08-11T06:01:22Z</time>
      </trkpt>
      <trkpt lat="45.1449" lon="5.91093">
        <ele>1379.4</ele>
        <time>2020-08-11T06:01:23Z</time>
      </trkpt>
      <trkpt lat="45.1449" lon="5.91094">
        <ele>1379.8</ele>
        <time>2020-08-11T06:01:24Z</time>
      </trkpt>
      <trkpt lat="45.14491" lon="5.91096">
        <ele>1380</ele>
        <time>2020-08-11T06:01:25Z</time>
      </trkpt>
      <trkpt lat="45.14491" lon="5.91098">
        <ele>1380.4</ele>
        <time>2020-08-11T06:01:26Z</time>
      </trkpt>
      <trkpt lat="45.14491" lon="5.91099">
        <ele>1380.6</ele>
        <time>2020-08-11T06:01:27Z</time>
      </trkpt>
      <trkpt lat="45.14491" lon="5.91101">
        <ele>1380.6</ele>
        <time>2020-08-11T06:01:28Z</time>
      </trkpt>
      <trkpt lat="45.14491" lon="5.91103">
        <ele>1381</ele>
        <time>2020-08-11T06:01:29Z</time>
      </trkpt>
      <trkpt lat="45.14491" lon="5.91105">
        <ele>1381.2</ele>
        <time>2020-08-11T06:01:30Z</time>
      </trkpt>
      <trkpt lat="45.1449" lon="5.91106">
        <ele>1381.6</ele>
        <time>2020-08-11T06:01:31Z</time>
      </trkpt>
      <trkpt lat="45.1449" lon="5.91108">
        <ele>1381.8</ele>
        <time>2020-08-11T06:01:32Z</time>
      </trkpt>
      <trkpt lat="45.1449" lon="5.9111">
        <ele>1382</ele>
        <time>2020-08-11T06:01:33Z</time>
      </trkpt>
      <trkpt lat="45.1449" lon="5.91112">
        <ele>1382.4</ele>
        <time>2020-08-11T06:01:34Z</time>
      </trkpt>
      <trkpt lat="45.14489" lon="5.91114">
        <ele>1382.6</ele>
        <time>2020-08-11T06:01:35Z</time>
      </trkpt>
      <trkpt lat="45.14489" lon="5.91116">
        <ele>1382.8</ele>
        <time>2020-08-11T06:01:36Z</time>
      </trkpt>
      <trkpt lat="45.14489" lon="5.91117">
        <ele>1383.2</ele>
        <time>2020-08-11T06:01:37Z</time>
      </trkpt>
      <trkpt lat="45.14489" lon="5.91119">
        <ele>1383.2</ele>
        <time>2020-08-11T06:01:38Z</time>
      </trkpt>
      <trkpt lat="45.14489" lon="5.9112">
        <ele>1383.6</ele>
        <time>2020-08-11T06:01:39Z</time>
      </trkpt>
      <trkpt lat="45.14489" lon="5.91121">
        <ele>1383.8</ele>
        <time>2020-08-11T06:01:40Z</time>
      </trkpt>
      <trkpt lat="45.14489" lon="5.91123">
        <ele>1384</ele>
        <time>2020-08-11T06:01:41Z</time>
      </trkpt>
      <trkpt lat="45.14489" lon="5.91124">
        <ele>1384.4</ele>
        <time>2020-08-11T06:01:42Z</time>
      </trkpt>
      <trkpt lat="45.14489" lon="5.91125">
        <ele>1384.6</ele>
        <time>2020-08-11T06:01:43Z</time>
      </trkpt>
      <trkpt lat="45.14489" lon="5.91127">
        <ele>1384.6</ele>
        <time>2020-08-11T06:01:44Z</time>
      </trkpt>
      <trkpt lat="45.14489" lon="5.91128">
        <ele>1384.6</ele>
        <time>2020-08-11T06:01:45Z</time>
      </trkpt>
      <trkpt lat="45.14488" lon="5.91129">
        <ele>1384.8</ele>
        <time>2020-08-11T06:01:46Z</time>
      </trkpt>
      <trkpt lat="45.14488" lon="5.91131">
        <ele>1385</ele>
        <time>2020-08-11T06:01:47Z</time>
      </trkpt>
      <trkpt lat="45.14488" lon="5.91132">
        <ele>1385</ele>
        <time>2020-08-11T06:01:48Z</time>
      </trkpt>
      <trkpt lat="45.14489" lon="5.91134">
        <ele>1385.2</ele>
        <time>2020-08-11T06:01:49Z</time>
      </trkpt>
      <trkpt lat="45.14489" lon="5.91135">
        <ele>1385.4</ele>
        <time>2020-08-11T06:01:50Z</time>
      </trkpt>
      <trkpt lat="45.14489" lon="5.91137">
        <ele>1385.6</ele>
        <time>2020-08-11T06:01:51Z</time>
      </trkpt>
      <trkpt lat="45.1449" lon="5.91139">
        <ele>1385.8</ele>
        <time>2020-08-11T06:01:52Z</time>
      </trkpt>
      <trkpt lat="45.1449" lon="5.91141">
        <ele>1385.8</ele>
        <time>2020-08-11T06:01:53Z</time>
      </trkpt>
      <trkpt lat="45.1449" lon="5.91143">
        <ele>1385.8</ele>
        <time>2020-08-11T06:01:54Z</time>
      </trkpt>
      <trkpt lat="45.1449" lon="5.91144">
        <ele>1386.2</ele>
        <time>2020-08-11T06:01:55Z</time>
      </trkpt>
      <trkpt lat="45.14491" lon="5.91146">
        <ele>1386.6</ele>
        <time>2020-08-11T06:01:56Z</time>
      </trkpt>
      <trkpt lat="45.1449" lon="5.91147">
        <ele>1387</ele>
        <time>2020-08-11T06:01:57Z</time>
      </trkpt>
      <trkpt lat="45.14489" lon="5.91148">
        <ele>1387.2</ele>
        <time>2020-08-11T06:01:58Z</time>
      </trkpt>
      <trkpt lat="45.14489" lon="5.91149">
        <ele>1387.4</ele>
        <time>2020-08-11T06:01:59Z</time>
      </trkpt>
      <trkpt lat="45.14488" lon="5.9115">
        <ele>1387.6</ele>
        <time>2020-08-11T06:02:00Z</time>
      </trkpt>
      <trkpt lat="45.14488" lon="5.91151">
        <ele>1387.6</ele>
        <time>2020-08-11T06:02:01Z</time>
      </trkpt>
      <trkpt lat="45.14487" lon="5.91152">
        <ele>1387.8</ele>
        <time>2020-08-11T06:02:02Z</time>
      </trkpt>
      <trkpt lat="45.14487" lon="5.91153">
        <ele>1388.2</ele>
        <time>2020-08-11T06:02:03Z</time>
      </trkpt>
      <trkpt lat="45.14486" lon="5.91155">
        <ele>1388.4</ele>
        <time>2020-08-11T06:02:04Z</time>
      </trkpt>
      <trkpt lat="45.14485" lon="5.91156">
        <ele>1388.6</ele>
        <time>2020-08-11T06:02:05Z</time>
      </trkpt>
      <trkpt lat="45.14485" lon="5.91157">
        <ele>1388.8</ele>
        <time>2020-08-11T06:02:06Z</time>
      </trkpt>
      <trkpt lat="45.14485" lon="5.91157">
        <ele>1389.2</ele>
        <time>2020-08-11T06:02:07Z</time>
      </trkpt>
      <trkpt lat="45.14485" lon="5.91157">
        <ele>1389.4</ele>
        <time>2020-08-11T06:02:08Z</time>
      </trkpt>
      <trkpt lat="45.14486" lon="5.91157">
        <ele>1389.6</ele>
        <time>2020-08-11T06:02:09Z</time>
      </trkpt>
      <trkpt lat="45.14486" lon="5.91157">
        <ele>1389.8</ele>
        <time>2020-08-11T06:02:10Z</time>
      </trkpt>
      <trkpt lat="45.14486" lon="5.91157">
        <ele>1390</ele>
        <time>2020-08-11T06:02:11Z</time>
      </trkpt>
      <trkpt lat="45.14487" lon="5.91158">
        <ele>1390</ele>
        <time>2020-08-11T06:02:12Z</time>
      </trkpt>
      <trkpt lat="45.14487" lon="5.91158">
        <ele>1390.4</ele>
        <time>2020-08-11T06:02:13Z</time>
      </trkpt>
      <trkpt lat="45.14487" lon="5.91158">
        <ele>1390.6</ele>
        <time>2020-08-11T06:02:14Z</time>
      </trkpt>
      <trkpt lat="45.14488" lon="5.91158">
        <ele>1390.8</ele>
        <time>2020-08-11T06:02:15Z</time>
      </trkpt>
      <trkpt lat="45.14488" lon="5.91158">
        <ele>1391</ele>
        <time>2020-08-11T06:02:16Z</time>
      </trkpt>
      <trkpt lat="45.14488" lon="5.91158">
        <ele>1391.2</ele>
        <time>2020-08-11T06:02:17Z</time>
      </trkpt>
      <trkpt lat="45.14489" lon="5.91159">
        <ele>1391.2</ele>
        <time>2020-08-11T06:02:18Z</time>
      </trkpt>
      <trkpt lat="45.14489" lon="5.91159">
        <ele>1391.2</ele>
        <time>2020-08-11T06:02:19Z</time>
      </trkpt>
      <trkpt lat="45.14489" lon="5.91159">
        <ele>1391.4</ele>
        <time>2020-08-11T06:02:20Z</time>
      </trkpt>
      <trkpt lat="45.1449" lon="5.91159">
        <ele>1391.4</ele>
        <time>2020-08-11T06:02:21Z</time>
      </trkpt>
      <trkpt lat="45.1449" lon="5.91159">
        <ele>1392</ele>
        <time>2020-08-11T06:02:22Z</time>
      </trkpt>
      <trkpt lat="45.1449" lon="5.91159">
        <ele>1392</ele>
        <time>2020-08-11T06:02:23Z</time>
      </trkpt>
      <trkpt lat="45.14491" lon="5.9116">
        <ele>1392</ele>
        <time>2020-08-11T06:02:24Z</time>
      </trkpt>
      <trkpt lat="45.14491" lon="5.9116">
        <ele>1392.2</ele>
        <time>2020-08-11T06:02:25Z</time>
      </trkpt>
      <trkpt lat="45.14491" lon="5.9116">
        <ele>1392</ele>
        <time>2020-08-11T06:02:26Z</time>
      </trkpt>
      <trkpt lat="45.14492" lon="5.9116">
        <ele>1392.2</ele>
        <time>2020-08-11T06:02:27Z</time>
      </trkpt>
      <trkpt lat="45.14492" lon="5.9116">
        <ele>1392.2</ele>
        <time>2020-08-11T06:02:28Z</time>
      </trkpt>
      <trkpt lat="45.14492" lon="5.9116">
        <ele>1392.2</ele>
        <time>2020-08-11T06:02:29Z</time>
      </trkpt>
      <trkpt lat="45.14493" lon="5.9116">
        <ele>1392.2</ele>
        <time>2020-08-11T06:02:30Z</time>
      </trkpt>
      <trkpt lat="45.14493" lon="5.91161">
        <ele>1392.2</ele>
        <time>2020-08-11T06:02:31Z</time>
      </trkpt>
      <trkpt lat="45.14493" lon="5.91161">
        <ele>1392.2</ele>
        <time>2020-08-11T06:02:32Z</time>
      </trkpt>
      <trkpt lat="45.14494" lon="5.91161">
        <ele>1392.2</ele>
        <time>2020-08-11T06:02:33Z</time>
      </trkpt>
      <trkpt lat="45.14494" lon="5.91161">
        <ele>1392.2</ele>
        <time>2020-08-11T06:02:34Z</time>
      </trkpt>
      <trkpt lat="45.14494" lon="5.91161">
        <ele>1392.4</ele>
        <time>2020-08-11T06:02:35Z</time>
      </trkpt>
      <trkpt lat="45.14495" lon="5.91161">
        <ele>1392.2</ele>
        <time>2020-08-11T06:02:36Z</time>
      </trkpt>
      <trkpt lat="45.14495" lon="5.91162">
        <ele>1392.6</ele>
        <time>2020-08-11T06:02:37Z</time>
      </trkpt>
      <trkpt lat="45.14495" lon="5.91162">
        <ele>1392.8</ele>
        <time>2020-08-11T06:02:38Z</time>
      </trkpt>
      <trkpt lat="45.14496" lon="5.91162">
        <ele>1392.8</ele>
        <time>2020-08-11T06:02:39Z</time>
      </trkpt>
      <trkpt lat="45.14497" lon="5.91162">
        <ele>1392.8</ele>
        <time>2020-08-11T06:02:40Z</time>
      </trkpt>
      <trkpt lat="45.14498" lon="5.91162">
        <ele>1393</ele>
        <time>2020-08-11T06:02:41Z</time>
      </trkpt>
      <trkpt lat="45.14499" lon="5.91161">
        <ele>1393.4</ele>
        <time>2020-08-11T06:02:42Z</time>
      </trkpt>
      <trkpt lat="45.145" lon="5.91161">
        <ele>1393.4</ele>
        <time>2020-08-11T06:02:43Z</time>
      </trkpt>
      <trkpt lat="45.14501" lon="5.91161">
        <ele>1393.6</ele>
        <time>2020-08-11T06:02:44Z</time>
      </trkpt>
      <trkpt lat="45.14502" lon="5.91161">
        <ele>1393.8</ele>
        <time>2020-08-11T06:02:45Z</time>
      </trkpt>
      <trkpt lat="45.14503" lon="5.91161">
        <ele>1394</ele>
        <time>2020-08-11T06:02:46Z</time>
      </trkpt>
      <trkpt lat="45.14504" lon="5.91161">
        <ele>1394.4</ele>
        <time>2020-08-11T06:02:47Z</time>
      </trkpt>
      <trkpt lat="45.14506" lon="5.91161">
        <ele>1394.6</ele>
        <time>2020-08-11T06:02:48Z</time>
      </trkpt>
      <trkpt lat="45.14507" lon="5.9116">
        <ele>1394.8</ele>
        <time>2020-08-11T06:02:49Z</time>
      </trkpt>
      <trkpt lat="45.14508" lon="5.91159">
        <ele>1394.8</ele>
        <time>2020-08-11T06:02:50Z</time>
      </trkpt>
      <trkpt lat="45.1451" lon="5.91159">
        <ele>1395.2</ele>
        <time>2020-08-11T06:02:51Z</time>
      </trkpt>
      <trkpt lat="45.14511" lon="5.91158">
        <ele>1395.2</ele>
        <time>2020-08-11T06:02:52Z</time>
      </trkpt>
      <trkpt lat="45.14512" lon="5.91158">
        <ele>1395.8</ele>
        <time>2020-08-11T06:02:53Z</time>
      </trkpt>
      <trkpt lat="45.14514" lon="5.91157">
        <ele>1395.8</ele>
        <time>2020-08-11T06:02:54Z</time>
      </trkpt>
      <trkpt lat="45.14515" lon="5.91159">
        <ele>1396</ele>
        <time>2020-08-11T06:02:55Z</time>
      </trkpt>
      <trkpt lat="45.14516" lon="5.9116">
        <ele>1396</ele>
        <time>2020-08-11T06:02:56Z</time>
      </trkpt>
      <trkpt lat="45.14517" lon="5.91161">
        <ele>1396.2</ele>
        <time>2020-08-11T06:02:57Z</time>
      </trkpt>
      <trkpt lat="45.14518" lon="5.91163">
        <ele>1396.4</ele>
        <time>2020-08-11T06:02:58Z</time>
      </trkpt>
      <trkpt lat="45.14519" lon="5.91164">
        <ele>1397.2</ele>
        <time>2020-08-11T06:02:59Z</time>
      </trkpt>
      <trkpt lat="45.1452" lon="5.91165">
        <ele>1397.8</ele>
        <time>2020-08-11T06:03:00Z</time>
      </trkpt>
      <trkpt lat="45.14521" lon="5.91167">
        <ele>1398.4</ele>
        <time>2020-08-11T06:03:01Z</time>
      </trkpt>
      <trkpt lat="45.14522" lon="5.91169">
        <ele>1398.4</ele>
        <time>2020-08-11T06:03:02Z</time>
      </trkpt>
      <trkpt lat="45.14523" lon="5.91172">
        <ele>1398.4</ele>
        <time>2020-08-11T06:03:03Z</time>
      </trkpt>
      <trkpt lat="45.14524" lon="5.91175">
        <ele>1398.4</ele>
        <time>2020-08-11T06:03:04Z</time>
      </trkpt>
      <trkpt lat="45.14524" lon="5.91178">
        <ele>1398.4</ele>
        <time>2020-08-11T06:03:05Z</time>
      </trkpt>
      <trkpt lat="45.14525" lon="5.9118">
        <ele>1398.6</ele>
        <time>2020-08-11T06:03:06Z</time>
      </trkpt>
      <trkpt lat="45.14526" lon="5.91181">
        <ele>1398.8</ele>
        <time>2020-08-11T06:03:07Z</time>
      </trkpt>
      <trkpt lat="45.14527" lon="5.91182">
        <ele>1399.2</ele>
        <time>2020-08-11T06:03:08Z</time>
      </trkpt>
      <trkpt lat="45.14527" lon="5.91183">
        <ele>1399.2</ele>
        <time>2020-08-11T06:03:09Z</time>
      </trkpt>
      <trkpt lat="45.14528" lon="5.91184">
        <ele>1399.4</ele>
        <time>2020-08-11T06:03:10Z</time>
      </trkpt>
      <trkpt lat="45.14529" lon="5.91185">
        <ele>1399.6</ele>
        <time>2020-08-11T06:03:11Z</time>
      </trkpt>
      <trkpt lat="45.14529" lon="5.91186">
        <ele>1399.6</ele>
        <time>2020-08-11T06:03:12Z</time>
      </trkpt>
      <trkpt lat="45.1453" lon="5.91187">
        <ele>1399.6</ele>
        <time>2020-08-11T06:03:13Z</time>
      </trkpt>
      <trkpt lat="45.14531" lon="5.91188">
        <ele>1399.8</ele>
        <time>2020-08-11T06:03:14Z</time>
      </trkpt>
      <trkpt lat="45.14531" lon="5.91189">
        <ele>1400.2</ele>
        <time>2020-08-11T06:03:15Z</time>
      </trkpt>
      <trkpt lat="45.14532" lon="5.9119">
        <ele>1400.6</ele>
        <time>2020-08-11T06:03:16Z</time>
      </trkpt>
      <trkpt lat="45.14533" lon="5.91191">
        <ele>1400.8</ele>
        <time>2020-08-11T06:03:17Z</time>
      </trkpt>
      <trkpt lat="45.14533" lon="5.91192">
        <ele>1401</ele>
        <time>2020-08-11T06:03:18Z</time>
      </trkpt>
      <trkpt lat="45.14533" lon="5.91193">
        <ele>1401</ele>
        <time>2020-08-11T06:03:19Z</time>
      </trkpt>
      <trkpt lat="45.14534" lon="5.91194">
        <ele>1401.2</ele>
        <time>2020-08-11T06:03:20Z</time>
      </trkpt>
      <trkpt lat="45.14534" lon="5.91195">
        <ele>1401.2</ele>
        <time>2020-08-11T06:03:21Z</time>
      </trkpt>
      <trkpt lat="45.14534" lon="5.91196">
        <ele>1401.4</ele>
        <time>2020-08-11T06:03:22Z</time>
      </trkpt>
      <trkpt lat="45.14535" lon="5.91197">
        <ele>1401.6</ele>
        <time>2020-08-11T06:03:23Z</time>
      </trkpt>
      <trkpt lat="45.14535" lon="5.91199">
        <ele>1401.8</ele>
        <time>2020-08-11T06:03:24Z</time>
      </trkpt>
      <trkpt lat="45.14535" lon="5.912">
        <ele>1402.2</ele>
        <time>2020-08-11T06:03:25Z</time>
      </trkpt>
      <trkpt lat="45.14536" lon="5.91201">
        <ele>1402.4</ele>
        <time>2020-08-11T06:03:26Z</time>
      </trkpt>
      <trkpt lat="45.14536" lon="5.91202">
        <ele>1402.8</ele>
        <time>2020-08-11T06:03:27Z</time>
      </trkpt>
      <trkpt lat="45.14537" lon="5.91203">
        <ele>1402.8</ele>
        <time>2020-08-11T06:03:28Z</time>
      </trkpt>
      <trkpt lat="45.14537" lon="5.91206">
        <ele>1403</ele>
        <time>2020-08-11T06:03:29Z</time>
      </trkpt>
      <trkpt lat="45.14538" lon="5.91208">
        <ele>1403.2</ele>
        <time>2020-08-11T06:03:30Z</time>
      </trkpt>
      <trkpt lat="45.14538" lon="5.91211">
        <ele>1403.4</ele>
        <time>2020-08-11T06:03:31Z</time>
      </trkpt>
      <trkpt lat="45.14539" lon="5.91213">
        <ele>1403.6</ele>
        <time>2020-08-11T06:03:32Z</time>
      </trkpt>
      <trkpt lat="45.1454" lon="5.91216">
        <ele>1403.8</ele>
        <time>2020-08-11T06:03:33Z</time>
      </trkpt>
      <trkpt lat="45.1454" lon="5.91218">
        <ele>1404.2</ele>
        <time>2020-08-11T06:03:34Z</time>
      </trkpt>
      <trkpt lat="45.14541" lon="5.91219">
        <ele>1404.4</ele>
        <time>2020-08-11T06:03:35Z</time>
      </trkpt>
      <trkpt lat="45.14542" lon="5.9122">
        <ele>1404.8</ele>
        <time>2020-08-11T06:03:36Z</time>
      </trkpt>
      <trkpt lat="45.14543" lon="5.91221">
        <ele>1405</ele>
        <time>2020-08-11T06:03:37Z</time>
      </trkpt>
      <trkpt lat="45.14543" lon="5.91222">
        <ele>1405.2</ele>
        <time>2020-08-11T06:03:38Z</time>
      </trkpt>
      <trkpt lat="45.14544" lon="5.91222">
        <ele>1405.6</ele>
        <time>2020-08-11T06:03:39Z</time>
      </trkpt>
      <trkpt lat="45.14545" lon="5.91223">
        <ele>1405.8</ele>
        <time>2020-08-11T06:03:40Z</time>
      </trkpt>
      <trkpt lat="45.14546" lon="5.91224">
        <ele>1406</ele>
        <time>2020-08-11T06:03:41Z</time>
      </trkpt>
      <trkpt lat="45.14546" lon="5.91225">
        <ele>1406.2</ele>
        <time>2020-08-11T06:03:42Z</time>
      </trkpt>
      <trkpt lat="45.14547" lon="5.91226">
        <ele>1406.8</ele>
        <time>2020-08-11T06:03:43Z</time>
      </trkpt>
      <trkpt lat="45.14548" lon="5.91227">
        <ele>1406.8</ele>
        <time>2020-08-11T06:03:44Z</time>
      </trkpt>
      <trkpt lat="45.14549" lon="5.91227">
        <ele>1406.8</ele>
        <time>2020-08-11T06:03:45Z</time>
      </trkpt>
      <trkpt lat="45.14549" lon="5.91228">
        <ele>1406.8</ele>
        <time>2020-08-11T06:03:46Z</time>
      </trkpt>
      <trkpt lat="45.1455" lon="5.91229">
        <ele>1407.4</ele>
        <time>2020-08-11T06:03:47Z</time>
      </trkpt>
      <trkpt lat="45.1455" lon="5.9123">
        <ele>1407.6</ele>
        <time>2020-08-11T06:03:48Z</time>
      </trkpt>
      <trkpt lat="45.14551" lon="5.91231">
        <ele>1407.6</ele>
        <time>2020-08-11T06:03:49Z</time>
      </trkpt>
      <trkpt lat="45.14552" lon="5.91231">
        <ele>1407.8</ele>
        <time>2020-08-11T06:03:50Z</time>
      </trkpt>
      <trkpt lat="45.14552" lon="5.91232">
        <ele>1408</ele>
        <time>2020-08-11T06:03:51Z</time>
      </trkpt>
      <trkpt lat="45.14553" lon="5.91233">
        <ele>1408.2</ele>
        <time>2020-08-11T06:03:52Z</time>
      </trkpt>
      <trkpt lat="45.14553" lon="5.91234">
        <ele>1408.6</ele>
        <time>2020-08-11T06:03:53Z</time>
      </trkpt>
      <trkpt lat="45.14554" lon="5.91235">
        <ele>1408.8</ele>
        <time>2020-08-11T06:03:54Z</time>
      </trkpt>
      <trkpt lat="45.14555" lon="5.91236">
        <ele>1409</ele>
        <time>2020-08-11T06:03:55Z</time>
      </trkpt>
      <trkpt lat="45.14555" lon="5.91236">
        <ele>1409.2</ele>
        <time>2020-08-11T06:03:56Z</time>
      </trkpt>
      <trkpt lat="45.14556" lon="5.91239">
        <ele>1409.2</ele>
        <time>2020-08-11T06:03:57Z</time>
      </trkpt>
      <trkpt lat="45.14556" lon="5.91241">
        <ele>1409.6</ele>
        <time>2020-08-11T06:03:58Z</time>
      </trkpt>
      <trkpt lat="45.14556" lon="5.91243">
        <ele>1409.8</ele>
        <time>2020-08-11T06:03:59Z</time>
      </trkpt>
      <trkpt lat="45.14556" lon="5.91245">
        <ele>1410.2</ele>
        <time>2020-08-11T06:04:00Z</time>
      </trkpt>
      <trkpt lat="45.14557" lon="5.91247">
        <ele>1410.4</ele>
        <time>2020-08-11T06:04:01Z</time>
      </trkpt>
      <trkpt lat="45.14557" lon="5.9125">
        <ele>1410.6</ele>
        <time>2020-08-11T06:04:02Z</time>
      </trkpt>
      <trkpt lat="45.14557" lon="5.91251">
        <ele>1410.6</ele>
        <time>2020-08-11T06:04:03Z</time>
      </trkpt>
      <trkpt lat="45.14557" lon="5.91252">
        <ele>1411</ele>
        <time>2020-08-11T06:04:04Z</time>
      </trkpt>
      <trkpt lat="45.14556" lon="5.91253">
        <ele>1411.2</ele>
        <time>2020-08-11T06:04:05Z</time>
      </trkpt>
      <trkpt lat="45.14556" lon="5.91254">
        <ele>1411.4</ele>
        <time>2020-08-11T06:04:06Z</time>
      </trkpt>
      <trkpt lat="45.14556" lon="5.91255">
        <ele>1411.6</ele>
        <time>2020-08-11T06:04:07Z</time>
      </trkpt>
      <trkpt lat="45.14556" lon="5.91256">
        <ele>1411.6</ele>
        <time>2020-08-11T06:04:08Z</time>
      </trkpt>
      <trkpt lat="45.14556" lon="5.91257">
        <ele>1412</ele>
        <time>2020-08-11T06:04:09Z</time>
      </trkpt>
      <trkpt lat="45.14556" lon="5.91258">
        <ele>1412</ele>
        <time>2020-08-11T06:04:10Z</time>
      </trkpt>
      <trkpt lat="45.14556" lon="5.91259">
        <ele>1412.2</ele>
        <time>2020-08-11T06:04:11Z</time>
      </trkpt>
      <trkpt lat="45.14556" lon="5.9126">
        <ele>1412.4</ele>
        <time>2020-08-11T06:04:12Z</time>
      </trkpt>
      <trkpt lat="45.14556" lon="5.91262">
        <ele>1412.8</ele>
        <time>2020-08-11T06:04:13Z</time>
      </trkpt>
      <trkpt lat="45.14555" lon="5.91263">
        <ele>1413</ele>
        <time>2020-08-11T06:04:14Z</time>
      </trkpt>
      <trkpt lat="45.14555" lon="5.91264">
        <ele>1413.2</ele>
        <time>2020-08-11T06:04:15Z</time>
      </trkpt>
      <trkpt lat="45.14555" lon="5.91265">
        <ele>1413.6</ele>
        <time>2020-08-11T06:04:16Z</time>
      </trkpt>
      <trkpt lat="45.14555" lon="5.91266">
        <ele>1413.6</ele>
        <time>2020-08-11T06:04:17Z</time>
      </trkpt>
      <trkpt lat="45.14555" lon="5.91268">
        <ele>1414</ele>
        <time>2020-08-11T06:04:18Z</time>
      </trkpt>
      <trkpt lat="45.14555" lon="5.91269">
        <ele>1414</ele>
        <time>2020-08-11T06:04:19Z</time>
      </trkpt>
      <trkpt lat="45.14555" lon="5.9127">
        <ele>1414.4</ele>
        <time>2020-08-11T06:04:20Z</time>
      </trkpt>
      <trkpt lat="45.14555" lon="5.91271">
        <ele>1414.8</ele>
        <time>2020-08-11T06:04:21Z</time>
      </trkpt>
      <trkpt lat="45.14555" lon="5.91273">
        <ele>1414.8</ele>
        <time>2020-08-11T06:04:22Z</time>
      </trkpt>
      <trkpt lat="45.14555" lon="5.91274">
        <ele>1415.2</ele>
        <time>2020-08-11T06:04:23Z</time>
      </trkpt>
      <trkpt lat="45.14555" lon="5.91275">
        <ele>1415.2</ele>
        <time>2020-08-11T06:04:24Z</time>
      </trkpt>
      <trkpt lat="45.14555" lon="5.91276">
        <ele>1415.6</ele>
        <time>2020-08-11T06:04:25Z</time>
      </trkpt>
      <trkpt lat="45.14555" lon="5.91277">
        <ele>1415.8</ele>
        <time>2020-08-11T06:04:26Z</time>
      </trkpt>
      <trkpt lat="45.14555" lon="5.91279">
        <ele>1416</ele>
        <time>2020-08-11T06:04:27Z</time>
      </trkpt>
      <trkpt lat="45.14555" lon="5.9128">
        <ele>1416</ele>
        <time>2020-08-11T06:04:28Z</time>
      </trkpt>
      <trkpt lat="45.14555" lon="5.91281">
        <ele>1416.4</ele>
        <time>2020-08-11T06:04:29Z</time>
      </trkpt>
      <trkpt lat="45.14555" lon="5.91282">
        <ele>1416.6</ele>
        <time>2020-08-11T06:04:30Z</time>
      </trkpt>
      <trkpt lat="45.14555" lon="5.91283">
        <ele>1416.8</ele>
        <time>2020-08-11T06:04:31Z</time>
      </trkpt>
      <trkpt lat="45.14555" lon="5.91284">
        <ele>1417.2</ele>
        <time>2020-08-11T06:04:32Z</time>
      </trkpt>
      <trkpt lat="45.14556" lon="5.91285">
        <ele>1417.2</ele>
        <time>2020-08-11T06:04:33Z</time>
      </trkpt>
      <trkpt lat="45.14556" lon="5.91286">
        <ele>1417.6</ele>
        <time>2020-08-11T06:04:34Z</time>
      </trkpt>
      <trkpt lat="45.14556" lon="5.91288">
        <ele>1417.8</ele>
        <time>2020-08-11T06:04:35Z</time>
      </trkpt>
      <trkpt lat="45.14556" lon="5.91289">
        <ele>1418</ele>
        <time>2020-08-11T06:04:36Z</time>
      </trkpt>
      <trkpt lat="45.14556" lon="5.9129">
        <ele>1418.2</ele>
        <time>2020-08-11T06:04:37Z</time>
      </trkpt>
      <trkpt lat="45.14556" lon="5.91292">
        <ele>1418.2</ele>
        <time>2020-08-11T06:04:38Z</time>
      </trkpt>
      <trkpt lat="45.14557" lon="5.91294">
        <ele>1418.6</ele>
        <time>2020-08-11T06:04:39Z</time>
      </trkpt>
      <trkpt lat="45.14557" lon="5.91296">
        <ele>1418.8</ele>
        <time>2020-08-11T06:04:40Z</time>
      </trkpt>
      <trkpt lat="45.14557" lon="5.91298">
        <ele>1419</ele>
        <time>2020-08-11T06:04:41Z</time>
      </trkpt>
      <trkpt lat="45.14557" lon="5.91299">
        <ele>1419.2</ele>
        <time>2020-08-11T06:04:42Z</time>
      </trkpt>
      <trkpt lat="45.14558" lon="5.91301">
        <ele>1419.4</ele>
        <time>2020-08-11T06:04:43Z</time>
      </trkpt>
      <trkpt lat="45.14558" lon="5.91303">
        <ele>1419.6</ele>
        <time>2020-08-11T06:04:44Z</time>
      </trkpt>
      <trkpt lat="45.14558" lon="5.91305">
        <ele>1419.8</ele>
        <time>2020-08-11T06:04:45Z</time>
      </trkpt>
      <trkpt lat="45.14558" lon="5.91306">
        <ele>1420.2</ele>
        <time>2020-08-11T06:04:46Z</time>
      </trkpt>
      <trkpt lat="45.14558" lon="5.91308">
        <ele>1420.4</ele>
        <time>2020-08-11T06:04:47Z</time>
      </trkpt>
      <trkpt lat="45.14558" lon="5.91309">
        <ele>1420.6</ele>
        <time>2020-08-11T06:04:48Z</time>
      </trkpt>
      <trkpt lat="45.14558" lon="5.91311">
        <ele>1421</ele>
        <time>2020-08-11T06:04:49Z</time>
      </trkpt>
      <trkpt lat="45.14558" lon="5.91312">
        <ele>1421.2</ele>
        <time>2020-08-11T06:04:50Z</time>
      </trkpt>
      <trkpt lat="45.14558" lon="5.91314">
        <ele>1421.4</ele>
        <time>2020-08-11T06:04:51Z</time>
      </trkpt>
      <trkpt lat="45.14558" lon="5.91315">
        <ele>1421.4</ele>
        <time>2020-08-11T06:04:52Z</time>
      </trkpt>
      <trkpt lat="45.14559" lon="5.91317">
        <ele>1421.8</ele>
        <time>2020-08-11T06:04:53Z</time>
      </trkpt>
      <trkpt lat="45.14559" lon="5.91318">
        <ele>1422</ele>
        <time>2020-08-11T06:04:54Z</time>
      </trkpt>
      <trkpt lat="45.1456" lon="5.91319">
        <ele>1422.2</ele>
        <time>2020-08-11T06:04:55Z</time>
      </trkpt>
      <trkpt lat="45.1456" lon="5.9132">
        <ele>1422.2</ele>
        <time>2020-08-11T06:04:56Z</time>
      </trkpt>
      <trkpt lat="45.14561" lon="5.91321">
        <ele>1422.6</ele>
        <time>2020-08-11T06:04:57Z</time>
      </trkpt>
      <trkpt lat="45.14561" lon="5.91321">
        <ele>1422.8</ele>
        <time>2020-08-11T06:04:58Z</time>
      </trkpt>
      <trkpt lat="45.14562" lon="5.91322">
        <ele>1422.8</ele>
        <time>2020-08-11T06:04:59Z</time>
      </trkpt>
      <trkpt lat="45.14562" lon="5.91323">
        <ele>1423.2</ele>
        <time>2020-08-11T06:05:00Z</time>
      </trkpt>
      <trkpt lat="45.14563" lon="5.91324">
        <ele>1423.6</ele>
        <time>2020-08-11T06:05:01Z</time>
      </trkpt>
      <trkpt lat="45.14564" lon="5.91325">
        <ele>1423.8</ele>
        <time>2020-08-11T06:05:02Z</time>
      </trkpt>
      <trkpt lat="45.14564" lon="5.91326">
        <ele>1424</ele>
        <time>2020-08-11T06:05:03Z</time>
      </trkpt>
      <trkpt lat="45.14565" lon="5.91327">
        <ele>1424</ele>
        <time>2020-08-11T06:05:04Z</time>
      </trkpt>
      <trkpt lat="45.14565" lon="5.91328">
        <ele>1424.2</ele>
        <time>2020-08-11T06:05:05Z</time>
      </trkpt>
      <trkpt lat="45.14566" lon="5.91329">
        <ele>1424.6</ele>
        <time>2020-08-11T06:05:06Z</time>
      </trkpt>
      <trkpt lat="45.14567" lon="5.9133">
        <ele>1425</ele>
        <time>2020-08-11T06:05:07Z</time>
      </trkpt>
      <trkpt lat="45.14567" lon="5.91332">
        <ele>1425.2</ele>
        <time>2020-08-11T06:05:08Z</time>
      </trkpt>
      <trkpt lat="45.14568" lon="5.91333">
        <ele>1425.4</ele>
        <time>2020-08-11T06:05:09Z</time>
      </trkpt>
      <trkpt lat="45.14569" lon="5.91334">
        <ele>1425.6</ele>
        <time>2020-08-11T06:05:10Z</time>
      </trkpt>
      <trkpt lat="45.14569" lon="5.91335">
        <ele>1425.8</ele>
        <time>2020-08-11T06:05:11Z</time>
      </trkpt>
      <trkpt lat="45.1457" lon="5.91336">
        <ele>1426</ele>
        <time>2020-08-11T06:05:12Z</time>
      </trkpt>
      <trkpt lat="45.14571" lon="5.91338">
        <ele>1426.2</ele>
        <time>2020-08-11T06:05:13Z</time>
      </trkpt>
      <trkpt lat="45.14571" lon="5.91338">
        <ele>1426.6</ele>
        <time>2020-08-11T06:05:14Z</time>
      </trkpt>
      <trkpt lat="45.14571" lon="5.91339">
        <ele>1426.8</ele>
        <time>2020-08-11T06:05:15Z</time>
      </trkpt>
      <trkpt lat="45.14572" lon="5.91339">
        <ele>1427</ele>
        <time>2020-08-11T06:05:16Z</time>
      </trkpt>
      <trkpt lat="45.14572" lon="5.9134">
        <ele>1427.2</ele>
        <time>2020-08-11T06:05:17Z</time>
      </trkpt>
      <trkpt lat="45.14572" lon="5.9134">
        <ele>1427.4</ele>
        <time>2020-08-11T06:05:18Z</time>
      </trkpt>
      <trkpt lat="45.14572" lon="5.91341">
        <ele>1427.4</ele>
        <time>2020-08-11T06:05:19Z</time>
      </trkpt>
      <trkpt lat="45.14573" lon="5.91341">
        <ele>1427.6</ele>
        <time>2020-08-11T06:05:20Z</time>
      </trkpt>
      <trkpt lat="45.14573" lon="5.91342">
        <ele>1427.8</ele>
        <time>2020-08-11T06:05:21Z</time>
      </trkpt>
      <trkpt lat="45.14573" lon="5.91343">
        <ele>1428.2</ele>
        <time>2020-08-11T06:05:22Z</time>
      </trkpt>
      <trkpt lat="45.14574" lon="5.91343">
        <ele>1428.2</ele>
        <time>2020-08-11T06:05:23Z</time>
      </trkpt>
      <trkpt lat="45.14574" lon="5.91344">
        <ele>1428.6</ele>
        <time>2020-08-11T06:05:24Z</time>
      </trkpt>
      <trkpt lat="45.14574" lon="5.91344">
        <ele>1429</ele>
        <time>2020-08-11T06:05:25Z</time>
      </trkpt>
      <trkpt lat="45.14574" lon="5.91345">
        <ele>1429.2</ele>
        <time>2020-08-11T06:05:26Z</time>
      </trkpt>
      <trkpt lat="45.14575" lon="5.91345">
        <ele>1429.2</ele>
        <time>2020-08-11T06:05:27Z</time>
      </trkpt>
      <trkpt lat="45.14575" lon="5.91346">
        <ele>1429.4</ele>
        <time>2020-08-11T06:05:28Z</time>
      </trkpt>
      <trkpt lat="45.14575" lon="5.91346">
        <ele>1429.8</ele>
        <time>2020-08-11T06:05:29Z</time>
      </trkpt>
      <trkpt lat="45.14576" lon="5.91347">
        <ele>1429.8</ele>
        <time>2020-08-11T06:05:30Z</time>
      </trkpt>
      <trkpt lat="45.14576" lon="5.91347">
        <ele>1430</ele>
        <time>2020-08-11T06:05:31Z</time>
      </trkpt>
      <trkpt lat="45.14576" lon="5.91348">
        <ele>1430.2</ele>
        <time>2020-08-11T06:05:32Z</time>
      </trkpt>
      <trkpt lat="45.14577" lon="5.91349">
        <ele>1430.4</ele>
        <time>2020-08-11T06:05:33Z</time>
      </trkpt>
      <trkpt lat="45.14578" lon="5.9135">
        <ele>1430.8</ele>
        <time>2020-08-11T06:05:34Z</time>
      </trkpt>
      <trkpt lat="45.14578" lon="5.91352">
        <ele>1431</ele>
        <time>2020-08-11T06:05:35Z</time>
      </trkpt>
      <trkpt lat="45.14579" lon="5.91353">
        <ele>1431.2</ele>
        <time>2020-08-11T06:05:36Z</time>
      </trkpt>
      <trkpt lat="45.14579" lon="5.91354">
        <ele>1431.4</ele>
        <time>2020-08-11T06:05:37Z</time>
      </trkpt>
      <trkpt lat="45.1458" lon="5.91355">
        <ele>1431.6</ele>
        <time>2020-08-11T06:05:38Z</time>
      </trkpt>
      <trkpt lat="45.14581" lon="5.91356">
        <ele>1431.8</ele>
        <time>2020-08-11T06:05:39Z</time>
      </trkpt>
      <trkpt lat="45.14581" lon="5.91358">
        <ele>1432.2</ele>
        <time>2020-08-11T06:05:40Z</time>
      </trkpt>
      <trkpt lat="45.14582" lon="5.91359">
        <ele>1432.4</ele>
        <time>2020-08-11T06:05:41Z</time>
      </trkpt>
      <trkpt lat="45.14583" lon="5.91361">
        <ele>1432.4</ele>
        <time>2020-08-11T06:05:42Z</time>
      </trkpt>
      <trkpt lat="45.14584" lon="5.91362">
        <ele>1432.4</ele>
        <time>2020-08-11T06:05:43Z</time>
      </trkpt>
      <trkpt lat="45.14585" lon="5.91364">
        <ele>1432.6</ele>
        <time>2020-08-11T06:05:44Z</time>
      </trkpt>
      <trkpt lat="45.14586" lon="5.91366">
        <ele>1433</ele>
        <time>2020-08-11T06:05:45Z</time>
      </trkpt>
      <trkpt lat="45.14586" lon="5.91368">
        <ele>1433.4</ele>
        <time>2020-08-11T06:05:46Z</time>
      </trkpt>
      <trkpt lat="45.14587" lon="5.9137">
        <ele>1433.8</ele>
        <time>2020-08-11T06:05:47Z</time>
      </trkpt>
      <trkpt lat="45.14588" lon="5.91371">
        <ele>1434</ele>
        <time>2020-08-11T06:05:48Z</time>
      </trkpt>
      <trkpt lat="45.14588" lon="5.91372">
        <ele>1434.4</ele>
        <time>2020-08-11T06:05:49Z</time>
      </trkpt>
      <trkpt lat="45.14588" lon="5.91373">
        <ele>1434.6</ele>
        <time>2020-08-11T06:05:50Z</time>
      </trkpt>
      <trkpt lat="45.14588" lon="5.91374">
        <ele>1434.8</ele>
        <time>2020-08-11T06:05:51Z</time>
      </trkpt>
      <trkpt lat="45.14589" lon="5.91375">
        <ele>1435.2</ele>
        <time>2020-08-11T06:05:52Z</time>
      </trkpt>
      <trkpt lat="45.14589" lon="5.91376">
        <ele>1435.4</ele>
        <time>2020-08-11T06:05:53Z</time>
      </trkpt>
      <trkpt lat="45.14589" lon="5.91377">
        <ele>1435.6</ele>
        <time>2020-08-11T06:05:54Z</time>
      </trkpt>
      <trkpt lat="45.14589" lon="5.91378">
        <ele>1436</ele>
        <time>2020-08-11T06:05:55Z</time>
      </trkpt>
      <trkpt lat="45.1459" lon="5.91379">
        <ele>1436.2</ele>
        <time>2020-08-11T06:05:56Z</time>
      </trkpt>
      <trkpt lat="45.1459" lon="5.91381">
        <ele>1436.4</ele>
        <time>2020-08-11T06:05:57Z</time>
      </trkpt>
      <trkpt lat="45.1459" lon="5.91382">
        <ele>1436.8</ele>
        <time>2020-08-11T06:05:58Z</time>
      </trkpt>
      <trkpt lat="45.1459" lon="5.91383">
        <ele>1437.2</ele>
        <time>2020-08-11T06:05:59Z</time>
      </trkpt>
      <trkpt lat="45.1459" lon="5.91384">
        <ele>1437.6</ele>
        <time>2020-08-11T06:06:00Z</time>
      </trkpt>
      <trkpt lat="45.14589" lon="5.91385">
        <ele>1437.8</ele>
        <time>2020-08-11T06:06:01Z</time>
      </trkpt>
      <trkpt lat="45.14589" lon="5.91386">
        <ele>1438</ele>
        <time>2020-08-11T06:06:02Z</time>
      </trkpt>
      <trkpt lat="45.14588" lon="5.91387">
        <ele>1438.2</ele>
        <time>2020-08-11T06:06:03Z</time>
      </trkpt>
      <trkpt lat="45.14588" lon="5.91388">
        <ele>1438.4</ele>
        <time>2020-08-11T06:06:04Z</time>
      </trkpt>
      <trkpt lat="45.14588" lon="5.91389">
        <ele>1438.4</ele>
        <time>2020-08-11T06:06:05Z</time>
      </trkpt>
      <trkpt lat="45.14587" lon="5.91391">
        <ele>1438.8</ele>
        <time>2020-08-11T06:06:06Z</time>
      </trkpt>
      <trkpt lat="45.14587" lon="5.91392">
        <ele>1438.8</ele>
        <time>2020-08-11T06:06:07Z</time>
      </trkpt>
      <trkpt lat="45.14587" lon="5.91393">
        <ele>1439</ele>
        <time>2020-08-11T06:06:08Z</time>
      </trkpt>
      <trkpt lat="45.14586" lon="5.91394">
        <ele>1439.4</ele>
        <time>2020-08-11T06:06:09Z</time>
      </trkpt>
      <trkpt lat="45.14586" lon="5.91395">
        <ele>1439.6</ele>
        <time>2020-08-11T06:06:10Z</time>
      </trkpt>
      <trkpt lat="45.14586" lon="5.91395">
        <ele>1440</ele>
        <time>2020-08-11T06:06:11Z</time>
      </trkpt>
      <trkpt lat="45.14586" lon="5.91396">
        <ele>1440.2</ele>
        <time>2020-08-11T06:06:12Z</time>
      </trkpt>
      <trkpt lat="45.14586" lon="5.91397">
        <ele>1440.4</ele>
        <time>2020-08-11T06:06:13Z</time>
      </trkpt>
      <trkpt lat="45.14586" lon="5.91398">
        <ele>1440.6</ele>
        <time>2020-08-11T06:06:14Z</time>
      </trkpt>
      <trkpt lat="45.14586" lon="5.91399">
        <ele>1441.2</ele>
        <time>2020-08-11T06:06:15Z</time>
      </trkpt>
      <trkpt lat="45.14586" lon="5.91399">
        <ele>1441.4</ele>
        <time>2020-08-11T06:06:16Z</time>
      </trkpt>
      <trkpt lat="45.14586" lon="5.914">
        <ele>1441.6</ele>
        <time>2020-08-11T06:06:17Z</time>
      </trkpt>
      <trkpt lat="45.14586" lon="5.91401">
        <ele>1441.6</ele>
        <time>2020-08-11T06:06:18Z</time>
      </trkpt>
      <trkpt lat="45.14586" lon="5.91402">
        <ele>1442</ele>
        <time>2020-08-11T06:06:19Z</time>
      </trkpt>
      <trkpt lat="45.14586" lon="5.91403">
        <ele>1442.4</ele>
        <time>2020-08-11T06:06:20Z</time>
      </trkpt>
      <trkpt lat="45.14585" lon="5.91404">
        <ele>1442.4</ele>
        <time>2020-08-11T06:06:21Z</time>
      </trkpt>
      <trkpt lat="45.14585" lon="5.91404">
        <ele>1442.6</ele>
        <time>2020-08-11T06:06:22Z</time>
      </trkpt>
      <trkpt lat="45.14585" lon="5.91405">
        <ele>1442.8</ele>
        <time>2020-08-11T06:06:23Z</time>
      </trkpt>
      <trkpt lat="45.14585" lon="5.91406">
        <ele>1443</ele>
        <time>2020-08-11T06:06:24Z</time>
      </trkpt>
      <trkpt lat="45.14585" lon="5.91407">
        <ele>1443.2</ele>
        <time>2020-08-11T06:06:25Z</time>
      </trkpt>
      <trkpt lat="45.14586" lon="5.91409">
        <ele>1443.4</ele>
        <time>2020-08-11T06:06:26Z</time>
      </trkpt>
      <trkpt lat="45.14586" lon="5.91411">
        <ele>1443.8</ele>
        <time>2020-08-11T06:06:27Z</time>
      </trkpt>
      <trkpt lat="45.14587" lon="5.91413">
        <ele>1443.8</ele>
        <time>2020-08-11T06:06:28Z</time>
      </trkpt>
      <trkpt lat="45.14588" lon="5.91415">
        <ele>1444</ele>
        <time>2020-08-11T06:06:29Z</time>
      </trkpt>
      <trkpt lat="45.14588" lon="5.91417">
        <ele>1444.2</ele>
        <time>2020-08-11T06:06:30Z</time>
      </trkpt>
      <trkpt lat="45.14589" lon="5.91419">
        <ele>1444.2</ele>
        <time>2020-08-11T06:06:31Z</time>
      </trkpt>
      <trkpt lat="45.14589" lon="5.91421">
        <ele>1444.4</ele>
        <time>2020-08-11T06:06:32Z</time>
      </trkpt>
      <trkpt lat="45.1459" lon="5.91422">
        <ele>1444.8</ele>
        <time>2020-08-11T06:06:33Z</time>
      </trkpt>
      <trkpt lat="45.14591" lon="5.91424">
        <ele>1445</ele>
        <time>2020-08-11T06:06:34Z</time>
      </trkpt>
      <trkpt lat="45.14592" lon="5.91426">
        <ele>1445.2</ele>
        <time>2020-08-11T06:06:35Z</time>
      </trkpt>
      <trkpt lat="45.14593" lon="5.91428">
        <ele>1445</ele>
        <time>2020-08-11T06:06:36Z</time>
      </trkpt>
      <trkpt lat="45.14594" lon="5.91429">
        <ele>1445</ele>
        <time>2020-08-11T06:06:37Z</time>
      </trkpt>
      <trkpt lat="45.14595" lon="5.91431">
        <ele>1445.2</ele>
        <time>2020-08-11T06:06:38Z</time>
      </trkpt>
      <trkpt lat="45.14595" lon="5.91431">
        <ele>1445.2</ele>
        <time>2020-08-11T06:06:39Z</time>
      </trkpt>
      <trkpt lat="45.14594" lon="5.91432">
        <ele>1445</ele>
        <time>2020-08-11T06:06:40Z</time>
      </trkpt>
      <trkpt lat="45.14594" lon="5.91432">
        <ele>1445.2</ele>
        <time>2020-08-11T06:06:41Z</time>
      </trkpt>
      <trkpt lat="45.14594" lon="5.91432">
        <ele>1445.2</ele>
        <time>2020-08-11T06:06:42Z</time>
      </trkpt>
      <trkpt lat="45.14593" lon="5.91433">
        <ele>1445.4</ele>
        <time>2020-08-11T06:06:43Z</time>
      </trkpt>
      <trkpt lat="45.14593" lon="5.91433">
        <ele>1445.6</ele>
        <time>2020-08-11T06:06:44Z</time>
      </trkpt>
      <trkpt lat="45.14593" lon="5.91433">
        <ele>1445.4</ele>
        <time>2020-08-11T06:06:45Z</time>
      </trkpt>
      <trkpt lat="45.14593" lon="5.91434">
        <ele>1445.6</ele>
        <time>2020-08-11T06:06:46Z</time>
      </trkpt>
      <trkpt lat="45.14592" lon="5.91434">
        <ele>1445.6</ele>
        <time>2020-08-11T06:06:47Z</time>
      </trkpt>
      <trkpt lat="45.14592" lon="5.91434">
        <ele>1445.6</ele>
        <time>2020-08-11T06:06:48Z</time>
      </trkpt>
      <trkpt lat="45.14592" lon="5.91434">
        <ele>1445.4</ele>
        <time>2020-08-11T06:06:49Z</time>
      </trkpt>
      <trkpt lat="45.14591" lon="5.91435">
        <ele>1445.6</ele>
        <time>2020-08-11T06:06:50Z</time>
      </trkpt>
      <trkpt lat="45.14591" lon="5.91435">
        <ele>1445.8</ele>
        <time>2020-08-11T06:06:51Z</time>
      </trkpt>
      <trkpt lat="45.14591" lon="5.91435">
        <ele>1445.8</ele>
        <time>2020-08-11T06:06:52Z</time>
      </trkpt>
      <trkpt lat="45.14591" lon="5.91436">
        <ele>1445.8</ele>
        <time>2020-08-11T06:06:53Z</time>
      </trkpt>
      <trkpt lat="45.1459" lon="5.91436">
        <ele>1446</ele>
        <time>2020-08-11T06:06:54Z</time>
      </trkpt>
      <trkpt lat="45.1459" lon="5.91436">
        <ele>1446</ele>
        <time>2020-08-11T06:06:55Z</time>
      </trkpt>
      <trkpt lat="45.1459" lon="5.91436">
        <ele>1446</ele>
        <time>2020-08-11T06:06:56Z</time>
      </trkpt>
      <trkpt lat="45.14589" lon="5.91437">
        <ele>1445.8</ele>
        <time>2020-08-11T06:06:57Z</time>
      </trkpt>
      <trkpt lat="45.14589" lon="5.91437">
        <ele>1445.8</ele>
        <time>2020-08-11T06:06:58Z</time>
      </trkpt>
      <trkpt lat="45.14589" lon="5.91437">
        <ele>1446</ele>
        <time>2020-08-11T06:06:59Z</time>
      </trkpt>
      <trkpt lat="45.14588" lon="5.91438">
        <ele>1446.2</ele>
        <time>2020-08-11T06:07:00Z</time>
      </trkpt>
      <trkpt lat="45.14588" lon="5.91438">
        <ele>1446.2</ele>
        <time>2020-08-11T06:07:01Z</time>
      </trkpt>
      <trkpt lat="45.14588" lon="5.91438">
        <ele>1446.6</ele>
        <time>2020-08-11T06:07:02Z</time>
      </trkpt>
      <trkpt lat="45.14588" lon="5.91439">
        <ele>1447</ele>
        <time>2020-08-11T06:07:03Z</time>
      </trkpt>
      <trkpt lat="45.14587" lon="5.91439">
        <ele>1447.2</ele>
        <time>2020-08-11T06:07:04Z</time>
      </trkpt>
      <trkpt lat="45.14587" lon="5.91439">
        <ele>1447.2</ele>
        <time>2020-08-11T06:07:05Z</time>
      </trkpt>
      <trkpt lat="45.14587" lon="5.91439">
        <ele>1447.6</ele>
        <time>2020-08-11T06:07:06Z</time>
      </trkpt>
      <trkpt lat="45.14586" lon="5.9144">
        <ele>1448</ele>
        <time>2020-08-11T06:07:07Z</time>
      </trkpt>
      <trkpt lat="45.14583" lon="5.91437">
        <ele>1448.4</ele>
        <time>2020-08-11T06:07:08Z</time>
      </trkpt>
      <trkpt lat="45.14581" lon="5.91435">
        <ele>1448.6</ele>
        <time>2020-08-11T06:07:09Z</time>
      </trkpt>
      <trkpt lat="45.14578" lon="5.91432">
        <ele>1448.8</ele>
        <time>2020-08-11T06:07:10Z</time>
      </trkpt>
      <trkpt lat="45.14577" lon="5.91431">
        <ele>1449.2</ele>
        <time>2020-08-11T06:07:11Z</time>
      </trkpt>
      <trkpt lat="45.14577" lon="5.91429">
        <ele>1449.2</ele>
        <time>2020-08-11T06:07:12Z</time>
      </trkpt>
      <trkpt lat="45.14576" lon="5.91428">
        <ele>1449.6</ele>
        <time>2020-08-11T06:07:13Z</time>
      </trkpt>
      <trkpt lat="45.14575" lon="5.91426">
        <ele>1450</ele>
        <time>2020-08-11T06:07:14Z</time>
      </trkpt>
      <trkpt lat="45.14575" lon="5.91425">
        <ele>1450.2</ele>
        <time>2020-08-11T06:07:15Z</time>
      </trkpt>
      <trkpt lat="45.14574" lon="5.91424">
        <ele>1450.4</ele>
        <time>2020-08-11T06:07:16Z</time>
      </trkpt>
      <trkpt lat="45.14574" lon="5.91422">
        <ele>1450.6</ele>
        <time>2020-08-11T06:07:17Z</time>
      </trkpt>
      <trkpt lat="45.14573" lon="5.91421">
        <ele>1450.8</ele>
        <time>2020-08-11T06:07:18Z</time>
      </trkpt>
      <trkpt lat="45.14572" lon="5.91419">
        <ele>1450.8</ele>
        <time>2020-08-11T06:07:19Z</time>
      </trkpt>
      <trkpt lat="45.1457" lon="5.91418">
        <ele>1451</ele>
        <time>2020-08-11T06:07:20Z</time>
      </trkpt>
      <trkpt lat="45.14569" lon="5.91417">
        <ele>1450.8</ele>
        <time>2020-08-11T06:07:21Z</time>
      </trkpt>
      <trkpt lat="45.14568" lon="5.91415">
        <ele>1451</ele>
        <time>2020-08-11T06:07:22Z</time>
      </trkpt>
      <trkpt lat="45.14566" lon="5.91414">
        <ele>1451</ele>
        <time>2020-08-11T06:07:23Z</time>
      </trkpt>
      <trkpt lat="45.14565" lon="5.91412">
        <ele>1450.6</ele>
        <time>2020-08-11T06:07:24Z</time>
      </trkpt>
      <trkpt lat="45.14563" lon="5.9141">
        <ele>1450.6</ele>
        <time>2020-08-11T06:07:25Z</time>
      </trkpt>
      <trkpt lat="45.14561" lon="5.91408">
        <ele>1450.6</ele>
        <time>2020-08-11T06:07:26Z</time>
      </trkpt>
      <trkpt lat="45.14559" lon="5.91405">
        <ele>1451.2</ele>
        <time>2020-08-11T06:07:27Z</time>
      </trkpt>
      <trkpt lat="45.14557" lon="5.91403">
        <ele>1451.2</ele>
        <time>2020-08-11T06:07:28Z</time>
      </trkpt>
      <trkpt lat="45.14555" lon="5.91401">
        <ele>1451.6</ele>
        <time>2020-08-11T06:07:29Z</time>
      </trkpt>
      <trkpt lat="45.14552" lon="5.91399">
        <ele>1451.4</ele>
        <time>2020-08-11T06:07:30Z</time>
      </trkpt>
      <trkpt lat="45.1455" lon="5.91397">
        <ele>1451</ele>
        <time>2020-08-11T06:07:31Z</time>
      </trkpt>
      <trkpt lat="45.14547" lon="5.91396">
        <ele>1450.8</ele>
        <time>2020-08-11T06:07:32Z</time>
      </trkpt>
      <trkpt lat="45.14546" lon="5.91393">
        <ele>1450.6</ele>
        <time>2020-08-11T06:07:33Z</time>
      </trkpt>
      <trkpt lat="45.14545" lon="5.91391">
        <ele>1450.8</ele>
        <time>2020-08-11T06:07:34Z</time>
      </trkpt>
      <trkpt lat="45.14544" lon="5.91389">
        <ele>1450.4</ele>
        <time>2020-08-11T06:07:35Z</time>
      </trkpt>
      <trkpt lat="45.14542" lon="5.91387">
        <ele>1450</ele>
        <time>2020-08-11T06:07:36Z</time>
      </trkpt>
      <trkpt lat="45.14541" lon="5.91384">
        <ele>1449.6</ele>
        <time>2020-08-11T06:07:37Z</time>
      </trkpt>
      <trkpt lat="45.1454" lon="5.91383">
        <ele>1449.4</ele>
        <time>2020-08-11T06:07:38Z</time>
      </trkpt>
      <trkpt lat="45.1454" lon="5.91382">
        <ele>1449.6</ele>
        <time>2020-08-11T06:07:39Z</time>
      </trkpt>
      <trkpt lat="45.14539" lon="5.9138">
        <ele>1449.6</ele>
        <time>2020-08-11T06:07:40Z</time>
      </trkpt>
      <trkpt lat="45.14539" lon="5.91379">
        <ele>1449.6</ele>
        <time>2020-08-11T06:07:41Z</time>
      </trkpt>
      <trkpt lat="45.14538" lon="5.91377">
        <ele>1449.6</ele>
        <time>2020-08-11T06:07:42Z</time>
      </trkpt>
      <trkpt lat="45.14538" lon="5.91376">
        <ele>1449.6</ele>
        <time>2020-08-11T06:07:43Z</time>
      </trkpt>
      <trkpt lat="45.14537" lon="5.91374">
        <ele>1449.8</ele>
        <time>2020-08-11T06:07:44Z</time>
      </trkpt>
      <trkpt lat="45.14537" lon="5.91373">
        <ele>1450</ele>
        <time>2020-08-11T06:07:45Z</time>
      </trkpt>
      <trkpt lat="45.14536" lon="5.91372">
        <ele>1450.4</ele>
        <time>2020-08-11T06:07:46Z</time>
      </trkpt>
      <trkpt lat="45.14535" lon="5.91371">
        <ele>1450.6</ele>
        <time>2020-08-11T06:07:47Z</time>
      </trkpt>
      <trkpt lat="45.14534" lon="5.9137">
        <ele>1450.6</ele>
        <time>2020-08-11T06:07:48Z</time>
      </trkpt>
      <trkpt lat="45.14533" lon="5.91369">
        <ele>1450.6</ele>
        <time>2020-08-11T06:07:49Z</time>
      </trkpt>
      <trkpt lat="45.14532" lon="5.91368">
        <ele>1450.6</ele>
        <time>2020-08-11T06:07:50Z</time>
      </trkpt>
      <trkpt lat="45.14531" lon="5.91366">
        <ele>1450.8</ele>
        <time>2020-08-11T06:07:51Z</time>
      </trkpt>
      <trkpt lat="45.1453" lon="5.91365">
        <ele>1450.8</ele>
        <time>2020-08-11T06:07:52Z</time>
      </trkpt>
      <trkpt lat="45.14529" lon="5.91363">
        <ele>1450.8</ele>
        <time>2020-08-11T06:07:53Z</time>
      </trkpt>
      <trkpt lat="45.14528" lon="5.91361">
        <ele>1450.8</ele>
        <time>2020-08-11T06:07:54Z</time>
      </trkpt>
      <trkpt lat="45.14527" lon="5.91359">
        <ele>1451.2</ele>
        <time>2020-08-11T06:07:55Z</time>
      </trkpt>
      <trkpt lat="45.14527" lon="5.91357">
        <ele>1451.4</ele>
        <time>2020-08-11T06:07:56Z</time>
      </trkpt>
      <trkpt lat="45.14526" lon="5.91355">
        <ele>1451.8</ele>
        <time>2020-08-11T06:07:57Z</time>
      </trkpt>
      <trkpt lat="45.14525" lon="5.91353">
        <ele>1451.8</ele>
        <time>2020-08-11T06:07:58Z</time>
      </trkpt>
      <trkpt lat="45.14525" lon="5.91351">
        <ele>1452</ele>
        <time>2020-08-11T06:07:59Z</time>
      </trkpt>
      <trkpt lat="45.14524" lon="5.91349">
        <ele>1452</ele>
        <time>2020-08-11T06:08:00Z</time>
      </trkpt>
      <trkpt lat="45.14524" lon="5.91348">
        <ele>1452.4</ele>
        <time>2020-08-11T06:08:01Z</time>
      </trkpt>
      <trkpt lat="45.14523" lon="5.91346">
        <ele>1452.4</ele>
        <time>2020-08-11T06:08:02Z</time>
      </trkpt>
      <trkpt lat="45.14523" lon="5.91344">
        <ele>1452.6</ele>
        <time>2020-08-11T06:08:03Z</time>
      </trkpt>
      <trkpt lat="45.14522" lon="5.91343">
        <ele>1452.6</ele>
        <time>2020-08-11T06:08:04Z</time>
      </trkpt>
      <trkpt lat="45.14522" lon="5.91341">
        <ele>1452.6</ele>
        <time>2020-08-11T06:08:05Z</time>
      </trkpt>
      <trkpt lat="45.14521" lon="5.9134">
        <ele>1452.6</ele>
        <time>2020-08-11T06:08:06Z</time>
      </trkpt>
      <trkpt lat="45.1452" lon="5.9134">
        <ele>1452.8</ele>
        <time>2020-08-11T06:08:07Z</time>
      </trkpt>
      <trkpt lat="45.14519" lon="5.91339">
        <ele>1453</ele>
        <time>2020-08-11T06:08:08Z</time>
      </trkpt>
      <trkpt lat="45.14519" lon="5.91339">
        <ele>1453.2</ele>
        <time>2020-08-11T06:08:09Z</time>
      </trkpt>
      <trkpt lat="45.14518" lon="5.91338">
        <ele>1453.4</ele>
        <time>2020-08-11T06:08:10Z</time>
      </trkpt>
      <trkpt lat="45.14517" lon="5.91338">
        <ele>1453.6</ele>
        <time>2020-08-11T06:08:11Z</time>
      </trkpt>
      <trkpt lat="45.14517" lon="5.91337">
        <ele>1453.8</ele>
        <time>2020-08-11T06:08:12Z</time>
      </trkpt>
      <trkpt lat="45.14516" lon="5.91337">
        <ele>1454</ele>
        <time>2020-08-11T06:08:13Z</time>
      </trkpt>
      <trkpt lat="45.14515" lon="5.91336">
        <ele>1454.4</ele>
        <time>2020-08-11T06:08:14Z</time>
      </trkpt>
      <trkpt lat="45.14514" lon="5.91336">
        <ele>1454.8</ele>
        <time>2020-08-11T06:08:15Z</time>
      </trkpt>
      <trkpt lat="45.14514" lon="5.91335">
        <ele>1455</ele>
        <time>2020-08-11T06:08:16Z</time>
      </trkpt>
      <trkpt lat="45.14513" lon="5.91334">
        <ele>1455.2</ele>
        <time>2020-08-11T06:08:17Z</time>
      </trkpt>
      <trkpt lat="45.14512" lon="5.91334">
        <ele>1455.6</ele>
        <time>2020-08-11T06:08:18Z</time>
      </trkpt>
      <trkpt lat="45.14511" lon="5.91333">
        <ele>1455.6</ele>
        <time>2020-08-11T06:08:19Z</time>
      </trkpt>
      <trkpt lat="45.14509" lon="5.91332">
        <ele>1455.8</ele>
        <time>2020-08-11T06:08:20Z</time>
      </trkpt>
      <trkpt lat="45.14508" lon="5.91331">
        <ele>1456.2</ele>
        <time>2020-08-11T06:08:21Z</time>
      </trkpt>
      <trkpt lat="45.14506" lon="5.9133">
        <ele>1456.4</ele>
        <time>2020-08-11T06:08:22Z</time>
      </trkpt>
      <trkpt lat="45.14505" lon="5.91329">
        <ele>1456.6</ele>
        <time>2020-08-11T06:08:23Z</time>
      </trkpt>
      <trkpt lat="45.14503" lon="5.91328">
        <ele>1456.6</ele>
        <time>2020-08-11T06:08:24Z</time>
      </trkpt>
      <trkpt lat="45.14503" lon="5.91327">
        <ele>1457</ele>
        <time>2020-08-11T06:08:25Z</time>
      </trkpt>
      <trkpt lat="45.14502" lon="5.91327">
        <ele>1457.2</ele>
        <time>2020-08-11T06:08:26Z</time>
      </trkpt>
      <trkpt lat="45.14502" lon="5.91326">
        <ele>1457.4</ele>
        <time>2020-08-11T06:08:27Z</time>
      </trkpt>
      <trkpt lat="45.14501" lon="5.91326">
        <ele>1457.8</ele>
        <time>2020-08-11T06:08:28Z</time>
      </trkpt>
      <trkpt lat="45.14501" lon="5.91325">
        <ele>1458</ele>
        <time>2020-08-11T06:08:29Z</time>
      </trkpt>
      <trkpt lat="45.145" lon="5.91325">
        <ele>1458.4</ele>
        <time>2020-08-11T06:08:30Z</time>
      </trkpt>
      <trkpt lat="45.145" lon="5.91324">
        <ele>1458.8</ele>
        <time>2020-08-11T06:08:31Z</time>
      </trkpt>
      <trkpt lat="45.14499" lon="5.91324">
        <ele>1458.8</ele>
        <time>2020-08-11T06:08:32Z</time>
      </trkpt>
      <trkpt lat="45.14499" lon="5.91323">
        <ele>1459</ele>
        <time>2020-08-11T06:08:33Z</time>
      </trkpt>
      <trkpt lat="45.14498" lon="5.91322">
        <ele>1459.2</ele>
        <time>2020-08-11T06:08:34Z</time>
      </trkpt>
      <trkpt lat="45.14498" lon="5.91322">
        <ele>1459.8</ele>
        <time>2020-08-11T06:08:35Z</time>
      </trkpt>
      <trkpt lat="45.14497" lon="5.91321">
        <ele>1460.2</ele>
        <time>2020-08-11T06:08:36Z</time>
      </trkpt>
      <trkpt lat="45.14497" lon="5.91321">
        <ele>1460.4</ele>
        <time>2020-08-11T06:08:37Z</time>
      </trkpt>
      <trkpt lat="45.14497" lon="5.9132">
        <ele>1460.6</ele>
        <time>2020-08-11T06:08:38Z</time>
      </trkpt>
      <trkpt lat="45.14496" lon="5.9132">
        <ele>1460.8</ele>
        <time>2020-08-11T06:08:39Z</time>
      </trkpt>
      <trkpt lat="45.14496" lon="5.9132">
        <ele>1461</ele>
        <time>2020-08-11T06:08:40Z</time>
      </trkpt>
      <trkpt lat="45.14497" lon="5.91321">
        <ele>1461.2</ele>
        <time>2020-08-11T06:08:41Z</time>
      </trkpt>
      <trkpt lat="45.14497" lon="5.91322">
        <ele>1461.2</ele>
        <time>2020-08-11T06:08:42Z</time>
      </trkpt>
      <trkpt lat="45.14498" lon="5.91322">
        <ele>1461.4</ele>
        <time>2020-08-11T06:08:43Z</time>
      </trkpt>
      <trkpt lat="45.14498" lon="5.91323">
        <ele>1462</ele>
        <time>2020-08-11T06:08:44Z</time>
      </trkpt>
      <trkpt lat="45.14498" lon="5.91324">
        <ele>1462.2</ele>
        <time>2020-08-11T06:08:45Z</time>
      </trkpt>
      <trkpt lat="45.14499" lon="5.91324">
        <ele>1462.2</ele>
        <time>2020-08-11T06:08:46Z</time>
      </trkpt>
      <trkpt lat="45.14499" lon="5.91325">
        <ele>1462.6</ele>
        <time>2020-08-11T06:08:47Z</time>
      </trkpt>
      <trkpt lat="45.14499" lon="5.91326">
        <ele>1463</ele>
        <time>2020-08-11T06:08:48Z</time>
      </trkpt>
      <trkpt lat="45.145" lon="5.91326">
        <ele>1463.2</ele>
        <time>2020-08-11T06:08:49Z</time>
      </trkpt>
      <trkpt lat="45.145" lon="5.91327">
        <ele>1463.4</ele>
        <time>2020-08-11T06:08:50Z</time>
      </trkpt>
      <trkpt lat="45.14501" lon="5.91328">
        <ele>1463.8</ele>
        <time>2020-08-11T06:08:51Z</time>
      </trkpt>
      <trkpt lat="45.14501" lon="5.91328">
        <ele>1464</ele>
        <time>2020-08-11T06:08:52Z</time>
      </trkpt>
      <trkpt lat="45.14501" lon="5.91329">
        <ele>1464.2</ele>
        <time>2020-08-11T06:08:53Z</time>
      </trkpt>
      <trkpt lat="45.14502" lon="5.9133">
        <ele>1464.6</ele>
        <time>2020-08-11T06:08:54Z</time>
      </trkpt>
      <trkpt lat="45.14502" lon="5.9133">
        <ele>1464.8</ele>
        <time>2020-08-11T06:08:55Z</time>
      </trkpt>
      <trkpt lat="45.14502" lon="5.91331">
        <ele>1465</ele>
        <time>2020-08-11T06:08:56Z</time>
      </trkpt>
      <trkpt lat="45.14503" lon="5.91331">
        <ele>1465.2</ele>
        <time>2020-08-11T06:08:57Z</time>
      </trkpt>
      <trkpt lat="45.14503" lon="5.91332">
        <ele>1465.6</ele>
        <time>2020-08-11T06:08:58Z</time>
      </trkpt>
      <trkpt lat="45.14504" lon="5.91333">
        <ele>1465.8</ele>
        <time>2020-08-11T06:08:59Z</time>
      </trkpt>
      <trkpt lat="45.14506" lon="5.91333">
        <ele>1466</ele>
        <time>2020-08-11T06:09:00Z</time>
      </trkpt>
      <trkpt lat="45.14507" lon="5.91334">
        <ele>1466.2</ele>
        <time>2020-08-11T06:09:01Z</time>
      </trkpt>
      <trkpt lat="45.14508" lon="5.91334">
        <ele>1466.6</ele>
        <time>2020-08-11T06:09:02Z</time>
      </trkpt>
      <trkpt lat="45.14509" lon="5.91335">
        <ele>1466.8</ele>
        <time>2020-08-11T06:09:03Z</time>
      </trkpt>
      <trkpt lat="45.1451" lon="5.91336">
        <ele>1467</ele>
        <time>2020-08-11T06:09:04Z</time>
      </trkpt>
      <trkpt lat="45.14511" lon="5.91336">
        <ele>1467.2</ele>
        <time>2020-08-11T06:09:05Z</time>
      </trkpt>
      <trkpt lat="45.14512" lon="5.91337">
        <ele>1467.2</ele>
        <time>2020-08-11T06:09:06Z</time>
      </trkpt>
      <trkpt lat="45.14513" lon="5.91337">
        <ele>1467.4</ele>
        <time>2020-08-11T06:09:07Z</time>
      </trkpt>
      <trkpt lat="45.14514" lon="5.91338">
        <ele>1467.6</ele>
        <time>2020-08-11T06:09:08Z</time>
      </trkpt>
      <trkpt lat="45.14515" lon="5.91338">
        <ele>1467.8</ele>
        <time>2020-08-11T06:09:09Z</time>
      </trkpt>
      <trkpt lat="45.14515" lon="5.91339">
        <ele>1468</ele>
        <time>2020-08-11T06:09:10Z</time>
      </trkpt>
      <trkpt lat="45.14516" lon="5.91339">
        <ele>1468.4</ele>
        <time>2020-08-11T06:09:11Z</time>
      </trkpt>
      <trkpt lat="45.14517" lon="5.9134">
        <ele>1468.8</ele>
        <time>2020-08-11T06:09:12Z</time>
      </trkpt>
      <trkpt lat="45.14518" lon="5.9134">
        <ele>1469</ele>
        <time>2020-08-11T06:09:13Z</time>
      </trkpt>
      <trkpt lat="45.14519" lon="5.91341">
        <ele>1469.2</ele>
        <time>2020-08-11T06:09:14Z</time>
      </trkpt>
      <trkpt lat="45.14519" lon="5.91341">
        <ele>1469</ele>
        <time>2020-08-11T06:09:15Z</time>
      </trkpt>
      <trkpt lat="45.1452" lon="5.91342">
        <ele>1469.2</ele>
        <time>2020-08-11T06:09:16Z</time>
      </trkpt>
      <trkpt lat="45.14521" lon="5.91342">
        <ele>1469.4</ele>
        <time>2020-08-11T06:09:17Z</time>
      </trkpt>
      <trkpt lat="45.14521" lon="5.91345">
        <ele>1469.4</ele>
        <time>2020-08-11T06:09:18Z</time>
      </trkpt>
      <trkpt lat="45.14521" lon="5.91348">
        <ele>1469.8</ele>
        <time>2020-08-11T06:09:19Z</time>
      </trkpt>
      <trkpt lat="45.14521" lon="5.9135">
        <ele>1470</ele>
        <time>2020-08-11T06:09:20Z</time>
      </trkpt>
      <trkpt lat="45.14521" lon="5.91353">
        <ele>1470.2</ele>
        <time>2020-08-11T06:09:21Z</time>
      </trkpt>
      <trkpt lat="45.14521" lon="5.91356">
        <ele>1470.4</ele>
        <time>2020-08-11T06:09:22Z</time>
      </trkpt>
      <trkpt lat="45.14521" lon="5.91358">
        <ele>1470.8</ele>
        <time>2020-08-11T06:09:23Z</time>
      </trkpt>
      <trkpt lat="45.14522" lon="5.9136">
        <ele>1471</ele>
        <time>2020-08-11T06:09:24Z</time>
      </trkpt>
      <trkpt lat="45.14522" lon="5.91361">
        <ele>1471.2</ele>
        <time>2020-08-11T06:09:25Z</time>
      </trkpt>
      <trkpt lat="45.14522" lon="5.91363">
        <ele>1471.2</ele>
        <time>2020-08-11T06:09:26Z</time>
      </trkpt>
      <trkpt lat="45.14523" lon="5.91364">
        <ele>1471.2</ele>
        <time>2020-08-11T06:09:27Z</time>
      </trkpt>
      <trkpt lat="45.14523" lon="5.91366">
        <ele>1471.4</ele>
        <time>2020-08-11T06:09:28Z</time>
      </trkpt>
      <trkpt lat="45.14523" lon="5.91367">
        <ele>1471.4</ele>
        <time>2020-08-11T06:09:29Z</time>
      </trkpt>
      <trkpt lat="45.14524" lon="5.91368">
        <ele>1471.6</ele>
        <time>2020-08-11T06:09:30Z</time>
      </trkpt>
      <trkpt lat="45.14524" lon="5.9137">
        <ele>1471.8</ele>
        <time>2020-08-11T06:09:31Z</time>
      </trkpt>
      <trkpt lat="45.14525" lon="5.91371">
        <ele>1472</ele>
        <time>2020-08-11T06:09:32Z</time>
      </trkpt>
      <trkpt lat="45.14524" lon="5.91371">
        <ele>1472.6</ele>
        <time>2020-08-11T06:09:33Z</time>
      </trkpt>
      <trkpt lat="45.14523" lon="5.91372">
        <ele>1472.8</ele>
        <time>2020-08-11T06:09:34Z</time>
      </trkpt>
      <trkpt lat="45.14522" lon="5.91372">
        <ele>1473</ele>
        <time>2020-08-11T06:09:35Z</time>
      </trkpt>
      <trkpt lat="45.14521" lon="5.91372">
        <ele>1473.2</ele>
        <time>2020-08-11T06:09:36Z</time>
      </trkpt>
      <trkpt lat="45.1452" lon="5.91372">
        <ele>1473.4</ele>
        <time>2020-08-11T06:09:37Z</time>
      </trkpt>
      <trkpt lat="45.14519" lon="5.91373">
        <ele>1473.6</ele>
        <time>2020-08-11T06:09:38Z</time>
      </trkpt>
      <trkpt lat="45.14519" lon="5.91373">
        <ele>1473.8</ele>
        <time>2020-08-11T06:09:39Z</time>
      </trkpt>
      <trkpt lat="45.14518" lon="5.91373">
        <ele>1474</ele>
        <time>2020-08-11T06:09:40Z</time>
      </trkpt>
      <trkpt lat="45.14517" lon="5.91374">
        <ele>1474</ele>
        <time>2020-08-11T06:09:41Z</time>
      </trkpt>
      <trkpt lat="45.14516" lon="5.91374">
        <ele>1474</ele>
        <time>2020-08-11T06:09:42Z</time>
      </trkpt>
      <trkpt lat="45.14515" lon="5.91374">
        <ele>1474.2</ele>
        <time>2020-08-11T06:09:43Z</time>
      </trkpt>
      <trkpt lat="45.14514" lon="5.91374">
        <ele>1474.4</ele>
        <time>2020-08-11T06:09:44Z</time>
      </trkpt>
      <trkpt lat="45.14512" lon="5.91372">
        <ele>1474.8</ele>
        <time>2020-08-11T06:09:45Z</time>
      </trkpt>
      <trkpt lat="45.1451" lon="5.9137">
        <ele>1475.6</ele>
        <time>2020-08-11T06:09:46Z</time>
      </trkpt>
      <trkpt lat="45.14508" lon="5.91368">
        <ele>1475.8</ele>
        <time>2020-08-11T06:09:47Z</time>
      </trkpt>
      <trkpt lat="45.14506" lon="5.91366">
        <ele>1475.6</ele>
        <time>2020-08-11T06:09:48Z</time>
      </trkpt>
      <trkpt lat="45.14505" lon="5.91365">
        <ele>1475.8</ele>
        <time>2020-08-11T06:09:49Z</time>
      </trkpt>
      <trkpt lat="45.14504" lon="5.91364">
        <ele>1476</ele>
        <time>2020-08-11T06:09:50Z</time>
      </trkpt>
      <trkpt lat="45.14503" lon="5.91363">
        <ele>1476.2</ele>
        <time>2020-08-11T06:09:51Z</time>
      </trkpt>
      <trkpt lat="45.14502" lon="5.91362">
        <ele>1476.2</ele>
        <time>2020-08-11T06:09:52Z</time>
      </trkpt>
      <trkpt lat="45.14501" lon="5.9136">
        <ele>1476.4</ele>
        <time>2020-08-11T06:09:53Z</time>
      </trkpt>
      <trkpt lat="45.145" lon="5.91359">
        <ele>1476.6</ele>
        <time>2020-08-11T06:09:54Z</time>
      </trkpt>
      <trkpt lat="45.14499" lon="5.91358">
        <ele>1477.2</ele>
        <time>2020-08-11T06:09:55Z</time>
      </trkpt>
      <trkpt lat="45.14498" lon="5.91357">
        <ele>1477</ele>
        <time>2020-08-11T06:09:56Z</time>
      </trkpt>
      <trkpt lat="45.14498" lon="5.91358">
        <ele>1477.2</ele>
        <time>2020-08-11T06:09:57Z</time>
      </trkpt>
      <trkpt lat="45.14498" lon="5.91358">
        <ele>1477.6</ele>
        <time>2020-08-11T06:09:58Z</time>
      </trkpt>
      <trkpt lat="45.14499" lon="5.91359">
        <ele>1477.8</ele>
        <time>2020-08-11T06:09:59Z</time>
      </trkpt>
      <trkpt lat="45.14499" lon="5.9136">
        <ele>1478.2</ele>
        <time>2020-08-11T06:10:01Z</time>
      </trkpt>
      <trkpt lat="45.14499" lon="5.9136">
        <ele>1478.4</ele>
        <time>2020-08-11T06:10:02Z</time>
      </trkpt>
      <trkpt lat="45.14499" lon="5.91361">
        <ele>1478.8</ele>
        <time>2020-08-11T06:10:03Z</time>
      </trkpt>
      <trkpt lat="45.14499" lon="5.91362">
        <ele>1479</ele>
        <time>2020-08-11T06:10:04Z</time>
      </trkpt>
      <trkpt lat="45.145" lon="5.91362">
        <ele>1479.2</ele>
        <time>2020-08-11T06:10:05Z</time>
      </trkpt>
      <trkpt lat="45.145" lon="5.91363">
        <ele>1479.4</ele>
        <time>2020-08-11T06:10:06Z</time>
      </trkpt>
      <trkpt lat="45.145" lon="5.91364">
        <ele>1479.6</ele>
        <time>2020-08-11T06:10:07Z</time>
      </trkpt>
      <trkpt lat="45.145" lon="5.91365">
        <ele>1480</ele>
        <time>2020-08-11T06:10:08Z</time>
      </trkpt>
      <trkpt lat="45.145" lon="5.91365">
        <ele>1480.4</ele>
        <time>2020-08-11T06:10:09Z</time>
      </trkpt>
      <trkpt lat="45.14501" lon="5.91366">
        <ele>1480.6</ele>
        <time>2020-08-11T06:10:10Z</time>
      </trkpt>
      <trkpt lat="45.14501" lon="5.91367">
        <ele>1480.8</ele>
        <time>2020-08-11T06:10:11Z</time>
      </trkpt>
      <trkpt lat="45.14501" lon="5.91367">
        <ele>1481.2</ele>
        <time>2020-08-11T06:10:12Z</time>
      </trkpt>
      <trkpt lat="45.14501" lon="5.91368">
        <ele>1481.4</ele>
        <time>2020-08-11T06:10:13Z</time>
      </trkpt>
      <trkpt lat="45.14501" lon="5.91369">
        <ele>1481.6</ele>
        <time>2020-08-11T06:10:14Z</time>
      </trkpt>
      <trkpt lat="45.14502" lon="5.91369">
        <ele>1481.8</ele>
        <time>2020-08-11T06:10:15Z</time>
      </trkpt>
      <trkpt lat="45.14503" lon="5.91371">
        <ele>1482</ele>
        <time>2020-08-11T06:10:16Z</time>
      </trkpt>
      <trkpt lat="45.14504" lon="5.91372">
        <ele>1482.4</ele>
        <time>2020-08-11T06:10:17Z</time>
      </trkpt>
      <trkpt lat="45.14506" lon="5.91374">
        <ele>1482.6</ele>
        <time>2020-08-11T06:10:18Z</time>
      </trkpt>
      <trkpt lat="45.14507" lon="5.91375">
        <ele>1482.6</ele>
        <time>2020-08-11T06:10:19Z</time>
      </trkpt>
      <trkpt lat="45.14508" lon="5.91377">
        <ele>1482.8</ele>
        <time>2020-08-11T06:10:20Z</time>
      </trkpt>
      <trkpt lat="45.1451" lon="5.91379">
        <ele>1483</ele>
        <time>2020-08-11T06:10:21Z</time>
      </trkpt>
      <trkpt lat="45.14509" lon="5.91378">
        <ele>1483.2</ele>
        <time>2020-08-11T06:10:22Z</time>
      </trkpt>
      <trkpt lat="45.14508" lon="5.91378">
        <ele>1483.4</ele>
        <time>2020-08-11T06:10:23Z</time>
      </trkpt>
      <trkpt lat="45.14508" lon="5.91378">
        <ele>1483.6</ele>
        <time>2020-08-11T06:10:24Z</time>
      </trkpt>
      <trkpt lat="45.14507" lon="5.91378">
        <ele>1483.8</ele>
        <time>2020-08-11T06:10:25Z</time>
      </trkpt>
      <trkpt lat="45.14506" lon="5.91378">
        <ele>1484</ele>
        <time>2020-08-11T06:10:26Z</time>
      </trkpt>
      <trkpt lat="45.14506" lon="5.91378">
        <ele>1484.2</ele>
        <time>2020-08-11T06:10:27Z</time>
      </trkpt>
      <trkpt lat="45.14505" lon="5.91378">
        <ele>1484.4</ele>
        <time>2020-08-11T06:10:28Z</time>
      </trkpt>
      <trkpt lat="45.14505" lon="5.91378">
        <ele>1484.6</ele>
        <time>2020-08-11T06:10:29Z</time>
      </trkpt>
      <trkpt lat="45.14504" lon="5.91378">
        <ele>1484.8</ele>
        <time>2020-08-11T06:10:30Z</time>
      </trkpt>
      <trkpt lat="45.14503" lon="5.91378">
        <ele>1485</ele>
        <time>2020-08-11T06:10:31Z</time>
      </trkpt>
      <trkpt lat="45.14503" lon="5.91378">
        <ele>1485.2</ele>
        <time>2020-08-11T06:10:32Z</time>
      </trkpt>
      <trkpt lat="45.14502" lon="5.91378">
        <ele>1485.6</ele>
        <time>2020-08-11T06:10:33Z</time>
      </trkpt>
      <trkpt lat="45.14501" lon="5.91378">
        <ele>1485.8</ele>
        <time>2020-08-11T06:10:34Z</time>
      </trkpt>
      <trkpt lat="45.14501" lon="5.91378">
        <ele>1485.8</ele>
        <time>2020-08-11T06:10:35Z</time>
      </trkpt>
      <trkpt lat="45.145" lon="5.91378">
        <ele>1485.8</ele>
        <time>2020-08-11T06:10:36Z</time>
      </trkpt>
      <trkpt lat="45.14499" lon="5.91377">
        <ele>1486.2</ele>
        <time>2020-08-11T06:10:37Z</time>
      </trkpt>
      <trkpt lat="45.14498" lon="5.91377">
        <ele>1486.2</ele>
        <time>2020-08-11T06:10:38Z</time>
      </trkpt>
      <trkpt lat="45.14497" lon="5.91377">
        <ele>1486.6</ele>
        <time>2020-08-11T06:10:39Z</time>
      </trkpt>
      <trkpt lat="45.14496" lon="5.91377">
        <ele>1486.8</ele>
        <time>2020-08-11T06:10:40Z</time>
      </trkpt>
      <trkpt lat="45.14495" lon="5.91377">
        <ele>1487.4</ele>
        <time>2020-08-11T06:10:41Z</time>
      </trkpt>
      <trkpt lat="45.14494" lon="5.91377">
        <ele>1487.6</ele>
        <time>2020-08-11T06:10:42Z</time>
      </trkpt>
      <trkpt lat="45.14493" lon="5.91376">
        <ele>1487.6</ele>
        <time>2020-08-11T06:10:43Z</time>
      </trkpt>
      <trkpt lat="45.14491" lon="5.91376">
        <ele>1488</ele>
        <time>2020-08-11T06:10:44Z</time>
      </trkpt>
      <trkpt lat="45.1449" lon="5.91376">
        <ele>1488.4</ele>
        <time>2020-08-11T06:10:45Z</time>
      </trkpt>
      <trkpt lat="45.14491" lon="5.91377">
        <ele>1488.6</ele>
        <time>2020-08-11T06:10:46Z</time>
      </trkpt>
      <trkpt lat="45.14491" lon="5.91379">
        <ele>1488.8</ele>
        <time>2020-08-11T06:10:47Z</time>
      </trkpt>
      <trkpt lat="45.14491" lon="5.9138">
        <ele>1489</ele>
        <time>2020-08-11T06:10:48Z</time>
      </trkpt>
      <trkpt lat="45.14491" lon="5.91381">
        <ele>1489.4</ele>
        <time>2020-08-11T06:10:49Z</time>
      </trkpt>
      <trkpt lat="45.14492" lon="5.91383">
        <ele>1489.6</ele>
        <time>2020-08-11T06:10:50Z</time>
      </trkpt>
      <trkpt lat="45.14492" lon="5.91384">
        <ele>1489.6</ele>
        <time>2020-08-11T06:10:51Z</time>
      </trkpt>
      <trkpt lat="45.14492" lon="5.91386">
        <ele>1489.8</ele>
        <time>2020-08-11T06:10:52Z</time>
      </trkpt>
      <trkpt lat="45.14492" lon="5.91387">
        <ele>1490</ele>
        <time>2020-08-11T06:10:53Z</time>
      </trkpt>
      <trkpt lat="45.14493" lon="5.91388">
        <ele>1490.4</ele>
        <time>2020-08-11T06:10:54Z</time>
      </trkpt>
      <trkpt lat="45.14493" lon="5.9139">
        <ele>1490.8</ele>
        <time>2020-08-11T06:10:55Z</time>
      </trkpt>
      <trkpt lat="45.14493" lon="5.91391">
        <ele>1491</ele>
        <time>2020-08-11T06:10:56Z</time>
      </trkpt>
      <trkpt lat="45.14493" lon="5.91392">
        <ele>1491.4</ele>
        <time>2020-08-11T06:10:57Z</time>
      </trkpt>
      <trkpt lat="45.14494" lon="5.91394">
        <ele>1491.6</ele>
        <time>2020-08-11T06:10:58Z</time>
      </trkpt>
      <trkpt lat="45.14494" lon="5.91395">
        <ele>1491.8</ele>
        <time>2020-08-11T06:10:59Z</time>
      </trkpt>
      <trkpt lat="45.14494" lon="5.91397">
        <ele>1492</ele>
        <time>2020-08-11T06:11:00Z</time>
      </trkpt>
      <trkpt lat="45.14494" lon="5.91398">
        <ele>1492.2</ele>
        <time>2020-08-11T06:11:01Z</time>
      </trkpt>
      <trkpt lat="45.14495" lon="5.91399">
        <ele>1492.4</ele>
        <time>2020-08-11T06:11:02Z</time>
      </trkpt>
      <trkpt lat="45.14495" lon="5.91401">
        <ele>1492.8</ele>
        <time>2020-08-11T06:11:03Z</time>
      </trkpt>
      <trkpt lat="45.14495" lon="5.91402">
        <ele>1493.2</ele>
        <time>2020-08-11T06:11:04Z</time>
      </trkpt>
      <trkpt lat="45.14495" lon="5.91403">
        <ele>1493.6</ele>
        <time>2020-08-11T06:11:05Z</time>
      </trkpt>
      <trkpt lat="45.14495" lon="5.91404">
        <ele>1493.8</ele>
        <time>2020-08-11T06:11:06Z</time>
      </trkpt>
      <trkpt lat="45.14496" lon="5.91405">
        <ele>1494</ele>
        <time>2020-08-11T06:11:07Z</time>
      </trkpt>
      <trkpt lat="45.14496" lon="5.91405">
        <ele>1494</ele>
        <time>2020-08-11T06:11:08Z</time>
      </trkpt>
      <trkpt lat="45.14496" lon="5.91406">
        <ele>1494.4</ele>
        <time>2020-08-11T06:11:09Z</time>
      </trkpt>
      <trkpt lat="45.14496" lon="5.91407">
        <ele>1494.2</ele>
        <time>2020-08-11T06:11:10Z</time>
      </trkpt>
      <trkpt lat="45.14497" lon="5.91408">
        <ele>1494.4</ele>
        <time>2020-08-11T06:11:11Z</time>
      </trkpt>
      <trkpt lat="45.14497" lon="5.91409">
        <ele>1494.8</ele>
        <time>2020-08-11T06:11:12Z</time>
      </trkpt>
      <trkpt lat="45.14497" lon="5.91409">
        <ele>1495</ele>
        <time>2020-08-11T06:11:13Z</time>
      </trkpt>
      <trkpt lat="45.14497" lon="5.9141">
        <ele>1495.4</ele>
        <time>2020-08-11T06:11:14Z</time>
      </trkpt>
      <trkpt lat="45.14497" lon="5.91411">
        <ele>1495.6</ele>
        <time>2020-08-11T06:11:15Z</time>
      </trkpt>
      <trkpt lat="45.14498" lon="5.91412">
        <ele>1496</ele>
        <time>2020-08-11T06:11:16Z</time>
      </trkpt>
      <trkpt lat="45.14498" lon="5.91413">
        <ele>1496</ele>
        <time>2020-08-11T06:11:17Z</time>
      </trkpt>
      <trkpt lat="45.14498" lon="5.91414">
        <ele>1496.2</ele>
        <time>2020-08-11T06:11:18Z</time>
      </trkpt>
      <trkpt lat="45.14498" lon="5.91414">
        <ele>1496.2</ele>
        <time>2020-08-11T06:11:19Z</time>
      </trkpt>
      <trkpt lat="45.14499" lon="5.91417">
        <ele>1496.2</ele>
        <time>2020-08-11T06:11:20Z</time>
      </trkpt>
      <trkpt lat="45.145" lon="5.91419">
        <ele>1496.6</ele>
        <time>2020-08-11T06:11:21Z</time>
      </trkpt>
      <trkpt lat="45.14501" lon="5.91422">
        <ele>1496.8</ele>
        <time>2020-08-11T06:11:22Z</time>
      </trkpt>
      <trkpt lat="45.14502" lon="5.91424">
        <ele>1497.2</ele>
        <time>2020-08-11T06:11:23Z</time>
      </trkpt>
      <trkpt lat="45.14503" lon="5.91427">
        <ele>1497.4</ele>
        <time>2020-08-11T06:11:24Z</time>
      </trkpt>
      <trkpt lat="45.14503" lon="5.91429">
        <ele>1497.4</ele>
        <time>2020-08-11T06:11:25Z</time>
      </trkpt>
      <trkpt lat="45.14504" lon="5.91431">
        <ele>1497.6</ele>
        <time>2020-08-11T06:11:26Z</time>
      </trkpt>
      <trkpt lat="45.14505" lon="5.91434">
        <ele>1497.6</ele>
        <time>2020-08-11T06:11:27Z</time>
      </trkpt>
      <trkpt lat="45.14505" lon="5.91436">
        <ele>1497.8</ele>
        <time>2020-08-11T06:11:28Z</time>
      </trkpt>
      <trkpt lat="45.14506" lon="5.91438">
        <ele>1498</ele>
        <time>2020-08-11T06:11:29Z</time>
      </trkpt>
      <trkpt lat="45.14506" lon="5.91441">
        <ele>1498.2</ele>
        <time>2020-08-11T06:11:30Z</time>
      </trkpt>
      <trkpt lat="45.14507" lon="5.91443">
        <ele>1498.4</ele>
        <time>2020-08-11T06:11:31Z</time>
      </trkpt>
      <trkpt lat="45.14507" lon="5.91445">
        <ele>1498.4</ele>
        <time>2020-08-11T06:11:32Z</time>
      </trkpt>
      <trkpt lat="45.14508" lon="5.91446">
        <ele>1498.6</ele>
        <time>2020-08-11T06:11:33Z</time>
      </trkpt>
      <trkpt lat="45.14508" lon="5.91448">
        <ele>1498.8</ele>
        <time>2020-08-11T06:11:34Z</time>
      </trkpt>
      <trkpt lat="45.14509" lon="5.91449">
        <ele>1499</ele>
        <time>2020-08-11T06:11:35Z</time>
      </trkpt>
      <trkpt lat="45.14509" lon="5.91451">
        <ele>1499</ele>
        <time>2020-08-11T06:11:36Z</time>
      </trkpt>
      <trkpt lat="45.1451" lon="5.91453">
        <ele>1499.2</ele>
        <time>2020-08-11T06:11:37Z</time>
      </trkpt>
      <trkpt lat="45.1451" lon="5.91454">
        <ele>1499.4</ele>
        <time>2020-08-11T06:11:38Z</time>
      </trkpt>
      <trkpt lat="45.14511" lon="5.91456">
        <ele>1499.6</ele>
        <time>2020-08-11T06:11:39Z</time>
      </trkpt>
      <trkpt lat="45.14511" lon="5.91457">
        <ele>1499.8</ele>
        <time>2020-08-11T06:11:40Z</time>
      </trkpt>
      <trkpt lat="45.14511" lon="5.91457">
        <ele>1500</ele>
        <time>2020-08-11T06:11:41Z</time>
      </trkpt>
      <trkpt lat="45.14511" lon="5.91458">
        <ele>1500.2</ele>
        <time>2020-08-11T06:11:42Z</time>
      </trkpt>
      <trkpt lat="45.14511" lon="5.91459">
        <ele>1500.6</ele>
        <time>2020-08-11T06:11:43Z</time>
      </trkpt>
      <trkpt lat="45.14511" lon="5.9146">
        <ele>1500.8</ele>
        <time>2020-08-11T06:11:44Z</time>
      </trkpt>
      <trkpt lat="45.14511" lon="5.91461">
        <ele>1501</ele>
        <time>2020-08-11T06:11:45Z</time>
      </trkpt>
      <trkpt lat="45.14511" lon="5.91461">
        <ele>1501.2</ele>
        <time>2020-08-11T06:11:46Z</time>
      </trkpt>
      <trkpt lat="45.14511" lon="5.91462">
        <ele>1501.4</ele>
        <time>2020-08-11T06:11:47Z</time>
      </trkpt>
      <trkpt lat="45.14511" lon="5.91463">
        <ele>1501.6</ele>
        <time>2020-08-11T06:11:48Z</time>
      </trkpt>
      <trkpt lat="45.14511" lon="5.91464">
        <ele>1502</ele>
        <time>2020-08-11T06:11:49Z</time>
      </trkpt>
      <trkpt lat="45.14512" lon="5.91465">
        <ele>1502</ele>
        <time>2020-08-11T06:11:50Z</time>
      </trkpt>
      <trkpt lat="45.14512" lon="5.91465">
        <ele>1502.2</ele>
        <time>2020-08-11T06:11:51Z</time>
      </trkpt>
      <trkpt lat="45.14512" lon="5.91466">
        <ele>1502.6</ele>
        <time>2020-08-11T06:11:52Z</time>
      </trkpt>
      <trkpt lat="45.14512" lon="5.91467">
        <ele>1502.8</ele>
        <time>2020-08-11T06:11:53Z</time>
      </trkpt>
      <trkpt lat="45.14512" lon="5.91468">
        <ele>1503</ele>
        <time>2020-08-11T06:11:54Z</time>
      </trkpt>
      <trkpt lat="45.14512" lon="5.91469">
        <ele>1503.6</ele>
        <time>2020-08-11T06:11:55Z</time>
      </trkpt>
      <trkpt lat="45.14511" lon="5.91469">
        <ele>1504</ele>
        <time>2020-08-11T06:11:56Z</time>
      </trkpt>
      <trkpt lat="45.1451" lon="5.91468">
        <ele>1504.2</ele>
        <time>2020-08-11T06:11:57Z</time>
      </trkpt>
      <trkpt lat="45.14509" lon="5.91468">
        <ele>1504.2</ele>
        <time>2020-08-11T06:11:58Z</time>
      </trkpt>
      <trkpt lat="45.14508" lon="5.91468">
        <ele>1504.4</ele>
        <time>2020-08-11T06:11:59Z</time>
      </trkpt>
      <trkpt lat="45.14506" lon="5.91468">
        <ele>1504.6</ele>
        <time>2020-08-11T06:12:00Z</time>
      </trkpt>
      <trkpt lat="45.14505" lon="5.91468">
        <ele>1504.6</ele>
        <time>2020-08-11T06:12:01Z</time>
      </trkpt>
      <trkpt lat="45.14504" lon="5.91467">
        <ele>1504.6</ele>
        <time>2020-08-11T06:12:02Z</time>
      </trkpt>
      <trkpt lat="45.14503" lon="5.91467">
        <ele>1504.8</ele>
        <time>2020-08-11T06:12:03Z</time>
      </trkpt>
      <trkpt lat="45.14502" lon="5.91467">
        <ele>1505.2</ele>
        <time>2020-08-11T06:12:04Z</time>
      </trkpt>
      <trkpt lat="45.14501" lon="5.91466">
        <ele>1505.4</ele>
        <time>2020-08-11T06:12:05Z</time>
      </trkpt>
      <trkpt lat="45.14501" lon="5.91466">
        <ele>1505.6</ele>
        <time>2020-08-11T06:12:06Z</time>
      </trkpt>
      <trkpt lat="45.145" lon="5.91465">
        <ele>1505.6</ele>
        <time>2020-08-11T06:12:07Z</time>
      </trkpt>
      <trkpt lat="45.14499" lon="5.91465">
        <ele>1505.6</ele>
        <time>2020-08-11T06:12:08Z</time>
      </trkpt>
      <trkpt lat="45.14498" lon="5.91464">
        <ele>1505.8</ele>
        <time>2020-08-11T06:12:09Z</time>
      </trkpt>
      <trkpt lat="45.14498" lon="5.91464">
        <ele>1506</ele>
        <time>2020-08-11T06:12:10Z</time>
      </trkpt>
      <trkpt lat="45.14497" lon="5.91464">
        <ele>1506.2</ele>
        <time>2020-08-11T06:12:11Z</time>
      </trkpt>
      <trkpt lat="45.14496" lon="5.91463">
        <ele>1506.4</ele>
        <time>2020-08-11T06:12:12Z</time>
      </trkpt>
      <trkpt lat="45.14495" lon="5.91463">
        <ele>1506.6</ele>
        <time>2020-08-11T06:12:13Z</time>
      </trkpt>
      <trkpt lat="45.14495" lon="5.91462">
        <ele>1506.8</ele>
        <time>2020-08-11T06:12:14Z</time>
      </trkpt>
      <trkpt lat="45.14494" lon="5.91462">
        <ele>1507</ele>
        <time>2020-08-11T06:12:15Z</time>
      </trkpt>
      <trkpt lat="45.14493" lon="5.91461">
        <ele>1507.2</ele>
        <time>2020-08-11T06:12:16Z</time>
      </trkpt>
      <trkpt lat="45.14493" lon="5.91462">
        <ele>1507.4</ele>
        <time>2020-08-11T06:12:17Z</time>
      </trkpt>
      <trkpt lat="45.14493" lon="5.91463">
        <ele>1507.6</ele>
        <time>2020-08-11T06:12:18Z</time>
      </trkpt>
      <trkpt lat="45.14493" lon="5.91463">
        <ele>1508</ele>
        <time>2020-08-11T06:12:19Z</time>
      </trkpt>
      <trkpt lat="45.14493" lon="5.91464">
        <ele>1508.2</ele>
        <time>2020-08-11T06:12:20Z</time>
      </trkpt>
      <trkpt lat="45.14493" lon="5.91465">
        <ele>1508.4</ele>
        <time>2020-08-11T06:12:21Z</time>
      </trkpt>
      <trkpt lat="45.14493" lon="5.91465">
        <ele>1508.6</ele>
        <time>2020-08-11T06:12:22Z</time>
      </trkpt>
      <trkpt lat="45.14492" lon="5.91466">
        <ele>1509</ele>
        <time>2020-08-11T06:12:23Z</time>
      </trkpt>
      <trkpt lat="45.14492" lon="5.91467">
        <ele>1509.2</ele>
        <time>2020-08-11T06:12:24Z</time>
      </trkpt>
      <trkpt lat="45.14492" lon="5.91468">
        <ele>1509.6</ele>
        <time>2020-08-11T06:12:25Z</time>
      </trkpt>
      <trkpt lat="45.14492" lon="5.91468">
        <ele>1509.6</ele>
        <time>2020-08-11T06:12:26Z</time>
      </trkpt>
      <trkpt lat="45.14492" lon="5.91469">
        <ele>1509.8</ele>
        <time>2020-08-11T06:12:27Z</time>
      </trkpt>
      <trkpt lat="45.14492" lon="5.9147">
        <ele>1510</ele>
        <time>2020-08-11T06:12:28Z</time>
      </trkpt>
      <trkpt lat="45.14492" lon="5.91471">
        <ele>1510.2</ele>
        <time>2020-08-11T06:12:29Z</time>
      </trkpt>
      <trkpt lat="45.14492" lon="5.91471">
        <ele>1510.4</ele>
        <time>2020-08-11T06:12:30Z</time>
      </trkpt>
      <trkpt lat="45.14492" lon="5.91472">
        <ele>1510.6</ele>
        <time>2020-08-11T06:12:31Z</time>
      </trkpt>
      <trkpt lat="45.14492" lon="5.91473">
        <ele>1511.2</ele>
        <time>2020-08-11T06:12:32Z</time>
      </trkpt>
      <trkpt lat="45.14492" lon="5.91473">
        <ele>1511.4</ele>
        <time>2020-08-11T06:12:33Z</time>
      </trkpt>
      <trkpt lat="45.14491" lon="5.91474">
        <ele>1511.4</ele>
        <time>2020-08-11T06:12:34Z</time>
      </trkpt>
      <trkpt lat="45.14492" lon="5.91475">
        <ele>1511.8</ele>
        <time>2020-08-11T06:12:35Z</time>
      </trkpt>
      <trkpt lat="45.14492" lon="5.91475">
        <ele>1512</ele>
        <time>2020-08-11T06:12:36Z</time>
      </trkpt>
      <trkpt lat="45.14492" lon="5.91476">
        <ele>1512.2</ele>
        <time>2020-08-11T06:12:37Z</time>
      </trkpt>
      <trkpt lat="45.14492" lon="5.91477">
        <ele>1512.4</ele>
        <time>2020-08-11T06:12:38Z</time>
      </trkpt>
      <trkpt lat="45.14492" lon="5.91477">
        <ele>1512.6</ele>
        <time>2020-08-11T06:12:39Z</time>
      </trkpt>
      <trkpt lat="45.14493" lon="5.91478">
        <ele>1512.6</ele>
        <time>2020-08-11T06:12:40Z</time>
      </trkpt>
      <trkpt lat="45.14493" lon="5.91479">
        <ele>1512.8</ele>
        <time>2020-08-11T06:12:41Z</time>
      </trkpt>
      <trkpt lat="45.14493" lon="5.91479">
        <ele>1513</ele>
        <time>2020-08-11T06:12:42Z</time>
      </trkpt>
      <trkpt lat="45.14493" lon="5.9148">
        <ele>1513.4</ele>
        <time>2020-08-11T06:12:43Z</time>
      </trkpt>
      <trkpt lat="45.14493" lon="5.91481">
        <ele>1513.8</ele>
        <time>2020-08-11T06:12:44Z</time>
      </trkpt>
      <trkpt lat="45.14494" lon="5.91481">
        <ele>1514</ele>
        <time>2020-08-11T06:12:45Z</time>
      </trkpt>
      <trkpt lat="45.14494" lon="5.91482">
        <ele>1514.2</ele>
        <time>2020-08-11T06:12:46Z</time>
      </trkpt>
      <trkpt lat="45.14494" lon="5.91482">
        <ele>1514.6</ele>
        <time>2020-08-11T06:12:47Z</time>
      </trkpt>
      <trkpt lat="45.14494" lon="5.91483">
        <ele>1514.8</ele>
        <time>2020-08-11T06:12:48Z</time>
      </trkpt>
      <trkpt lat="45.14495" lon="5.91484">
        <ele>1515</ele>
        <time>2020-08-11T06:12:49Z</time>
      </trkpt>
      <trkpt lat="45.14495" lon="5.91484">
        <ele>1515.4</ele>
        <time>2020-08-11T06:12:50Z</time>
      </trkpt>
      <trkpt lat="45.14495" lon="5.91485">
        <ele>1515.8</ele>
        <time>2020-08-11T06:12:51Z</time>
      </trkpt>
      <trkpt lat="45.14495" lon="5.91486">
        <ele>1516</ele>
        <time>2020-08-11T06:12:52Z</time>
      </trkpt>
      <trkpt lat="45.14495" lon="5.91486">
        <ele>1516</ele>
        <time>2020-08-11T06:12:53Z</time>
      </trkpt>
      <trkpt lat="45.14496" lon="5.91487">
        <ele>1516.2</ele>
        <time>2020-08-11T06:12:54Z</time>
      </trkpt>
      <trkpt lat="45.14496" lon="5.91488">
        <ele>1516.6</ele>
        <time>2020-08-11T06:12:55Z</time>
      </trkpt>
      <trkpt lat="45.14496" lon="5.91489">
        <ele>1516.6</ele>
        <time>2020-08-11T06:12:56Z</time>
      </trkpt>
      <trkpt lat="45.14496" lon="5.9149">
        <ele>1517</ele>
        <time>2020-08-11T06:12:57Z</time>
      </trkpt>
      <trkpt lat="45.14497" lon="5.91492">
        <ele>1517.2</ele>
        <time>2020-08-11T06:12:58Z</time>
      </trkpt>
      <trkpt lat="45.14497" lon="5.91493">
        <ele>1517.4</ele>
        <time>2020-08-11T06:12:59Z</time>
      </trkpt>
      <trkpt lat="45.14497" lon="5.91495">
        <ele>1517.6</ele>
        <time>2020-08-11T06:13:00Z</time>
      </trkpt>
      <trkpt lat="45.14497" lon="5.91496">
        <ele>1518</ele>
        <time>2020-08-11T06:13:01Z</time>
      </trkpt>
      <trkpt lat="45.14498" lon="5.91498">
        <ele>1518.2</ele>
        <time>2020-08-11T06:13:02Z</time>
      </trkpt>
      <trkpt lat="45.14498" lon="5.91499">
        <ele>1518.2</ele>
        <time>2020-08-11T06:13:03Z</time>
      </trkpt>
      <trkpt lat="45.14498" lon="5.915">
        <ele>1518.4</ele>
        <time>2020-08-11T06:13:04Z</time>
      </trkpt>
      <trkpt lat="45.14499" lon="5.91502">
        <ele>1518.2</ele>
        <time>2020-08-11T06:13:05Z</time>
      </trkpt>
      <trkpt lat="45.14499" lon="5.91504">
        <ele>1518.4</ele>
        <time>2020-08-11T06:13:06Z</time>
      </trkpt>
      <trkpt lat="45.145" lon="5.91507">
        <ele>1518.6</ele>
        <time>2020-08-11T06:13:07Z</time>
      </trkpt>
      <trkpt lat="45.145" lon="5.91509">
        <ele>1518.8</ele>
        <time>2020-08-11T06:13:08Z</time>
      </trkpt>
      <trkpt lat="45.14501" lon="5.91511">
        <ele>1519.2</ele>
        <time>2020-08-11T06:13:09Z</time>
      </trkpt>
      <trkpt lat="45.14502" lon="5.91513">
        <ele>1519.4</ele>
        <time>2020-08-11T06:13:10Z</time>
      </trkpt>
      <trkpt lat="45.14502" lon="5.91514">
        <ele>1519.6</ele>
        <time>2020-08-11T06:13:11Z</time>
      </trkpt>
      <trkpt lat="45.14502" lon="5.91515">
        <ele>1519.8</ele>
        <time>2020-08-11T06:13:12Z</time>
      </trkpt>
      <trkpt lat="45.14503" lon="5.91516">
        <ele>1520</ele>
        <time>2020-08-11T06:13:13Z</time>
      </trkpt>
      <trkpt lat="45.14503" lon="5.91517">
        <ele>1520.2</ele>
        <time>2020-08-11T06:13:14Z</time>
      </trkpt>
      <trkpt lat="45.14503" lon="5.91518">
        <ele>1520.4</ele>
        <time>2020-08-11T06:13:15Z</time>
      </trkpt>
      <trkpt lat="45.14503" lon="5.91519">
        <ele>1520.6</ele>
        <time>2020-08-11T06:13:16Z</time>
      </trkpt>
      <trkpt lat="45.14504" lon="5.9152">
        <ele>1521</ele>
        <time>2020-08-11T06:13:17Z</time>
      </trkpt>
      <trkpt lat="45.14504" lon="5.91521">
        <ele>1521.4</ele>
        <time>2020-08-11T06:13:18Z</time>
      </trkpt>
      <trkpt lat="45.14504" lon="5.91522">
        <ele>1521.6</ele>
        <time>2020-08-11T06:13:19Z</time>
      </trkpt>
      <trkpt lat="45.14505" lon="5.91523">
        <ele>1521.8</ele>
        <time>2020-08-11T06:13:20Z</time>
      </trkpt>
      <trkpt lat="45.14505" lon="5.91524">
        <ele>1522</ele>
        <time>2020-08-11T06:13:21Z</time>
      </trkpt>
      <trkpt lat="45.14505" lon="5.91525">
        <ele>1522.2</ele>
        <time>2020-08-11T06:13:22Z</time>
      </trkpt>
      <trkpt lat="45.14505" lon="5.91525">
        <ele>1522.2</ele>
        <time>2020-08-11T06:13:23Z</time>
      </trkpt>
      <trkpt lat="45.14504" lon="5.91524">
        <ele>1522.8</ele>
        <time>2020-08-11T06:13:24Z</time>
      </trkpt>
      <trkpt lat="45.14503" lon="5.91523">
        <ele>1523</ele>
        <time>2020-08-11T06:13:25Z</time>
      </trkpt>
      <trkpt lat="45.14502" lon="5.91522">
        <ele>1523.4</ele>
        <time>2020-08-11T06:13:26Z</time>
      </trkpt>
      <trkpt lat="45.14501" lon="5.91522">
        <ele>1523.4</ele>
        <time>2020-08-11T06:13:27Z</time>
      </trkpt>
      <trkpt lat="45.145" lon="5.91521">
        <ele>1523.4</ele>
        <time>2020-08-11T06:13:28Z</time>
      </trkpt>
      <trkpt lat="45.145" lon="5.9152">
        <ele>1523.8</ele>
        <time>2020-08-11T06:13:29Z</time>
      </trkpt>
      <trkpt lat="45.14499" lon="5.91519">
        <ele>1524.2</ele>
        <time>2020-08-11T06:13:30Z</time>
      </trkpt>
      <trkpt lat="45.14498" lon="5.91518">
        <ele>1524.2</ele>
        <time>2020-08-11T06:13:31Z</time>
      </trkpt>
      <trkpt lat="45.14498" lon="5.91519">
        <ele>1524.4</ele>
        <time>2020-08-11T06:13:32Z</time>
      </trkpt>
      <trkpt lat="45.14498" lon="5.9152">
        <ele>1524.8</ele>
        <time>2020-08-11T06:13:33Z</time>
      </trkpt>
      <trkpt lat="45.14498" lon="5.9152">
        <ele>1524.8</ele>
        <time>2020-08-11T06:13:34Z</time>
      </trkpt>
      <trkpt lat="45.14498" lon="5.91521">
        <ele>1525</ele>
        <time>2020-08-11T06:13:35Z</time>
      </trkpt>
      <trkpt lat="45.14498" lon="5.91522">
        <ele>1525.4</ele>
        <time>2020-08-11T06:13:36Z</time>
      </trkpt>
      <trkpt lat="45.14498" lon="5.91523">
        <ele>1525.6</ele>
        <time>2020-08-11T06:13:37Z</time>
      </trkpt>
      <trkpt lat="45.14498" lon="5.91523">
        <ele>1525.6</ele>
        <time>2020-08-11T06:13:38Z</time>
      </trkpt>
      <trkpt lat="45.14498" lon="5.91524">
        <ele>1526</ele>
        <time>2020-08-11T06:13:39Z</time>
      </trkpt>
      <trkpt lat="45.14498" lon="5.91525">
        <ele>1526.2</ele>
        <time>2020-08-11T06:13:40Z</time>
      </trkpt>
      <trkpt lat="45.14498" lon="5.91525">
        <ele>1526.6</ele>
        <time>2020-08-11T06:13:41Z</time>
      </trkpt>
      <trkpt lat="45.14498" lon="5.91526">
        <ele>1526.6</ele>
        <time>2020-08-11T06:13:42Z</time>
      </trkpt>
      <trkpt lat="45.14498" lon="5.91527">
        <ele>1527</ele>
        <time>2020-08-11T06:13:43Z</time>
      </trkpt>
      <trkpt lat="45.14497" lon="5.91528">
        <ele>1527.2</ele>
        <time>2020-08-11T06:13:44Z</time>
      </trkpt>
      <trkpt lat="45.14497" lon="5.91528">
        <ele>1527.2</ele>
        <time>2020-08-11T06:13:45Z</time>
      </trkpt>
      <trkpt lat="45.14497" lon="5.91529">
        <ele>1527.2</ele>
        <time>2020-08-11T06:13:46Z</time>
      </trkpt>
      <trkpt lat="45.14497" lon="5.9153">
        <ele>1527.6</ele>
        <time>2020-08-11T06:13:47Z</time>
      </trkpt>
      <trkpt lat="45.14497" lon="5.9153">
        <ele>1527.8</ele>
        <time>2020-08-11T06:13:48Z</time>
      </trkpt>
      <trkpt lat="45.14497" lon="5.91531">
        <ele>1528.2</ele>
        <time>2020-08-11T06:13:49Z</time>
      </trkpt>
      <trkpt lat="45.14497" lon="5.91532">
        <ele>1528.4</ele>
        <time>2020-08-11T06:13:50Z</time>
      </trkpt>
      <trkpt lat="45.14497" lon="5.91533">
        <ele>1528.6</ele>
        <time>2020-08-11T06:13:51Z</time>
      </trkpt>
      <trkpt lat="45.14497" lon="5.91533">
        <ele>1528.8</ele>
        <time>2020-08-11T06:13:52Z</time>
      </trkpt>
      <trkpt lat="45.14499" lon="5.91535">
        <ele>1528.8</ele>
        <time>2020-08-11T06:13:53Z</time>
      </trkpt>
      <trkpt lat="45.145" lon="5.91537">
        <ele>1529</ele>
        <time>2020-08-11T06:13:54Z</time>
      </trkpt>
      <trkpt lat="45.14502" lon="5.91538">
        <ele>1529</ele>
        <time>2020-08-11T06:13:55Z</time>
      </trkpt>
      <trkpt lat="45.14504" lon="5.9154">
        <ele>1529.2</ele>
        <time>2020-08-11T06:13:56Z</time>
      </trkpt>
      <trkpt lat="45.14505" lon="5.91541">
        <ele>1529.4</ele>
        <time>2020-08-11T06:13:57Z</time>
      </trkpt>
      <trkpt lat="45.14506" lon="5.91542">
        <ele>1529.6</ele>
        <time>2020-08-11T06:13:58Z</time>
      </trkpt>
      <trkpt lat="45.14507" lon="5.91543">
        <ele>1529.6</ele>
        <time>2020-08-11T06:13:59Z</time>
      </trkpt>
      <trkpt lat="45.14507" lon="5.91543">
        <ele>1529.8</ele>
        <time>2020-08-11T06:14:00Z</time>
      </trkpt>
      <trkpt lat="45.14508" lon="5.91544">
        <ele>1530.2</ele>
        <time>2020-08-11T06:14:01Z</time>
      </trkpt>
      <trkpt lat="45.14509" lon="5.91544">
        <ele>1530.4</ele>
        <time>2020-08-11T06:14:02Z</time>
      </trkpt>
      <trkpt lat="45.14509" lon="5.91545">
        <ele>1530.4</ele>
        <time>2020-08-11T06:14:03Z</time>
      </trkpt>
      <trkpt lat="45.1451" lon="5.91546">
        <ele>1530.2</ele>
        <time>2020-08-11T06:14:04Z</time>
      </trkpt>
      <trkpt lat="45.14511" lon="5.91546">
        <ele>1530</ele>
        <time>2020-08-11T06:14:05Z</time>
      </trkpt>
      <trkpt lat="45.14512" lon="5.91547">
        <ele>1530</ele>
        <time>2020-08-11T06:14:06Z</time>
      </trkpt>
      <trkpt lat="45.14512" lon="5.91547">
        <ele>1530.2</ele>
        <time>2020-08-11T06:14:07Z</time>
      </trkpt>
      <trkpt lat="45.14513" lon="5.91548">
        <ele>1530.4</ele>
        <time>2020-08-11T06:14:08Z</time>
      </trkpt>
      <trkpt lat="45.14514" lon="5.91549">
        <ele>1530.6</ele>
        <time>2020-08-11T06:14:09Z</time>
      </trkpt>
      <trkpt lat="45.14516" lon="5.91551">
        <ele>1530.8</ele>
        <time>2020-08-11T06:14:10Z</time>
      </trkpt>
      <trkpt lat="45.14517" lon="5.91552">
        <ele>1531</ele>
        <time>2020-08-11T06:14:11Z</time>
      </trkpt>
      <trkpt lat="45.14518" lon="5.91554">
        <ele>1531.2</ele>
        <time>2020-08-11T06:14:12Z</time>
      </trkpt>
      <trkpt lat="45.1452" lon="5.91555">
        <ele>1531.4</ele>
        <time>2020-08-11T06:14:13Z</time>
      </trkpt>
      <trkpt lat="45.14521" lon="5.91557">
        <ele>1531.4</ele>
        <time>2020-08-11T06:14:14Z</time>
      </trkpt>
      <trkpt lat="45.14521" lon="5.91557">
        <ele>1531.8</ele>
        <time>2020-08-11T06:14:15Z</time>
      </trkpt>
      <trkpt lat="45.14521" lon="5.91558">
        <ele>1532</ele>
        <time>2020-08-11T06:14:16Z</time>
      </trkpt>
      <trkpt lat="45.14521" lon="5.91558">
        <ele>1532</ele>
        <time>2020-08-11T06:14:17Z</time>
      </trkpt>
      <trkpt lat="45.14521" lon="5.91559">
        <ele>1532.2</ele>
        <time>2020-08-11T06:14:18Z</time>
      </trkpt>
      <trkpt lat="45.14521" lon="5.9156">
        <ele>1532.6</ele>
        <time>2020-08-11T06:14:19Z</time>
      </trkpt>
      <trkpt lat="45.14522" lon="5.9156">
        <ele>1532.8</ele>
        <time>2020-08-11T06:14:20Z</time>
      </trkpt>
      <trkpt lat="45.14522" lon="5.91561">
        <ele>1533.2</ele>
        <time>2020-08-11T06:14:21Z</time>
      </trkpt>
      <trkpt lat="45.14522" lon="5.91561">
        <ele>1533.2</ele>
        <time>2020-08-11T06:14:22Z</time>
      </trkpt>
      <trkpt lat="45.14522" lon="5.91562">
        <ele>1533.6</ele>
        <time>2020-08-11T06:14:23Z</time>
      </trkpt>
      <trkpt lat="45.14522" lon="5.91563">
        <ele>1533.8</ele>
        <time>2020-08-11T06:14:24Z</time>
      </trkpt>
      <trkpt lat="45.14522" lon="5.91563">
        <ele>1534</ele>
        <time>2020-08-11T06:14:25Z</time>
      </trkpt>
      <trkpt lat="45.14522" lon="5.91564">
        <ele>1534.2</ele>
        <time>2020-08-11T06:14:26Z</time>
      </trkpt>
      <trkpt lat="45.14522" lon="5.91564">
        <ele>1534.4</ele>
        <time>2020-08-11T06:14:27Z</time>
      </trkpt>
      <trkpt lat="45.14523" lon="5.91565">
        <ele>1534.6</ele>
        <time>2020-08-11T06:14:28Z</time>
      </trkpt>
      <trkpt lat="45.14523" lon="5.91566">
        <ele>1535</ele>
        <time>2020-08-11T06:14:29Z</time>
      </trkpt>
      <trkpt lat="45.14523" lon="5.91566">
        <ele>1535.6</ele>
        <time>2020-08-11T06:14:30Z</time>
      </trkpt>
      <trkpt lat="45.14523" lon="5.91567">
        <ele>1535.8</ele>
        <time>2020-08-11T06:14:31Z</time>
      </trkpt>
      <trkpt lat="45.14523" lon="5.91567">
        <ele>1536</ele>
        <time>2020-08-11T06:14:32Z</time>
      </trkpt>
      <trkpt lat="45.14523" lon="5.91568">
        <ele>1536.2</ele>
        <time>2020-08-11T06:14:33Z</time>
      </trkpt>
      <trkpt lat="45.14523" lon="5.91569">
        <ele>1536.6</ele>
        <time>2020-08-11T06:14:34Z</time>
      </trkpt>
      <trkpt lat="45.14523" lon="5.91569">
        <ele>1537.2</ele>
        <time>2020-08-11T06:14:35Z</time>
      </trkpt>
      <trkpt lat="45.14524" lon="5.9157">
        <ele>1537.4</ele>
        <time>2020-08-11T06:14:36Z</time>
      </trkpt>
      <trkpt lat="45.14524" lon="5.91572">
        <ele>1537.6</ele>
        <time>2020-08-11T06:14:37Z</time>
      </trkpt>
      <trkpt lat="45.14524" lon="5.91573">
        <ele>1537.8</ele>
        <time>2020-08-11T06:14:38Z</time>
      </trkpt>
      <trkpt lat="45.14524" lon="5.91574">
        <ele>1537.8</ele>
        <time>2020-08-11T06:14:39Z</time>
      </trkpt>
      <trkpt lat="45.14524" lon="5.91575">
        <ele>1538</ele>
        <time>2020-08-11T06:14:40Z</time>
      </trkpt>
      <trkpt lat="45.14524" lon="5.91576">
        <ele>1537.8</ele>
        <time>2020-08-11T06:14:41Z</time>
      </trkpt>
      <trkpt lat="45.14524" lon="5.91577">
        <ele>1538.2</ele>
        <time>2020-08-11T06:14:42Z</time>
      </trkpt>
      <trkpt lat="45.14524" lon="5.91578">
        <ele>1538.2</ele>
        <time>2020-08-11T06:14:43Z</time>
      </trkpt>
      <trkpt lat="45.14524" lon="5.9158">
        <ele>1538.4</ele>
        <time>2020-08-11T06:14:44Z</time>
      </trkpt>
      <trkpt lat="45.14524" lon="5.91581">
        <ele>1538.8</ele>
        <time>2020-08-11T06:14:45Z</time>
      </trkpt>
      <trkpt lat="45.14524" lon="5.91582">
        <ele>1539</ele>
        <time>2020-08-11T06:14:46Z</time>
      </trkpt>
      <trkpt lat="45.14524" lon="5.91583">
        <ele>1539.2</ele>
        <time>2020-08-11T06:14:47Z</time>
      </trkpt>
      <trkpt lat="45.14523" lon="5.91582">
        <ele>1539.2</ele>
        <time>2020-08-11T06:14:48Z</time>
      </trkpt>
      <trkpt lat="45.14522" lon="5.91581">
        <ele>1539.2</ele>
        <time>2020-08-11T06:14:49Z</time>
      </trkpt>
      <trkpt lat="45.14521" lon="5.9158">
        <ele>1539.6</ele>
        <time>2020-08-11T06:14:50Z</time>
      </trkpt>
      <trkpt lat="45.1452" lon="5.91578">
        <ele>1540</ele>
        <time>2020-08-11T06:14:51Z</time>
      </trkpt>
      <trkpt lat="45.14519" lon="5.91577">
        <ele>1540</ele>
        <time>2020-08-11T06:14:52Z</time>
      </trkpt>
      <trkpt lat="45.14518" lon="5.91576">
        <ele>1540.2</ele>
        <time>2020-08-11T06:14:53Z</time>
      </trkpt>
      <trkpt lat="45.14517" lon="5.91575">
        <ele>1540.6</ele>
        <time>2020-08-11T06:14:54Z</time>
      </trkpt>
      <trkpt lat="45.14516" lon="5.91574">
        <ele>1540.8</ele>
        <time>2020-08-11T06:14:55Z</time>
      </trkpt>
      <trkpt lat="45.14515" lon="5.91573">
        <ele>1541</ele>
        <time>2020-08-11T06:14:56Z</time>
      </trkpt>
      <trkpt lat="45.14514" lon="5.91573">
        <ele>1541.6</ele>
        <time>2020-08-11T06:14:57Z</time>
      </trkpt>
      <trkpt lat="45.14513" lon="5.91572">
        <ele>1541.6</ele>
        <time>2020-08-11T06:14:58Z</time>
      </trkpt>
      <trkpt lat="45.14512" lon="5.91571">
        <ele>1542</ele>
        <time>2020-08-11T06:14:59Z</time>
      </trkpt>
      <trkpt lat="45.14511" lon="5.9157">
        <ele>1542.4</ele>
        <time>2020-08-11T06:15:00Z</time>
      </trkpt>
      <trkpt lat="45.1451" lon="5.91569">
        <ele>1542.4</ele>
        <time>2020-08-11T06:15:01Z</time>
      </trkpt>
      <trkpt lat="45.14509" lon="5.91569">
        <ele>1542.8</ele>
        <time>2020-08-11T06:15:02Z</time>
      </trkpt>
      <trkpt lat="45.14509" lon="5.9157">
        <ele>1543</ele>
        <time>2020-08-11T06:15:03Z</time>
      </trkpt>
      <trkpt lat="45.14509" lon="5.91571">
        <ele>1543.2</ele>
        <time>2020-08-11T06:15:04Z</time>
      </trkpt>
      <trkpt lat="45.14509" lon="5.91572">
        <ele>1543.4</ele>
        <time>2020-08-11T06:15:05Z</time>
      </trkpt>
      <trkpt lat="45.14509" lon="5.91573">
        <ele>1543.8</ele>
        <time>2020-08-11T06:15:06Z</time>
      </trkpt>
      <trkpt lat="45.1451" lon="5.91574">
        <ele>1544</ele>
        <time>2020-08-11T06:15:07Z</time>
      </trkpt>
      <trkpt lat="45.1451" lon="5.91576">
        <ele>1544</ele>
        <time>2020-08-11T06:15:08Z</time>
      </trkpt>
      <trkpt lat="45.1451" lon="5.91577">
        <ele>1544.2</ele>
        <time>2020-08-11T06:15:09Z</time>
      </trkpt>
      <trkpt lat="45.1451" lon="5.91578">
        <ele>1544.2</ele>
        <time>2020-08-11T06:15:10Z</time>
      </trkpt>
      <trkpt lat="45.1451" lon="5.91579">
        <ele>1544</ele>
        <time>2020-08-11T06:15:11Z</time>
      </trkpt>
      <trkpt lat="45.14511" lon="5.9158">
        <ele>1544.8</ele>
        <time>2020-08-11T06:15:12Z</time>
      </trkpt>
      <trkpt lat="45.14511" lon="5.91581">
        <ele>1545</ele>
        <time>2020-08-11T06:15:13Z</time>
      </trkpt>
      <trkpt lat="45.14511" lon="5.91583">
        <ele>1545</ele>
        <time>2020-08-11T06:15:14Z</time>
      </trkpt>
      <trkpt lat="45.14511" lon="5.91583">
        <ele>1545</ele>
        <time>2020-08-11T06:15:15Z</time>
      </trkpt>
      <trkpt lat="45.14511" lon="5.91584">
        <ele>1545</ele>
        <time>2020-08-11T06:15:16Z</time>
      </trkpt>
      <trkpt lat="45.14511" lon="5.91584">
        <ele>1545.2</ele>
        <time>2020-08-11T06:15:17Z</time>
      </trkpt>
      <trkpt lat="45.14511" lon="5.91585">
        <ele>1545.4</ele>
        <time>2020-08-11T06:15:18Z</time>
      </trkpt>
      <trkpt lat="45.14511" lon="5.91586">
        <ele>1545.6</ele>
        <time>2020-08-11T06:15:19Z</time>
      </trkpt>
      <trkpt lat="45.14511" lon="5.91586">
        <ele>1545.8</ele>
        <time>2020-08-11T06:15:20Z</time>
      </trkpt>
      <trkpt lat="45.14512" lon="5.91587">
        <ele>1546</ele>
        <time>2020-08-11T06:15:21Z</time>
      </trkpt>
      <trkpt lat="45.14512" lon="5.91587">
        <ele>1546.4</ele>
        <time>2020-08-11T06:15:22Z</time>
      </trkpt>
      <trkpt lat="45.14512" lon="5.91588">
        <ele>1546.6</ele>
        <time>2020-08-11T06:15:23Z</time>
      </trkpt>
      <trkpt lat="45.14512" lon="5.91589">
        <ele>1547.2</ele>
        <time>2020-08-11T06:15:24Z</time>
      </trkpt>
      <trkpt lat="45.14512" lon="5.91589">
        <ele>1547.6</ele>
        <time>2020-08-11T06:15:25Z</time>
      </trkpt>
      <trkpt lat="45.14512" lon="5.9159">
        <ele>1547.8</ele>
        <time>2020-08-11T06:15:26Z</time>
      </trkpt>
      <trkpt lat="45.14512" lon="5.9159">
        <ele>1547.8</ele>
        <time>2020-08-11T06:15:27Z</time>
      </trkpt>
      <trkpt lat="45.14512" lon="5.91591">
        <ele>1548</ele>
        <time>2020-08-11T06:15:28Z</time>
      </trkpt>
      <trkpt lat="45.14512" lon="5.91592">
        <ele>1548.4</ele>
        <time>2020-08-11T06:15:29Z</time>
      </trkpt>
      <trkpt lat="45.14512" lon="5.91592">
        <ele>1549</ele>
        <time>2020-08-11T06:15:30Z</time>
      </trkpt>
      <trkpt lat="45.14512" lon="5.91593">
        <ele>1549.4</ele>
        <time>2020-08-11T06:15:31Z</time>
      </trkpt>
      <trkpt lat="45.14513" lon="5.91593">
        <ele>1549.4</ele>
        <time>2020-08-11T06:15:32Z</time>
      </trkpt>
      <trkpt lat="45.14513" lon="5.91594">
        <ele>1549.6</ele>
        <time>2020-08-11T06:15:33Z</time>
      </trkpt>
      <trkpt lat="45.14513" lon="5.91595">
        <ele>1550</ele>
        <time>2020-08-11T06:15:34Z</time>
      </trkpt>
      <trkpt lat="45.14513" lon="5.91595">
        <ele>1550.6</ele>
        <time>2020-08-11T06:15:35Z</time>
      </trkpt>
      <trkpt lat="45.14513" lon="5.91596">
        <ele>1550.6</ele>
        <time>2020-08-11T06:15:36Z</time>
      </trkpt>
      <trkpt lat="45.14514" lon="5.91596">
        <ele>1550.8</ele>
        <time>2020-08-11T06:15:37Z</time>
      </trkpt>
      <trkpt lat="45.14514" lon="5.91597">
        <ele>1550.8</ele>
        <time>2020-08-11T06:15:38Z</time>
      </trkpt>
      <trkpt lat="45.14515" lon="5.91598">
        <ele>1551</ele>
        <time>2020-08-11T06:15:39Z</time>
      </trkpt>
      <trkpt lat="45.14516" lon="5.91598">
        <ele>1551.2</ele>
        <time>2020-08-11T06:15:40Z</time>
      </trkpt>
      <trkpt lat="45.14517" lon="5.91599">
        <ele>1551.4</ele>
        <time>2020-08-11T06:15:41Z</time>
      </trkpt>
      <trkpt lat="45.14517" lon="5.91599">
        <ele>1551.6</ele>
        <time>2020-08-11T06:15:42Z</time>
      </trkpt>
      <trkpt lat="45.14518" lon="5.916">
        <ele>1551.8</ele>
        <time>2020-08-11T06:15:43Z</time>
      </trkpt>
      <trkpt lat="45.14519" lon="5.91601">
        <ele>1552</ele>
        <time>2020-08-11T06:15:44Z</time>
      </trkpt>
      <trkpt lat="45.1452" lon="5.91601">
        <ele>1551.8</ele>
        <time>2020-08-11T06:15:45Z</time>
      </trkpt>
      <trkpt lat="45.1452" lon="5.91602">
        <ele>1551.6</ele>
        <time>2020-08-11T06:15:46Z</time>
      </trkpt>
      <trkpt lat="45.14521" lon="5.91602">
        <ele>1551.6</ele>
        <time>2020-08-11T06:15:47Z</time>
      </trkpt>
      <trkpt lat="45.14521" lon="5.91604">
        <ele>1551.4</ele>
        <time>2020-08-11T06:15:48Z</time>
      </trkpt>
      <trkpt lat="45.14522" lon="5.91606">
        <ele>1551.4</ele>
        <time>2020-08-11T06:15:49Z</time>
      </trkpt>
      <trkpt lat="45.14522" lon="5.91608">
        <ele>1551.4</ele>
        <time>2020-08-11T06:15:50Z</time>
      </trkpt>
      <trkpt lat="45.14522" lon="5.91609">
        <ele>1551.4</ele>
        <time>2020-08-11T06:15:51Z</time>
      </trkpt>
      <trkpt lat="45.14523" lon="5.91611">
        <ele>1551.6</ele>
        <time>2020-08-11T06:15:52Z</time>
      </trkpt>
      <trkpt lat="45.14523" lon="5.91613">
        <ele>1551.8</ele>
        <time>2020-08-11T06:15:53Z</time>
      </trkpt>
      <trkpt lat="45.14523" lon="5.91614">
        <ele>1552</ele>
        <time>2020-08-11T06:15:54Z</time>
      </trkpt>
      <trkpt lat="45.14523" lon="5.91616">
        <ele>1552.2</ele>
        <time>2020-08-11T06:15:55Z</time>
      </trkpt>
      <trkpt lat="45.14524" lon="5.91618">
        <ele>1552.2</ele>
        <time>2020-08-11T06:15:56Z</time>
      </trkpt>
      <trkpt lat="45.14524" lon="5.9162">
        <ele>1552.6</ele>
        <time>2020-08-11T06:15:57Z</time>
      </trkpt>
      <trkpt lat="45.14523" lon="5.91621">
        <ele>1552.8</ele>
        <time>2020-08-11T06:15:58Z</time>
      </trkpt>
      <trkpt lat="45.14523" lon="5.91623">
        <ele>1553.2</ele>
        <time>2020-08-11T06:15:59Z</time>
      </trkpt>
      <trkpt lat="45.14523" lon="5.91625">
        <ele>1553.4</ele>
        <time>2020-08-11T06:16:00Z</time>
      </trkpt>
      <trkpt lat="45.14523" lon="5.91627">
        <ele>1553.4</ele>
        <time>2020-08-11T06:16:01Z</time>
      </trkpt>
      <trkpt lat="45.14523" lon="5.91629">
        <ele>1553.2</ele>
        <time>2020-08-11T06:16:02Z</time>
      </trkpt>
      <trkpt lat="45.14523" lon="5.91631">
        <ele>1553.2</ele>
        <time>2020-08-11T06:16:03Z</time>
      </trkpt>
      <trkpt lat="45.14523" lon="5.91632">
        <ele>1553</ele>
        <time>2020-08-11T06:16:04Z</time>
      </trkpt>
      <trkpt lat="45.14523" lon="5.91633">
        <ele>1552.8</ele>
        <time>2020-08-11T06:16:05Z</time>
      </trkpt>
      <trkpt lat="45.14524" lon="5.91634">
        <ele>1552.8</ele>
        <time>2020-08-11T06:16:06Z</time>
      </trkpt>
      <trkpt lat="45.14524" lon="5.91636">
        <ele>1552.8</ele>
        <time>2020-08-11T06:16:07Z</time>
      </trkpt>
      <trkpt lat="45.14524" lon="5.91637">
        <ele>1553</ele>
        <time>2020-08-11T06:16:08Z</time>
      </trkpt>
      <trkpt lat="45.14525" lon="5.91638">
        <ele>1553</ele>
        <time>2020-08-11T06:16:09Z</time>
      </trkpt>
      <trkpt lat="45.14525" lon="5.91639">
        <ele>1553</ele>
        <time>2020-08-11T06:16:10Z</time>
      </trkpt>
      <trkpt lat="45.14525" lon="5.91641">
        <ele>1553.2</ele>
        <time>2020-08-11T06:16:11Z</time>
      </trkpt>
      <trkpt lat="45.14525" lon="5.91642">
        <ele>1553.2</ele>
        <time>2020-08-11T06:16:12Z</time>
      </trkpt>
      <trkpt lat="45.14526" lon="5.91643">
        <ele>1553</ele>
        <time>2020-08-11T06:16:13Z</time>
      </trkpt>
      <trkpt lat="45.14526" lon="5.91644">
        <ele>1553</ele>
        <time>2020-08-11T06:16:14Z</time>
      </trkpt>
      <trkpt lat="45.14525" lon="5.91646">
        <ele>1553.2</ele>
        <time>2020-08-11T06:16:15Z</time>
      </trkpt>
      <trkpt lat="45.14525" lon="5.91647">
        <ele>1553.4</ele>
        <time>2020-08-11T06:16:16Z</time>
      </trkpt>
      <trkpt lat="45.14525" lon="5.91648">
        <ele>1553.4</ele>
        <time>2020-08-11T06:16:17Z</time>
      </trkpt>
      <trkpt lat="45.14525" lon="5.9165">
        <ele>1553.6</ele>
        <time>2020-08-11T06:16:18Z</time>
      </trkpt>
      <trkpt lat="45.14524" lon="5.91651">
        <ele>1553.8</ele>
        <time>2020-08-11T06:16:19Z</time>
      </trkpt>
      <trkpt lat="45.14524" lon="5.91652">
        <ele>1553.8</ele>
        <time>2020-08-11T06:16:20Z</time>
      </trkpt>
      <trkpt lat="45.14524" lon="5.91653">
        <ele>1553.8</ele>
        <time>2020-08-11T06:16:21Z</time>
      </trkpt>
      <trkpt lat="45.14524" lon="5.91655">
        <ele>1553.8</ele>
        <time>2020-08-11T06:16:22Z</time>
      </trkpt>
      <trkpt lat="45.14523" lon="5.91656">
        <ele>1553.8</ele>
        <time>2020-08-11T06:16:23Z</time>
      </trkpt>
      <trkpt lat="45.14523" lon="5.91657">
        <ele>1553.6</ele>
        <time>2020-08-11T06:16:24Z</time>
      </trkpt>
      <trkpt lat="45.14523" lon="5.91658">
        <ele>1553.6</ele>
        <time>2020-08-11T06:16:25Z</time>
      </trkpt>
      <trkpt lat="45.14523" lon="5.9166">
        <ele>1553.8</ele>
        <time>2020-08-11T06:16:26Z</time>
      </trkpt>
      <trkpt lat="45.14523" lon="5.91661">
        <ele>1553.8</ele>
        <time>2020-08-11T06:16:27Z</time>
      </trkpt>
      <trkpt lat="45.14523" lon="5.91662">
        <ele>1553.8</ele>
        <time>2020-08-11T06:16:28Z</time>
      </trkpt>
      <trkpt lat="45.14523" lon="5.91663">
        <ele>1553.8</ele>
        <time>2020-08-11T06:16:29Z</time>
      </trkpt>
      <trkpt lat="45.14523" lon="5.91664">
        <ele>1553.6</ele>
        <time>2020-08-11T06:16:30Z</time>
      </trkpt>
      <trkpt lat="45.14523" lon="5.91665">
        <ele>1553.8</ele>
        <time>2020-08-11T06:16:31Z</time>
      </trkpt>
      <trkpt lat="45.14523" lon="5.91666">
        <ele>1553.6</ele>
        <time>2020-08-11T06:16:32Z</time>
      </trkpt>
      <trkpt lat="45.14523" lon="5.91668">
        <ele>1553.4</ele>
        <time>2020-08-11T06:16:33Z</time>
      </trkpt>
      <trkpt lat="45.14523" lon="5.91669">
        <ele>1553.4</ele>
        <time>2020-08-11T06:16:34Z</time>
      </trkpt>
      <trkpt lat="45.14523" lon="5.9167">
        <ele>1553.6</ele>
        <time>2020-08-11T06:16:35Z</time>
      </trkpt>
      <trkpt lat="45.14525" lon="5.91673">
        <ele>1553.6</ele>
        <time>2020-08-11T06:16:36Z</time>
      </trkpt>
      <trkpt lat="45.14527" lon="5.91675">
        <ele>1553.6</ele>
        <time>2020-08-11T06:16:37Z</time>
      </trkpt>
      <trkpt lat="45.14528" lon="5.91678">
        <ele>1553.6</ele>
        <time>2020-08-11T06:16:38Z</time>
      </trkpt>
      <trkpt lat="45.1453" lon="5.91681">
        <ele>1553.6</ele>
        <time>2020-08-11T06:16:39Z</time>
      </trkpt>
      <trkpt lat="45.14531" lon="5.91683">
        <ele>1553.6</ele>
        <time>2020-08-11T06:16:40Z</time>
      </trkpt>
      <trkpt lat="45.14532" lon="5.91685">
        <ele>1553.6</ele>
        <time>2020-08-11T06:16:41Z</time>
      </trkpt>
      <trkpt lat="45.14532" lon="5.91687">
        <ele>1553.6</ele>
        <time>2020-08-11T06:16:42Z</time>
      </trkpt>
      <trkpt lat="45.14533" lon="5.91689">
        <ele>1553.6</ele>
        <time>2020-08-11T06:16:43Z</time>
      </trkpt>
      <trkpt lat="45.14534" lon="5.91691">
        <ele>1553.8</ele>
        <time>2020-08-11T06:16:44Z</time>
      </trkpt>
      <trkpt lat="45.14535" lon="5.91693">
        <ele>1553.8</ele>
        <time>2020-08-11T06:16:45Z</time>
      </trkpt>
      <trkpt lat="45.14534" lon="5.91695">
        <ele>1553.8</ele>
        <time>2020-08-11T06:16:46Z</time>
      </trkpt>
      <trkpt lat="45.14534" lon="5.91698">
        <ele>1554</ele>
        <time>2020-08-11T06:16:47Z</time>
      </trkpt>
      <trkpt lat="45.14534" lon="5.917">
        <ele>1554.2</ele>
        <time>2020-08-11T06:16:48Z</time>
      </trkpt>
      <trkpt lat="45.14533" lon="5.91702">
        <ele>1554.2</ele>
        <time>2020-08-11T06:16:49Z</time>
      </trkpt>
      <trkpt lat="45.14533" lon="5.91704">
        <ele>1554.2</ele>
        <time>2020-08-11T06:16:50Z</time>
      </trkpt>
      <trkpt lat="45.14533" lon="5.91706">
        <ele>1554</ele>
        <time>2020-08-11T06:16:51Z</time>
      </trkpt>
      <trkpt lat="45.14532" lon="5.91708">
        <ele>1554.2</ele>
        <time>2020-08-11T06:16:52Z</time>
      </trkpt>
      <trkpt lat="45.14532" lon="5.91709">
        <ele>1554.2</ele>
        <time>2020-08-11T06:16:53Z</time>
      </trkpt>
      <trkpt lat="45.14532" lon="5.91711">
        <ele>1554.4</ele>
        <time>2020-08-11T06:16:54Z</time>
      </trkpt>
      <trkpt lat="45.14532" lon="5.91712">
        <ele>1554.4</ele>
        <time>2020-08-11T06:16:55Z</time>
      </trkpt>
      <trkpt lat="45.14532" lon="5.91714">
        <ele>1554.2</ele>
        <time>2020-08-11T06:16:56Z</time>
      </trkpt>
      <trkpt lat="45.14532" lon="5.91715">
        <ele>1554.2</ele>
        <time>2020-08-11T06:16:57Z</time>
      </trkpt>
      <trkpt lat="45.14532" lon="5.91717">
        <ele>1553.8</ele>
        <time>2020-08-11T06:16:58Z</time>
      </trkpt>
      <trkpt lat="45.14532" lon="5.91719">
        <ele>1553.8</ele>
        <time>2020-08-11T06:16:59Z</time>
      </trkpt>
      <trkpt lat="45.14532" lon="5.9172">
        <ele>1554</ele>
        <time>2020-08-11T06:17:00Z</time>
      </trkpt>
      <trkpt lat="45.14532" lon="5.91722">
        <ele>1554</ele>
        <time>2020-08-11T06:17:01Z</time>
      </trkpt>
      <trkpt lat="45.14532" lon="5.91723">
        <ele>1554</ele>
        <time>2020-08-11T06:17:02Z</time>
      </trkpt>
      <trkpt lat="45.14532" lon="5.91725">
        <ele>1554</ele>
        <time>2020-08-11T06:17:03Z</time>
      </trkpt>
      <trkpt lat="45.14532" lon="5.91727">
        <ele>1554.2</ele>
        <time>2020-08-11T06:17:04Z</time>
      </trkpt>
      <trkpt lat="45.14532" lon="5.91728">
        <ele>1554.2</ele>
        <time>2020-08-11T06:17:05Z</time>
      </trkpt>
      <trkpt lat="45.14532" lon="5.9173">
        <ele>1554.4</ele>
        <time>2020-08-11T06:17:06Z</time>
      </trkpt>
      <trkpt lat="45.14532" lon="5.91731">
        <ele>1554.2</ele>
        <time>2020-08-11T06:17:07Z</time>
      </trkpt>
      <trkpt lat="45.14532" lon="5.91733">
        <ele>1554.2</ele>
        <time>2020-08-11T06:17:08Z</time>
      </trkpt>
      <trkpt lat="45.14532" lon="5.91735">
        <ele>1554.2</ele>
        <time>2020-08-11T06:17:09Z</time>
      </trkpt>
      <trkpt lat="45.14532" lon="5.91736">
        <ele>1554.2</ele>
        <time>2020-08-11T06:17:10Z</time>
      </trkpt>
      <trkpt lat="45.14533" lon="5.91737">
        <ele>1554.2</ele>
        <time>2020-08-11T06:17:11Z</time>
      </trkpt>
      <trkpt lat="45.14534" lon="5.91738">
        <ele>1554.8</ele>
        <time>2020-08-11T06:17:12Z</time>
      </trkpt>
      <trkpt lat="45.14535" lon="5.91739">
        <ele>1555</ele>
        <time>2020-08-11T06:17:13Z</time>
      </trkpt>
      <trkpt lat="45.14535" lon="5.9174">
        <ele>1555</ele>
        <time>2020-08-11T06:17:14Z</time>
      </trkpt>
      <trkpt lat="45.14536" lon="5.91741">
        <ele>1554.8</ele>
        <time>2020-08-11T06:17:15Z</time>
      </trkpt>
      <trkpt lat="45.14537" lon="5.91742">
        <ele>1555</ele>
        <time>2020-08-11T06:17:16Z</time>
      </trkpt>
      <trkpt lat="45.14538" lon="5.91743">
        <ele>1555</ele>
        <time>2020-08-11T06:17:17Z</time>
      </trkpt>
      <trkpt lat="45.14538" lon="5.91744">
        <ele>1554.8</ele>
        <time>2020-08-11T06:17:18Z</time>
      </trkpt>
      <trkpt lat="45.14539" lon="5.91745">
        <ele>1554.8</ele>
        <time>2020-08-11T06:17:19Z</time>
      </trkpt>
      <trkpt lat="45.1454" lon="5.91746">
        <ele>1554.6</ele>
        <time>2020-08-11T06:17:20Z</time>
      </trkpt>
      <trkpt lat="45.1454" lon="5.91748">
        <ele>1554.8</ele>
        <time>2020-08-11T06:17:21Z</time>
      </trkpt>
      <trkpt lat="45.1454" lon="5.91749">
        <ele>1554.8</ele>
        <time>2020-08-11T06:17:22Z</time>
      </trkpt>
      <trkpt lat="45.14541" lon="5.9175">
        <ele>1554.6</ele>
        <time>2020-08-11T06:17:23Z</time>
      </trkpt>
      <trkpt lat="45.14541" lon="5.91752">
        <ele>1554.6</ele>
        <time>2020-08-11T06:17:24Z</time>
      </trkpt>
      <trkpt lat="45.14541" lon="5.91753">
        <ele>1554.6</ele>
        <time>2020-08-11T06:17:25Z</time>
      </trkpt>
      <trkpt lat="45.14542" lon="5.91754">
        <ele>1554.6</ele>
        <time>2020-08-11T06:17:26Z</time>
      </trkpt>
      <trkpt lat="45.14542" lon="5.91756">
        <ele>1554.6</ele>
        <time>2020-08-11T06:17:27Z</time>
      </trkpt>
      <trkpt lat="45.14542" lon="5.91757">
        <ele>1554.6</ele>
        <time>2020-08-11T06:17:28Z</time>
      </trkpt>
      <trkpt lat="45.14543" lon="5.91758">
        <ele>1555</ele>
        <time>2020-08-11T06:17:29Z</time>
      </trkpt>
      <trkpt lat="45.14543" lon="5.9176">
        <ele>1555</ele>
        <time>2020-08-11T06:17:30Z</time>
      </trkpt>
      <trkpt lat="45.14544" lon="5.91761">
        <ele>1555</ele>
        <time>2020-08-11T06:17:31Z</time>
      </trkpt>
      <trkpt lat="45.14544" lon="5.91763">
        <ele>1555</ele>
        <time>2020-08-11T06:17:32Z</time>
      </trkpt>
      <trkpt lat="45.14544" lon="5.91764">
        <ele>1555.2</ele>
        <time>2020-08-11T06:17:33Z</time>
      </trkpt>
      <trkpt lat="45.14545" lon="5.91766">
        <ele>1555.2</ele>
        <time>2020-08-11T06:17:34Z</time>
      </trkpt>
      <trkpt lat="45.14545" lon="5.91767">
        <ele>1555.2</ele>
        <time>2020-08-11T06:17:35Z</time>
      </trkpt>
      <trkpt lat="45.14546" lon="5.91769">
        <ele>1555.4</ele>
        <time>2020-08-11T06:17:36Z</time>
      </trkpt>
      <trkpt lat="45.14546" lon="5.9177">
        <ele>1555.4</ele>
        <time>2020-08-11T06:17:37Z</time>
      </trkpt>
      <trkpt lat="45.14546" lon="5.91772">
        <ele>1555.4</ele>
        <time>2020-08-11T06:17:38Z</time>
      </trkpt>
      <trkpt lat="45.14546" lon="5.91774">
        <ele>1555.4</ele>
        <time>2020-08-11T06:17:39Z</time>
      </trkpt>
      <trkpt lat="45.14546" lon="5.91776">
        <ele>1555.4</ele>
        <time>2020-08-11T06:17:40Z</time>
      </trkpt>
      <trkpt lat="45.14546" lon="5.91778">
        <ele>1555.4</ele>
        <time>2020-08-11T06:17:41Z</time>
      </trkpt>
      <trkpt lat="45.14546" lon="5.91779">
        <ele>1555.2</ele>
        <time>2020-08-11T06:17:42Z</time>
      </trkpt>
      <trkpt lat="45.14546" lon="5.91781">
        <ele>1555</ele>
        <time>2020-08-11T06:17:43Z</time>
      </trkpt>
      <trkpt lat="45.14546" lon="5.91783">
        <ele>1555.2</ele>
        <time>2020-08-11T06:17:44Z</time>
      </trkpt>
      <trkpt lat="45.14545" lon="5.91785">
        <ele>1555.4</ele>
        <time>2020-08-11T06:17:45Z</time>
      </trkpt>
      <trkpt lat="45.14545" lon="5.91788">
        <ele>1555.6</ele>
        <time>2020-08-11T06:17:46Z</time>
      </trkpt>
      <trkpt lat="45.14545" lon="5.9179">
        <ele>1555.8</ele>
        <time>2020-08-11T06:17:47Z</time>
      </trkpt>
      <trkpt lat="45.14544" lon="5.91792">
        <ele>1555.8</ele>
        <time>2020-08-11T06:17:48Z</time>
      </trkpt>
      <trkpt lat="45.14544" lon="5.91794">
        <ele>1555.6</ele>
        <time>2020-08-11T06:17:49Z</time>
      </trkpt>
      <trkpt lat="45.14543" lon="5.91796">
        <ele>1556</ele>
        <time>2020-08-11T06:17:50Z</time>
      </trkpt>
      <trkpt lat="45.14542" lon="5.91799">
        <ele>1556.2</ele>
        <time>2020-08-11T06:17:51Z</time>
      </trkpt>
      <trkpt lat="45.1454" lon="5.91801">
        <ele>1556.2</ele>
        <time>2020-08-11T06:17:52Z</time>
      </trkpt>
      <trkpt lat="45.14538" lon="5.91803">
        <ele>1556</ele>
        <time>2020-08-11T06:17:53Z</time>
      </trkpt>
      <trkpt lat="45.14536" lon="5.91805">
        <ele>1556</ele>
        <time>2020-08-11T06:17:54Z</time>
      </trkpt>
      <trkpt lat="45.14536" lon="5.91807">
        <ele>1556</ele>
        <time>2020-08-11T06:17:55Z</time>
      </trkpt>
      <trkpt lat="45.14535" lon="5.91809">
        <ele>1556</ele>
        <time>2020-08-11T06:17:56Z</time>
      </trkpt>
      <trkpt lat="45.14535" lon="5.9181">
        <ele>1556.2</ele>
        <time>2020-08-11T06:17:57Z</time>
      </trkpt>
      <trkpt lat="45.14534" lon="5.91812">
        <ele>1556.4</ele>
        <time>2020-08-11T06:17:58Z</time>
      </trkpt>
      <trkpt lat="45.14534" lon="5.91813">
        <ele>1556.4</ele>
        <time>2020-08-11T06:17:59Z</time>
      </trkpt>
      <trkpt lat="45.14534" lon="5.91815">
        <ele>1556.4</ele>
        <time>2020-08-11T06:18:00Z</time>
      </trkpt>
      <trkpt lat="45.14533" lon="5.91816">
        <ele>1556.4</ele>
        <time>2020-08-11T06:18:01Z</time>
      </trkpt>
      <trkpt lat="45.14533" lon="5.91818">
        <ele>1556.4</ele>
        <time>2020-08-11T06:18:02Z</time>
      </trkpt>
      <trkpt lat="45.14533" lon="5.91819">
        <ele>1556.6</ele>
        <time>2020-08-11T06:18:03Z</time>
      </trkpt>
      <trkpt lat="45.1453" lon="5.91824">
        <ele>1556.8</ele>
        <time>2020-08-11T06:18:04Z</time>
      </trkpt>
      <trkpt lat="45.14528" lon="5.91829">
        <ele>1557</ele>
        <time>2020-08-11T06:18:05Z</time>
      </trkpt>
      <trkpt lat="45.14526" lon="5.91834">
        <ele>1557.2</ele>
        <time>2020-08-11T06:18:06Z</time>
      </trkpt>
      <trkpt lat="45.14524" lon="5.91835">
        <ele>1557</ele>
        <time>2020-08-11T06:18:07Z</time>
      </trkpt>
      <trkpt lat="45.14524" lon="5.91835">
        <ele>1557.2</ele>
        <time>2020-08-11T06:18:08Z</time>
      </trkpt>
      <trkpt lat="45.14523" lon="5.91835">
        <ele>1557.4</ele>
        <time>2020-08-11T06:18:09Z</time>
      </trkpt>
      <trkpt lat="45.14523" lon="5.91835">
        <ele>1557.8</ele>
        <time>2020-08-11T06:18:10Z</time>
      </trkpt>
      <trkpt lat="45.14522" lon="5.91836">
        <ele>1557.8</ele>
        <time>2020-08-11T06:18:11Z</time>
      </trkpt>
      <trkpt lat="45.14521" lon="5.91836">
        <ele>1558.2</ele>
        <time>2020-08-11T06:18:12Z</time>
      </trkpt>
      <trkpt lat="45.14521" lon="5.91836">
        <ele>1558.4</ele>
        <time>2020-08-11T06:18:13Z</time>
      </trkpt>
      <trkpt lat="45.1452" lon="5.91836">
        <ele>1558.6</ele>
        <time>2020-08-11T06:18:14Z</time>
      </trkpt>
      <trkpt lat="45.14519" lon="5.91836">
        <ele>1558.8</ele>
        <time>2020-08-11T06:18:15Z</time>
      </trkpt>
      <trkpt lat="45.14519" lon="5.91836">
        <ele>1559</ele>
        <time>2020-08-11T06:18:16Z</time>
      </trkpt>
      <trkpt lat="45.14518" lon="5.91836">
        <ele>1559.2</ele>
        <time>2020-08-11T06:18:17Z</time>
      </trkpt>
      <trkpt lat="45.14517" lon="5.91836">
        <ele>1559.8</ele>
        <time>2020-08-11T06:18:18Z</time>
      </trkpt>
      <trkpt lat="45.14517" lon="5.91837">
        <ele>1560.2</ele>
        <time>2020-08-11T06:18:19Z</time>
      </trkpt>
      <trkpt lat="45.14516" lon="5.91837">
        <ele>1560.4</ele>
        <time>2020-08-11T06:18:20Z</time>
      </trkpt>
      <trkpt lat="45.14515" lon="5.91837">
        <ele>1560.6</ele>
        <time>2020-08-11T06:18:21Z</time>
      </trkpt>
      <trkpt lat="45.14515" lon="5.91837">
        <ele>1560.8</ele>
        <time>2020-08-11T06:18:22Z</time>
      </trkpt>
      <trkpt lat="45.14514" lon="5.91837">
        <ele>1561</ele>
        <time>2020-08-11T06:18:23Z</time>
      </trkpt>
      <trkpt lat="45.14513" lon="5.91837">
        <ele>1561.4</ele>
        <time>2020-08-11T06:18:24Z</time>
      </trkpt>
      <trkpt lat="45.14513" lon="5.91837">
        <ele>1561.8</ele>
        <time>2020-08-11T06:18:25Z</time>
      </trkpt>
      <trkpt lat="45.14512" lon="5.91837">
        <ele>1562</ele>
        <time>2020-08-11T06:18:26Z</time>
      </trkpt>
      <trkpt lat="45.14511" lon="5.91838">
        <ele>1562.2</ele>
        <time>2020-08-11T06:18:27Z</time>
      </trkpt>
      <trkpt lat="45.14511" lon="5.91838">
        <ele>1562.4</ele>
        <time>2020-08-11T06:18:28Z</time>
      </trkpt>
      <trkpt lat="45.1451" lon="5.91838">
        <ele>1562.8</ele>
        <time>2020-08-11T06:18:29Z</time>
      </trkpt>
      <trkpt lat="45.14509" lon="5.91838">
        <ele>1563</ele>
        <time>2020-08-11T06:18:30Z</time>
      </trkpt>
      <trkpt lat="45.14509" lon="5.91838">
        <ele>1563.2</ele>
        <time>2020-08-11T06:18:31Z</time>
      </trkpt>
      <trkpt lat="45.14508" lon="5.91838">
        <ele>1563.4</ele>
        <time>2020-08-11T06:18:32Z</time>
      </trkpt>
      <trkpt lat="45.14507" lon="5.91838">
        <ele>1563.8</ele>
        <time>2020-08-11T06:18:33Z</time>
      </trkpt>
      <trkpt lat="45.14507" lon="5.91839">
        <ele>1564.2</ele>
        <time>2020-08-11T06:18:34Z</time>
      </trkpt>
      <trkpt lat="45.14506" lon="5.91839">
        <ele>1564.6</ele>
        <time>2020-08-11T06:18:35Z</time>
      </trkpt>
      <trkpt lat="45.14505" lon="5.91839">
        <ele>1564.8</ele>
        <time>2020-08-11T06:18:36Z</time>
      </trkpt>
      <trkpt lat="45.14505" lon="5.91839">
        <ele>1565</ele>
        <time>2020-08-11T06:18:37Z</time>
      </trkpt>
      <trkpt lat="45.14504" lon="5.91839">
        <ele>1565.2</ele>
        <time>2020-08-11T06:18:38Z</time>
      </trkpt>
      <trkpt lat="45.14503" lon="5.91839">
        <ele>1565.8</ele>
        <time>2020-08-11T06:18:39Z</time>
      </trkpt>
      <trkpt lat="45.14503" lon="5.91839">
        <ele>1566.2</ele>
        <time>2020-08-11T06:18:40Z</time>
      </trkpt>
      <trkpt lat="45.14502" lon="5.91839">
        <ele>1566.2</ele>
        <time>2020-08-11T06:18:41Z</time>
      </trkpt>
      <trkpt lat="45.14501" lon="5.9184">
        <ele>1566.6</ele>
        <time>2020-08-11T06:18:42Z</time>
      </trkpt>
      <trkpt lat="45.14501" lon="5.9184">
        <ele>1566.6</ele>
        <time>2020-08-11T06:18:43Z</time>
      </trkpt>
      <trkpt lat="45.145" lon="5.9184">
        <ele>1567.2</ele>
        <time>2020-08-11T06:18:44Z</time>
      </trkpt>
      <trkpt lat="45.14499" lon="5.9184">
        <ele>1567.6</ele>
        <time>2020-08-11T06:18:45Z</time>
      </trkpt>
      <trkpt lat="45.14499" lon="5.9184">
        <ele>1567.8</ele>
        <time>2020-08-11T06:18:46Z</time>
      </trkpt>
      <trkpt lat="45.14498" lon="5.9184">
        <ele>1568</ele>
        <time>2020-08-11T06:18:47Z</time>
      </trkpt>
      <trkpt lat="45.14497" lon="5.9184">
        <ele>1568</ele>
        <time>2020-08-11T06:18:48Z</time>
      </trkpt>
      <trkpt lat="45.14497" lon="5.9184">
        <ele>1568.2</ele>
        <time>2020-08-11T06:18:49Z</time>
      </trkpt>
      <trkpt lat="45.14496" lon="5.91841">
        <ele>1568.6</ele>
        <time>2020-08-11T06:18:50Z</time>
      </trkpt>
      <trkpt lat="45.14495" lon="5.91841">
        <ele>1568.8</ele>
        <time>2020-08-11T06:18:51Z</time>
      </trkpt>
      <trkpt lat="45.14495" lon="5.91841">
        <ele>1569.2</ele>
        <time>2020-08-11T06:18:52Z</time>
      </trkpt>
      <trkpt lat="45.14494" lon="5.91841">
        <ele>1569.4</ele>
        <time>2020-08-11T06:18:53Z</time>
      </trkpt>
      <trkpt lat="45.14493" lon="5.91841">
        <ele>1569.6</ele>
        <time>2020-08-11T06:18:54Z</time>
      </trkpt>
      <trkpt lat="45.14493" lon="5.91841">
        <ele>1570</ele>
        <time>2020-08-11T06:18:55Z</time>
      </trkpt>
      <trkpt lat="45.14492" lon="5.91841">
        <ele>1570.4</ele>
        <time>2020-08-11T06:18:56Z</time>
      </trkpt>
      <trkpt lat="45.14491" lon="5.91842">
        <ele>1570.6</ele>
        <time>2020-08-11T06:18:57Z</time>
      </trkpt>
      <trkpt lat="45.14491" lon="5.91842">
        <ele>1571</ele>
        <time>2020-08-11T06:18:58Z</time>
      </trkpt>
      <trkpt lat="45.1449" lon="5.91842">
        <ele>1571.2</ele>
        <time>2020-08-11T06:18:59Z</time>
      </trkpt>
      <trkpt lat="45.1449" lon="5.91842">
        <ele>1571.6</ele>
        <time>2020-08-11T06:19:00Z</time>
      </trkpt>
      <trkpt lat="45.14489" lon="5.91842">
        <ele>1572</ele>
        <time>2020-08-11T06:19:01Z</time>
      </trkpt>
      <trkpt lat="45.14488" lon="5.91842">
        <ele>1572</ele>
        <time>2020-08-11T06:19:02Z</time>
      </trkpt>
      <trkpt lat="45.14488" lon="5.91842">
        <ele>1572.2</ele>
        <time>2020-08-11T06:19:03Z</time>
      </trkpt>
      <trkpt lat="45.14487" lon="5.91842">
        <ele>1572.4</ele>
        <time>2020-08-11T06:19:04Z</time>
      </trkpt>
      <trkpt lat="45.14486" lon="5.91843">
        <ele>1572.8</ele>
        <time>2020-08-11T06:19:05Z</time>
      </trkpt>
      <trkpt lat="45.14486" lon="5.91843">
        <ele>1572.8</ele>
        <time>2020-08-11T06:19:06Z</time>
      </trkpt>
      <trkpt lat="45.14485" lon="5.91843">
        <ele>1573.2</ele>
        <time>2020-08-11T06:19:07Z</time>
      </trkpt>
      <trkpt lat="45.14484" lon="5.91843">
        <ele>1573.4</ele>
        <time>2020-08-11T06:19:08Z</time>
      </trkpt>
      <trkpt lat="45.14484" lon="5.91843">
        <ele>1574</ele>
        <time>2020-08-11T06:19:09Z</time>
      </trkpt>
      <trkpt lat="45.14483" lon="5.91843">
        <ele>1574.2</ele>
        <time>2020-08-11T06:19:10Z</time>
      </trkpt>
      <trkpt lat="45.14482" lon="5.91843">
        <ele>1574.4</ele>
        <time>2020-08-11T06:19:11Z</time>
      </trkpt>
      <trkpt lat="45.14482" lon="5.91843">
        <ele>1574.6</ele>
        <time>2020-08-11T06:19:12Z</time>
      </trkpt>
      <trkpt lat="45.14481" lon="5.91844">
        <ele>1575</ele>
        <time>2020-08-11T06:19:13Z</time>
      </trkpt>
      <trkpt lat="45.1448" lon="5.91844">
        <ele>1575.4</ele>
        <time>2020-08-11T06:19:14Z</time>
      </trkpt>
      <trkpt lat="45.1448" lon="5.91844">
        <ele>1575.6</ele>
        <time>2020-08-11T06:19:15Z</time>
      </trkpt>
      <trkpt lat="45.14479" lon="5.91844">
        <ele>1575.8</ele>
        <time>2020-08-11T06:19:16Z</time>
      </trkpt>
      <trkpt lat="45.14478" lon="5.91844">
        <ele>1576</ele>
        <time>2020-08-11T06:19:17Z</time>
      </trkpt>
      <trkpt lat="45.14478" lon="5.91844">
        <ele>1576.4</ele>
        <time>2020-08-11T06:19:18Z</time>
      </trkpt>
      <trkpt lat="45.14477" lon="5.91844">
        <ele>1576.8</ele>
        <time>2020-08-11T06:19:19Z</time>
      </trkpt>
      <trkpt lat="45.14476" lon="5.91845">
        <ele>1576.8</ele>
        <time>2020-08-11T06:19:20Z</time>
      </trkpt>
      <trkpt lat="45.14476" lon="5.91845">
        <ele>1577</ele>
        <time>2020-08-11T06:19:21Z</time>
      </trkpt>
      <trkpt lat="45.14475" lon="5.91845">
        <ele>1577.4</ele>
        <time>2020-08-11T06:19:22Z</time>
      </trkpt>
      <trkpt lat="45.14474" lon="5.91845">
        <ele>1577.8</ele>
        <time>2020-08-11T06:19:23Z</time>
      </trkpt>
      <trkpt lat="45.14474" lon="5.91845">
        <ele>1577.6</ele>
        <time>2020-08-11T06:19:24Z</time>
      </trkpt>
      <trkpt lat="45.14473" lon="5.91845">
        <ele>1578</ele>
        <time>2020-08-11T06:19:25Z</time>
      </trkpt>
      <trkpt lat="45.14472" lon="5.91845">
        <ele>1578.4</ele>
        <time>2020-08-11T06:19:26Z</time>
      </trkpt>
      <trkpt lat="45.14472" lon="5.91845">
        <ele>1578.6</ele>
        <time>2020-08-11T06:19:27Z</time>
      </trkpt>
      <trkpt lat="45.14471" lon="5.91846">
        <ele>1579</ele>
        <time>2020-08-11T06:19:28Z</time>
      </trkpt>
      <trkpt lat="45.1447" lon="5.91846">
        <ele>1579.2</ele>
        <time>2020-08-11T06:19:29Z</time>
      </trkpt>
      <trkpt lat="45.1447" lon="5.91846">
        <ele>1579.6</ele>
        <time>2020-08-11T06:19:30Z</time>
      </trkpt>
      <trkpt lat="45.14469" lon="5.91846">
        <ele>1579.6</ele>
        <time>2020-08-11T06:19:31Z</time>
      </trkpt>
      <trkpt lat="45.14468" lon="5.91846">
        <ele>1579.8</ele>
        <time>2020-08-11T06:19:32Z</time>
      </trkpt>
      <trkpt lat="45.14468" lon="5.91846">
        <ele>1580.4</ele>
        <time>2020-08-11T06:19:33Z</time>
      </trkpt>
      <trkpt lat="45.14467" lon="5.91846">
        <ele>1580.6</ele>
        <time>2020-08-11T06:19:34Z</time>
      </trkpt>
      <trkpt lat="45.14466" lon="5.91847">
        <ele>1580.8</ele>
        <time>2020-08-11T06:19:35Z</time>
      </trkpt>
      <trkpt lat="45.14466" lon="5.91847">
        <ele>1581</ele>
        <time>2020-08-11T06:19:36Z</time>
      </trkpt>
      <trkpt lat="45.14465" lon="5.91847">
        <ele>1581.2</ele>
        <time>2020-08-11T06:19:37Z</time>
      </trkpt>
      <trkpt lat="45.14464" lon="5.91847">
        <ele>1581.6</ele>
        <time>2020-08-11T06:19:38Z</time>
      </trkpt>
      <trkpt lat="45.14464" lon="5.91847">
        <ele>1582</ele>
        <time>2020-08-11T06:19:39Z</time>
      </trkpt>
      <trkpt lat="45.14463" lon="5.91847">
        <ele>1582</ele>
        <time>2020-08-11T06:19:40Z</time>
      </trkpt>
      <trkpt lat="45.14462" lon="5.91847">
        <ele>1582.4</ele>
        <time>2020-08-11T06:19:41Z</time>
      </trkpt>
      <trkpt lat="45.14462" lon="5.91847">
        <ele>1582.6</ele>
        <time>2020-08-11T06:19:42Z</time>
      </trkpt>
      <trkpt lat="45.14461" lon="5.91848">
        <ele>1583</ele>
        <time>2020-08-11T06:19:43Z</time>
      </trkpt>
      <trkpt lat="45.1446" lon="5.91848">
        <ele>1583.2</ele>
        <time>2020-08-11T06:19:44Z</time>
      </trkpt>
      <trkpt lat="45.1446" lon="5.91848">
        <ele>1583.4</ele>
        <time>2020-08-11T06:19:45Z</time>
      </trkpt>
      <trkpt lat="45.14459" lon="5.91848">
        <ele>1583.6</ele>
        <time>2020-08-11T06:19:46Z</time>
      </trkpt>
      <trkpt lat="45.14458" lon="5.91848">
        <ele>1583.8</ele>
        <time>2020-08-11T06:19:47Z</time>
      </trkpt>
      <trkpt lat="45.14458" lon="5.91848">
        <ele>1584.2</ele>
        <time>2020-08-11T06:19:48Z</time>
      </trkpt>
      <trkpt lat="45.14457" lon="5.91848">
        <ele>1584.4</ele>
        <time>2020-08-11T06:19:49Z</time>
      </trkpt>
      <trkpt lat="45.14456" lon="5.91848">
        <ele>1584.6</ele>
        <time>2020-08-11T06:19:50Z</time>
      </trkpt>
      <trkpt lat="45.14456" lon="5.91849">
        <ele>1584.8</ele>
        <time>2020-08-11T06:19:51Z</time>
      </trkpt>
      <trkpt lat="45.14455" lon="5.91849">
        <ele>1585</ele>
        <time>2020-08-11T06:19:52Z</time>
      </trkpt>
      <trkpt lat="45.14455" lon="5.91849">
        <ele>1585.2</ele>
        <time>2020-08-11T06:19:53Z</time>
      </trkpt>
      <trkpt lat="45.14454" lon="5.91849">
        <ele>1585.6</ele>
        <time>2020-08-11T06:19:54Z</time>
      </trkpt>
      <trkpt lat="45.14453" lon="5.91849">
        <ele>1585.8</ele>
        <time>2020-08-11T06:19:55Z</time>
      </trkpt>
      <trkpt lat="45.14453" lon="5.91849">
        <ele>1586</ele>
        <time>2020-08-11T06:19:56Z</time>
      </trkpt>
      <trkpt lat="45.14452" lon="5.91849">
        <ele>1586.2</ele>
        <time>2020-08-11T06:19:57Z</time>
      </trkpt>
      <trkpt lat="45.14451" lon="5.9185">
        <ele>1586.6</ele>
        <time>2020-08-11T06:19:58Z</time>
      </trkpt>
      <trkpt lat="45.14451" lon="5.9185">
        <ele>1586.8</ele>
        <time>2020-08-11T06:19:59Z</time>
      </trkpt>
      <trkpt lat="45.14451" lon="5.9185">
        <ele>1587.2</ele>
        <time>2020-08-11T06:20:01Z</time>
      </trkpt>
      <trkpt lat="45.1445" lon="5.91849">
        <ele>1587.8</ele>
        <time>2020-08-11T06:20:02Z</time>
      </trkpt>
      <trkpt lat="45.1445" lon="5.91849">
        <ele>1588</ele>
        <time>2020-08-11T06:20:03Z</time>
      </trkpt>
      <trkpt lat="45.14449" lon="5.91849">
        <ele>1588.2</ele>
        <time>2020-08-11T06:20:04Z</time>
      </trkpt>
      <trkpt lat="45.14448" lon="5.91849">
        <ele>1588.2</ele>
        <time>2020-08-11T06:20:05Z</time>
      </trkpt>
      <trkpt lat="45.14448" lon="5.91849">
        <ele>1588.4</ele>
        <time>2020-08-11T06:20:06Z</time>
      </trkpt>
      <trkpt lat="45.14447" lon="5.91849">
        <ele>1589</ele>
        <time>2020-08-11T06:20:07Z</time>
      </trkpt>
      <trkpt lat="45.14447" lon="5.91848">
        <ele>1589</ele>
        <time>2020-08-11T06:20:08Z</time>
      </trkpt>
      <trkpt lat="45.14446" lon="5.91848">
        <ele>1589.4</ele>
        <time>2020-08-11T06:20:09Z</time>
      </trkpt>
      <trkpt lat="45.14446" lon="5.91848">
        <ele>1589.6</ele>
        <time>2020-08-11T06:20:10Z</time>
      </trkpt>
      <trkpt lat="45.14445" lon="5.91848">
        <ele>1589.8</ele>
        <time>2020-08-11T06:20:11Z</time>
      </trkpt>
      <trkpt lat="45.14445" lon="5.91848">
        <ele>1589.8</ele>
        <time>2020-08-11T06:20:12Z</time>
      </trkpt>
      <trkpt lat="45.14444" lon="5.91848">
        <ele>1590.4</ele>
        <time>2020-08-11T06:20:13Z</time>
      </trkpt>
      <trkpt lat="45.14444" lon="5.91848">
        <ele>1590.6</ele>
        <time>2020-08-11T06:20:14Z</time>
      </trkpt>
      <trkpt lat="45.14443" lon="5.91847">
        <ele>1590.8</ele>
        <time>2020-08-11T06:20:15Z</time>
      </trkpt>
      <trkpt lat="45.14443" lon="5.91847">
        <ele>1591.2</ele>
        <time>2020-08-11T06:20:16Z</time>
      </trkpt>
      <trkpt lat="45.14442" lon="5.91847">
        <ele>1591.6</ele>
        <time>2020-08-11T06:20:17Z</time>
      </trkpt>
      <trkpt lat="45.14442" lon="5.91847">
        <ele>1591.8</ele>
        <time>2020-08-11T06:20:18Z</time>
      </trkpt>
      <trkpt lat="45.14441" lon="5.91847">
        <ele>1592.2</ele>
        <time>2020-08-11T06:20:19Z</time>
      </trkpt>
      <trkpt lat="45.14441" lon="5.91848">
        <ele>1592.4</ele>
        <time>2020-08-11T06:20:20Z</time>
      </trkpt>
      <trkpt lat="45.1444" lon="5.91848">
        <ele>1592.6</ele>
        <time>2020-08-11T06:20:21Z</time>
      </trkpt>
      <trkpt lat="45.14439" lon="5.91848">
        <ele>1592.8</ele>
        <time>2020-08-11T06:20:22Z</time>
      </trkpt>
      <trkpt lat="45.14439" lon="5.91848">
        <ele>1593.2</ele>
        <time>2020-08-11T06:20:23Z</time>
      </trkpt>
      <trkpt lat="45.14438" lon="5.91849">
        <ele>1593.6</ele>
        <time>2020-08-11T06:20:24Z</time>
      </trkpt>
      <trkpt lat="45.14438" lon="5.91849">
        <ele>1593.8</ele>
        <time>2020-08-11T06:20:25Z</time>
      </trkpt>
      <trkpt lat="45.14437" lon="5.91849">
        <ele>1593.8</ele>
        <time>2020-08-11T06:20:26Z</time>
      </trkpt>
      <trkpt lat="45.14436" lon="5.9185">
        <ele>1594.2</ele>
        <time>2020-08-11T06:20:27Z</time>
      </trkpt>
      <trkpt lat="45.14436" lon="5.9185">
        <ele>1594.4</ele>
        <time>2020-08-11T06:20:28Z</time>
      </trkpt>
      <trkpt lat="45.14435" lon="5.9185">
        <ele>1594.6</ele>
        <time>2020-08-11T06:20:29Z</time>
      </trkpt>
      <trkpt lat="45.14435" lon="5.91851">
        <ele>1595</ele>
        <time>2020-08-11T06:20:30Z</time>
      </trkpt>
      <trkpt lat="45.14434" lon="5.91851">
        <ele>1595.4</ele>
        <time>2020-08-11T06:20:31Z</time>
      </trkpt>
      <trkpt lat="45.14434" lon="5.91851">
        <ele>1595.6</ele>
        <time>2020-08-11T06:20:32Z</time>
      </trkpt>
      <trkpt lat="45.14433" lon="5.91852">
        <ele>1595.8</ele>
        <time>2020-08-11T06:20:33Z</time>
      </trkpt>
      <trkpt lat="45.14433" lon="5.91852">
        <ele>1596</ele>
        <time>2020-08-11T06:20:34Z</time>
      </trkpt>
      <trkpt lat="45.14432" lon="5.91851">
        <ele>1596.2</ele>
        <time>2020-08-11T06:20:35Z</time>
      </trkpt>
      <trkpt lat="45.14432" lon="5.91851">
        <ele>1596.4</ele>
        <time>2020-08-11T06:20:36Z</time>
      </trkpt>
      <trkpt lat="45.14432" lon="5.91851">
        <ele>1596.8</ele>
        <time>2020-08-11T06:20:37Z</time>
      </trkpt>
      <trkpt lat="45.14431" lon="5.91851">
        <ele>1597.2</ele>
        <time>2020-08-11T06:20:38Z</time>
      </trkpt>
      <trkpt lat="45.14431" lon="5.91851">
        <ele>1597.2</ele>
        <time>2020-08-11T06:20:39Z</time>
      </trkpt>
      <trkpt lat="45.14431" lon="5.9185">
        <ele>1597.8</ele>
        <time>2020-08-11T06:20:40Z</time>
      </trkpt>
      <trkpt lat="45.1443" lon="5.9185">
        <ele>1598</ele>
        <time>2020-08-11T06:20:41Z</time>
      </trkpt>
      <trkpt lat="45.1443" lon="5.9185">
        <ele>1598.2</ele>
        <time>2020-08-11T06:20:42Z</time>
      </trkpt>
      <trkpt lat="45.1443" lon="5.9185">
        <ele>1598.6</ele>
        <time>2020-08-11T06:20:43Z</time>
      </trkpt>
      <trkpt lat="45.14429" lon="5.91849">
        <ele>1598.8</ele>
        <time>2020-08-11T06:20:44Z</time>
      </trkpt>
      <trkpt lat="45.14429" lon="5.91849">
        <ele>1599.2</ele>
        <time>2020-08-11T06:20:45Z</time>
      </trkpt>
      <trkpt lat="45.14429" lon="5.91849">
        <ele>1599.6</ele>
        <time>2020-08-11T06:20:46Z</time>
      </trkpt>
      <trkpt lat="45.14428" lon="5.91849">
        <ele>1599.8</ele>
        <time>2020-08-11T06:20:47Z</time>
      </trkpt>
      <trkpt lat="45.14428" lon="5.91849">
        <ele>1600</ele>
        <time>2020-08-11T06:20:48Z</time>
      </trkpt>
      <trkpt lat="45.14428" lon="5.91848">
        <ele>1600.2</ele>
        <time>2020-08-11T06:20:49Z</time>
      </trkpt>
      <trkpt lat="45.14427" lon="5.91848">
        <ele>1600.6</ele>
        <time>2020-08-11T06:20:50Z</time>
      </trkpt>
      <trkpt lat="45.14427" lon="5.91848">
        <ele>1600.8</ele>
        <time>2020-08-11T06:20:51Z</time>
      </trkpt>
      <trkpt lat="45.14427" lon="5.91848">
        <ele>1601.2</ele>
        <time>2020-08-11T06:20:52Z</time>
      </trkpt>
      <trkpt lat="45.14426" lon="5.91848">
        <ele>1601.4</ele>
        <time>2020-08-11T06:20:53Z</time>
      </trkpt>
      <trkpt lat="45.14426" lon="5.91847">
        <ele>1601.8</ele>
        <time>2020-08-11T06:20:54Z</time>
      </trkpt>
      <trkpt lat="45.14426" lon="5.91847">
        <ele>1602</ele>
        <time>2020-08-11T06:20:55Z</time>
      </trkpt>
      <trkpt lat="45.14426" lon="5.91847">
        <ele>1602.2</ele>
        <time>2020-08-11T06:20:56Z</time>
      </trkpt>
      <trkpt lat="45.14425" lon="5.91847">
        <ele>1602.8</ele>
        <time>2020-08-11T06:20:57Z</time>
      </trkpt>
      <trkpt lat="45.14425" lon="5.91847">
        <ele>1602.8</ele>
        <time>2020-08-11T06:20:58Z</time>
      </trkpt>
      <trkpt lat="45.14424" lon="5.91846">
        <ele>1603.2</ele>
        <time>2020-08-11T06:20:59Z</time>
      </trkpt>
      <trkpt lat="45.14424" lon="5.91845">
        <ele>1603.4</ele>
        <time>2020-08-11T06:21:00Z</time>
      </trkpt>
      <trkpt lat="45.14423" lon="5.91845">
        <ele>1603.8</ele>
        <time>2020-08-11T06:21:01Z</time>
      </trkpt>
      <trkpt lat="45.14422" lon="5.91844">
        <ele>1604</ele>
        <time>2020-08-11T06:21:02Z</time>
      </trkpt>
      <trkpt lat="45.14422" lon="5.91844">
        <ele>1604.4</ele>
        <time>2020-08-11T06:21:03Z</time>
      </trkpt>
      <trkpt lat="45.14421" lon="5.91843">
        <ele>1604.4</ele>
        <time>2020-08-11T06:21:04Z</time>
      </trkpt>
      <trkpt lat="45.1442" lon="5.91843">
        <ele>1604.8</ele>
        <time>2020-08-11T06:21:05Z</time>
      </trkpt>
      <trkpt lat="45.1442" lon="5.91842">
        <ele>1605</ele>
        <time>2020-08-11T06:21:06Z</time>
      </trkpt>
      <trkpt lat="45.14419" lon="5.91841">
        <ele>1605</ele>
        <time>2020-08-11T06:21:07Z</time>
      </trkpt>
      <trkpt lat="45.14418" lon="5.91841">
        <ele>1605.4</ele>
        <time>2020-08-11T06:21:08Z</time>
      </trkpt>
      <trkpt lat="45.14418" lon="5.9184">
        <ele>1605.8</ele>
        <time>2020-08-11T06:21:09Z</time>
      </trkpt>
      <trkpt lat="45.14417" lon="5.9184">
        <ele>1606</ele>
        <time>2020-08-11T06:21:10Z</time>
      </trkpt>
      <trkpt lat="45.14416" lon="5.9184">
        <ele>1606.2</ele>
        <time>2020-08-11T06:21:11Z</time>
      </trkpt>
      <trkpt lat="45.14415" lon="5.9184">
        <ele>1606.4</ele>
        <time>2020-08-11T06:21:12Z</time>
      </trkpt>
      <trkpt lat="45.14415" lon="5.9184">
        <ele>1606.8</ele>
        <time>2020-08-11T06:21:13Z</time>
      </trkpt>
      <trkpt lat="45.14414" lon="5.9184">
        <ele>1606.8</ele>
        <time>2020-08-11T06:21:14Z</time>
      </trkpt>
      <trkpt lat="45.14413" lon="5.9184">
        <ele>1607</ele>
        <time>2020-08-11T06:21:15Z</time>
      </trkpt>
      <trkpt lat="45.14413" lon="5.9184">
        <ele>1607.4</ele>
        <time>2020-08-11T06:21:16Z</time>
      </trkpt>
      <trkpt lat="45.14412" lon="5.9184">
        <ele>1607.6</ele>
        <time>2020-08-11T06:21:17Z</time>
      </trkpt>
      <trkpt lat="45.14411" lon="5.9184">
        <ele>1608</ele>
        <time>2020-08-11T06:21:18Z</time>
      </trkpt>
      <trkpt lat="45.14411" lon="5.9184">
        <ele>1608.2</ele>
        <time>2020-08-11T06:21:19Z</time>
      </trkpt>
      <trkpt lat="45.1441" lon="5.9184">
        <ele>1608.4</ele>
        <time>2020-08-11T06:21:20Z</time>
      </trkpt>
      <trkpt lat="45.14409" lon="5.91841">
        <ele>1608.6</ele>
        <time>2020-08-11T06:21:21Z</time>
      </trkpt>
      <trkpt lat="45.14409" lon="5.91841">
        <ele>1609</ele>
        <time>2020-08-11T06:21:22Z</time>
      </trkpt>
      <trkpt lat="45.14408" lon="5.91841">
        <ele>1609.2</ele>
        <time>2020-08-11T06:21:23Z</time>
      </trkpt>
      <trkpt lat="45.14407" lon="5.91841">
        <ele>1609.4</ele>
        <time>2020-08-11T06:21:24Z</time>
      </trkpt>
      <trkpt lat="45.14407" lon="5.91841">
        <ele>1610</ele>
        <time>2020-08-11T06:21:25Z</time>
      </trkpt>
      <trkpt lat="45.14406" lon="5.91841">
        <ele>1610.2</ele>
        <time>2020-08-11T06:21:26Z</time>
      </trkpt>
      <trkpt lat="45.14405" lon="5.9184">
        <ele>1610.4</ele>
        <time>2020-08-11T06:21:27Z</time>
      </trkpt>
      <trkpt lat="45.14405" lon="5.91839">
        <ele>1610.6</ele>
        <time>2020-08-11T06:21:28Z</time>
      </trkpt>
      <trkpt lat="45.14404" lon="5.91838">
        <ele>1610.8</ele>
        <time>2020-08-11T06:21:29Z</time>
      </trkpt>
      <trkpt lat="45.14404" lon="5.91836">
        <ele>1611.2</ele>
        <time>2020-08-11T06:21:30Z</time>
      </trkpt>
      <trkpt lat="45.14404" lon="5.91835">
        <ele>1611.4</ele>
        <time>2020-08-11T06:21:31Z</time>
      </trkpt>
      <trkpt lat="45.14403" lon="5.91834">
        <ele>1611.4</ele>
        <time>2020-08-11T06:21:32Z</time>
      </trkpt>
      <trkpt lat="45.14403" lon="5.91833">
        <ele>1611.8</ele>
        <time>2020-08-11T06:21:33Z</time>
      </trkpt>
      <trkpt lat="45.14402" lon="5.91832">
        <ele>1612</ele>
        <time>2020-08-11T06:21:34Z</time>
      </trkpt>
      <trkpt lat="45.14402" lon="5.91831">
        <ele>1612.4</ele>
        <time>2020-08-11T06:21:35Z</time>
      </trkpt>
      <trkpt lat="45.14401" lon="5.9183">
        <ele>1612.6</ele>
        <time>2020-08-11T06:21:36Z</time>
      </trkpt>
      <trkpt lat="45.14401" lon="5.9183">
        <ele>1612.8</ele>
        <time>2020-08-11T06:21:37Z</time>
      </trkpt>
      <trkpt lat="45.144" lon="5.91829">
        <ele>1613.2</ele>
        <time>2020-08-11T06:21:38Z</time>
      </trkpt>
      <trkpt lat="45.144" lon="5.91829">
        <ele>1613.4</ele>
        <time>2020-08-11T06:21:39Z</time>
      </trkpt>
      <trkpt lat="45.144" lon="5.91829">
        <ele>1613.6</ele>
        <time>2020-08-11T06:21:40Z</time>
      </trkpt>
      <trkpt lat="45.14399" lon="5.91829">
        <ele>1613.8</ele>
        <time>2020-08-11T06:21:41Z</time>
      </trkpt>
      <trkpt lat="45.14399" lon="5.91829">
        <ele>1614</ele>
        <time>2020-08-11T06:21:42Z</time>
      </trkpt>
      <trkpt lat="45.14399" lon="5.91828">
        <ele>1614.2</ele>
        <time>2020-08-11T06:21:43Z</time>
      </trkpt>
      <trkpt lat="45.14398" lon="5.91828">
        <ele>1614.6</ele>
        <time>2020-08-11T06:21:44Z</time>
      </trkpt>
      <trkpt lat="45.14398" lon="5.91828">
        <ele>1615</ele>
        <time>2020-08-11T06:21:45Z</time>
      </trkpt>
      <trkpt lat="45.14398" lon="5.91828">
        <ele>1615.2</ele>
        <time>2020-08-11T06:21:46Z</time>
      </trkpt>
      <trkpt lat="45.14397" lon="5.91828">
        <ele>1615.4</ele>
        <time>2020-08-11T06:21:47Z</time>
      </trkpt>
      <trkpt lat="45.14397" lon="5.91827">
        <ele>1615.8</ele>
        <time>2020-08-11T06:21:48Z</time>
      </trkpt>
      <trkpt lat="45.14397" lon="5.91827">
        <ele>1616.2</ele>
        <time>2020-08-11T06:21:49Z</time>
      </trkpt>
      <trkpt lat="45.14396" lon="5.91827">
        <ele>1616.4</ele>
        <time>2020-08-11T06:21:50Z</time>
      </trkpt>
      <trkpt lat="45.14396" lon="5.91827">
        <ele>1616.6</ele>
        <time>2020-08-11T06:21:51Z</time>
      </trkpt>
      <trkpt lat="45.14396" lon="5.91826">
        <ele>1617</ele>
        <time>2020-08-11T06:21:52Z</time>
      </trkpt>
      <trkpt lat="45.14395" lon="5.91826">
        <ele>1617.4</ele>
        <time>2020-08-11T06:21:53Z</time>
      </trkpt>
      <trkpt lat="45.14395" lon="5.91826">
        <ele>1617.6</ele>
        <time>2020-08-11T06:21:54Z</time>
      </trkpt>
      <trkpt lat="45.14394" lon="5.91826">
        <ele>1617.8</ele>
        <time>2020-08-11T06:21:55Z</time>
      </trkpt>
      <trkpt lat="45.14394" lon="5.91826">
        <ele>1618</ele>
        <time>2020-08-11T06:21:56Z</time>
      </trkpt>
      <trkpt lat="45.14394" lon="5.91825">
        <ele>1618</ele>
        <time>2020-08-11T06:21:57Z</time>
      </trkpt>
      <trkpt lat="45.14393" lon="5.91825">
        <ele>1618.4</ele>
        <time>2020-08-11T06:21:58Z</time>
      </trkpt>
      <trkpt lat="45.14393" lon="5.91825">
        <ele>1618.8</ele>
        <time>2020-08-11T06:21:59Z</time>
      </trkpt>
      <trkpt lat="45.14393" lon="5.91825">
        <ele>1619.2</ele>
        <time>2020-08-11T06:22:00Z</time>
      </trkpt>
      <trkpt lat="45.14392" lon="5.91824">
        <ele>1619.4</ele>
        <time>2020-08-11T06:22:01Z</time>
      </trkpt>
      <trkpt lat="45.14392" lon="5.91823">
        <ele>1619.6</ele>
        <time>2020-08-11T06:22:02Z</time>
      </trkpt>
      <trkpt lat="45.14392" lon="5.91822">
        <ele>1619.8</ele>
        <time>2020-08-11T06:22:03Z</time>
      </trkpt>
      <trkpt lat="45.14392" lon="5.91821">
        <ele>1620</ele>
        <time>2020-08-11T06:22:04Z</time>
      </trkpt>
      <trkpt lat="45.14391" lon="5.9182">
        <ele>1620.4</ele>
        <time>2020-08-11T06:22:05Z</time>
      </trkpt>
      <trkpt lat="45.14391" lon="5.91819">
        <ele>1620.4</ele>
        <time>2020-08-11T06:22:06Z</time>
      </trkpt>
      <trkpt lat="45.14391" lon="5.91818">
        <ele>1620.6</ele>
        <time>2020-08-11T06:22:07Z</time>
      </trkpt>
      <trkpt lat="45.1439" lon="5.91817">
        <ele>1621.2</ele>
        <time>2020-08-11T06:22:08Z</time>
      </trkpt>
      <trkpt lat="45.1439" lon="5.91816">
        <ele>1621.4</ele>
        <time>2020-08-11T06:22:09Z</time>
      </trkpt>
      <trkpt lat="45.1439" lon="5.91815">
        <ele>1621.8</ele>
        <time>2020-08-11T06:22:10Z</time>
      </trkpt>
      <trkpt lat="45.14389" lon="5.91814">
        <ele>1622</ele>
        <time>2020-08-11T06:22:11Z</time>
      </trkpt>
      <trkpt lat="45.14389" lon="5.91813">
        <ele>1622.2</ele>
        <time>2020-08-11T06:22:12Z</time>
      </trkpt>
      <trkpt lat="45.14389" lon="5.91812">
        <ele>1622.4</ele>
        <time>2020-08-11T06:22:13Z</time>
      </trkpt>
      <trkpt lat="45.14388" lon="5.91811">
        <ele>1622.6</ele>
        <time>2020-08-11T06:22:14Z</time>
      </trkpt>
      <trkpt lat="45.14388" lon="5.91811">
        <ele>1622.8</ele>
        <time>2020-08-11T06:22:15Z</time>
      </trkpt>
      <trkpt lat="45.14387" lon="5.9181">
        <ele>1623.2</ele>
        <time>2020-08-11T06:22:16Z</time>
      </trkpt>
      <trkpt lat="45.14387" lon="5.9181">
        <ele>1623.4</ele>
        <time>2020-08-11T06:22:17Z</time>
      </trkpt>
      <trkpt lat="45.14386" lon="5.91809">
        <ele>1623.4</ele>
        <time>2020-08-11T06:22:18Z</time>
      </trkpt>
      <trkpt lat="45.14386" lon="5.91809">
        <ele>1623.6</ele>
        <time>2020-08-11T06:22:19Z</time>
      </trkpt>
      <trkpt lat="45.14385" lon="5.91808">
        <ele>1623.8</ele>
        <time>2020-08-11T06:22:20Z</time>
      </trkpt>
      <trkpt lat="45.14385" lon="5.91808">
        <ele>1624</ele>
        <time>2020-08-11T06:22:21Z</time>
      </trkpt>
      <trkpt lat="45.14384" lon="5.91807">
        <ele>1624.4</ele>
        <time>2020-08-11T06:22:22Z</time>
      </trkpt>
      <trkpt lat="45.14384" lon="5.91807">
        <ele>1624.6</ele>
        <time>2020-08-11T06:22:23Z</time>
      </trkpt>
      <trkpt lat="45.14384" lon="5.91806">
        <ele>1625</ele>
        <time>2020-08-11T06:22:24Z</time>
      </trkpt>
      <trkpt lat="45.14383" lon="5.91806">
        <ele>1625</ele>
        <time>2020-08-11T06:22:25Z</time>
      </trkpt>
      <trkpt lat="45.14383" lon="5.91805">
        <ele>1625.4</ele>
        <time>2020-08-11T06:22:26Z</time>
      </trkpt>
      <trkpt lat="45.14382" lon="5.91805">
        <ele>1625.6</ele>
        <time>2020-08-11T06:22:27Z</time>
      </trkpt>
      <trkpt lat="45.14382" lon="5.91804">
        <ele>1625.8</ele>
        <time>2020-08-11T06:22:28Z</time>
      </trkpt>
      <trkpt lat="45.14381" lon="5.91804">
        <ele>1625.8</ele>
        <time>2020-08-11T06:22:29Z</time>
      </trkpt>
      <trkpt lat="45.14381" lon="5.91803">
        <ele>1626.2</ele>
        <time>2020-08-11T06:22:30Z</time>
      </trkpt>
      <trkpt lat="45.14381" lon="5.91802">
        <ele>1626.4</ele>
        <time>2020-08-11T06:22:31Z</time>
      </trkpt>
      <trkpt lat="45.14381" lon="5.91801">
        <ele>1626.4</ele>
        <time>2020-08-11T06:22:32Z</time>
      </trkpt>
      <trkpt lat="45.14381" lon="5.918">
        <ele>1626.8</ele>
        <time>2020-08-11T06:22:33Z</time>
      </trkpt>
      <trkpt lat="45.14381" lon="5.91799">
        <ele>1627</ele>
        <time>2020-08-11T06:22:34Z</time>
      </trkpt>
      <trkpt lat="45.14381" lon="5.91798">
        <ele>1627.2</ele>
        <time>2020-08-11T06:22:35Z</time>
      </trkpt>
      <trkpt lat="45.14381" lon="5.91797">
        <ele>1627</ele>
        <time>2020-08-11T06:22:36Z</time>
      </trkpt>
      <trkpt lat="45.14381" lon="5.91796">
        <ele>1627.4</ele>
        <time>2020-08-11T06:22:37Z</time>
      </trkpt>
      <trkpt lat="45.14381" lon="5.91796">
        <ele>1627.6</ele>
        <time>2020-08-11T06:22:38Z</time>
      </trkpt>
      <trkpt lat="45.14381" lon="5.91795">
        <ele>1628.2</ele>
        <time>2020-08-11T06:22:39Z</time>
      </trkpt>
      <trkpt lat="45.14381" lon="5.91794">
        <ele>1628.4</ele>
        <time>2020-08-11T06:22:40Z</time>
      </trkpt>
      <trkpt lat="45.14381" lon="5.91793">
        <ele>1628.6</ele>
        <time>2020-08-11T06:22:41Z</time>
      </trkpt>
      <trkpt lat="45.14381" lon="5.91792">
        <ele>1629</ele>
        <time>2020-08-11T06:22:42Z</time>
      </trkpt>
      <trkpt lat="45.14381" lon="5.91791">
        <ele>1629.2</ele>
        <time>2020-08-11T06:22:43Z</time>
      </trkpt>
      <trkpt lat="45.14381" lon="5.9179">
        <ele>1629.4</ele>
        <time>2020-08-11T06:22:44Z</time>
      </trkpt>
      <trkpt lat="45.14381" lon="5.91789">
        <ele>1629.6</ele>
        <time>2020-08-11T06:22:45Z</time>
      </trkpt>
      <trkpt lat="45.14381" lon="5.91788">
        <ele>1629.8</ele>
        <time>2020-08-11T06:22:46Z</time>
      </trkpt>
      <trkpt lat="45.14381" lon="5.91787">
        <ele>1630</ele>
        <time>2020-08-11T06:22:47Z</time>
      </trkpt>
      <trkpt lat="45.1438" lon="5.91786">
        <ele>1630.4</ele>
        <time>2020-08-11T06:22:48Z</time>
      </trkpt>
      <trkpt lat="45.1438" lon="5.91785">
        <ele>1631.2</ele>
        <time>2020-08-11T06:22:49Z</time>
      </trkpt>
      <trkpt lat="45.1438" lon="5.91784">
        <ele>1631.4</ele>
        <time>2020-08-11T06:22:50Z</time>
      </trkpt>
      <trkpt lat="45.1438" lon="5.91783">
        <ele>1631.6</ele>
        <time>2020-08-11T06:22:51Z</time>
      </trkpt>
      <trkpt lat="45.14379" lon="5.91782">
        <ele>1632</ele>
        <time>2020-08-11T06:22:52Z</time>
      </trkpt>
      <trkpt lat="45.14379" lon="5.91781">
        <ele>1632.2</ele>
        <time>2020-08-11T06:22:53Z</time>
      </trkpt>
      <trkpt lat="45.14379" lon="5.91779">
        <ele>1632.4</ele>
        <time>2020-08-11T06:22:54Z</time>
      </trkpt>
      <trkpt lat="45.14379" lon="5.91778">
        <ele>1632.8</ele>
        <time>2020-08-11T06:22:55Z</time>
      </trkpt>
      <trkpt lat="45.14378" lon="5.91777">
        <ele>1633</ele>
        <time>2020-08-11T06:22:56Z</time>
      </trkpt>
      <trkpt lat="45.14378" lon="5.91777">
        <ele>1633.2</ele>
        <time>2020-08-11T06:22:57Z</time>
      </trkpt>
      <trkpt lat="45.14377" lon="5.91777">
        <ele>1633.6</ele>
        <time>2020-08-11T06:22:58Z</time>
      </trkpt>
      <trkpt lat="45.14377" lon="5.91776">
        <ele>1634</ele>
        <time>2020-08-11T06:22:59Z</time>
      </trkpt>
      <trkpt lat="45.14377" lon="5.91776">
        <ele>1634.2</ele>
        <time>2020-08-11T06:23:00Z</time>
      </trkpt>
      <trkpt lat="45.14376" lon="5.91775">
        <ele>1634.4</ele>
        <time>2020-08-11T06:23:01Z</time>
      </trkpt>
      <trkpt lat="45.14376" lon="5.91775">
        <ele>1634.6</ele>
        <time>2020-08-11T06:23:02Z</time>
      </trkpt>
      <trkpt lat="45.14375" lon="5.91775">
        <ele>1634.8</ele>
        <time>2020-08-11T06:23:03Z</time>
      </trkpt>
      <trkpt lat="45.14375" lon="5.91774">
        <ele>1635.2</ele>
        <time>2020-08-11T06:23:04Z</time>
      </trkpt>
      <trkpt lat="45.14375" lon="5.91774">
        <ele>1635.4</ele>
        <time>2020-08-11T06:23:05Z</time>
      </trkpt>
      <trkpt lat="45.14374" lon="5.91773">
        <ele>1635.6</ele>
        <time>2020-08-11T06:23:06Z</time>
      </trkpt>
      <trkpt lat="45.14374" lon="5.91773">
        <ele>1635.8</ele>
        <time>2020-08-11T06:23:07Z</time>
      </trkpt>
      <trkpt lat="45.14373" lon="5.91772">
        <ele>1636</ele>
        <time>2020-08-11T06:23:08Z</time>
      </trkpt>
      <trkpt lat="45.14373" lon="5.91772">
        <ele>1636.4</ele>
        <time>2020-08-11T06:23:09Z</time>
      </trkpt>
      <trkpt lat="45.14372" lon="5.91772">
        <ele>1636.6</ele>
        <time>2020-08-11T06:23:10Z</time>
      </trkpt>
      <trkpt lat="45.14372" lon="5.91771">
        <ele>1636.8</ele>
        <time>2020-08-11T06:23:11Z</time>
      </trkpt>
      <trkpt lat="45.14372" lon="5.91771">
        <ele>1637</ele>
        <time>2020-08-11T06:23:12Z</time>
      </trkpt>
      <trkpt lat="45.14371" lon="5.9177">
        <ele>1637.4</ele>
        <time>2020-08-11T06:23:13Z</time>
      </trkpt>
      <trkpt lat="45.14371" lon="5.9177">
        <ele>1637.6</ele>
        <time>2020-08-11T06:23:14Z</time>
      </trkpt>
      <trkpt lat="45.1437" lon="5.9177">
        <ele>1637.8</ele>
        <time>2020-08-11T06:23:15Z</time>
      </trkpt>
      <trkpt lat="45.1437" lon="5.91768">
        <ele>1638.2</ele>
        <time>2020-08-11T06:23:16Z</time>
      </trkpt>
      <trkpt lat="45.14369" lon="5.91767">
        <ele>1638.4</ele>
        <time>2020-08-11T06:23:17Z</time>
      </trkpt>
      <trkpt lat="45.14369" lon="5.91766">
        <ele>1638.6</ele>
        <time>2020-08-11T06:23:18Z</time>
      </trkpt>
      <trkpt lat="45.14369" lon="5.91764">
        <ele>1639</ele>
        <time>2020-08-11T06:23:19Z</time>
      </trkpt>
      <trkpt lat="45.14368" lon="5.91763">
        <ele>1639.2</ele>
        <time>2020-08-11T06:23:20Z</time>
      </trkpt>
      <trkpt lat="45.14368" lon="5.91762">
        <ele>1639.4</ele>
        <time>2020-08-11T06:23:21Z</time>
      </trkpt>
      <trkpt lat="45.14367" lon="5.91761">
        <ele>1639.8</ele>
        <time>2020-08-11T06:23:22Z</time>
      </trkpt>
      <trkpt lat="45.14367" lon="5.91759">
        <ele>1640</ele>
        <time>2020-08-11T06:23:23Z</time>
      </trkpt>
      <trkpt lat="45.14366" lon="5.91758">
        <ele>1640.2</ele>
        <time>2020-08-11T06:23:24Z</time>
      </trkpt>
      <trkpt lat="45.14366" lon="5.91757">
        <ele>1640.6</ele>
        <time>2020-08-11T06:23:25Z</time>
      </trkpt>
      <trkpt lat="45.14365" lon="5.91756">
        <ele>1640.6</ele>
        <time>2020-08-11T06:23:26Z</time>
      </trkpt>
      <trkpt lat="45.14365" lon="5.91755">
        <ele>1641.2</ele>
        <time>2020-08-11T06:23:27Z</time>
      </trkpt>
      <trkpt lat="45.14365" lon="5.91754">
        <ele>1641.2</ele>
        <time>2020-08-11T06:23:28Z</time>
      </trkpt>
      <trkpt lat="45.14364" lon="5.91753">
        <ele>1641.2</ele>
        <time>2020-08-11T06:23:29Z</time>
      </trkpt>
      <trkpt lat="45.14364" lon="5.91752">
        <ele>1641.6</ele>
        <time>2020-08-11T06:23:30Z</time>
      </trkpt>
      <trkpt lat="45.14363" lon="5.91751">
        <ele>1641.8</ele>
        <time>2020-08-11T06:23:31Z</time>
      </trkpt>
      <trkpt lat="45.14363" lon="5.9175">
        <ele>1642</ele>
        <time>2020-08-11T06:23:32Z</time>
      </trkpt>
      <trkpt lat="45.14363" lon="5.91749">
        <ele>1642.4</ele>
        <time>2020-08-11T06:23:33Z</time>
      </trkpt>
      <trkpt lat="45.14362" lon="5.91748">
        <ele>1642.6</ele>
        <time>2020-08-11T06:23:34Z</time>
      </trkpt>
      <trkpt lat="45.14362" lon="5.91747">
        <ele>1642.8</ele>
        <time>2020-08-11T06:23:35Z</time>
      </trkpt>
      <trkpt lat="45.14361" lon="5.91746">
        <ele>1643.2</ele>
        <time>2020-08-11T06:23:36Z</time>
      </trkpt>
      <trkpt lat="45.14361" lon="5.91746">
        <ele>1643.2</ele>
        <time>2020-08-11T06:23:37Z</time>
      </trkpt>
      <trkpt lat="45.14361" lon="5.91745">
        <ele>1643.4</ele>
        <time>2020-08-11T06:23:38Z</time>
      </trkpt>
      <trkpt lat="45.14361" lon="5.91745">
        <ele>1644</ele>
        <time>2020-08-11T06:23:39Z</time>
      </trkpt>
      <trkpt lat="45.1436" lon="5.91745">
        <ele>1644.2</ele>
        <time>2020-08-11T06:23:40Z</time>
      </trkpt>
      <trkpt lat="45.1436" lon="5.91744">
        <ele>1644.4</ele>
        <time>2020-08-11T06:23:41Z</time>
      </trkpt>
      <trkpt lat="45.1436" lon="5.91744">
        <ele>1644.6</ele>
        <time>2020-08-11T06:23:42Z</time>
      </trkpt>
      <trkpt lat="45.14359" lon="5.91744">
        <ele>1645</ele>
        <time>2020-08-11T06:23:43Z</time>
      </trkpt>
      <trkpt lat="45.14359" lon="5.91744">
        <ele>1645.2</ele>
        <time>2020-08-11T06:23:44Z</time>
      </trkpt>
      <trkpt lat="45.14359" lon="5.91743">
        <ele>1645.6</ele>
        <time>2020-08-11T06:23:45Z</time>
      </trkpt>
      <trkpt lat="45.14359" lon="5.91743">
        <ele>1645.6</ele>
        <time>2020-08-11T06:23:46Z</time>
      </trkpt>
      <trkpt lat="45.14358" lon="5.91743">
        <ele>1646</ele>
        <time>2020-08-11T06:23:47Z</time>
      </trkpt>
      <trkpt lat="45.14358" lon="5.91742">
        <ele>1646</ele>
        <time>2020-08-11T06:23:48Z</time>
      </trkpt>
      <trkpt lat="45.14358" lon="5.91742">
        <ele>1646.4</ele>
        <time>2020-08-11T06:23:49Z</time>
      </trkpt>
      <trkpt lat="45.14357" lon="5.91742">
        <ele>1646.6</ele>
        <time>2020-08-11T06:23:50Z</time>
      </trkpt>
      <trkpt lat="45.14357" lon="5.91741">
        <ele>1646.8</ele>
        <time>2020-08-11T06:23:51Z</time>
      </trkpt>
      <trkpt lat="45.14357" lon="5.91741">
        <ele>1647.2</ele>
        <time>2020-08-11T06:23:52Z</time>
      </trkpt>
      <trkpt lat="45.14357" lon="5.91741">
        <ele>1647.4</ele>
        <time>2020-08-11T06:23:53Z</time>
      </trkpt>
      <trkpt lat="45.14356" lon="5.91741">
        <ele>1647.8</ele>
        <time>2020-08-11T06:23:54Z</time>
      </trkpt>
      <trkpt lat="45.14356" lon="5.9174">
        <ele>1647.8</ele>
        <time>2020-08-11T06:23:55Z</time>
      </trkpt>
      <trkpt lat="45.14356" lon="5.9174">
        <ele>1648</ele>
        <time>2020-08-11T06:23:56Z</time>
      </trkpt>
      <trkpt lat="45.14355" lon="5.9174">
        <ele>1648.2</ele>
        <time>2020-08-11T06:23:57Z</time>
      </trkpt>
      <trkpt lat="45.14355" lon="5.91739">
        <ele>1648.6</ele>
        <time>2020-08-11T06:23:58Z</time>
      </trkpt>
      <trkpt lat="45.14355" lon="5.91739">
        <ele>1648.8</ele>
        <time>2020-08-11T06:23:59Z</time>
      </trkpt>
      <trkpt lat="45.14355" lon="5.91739">
        <ele>1649</ele>
        <time>2020-08-11T06:24:00Z</time>
      </trkpt>
      <trkpt lat="45.14354" lon="5.91739">
        <ele>1649.6</ele>
        <time>2020-08-11T06:24:01Z</time>
      </trkpt>
      <trkpt lat="45.14354" lon="5.91738">
        <ele>1650.2</ele>
        <time>2020-08-11T06:24:02Z</time>
      </trkpt>
      <trkpt lat="45.14354" lon="5.91738">
        <ele>1650.2</ele>
        <time>2020-08-11T06:24:03Z</time>
      </trkpt>
      <trkpt lat="45.14352" lon="5.91736">
        <ele>1650.4</ele>
        <time>2020-08-11T06:24:04Z</time>
      </trkpt>
      <trkpt lat="45.14352" lon="5.91736">
        <ele>1650.6</ele>
        <time>2020-08-11T06:24:05Z</time>
      </trkpt>
      <trkpt lat="45.14352" lon="5.91735">
        <ele>1650.8</ele>
        <time>2020-08-11T06:24:06Z</time>
      </trkpt>
      <trkpt lat="45.14351" lon="5.91734">
        <ele>1651</ele>
        <time>2020-08-11T06:24:07Z</time>
      </trkpt>
      <trkpt lat="45.14351" lon="5.91733">
        <ele>1651.2</ele>
        <time>2020-08-11T06:24:08Z</time>
      </trkpt>
      <trkpt lat="45.1435" lon="5.91732">
        <ele>1651.6</ele>
        <time>2020-08-11T06:24:09Z</time>
      </trkpt>
      <trkpt lat="45.1435" lon="5.91731">
        <ele>1651.8</ele>
        <time>2020-08-11T06:24:10Z</time>
      </trkpt>
      <trkpt lat="45.14349" lon="5.9173">
        <ele>1652</ele>
        <time>2020-08-11T06:24:11Z</time>
      </trkpt>
      <trkpt lat="45.14349" lon="5.91729">
        <ele>1652.4</ele>
        <time>2020-08-11T06:24:12Z</time>
      </trkpt>
      <trkpt lat="45.14348" lon="5.91728">
        <ele>1652.6</ele>
        <time>2020-08-11T06:24:13Z</time>
      </trkpt>
      <trkpt lat="45.14348" lon="5.91727">
        <ele>1653</ele>
        <time>2020-08-11T06:24:14Z</time>
      </trkpt>
      <trkpt lat="45.14347" lon="5.91726">
        <ele>1653.2</ele>
        <time>2020-08-11T06:24:15Z</time>
      </trkpt>
      <trkpt lat="45.14347" lon="5.91725">
        <ele>1653.4</ele>
        <time>2020-08-11T06:24:16Z</time>
      </trkpt>
      <trkpt lat="45.14346" lon="5.91724">
        <ele>1653.8</ele>
        <time>2020-08-11T06:24:17Z</time>
      </trkpt>
      <trkpt lat="45.14346" lon="5.91723">
        <ele>1654</ele>
        <time>2020-08-11T06:24:18Z</time>
      </trkpt>
      <trkpt lat="45.14345" lon="5.91722">
        <ele>1654.4</ele>
        <time>2020-08-11T06:24:19Z</time>
      </trkpt>
      <trkpt lat="45.14345" lon="5.9172">
        <ele>1654.4</ele>
        <time>2020-08-11T06:24:20Z</time>
      </trkpt>
      <trkpt lat="45.14345" lon="5.91719">
        <ele>1654.6</ele>
        <time>2020-08-11T06:24:21Z</time>
      </trkpt>
      <trkpt lat="45.14344" lon="5.91718">
        <ele>1655</ele>
        <time>2020-08-11T06:24:22Z</time>
      </trkpt>
      <trkpt lat="45.14344" lon="5.91716">
        <ele>1655.2</ele>
        <time>2020-08-11T06:24:23Z</time>
      </trkpt>
      <trkpt lat="45.14343" lon="5.91715">
        <ele>1655.4</ele>
        <time>2020-08-11T06:24:24Z</time>
      </trkpt>
      <trkpt lat="45.14343" lon="5.91714">
        <ele>1655.6</ele>
        <time>2020-08-11T06:24:25Z</time>
      </trkpt>
      <trkpt lat="45.14342" lon="5.91712">
        <ele>1655.8</ele>
        <time>2020-08-11T06:24:26Z</time>
      </trkpt>
      <trkpt lat="45.14341" lon="5.91713">
        <ele>1656.4</ele>
        <time>2020-08-11T06:24:27Z</time>
      </trkpt>
      <trkpt lat="45.1434" lon="5.91713">
        <ele>1656.6</ele>
        <time>2020-08-11T06:24:28Z</time>
      </trkpt>
      <trkpt lat="45.1434" lon="5.91713">
        <ele>1656.6</ele>
        <time>2020-08-11T06:24:29Z</time>
      </trkpt>
      <trkpt lat="45.14339" lon="5.91714">
        <ele>1657</ele>
        <time>2020-08-11T06:24:30Z</time>
      </trkpt>
      <trkpt lat="45.14338" lon="5.91714">
        <ele>1657.2</ele>
        <time>2020-08-11T06:24:31Z</time>
      </trkpt>
      <trkpt lat="45.14337" lon="5.91714">
        <ele>1657.4</ele>
        <time>2020-08-11T06:24:32Z</time>
      </trkpt>
      <trkpt lat="45.14336" lon="5.91715">
        <ele>1657.8</ele>
        <time>2020-08-11T06:24:33Z</time>
      </trkpt>
      <trkpt lat="45.14335" lon="5.91715">
        <ele>1658</ele>
        <time>2020-08-11T06:24:34Z</time>
      </trkpt>
      <trkpt lat="45.14334" lon="5.91715">
        <ele>1658.2</ele>
        <time>2020-08-11T06:24:35Z</time>
      </trkpt>
      <trkpt lat="45.14333" lon="5.91715">
        <ele>1658.4</ele>
        <time>2020-08-11T06:24:36Z</time>
      </trkpt>
      <trkpt lat="45.14333" lon="5.91716">
        <ele>1658.6</ele>
        <time>2020-08-11T06:24:37Z</time>
      </trkpt>
      <trkpt lat="45.14333" lon="5.91717">
        <ele>1659</ele>
        <time>2020-08-11T06:24:38Z</time>
      </trkpt>
      <trkpt lat="45.14332" lon="5.91717">
        <ele>1659.4</ele>
        <time>2020-08-11T06:24:39Z</time>
      </trkpt>
      <trkpt lat="45.14332" lon="5.91718">
        <ele>1659.6</ele>
        <time>2020-08-11T06:24:40Z</time>
      </trkpt>
      <trkpt lat="45.14332" lon="5.91718">
        <ele>1659.8</ele>
        <time>2020-08-11T06:24:41Z</time>
      </trkpt>
      <trkpt lat="45.14331" lon="5.91719">
        <ele>1660</ele>
        <time>2020-08-11T06:24:42Z</time>
      </trkpt>
      <trkpt lat="45.14331" lon="5.91719">
        <ele>1660.2</ele>
        <time>2020-08-11T06:24:43Z</time>
      </trkpt>
      <trkpt lat="45.14331" lon="5.9172">
        <ele>1660.6</ele>
        <time>2020-08-11T06:24:44Z</time>
      </trkpt>
      <trkpt lat="45.1433" lon="5.91721">
        <ele>1660.6</ele>
        <time>2020-08-11T06:24:45Z</time>
      </trkpt>
      <trkpt lat="45.1433" lon="5.91721">
        <ele>1660.6</ele>
        <time>2020-08-11T06:24:46Z</time>
      </trkpt>
      <trkpt lat="45.1433" lon="5.91722">
        <ele>1660.8</ele>
        <time>2020-08-11T06:24:47Z</time>
      </trkpt>
      <trkpt lat="45.1433" lon="5.91722">
        <ele>1661</ele>
        <time>2020-08-11T06:24:48Z</time>
      </trkpt>
      <trkpt lat="45.1433" lon="5.91722">
        <ele>1661.4</ele>
        <time>2020-08-11T06:24:49Z</time>
      </trkpt>
      <trkpt lat="45.1433" lon="5.91722">
        <ele>1661.8</ele>
        <time>2020-08-11T06:24:50Z</time>
      </trkpt>
      <trkpt lat="45.14329" lon="5.91726">
        <ele>1662</ele>
        <time>2020-08-11T06:24:51Z</time>
      </trkpt>
      <trkpt lat="45.14329" lon="5.91726">
        <ele>1662</ele>
        <time>2020-08-11T06:24:52Z</time>
      </trkpt>
      <trkpt lat="45.14329" lon="5.91726">
        <ele>1662.4</ele>
        <time>2020-08-11T06:24:53Z</time>
      </trkpt>
      <trkpt lat="45.14329" lon="5.91726">
        <ele>1662.6</ele>
        <time>2020-08-11T06:24:54Z</time>
      </trkpt>
      <trkpt lat="45.14329" lon="5.91726">
        <ele>1663</ele>
        <time>2020-08-11T06:24:55Z</time>
      </trkpt>
      <trkpt lat="45.14329" lon="5.91726">
        <ele>1663.2</ele>
        <time>2020-08-11T06:24:56Z</time>
      </trkpt>
      <trkpt lat="45.14329" lon="5.91726">
        <ele>1663.6</ele>
        <time>2020-08-11T06:24:57Z</time>
      </trkpt>
      <trkpt lat="45.14329" lon="5.91726">
        <ele>1663.8</ele>
        <time>2020-08-11T06:24:58Z</time>
      </trkpt>
      <trkpt lat="45.14328" lon="5.91728">
        <ele>1664</ele>
        <time>2020-08-11T06:24:59Z</time>
      </trkpt>
      <trkpt lat="45.14328" lon="5.91728">
        <ele>1664.6</ele>
        <time>2020-08-11T06:25:00Z</time>
      </trkpt>
      <trkpt lat="45.14328" lon="5.91728">
        <ele>1664.8</ele>
        <time>2020-08-11T06:25:01Z</time>
      </trkpt>
      <trkpt lat="45.14328" lon="5.91728">
        <ele>1665.2</ele>
        <time>2020-08-11T06:25:02Z</time>
      </trkpt>
      <trkpt lat="45.14328" lon="5.91728">
        <ele>1665.2</ele>
        <time>2020-08-11T06:25:03Z</time>
      </trkpt>
      <trkpt lat="45.14328" lon="5.91728">
        <ele>1665.6</ele>
        <time>2020-08-11T06:25:04Z</time>
      </trkpt>
      <trkpt lat="45.14327" lon="5.91731">
        <ele>1665.8</ele>
        <time>2020-08-11T06:25:05Z</time>
      </trkpt>
      <trkpt lat="45.14327" lon="5.91731">
        <ele>1666</ele>
        <time>2020-08-11T06:25:06Z</time>
      </trkpt>
      <trkpt lat="45.14328" lon="5.91732">
        <ele>1666.4</ele>
        <time>2020-08-11T06:25:07Z</time>
      </trkpt>
      <trkpt lat="45.14328" lon="5.91734">
        <ele>1666.4</ele>
        <time>2020-08-11T06:25:08Z</time>
      </trkpt>
      <trkpt lat="45.14328" lon="5.91735">
        <ele>1666.4</ele>
        <time>2020-08-11T06:25:09Z</time>
      </trkpt>
      <trkpt lat="45.14329" lon="5.91737">
        <ele>1666.6</ele>
        <time>2020-08-11T06:25:10Z</time>
      </trkpt>
      <trkpt lat="45.14329" lon="5.91739">
        <ele>1666.8</ele>
        <time>2020-08-11T06:25:11Z</time>
      </trkpt>
      <trkpt lat="45.14329" lon="5.91742">
        <ele>1667</ele>
        <time>2020-08-11T06:25:12Z</time>
      </trkpt>
      <trkpt lat="45.14329" lon="5.91742">
        <ele>1667.4</ele>
        <time>2020-08-11T06:25:13Z</time>
      </trkpt>
      <trkpt lat="45.14329" lon="5.91742">
        <ele>1667.6</ele>
        <time>2020-08-11T06:25:14Z</time>
      </trkpt>
      <trkpt lat="45.14329" lon="5.91742">
        <ele>1667.8</ele>
        <time>2020-08-11T06:25:15Z</time>
      </trkpt>
      <trkpt lat="45.14328" lon="5.91745">
        <ele>1668.2</ele>
        <time>2020-08-11T06:25:16Z</time>
      </trkpt>
      <trkpt lat="45.14328" lon="5.91745">
        <ele>1668.4</ele>
        <time>2020-08-11T06:25:17Z</time>
      </trkpt>
      <trkpt lat="45.14328" lon="5.91745">
        <ele>1669</ele>
        <time>2020-08-11T06:25:18Z</time>
      </trkpt>
      <trkpt lat="45.14328" lon="5.91749">
        <ele>1669.2</ele>
        <time>2020-08-11T06:25:19Z</time>
      </trkpt>
      <trkpt lat="45.14328" lon="5.91749">
        <ele>1669.2</ele>
        <time>2020-08-11T06:25:20Z</time>
      </trkpt>
      <trkpt lat="45.14328" lon="5.91749">
        <ele>1669.4</ele>
        <time>2020-08-11T06:25:21Z</time>
      </trkpt>
      <trkpt lat="45.14328" lon="5.9175">
        <ele>1669.6</ele>
        <time>2020-08-11T06:25:22Z</time>
      </trkpt>
      <trkpt lat="45.14328" lon="5.91751">
        <ele>1669.8</ele>
        <time>2020-08-11T06:25:23Z</time>
      </trkpt>
      <trkpt lat="45.14328" lon="5.91752">
        <ele>1670</ele>
        <time>2020-08-11T06:25:24Z</time>
      </trkpt>
      <trkpt lat="45.14328" lon="5.91753">
        <ele>1670.2</ele>
        <time>2020-08-11T06:25:25Z</time>
      </trkpt>
      <trkpt lat="45.14328" lon="5.91754">
        <ele>1670.6</ele>
        <time>2020-08-11T06:25:26Z</time>
      </trkpt>
      <trkpt lat="45.14328" lon="5.91754">
        <ele>1670.8</ele>
        <time>2020-08-11T06:25:27Z</time>
      </trkpt>
      <trkpt lat="45.14328" lon="5.91757">
        <ele>1671</ele>
        <time>2020-08-11T06:25:28Z</time>
      </trkpt>
      <trkpt lat="45.14328" lon="5.91757">
        <ele>1671.4</ele>
        <time>2020-08-11T06:25:29Z</time>
      </trkpt>
      <trkpt lat="45.14327" lon="5.91759">
        <ele>1671.6</ele>
        <time>2020-08-11T06:25:30Z</time>
      </trkpt>
      <trkpt lat="45.14327" lon="5.91759">
        <ele>1671.6</ele>
        <time>2020-08-11T06:25:31Z</time>
      </trkpt>
      <trkpt lat="45.14327" lon="5.91763">
        <ele>1672.2</ele>
        <time>2020-08-11T06:25:32Z</time>
      </trkpt>
      <trkpt lat="45.14327" lon="5.91763">
        <ele>1672.4</ele>
        <time>2020-08-11T06:25:33Z</time>
      </trkpt>
      <trkpt lat="45.14327" lon="5.91763">
        <ele>1672.8</ele>
        <time>2020-08-11T06:25:34Z</time>
      </trkpt>
      <trkpt lat="45.14327" lon="5.91766">
        <ele>1672.8</ele>
        <time>2020-08-11T06:25:35Z</time>
      </trkpt>
      <trkpt lat="45.14327" lon="5.91766">
        <ele>1673</ele>
        <time>2020-08-11T06:25:36Z</time>
      </trkpt>
      <trkpt lat="45.14327" lon="5.91766">
        <ele>1673.2</ele>
        <time>2020-08-11T06:25:37Z</time>
      </trkpt>
      <trkpt lat="45.14327" lon="5.91766">
        <ele>1673.4</ele>
        <time>2020-08-11T06:25:38Z</time>
      </trkpt>
      <trkpt lat="45.14327" lon="5.91766">
        <ele>1673.8</ele>
        <time>2020-08-11T06:25:39Z</time>
      </trkpt>
      <trkpt lat="45.14326" lon="5.91771">
        <ele>1673.8</ele>
        <time>2020-08-11T06:25:40Z</time>
      </trkpt>
      <trkpt lat="45.14326" lon="5.91771">
        <ele>1674.4</ele>
        <time>2020-08-11T06:25:41Z</time>
      </trkpt>
      <trkpt lat="45.14326" lon="5.91774">
        <ele>1674.8</ele>
        <time>2020-08-11T06:25:42Z</time>
      </trkpt>
      <trkpt lat="45.14326" lon="5.91774">
        <ele>1675</ele>
        <time>2020-08-11T06:25:43Z</time>
      </trkpt>
      <trkpt lat="45.14325" lon="5.91778">
        <ele>1675.2</ele>
        <time>2020-08-11T06:25:44Z</time>
      </trkpt>
      <trkpt lat="45.14325" lon="5.91778">
        <ele>1675.4</ele>
        <time>2020-08-11T06:25:45Z</time>
      </trkpt>
      <trkpt lat="45.14325" lon="5.91778">
        <ele>1675.6</ele>
        <time>2020-08-11T06:25:46Z</time>
      </trkpt>
      <trkpt lat="45.14324" lon="5.91782">
        <ele>1676</ele>
        <time>2020-08-11T06:25:47Z</time>
      </trkpt>
      <trkpt lat="45.14324" lon="5.91782">
        <ele>1676</ele>
        <time>2020-08-11T06:25:48Z</time>
      </trkpt>
      <trkpt lat="45.14324" lon="5.91782">
        <ele>1676.4</ele>
        <time>2020-08-11T06:25:49Z</time>
      </trkpt>
      <trkpt lat="45.14323" lon="5.91784">
        <ele>1676.4</ele>
        <time>2020-08-11T06:25:50Z</time>
      </trkpt>
      <trkpt lat="45.14323" lon="5.91784">
        <ele>1676.8</ele>
        <time>2020-08-11T06:25:51Z</time>
      </trkpt>
      <trkpt lat="45.14323" lon="5.91784">
        <ele>1677.2</ele>
        <time>2020-08-11T06:25:52Z</time>
      </trkpt>
      <trkpt lat="45.14321" lon="5.91786">
        <ele>1677.4</ele>
        <time>2020-08-11T06:25:53Z</time>
      </trkpt>
      <trkpt lat="45.14321" lon="5.91786">
        <ele>1677.6</ele>
        <time>2020-08-11T06:25:54Z</time>
      </trkpt>
      <trkpt lat="45.1432" lon="5.91789">
        <ele>1677.8</ele>
        <time>2020-08-11T06:25:55Z</time>
      </trkpt>
      <trkpt lat="45.1432" lon="5.91789">
        <ele>1678</ele>
        <time>2020-08-11T06:25:56Z</time>
      </trkpt>
      <trkpt lat="45.14319" lon="5.9179">
        <ele>1678.2</ele>
        <time>2020-08-11T06:25:57Z</time>
      </trkpt>
      <trkpt lat="45.14318" lon="5.91793">
        <ele>1678.6</ele>
        <time>2020-08-11T06:25:58Z</time>
      </trkpt>
      <trkpt lat="45.14318" lon="5.91793">
        <ele>1679</ele>
        <time>2020-08-11T06:25:59Z</time>
      </trkpt>
      <trkpt lat="45.14318" lon="5.91793">
        <ele>1679.4</ele>
        <time>2020-08-11T06:26:00Z</time>
      </trkpt>
      <trkpt lat="45.14316" lon="5.91795">
        <ele>1679.6</ele>
        <time>2020-08-11T06:26:01Z</time>
      </trkpt>
      <trkpt lat="45.14316" lon="5.91795">
        <ele>1679.8</ele>
        <time>2020-08-11T06:26:02Z</time>
      </trkpt>
      <trkpt lat="45.14316" lon="5.91795">
        <ele>1680</ele>
        <time>2020-08-11T06:26:03Z</time>
      </trkpt>
      <trkpt lat="45.14314" lon="5.91796">
        <ele>1680</ele>
        <time>2020-08-11T06:26:04Z</time>
      </trkpt>
      <trkpt lat="45.14314" lon="5.91796">
        <ele>1680.4</ele>
        <time>2020-08-11T06:26:05Z</time>
      </trkpt>
      <trkpt lat="45.14314" lon="5.91796">
        <ele>1680.6</ele>
        <time>2020-08-11T06:26:06Z</time>
      </trkpt>
      <trkpt lat="45.14314" lon="5.91796">
        <ele>1680.8</ele>
        <time>2020-08-11T06:26:07Z</time>
      </trkpt>
      <trkpt lat="45.14312" lon="5.91795">
        <ele>1681.2</ele>
        <time>2020-08-11T06:26:08Z</time>
      </trkpt>
      <trkpt lat="45.14312" lon="5.91795">
        <ele>1682</ele>
        <time>2020-08-11T06:26:09Z</time>
      </trkpt>
      <trkpt lat="45.14312" lon="5.91795">
        <ele>1682</ele>
        <time>2020-08-11T06:26:10Z</time>
      </trkpt>
      <trkpt lat="45.14311" lon="5.91792">
        <ele>1682.2</ele>
        <time>2020-08-11T06:26:11Z</time>
      </trkpt>
      <trkpt lat="45.14311" lon="5.91792">
        <ele>1682.4</ele>
        <time>2020-08-11T06:26:12Z</time>
      </trkpt>
      <trkpt lat="45.14311" lon="5.91792">
        <ele>1682.8</ele>
        <time>2020-08-11T06:26:13Z</time>
      </trkpt>
      <trkpt lat="45.14311" lon="5.91792">
        <ele>1682.8</ele>
        <time>2020-08-11T06:26:14Z</time>
      </trkpt>
      <trkpt lat="45.14311" lon="5.91792">
        <ele>1683</ele>
        <time>2020-08-11T06:26:15Z</time>
      </trkpt>
      <trkpt lat="45.14309" lon="5.91791">
        <ele>1683.2</ele>
        <time>2020-08-11T06:26:16Z</time>
      </trkpt>
      <trkpt lat="45.14309" lon="5.91791">
        <ele>1683.4</ele>
        <time>2020-08-11T06:26:17Z</time>
      </trkpt>
      <trkpt lat="45.14309" lon="5.91791">
        <ele>1683.6</ele>
        <time>2020-08-11T06:26:18Z</time>
      </trkpt>
      <trkpt lat="45.14309" lon="5.91791">
        <ele>1684</ele>
        <time>2020-08-11T06:26:19Z</time>
      </trkpt>
      <trkpt lat="45.14307" lon="5.91791">
        <ele>1684.4</ele>
        <time>2020-08-11T06:26:20Z</time>
      </trkpt>
      <trkpt lat="45.14307" lon="5.91791">
        <ele>1684.2</ele>
        <time>2020-08-11T06:26:21Z</time>
      </trkpt>
      <trkpt lat="45.14307" lon="5.91791">
        <ele>1684.2</ele>
        <time>2020-08-11T06:26:22Z</time>
      </trkpt>
      <trkpt lat="45.14307" lon="5.91791">
        <ele>1684.2</ele>
        <time>2020-08-11T06:26:23Z</time>
      </trkpt>
      <trkpt lat="45.14307" lon="5.91795">
        <ele>1684.2</ele>
        <time>2020-08-11T06:26:24Z</time>
      </trkpt>
      <trkpt lat="45.14307" lon="5.91799">
        <ele>1684.2</ele>
        <time>2020-08-11T06:26:25Z</time>
      </trkpt>
      <trkpt lat="45.14308" lon="5.91803">
        <ele>1684.2</ele>
        <time>2020-08-11T06:26:26Z</time>
      </trkpt>
      <trkpt lat="45.14308" lon="5.91803">
        <ele>1684.2</ele>
        <time>2020-08-11T06:26:27Z</time>
      </trkpt>
      <trkpt lat="45.14308" lon="5.91805">
        <ele>1684.4</ele>
        <time>2020-08-11T06:26:28Z</time>
      </trkpt>
      <trkpt lat="45.14308" lon="5.91808">
        <ele>1684.2</ele>
        <time>2020-08-11T06:26:29Z</time>
      </trkpt>
      <trkpt lat="45.14308" lon="5.91812">
        <ele>1684.2</ele>
        <time>2020-08-11T06:26:30Z</time>
      </trkpt>
      <trkpt lat="45.14308" lon="5.91812">
        <ele>1684.2</ele>
        <time>2020-08-11T06:26:31Z</time>
      </trkpt>
      <trkpt lat="45.14308" lon="5.91812">
        <ele>1684.4</ele>
        <time>2020-08-11T06:26:32Z</time>
      </trkpt>
      <trkpt lat="45.14307" lon="5.91816">
        <ele>1684.4</ele>
        <time>2020-08-11T06:26:33Z</time>
      </trkpt>
      <trkpt lat="45.14305" lon="5.9182">
        <ele>1684.4</ele>
        <time>2020-08-11T06:26:34Z</time>
      </trkpt>
      <trkpt lat="45.14305" lon="5.9182">
        <ele>1684.6</ele>
        <time>2020-08-11T06:26:35Z</time>
      </trkpt>
      <trkpt lat="45.14305" lon="5.9182">
        <ele>1684.6</ele>
        <time>2020-08-11T06:26:36Z</time>
      </trkpt>
      <trkpt lat="45.14304" lon="5.91822">
        <ele>1684.8</ele>
        <time>2020-08-11T06:26:37Z</time>
      </trkpt>
      <trkpt lat="45.14304" lon="5.91822">
        <ele>1685.2</ele>
        <time>2020-08-11T06:26:38Z</time>
      </trkpt>
      <trkpt lat="45.14302" lon="5.91824">
        <ele>1685.4</ele>
        <time>2020-08-11T06:26:39Z</time>
      </trkpt>
      <trkpt lat="45.14302" lon="5.91824">
        <ele>1685.8</ele>
        <time>2020-08-11T06:26:40Z</time>
      </trkpt>
      <trkpt lat="45.14302" lon="5.91824">
        <ele>1686</ele>
        <time>2020-08-11T06:26:41Z</time>
      </trkpt>
      <trkpt lat="45.14302" lon="5.91824">
        <ele>1686.2</ele>
        <time>2020-08-11T06:26:42Z</time>
      </trkpt>
      <trkpt lat="45.14302" lon="5.91824">
        <ele>1686.4</ele>
        <time>2020-08-11T06:26:43Z</time>
      </trkpt>
      <trkpt lat="45.143" lon="5.91826">
        <ele>1687</ele>
        <time>2020-08-11T06:26:44Z</time>
      </trkpt>
      <trkpt lat="45.143" lon="5.91826">
        <ele>1687</ele>
        <time>2020-08-11T06:26:45Z</time>
      </trkpt>
      <trkpt lat="45.143" lon="5.91826">
        <ele>1687.4</ele>
        <time>2020-08-11T06:26:46Z</time>
      </trkpt>
      <trkpt lat="45.143" lon="5.91826">
        <ele>1687.6</ele>
        <time>2020-08-11T06:26:47Z</time>
      </trkpt>
      <trkpt lat="45.14298" lon="5.91828">
        <ele>1687.8</ele>
        <time>2020-08-11T06:26:48Z</time>
      </trkpt>
      <trkpt lat="45.14298" lon="5.91828">
        <ele>1688</ele>
        <time>2020-08-11T06:26:49Z</time>
      </trkpt>
      <trkpt lat="45.14298" lon="5.91828">
        <ele>1688.2</ele>
        <time>2020-08-11T06:26:50Z</time>
      </trkpt>
      <trkpt lat="45.14298" lon="5.91828">
        <ele>1688.4</ele>
        <time>2020-08-11T06:26:51Z</time>
      </trkpt>
      <trkpt lat="45.14296" lon="5.9183">
        <ele>1688.8</ele>
        <time>2020-08-11T06:26:52Z</time>
      </trkpt>
      <trkpt lat="45.14296" lon="5.9183">
        <ele>1689</ele>
        <time>2020-08-11T06:26:53Z</time>
      </trkpt>
      <trkpt lat="45.14296" lon="5.9183">
        <ele>1689.2</ele>
        <time>2020-08-11T06:26:54Z</time>
      </trkpt>
      <trkpt lat="45.14296" lon="5.9183">
        <ele>1689.6</ele>
        <time>2020-08-11T06:26:55Z</time>
      </trkpt>
      <trkpt lat="45.14295" lon="5.91832">
        <ele>1689.6</ele>
        <time>2020-08-11T06:26:56Z</time>
      </trkpt>
      <trkpt lat="45.14295" lon="5.91832">
        <ele>1690</ele>
        <time>2020-08-11T06:26:57Z</time>
      </trkpt>
      <trkpt lat="45.14295" lon="5.91832">
        <ele>1690.4</ele>
        <time>2020-08-11T06:26:58Z</time>
      </trkpt>
      <trkpt lat="45.14295" lon="5.91832">
        <ele>1690.6</ele>
        <time>2020-08-11T06:26:59Z</time>
      </trkpt>
      <trkpt lat="45.14294" lon="5.91835">
        <ele>1691</ele>
        <time>2020-08-11T06:27:00Z</time>
      </trkpt>
      <trkpt lat="45.14294" lon="5.91835">
        <ele>1691.2</ele>
        <time>2020-08-11T06:27:01Z</time>
      </trkpt>
      <trkpt lat="45.14294" lon="5.91835">
        <ele>1691.4</ele>
        <time>2020-08-11T06:27:02Z</time>
      </trkpt>
      <trkpt lat="45.14293" lon="5.91839">
        <ele>1691.6</ele>
        <time>2020-08-11T06:27:03Z</time>
      </trkpt>
      <trkpt lat="45.14293" lon="5.91839">
        <ele>1691.8</ele>
        <time>2020-08-11T06:27:04Z</time>
      </trkpt>
      <trkpt lat="45.14292" lon="5.91843">
        <ele>1692</ele>
        <time>2020-08-11T06:27:05Z</time>
      </trkpt>
      <trkpt lat="45.14291" lon="5.91847">
        <ele>1692.2</ele>
        <time>2020-08-11T06:27:06Z</time>
      </trkpt>
      <trkpt lat="45.14291" lon="5.91847">
        <ele>1692.2</ele>
        <time>2020-08-11T06:27:07Z</time>
      </trkpt>
      <trkpt lat="45.14291" lon="5.9185">
        <ele>1692.6</ele>
        <time>2020-08-11T06:27:08Z</time>
      </trkpt>
      <trkpt lat="45.14291" lon="5.9185">
        <ele>1692.8</ele>
        <time>2020-08-11T06:27:09Z</time>
      </trkpt>
      <trkpt lat="45.14291" lon="5.9185">
        <ele>1693.2</ele>
        <time>2020-08-11T06:27:10Z</time>
      </trkpt>
      <trkpt lat="45.14291" lon="5.9185">
        <ele>1693.8</ele>
        <time>2020-08-11T06:27:11Z</time>
      </trkpt>
      <trkpt lat="45.14291" lon="5.9185">
        <ele>1694</ele>
        <time>2020-08-11T06:27:12Z</time>
      </trkpt>
      <trkpt lat="45.1429" lon="5.91852">
        <ele>1694.2</ele>
        <time>2020-08-11T06:27:13Z</time>
      </trkpt>
      <trkpt lat="45.1429" lon="5.91852">
        <ele>1694.6</ele>
        <time>2020-08-11T06:27:14Z</time>
      </trkpt>
      <trkpt lat="45.1429" lon="5.91852">
        <ele>1694.6</ele>
        <time>2020-08-11T06:27:15Z</time>
      </trkpt>
      <trkpt lat="45.14289" lon="5.91854">
        <ele>1695</ele>
        <time>2020-08-11T06:27:16Z</time>
      </trkpt>
      <trkpt lat="45.14289" lon="5.91854">
        <ele>1695.2</ele>
        <time>2020-08-11T06:27:17Z</time>
      </trkpt>
      <trkpt lat="45.14289" lon="5.91854">
        <ele>1695.4</ele>
        <time>2020-08-11T06:27:18Z</time>
      </trkpt>
      <trkpt lat="45.14288" lon="5.91857">
        <ele>1695.8</ele>
        <time>2020-08-11T06:27:19Z</time>
      </trkpt>
      <trkpt lat="45.14288" lon="5.91857">
        <ele>1696</ele>
        <time>2020-08-11T06:27:20Z</time>
      </trkpt>
      <trkpt lat="45.14288" lon="5.91857">
        <ele>1696.4</ele>
        <time>2020-08-11T06:27:21Z</time>
      </trkpt>
      <trkpt lat="45.14288" lon="5.91857">
        <ele>1696.8</ele>
        <time>2020-08-11T06:27:22Z</time>
      </trkpt>
      <trkpt lat="45.14286" lon="5.91858">
        <ele>1697</ele>
        <time>2020-08-11T06:27:23Z</time>
      </trkpt>
      <trkpt lat="45.14286" lon="5.91858">
        <ele>1697.2</ele>
        <time>2020-08-11T06:27:24Z</time>
      </trkpt>
      <trkpt lat="45.14286" lon="5.91858">
        <ele>1697.6</ele>
        <time>2020-08-11T06:27:25Z</time>
      </trkpt>
      <trkpt lat="45.14286" lon="5.91858">
        <ele>1697.6</ele>
        <time>2020-08-11T06:27:26Z</time>
      </trkpt>
      <trkpt lat="45.14286" lon="5.91858">
        <ele>1698.2</ele>
        <time>2020-08-11T06:27:27Z</time>
      </trkpt>
      <trkpt lat="45.14285" lon="5.9186">
        <ele>1698.4</ele>
        <time>2020-08-11T06:27:28Z</time>
      </trkpt>
      <trkpt lat="45.14285" lon="5.9186">
        <ele>1698.8</ele>
        <time>2020-08-11T06:27:29Z</time>
      </trkpt>
      <trkpt lat="45.14285" lon="5.9186">
        <ele>1698.8</ele>
        <time>2020-08-11T06:27:30Z</time>
      </trkpt>
      <trkpt lat="45.14285" lon="5.91864">
        <ele>1699</ele>
        <time>2020-08-11T06:27:31Z</time>
      </trkpt>
      <trkpt lat="45.14285" lon="5.91867">
        <ele>1699</ele>
        <time>2020-08-11T06:27:32Z</time>
      </trkpt>
      <trkpt lat="45.14285" lon="5.91867">
        <ele>1699.2</ele>
        <time>2020-08-11T06:27:33Z</time>
      </trkpt>
      <trkpt lat="45.14285" lon="5.91867">
        <ele>1699.2</ele>
        <time>2020-08-11T06:27:34Z</time>
      </trkpt>
      <trkpt lat="45.14285" lon="5.91871">
        <ele>1699.4</ele>
        <time>2020-08-11T06:27:35Z</time>
      </trkpt>
      <trkpt lat="45.14285" lon="5.91871">
        <ele>1699.8</ele>
        <time>2020-08-11T06:27:36Z</time>
      </trkpt>
      <trkpt lat="45.14285" lon="5.91871">
        <ele>1700</ele>
        <time>2020-08-11T06:27:37Z</time>
      </trkpt>
      <trkpt lat="45.14285" lon="5.91871">
        <ele>1700.6</ele>
        <time>2020-08-11T06:27:38Z</time>
      </trkpt>
      <trkpt lat="45.14285" lon="5.91874">
        <ele>1700.8</ele>
        <time>2020-08-11T06:27:39Z</time>
      </trkpt>
      <trkpt lat="45.14285" lon="5.91874">
        <ele>1700.8</ele>
        <time>2020-08-11T06:27:40Z</time>
      </trkpt>
      <trkpt lat="45.14284" lon="5.91876">
        <ele>1701.2</ele>
        <time>2020-08-11T06:27:41Z</time>
      </trkpt>
      <trkpt lat="45.14283" lon="5.91877">
        <ele>1701.2</ele>
        <time>2020-08-11T06:27:42Z</time>
      </trkpt>
      <trkpt lat="45.14282" lon="5.91879">
        <ele>1701.6</ele>
        <time>2020-08-11T06:27:43Z</time>
      </trkpt>
      <trkpt lat="45.14281" lon="5.9188">
        <ele>1701.8</ele>
        <time>2020-08-11T06:27:44Z</time>
      </trkpt>
      <trkpt lat="45.1428" lon="5.91882">
        <ele>1702.2</ele>
        <time>2020-08-11T06:27:45Z</time>
      </trkpt>
      <trkpt lat="45.14279" lon="5.91883">
        <ele>1702.4</ele>
        <time>2020-08-11T06:27:46Z</time>
      </trkpt>
      <trkpt lat="45.14278" lon="5.91885">
        <ele>1702.8</ele>
        <time>2020-08-11T06:27:47Z</time>
      </trkpt>
      <trkpt lat="45.14277" lon="5.91886">
        <ele>1703.2</ele>
        <time>2020-08-11T06:27:48Z</time>
      </trkpt>
      <trkpt lat="45.14277" lon="5.91887">
        <ele>1703.6</ele>
        <time>2020-08-11T06:27:49Z</time>
      </trkpt>
      <trkpt lat="45.14277" lon="5.91887">
        <ele>1703.8</ele>
        <time>2020-08-11T06:27:50Z</time>
      </trkpt>
      <trkpt lat="45.14277" lon="5.91888">
        <ele>1704</ele>
        <time>2020-08-11T06:27:51Z</time>
      </trkpt>
      <trkpt lat="45.14277" lon="5.91889">
        <ele>1704</ele>
        <time>2020-08-11T06:27:52Z</time>
      </trkpt>
      <trkpt lat="45.14276" lon="5.91889">
        <ele>1704.4</ele>
        <time>2020-08-11T06:27:53Z</time>
      </trkpt>
      <trkpt lat="45.14276" lon="5.9189">
        <ele>1704.6</ele>
        <time>2020-08-11T06:27:54Z</time>
      </trkpt>
      <trkpt lat="45.14276" lon="5.9189">
        <ele>1704.8</ele>
        <time>2020-08-11T06:27:55Z</time>
      </trkpt>
      <trkpt lat="45.14276" lon="5.91891">
        <ele>1705.2</ele>
        <time>2020-08-11T06:27:56Z</time>
      </trkpt>
      <trkpt lat="45.14276" lon="5.91891">
        <ele>1705.4</ele>
        <time>2020-08-11T06:27:57Z</time>
      </trkpt>
      <trkpt lat="45.14275" lon="5.91892">
        <ele>1705.4</ele>
        <time>2020-08-11T06:27:58Z</time>
      </trkpt>
      <trkpt lat="45.14275" lon="5.91892">
        <ele>1705.8</ele>
        <time>2020-08-11T06:27:59Z</time>
      </trkpt>
      <trkpt lat="45.14275" lon="5.91893">
        <ele>1705.8</ele>
        <time>2020-08-11T06:28:00Z</time>
      </trkpt>
      <trkpt lat="45.14275" lon="5.91894">
        <ele>1706.4</ele>
        <time>2020-08-11T06:28:01Z</time>
      </trkpt>
      <trkpt lat="45.14275" lon="5.91894">
        <ele>1706.4</ele>
        <time>2020-08-11T06:28:02Z</time>
      </trkpt>
      <trkpt lat="45.14274" lon="5.91895">
        <ele>1706.6</ele>
        <time>2020-08-11T06:28:03Z</time>
      </trkpt>
      <trkpt lat="45.14274" lon="5.91895">
        <ele>1706.6</ele>
        <time>2020-08-11T06:28:04Z</time>
      </trkpt>
      <trkpt lat="45.14274" lon="5.91896">
        <ele>1707</ele>
        <time>2020-08-11T06:28:05Z</time>
      </trkpt>
      <trkpt lat="45.14274" lon="5.91896">
        <ele>1707.2</ele>
        <time>2020-08-11T06:28:06Z</time>
      </trkpt>
      <trkpt lat="45.14274" lon="5.91897">
        <ele>1707.6</ele>
        <time>2020-08-11T06:28:07Z</time>
      </trkpt>
      <trkpt lat="45.14273" lon="5.91897">
        <ele>1708</ele>
        <time>2020-08-11T06:28:08Z</time>
      </trkpt>
      <trkpt lat="45.14273" lon="5.91898">
        <ele>1707.8</ele>
        <time>2020-08-11T06:28:09Z</time>
      </trkpt>
      <trkpt lat="45.14273" lon="5.91899">
        <ele>1708.2</ele>
        <time>2020-08-11T06:28:10Z</time>
      </trkpt>
      <trkpt lat="45.14273" lon="5.919">
        <ele>1708.4</ele>
        <time>2020-08-11T06:28:11Z</time>
      </trkpt>
      <trkpt lat="45.14273" lon="5.91901">
        <ele>1708.6</ele>
        <time>2020-08-11T06:28:12Z</time>
      </trkpt>
      <trkpt lat="45.14273" lon="5.91903">
        <ele>1708.6</ele>
        <time>2020-08-11T06:28:13Z</time>
      </trkpt>
      <trkpt lat="45.14273" lon="5.91904">
        <ele>1708.8</ele>
        <time>2020-08-11T06:28:14Z</time>
      </trkpt>
      <trkpt lat="45.14273" lon="5.91905">
        <ele>1709</ele>
        <time>2020-08-11T06:28:15Z</time>
      </trkpt>
      <trkpt lat="45.14273" lon="5.91907">
        <ele>1709.2</ele>
        <time>2020-08-11T06:28:16Z</time>
      </trkpt>
      <trkpt lat="45.14273" lon="5.91908">
        <ele>1709.4</ele>
        <time>2020-08-11T06:28:17Z</time>
      </trkpt>
      <trkpt lat="45.14273" lon="5.91909">
        <ele>1709.6</ele>
        <time>2020-08-11T06:28:18Z</time>
      </trkpt>
      <trkpt lat="45.14273" lon="5.91911">
        <ele>1709.8</ele>
        <time>2020-08-11T06:28:19Z</time>
      </trkpt>
      <trkpt lat="45.14273" lon="5.91912">
        <ele>1710</ele>
        <time>2020-08-11T06:28:20Z</time>
      </trkpt>
      <trkpt lat="45.14273" lon="5.91913">
        <ele>1710</ele>
        <time>2020-08-11T06:28:21Z</time>
      </trkpt>
      <trkpt lat="45.14273" lon="5.91914">
        <ele>1710.4</ele>
        <time>2020-08-11T06:28:22Z</time>
      </trkpt>
      <trkpt lat="45.14272" lon="5.91915">
        <ele>1710.8</ele>
        <time>2020-08-11T06:28:23Z</time>
      </trkpt>
      <trkpt lat="45.14272" lon="5.91917">
        <ele>1711</ele>
        <time>2020-08-11T06:28:24Z</time>
      </trkpt>
      <trkpt lat="45.14272" lon="5.91918">
        <ele>1711.2</ele>
        <time>2020-08-11T06:28:25Z</time>
      </trkpt>
      <trkpt lat="45.14272" lon="5.91919">
        <ele>1711.4</ele>
        <time>2020-08-11T06:28:26Z</time>
      </trkpt>
      <trkpt lat="45.14272" lon="5.9192">
        <ele>1711.6</ele>
        <time>2020-08-11T06:28:27Z</time>
      </trkpt>
      <trkpt lat="45.14272" lon="5.91921">
        <ele>1712</ele>
        <time>2020-08-11T06:28:28Z</time>
      </trkpt>
      <trkpt lat="45.14272" lon="5.91922">
        <ele>1712.2</ele>
        <time>2020-08-11T06:28:29Z</time>
      </trkpt>
      <trkpt lat="45.14272" lon="5.91923">
        <ele>1712.4</ele>
        <time>2020-08-11T06:28:30Z</time>
      </trkpt>
      <trkpt lat="45.14272" lon="5.91925">
        <ele>1712.8</ele>
        <time>2020-08-11T06:28:31Z</time>
      </trkpt>
      <trkpt lat="45.14273" lon="5.91926">
        <ele>1713</ele>
        <time>2020-08-11T06:28:32Z</time>
      </trkpt>
      <trkpt lat="45.14274" lon="5.91927">
        <ele>1713.2</ele>
        <time>2020-08-11T06:28:33Z</time>
      </trkpt>
      <trkpt lat="45.14275" lon="5.91928">
        <ele>1713.6</ele>
        <time>2020-08-11T06:28:34Z</time>
      </trkpt>
      <trkpt lat="45.14276" lon="5.91929">
        <ele>1714</ele>
        <time>2020-08-11T06:28:35Z</time>
      </trkpt>
      <trkpt lat="45.14277" lon="5.9193">
        <ele>1714.2</ele>
        <time>2020-08-11T06:28:36Z</time>
      </trkpt>
      <trkpt lat="45.14278" lon="5.91931">
        <ele>1714.4</ele>
        <time>2020-08-11T06:28:37Z</time>
      </trkpt>
      <trkpt lat="45.14279" lon="5.91933">
        <ele>1714.6</ele>
        <time>2020-08-11T06:28:38Z</time>
      </trkpt>
      <trkpt lat="45.14279" lon="5.91934">
        <ele>1714.6</ele>
        <time>2020-08-11T06:28:39Z</time>
      </trkpt>
      <trkpt lat="45.14279" lon="5.91935">
        <ele>1714.8</ele>
        <time>2020-08-11T06:28:40Z</time>
      </trkpt>
      <trkpt lat="45.14278" lon="5.91935">
        <ele>1715.2</ele>
        <time>2020-08-11T06:28:41Z</time>
      </trkpt>
      <trkpt lat="45.14278" lon="5.91936">
        <ele>1715.4</ele>
        <time>2020-08-11T06:28:42Z</time>
      </trkpt>
      <trkpt lat="45.14277" lon="5.91937">
        <ele>1715.8</ele>
        <time>2020-08-11T06:28:43Z</time>
      </trkpt>
      <trkpt lat="45.14277" lon="5.91938">
        <ele>1716</ele>
        <time>2020-08-11T06:28:44Z</time>
      </trkpt>
      <trkpt lat="45.14276" lon="5.91939">
        <ele>1716.2</ele>
        <time>2020-08-11T06:28:45Z</time>
      </trkpt>
      <trkpt lat="45.14276" lon="5.9194">
        <ele>1716.4</ele>
        <time>2020-08-11T06:28:46Z</time>
      </trkpt>
      <trkpt lat="45.14275" lon="5.91941">
        <ele>1716.6</ele>
        <time>2020-08-11T06:28:47Z</time>
      </trkpt>
      <trkpt lat="45.14275" lon="5.91942">
        <ele>1716.8</ele>
        <time>2020-08-11T06:28:48Z</time>
      </trkpt>
      <trkpt lat="45.14274" lon="5.91943">
        <ele>1717.4</ele>
        <time>2020-08-11T06:28:49Z</time>
      </trkpt>
      <trkpt lat="45.14274" lon="5.91944">
        <ele>1717.6</ele>
        <time>2020-08-11T06:28:50Z</time>
      </trkpt>
      <trkpt lat="45.14273" lon="5.91944">
        <ele>1717.8</ele>
        <time>2020-08-11T06:28:51Z</time>
      </trkpt>
      <trkpt lat="45.14273" lon="5.91945">
        <ele>1718.2</ele>
        <time>2020-08-11T06:28:52Z</time>
      </trkpt>
      <trkpt lat="45.14272" lon="5.91945">
        <ele>1718.4</ele>
        <time>2020-08-11T06:28:53Z</time>
      </trkpt>
      <trkpt lat="45.14271" lon="5.91946">
        <ele>1718.8</ele>
        <time>2020-08-11T06:28:54Z</time>
      </trkpt>
      <trkpt lat="45.14271" lon="5.91946">
        <ele>1719</ele>
        <time>2020-08-11T06:28:55Z</time>
      </trkpt>
      <trkpt lat="45.1427" lon="5.91947">
        <ele>1719.2</ele>
        <time>2020-08-11T06:28:56Z</time>
      </trkpt>
      <trkpt lat="45.14269" lon="5.91947">
        <ele>1719.8</ele>
        <time>2020-08-11T06:28:57Z</time>
      </trkpt>
      <trkpt lat="45.14269" lon="5.91948">
        <ele>1719.8</ele>
        <time>2020-08-11T06:28:58Z</time>
      </trkpt>
      <trkpt lat="45.14268" lon="5.91948">
        <ele>1720.2</ele>
        <time>2020-08-11T06:28:59Z</time>
      </trkpt>
      <trkpt lat="45.14267" lon="5.91949">
        <ele>1720.4</ele>
        <time>2020-08-11T06:29:00Z</time>
      </trkpt>
      <trkpt lat="45.14267" lon="5.91949">
        <ele>1720.6</ele>
        <time>2020-08-11T06:29:01Z</time>
      </trkpt>
      <trkpt lat="45.14266" lon="5.9195">
        <ele>1720.8</ele>
        <time>2020-08-11T06:29:02Z</time>
      </trkpt>
      <trkpt lat="45.14265" lon="5.91951">
        <ele>1721</ele>
        <time>2020-08-11T06:29:03Z</time>
      </trkpt>
      <trkpt lat="45.14265" lon="5.91951">
        <ele>1721.4</ele>
        <time>2020-08-11T06:29:04Z</time>
      </trkpt>
      <trkpt lat="45.14265" lon="5.91952">
        <ele>1721.6</ele>
        <time>2020-08-11T06:29:05Z</time>
      </trkpt>
      <trkpt lat="45.14264" lon="5.91953">
        <ele>1722</ele>
        <time>2020-08-11T06:29:06Z</time>
      </trkpt>
      <trkpt lat="45.14264" lon="5.91953">
        <ele>1722.2</ele>
        <time>2020-08-11T06:29:07Z</time>
      </trkpt>
      <trkpt lat="45.14263" lon="5.91954">
        <ele>1722.4</ele>
        <time>2020-08-11T06:29:08Z</time>
      </trkpt>
      <trkpt lat="45.14263" lon="5.91955">
        <ele>1722.6</ele>
        <time>2020-08-11T06:29:09Z</time>
      </trkpt>
      <trkpt lat="45.14262" lon="5.91956">
        <ele>1723</ele>
        <time>2020-08-11T06:29:10Z</time>
      </trkpt>
      <trkpt lat="45.14262" lon="5.91956">
        <ele>1723.2</ele>
        <time>2020-08-11T06:29:11Z</time>
      </trkpt>
      <trkpt lat="45.14261" lon="5.91957">
        <ele>1723.6</ele>
        <time>2020-08-11T06:29:12Z</time>
      </trkpt>
      <trkpt lat="45.14261" lon="5.91958">
        <ele>1723.8</ele>
        <time>2020-08-11T06:29:13Z</time>
      </trkpt>
      <trkpt lat="45.14261" lon="5.91958">
        <ele>1724</ele>
        <time>2020-08-11T06:29:14Z</time>
      </trkpt>
      <trkpt lat="45.1426" lon="5.91959">
        <ele>1724.4</ele>
        <time>2020-08-11T06:29:15Z</time>
      </trkpt>
      <trkpt lat="45.1426" lon="5.9196">
        <ele>1724.8</ele>
        <time>2020-08-11T06:29:16Z</time>
      </trkpt>
      <trkpt lat="45.14259" lon="5.91961">
        <ele>1725.2</ele>
        <time>2020-08-11T06:29:17Z</time>
      </trkpt>
      <trkpt lat="45.14259" lon="5.91961">
        <ele>1725.4</ele>
        <time>2020-08-11T06:29:18Z</time>
      </trkpt>
      <trkpt lat="45.14259" lon="5.91962">
        <ele>1725.8</ele>
        <time>2020-08-11T06:29:19Z</time>
      </trkpt>
      <trkpt lat="45.14259" lon="5.91963">
        <ele>1726</ele>
        <time>2020-08-11T06:29:20Z</time>
      </trkpt>
      <trkpt lat="45.14259" lon="5.91963">
        <ele>1726.2</ele>
        <time>2020-08-11T06:29:21Z</time>
      </trkpt>
      <trkpt lat="45.14259" lon="5.91964">
        <ele>1726.4</ele>
        <time>2020-08-11T06:29:22Z</time>
      </trkpt>
      <trkpt lat="45.14259" lon="5.91965">
        <ele>1726.6</ele>
        <time>2020-08-11T06:29:23Z</time>
      </trkpt>
      <trkpt lat="45.14259" lon="5.91965">
        <ele>1727</ele>
        <time>2020-08-11T06:29:24Z</time>
      </trkpt>
      <trkpt lat="45.14258" lon="5.91966">
        <ele>1727.2</ele>
        <time>2020-08-11T06:29:25Z</time>
      </trkpt>
      <trkpt lat="45.14258" lon="5.91967">
        <ele>1727.4</ele>
        <time>2020-08-11T06:29:26Z</time>
      </trkpt>
      <trkpt lat="45.14258" lon="5.91967">
        <ele>1727.4</ele>
        <time>2020-08-11T06:29:27Z</time>
      </trkpt>
      <trkpt lat="45.14258" lon="5.91968">
        <ele>1727.6</ele>
        <time>2020-08-11T06:29:28Z</time>
      </trkpt>
      <trkpt lat="45.14258" lon="5.91969">
        <ele>1727.8</ele>
        <time>2020-08-11T06:29:29Z</time>
      </trkpt>
      <trkpt lat="45.14258" lon="5.91969">
        <ele>1728.2</ele>
        <time>2020-08-11T06:29:30Z</time>
      </trkpt>
      <trkpt lat="45.14258" lon="5.9197">
        <ele>1728.6</ele>
        <time>2020-08-11T06:29:31Z</time>
      </trkpt>
      <trkpt lat="45.14258" lon="5.91971">
        <ele>1728.6</ele>
        <time>2020-08-11T06:29:32Z</time>
      </trkpt>
      <trkpt lat="45.14258" lon="5.91971">
        <ele>1728.8</ele>
        <time>2020-08-11T06:29:33Z</time>
      </trkpt>
      <trkpt lat="45.14257" lon="5.91972">
        <ele>1729</ele>
        <time>2020-08-11T06:29:34Z</time>
      </trkpt>
      <trkpt lat="45.14257" lon="5.91972">
        <ele>1729.4</ele>
        <time>2020-08-11T06:29:35Z</time>
      </trkpt>
      <trkpt lat="45.14257" lon="5.91973">
        <ele>1729.6</ele>
        <time>2020-08-11T06:29:36Z</time>
      </trkpt>
      <trkpt lat="45.14257" lon="5.91974">
        <ele>1729.8</ele>
        <time>2020-08-11T06:29:37Z</time>
      </trkpt>
      <trkpt lat="45.14257" lon="5.91975">
        <ele>1730</ele>
        <time>2020-08-11T06:29:38Z</time>
      </trkpt>
      <trkpt lat="45.14256" lon="5.91976">
        <ele>1730.2</ele>
        <time>2020-08-11T06:29:39Z</time>
      </trkpt>
      <trkpt lat="45.14256" lon="5.91977">
        <ele>1730.4</ele>
        <time>2020-08-11T06:29:40Z</time>
      </trkpt>
      <trkpt lat="45.14256" lon="5.91977">
        <ele>1730.6</ele>
        <time>2020-08-11T06:29:41Z</time>
      </trkpt>
      <trkpt lat="45.14256" lon="5.91978">
        <ele>1730.8</ele>
        <time>2020-08-11T06:29:42Z</time>
      </trkpt>
      <trkpt lat="45.14255" lon="5.91979">
        <ele>1731</ele>
        <time>2020-08-11T06:29:43Z</time>
      </trkpt>
      <trkpt lat="45.14255" lon="5.9198">
        <ele>1731.2</ele>
        <time>2020-08-11T06:29:44Z</time>
      </trkpt>
      <trkpt lat="45.14254" lon="5.9198">
        <ele>1731.6</ele>
        <time>2020-08-11T06:29:45Z</time>
      </trkpt>
      <trkpt lat="45.14254" lon="5.91981">
        <ele>1731.8</ele>
        <time>2020-08-11T06:29:46Z</time>
      </trkpt>
      <trkpt lat="45.14253" lon="5.91982">
        <ele>1731.8</ele>
        <time>2020-08-11T06:29:47Z</time>
      </trkpt>
      <trkpt lat="45.14253" lon="5.91982">
        <ele>1732</ele>
        <time>2020-08-11T06:29:48Z</time>
      </trkpt>
      <trkpt lat="45.14252" lon="5.91983">
        <ele>1732.4</ele>
        <time>2020-08-11T06:29:49Z</time>
      </trkpt>
      <trkpt lat="45.14252" lon="5.91983">
        <ele>1732.6</ele>
        <time>2020-08-11T06:29:50Z</time>
      </trkpt>
      <trkpt lat="45.14251" lon="5.91984">
        <ele>1732.8</ele>
        <time>2020-08-11T06:29:51Z</time>
      </trkpt>
      <trkpt lat="45.14251" lon="5.91985">
        <ele>1733.2</ele>
        <time>2020-08-11T06:29:52Z</time>
      </trkpt>
      <trkpt lat="45.1425" lon="5.91985">
        <ele>1733.4</ele>
        <time>2020-08-11T06:29:53Z</time>
      </trkpt>
      <trkpt lat="45.1425" lon="5.91986">
        <ele>1733.8</ele>
        <time>2020-08-11T06:29:54Z</time>
      </trkpt>
      <trkpt lat="45.14249" lon="5.91986">
        <ele>1734</ele>
        <time>2020-08-11T06:29:55Z</time>
      </trkpt>
      <trkpt lat="45.14249" lon="5.91987">
        <ele>1734.2</ele>
        <time>2020-08-11T06:29:56Z</time>
      </trkpt>
      <trkpt lat="45.14248" lon="5.91988">
        <ele>1734.6</ele>
        <time>2020-08-11T06:29:57Z</time>
      </trkpt>
      <trkpt lat="45.14248" lon="5.91988">
        <ele>1734.8</ele>
        <time>2020-08-11T06:29:58Z</time>
      </trkpt>
      <trkpt lat="45.14247" lon="5.91989">
        <ele>1735</ele>
        <time>2020-08-11T06:29:59Z</time>
      </trkpt>
      <trkpt lat="45.14247" lon="5.9199">
        <ele>1735.4</ele>
        <time>2020-08-11T06:30:01Z</time>
      </trkpt>
      <trkpt lat="45.14247" lon="5.91991">
        <ele>1735.8</ele>
        <time>2020-08-11T06:30:02Z</time>
      </trkpt>
      <trkpt lat="45.14246" lon="5.91992">
        <ele>1736</ele>
        <time>2020-08-11T06:30:03Z</time>
      </trkpt>
      <trkpt lat="45.14246" lon="5.91992">
        <ele>1736.2</ele>
        <time>2020-08-11T06:30:04Z</time>
      </trkpt>
      <trkpt lat="45.14245" lon="5.91993">
        <ele>1736.6</ele>
        <time>2020-08-11T06:30:05Z</time>
      </trkpt>
      <trkpt lat="45.14245" lon="5.91994">
        <ele>1736.6</ele>
        <time>2020-08-11T06:30:06Z</time>
      </trkpt>
      <trkpt lat="45.14244" lon="5.91995">
        <ele>1737</ele>
        <time>2020-08-11T06:30:07Z</time>
      </trkpt>
      <trkpt lat="45.14244" lon="5.91996">
        <ele>1737.4</ele>
        <time>2020-08-11T06:30:08Z</time>
      </trkpt>
      <trkpt lat="45.14244" lon="5.91996">
        <ele>1737.8</ele>
        <time>2020-08-11T06:30:10Z</time>
      </trkpt>
      <trkpt lat="45.14243" lon="5.91997">
        <ele>1738</ele>
        <time>2020-08-11T06:30:11Z</time>
      </trkpt>
      <trkpt lat="45.14243" lon="5.91998">
        <ele>1738.2</ele>
        <time>2020-08-11T06:30:12Z</time>
      </trkpt>
      <trkpt lat="45.14243" lon="5.91999">
        <ele>1738.4</ele>
        <time>2020-08-11T06:30:13Z</time>
      </trkpt>
      <trkpt lat="45.14242" lon="5.92">
        <ele>1738.8</ele>
        <time>2020-08-11T06:30:14Z</time>
      </trkpt>
      <trkpt lat="45.14242" lon="5.92001">
        <ele>1739.2</ele>
        <time>2020-08-11T06:30:15Z</time>
      </trkpt>
      <trkpt lat="45.14242" lon="5.92002">
        <ele>1739.4</ele>
        <time>2020-08-11T06:30:16Z</time>
      </trkpt>
      <trkpt lat="45.14241" lon="5.92003">
        <ele>1739.6</ele>
        <time>2020-08-11T06:30:17Z</time>
      </trkpt>
      <trkpt lat="45.14241" lon="5.92004">
        <ele>1740</ele>
        <time>2020-08-11T06:30:18Z</time>
      </trkpt>
      <trkpt lat="45.14241" lon="5.92005">
        <ele>1740</ele>
        <time>2020-08-11T06:30:19Z</time>
      </trkpt>
      <trkpt lat="45.14241" lon="5.92006">
        <ele>1740.4</ele>
        <time>2020-08-11T06:30:20Z</time>
      </trkpt>
      <trkpt lat="45.1424" lon="5.92007">
        <ele>1740.8</ele>
        <time>2020-08-11T06:30:21Z</time>
      </trkpt>
      <trkpt lat="45.1424" lon="5.92008">
        <ele>1741.2</ele>
        <time>2020-08-11T06:30:22Z</time>
      </trkpt>
      <trkpt lat="45.1424" lon="5.92009">
        <ele>1741.6</ele>
        <time>2020-08-11T06:30:23Z</time>
      </trkpt>
      <trkpt lat="45.14239" lon="5.9201">
        <ele>1741.8</ele>
        <time>2020-08-11T06:30:24Z</time>
      </trkpt>
      <trkpt lat="45.14239" lon="5.9201">
        <ele>1742</ele>
        <time>2020-08-11T06:30:25Z</time>
      </trkpt>
      <trkpt lat="45.14239" lon="5.92011">
        <ele>1742</ele>
        <time>2020-08-11T06:30:26Z</time>
      </trkpt>
      <trkpt lat="45.14239" lon="5.92011">
        <ele>1742.2</ele>
        <time>2020-08-11T06:30:27Z</time>
      </trkpt>
      <trkpt lat="45.14238" lon="5.92012">
        <ele>1742.6</ele>
        <time>2020-08-11T06:30:28Z</time>
      </trkpt>
      <trkpt lat="45.14238" lon="5.92012">
        <ele>1742.6</ele>
        <time>2020-08-11T06:30:29Z</time>
      </trkpt>
      <trkpt lat="45.14238" lon="5.92013">
        <ele>1743</ele>
        <time>2020-08-11T06:30:30Z</time>
      </trkpt>
      <trkpt lat="45.14238" lon="5.92013">
        <ele>1743</ele>
        <time>2020-08-11T06:30:31Z</time>
      </trkpt>
      <trkpt lat="45.14238" lon="5.92013">
        <ele>1743.2</ele>
        <time>2020-08-11T06:30:32Z</time>
      </trkpt>
      <trkpt lat="45.14237" lon="5.92014">
        <ele>1743.6</ele>
        <time>2020-08-11T06:30:33Z</time>
      </trkpt>
      <trkpt lat="45.14237" lon="5.92014">
        <ele>1743.8</ele>
        <time>2020-08-11T06:30:34Z</time>
      </trkpt>
      <trkpt lat="45.14237" lon="5.92015">
        <ele>1744</ele>
        <time>2020-08-11T06:30:35Z</time>
      </trkpt>
      <trkpt lat="45.14237" lon="5.92015">
        <ele>1744.2</ele>
        <time>2020-08-11T06:30:36Z</time>
      </trkpt>
      <trkpt lat="45.14236" lon="5.92016">
        <ele>1744.2</ele>
        <time>2020-08-11T06:30:37Z</time>
      </trkpt>
      <trkpt lat="45.14236" lon="5.92016">
        <ele>1744.6</ele>
        <time>2020-08-11T06:30:38Z</time>
      </trkpt>
      <trkpt lat="45.14236" lon="5.92017">
        <ele>1745</ele>
        <time>2020-08-11T06:30:39Z</time>
      </trkpt>
      <trkpt lat="45.14236" lon="5.92017">
        <ele>1745.2</ele>
        <time>2020-08-11T06:30:40Z</time>
      </trkpt>
      <trkpt lat="45.14235" lon="5.92018">
        <ele>1745.4</ele>
        <time>2020-08-11T06:30:41Z</time>
      </trkpt>
      <trkpt lat="45.14235" lon="5.92018">
        <ele>1745.8</ele>
        <time>2020-08-11T06:30:42Z</time>
      </trkpt>
      <trkpt lat="45.14235" lon="5.92018">
        <ele>1746</ele>
        <time>2020-08-11T06:30:43Z</time>
      </trkpt>
      <trkpt lat="45.14235" lon="5.92019">
        <ele>1746.2</ele>
        <time>2020-08-11T06:30:44Z</time>
      </trkpt>
      <trkpt lat="45.14234" lon="5.92019">
        <ele>1746.6</ele>
        <time>2020-08-11T06:30:45Z</time>
      </trkpt>
      <trkpt lat="45.14234" lon="5.9202">
        <ele>1746.8</ele>
        <time>2020-08-11T06:30:46Z</time>
      </trkpt>
      <trkpt lat="45.14234" lon="5.9202">
        <ele>1747.2</ele>
        <time>2020-08-11T06:30:47Z</time>
      </trkpt>
      <trkpt lat="45.14234" lon="5.92021">
        <ele>1747.6</ele>
        <time>2020-08-11T06:30:48Z</time>
      </trkpt>
      <trkpt lat="45.14234" lon="5.92021">
        <ele>1748</ele>
        <time>2020-08-11T06:30:49Z</time>
      </trkpt>
      <trkpt lat="45.14233" lon="5.92022">
        <ele>1748.2</ele>
        <time>2020-08-11T06:30:50Z</time>
      </trkpt>
      <trkpt lat="45.14233" lon="5.92022">
        <ele>1748.6</ele>
        <time>2020-08-11T06:30:51Z</time>
      </trkpt>
      <trkpt lat="45.14233" lon="5.92022">
        <ele>1748.8</ele>
        <time>2020-08-11T06:30:52Z</time>
      </trkpt>
      <trkpt lat="45.14233" lon="5.92023">
        <ele>1749</ele>
        <time>2020-08-11T06:30:53Z</time>
      </trkpt>
      <trkpt lat="45.14232" lon="5.92023">
        <ele>1749</ele>
        <time>2020-08-11T06:30:54Z</time>
      </trkpt>
      <trkpt lat="45.14232" lon="5.92023">
        <ele>1749.2</ele>
        <time>2020-08-11T06:30:55Z</time>
      </trkpt>
      <trkpt lat="45.14232" lon="5.92024">
        <ele>1749.4</ele>
        <time>2020-08-11T06:30:56Z</time>
      </trkpt>
      <trkpt lat="45.14232" lon="5.92024">
        <ele>1749.6</ele>
        <time>2020-08-11T06:30:57Z</time>
      </trkpt>
      <trkpt lat="45.14232" lon="5.92024">
        <ele>1749.8</ele>
        <time>2020-08-11T06:30:58Z</time>
      </trkpt>
      <trkpt lat="45.14231" lon="5.92024">
        <ele>1750.2</ele>
        <time>2020-08-11T06:30:59Z</time>
      </trkpt>
      <trkpt lat="45.14231" lon="5.92025">
        <ele>1750.4</ele>
        <time>2020-08-11T06:31:00Z</time>
      </trkpt>
      <trkpt lat="45.14231" lon="5.92025">
        <ele>1750.6</ele>
        <time>2020-08-11T06:31:01Z</time>
      </trkpt>
      <trkpt lat="45.14231" lon="5.92025">
        <ele>1751</ele>
        <time>2020-08-11T06:31:02Z</time>
      </trkpt>
      <trkpt lat="45.14231" lon="5.92026">
        <ele>1751.4</ele>
        <time>2020-08-11T06:31:03Z</time>
      </trkpt>
      <trkpt lat="45.1423" lon="5.92026">
        <ele>1751.6</ele>
        <time>2020-08-11T06:31:04Z</time>
      </trkpt>
      <trkpt lat="45.1423" lon="5.92026">
        <ele>1751.8</ele>
        <time>2020-08-11T06:31:05Z</time>
      </trkpt>
      <trkpt lat="45.1423" lon="5.92026">
        <ele>1752</ele>
        <time>2020-08-11T06:31:06Z</time>
      </trkpt>
      <trkpt lat="45.1423" lon="5.92027">
        <ele>1752.2</ele>
        <time>2020-08-11T06:31:07Z</time>
      </trkpt>
      <trkpt lat="45.1423" lon="5.92027">
        <ele>1752.4</ele>
        <time>2020-08-11T06:31:08Z</time>
      </trkpt>
      <trkpt lat="45.1423" lon="5.92027">
        <ele>1752.8</ele>
        <time>2020-08-11T06:31:09Z</time>
      </trkpt>
      <trkpt lat="45.14229" lon="5.92027">
        <ele>1753</ele>
        <time>2020-08-11T06:31:10Z</time>
      </trkpt>
      <trkpt lat="45.14229" lon="5.92028">
        <ele>1753</ele>
        <time>2020-08-11T06:31:11Z</time>
      </trkpt>
      <trkpt lat="45.14229" lon="5.92028">
        <ele>1753.2</ele>
        <time>2020-08-11T06:31:12Z</time>
      </trkpt>
      <trkpt lat="45.14229" lon="5.92028">
        <ele>1753.8</ele>
        <time>2020-08-11T06:31:13Z</time>
      </trkpt>
      <trkpt lat="45.14229" lon="5.92028">
        <ele>1754</ele>
        <time>2020-08-11T06:31:14Z</time>
      </trkpt>
      <trkpt lat="45.14228" lon="5.92029">
        <ele>1754.4</ele>
        <time>2020-08-11T06:31:15Z</time>
      </trkpt>
      <trkpt lat="45.14228" lon="5.92029">
        <ele>1754.4</ele>
        <time>2020-08-11T06:31:16Z</time>
      </trkpt>
      <trkpt lat="45.14228" lon="5.92029">
        <ele>1754.8</ele>
        <time>2020-08-11T06:31:17Z</time>
      </trkpt>
      <trkpt lat="45.14228" lon="5.92029">
        <ele>1755</ele>
        <time>2020-08-11T06:31:18Z</time>
      </trkpt>
      <trkpt lat="45.14228" lon="5.9203">
        <ele>1755.6</ele>
        <time>2020-08-11T06:31:19Z</time>
      </trkpt>
      <trkpt lat="45.14227" lon="5.9203">
        <ele>1756.4</ele>
        <time>2020-08-11T06:31:20Z</time>
      </trkpt>
      <trkpt lat="45.14227" lon="5.9203">
        <ele>1756.6</ele>
        <time>2020-08-11T06:31:21Z</time>
      </trkpt>
      <trkpt lat="45.14227" lon="5.9203">
        <ele>1756.6</ele>
        <time>2020-08-11T06:31:22Z</time>
      </trkpt>
      <trkpt lat="45.14227" lon="5.92031">
        <ele>1757</ele>
        <time>2020-08-11T06:31:23Z</time>
      </trkpt>
      <trkpt lat="45.14227" lon="5.92031">
        <ele>1757.2</ele>
        <time>2020-08-11T06:31:24Z</time>
      </trkpt>
      <trkpt lat="45.14227" lon="5.92031">
        <ele>1757.4</ele>
        <time>2020-08-11T06:31:25Z</time>
      </trkpt>
      <trkpt lat="45.14226" lon="5.92031">
        <ele>1757.4</ele>
        <time>2020-08-11T06:31:26Z</time>
      </trkpt>
      <trkpt lat="45.14226" lon="5.92032">
        <ele>1757.6</ele>
        <time>2020-08-11T06:31:27Z</time>
      </trkpt>
      <trkpt lat="45.14226" lon="5.92032">
        <ele>1758</ele>
        <time>2020-08-11T06:31:28Z</time>
      </trkpt>
      <trkpt lat="45.14226" lon="5.92032">
        <ele>1758.2</ele>
        <time>2020-08-11T06:31:29Z</time>
      </trkpt>
      <trkpt lat="45.14226" lon="5.92032">
        <ele>1758.6</ele>
        <time>2020-08-11T06:31:30Z</time>
      </trkpt>
      <trkpt lat="45.14226" lon="5.92032">
        <ele>1759</ele>
        <time>2020-08-11T06:31:31Z</time>
      </trkpt>
      <trkpt lat="45.14226" lon="5.92032">
        <ele>1759.4</ele>
        <time>2020-08-11T06:31:32Z</time>
      </trkpt>
      <trkpt lat="45.14225" lon="5.92037">
        <ele>1759.4</ele>
        <time>2020-08-11T06:31:33Z</time>
      </trkpt>
      <trkpt lat="45.14225" lon="5.92037">
        <ele>1759.6</ele>
        <time>2020-08-11T06:31:34Z</time>
      </trkpt>
      <trkpt lat="45.14225" lon="5.92037">
        <ele>1759.8</ele>
        <time>2020-08-11T06:31:35Z</time>
      </trkpt>
      <trkpt lat="45.14223" lon="5.92039">
        <ele>1760</ele>
        <time>2020-08-11T06:31:36Z</time>
      </trkpt>
      <trkpt lat="45.14223" lon="5.92039">
        <ele>1760.2</ele>
        <time>2020-08-11T06:31:37Z</time>
      </trkpt>
      <trkpt lat="45.14223" lon="5.92039">
        <ele>1760.2</ele>
        <time>2020-08-11T06:31:38Z</time>
      </trkpt>
      <trkpt lat="45.14221" lon="5.92042">
        <ele>1760.2</ele>
        <time>2020-08-11T06:31:39Z</time>
      </trkpt>
      <trkpt lat="45.14221" lon="5.92042">
        <ele>1760.4</ele>
        <time>2020-08-11T06:31:40Z</time>
      </trkpt>
      <trkpt lat="45.1422" lon="5.92044">
        <ele>1760.8</ele>
        <time>2020-08-11T06:31:41Z</time>
      </trkpt>
      <trkpt lat="45.1422" lon="5.92044">
        <ele>1760.8</ele>
        <time>2020-08-11T06:31:42Z</time>
      </trkpt>
      <trkpt lat="45.1422" lon="5.92044">
        <ele>1761</ele>
        <time>2020-08-11T06:31:43Z</time>
      </trkpt>
      <trkpt lat="45.14218" lon="5.92046">
        <ele>1761.2</ele>
        <time>2020-08-11T06:31:44Z</time>
      </trkpt>
      <trkpt lat="45.14218" lon="5.92046">
        <ele>1761.4</ele>
        <time>2020-08-11T06:31:45Z</time>
      </trkpt>
      <trkpt lat="45.14218" lon="5.92046">
        <ele>1761.6</ele>
        <time>2020-08-11T06:31:46Z</time>
      </trkpt>
      <trkpt lat="45.14217" lon="5.92049">
        <ele>1761.8</ele>
        <time>2020-08-11T06:31:47Z</time>
      </trkpt>
      <trkpt lat="45.14217" lon="5.92049">
        <ele>1762</ele>
        <time>2020-08-11T06:31:48Z</time>
      </trkpt>
      <trkpt lat="45.14215" lon="5.92052">
        <ele>1762.2</ele>
        <time>2020-08-11T06:31:49Z</time>
      </trkpt>
      <trkpt lat="45.14215" lon="5.92052">
        <ele>1762.4</ele>
        <time>2020-08-11T06:31:50Z</time>
      </trkpt>
      <trkpt lat="45.14214" lon="5.92053">
        <ele>1762.8</ele>
        <time>2020-08-11T06:31:51Z</time>
      </trkpt>
      <trkpt lat="45.14213" lon="5.92055">
        <ele>1763.2</ele>
        <time>2020-08-11T06:31:52Z</time>
      </trkpt>
      <trkpt lat="45.14212" lon="5.92056">
        <ele>1763.2</ele>
        <time>2020-08-11T06:31:53Z</time>
      </trkpt>
      <trkpt lat="45.14211" lon="5.92057">
        <ele>1763.4</ele>
        <time>2020-08-11T06:31:54Z</time>
      </trkpt>
      <trkpt lat="45.1421" lon="5.92059">
        <ele>1763.4</ele>
        <time>2020-08-11T06:31:55Z</time>
      </trkpt>
      <trkpt lat="45.1421" lon="5.9206">
        <ele>1763.6</ele>
        <time>2020-08-11T06:31:56Z</time>
      </trkpt>
      <trkpt lat="45.14209" lon="5.92062">
        <ele>1763.6</ele>
        <time>2020-08-11T06:31:57Z</time>
      </trkpt>
      <trkpt lat="45.14208" lon="5.92063">
        <ele>1763.8</ele>
        <time>2020-08-11T06:31:58Z</time>
      </trkpt>
      <trkpt lat="45.14208" lon="5.92065">
        <ele>1763.8</ele>
        <time>2020-08-11T06:31:59Z</time>
      </trkpt>
      <trkpt lat="45.14208" lon="5.92067">
        <ele>1764.2</ele>
        <time>2020-08-11T06:32:00Z</time>
      </trkpt>
      <trkpt lat="45.14208" lon="5.92069">
        <ele>1764.4</ele>
        <time>2020-08-11T06:32:01Z</time>
      </trkpt>
      <trkpt lat="45.14208" lon="5.92071">
        <ele>1764.6</ele>
        <time>2020-08-11T06:32:02Z</time>
      </trkpt>
      <trkpt lat="45.14208" lon="5.92072">
        <ele>1764.6</ele>
        <time>2020-08-11T06:32:03Z</time>
      </trkpt>
      <trkpt lat="45.14207" lon="5.92074">
        <ele>1765</ele>
        <time>2020-08-11T06:32:04Z</time>
      </trkpt>
      <trkpt lat="45.14207" lon="5.92076">
        <ele>1765.4</ele>
        <time>2020-08-11T06:32:05Z</time>
      </trkpt>
      <trkpt lat="45.14207" lon="5.92077">
        <ele>1765.4</ele>
        <time>2020-08-11T06:32:06Z</time>
      </trkpt>
      <trkpt lat="45.14207" lon="5.92079">
        <ele>1765.8</ele>
        <time>2020-08-11T06:32:07Z</time>
      </trkpt>
      <trkpt lat="45.14207" lon="5.92081">
        <ele>1766</ele>
        <time>2020-08-11T06:32:08Z</time>
      </trkpt>
      <trkpt lat="45.14207" lon="5.92082">
        <ele>1766.2</ele>
        <time>2020-08-11T06:32:09Z</time>
      </trkpt>
      <trkpt lat="45.14207" lon="5.92084">
        <ele>1766.4</ele>
        <time>2020-08-11T06:32:10Z</time>
      </trkpt>
      <trkpt lat="45.14207" lon="5.92085">
        <ele>1766.6</ele>
        <time>2020-08-11T06:32:11Z</time>
      </trkpt>
      <trkpt lat="45.14207" lon="5.92087">
        <ele>1766.6</ele>
        <time>2020-08-11T06:32:12Z</time>
      </trkpt>
      <trkpt lat="45.14206" lon="5.92088">
        <ele>1766.8</ele>
        <time>2020-08-11T06:32:13Z</time>
      </trkpt>
      <trkpt lat="45.14206" lon="5.92089">
        <ele>1767</ele>
        <time>2020-08-11T06:32:14Z</time>
      </trkpt>
      <trkpt lat="45.14205" lon="5.92089">
        <ele>1767.2</ele>
        <time>2020-08-11T06:32:15Z</time>
      </trkpt>
      <trkpt lat="45.14205" lon="5.9209">
        <ele>1767.6</ele>
        <time>2020-08-11T06:32:16Z</time>
      </trkpt>
      <trkpt lat="45.14204" lon="5.92091">
        <ele>1768</ele>
        <time>2020-08-11T06:32:17Z</time>
      </trkpt>
      <trkpt lat="45.14204" lon="5.92092">
        <ele>1768.6</ele>
        <time>2020-08-11T06:32:18Z</time>
      </trkpt>
      <trkpt lat="45.14203" lon="5.92093">
        <ele>1768.8</ele>
        <time>2020-08-11T06:32:19Z</time>
      </trkpt>
      <trkpt lat="45.14203" lon="5.92094">
        <ele>1769</ele>
        <time>2020-08-11T06:32:20Z</time>
      </trkpt>
      <trkpt lat="45.14202" lon="5.92094">
        <ele>1769.2</ele>
        <time>2020-08-11T06:32:21Z</time>
      </trkpt>
      <trkpt lat="45.14202" lon="5.92095">
        <ele>1769.4</ele>
        <time>2020-08-11T06:32:22Z</time>
      </trkpt>
      <trkpt lat="45.14201" lon="5.92096">
        <ele>1769.8</ele>
        <time>2020-08-11T06:32:23Z</time>
      </trkpt>
      <trkpt lat="45.14201" lon="5.92097">
        <ele>1770.2</ele>
        <time>2020-08-11T06:32:24Z</time>
      </trkpt>
      <trkpt lat="45.142" lon="5.92097">
        <ele>1770.6</ele>
        <time>2020-08-11T06:32:25Z</time>
      </trkpt>
      <trkpt lat="45.14199" lon="5.92098">
        <ele>1771</ele>
        <time>2020-08-11T06:32:26Z</time>
      </trkpt>
      <trkpt lat="45.14198" lon="5.92098">
        <ele>1771.2</ele>
        <time>2020-08-11T06:32:27Z</time>
      </trkpt>
      <trkpt lat="45.14197" lon="5.92099">
        <ele>1771.4</ele>
        <time>2020-08-11T06:32:28Z</time>
      </trkpt>
      <trkpt lat="45.14196" lon="5.92099">
        <ele>1771.8</ele>
        <time>2020-08-11T06:32:29Z</time>
      </trkpt>
      <trkpt lat="45.14196" lon="5.921">
        <ele>1772</ele>
        <time>2020-08-11T06:32:30Z</time>
      </trkpt>
      <trkpt lat="45.14195" lon="5.921">
        <ele>1772.4</ele>
        <time>2020-08-11T06:32:31Z</time>
      </trkpt>
      <trkpt lat="45.14194" lon="5.92101">
        <ele>1772.4</ele>
        <time>2020-08-11T06:32:32Z</time>
      </trkpt>
      <trkpt lat="45.14193" lon="5.92101">
        <ele>1772.6</ele>
        <time>2020-08-11T06:32:33Z</time>
      </trkpt>
      <trkpt lat="45.14192" lon="5.92102">
        <ele>1772.8</ele>
        <time>2020-08-11T06:32:34Z</time>
      </trkpt>
      <trkpt lat="45.14191" lon="5.92102">
        <ele>1773</ele>
        <time>2020-08-11T06:32:35Z</time>
      </trkpt>
      <trkpt lat="45.14191" lon="5.92104">
        <ele>1773.2</ele>
        <time>2020-08-11T06:32:36Z</time>
      </trkpt>
      <trkpt lat="45.14192" lon="5.92106">
        <ele>1773.4</ele>
        <time>2020-08-11T06:32:37Z</time>
      </trkpt>
      <trkpt lat="45.14192" lon="5.92108">
        <ele>1774</ele>
        <time>2020-08-11T06:32:38Z</time>
      </trkpt>
      <trkpt lat="45.14192" lon="5.92109">
        <ele>1774.4</ele>
        <time>2020-08-11T06:32:39Z</time>
      </trkpt>
      <trkpt lat="45.14192" lon="5.92111">
        <ele>1775</ele>
        <time>2020-08-11T06:32:40Z</time>
      </trkpt>
      <trkpt lat="45.14192" lon="5.92113">
        <ele>1775.2</ele>
        <time>2020-08-11T06:32:41Z</time>
      </trkpt>
      <trkpt lat="45.14192" lon="5.92114">
        <ele>1775.4</ele>
        <time>2020-08-11T06:32:42Z</time>
      </trkpt>
      <trkpt lat="45.14192" lon="5.92116">
        <ele>1775.6</ele>
        <time>2020-08-11T06:32:43Z</time>
      </trkpt>
      <trkpt lat="45.14191" lon="5.92116">
        <ele>1775.8</ele>
        <time>2020-08-11T06:32:44Z</time>
      </trkpt>
      <trkpt lat="45.1419" lon="5.92117">
        <ele>1776</ele>
        <time>2020-08-11T06:32:45Z</time>
      </trkpt>
      <trkpt lat="45.14189" lon="5.92117">
        <ele>1776.4</ele>
        <time>2020-08-11T06:32:46Z</time>
      </trkpt>
      <trkpt lat="45.14188" lon="5.92117">
        <ele>1776.6</ele>
        <time>2020-08-11T06:32:47Z</time>
      </trkpt>
      <trkpt lat="45.14188" lon="5.92118">
        <ele>1776.8</ele>
        <time>2020-08-11T06:32:48Z</time>
      </trkpt>
      <trkpt lat="45.14187" lon="5.92118">
        <ele>1776.8</ele>
        <time>2020-08-11T06:32:49Z</time>
      </trkpt>
      <trkpt lat="45.14186" lon="5.92118">
        <ele>1777</ele>
        <time>2020-08-11T06:32:50Z</time>
      </trkpt>
      <trkpt lat="45.14185" lon="5.92119">
        <ele>1777</ele>
        <time>2020-08-11T06:32:51Z</time>
      </trkpt>
      <trkpt lat="45.14184" lon="5.92119">
        <ele>1777.2</ele>
        <time>2020-08-11T06:32:52Z</time>
      </trkpt>
      <trkpt lat="45.14183" lon="5.9212">
        <ele>1777.4</ele>
        <time>2020-08-11T06:32:53Z</time>
      </trkpt>
      <trkpt lat="45.14182" lon="5.9212">
        <ele>1777.4</ele>
        <time>2020-08-11T06:32:54Z</time>
      </trkpt>
      <trkpt lat="45.14181" lon="5.92121">
        <ele>1777.8</ele>
        <time>2020-08-11T06:32:55Z</time>
      </trkpt>
      <trkpt lat="45.14181" lon="5.92121">
        <ele>1778.2</ele>
        <time>2020-08-11T06:32:56Z</time>
      </trkpt>
      <trkpt lat="45.1418" lon="5.92122">
        <ele>1778.2</ele>
        <time>2020-08-11T06:32:57Z</time>
      </trkpt>
      <trkpt lat="45.14179" lon="5.92123">
        <ele>1778.6</ele>
        <time>2020-08-11T06:32:58Z</time>
      </trkpt>
      <trkpt lat="45.14178" lon="5.92123">
        <ele>1778.8</ele>
        <time>2020-08-11T06:32:59Z</time>
      </trkpt>
      <trkpt lat="45.14178" lon="5.92124">
        <ele>1779</ele>
        <time>2020-08-11T06:33:00Z</time>
      </trkpt>
      <trkpt lat="45.14177" lon="5.92125">
        <ele>1779</ele>
        <time>2020-08-11T06:33:01Z</time>
      </trkpt>
      <trkpt lat="45.14176" lon="5.92125">
        <ele>1779</ele>
        <time>2020-08-11T06:33:02Z</time>
      </trkpt>
      <trkpt lat="45.14175" lon="5.92126">
        <ele>1779.2</ele>
        <time>2020-08-11T06:33:03Z</time>
      </trkpt>
      <trkpt lat="45.14175" lon="5.92126">
        <ele>1779.6</ele>
        <time>2020-08-11T06:33:04Z</time>
      </trkpt>
      <trkpt lat="45.14174" lon="5.92127">
        <ele>1779.8</ele>
        <time>2020-08-11T06:33:05Z</time>
      </trkpt>
      <trkpt lat="45.14174" lon="5.92127">
        <ele>1780</ele>
        <time>2020-08-11T06:33:06Z</time>
      </trkpt>
      <trkpt lat="45.14173" lon="5.92128">
        <ele>1780.2</ele>
        <time>2020-08-11T06:33:07Z</time>
      </trkpt>
      <trkpt lat="45.14173" lon="5.92129">
        <ele>1780.6</ele>
        <time>2020-08-11T06:33:08Z</time>
      </trkpt>
      <trkpt lat="45.14172" lon="5.92129">
        <ele>1780.8</ele>
        <time>2020-08-11T06:33:09Z</time>
      </trkpt>
      <trkpt lat="45.14172" lon="5.9213">
        <ele>1781</ele>
        <time>2020-08-11T06:33:10Z</time>
      </trkpt>
      <trkpt lat="45.14171" lon="5.9213">
        <ele>1781.4</ele>
        <time>2020-08-11T06:33:11Z</time>
      </trkpt>
      <trkpt lat="45.14171" lon="5.92131">
        <ele>1781.6</ele>
        <time>2020-08-11T06:33:12Z</time>
      </trkpt>
      <trkpt lat="45.1417" lon="5.92131">
        <ele>1781.8</ele>
        <time>2020-08-11T06:33:13Z</time>
      </trkpt>
      <trkpt lat="45.1417" lon="5.92132">
        <ele>1782</ele>
        <time>2020-08-11T06:33:14Z</time>
      </trkpt>
      <trkpt lat="45.14169" lon="5.92132">
        <ele>1782.4</ele>
        <time>2020-08-11T06:33:15Z</time>
      </trkpt>
      <trkpt lat="45.14168" lon="5.92132">
        <ele>1782.6</ele>
        <time>2020-08-11T06:33:16Z</time>
      </trkpt>
      <trkpt lat="45.14167" lon="5.92132">
        <ele>1783</ele>
        <time>2020-08-11T06:33:17Z</time>
      </trkpt>
      <trkpt lat="45.14166" lon="5.92132">
        <ele>1783.2</ele>
        <time>2020-08-11T06:33:18Z</time>
      </trkpt>
      <trkpt lat="45.14166" lon="5.92132">
        <ele>1783.6</ele>
        <time>2020-08-11T06:33:19Z</time>
      </trkpt>
      <trkpt lat="45.14165" lon="5.92132">
        <ele>1784</ele>
        <time>2020-08-11T06:33:20Z</time>
      </trkpt>
      <trkpt lat="45.14164" lon="5.92132">
        <ele>1784.2</ele>
        <time>2020-08-11T06:33:21Z</time>
      </trkpt>
      <trkpt lat="45.14164" lon="5.92132">
        <ele>1784.4</ele>
        <time>2020-08-11T06:33:22Z</time>
      </trkpt>
      <trkpt lat="45.14163" lon="5.92132">
        <ele>1784.4</ele>
        <time>2020-08-11T06:33:23Z</time>
      </trkpt>
      <trkpt lat="45.14162" lon="5.92132">
        <ele>1784.8</ele>
        <time>2020-08-11T06:33:24Z</time>
      </trkpt>
      <trkpt lat="45.14162" lon="5.92132">
        <ele>1785</ele>
        <time>2020-08-11T06:33:25Z</time>
      </trkpt>
      <trkpt lat="45.14161" lon="5.92132">
        <ele>1785.2</ele>
        <time>2020-08-11T06:33:26Z</time>
      </trkpt>
      <trkpt lat="45.1416" lon="5.92132">
        <ele>1785.4</ele>
        <time>2020-08-11T06:33:27Z</time>
      </trkpt>
      <trkpt lat="45.14159" lon="5.92132">
        <ele>1785.8</ele>
        <time>2020-08-11T06:33:28Z</time>
      </trkpt>
      <trkpt lat="45.14159" lon="5.92132">
        <ele>1785.8</ele>
        <time>2020-08-11T06:33:29Z</time>
      </trkpt>
      <trkpt lat="45.14158" lon="5.92132">
        <ele>1786.2</ele>
        <time>2020-08-11T06:33:30Z</time>
      </trkpt>
      <trkpt lat="45.14157" lon="5.92132">
        <ele>1786.4</ele>
        <time>2020-08-11T06:33:31Z</time>
      </trkpt>
      <trkpt lat="45.14157" lon="5.92132">
        <ele>1786.6</ele>
        <time>2020-08-11T06:33:32Z</time>
      </trkpt>
      <trkpt lat="45.14156" lon="5.92132">
        <ele>1786.6</ele>
        <time>2020-08-11T06:33:33Z</time>
      </trkpt>
      <trkpt lat="45.14155" lon="5.92132">
        <ele>1787</ele>
        <time>2020-08-11T06:33:34Z</time>
      </trkpt>
      <trkpt lat="45.14154" lon="5.92132">
        <ele>1787.2</ele>
        <time>2020-08-11T06:33:35Z</time>
      </trkpt>
      <trkpt lat="45.14154" lon="5.92132">
        <ele>1787.6</ele>
        <time>2020-08-11T06:33:36Z</time>
      </trkpt>
      <trkpt lat="45.14153" lon="5.92132">
        <ele>1787.6</ele>
        <time>2020-08-11T06:33:37Z</time>
      </trkpt>
      <trkpt lat="45.14152" lon="5.92132">
        <ele>1787.8</ele>
        <time>2020-08-11T06:33:38Z</time>
      </trkpt>
      <trkpt lat="45.14152" lon="5.92132">
        <ele>1788.2</ele>
        <time>2020-08-11T06:33:39Z</time>
      </trkpt>
      <trkpt lat="45.14151" lon="5.92131">
        <ele>1788.4</ele>
        <time>2020-08-11T06:33:40Z</time>
      </trkpt>
      <trkpt lat="45.1415" lon="5.92131">
        <ele>1788.6</ele>
        <time>2020-08-11T06:33:41Z</time>
      </trkpt>
      <trkpt lat="45.1415" lon="5.92131">
        <ele>1789</ele>
        <time>2020-08-11T06:33:42Z</time>
      </trkpt>
      <trkpt lat="45.14149" lon="5.92131">
        <ele>1789.4</ele>
        <time>2020-08-11T06:33:43Z</time>
      </trkpt>
      <trkpt lat="45.14148" lon="5.92131">
        <ele>1789.6</ele>
        <time>2020-08-11T06:33:44Z</time>
      </trkpt>
      <trkpt lat="45.14147" lon="5.92131">
        <ele>1789.8</ele>
        <time>2020-08-11T06:33:45Z</time>
      </trkpt>
      <trkpt lat="45.14147" lon="5.92131">
        <ele>1790</ele>
        <time>2020-08-11T06:33:46Z</time>
      </trkpt>
      <trkpt lat="45.14146" lon="5.92131">
        <ele>1790.2</ele>
        <time>2020-08-11T06:33:47Z</time>
      </trkpt>
      <trkpt lat="45.14145" lon="5.92131">
        <ele>1790.6</ele>
        <time>2020-08-11T06:33:48Z</time>
      </trkpt>
      <trkpt lat="45.14145" lon="5.92131">
        <ele>1790.8</ele>
        <time>2020-08-11T06:33:49Z</time>
      </trkpt>
      <trkpt lat="45.14144" lon="5.92131">
        <ele>1791.2</ele>
        <time>2020-08-11T06:33:50Z</time>
      </trkpt>
      <trkpt lat="45.14143" lon="5.92131">
        <ele>1791.4</ele>
        <time>2020-08-11T06:33:51Z</time>
      </trkpt>
      <trkpt lat="45.14142" lon="5.92131">
        <ele>1791.6</ele>
        <time>2020-08-11T06:33:52Z</time>
      </trkpt>
      <trkpt lat="45.14142" lon="5.92131">
        <ele>1791.6</ele>
        <time>2020-08-11T06:33:53Z</time>
      </trkpt>
      <trkpt lat="45.14141" lon="5.92131">
        <ele>1791.8</ele>
        <time>2020-08-11T06:33:54Z</time>
      </trkpt>
      <trkpt lat="45.1414" lon="5.92131">
        <ele>1792</ele>
        <time>2020-08-11T06:33:55Z</time>
      </trkpt>
      <trkpt lat="45.1414" lon="5.92131">
        <ele>1792.2</ele>
        <time>2020-08-11T06:33:56Z</time>
      </trkpt>
      <trkpt lat="45.14139" lon="5.92131">
        <ele>1792.4</ele>
        <time>2020-08-11T06:33:57Z</time>
      </trkpt>
      <trkpt lat="45.14138" lon="5.92131">
        <ele>1792.6</ele>
        <time>2020-08-11T06:33:58Z</time>
      </trkpt>
      <trkpt lat="45.14138" lon="5.92131">
        <ele>1792.6</ele>
        <time>2020-08-11T06:33:59Z</time>
      </trkpt>
      <trkpt lat="45.14137" lon="5.92131">
        <ele>1792.4</ele>
        <time>2020-08-11T06:34:00Z</time>
      </trkpt>
      <trkpt lat="45.14136" lon="5.92131">
        <ele>1792.4</ele>
        <time>2020-08-11T06:34:01Z</time>
      </trkpt>
      <trkpt lat="45.14135" lon="5.92131">
        <ele>1792.6</ele>
        <time>2020-08-11T06:34:02Z</time>
      </trkpt>
      <trkpt lat="45.14135" lon="5.92131">
        <ele>1792.6</ele>
        <time>2020-08-11T06:34:03Z</time>
      </trkpt>
      <trkpt lat="45.14134" lon="5.92131">
        <ele>1792.4</ele>
        <time>2020-08-11T06:34:04Z</time>
      </trkpt>
      <trkpt lat="45.14133" lon="5.92131">
        <ele>1792.4</ele>
        <time>2020-08-11T06:34:05Z</time>
      </trkpt>
      <trkpt lat="45.14133" lon="5.92131">
        <ele>1792.6</ele>
        <time>2020-08-11T06:34:06Z</time>
      </trkpt>
      <trkpt lat="45.14132" lon="5.92131">
        <ele>1792.6</ele>
        <time>2020-08-11T06:34:07Z</time>
      </trkpt>
      <trkpt lat="45.14131" lon="5.92131">
        <ele>1792.4</ele>
        <time>2020-08-11T06:34:08Z</time>
      </trkpt>
      <trkpt lat="45.14131" lon="5.92131">
        <ele>1792.8</ele>
        <time>2020-08-11T06:34:09Z</time>
      </trkpt>
      <trkpt lat="45.1413" lon="5.92131">
        <ele>1793</ele>
        <time>2020-08-11T06:34:10Z</time>
      </trkpt>
      <trkpt lat="45.14129" lon="5.92131">
        <ele>1793.4</ele>
        <time>2020-08-11T06:34:11Z</time>
      </trkpt>
      <trkpt lat="45.14128" lon="5.92131">
        <ele>1793.6</ele>
        <time>2020-08-11T06:34:12Z</time>
      </trkpt>
      <trkpt lat="45.14128" lon="5.92131">
        <ele>1794</ele>
        <time>2020-08-11T06:34:13Z</time>
      </trkpt>
      <trkpt lat="45.14127" lon="5.92131">
        <ele>1793.8</ele>
        <time>2020-08-11T06:34:14Z</time>
      </trkpt>
      <trkpt lat="45.14126" lon="5.92131">
        <ele>1793.8</ele>
        <time>2020-08-11T06:34:15Z</time>
      </trkpt>
      <trkpt lat="45.14126" lon="5.92131">
        <ele>1793.8</ele>
        <time>2020-08-11T06:34:16Z</time>
      </trkpt>
      <trkpt lat="45.14125" lon="5.92131">
        <ele>1793.6</ele>
        <time>2020-08-11T06:34:17Z</time>
      </trkpt>
      <trkpt lat="45.14124" lon="5.92131">
        <ele>1793.4</ele>
        <time>2020-08-11T06:34:18Z</time>
      </trkpt>
      <trkpt lat="45.14123" lon="5.92131">
        <ele>1793.4</ele>
        <time>2020-08-11T06:34:19Z</time>
      </trkpt>
      <trkpt lat="45.14123" lon="5.9213">
        <ele>1793.6</ele>
        <time>2020-08-11T06:34:20Z</time>
      </trkpt>
      <trkpt lat="45.14122" lon="5.9213">
        <ele>1793.6</ele>
        <time>2020-08-11T06:34:21Z</time>
      </trkpt>
      <trkpt lat="45.14121" lon="5.9213">
        <ele>1793.4</ele>
        <time>2020-08-11T06:34:22Z</time>
      </trkpt>
      <trkpt lat="45.14121" lon="5.9213">
        <ele>1793.2</ele>
        <time>2020-08-11T06:34:23Z</time>
      </trkpt>
      <trkpt lat="45.1412" lon="5.9213">
        <ele>1793.2</ele>
        <time>2020-08-11T06:34:24Z</time>
      </trkpt>
      <trkpt lat="45.14119" lon="5.9213">
        <ele>1793.2</ele>
        <time>2020-08-11T06:34:25Z</time>
      </trkpt>
      <trkpt lat="45.14119" lon="5.9213">
        <ele>1793.2</ele>
        <time>2020-08-11T06:34:26Z</time>
      </trkpt>
      <trkpt lat="45.14118" lon="5.9213">
        <ele>1793</ele>
        <time>2020-08-11T06:34:27Z</time>
      </trkpt>
      <trkpt lat="45.14117" lon="5.9213">
        <ele>1792.8</ele>
        <time>2020-08-11T06:34:28Z</time>
      </trkpt>
      <trkpt lat="45.14116" lon="5.9213">
        <ele>1792.8</ele>
        <time>2020-08-11T06:34:29Z</time>
      </trkpt>
      <trkpt lat="45.14116" lon="5.9213">
        <ele>1792.6</ele>
        <time>2020-08-11T06:34:30Z</time>
      </trkpt>
      <trkpt lat="45.14115" lon="5.9213">
        <ele>1792.6</ele>
        <time>2020-08-11T06:34:31Z</time>
      </trkpt>
      <trkpt lat="45.14114" lon="5.9213">
        <ele>1792.8</ele>
        <time>2020-08-11T06:34:32Z</time>
      </trkpt>
      <trkpt lat="45.14114" lon="5.9213">
        <ele>1793</ele>
        <time>2020-08-11T06:34:33Z</time>
      </trkpt>
      <trkpt lat="45.14113" lon="5.9213">
        <ele>1793.2</ele>
        <time>2020-08-11T06:34:34Z</time>
      </trkpt>
      <trkpt lat="45.14112" lon="5.9213">
        <ele>1793.4</ele>
        <time>2020-08-11T06:34:35Z</time>
      </trkpt>
      <trkpt lat="45.14112" lon="5.9213">
        <ele>1793.8</ele>
        <time>2020-08-11T06:34:36Z</time>
      </trkpt>
      <trkpt lat="45.14111" lon="5.9213">
        <ele>1794</ele>
        <time>2020-08-11T06:34:37Z</time>
      </trkpt>
      <trkpt lat="45.1411" lon="5.9213">
        <ele>1794.2</ele>
        <time>2020-08-11T06:34:38Z</time>
      </trkpt>
      <trkpt lat="45.14109" lon="5.9213">
        <ele>1794.6</ele>
        <time>2020-08-11T06:34:39Z</time>
      </trkpt>
      <trkpt lat="45.14109" lon="5.9213">
        <ele>1794.8</ele>
        <time>2020-08-11T06:34:40Z</time>
      </trkpt>
      <trkpt lat="45.14108" lon="5.9213">
        <ele>1795.2</ele>
        <time>2020-08-11T06:34:41Z</time>
      </trkpt>
      <trkpt lat="45.14107" lon="5.9213">
        <ele>1796</ele>
        <time>2020-08-11T06:34:42Z</time>
      </trkpt>
      <trkpt lat="45.14107" lon="5.9213">
        <ele>1796.8</ele>
        <time>2020-08-11T06:34:43Z</time>
      </trkpt>
      <trkpt lat="45.14106" lon="5.9213">
        <ele>1796.6</ele>
        <time>2020-08-11T06:34:44Z</time>
      </trkpt>
      <trkpt lat="45.14105" lon="5.9213">
        <ele>1796.8</ele>
        <time>2020-08-11T06:34:45Z</time>
      </trkpt>
      <trkpt lat="45.14104" lon="5.9213">
        <ele>1796.8</ele>
        <time>2020-08-11T06:34:46Z</time>
      </trkpt>
      <trkpt lat="45.14104" lon="5.9213">
        <ele>1796.8</ele>
        <time>2020-08-11T06:34:47Z</time>
      </trkpt>
      <trkpt lat="45.14103" lon="5.9213">
        <ele>1796.8</ele>
        <time>2020-08-11T06:34:48Z</time>
      </trkpt>
      <trkpt lat="45.14102" lon="5.9213">
        <ele>1797</ele>
        <time>2020-08-11T06:34:49Z</time>
      </trkpt>
      <trkpt lat="45.14102" lon="5.9213">
        <ele>1797</ele>
        <time>2020-08-11T06:34:50Z</time>
      </trkpt>
      <trkpt lat="45.14102" lon="5.9213">
        <ele>1797</ele>
        <time>2020-08-11T06:34:51Z</time>
      </trkpt>
      <trkpt lat="45.14101" lon="5.9213">
        <ele>1797</ele>
        <time>2020-08-11T06:34:52Z</time>
      </trkpt>
      <trkpt lat="45.141" lon="5.9213">
        <ele>1797</ele>
        <time>2020-08-11T06:34:53Z</time>
      </trkpt>
      <trkpt lat="45.14099" lon="5.9213">
        <ele>1797</ele>
        <time>2020-08-11T06:34:54Z</time>
      </trkpt>
      <trkpt lat="45.14099" lon="5.9213">
        <ele>1797.8</ele>
        <time>2020-08-11T06:34:55Z</time>
      </trkpt>
      <trkpt lat="45.14098" lon="5.9213">
        <ele>1798.2</ele>
        <time>2020-08-11T06:34:56Z</time>
      </trkpt>
      <trkpt lat="45.14097" lon="5.9213">
        <ele>1798</ele>
        <time>2020-08-11T06:34:57Z</time>
      </trkpt>
      <trkpt lat="45.14097" lon="5.9213">
        <ele>1798</ele>
        <time>2020-08-11T06:34:58Z</time>
      </trkpt>
      <trkpt lat="45.14096" lon="5.9213">
        <ele>1798</ele>
        <time>2020-08-11T06:34:59Z</time>
      </trkpt>
      <trkpt lat="45.14095" lon="5.9213">
        <ele>1798.2</ele>
        <time>2020-08-11T06:35:00Z</time>
      </trkpt>
      <trkpt lat="45.14094" lon="5.9213">
        <ele>1798.4</ele>
        <time>2020-08-11T06:35:01Z</time>
      </trkpt>
      <trkpt lat="45.14094" lon="5.9213">
        <ele>1798.2</ele>
        <time>2020-08-11T06:35:02Z</time>
      </trkpt>
      <trkpt lat="45.14093" lon="5.9213">
        <ele>1798.2</ele>
        <time>2020-08-11T06:35:03Z</time>
      </trkpt>
      <trkpt lat="45.14092" lon="5.9213">
        <ele>1798.2</ele>
        <time>2020-08-11T06:35:04Z</time>
      </trkpt>
      <trkpt lat="45.14091" lon="5.9213">
        <ele>1798.2</ele>
        <time>2020-08-11T06:35:05Z</time>
      </trkpt>
      <trkpt lat="45.1409" lon="5.92129">
        <ele>1798.2</ele>
        <time>2020-08-11T06:35:06Z</time>
      </trkpt>
      <trkpt lat="45.14089" lon="5.92129">
        <ele>1798.2</ele>
        <time>2020-08-11T06:35:07Z</time>
      </trkpt>
      <trkpt lat="45.14088" lon="5.92129">
        <ele>1798</ele>
        <time>2020-08-11T06:35:08Z</time>
      </trkpt>
      <trkpt lat="45.14087" lon="5.92128">
        <ele>1798.2</ele>
        <time>2020-08-11T06:35:09Z</time>
      </trkpt>
      <trkpt lat="45.14085" lon="5.92128">
        <ele>1798.2</ele>
        <time>2020-08-11T06:35:10Z</time>
      </trkpt>
      <trkpt lat="45.14084" lon="5.92128">
        <ele>1798.2</ele>
        <time>2020-08-11T06:35:11Z</time>
      </trkpt>
      <trkpt lat="45.14083" lon="5.92127">
        <ele>1798.4</ele>
        <time>2020-08-11T06:35:12Z</time>
      </trkpt>
      <trkpt lat="45.14082" lon="5.92127">
        <ele>1798.6</ele>
        <time>2020-08-11T06:35:13Z</time>
      </trkpt>
      <trkpt lat="45.14081" lon="5.92127">
        <ele>1798.6</ele>
        <time>2020-08-11T06:35:14Z</time>
      </trkpt>
      <trkpt lat="45.1408" lon="5.92127">
        <ele>1798.6</ele>
        <time>2020-08-11T06:35:15Z</time>
      </trkpt>
      <trkpt lat="45.1408" lon="5.92128">
        <ele>1798.6</ele>
        <time>2020-08-11T06:35:16Z</time>
      </trkpt>
      <trkpt lat="45.14079" lon="5.92128">
        <ele>1798.8</ele>
        <time>2020-08-11T06:35:17Z</time>
      </trkpt>
      <trkpt lat="45.14078" lon="5.92128">
        <ele>1799.2</ele>
        <time>2020-08-11T06:35:18Z</time>
      </trkpt>
      <trkpt lat="45.14078" lon="5.92128">
        <ele>1799.4</ele>
        <time>2020-08-11T06:35:19Z</time>
      </trkpt>
      <trkpt lat="45.14077" lon="5.92129">
        <ele>1799.4</ele>
        <time>2020-08-11T06:35:20Z</time>
      </trkpt>
      <trkpt lat="45.14076" lon="5.92129">
        <ele>1799.4</ele>
        <time>2020-08-11T06:35:21Z</time>
      </trkpt>
      <trkpt lat="45.14075" lon="5.92129">
        <ele>1799.4</ele>
        <time>2020-08-11T06:35:22Z</time>
      </trkpt>
      <trkpt lat="45.14075" lon="5.92129">
        <ele>1799.8</ele>
        <time>2020-08-11T06:35:23Z</time>
      </trkpt>
      <trkpt lat="45.14074" lon="5.9213">
        <ele>1800</ele>
        <time>2020-08-11T06:35:24Z</time>
      </trkpt>
      <trkpt lat="45.14073" lon="5.9213">
        <ele>1800.2</ele>
        <time>2020-08-11T06:35:25Z</time>
      </trkpt>
      <trkpt lat="45.14072" lon="5.9213">
        <ele>1800.2</ele>
        <time>2020-08-11T06:35:26Z</time>
      </trkpt>
      <trkpt lat="45.14071" lon="5.9213">
        <ele>1800.2</ele>
        <time>2020-08-11T06:35:27Z</time>
      </trkpt>
      <trkpt lat="45.1407" lon="5.9213">
        <ele>1800.2</ele>
        <time>2020-08-11T06:35:28Z</time>
      </trkpt>
      <trkpt lat="45.14068" lon="5.92129">
        <ele>1800.4</ele>
        <time>2020-08-11T06:35:29Z</time>
      </trkpt>
      <trkpt lat="45.14067" lon="5.92129">
        <ele>1800.6</ele>
        <time>2020-08-11T06:35:30Z</time>
      </trkpt>
      <trkpt lat="45.14066" lon="5.92129">
        <ele>1800.6</ele>
        <time>2020-08-11T06:35:31Z</time>
      </trkpt>
      <trkpt lat="45.14064" lon="5.92129">
        <ele>1800.4</ele>
        <time>2020-08-11T06:35:32Z</time>
      </trkpt>
      <trkpt lat="45.14063" lon="5.92128">
        <ele>1800.4</ele>
        <time>2020-08-11T06:35:33Z</time>
      </trkpt>
      <trkpt lat="45.14062" lon="5.92128">
        <ele>1800.6</ele>
        <time>2020-08-11T06:35:34Z</time>
      </trkpt>
      <trkpt lat="45.1406" lon="5.92128">
        <ele>1800.8</ele>
        <time>2020-08-11T06:35:35Z</time>
      </trkpt>
      <trkpt lat="45.14059" lon="5.92127">
        <ele>1800.8</ele>
        <time>2020-08-11T06:35:36Z</time>
      </trkpt>
      <trkpt lat="45.14057" lon="5.92127">
        <ele>1801</ele>
        <time>2020-08-11T06:35:37Z</time>
      </trkpt>
      <trkpt lat="45.14056" lon="5.92127">
        <ele>1801</ele>
        <time>2020-08-11T06:35:38Z</time>
      </trkpt>
      <trkpt lat="45.14055" lon="5.92126">
        <ele>1801.2</ele>
        <time>2020-08-11T06:35:39Z</time>
      </trkpt>
      <trkpt lat="45.14053" lon="5.92126">
        <ele>1801.2</ele>
        <time>2020-08-11T06:35:40Z</time>
      </trkpt>
      <trkpt lat="45.14052" lon="5.92126">
        <ele>1801.2</ele>
        <time>2020-08-11T06:35:41Z</time>
      </trkpt>
      <trkpt lat="45.14052" lon="5.92127">
        <ele>1801.4</ele>
        <time>2020-08-11T06:35:42Z</time>
      </trkpt>
      <trkpt lat="45.14051" lon="5.92127">
        <ele>1801.4</ele>
        <time>2020-08-11T06:35:43Z</time>
      </trkpt>
      <trkpt lat="45.1405" lon="5.92128">
        <ele>1801.6</ele>
        <time>2020-08-11T06:35:44Z</time>
      </trkpt>
      <trkpt lat="45.14049" lon="5.92128">
        <ele>1801.8</ele>
        <time>2020-08-11T06:35:45Z</time>
      </trkpt>
      <trkpt lat="45.14048" lon="5.92128">
        <ele>1802</ele>
        <time>2020-08-11T06:35:46Z</time>
      </trkpt>
      <trkpt lat="45.14048" lon="5.92129">
        <ele>1802.2</ele>
        <time>2020-08-11T06:35:47Z</time>
      </trkpt>
      <trkpt lat="45.14047" lon="5.92129">
        <ele>1802.4</ele>
        <time>2020-08-11T06:35:48Z</time>
      </trkpt>
      <trkpt lat="45.14046" lon="5.9213">
        <ele>1802.6</ele>
        <time>2020-08-11T06:35:49Z</time>
      </trkpt>
      <trkpt lat="45.14045" lon="5.9213">
        <ele>1802.8</ele>
        <time>2020-08-11T06:35:50Z</time>
      </trkpt>
      <trkpt lat="45.14044" lon="5.9213">
        <ele>1803</ele>
        <time>2020-08-11T06:35:51Z</time>
      </trkpt>
      <trkpt lat="45.14044" lon="5.92131">
        <ele>1803</ele>
        <time>2020-08-11T06:35:52Z</time>
      </trkpt>
      <trkpt lat="45.14043" lon="5.92131">
        <ele>1803.4</ele>
        <time>2020-08-11T06:35:53Z</time>
      </trkpt>
      <trkpt lat="45.14042" lon="5.92132">
        <ele>1803.6</ele>
        <time>2020-08-11T06:35:54Z</time>
      </trkpt>
      <trkpt lat="45.14042" lon="5.92132">
        <ele>1804</ele>
        <time>2020-08-11T06:35:55Z</time>
      </trkpt>
      <trkpt lat="45.14041" lon="5.92133">
        <ele>1804.4</ele>
        <time>2020-08-11T06:35:56Z</time>
      </trkpt>
      <trkpt lat="45.14041" lon="5.92133">
        <ele>1804.8</ele>
        <time>2020-08-11T06:35:57Z</time>
      </trkpt>
      <trkpt lat="45.1404" lon="5.92133">
        <ele>1805</ele>
        <time>2020-08-11T06:35:58Z</time>
      </trkpt>
      <trkpt lat="45.14039" lon="5.92134">
        <ele>1805.2</ele>
        <time>2020-08-11T06:35:59Z</time>
      </trkpt>
      <trkpt lat="45.14039" lon="5.92134">
        <ele>1805.4</ele>
        <time>2020-08-11T06:36:00Z</time>
      </trkpt>
      <trkpt lat="45.14038" lon="5.92135">
        <ele>1805.8</ele>
        <time>2020-08-11T06:36:01Z</time>
      </trkpt>
      <trkpt lat="45.14038" lon="5.92135">
        <ele>1806</ele>
        <time>2020-08-11T06:36:02Z</time>
      </trkpt>
      <trkpt lat="45.14037" lon="5.92136">
        <ele>1806.2</ele>
        <time>2020-08-11T06:36:03Z</time>
      </trkpt>
      <trkpt lat="45.14036" lon="5.92136">
        <ele>1806.6</ele>
        <time>2020-08-11T06:36:04Z</time>
      </trkpt>
      <trkpt lat="45.14036" lon="5.92137">
        <ele>1807</ele>
        <time>2020-08-11T06:36:05Z</time>
      </trkpt>
      <trkpt lat="45.14035" lon="5.92137">
        <ele>1807.2</ele>
        <time>2020-08-11T06:36:06Z</time>
      </trkpt>
      <trkpt lat="45.14035" lon="5.92138">
        <ele>1807.4</ele>
        <time>2020-08-11T06:36:07Z</time>
      </trkpt>
      <trkpt lat="45.14034" lon="5.92138">
        <ele>1807.6</ele>
        <time>2020-08-11T06:36:08Z</time>
      </trkpt>
      <trkpt lat="45.14034" lon="5.92138">
        <ele>1807.8</ele>
        <time>2020-08-11T06:36:09Z</time>
      </trkpt>
      <trkpt lat="45.14033" lon="5.92139">
        <ele>1808.2</ele>
        <time>2020-08-11T06:36:10Z</time>
      </trkpt>
      <trkpt lat="45.14032" lon="5.92139">
        <ele>1808.4</ele>
        <time>2020-08-11T06:36:11Z</time>
      </trkpt>
      <trkpt lat="45.14032" lon="5.9214">
        <ele>1808.6</ele>
        <time>2020-08-11T06:36:12Z</time>
      </trkpt>
      <trkpt lat="45.14031" lon="5.9214">
        <ele>1809</ele>
        <time>2020-08-11T06:36:13Z</time>
      </trkpt>
      <trkpt lat="45.14031" lon="5.92141">
        <ele>1809.2</ele>
        <time>2020-08-11T06:36:14Z</time>
      </trkpt>
      <trkpt lat="45.1403" lon="5.92141">
        <ele>1809.4</ele>
        <time>2020-08-11T06:36:15Z</time>
      </trkpt>
      <trkpt lat="45.1403" lon="5.92142">
        <ele>1809.8</ele>
        <time>2020-08-11T06:36:16Z</time>
      </trkpt>
      <trkpt lat="45.14029" lon="5.92142">
        <ele>1810</ele>
        <time>2020-08-11T06:36:17Z</time>
      </trkpt>
      <trkpt lat="45.14028" lon="5.92143">
        <ele>1810.2</ele>
        <time>2020-08-11T06:36:18Z</time>
      </trkpt>
      <trkpt lat="45.14028" lon="5.92143">
        <ele>1810.8</ele>
        <time>2020-08-11T06:36:19Z</time>
      </trkpt>
      <trkpt lat="45.14027" lon="5.92144">
        <ele>1810.8</ele>
        <time>2020-08-11T06:36:20Z</time>
      </trkpt>
      <trkpt lat="45.14027" lon="5.92145">
        <ele>1811.2</ele>
        <time>2020-08-11T06:36:21Z</time>
      </trkpt>
      <trkpt lat="45.14026" lon="5.92146">
        <ele>1811.2</ele>
        <time>2020-08-11T06:36:22Z</time>
      </trkpt>
      <trkpt lat="45.14025" lon="5.92147">
        <ele>1811.4</ele>
        <time>2020-08-11T06:36:23Z</time>
      </trkpt>
      <trkpt lat="45.14025" lon="5.92148">
        <ele>1811.6</ele>
        <time>2020-08-11T06:36:24Z</time>
      </trkpt>
      <trkpt lat="45.14024" lon="5.92149">
        <ele>1812</ele>
        <time>2020-08-11T06:36:25Z</time>
      </trkpt>
      <trkpt lat="45.14023" lon="5.9215">
        <ele>1812</ele>
        <time>2020-08-11T06:36:26Z</time>
      </trkpt>
      <trkpt lat="45.14022" lon="5.92152">
        <ele>1812.6</ele>
        <time>2020-08-11T06:36:27Z</time>
      </trkpt>
      <trkpt lat="45.14022" lon="5.92153">
        <ele>1812.8</ele>
        <time>2020-08-11T06:36:28Z</time>
      </trkpt>
      <trkpt lat="45.14021" lon="5.92154">
        <ele>1813</ele>
        <time>2020-08-11T06:36:29Z</time>
      </trkpt>
      <trkpt lat="45.1402" lon="5.92155">
        <ele>1813.2</ele>
        <time>2020-08-11T06:36:30Z</time>
      </trkpt>
      <trkpt lat="45.1402" lon="5.92156">
        <ele>1813.2</ele>
        <time>2020-08-11T06:36:31Z</time>
      </trkpt>
      <trkpt lat="45.14019" lon="5.92157">
        <ele>1813.4</ele>
        <time>2020-08-11T06:36:32Z</time>
      </trkpt>
      <trkpt lat="45.14018" lon="5.92157">
        <ele>1813.8</ele>
        <time>2020-08-11T06:36:33Z</time>
      </trkpt>
      <trkpt lat="45.14017" lon="5.92158">
        <ele>1814</ele>
        <time>2020-08-11T06:36:34Z</time>
      </trkpt>
      <trkpt lat="45.14017" lon="5.92158">
        <ele>1814.4</ele>
        <time>2020-08-11T06:36:35Z</time>
      </trkpt>
      <trkpt lat="45.14016" lon="5.92158">
        <ele>1814.6</ele>
        <time>2020-08-11T06:36:36Z</time>
      </trkpt>
      <trkpt lat="45.14015" lon="5.92159">
        <ele>1814.8</ele>
        <time>2020-08-11T06:36:37Z</time>
      </trkpt>
      <trkpt lat="45.14014" lon="5.92159">
        <ele>1815</ele>
        <time>2020-08-11T06:36:38Z</time>
      </trkpt>
      <trkpt lat="45.14014" lon="5.9216">
        <ele>1815.2</ele>
        <time>2020-08-11T06:36:39Z</time>
      </trkpt>
      <trkpt lat="45.14013" lon="5.9216">
        <ele>1815.4</ele>
        <time>2020-08-11T06:36:40Z</time>
      </trkpt>
      <trkpt lat="45.14012" lon="5.92161">
        <ele>1815.8</ele>
        <time>2020-08-11T06:36:41Z</time>
      </trkpt>
      <trkpt lat="45.14011" lon="5.92161">
        <ele>1816.2</ele>
        <time>2020-08-11T06:36:42Z</time>
      </trkpt>
      <trkpt lat="45.14011" lon="5.92161">
        <ele>1816.4</ele>
        <time>2020-08-11T06:36:43Z</time>
      </trkpt>
      <trkpt lat="45.1401" lon="5.9216">
        <ele>1816.8</ele>
        <time>2020-08-11T06:36:44Z</time>
      </trkpt>
      <trkpt lat="45.1401" lon="5.9216">
        <ele>1816.8</ele>
        <time>2020-08-11T06:36:45Z</time>
      </trkpt>
      <trkpt lat="45.14009" lon="5.92159">
        <ele>1817</ele>
        <time>2020-08-11T06:36:46Z</time>
      </trkpt>
      <trkpt lat="45.14009" lon="5.92158">
        <ele>1817.2</ele>
        <time>2020-08-11T06:36:47Z</time>
      </trkpt>
      <trkpt lat="45.14008" lon="5.92158">
        <ele>1817.2</ele>
        <time>2020-08-11T06:36:48Z</time>
      </trkpt>
      <trkpt lat="45.14008" lon="5.92157">
        <ele>1817.6</ele>
        <time>2020-08-11T06:36:49Z</time>
      </trkpt>
      <trkpt lat="45.14007" lon="5.92157">
        <ele>1818</ele>
        <time>2020-08-11T06:36:50Z</time>
      </trkpt>
      <trkpt lat="45.14006" lon="5.92156">
        <ele>1818.2</ele>
        <time>2020-08-11T06:36:51Z</time>
      </trkpt>
      <trkpt lat="45.14006" lon="5.92156">
        <ele>1818.6</ele>
        <time>2020-08-11T06:36:52Z</time>
      </trkpt>
      <trkpt lat="45.14005" lon="5.92155">
        <ele>1818.8</ele>
        <time>2020-08-11T06:36:53Z</time>
      </trkpt>
      <trkpt lat="45.14005" lon="5.92154">
        <ele>1819.2</ele>
        <time>2020-08-11T06:36:54Z</time>
      </trkpt>
      <trkpt lat="45.14004" lon="5.92154">
        <ele>1819.4</ele>
        <time>2020-08-11T06:36:55Z</time>
      </trkpt>
      <trkpt lat="45.14004" lon="5.92153">
        <ele>1819.6</ele>
        <time>2020-08-11T06:36:56Z</time>
      </trkpt>
      <trkpt lat="45.14003" lon="5.92154">
        <ele>1819.6</ele>
        <time>2020-08-11T06:36:57Z</time>
      </trkpt>
      <trkpt lat="45.14002" lon="5.92154">
        <ele>1820.2</ele>
        <time>2020-08-11T06:36:58Z</time>
      </trkpt>
      <trkpt lat="45.14002" lon="5.92155">
        <ele>1820.2</ele>
        <time>2020-08-11T06:36:59Z</time>
      </trkpt>
      <trkpt lat="45.14001" lon="5.92156">
        <ele>1820.6</ele>
        <time>2020-08-11T06:37:00Z</time>
      </trkpt>
      <trkpt lat="45.14001" lon="5.92156">
        <ele>1820.6</ele>
        <time>2020-08-11T06:37:01Z</time>
      </trkpt>
      <trkpt lat="45.14" lon="5.92157">
        <ele>1821.2</ele>
        <time>2020-08-11T06:37:02Z</time>
      </trkpt>
      <trkpt lat="45.13999" lon="5.92157">
        <ele>1821.4</ele>
        <time>2020-08-11T06:37:03Z</time>
      </trkpt>
      <trkpt lat="45.13999" lon="5.92158">
        <ele>1822</ele>
        <time>2020-08-11T06:37:04Z</time>
      </trkpt>
      <trkpt lat="45.13998" lon="5.92158">
        <ele>1822.2</ele>
        <time>2020-08-11T06:37:05Z</time>
      </trkpt>
      <trkpt lat="45.13997" lon="5.92159">
        <ele>1822.2</ele>
        <time>2020-08-11T06:37:06Z</time>
      </trkpt>
      <trkpt lat="45.13997" lon="5.92159">
        <ele>1822.4</ele>
        <time>2020-08-11T06:37:07Z</time>
      </trkpt>
      <trkpt lat="45.13996" lon="5.9216">
        <ele>1822.6</ele>
        <time>2020-08-11T06:37:08Z</time>
      </trkpt>
      <trkpt lat="45.13995" lon="5.92161">
        <ele>1822.8</ele>
        <time>2020-08-11T06:37:09Z</time>
      </trkpt>
      <trkpt lat="45.13995" lon="5.92161">
        <ele>1823</ele>
        <time>2020-08-11T06:37:10Z</time>
      </trkpt>
      <trkpt lat="45.13994" lon="5.92162">
        <ele>1823.2</ele>
        <time>2020-08-11T06:37:11Z</time>
      </trkpt>
      <trkpt lat="45.13994" lon="5.92162">
        <ele>1823.4</ele>
        <time>2020-08-11T06:37:12Z</time>
      </trkpt>
      <trkpt lat="45.13993" lon="5.92163">
        <ele>1823.6</ele>
        <time>2020-08-11T06:37:13Z</time>
      </trkpt>
      <trkpt lat="45.13993" lon="5.92163">
        <ele>1823.8</ele>
        <time>2020-08-11T06:37:14Z</time>
      </trkpt>
      <trkpt lat="45.13992" lon="5.92163">
        <ele>1824</ele>
        <time>2020-08-11T06:37:15Z</time>
      </trkpt>
      <trkpt lat="45.13992" lon="5.92164">
        <ele>1824</ele>
        <time>2020-08-11T06:37:16Z</time>
      </trkpt>
      <trkpt lat="45.13992" lon="5.92164">
        <ele>1824.4</ele>
        <time>2020-08-11T06:37:17Z</time>
      </trkpt>
      <trkpt lat="45.13991" lon="5.92165">
        <ele>1825</ele>
        <time>2020-08-11T06:37:18Z</time>
      </trkpt>
      <trkpt lat="45.13991" lon="5.92165">
        <ele>1825.2</ele>
        <time>2020-08-11T06:37:19Z</time>
      </trkpt>
      <trkpt lat="45.1399" lon="5.92166">
        <ele>1825.4</ele>
        <time>2020-08-11T06:37:20Z</time>
      </trkpt>
      <trkpt lat="45.1399" lon="5.92166">
        <ele>1825.6</ele>
        <time>2020-08-11T06:37:21Z</time>
      </trkpt>
      <trkpt lat="45.13989" lon="5.92167">
        <ele>1825.8</ele>
        <time>2020-08-11T06:37:22Z</time>
      </trkpt>
      <trkpt lat="45.13989" lon="5.92167">
        <ele>1826.2</ele>
        <time>2020-08-11T06:37:23Z</time>
      </trkpt>
      <trkpt lat="45.13988" lon="5.92168">
        <ele>1826.4</ele>
        <time>2020-08-11T06:37:24Z</time>
      </trkpt>
      <trkpt lat="45.13988" lon="5.92168">
        <ele>1827</ele>
        <time>2020-08-11T06:37:25Z</time>
      </trkpt>
      <trkpt lat="45.13987" lon="5.92169">
        <ele>1827.2</ele>
        <time>2020-08-11T06:37:26Z</time>
      </trkpt>
      <trkpt lat="45.13987" lon="5.92169">
        <ele>1827.4</ele>
        <time>2020-08-11T06:37:27Z</time>
      </trkpt>
      <trkpt lat="45.13986" lon="5.9217">
        <ele>1827.6</ele>
        <time>2020-08-11T06:37:28Z</time>
      </trkpt>
      <trkpt lat="45.13985" lon="5.92171">
        <ele>1827.8</ele>
        <time>2020-08-11T06:37:29Z</time>
      </trkpt>
      <trkpt lat="45.13984" lon="5.92172">
        <ele>1828</ele>
        <time>2020-08-11T06:37:30Z</time>
      </trkpt>
      <trkpt lat="45.13983" lon="5.92173">
        <ele>1828.2</ele>
        <time>2020-08-11T06:37:31Z</time>
      </trkpt>
      <trkpt lat="45.13982" lon="5.92173">
        <ele>1828.6</ele>
        <time>2020-08-11T06:37:32Z</time>
      </trkpt>
      <trkpt lat="45.13981" lon="5.92174">
        <ele>1828.8</ele>
        <time>2020-08-11T06:37:33Z</time>
      </trkpt>
      <trkpt lat="45.1398" lon="5.92175">
        <ele>1829.2</ele>
        <time>2020-08-11T06:37:34Z</time>
      </trkpt>
      <trkpt lat="45.13979" lon="5.92176">
        <ele>1829.4</ele>
        <time>2020-08-11T06:37:35Z</time>
      </trkpt>
      <trkpt lat="45.13978" lon="5.92176">
        <ele>1829.8</ele>
        <time>2020-08-11T06:37:36Z</time>
      </trkpt>
      <trkpt lat="45.13977" lon="5.92176">
        <ele>1830</ele>
        <time>2020-08-11T06:37:37Z</time>
      </trkpt>
      <trkpt lat="45.13976" lon="5.92176">
        <ele>1830.2</ele>
        <time>2020-08-11T06:37:38Z</time>
      </trkpt>
      <trkpt lat="45.13975" lon="5.92175">
        <ele>1830.6</ele>
        <time>2020-08-11T06:37:39Z</time>
      </trkpt>
      <trkpt lat="45.13974" lon="5.92175">
        <ele>1830.8</ele>
        <time>2020-08-11T06:37:40Z</time>
      </trkpt>
      <trkpt lat="45.13973" lon="5.92175">
        <ele>1831.2</ele>
        <time>2020-08-11T06:37:41Z</time>
      </trkpt>
      <trkpt lat="45.13972" lon="5.92175">
        <ele>1831.4</ele>
        <time>2020-08-11T06:37:42Z</time>
      </trkpt>
      <trkpt lat="45.13971" lon="5.92175">
        <ele>1831.6</ele>
        <time>2020-08-11T06:37:43Z</time>
      </trkpt>
      <trkpt lat="45.1397" lon="5.92175">
        <ele>1831.8</ele>
        <time>2020-08-11T06:37:44Z</time>
      </trkpt>
      <trkpt lat="45.13969" lon="5.92175">
        <ele>1832.2</ele>
        <time>2020-08-11T06:37:45Z</time>
      </trkpt>
      <trkpt lat="45.13969" lon="5.92175">
        <ele>1832.4</ele>
        <time>2020-08-11T06:37:46Z</time>
      </trkpt>
      <trkpt lat="45.13969" lon="5.92175">
        <ele>1832.8</ele>
        <time>2020-08-11T06:37:47Z</time>
      </trkpt>
      <trkpt lat="45.13968" lon="5.92175">
        <ele>1833</ele>
        <time>2020-08-11T06:37:48Z</time>
      </trkpt>
      <trkpt lat="45.13968" lon="5.92175">
        <ele>1833</ele>
        <time>2020-08-11T06:37:49Z</time>
      </trkpt>
      <trkpt lat="45.13968" lon="5.92175">
        <ele>1833.2</ele>
        <time>2020-08-11T06:37:50Z</time>
      </trkpt>
      <trkpt lat="45.13968" lon="5.92175">
        <ele>1833.4</ele>
        <time>2020-08-11T06:37:51Z</time>
      </trkpt>
      <trkpt lat="45.13967" lon="5.92175">
        <ele>1833.8</ele>
        <time>2020-08-11T06:37:52Z</time>
      </trkpt>
      <trkpt lat="45.13967" lon="5.92175">
        <ele>1834.2</ele>
        <time>2020-08-11T06:37:53Z</time>
      </trkpt>
      <trkpt lat="45.13967" lon="5.92175">
        <ele>1834.2</ele>
        <time>2020-08-11T06:37:54Z</time>
      </trkpt>
      <trkpt lat="45.13966" lon="5.92175">
        <ele>1834.6</ele>
        <time>2020-08-11T06:37:55Z</time>
      </trkpt>
      <trkpt lat="45.13966" lon="5.92175">
        <ele>1834.8</ele>
        <time>2020-08-11T06:37:56Z</time>
      </trkpt>
      <trkpt lat="45.13966" lon="5.92175">
        <ele>1834.8</ele>
        <time>2020-08-11T06:37:57Z</time>
      </trkpt>
      <trkpt lat="45.13966" lon="5.92175">
        <ele>1835</ele>
        <time>2020-08-11T06:37:58Z</time>
      </trkpt>
      <trkpt lat="45.13965" lon="5.92175">
        <ele>1835</ele>
        <time>2020-08-11T06:37:59Z</time>
      </trkpt>
      <trkpt lat="45.13965" lon="5.92176">
        <ele>1835.4</ele>
        <time>2020-08-11T06:38:00Z</time>
      </trkpt>
      <trkpt lat="45.13965" lon="5.92176">
        <ele>1835.4</ele>
        <time>2020-08-11T06:38:01Z</time>
      </trkpt>
      <trkpt lat="45.13964" lon="5.92176">
        <ele>1835.6</ele>
        <time>2020-08-11T06:38:02Z</time>
      </trkpt>
      <trkpt lat="45.13964" lon="5.92176">
        <ele>1835.8</ele>
        <time>2020-08-11T06:38:03Z</time>
      </trkpt>
      <trkpt lat="45.13964" lon="5.92176">
        <ele>1836.2</ele>
        <time>2020-08-11T06:38:04Z</time>
      </trkpt>
      <trkpt lat="45.13964" lon="5.92176">
        <ele>1836.4</ele>
        <time>2020-08-11T06:38:05Z</time>
      </trkpt>
      <trkpt lat="45.13963" lon="5.92176">
        <ele>1836.6</ele>
        <time>2020-08-11T06:38:06Z</time>
      </trkpt>
      <trkpt lat="45.13963" lon="5.92176">
        <ele>1836.8</ele>
        <time>2020-08-11T06:38:07Z</time>
      </trkpt>
      <trkpt lat="45.13963" lon="5.92176">
        <ele>1837.2</ele>
        <time>2020-08-11T06:38:08Z</time>
      </trkpt>
      <trkpt lat="45.13962" lon="5.92176">
        <ele>1837.4</ele>
        <time>2020-08-11T06:38:09Z</time>
      </trkpt>
      <trkpt lat="45.13962" lon="5.92176">
        <ele>1837.6</ele>
        <time>2020-08-11T06:38:10Z</time>
      </trkpt>
      <trkpt lat="45.13962" lon="5.92176">
        <ele>1838</ele>
        <time>2020-08-11T06:38:11Z</time>
      </trkpt>
      <trkpt lat="45.13961" lon="5.92176">
        <ele>1838.2</ele>
        <time>2020-08-11T06:38:12Z</time>
      </trkpt>
      <trkpt lat="45.13961" lon="5.92176">
        <ele>1838.2</ele>
        <time>2020-08-11T06:38:13Z</time>
      </trkpt>
      <trkpt lat="45.13961" lon="5.92176">
        <ele>1838.4</ele>
        <time>2020-08-11T06:38:14Z</time>
      </trkpt>
      <trkpt lat="45.13961" lon="5.92176">
        <ele>1838.6</ele>
        <time>2020-08-11T06:38:15Z</time>
      </trkpt>
      <trkpt lat="45.1396" lon="5.92176">
        <ele>1838.8</ele>
        <time>2020-08-11T06:38:16Z</time>
      </trkpt>
      <trkpt lat="45.1396" lon="5.92176">
        <ele>1839</ele>
        <time>2020-08-11T06:38:17Z</time>
      </trkpt>
      <trkpt lat="45.1396" lon="5.92176">
        <ele>1839</ele>
        <time>2020-08-11T06:38:18Z</time>
      </trkpt>
      <trkpt lat="45.13959" lon="5.92177">
        <ele>1839.2</ele>
        <time>2020-08-11T06:38:19Z</time>
      </trkpt>
      <trkpt lat="45.13959" lon="5.92177">
        <ele>1839.4</ele>
        <time>2020-08-11T06:38:20Z</time>
      </trkpt>
      <trkpt lat="45.13958" lon="5.92177">
        <ele>1839.8</ele>
        <time>2020-08-11T06:38:21Z</time>
      </trkpt>
      <trkpt lat="45.13958" lon="5.92177">
        <ele>1840</ele>
        <time>2020-08-11T06:38:22Z</time>
      </trkpt>
      <trkpt lat="45.13957" lon="5.92177">
        <ele>1840.4</ele>
        <time>2020-08-11T06:38:23Z</time>
      </trkpt>
      <trkpt lat="45.13957" lon="5.92177">
        <ele>1840.8</ele>
        <time>2020-08-11T06:38:24Z</time>
      </trkpt>
      <trkpt lat="45.13957" lon="5.92178">
        <ele>1841</ele>
        <time>2020-08-11T06:38:25Z</time>
      </trkpt>
      <trkpt lat="45.13956" lon="5.92178">
        <ele>1841.4</ele>
        <time>2020-08-11T06:38:26Z</time>
      </trkpt>
      <trkpt lat="45.13956" lon="5.92178">
        <ele>1841.6</ele>
        <time>2020-08-11T06:38:27Z</time>
      </trkpt>
      <trkpt lat="45.13955" lon="5.92178">
        <ele>1842.2</ele>
        <time>2020-08-11T06:38:28Z</time>
      </trkpt>
      <trkpt lat="45.13955" lon="5.92178">
        <ele>1842.6</ele>
        <time>2020-08-11T06:38:29Z</time>
      </trkpt>
      <trkpt lat="45.13954" lon="5.92178">
        <ele>1842.6</ele>
        <time>2020-08-11T06:38:30Z</time>
      </trkpt>
      <trkpt lat="45.13954" lon="5.92179">
        <ele>1842.8</ele>
        <time>2020-08-11T06:38:31Z</time>
      </trkpt>
      <trkpt lat="45.13953" lon="5.92179">
        <ele>1843</ele>
        <time>2020-08-11T06:38:32Z</time>
      </trkpt>
      <trkpt lat="45.13953" lon="5.92179">
        <ele>1843.2</ele>
        <time>2020-08-11T06:38:33Z</time>
      </trkpt>
      <trkpt lat="45.13953" lon="5.92179">
        <ele>1843.2</ele>
        <time>2020-08-11T06:38:34Z</time>
      </trkpt>
      <trkpt lat="45.13952" lon="5.92179">
        <ele>1843.6</ele>
        <time>2020-08-11T06:38:35Z</time>
      </trkpt>
      <trkpt lat="45.13952" lon="5.92179">
        <ele>1843.8</ele>
        <time>2020-08-11T06:38:36Z</time>
      </trkpt>
      <trkpt lat="45.13951" lon="5.9218">
        <ele>1843.8</ele>
        <time>2020-08-11T06:38:37Z</time>
      </trkpt>
      <trkpt lat="45.13951" lon="5.9218">
        <ele>1843.8</ele>
        <time>2020-08-11T06:38:38Z</time>
      </trkpt>
      <trkpt lat="45.1395" lon="5.9218">
        <ele>1844</ele>
        <time>2020-08-11T06:38:39Z</time>
      </trkpt>
      <trkpt lat="45.1395" lon="5.9218">
        <ele>1844.6</ele>
        <time>2020-08-11T06:38:40Z</time>
      </trkpt>
      <trkpt lat="45.13949" lon="5.9218">
        <ele>1844.6</ele>
        <time>2020-08-11T06:38:41Z</time>
      </trkpt>
      <trkpt lat="45.13948" lon="5.92182">
        <ele>1844.8</ele>
        <time>2020-08-11T06:38:42Z</time>
      </trkpt>
      <trkpt lat="45.13947" lon="5.92184">
        <ele>1845</ele>
        <time>2020-08-11T06:38:43Z</time>
      </trkpt>
      <trkpt lat="45.13946" lon="5.92185">
        <ele>1845.2</ele>
        <time>2020-08-11T06:38:44Z</time>
      </trkpt>
      <trkpt lat="45.13945" lon="5.92187">
        <ele>1845.4</ele>
        <time>2020-08-11T06:38:45Z</time>
      </trkpt>
      <trkpt lat="45.13944" lon="5.92188">
        <ele>1845.4</ele>
        <time>2020-08-11T06:38:46Z</time>
      </trkpt>
      <trkpt lat="45.13943" lon="5.9219">
        <ele>1845.6</ele>
        <time>2020-08-11T06:38:47Z</time>
      </trkpt>
      <trkpt lat="45.13942" lon="5.92191">
        <ele>1845.8</ele>
        <time>2020-08-11T06:38:48Z</time>
      </trkpt>
      <trkpt lat="45.13941" lon="5.92192">
        <ele>1845.8</ele>
        <time>2020-08-11T06:38:49Z</time>
      </trkpt>
      <trkpt lat="45.1394" lon="5.92193">
        <ele>1845.8</ele>
        <time>2020-08-11T06:38:50Z</time>
      </trkpt>
      <trkpt lat="45.13939" lon="5.92193">
        <ele>1845.8</ele>
        <time>2020-08-11T06:38:51Z</time>
      </trkpt>
      <trkpt lat="45.13938" lon="5.92194">
        <ele>1845.8</ele>
        <time>2020-08-11T06:38:52Z</time>
      </trkpt>
      <trkpt lat="45.13937" lon="5.92195">
        <ele>1845.8</ele>
        <time>2020-08-11T06:38:53Z</time>
      </trkpt>
      <trkpt lat="45.13936" lon="5.92196">
        <ele>1846</ele>
        <time>2020-08-11T06:38:54Z</time>
      </trkpt>
      <trkpt lat="45.13935" lon="5.92197">
        <ele>1846.2</ele>
        <time>2020-08-11T06:38:55Z</time>
      </trkpt>
      <trkpt lat="45.13934" lon="5.92197">
        <ele>1846.4</ele>
        <time>2020-08-11T06:38:56Z</time>
      </trkpt>
      <trkpt lat="45.13933" lon="5.92196">
        <ele>1846.6</ele>
        <time>2020-08-11T06:38:57Z</time>
      </trkpt>
      <trkpt lat="45.13932" lon="5.92196">
        <ele>1846.8</ele>
        <time>2020-08-11T06:38:58Z</time>
      </trkpt>
      <trkpt lat="45.13931" lon="5.92196">
        <ele>1847.2</ele>
        <time>2020-08-11T06:38:59Z</time>
      </trkpt>
      <trkpt lat="45.1393" lon="5.92196">
        <ele>1847.4</ele>
        <time>2020-08-11T06:39:00Z</time>
      </trkpt>
      <trkpt lat="45.13929" lon="5.92196">
        <ele>1847.6</ele>
        <time>2020-08-11T06:39:01Z</time>
      </trkpt>
      <trkpt lat="45.13928" lon="5.92195">
        <ele>1847.8</ele>
        <time>2020-08-11T06:39:02Z</time>
      </trkpt>
      <trkpt lat="45.13928" lon="5.92195">
        <ele>1847.8</ele>
        <time>2020-08-11T06:39:03Z</time>
      </trkpt>
      <trkpt lat="45.13927" lon="5.92195">
        <ele>1848.4</ele>
        <time>2020-08-11T06:39:04Z</time>
      </trkpt>
      <trkpt lat="45.13926" lon="5.92195">
        <ele>1848.8</ele>
        <time>2020-08-11T06:39:05Z</time>
      </trkpt>
      <trkpt lat="45.13925" lon="5.92195">
        <ele>1848.8</ele>
        <time>2020-08-11T06:39:06Z</time>
      </trkpt>
      <trkpt lat="45.13925" lon="5.92195">
        <ele>1849</ele>
        <time>2020-08-11T06:39:07Z</time>
      </trkpt>
      <trkpt lat="45.13924" lon="5.92195">
        <ele>1849.2</ele>
        <time>2020-08-11T06:39:08Z</time>
      </trkpt>
      <trkpt lat="45.13924" lon="5.92195">
        <ele>1849.4</ele>
        <time>2020-08-11T06:39:09Z</time>
      </trkpt>
      <trkpt lat="45.13923" lon="5.92195">
        <ele>1849.6</ele>
        <time>2020-08-11T06:39:10Z</time>
      </trkpt>
      <trkpt lat="45.13923" lon="5.92195">
        <ele>1849.8</ele>
        <time>2020-08-11T06:39:11Z</time>
      </trkpt>
      <trkpt lat="45.13922" lon="5.92195">
        <ele>1850</ele>
        <time>2020-08-11T06:39:12Z</time>
      </trkpt>
      <trkpt lat="45.13922" lon="5.92195">
        <ele>1850.2</ele>
        <time>2020-08-11T06:39:13Z</time>
      </trkpt>
      <trkpt lat="45.13922" lon="5.92195">
        <ele>1850.4</ele>
        <time>2020-08-11T06:39:14Z</time>
      </trkpt>
      <trkpt lat="45.13921" lon="5.92195">
        <ele>1850.4</ele>
        <time>2020-08-11T06:39:15Z</time>
      </trkpt>
      <trkpt lat="45.13921" lon="5.92195">
        <ele>1850.8</ele>
        <time>2020-08-11T06:39:16Z</time>
      </trkpt>
      <trkpt lat="45.1392" lon="5.92195">
        <ele>1851</ele>
        <time>2020-08-11T06:39:17Z</time>
      </trkpt>
      <trkpt lat="45.1392" lon="5.92196">
        <ele>1851.6</ele>
        <time>2020-08-11T06:39:18Z</time>
      </trkpt>
      <trkpt lat="45.13919" lon="5.92196">
        <ele>1852</ele>
        <time>2020-08-11T06:39:19Z</time>
      </trkpt>
      <trkpt lat="45.13919" lon="5.92196">
        <ele>1852.2</ele>
        <time>2020-08-11T06:39:20Z</time>
      </trkpt>
      <trkpt lat="45.13919" lon="5.92196">
        <ele>1852.4</ele>
        <time>2020-08-11T06:39:21Z</time>
      </trkpt>
      <trkpt lat="45.13918" lon="5.92196">
        <ele>1853.4</ele>
        <time>2020-08-11T06:39:22Z</time>
      </trkpt>
      <trkpt lat="45.13918" lon="5.92196">
        <ele>1853.4</ele>
        <time>2020-08-11T06:39:23Z</time>
      </trkpt>
      <trkpt lat="45.13917" lon="5.92196">
        <ele>1853</ele>
        <time>2020-08-11T06:39:24Z</time>
      </trkpt>
      <trkpt lat="45.13917" lon="5.92196">
        <ele>1853</ele>
        <time>2020-08-11T06:39:25Z</time>
      </trkpt>
      <trkpt lat="45.13916" lon="5.92196">
        <ele>1853.2</ele>
        <time>2020-08-11T06:39:26Z</time>
      </trkpt>
      <trkpt lat="45.13916" lon="5.92196">
        <ele>1853.2</ele>
        <time>2020-08-11T06:39:27Z</time>
      </trkpt>
      <trkpt lat="45.13915" lon="5.92196">
        <ele>1853.4</ele>
        <time>2020-08-11T06:39:28Z</time>
      </trkpt>
      <trkpt lat="45.13913" lon="5.92196">
        <ele>1853.6</ele>
        <time>2020-08-11T06:39:29Z</time>
      </trkpt>
      <trkpt lat="45.13912" lon="5.92196">
        <ele>1853.6</ele>
        <time>2020-08-11T06:39:30Z</time>
      </trkpt>
      <trkpt lat="45.1391" lon="5.92196">
        <ele>1853.6</ele>
        <time>2020-08-11T06:39:31Z</time>
      </trkpt>
      <trkpt lat="45.13909" lon="5.92196">
        <ele>1853.6</ele>
        <time>2020-08-11T06:39:32Z</time>
      </trkpt>
      <trkpt lat="45.13908" lon="5.92197">
        <ele>1853.6</ele>
        <time>2020-08-11T06:39:33Z</time>
      </trkpt>
      <trkpt lat="45.13906" lon="5.92197">
        <ele>1853.6</ele>
        <time>2020-08-11T06:39:34Z</time>
      </trkpt>
      <trkpt lat="45.13905" lon="5.92197">
        <ele>1853.4</ele>
        <time>2020-08-11T06:39:35Z</time>
      </trkpt>
      <trkpt lat="45.13903" lon="5.92197">
        <ele>1853.4</ele>
        <time>2020-08-11T06:39:36Z</time>
      </trkpt>
      <trkpt lat="45.13901" lon="5.92197">
        <ele>1853.2</ele>
        <time>2020-08-11T06:39:37Z</time>
      </trkpt>
      <trkpt lat="45.13899" lon="5.92197">
        <ele>1853</ele>
        <time>2020-08-11T06:39:38Z</time>
      </trkpt>
      <trkpt lat="45.13896" lon="5.92197">
        <ele>1853</ele>
        <time>2020-08-11T06:39:39Z</time>
      </trkpt>
      <trkpt lat="45.13894" lon="5.92197">
        <ele>1853</ele>
        <time>2020-08-11T06:39:40Z</time>
      </trkpt>
      <trkpt lat="45.13893" lon="5.92198">
        <ele>1853.2</ele>
        <time>2020-08-11T06:39:41Z</time>
      </trkpt>
      <trkpt lat="45.13892" lon="5.92198">
        <ele>1853.2</ele>
        <time>2020-08-11T06:39:42Z</time>
      </trkpt>
      <trkpt lat="45.13891" lon="5.92198">
        <ele>1853.4</ele>
        <time>2020-08-11T06:39:43Z</time>
      </trkpt>
      <trkpt lat="45.13889" lon="5.92199">
        <ele>1853.6</ele>
        <time>2020-08-11T06:39:44Z</time>
      </trkpt>
      <trkpt lat="45.13888" lon="5.92199">
        <ele>1853.6</ele>
        <time>2020-08-11T06:39:45Z</time>
      </trkpt>
      <trkpt lat="45.13887" lon="5.922">
        <ele>1853</ele>
        <time>2020-08-11T06:39:46Z</time>
      </trkpt>
      <trkpt lat="45.13886" lon="5.922">
        <ele>1853.2</ele>
        <time>2020-08-11T06:39:47Z</time>
      </trkpt>
      <trkpt lat="45.13883" lon="5.92202">
        <ele>1853</ele>
        <time>2020-08-11T06:39:48Z</time>
      </trkpt>
      <trkpt lat="45.1388" lon="5.92204">
        <ele>1853</ele>
        <time>2020-08-11T06:39:49Z</time>
      </trkpt>
      <trkpt lat="45.13877" lon="5.92206">
        <ele>1853</ele>
        <time>2020-08-11T06:39:50Z</time>
      </trkpt>
      <trkpt lat="45.13876" lon="5.92206">
        <ele>1853</ele>
        <time>2020-08-11T06:39:51Z</time>
      </trkpt>
      <trkpt lat="45.13874" lon="5.92205">
        <ele>1853</ele>
        <time>2020-08-11T06:39:52Z</time>
      </trkpt>
      <trkpt lat="45.13873" lon="5.92204">
        <ele>1853</ele>
        <time>2020-08-11T06:39:53Z</time>
      </trkpt>
      <trkpt lat="45.13872" lon="5.92204">
        <ele>1853.4</ele>
        <time>2020-08-11T06:39:54Z</time>
      </trkpt>
      <trkpt lat="45.13871" lon="5.92203">
        <ele>1853.2</ele>
        <time>2020-08-11T06:39:55Z</time>
      </trkpt>
      <trkpt lat="45.13869" lon="5.92202">
        <ele>1853.2</ele>
        <time>2020-08-11T06:39:56Z</time>
      </trkpt>
      <trkpt lat="45.13868" lon="5.92202">
        <ele>1853.4</ele>
        <time>2020-08-11T06:39:57Z</time>
      </trkpt>
      <trkpt lat="45.13867" lon="5.92201">
        <ele>1853.8</ele>
        <time>2020-08-11T06:39:58Z</time>
      </trkpt>
      <trkpt lat="45.13866" lon="5.92201">
        <ele>1854</ele>
        <time>2020-08-11T06:39:59Z</time>
      </trkpt>
      <trkpt lat="45.13864" lon="5.922">
        <ele>1854.6</ele>
        <time>2020-08-11T06:40:01Z</time>
      </trkpt>
      <trkpt lat="45.13863" lon="5.922">
        <ele>1854.8</ele>
        <time>2020-08-11T06:40:02Z</time>
      </trkpt>
      <trkpt lat="45.13862" lon="5.922">
        <ele>1855</ele>
        <time>2020-08-11T06:40:03Z</time>
      </trkpt>
      <trkpt lat="45.13861" lon="5.92199">
        <ele>1855</ele>
        <time>2020-08-11T06:40:04Z</time>
      </trkpt>
      <trkpt lat="45.13859" lon="5.92199">
        <ele>1855.2</ele>
        <time>2020-08-11T06:40:05Z</time>
      </trkpt>
      <trkpt lat="45.13858" lon="5.92199">
        <ele>1855.6</ele>
        <time>2020-08-11T06:40:06Z</time>
      </trkpt>
      <trkpt lat="45.13857" lon="5.92199">
        <ele>1855.8</ele>
        <time>2020-08-11T06:40:07Z</time>
      </trkpt>
      <trkpt lat="45.13857" lon="5.92198">
        <ele>1856</ele>
        <time>2020-08-11T06:40:08Z</time>
      </trkpt>
      <trkpt lat="45.13856" lon="5.92198">
        <ele>1856</ele>
        <time>2020-08-11T06:40:09Z</time>
      </trkpt>
      <trkpt lat="45.13856" lon="5.92198">
        <ele>1855.8</ele>
        <time>2020-08-11T06:40:10Z</time>
      </trkpt>
      <trkpt lat="45.13855" lon="5.92198">
        <ele>1856</ele>
        <time>2020-08-11T06:40:11Z</time>
      </trkpt>
      <trkpt lat="45.13855" lon="5.92198">
        <ele>1856.4</ele>
        <time>2020-08-11T06:40:12Z</time>
      </trkpt>
      <trkpt lat="45.13854" lon="5.92198">
        <ele>1856.4</ele>
        <time>2020-08-11T06:40:13Z</time>
      </trkpt>
      <trkpt lat="45.13853" lon="5.92198">
        <ele>1856.8</ele>
        <time>2020-08-11T06:40:14Z</time>
      </trkpt>
      <trkpt lat="45.13853" lon="5.92197">
        <ele>1856.8</ele>
        <time>2020-08-11T06:40:15Z</time>
      </trkpt>
      <trkpt lat="45.13852" lon="5.92197">
        <ele>1857.2</ele>
        <time>2020-08-11T06:40:16Z</time>
      </trkpt>
      <trkpt lat="45.13852" lon="5.92197">
        <ele>1857.4</ele>
        <time>2020-08-11T06:40:17Z</time>
      </trkpt>
      <trkpt lat="45.13851" lon="5.92197">
        <ele>1857.4</ele>
        <time>2020-08-11T06:40:18Z</time>
      </trkpt>
      <trkpt lat="45.13851" lon="5.92197">
        <ele>1857.4</ele>
        <time>2020-08-11T06:40:19Z</time>
      </trkpt>
      <trkpt lat="45.1385" lon="5.92197">
        <ele>1857.4</ele>
        <time>2020-08-11T06:40:20Z</time>
      </trkpt>
      <trkpt lat="45.13849" lon="5.92197">
        <ele>1857.6</ele>
        <time>2020-08-11T06:40:21Z</time>
      </trkpt>
      <trkpt lat="45.13849" lon="5.92196">
        <ele>1857.8</ele>
        <time>2020-08-11T06:40:22Z</time>
      </trkpt>
      <trkpt lat="45.13848" lon="5.92196">
        <ele>1857.8</ele>
        <time>2020-08-11T06:40:23Z</time>
      </trkpt>
      <trkpt lat="45.13847" lon="5.92195">
        <ele>1858</ele>
        <time>2020-08-11T06:40:24Z</time>
      </trkpt>
      <trkpt lat="45.13846" lon="5.92194">
        <ele>1858.2</ele>
        <time>2020-08-11T06:40:25Z</time>
      </trkpt>
      <trkpt lat="45.13845" lon="5.92193">
        <ele>1858.4</ele>
        <time>2020-08-11T06:40:26Z</time>
      </trkpt>
      <trkpt lat="45.13844" lon="5.92192">
        <ele>1858.8</ele>
        <time>2020-08-11T06:40:27Z</time>
      </trkpt>
      <trkpt lat="45.13843" lon="5.92191">
        <ele>1859</ele>
        <time>2020-08-11T06:40:28Z</time>
      </trkpt>
      <trkpt lat="45.13842" lon="5.9219">
        <ele>1859.2</ele>
        <time>2020-08-11T06:40:29Z</time>
      </trkpt>
      <trkpt lat="45.13841" lon="5.92189">
        <ele>1859.6</ele>
        <time>2020-08-11T06:40:30Z</time>
      </trkpt>
      <trkpt lat="45.1384" lon="5.92188">
        <ele>1859.8</ele>
        <time>2020-08-11T06:40:31Z</time>
      </trkpt>
      <trkpt lat="45.13839" lon="5.92187">
        <ele>1860.2</ele>
        <time>2020-08-11T06:40:32Z</time>
      </trkpt>
      <trkpt lat="45.13839" lon="5.92186">
        <ele>1860.4</ele>
        <time>2020-08-11T06:40:33Z</time>
      </trkpt>
      <trkpt lat="45.13838" lon="5.92185">
        <ele>1860.4</ele>
        <time>2020-08-11T06:40:34Z</time>
      </trkpt>
      <trkpt lat="45.13837" lon="5.92183">
        <ele>1860.6</ele>
        <time>2020-08-11T06:40:35Z</time>
      </trkpt>
      <trkpt lat="45.13836" lon="5.92182">
        <ele>1861</ele>
        <time>2020-08-11T06:40:37Z</time>
      </trkpt>
      <trkpt lat="45.13835" lon="5.92181">
        <ele>1861.2</ele>
        <time>2020-08-11T06:40:38Z</time>
      </trkpt>
      <trkpt lat="45.13834" lon="5.9218">
        <ele>1861.6</ele>
        <time>2020-08-11T06:40:39Z</time>
      </trkpt>
      <trkpt lat="45.13833" lon="5.92178">
        <ele>1861.6</ele>
        <time>2020-08-11T06:40:40Z</time>
      </trkpt>
      <trkpt lat="45.13832" lon="5.92178">
        <ele>1862</ele>
        <time>2020-08-11T06:40:41Z</time>
      </trkpt>
      <trkpt lat="45.13831" lon="5.92178">
        <ele>1862.6</ele>
        <time>2020-08-11T06:40:42Z</time>
      </trkpt>
      <trkpt lat="45.1383" lon="5.92178">
        <ele>1862.8</ele>
        <time>2020-08-11T06:40:43Z</time>
      </trkpt>
      <trkpt lat="45.13829" lon="5.92178">
        <ele>1863</ele>
        <time>2020-08-11T06:40:44Z</time>
      </trkpt>
      <trkpt lat="45.13828" lon="5.92178">
        <ele>1863.2</ele>
        <time>2020-08-11T06:40:45Z</time>
      </trkpt>
      <trkpt lat="45.13826" lon="5.92178">
        <ele>1863.6</ele>
        <time>2020-08-11T06:40:46Z</time>
      </trkpt>
      <trkpt lat="45.13825" lon="5.92178">
        <ele>1863.8</ele>
        <time>2020-08-11T06:40:47Z</time>
      </trkpt>
      <trkpt lat="45.13824" lon="5.92178">
        <ele>1863.8</ele>
        <time>2020-08-11T06:40:48Z</time>
      </trkpt>
      <trkpt lat="45.13823" lon="5.92178">
        <ele>1864.2</ele>
        <time>2020-08-11T06:40:49Z</time>
      </trkpt>
      <trkpt lat="45.13822" lon="5.92178">
        <ele>1864.6</ele>
        <time>2020-08-11T06:40:50Z</time>
      </trkpt>
      <trkpt lat="45.13821" lon="5.92178">
        <ele>1864.6</ele>
        <time>2020-08-11T06:40:51Z</time>
      </trkpt>
      <trkpt lat="45.13821" lon="5.92178">
        <ele>1864.8</ele>
        <time>2020-08-11T06:40:52Z</time>
      </trkpt>
      <trkpt lat="45.1382" lon="5.92177">
        <ele>1864.8</ele>
        <time>2020-08-11T06:40:53Z</time>
      </trkpt>
      <trkpt lat="45.13819" lon="5.92177">
        <ele>1865</ele>
        <time>2020-08-11T06:40:54Z</time>
      </trkpt>
      <trkpt lat="45.13818" lon="5.92177">
        <ele>1865.4</ele>
        <time>2020-08-11T06:40:55Z</time>
      </trkpt>
      <trkpt lat="45.13817" lon="5.92177">
        <ele>1865.4</ele>
        <time>2020-08-11T06:40:56Z</time>
      </trkpt>
      <trkpt lat="45.13816" lon="5.92177">
        <ele>1865.6</ele>
        <time>2020-08-11T06:40:57Z</time>
      </trkpt>
      <trkpt lat="45.13816" lon="5.92177">
        <ele>1866</ele>
        <time>2020-08-11T06:40:58Z</time>
      </trkpt>
      <trkpt lat="45.13815" lon="5.92177">
        <ele>1866.4</ele>
        <time>2020-08-11T06:40:59Z</time>
      </trkpt>
      <trkpt lat="45.13814" lon="5.92176">
        <ele>1866.6</ele>
        <time>2020-08-11T06:41:00Z</time>
      </trkpt>
      <trkpt lat="45.13813" lon="5.92177">
        <ele>1867</ele>
        <time>2020-08-11T06:41:01Z</time>
      </trkpt>
      <trkpt lat="45.13813" lon="5.92177">
        <ele>1867.2</ele>
        <time>2020-08-11T06:41:02Z</time>
      </trkpt>
      <trkpt lat="45.13812" lon="5.92178">
        <ele>1867.4</ele>
        <time>2020-08-11T06:41:03Z</time>
      </trkpt>
      <trkpt lat="45.13812" lon="5.92178">
        <ele>1867.8</ele>
        <time>2020-08-11T06:41:04Z</time>
      </trkpt>
      <trkpt lat="45.13811" lon="5.92179">
        <ele>1867.8</ele>
        <time>2020-08-11T06:41:05Z</time>
      </trkpt>
      <trkpt lat="45.1381" lon="5.92179">
        <ele>1868</ele>
        <time>2020-08-11T06:41:06Z</time>
      </trkpt>
      <trkpt lat="45.1381" lon="5.92179">
        <ele>1867.8</ele>
        <time>2020-08-11T06:41:07Z</time>
      </trkpt>
      <trkpt lat="45.13809" lon="5.9218">
        <ele>1867.8</ele>
        <time>2020-08-11T06:41:08Z</time>
      </trkpt>
      <trkpt lat="45.13809" lon="5.9218">
        <ele>1867.6</ele>
        <time>2020-08-11T06:41:09Z</time>
      </trkpt>
      <trkpt lat="45.13808" lon="5.92181">
        <ele>1867.4</ele>
        <time>2020-08-11T06:41:10Z</time>
      </trkpt>
      <trkpt lat="45.13808" lon="5.92181">
        <ele>1867.4</ele>
        <time>2020-08-11T06:41:11Z</time>
      </trkpt>
      <trkpt lat="45.13807" lon="5.92182">
        <ele>1867.4</ele>
        <time>2020-08-11T06:41:12Z</time>
      </trkpt>
      <trkpt lat="45.13807" lon="5.92182">
        <ele>1867.2</ele>
        <time>2020-08-11T06:41:13Z</time>
      </trkpt>
      <trkpt lat="45.13806" lon="5.92183">
        <ele>1867.2</ele>
        <time>2020-08-11T06:41:14Z</time>
      </trkpt>
      <trkpt lat="45.13805" lon="5.92183">
        <ele>1866.8</ele>
        <time>2020-08-11T06:41:15Z</time>
      </trkpt>
      <trkpt lat="45.13805" lon="5.92183">
        <ele>1866.4</ele>
        <time>2020-08-11T06:41:16Z</time>
      </trkpt>
      <trkpt lat="45.13804" lon="5.92184">
        <ele>1867</ele>
        <time>2020-08-11T06:41:17Z</time>
      </trkpt>
      <trkpt lat="45.13803" lon="5.92185">
        <ele>1866.8</ele>
        <time>2020-08-11T06:41:18Z</time>
      </trkpt>
      <trkpt lat="45.13801" lon="5.92186">
        <ele>1866.6</ele>
        <time>2020-08-11T06:41:19Z</time>
      </trkpt>
      <trkpt lat="45.138" lon="5.92188">
        <ele>1866.2</ele>
        <time>2020-08-11T06:41:20Z</time>
      </trkpt>
      <trkpt lat="45.13799" lon="5.92189">
        <ele>1865.6</ele>
        <time>2020-08-11T06:41:21Z</time>
      </trkpt>
      <trkpt lat="45.13797" lon="5.9219">
        <ele>1865.4</ele>
        <time>2020-08-11T06:41:22Z</time>
      </trkpt>
      <trkpt lat="45.13796" lon="5.92191">
        <ele>1865</ele>
        <time>2020-08-11T06:41:23Z</time>
      </trkpt>
      <trkpt lat="45.13794" lon="5.92194">
        <ele>1865.8</ele>
        <time>2020-08-11T06:41:24Z</time>
      </trkpt>
      <trkpt lat="45.13792" lon="5.92196">
        <ele>1866</ele>
        <time>2020-08-11T06:41:25Z</time>
      </trkpt>
      <trkpt lat="45.1379" lon="5.92198">
        <ele>1866.4</ele>
        <time>2020-08-11T06:41:26Z</time>
      </trkpt>
      <trkpt lat="45.13788" lon="5.922">
        <ele>1866.4</ele>
        <time>2020-08-11T06:41:27Z</time>
      </trkpt>
      <trkpt lat="45.13786" lon="5.92201">
        <ele>1866.2</ele>
        <time>2020-08-11T06:41:28Z</time>
      </trkpt>
      <trkpt lat="45.13784" lon="5.92202">
        <ele>1865.8</ele>
        <time>2020-08-11T06:41:29Z</time>
      </trkpt>
      <trkpt lat="45.13782" lon="5.92203">
        <ele>1865.6</ele>
        <time>2020-08-11T06:41:30Z</time>
      </trkpt>
      <trkpt lat="45.13781" lon="5.92204">
        <ele>1865.4</ele>
        <time>2020-08-11T06:41:31Z</time>
      </trkpt>
      <trkpt lat="45.13779" lon="5.92205">
        <ele>1865.2</ele>
        <time>2020-08-11T06:41:32Z</time>
      </trkpt>
      <trkpt lat="45.13777" lon="5.92205">
        <ele>1864.8</ele>
        <time>2020-08-11T06:41:33Z</time>
      </trkpt>
      <trkpt lat="45.13775" lon="5.92205">
        <ele>1865.4</ele>
        <time>2020-08-11T06:41:34Z</time>
      </trkpt>
      <trkpt lat="45.13773" lon="5.92205">
        <ele>1865.6</ele>
        <time>2020-08-11T06:41:35Z</time>
      </trkpt>
      <trkpt lat="45.13771" lon="5.92205">
        <ele>1866.2</ele>
        <time>2020-08-11T06:41:36Z</time>
      </trkpt>
      <trkpt lat="45.13769" lon="5.92205">
        <ele>1866.4</ele>
        <time>2020-08-11T06:41:37Z</time>
      </trkpt>
      <trkpt lat="45.13767" lon="5.92204">
        <ele>1867</ele>
        <time>2020-08-11T06:41:38Z</time>
      </trkpt>
      <trkpt lat="45.13764" lon="5.92204">
        <ele>1867</ele>
        <time>2020-08-11T06:41:39Z</time>
      </trkpt>
      <trkpt lat="45.13762" lon="5.92203">
        <ele>1867</ele>
        <time>2020-08-11T06:41:40Z</time>
      </trkpt>
      <trkpt lat="45.1376" lon="5.92203">
        <ele>1866.6</ele>
        <time>2020-08-11T06:41:41Z</time>
      </trkpt>
      <trkpt lat="45.13758" lon="5.92202">
        <ele>1866.4</ele>
        <time>2020-08-11T06:41:42Z</time>
      </trkpt>
      <trkpt lat="45.13756" lon="5.92201">
        <ele>1866.2</ele>
        <time>2020-08-11T06:41:43Z</time>
      </trkpt>
      <trkpt lat="45.13757" lon="5.92202">
        <ele>1866</ele>
        <time>2020-08-11T06:41:44Z</time>
      </trkpt>
      <trkpt lat="45.13757" lon="5.92203">
        <ele>1866</ele>
        <time>2020-08-11T06:41:45Z</time>
      </trkpt>
      <trkpt lat="45.13758" lon="5.92203">
        <ele>1866</ele>
        <time>2020-08-11T06:41:46Z</time>
      </trkpt>
      <trkpt lat="45.13758" lon="5.92204">
        <ele>1865.4</ele>
        <time>2020-08-11T06:41:47Z</time>
      </trkpt>
      <trkpt lat="45.13759" lon="5.92205">
        <ele>1865.4</ele>
        <time>2020-08-11T06:41:48Z</time>
      </trkpt>
      <trkpt lat="45.13759" lon="5.92205">
        <ele>1865</ele>
        <time>2020-08-11T06:41:49Z</time>
      </trkpt>
      <trkpt lat="45.1376" lon="5.92206">
        <ele>1864.6</ele>
        <time>2020-08-11T06:41:50Z</time>
      </trkpt>
      <trkpt lat="45.1376" lon="5.92207">
        <ele>1864.6</ele>
        <time>2020-08-11T06:41:51Z</time>
      </trkpt>
      <trkpt lat="45.13761" lon="5.92207">
        <ele>1864.2</ele>
        <time>2020-08-11T06:41:52Z</time>
      </trkpt>
      <trkpt lat="45.13761" lon="5.92208">
        <ele>1864</ele>
        <time>2020-08-11T06:41:53Z</time>
      </trkpt>
      <trkpt lat="45.13762" lon="5.92209">
        <ele>1864</ele>
        <time>2020-08-11T06:41:54Z</time>
      </trkpt>
      <trkpt lat="45.13762" lon="5.92209">
        <ele>1863.4</ele>
        <time>2020-08-11T06:41:55Z</time>
      </trkpt>
      <trkpt lat="45.13763" lon="5.9221">
        <ele>1862.8</ele>
        <time>2020-08-11T06:41:56Z</time>
      </trkpt>
      <trkpt lat="45.13763" lon="5.92211">
        <ele>1863</ele>
        <time>2020-08-11T06:41:57Z</time>
      </trkpt>
      <trkpt lat="45.13764" lon="5.92211">
        <ele>1863</ele>
        <time>2020-08-11T06:41:58Z</time>
      </trkpt>
      <trkpt lat="45.13764" lon="5.92212">
        <ele>1862.8</ele>
        <time>2020-08-11T06:41:59Z</time>
      </trkpt>
      <trkpt lat="45.13766" lon="5.92213">
        <ele>1862.2</ele>
        <time>2020-08-11T06:42:00Z</time>
      </trkpt>
      <trkpt lat="45.13768" lon="5.92214">
        <ele>1861.4</ele>
        <time>2020-08-11T06:42:01Z</time>
      </trkpt>
      <trkpt lat="45.1377" lon="5.92214">
        <ele>1860.8</ele>
        <time>2020-08-11T06:42:02Z</time>
      </trkpt>
      <trkpt lat="45.13772" lon="5.92215">
        <ele>1860.4</ele>
        <time>2020-08-11T06:42:03Z</time>
      </trkpt>
      <trkpt lat="45.13774" lon="5.92216">
        <ele>1859.8</ele>
        <time>2020-08-11T06:42:04Z</time>
      </trkpt>
      <trkpt lat="45.13775" lon="5.92217">
        <ele>1859.8</ele>
        <time>2020-08-11T06:42:05Z</time>
      </trkpt>
      <trkpt lat="45.13777" lon="5.92218">
        <ele>1859</ele>
        <time>2020-08-11T06:42:06Z</time>
      </trkpt>
      <trkpt lat="45.13779" lon="5.92219">
        <ele>1858.4</ele>
        <time>2020-08-11T06:42:07Z</time>
      </trkpt>
      <trkpt lat="45.13781" lon="5.92219">
        <ele>1858.6</ele>
        <time>2020-08-11T06:42:08Z</time>
      </trkpt>
      <trkpt lat="45.13783" lon="5.9222">
        <ele>1858.4</ele>
        <time>2020-08-11T06:42:09Z</time>
      </trkpt>
      <trkpt lat="45.13785" lon="5.92221">
        <ele>1857.6</ele>
        <time>2020-08-11T06:42:10Z</time>
      </trkpt>
      <trkpt lat="45.13786" lon="5.92222">
        <ele>1857.8</ele>
        <time>2020-08-11T06:42:11Z</time>
      </trkpt>
      <trkpt lat="45.13788" lon="5.92223">
        <ele>1857.2</ele>
        <time>2020-08-11T06:42:12Z</time>
      </trkpt>
      <trkpt lat="45.1379" lon="5.92224">
        <ele>1857.4</ele>
        <time>2020-08-11T06:42:13Z</time>
      </trkpt>
      <trkpt lat="45.13791" lon="5.92225">
        <ele>1857.2</ele>
        <time>2020-08-11T06:42:14Z</time>
      </trkpt>
      <trkpt lat="45.13792" lon="5.92227">
        <ele>1857.4</ele>
        <time>2020-08-11T06:42:15Z</time>
      </trkpt>
      <trkpt lat="45.13793" lon="5.9223">
        <ele>1857.2</ele>
        <time>2020-08-11T06:42:16Z</time>
      </trkpt>
      <trkpt lat="45.13794" lon="5.92233">
        <ele>1857.6</ele>
        <time>2020-08-11T06:42:17Z</time>
      </trkpt>
      <trkpt lat="45.13794" lon="5.92235">
        <ele>1857.2</ele>
        <time>2020-08-11T06:42:18Z</time>
      </trkpt>
      <trkpt lat="45.13795" lon="5.92238">
        <ele>1857.2</ele>
        <time>2020-08-11T06:42:19Z</time>
      </trkpt>
      <trkpt lat="45.13796" lon="5.92241">
        <ele>1857.4</ele>
        <time>2020-08-11T06:42:20Z</time>
      </trkpt>
      <trkpt lat="45.13796" lon="5.92244">
        <ele>1857.4</ele>
        <time>2020-08-11T06:42:21Z</time>
      </trkpt>
      <trkpt lat="45.13797" lon="5.92246">
        <ele>1857.8</ele>
        <time>2020-08-11T06:42:22Z</time>
      </trkpt>
      <trkpt lat="45.13797" lon="5.92249">
        <ele>1857.6</ele>
        <time>2020-08-11T06:42:23Z</time>
      </trkpt>
      <trkpt lat="45.13798" lon="5.92252">
        <ele>1858</ele>
        <time>2020-08-11T06:42:24Z</time>
      </trkpt>
      <trkpt lat="45.13799" lon="5.92253">
        <ele>1858.2</ele>
        <time>2020-08-11T06:42:25Z</time>
      </trkpt>
      <trkpt lat="45.138" lon="5.92254">
        <ele>1858.4</ele>
        <time>2020-08-11T06:42:26Z</time>
      </trkpt>
      <trkpt lat="45.13801" lon="5.92255">
        <ele>1858.8</ele>
        <time>2020-08-11T06:42:27Z</time>
      </trkpt>
      <trkpt lat="45.13802" lon="5.92256">
        <ele>1858.8</ele>
        <time>2020-08-11T06:42:28Z</time>
      </trkpt>
      <trkpt lat="45.13802" lon="5.92256">
        <ele>1859.2</ele>
        <time>2020-08-11T06:42:29Z</time>
      </trkpt>
      <trkpt lat="45.13803" lon="5.92257">
        <ele>1859.4</ele>
        <time>2020-08-11T06:42:30Z</time>
      </trkpt>
      <trkpt lat="45.13804" lon="5.92258">
        <ele>1859.6</ele>
        <time>2020-08-11T06:42:31Z</time>
      </trkpt>
      <trkpt lat="45.13805" lon="5.92259">
        <ele>1859.6</ele>
        <time>2020-08-11T06:42:32Z</time>
      </trkpt>
      <trkpt lat="45.13806" lon="5.9226">
        <ele>1860</ele>
        <time>2020-08-11T06:42:33Z</time>
      </trkpt>
      <trkpt lat="45.13806" lon="5.92265">
        <ele>1860</ele>
        <time>2020-08-11T06:42:34Z</time>
      </trkpt>
      <trkpt lat="45.13807" lon="5.92269">
        <ele>1860</ele>
        <time>2020-08-11T06:42:35Z</time>
      </trkpt>
      <trkpt lat="45.13808" lon="5.92273">
        <ele>1860</ele>
        <time>2020-08-11T06:42:36Z</time>
      </trkpt>
      <trkpt lat="45.13808" lon="5.92278">
        <ele>1860.4</ele>
        <time>2020-08-11T06:42:37Z</time>
      </trkpt>
      <trkpt lat="45.13811" lon="5.92278">
        <ele>1860.2</ele>
        <time>2020-08-11T06:42:38Z</time>
      </trkpt>
      <trkpt lat="45.13814" lon="5.92279">
        <ele>1860.6</ele>
        <time>2020-08-11T06:42:39Z</time>
      </trkpt>
      <trkpt lat="45.13816" lon="5.92279">
        <ele>1860.4</ele>
        <time>2020-08-11T06:42:40Z</time>
      </trkpt>
      <trkpt lat="45.13819" lon="5.9228">
        <ele>1860</ele>
        <time>2020-08-11T06:42:41Z</time>
      </trkpt>
      <trkpt lat="45.13822" lon="5.92281">
        <ele>1860.4</ele>
        <time>2020-08-11T06:42:42Z</time>
      </trkpt>
      <trkpt lat="45.13826" lon="5.92281">
        <ele>1859.8</ele>
        <time>2020-08-11T06:42:43Z</time>
      </trkpt>
      <trkpt lat="45.13829" lon="5.92282">
        <ele>1860.4</ele>
        <time>2020-08-11T06:42:44Z</time>
      </trkpt>
      <trkpt lat="45.13831" lon="5.92284">
        <ele>1860</ele>
        <time>2020-08-11T06:42:45Z</time>
      </trkpt>
      <trkpt lat="45.13833" lon="5.92287">
        <ele>1860.6</ele>
        <time>2020-08-11T06:42:46Z</time>
      </trkpt>
      <trkpt lat="45.13835" lon="5.92289">
        <ele>1860.6</ele>
        <time>2020-08-11T06:42:47Z</time>
      </trkpt>
      <trkpt lat="45.13837" lon="5.92292">
        <ele>1860.8</ele>
        <time>2020-08-11T06:42:48Z</time>
      </trkpt>
      <trkpt lat="45.13836" lon="5.92295">
        <ele>1860.6</ele>
        <time>2020-08-11T06:42:49Z</time>
      </trkpt>
      <trkpt lat="45.13836" lon="5.92298">
        <ele>1861</ele>
        <time>2020-08-11T06:42:50Z</time>
      </trkpt>
      <trkpt lat="45.13835" lon="5.92302">
        <ele>1860.8</ele>
        <time>2020-08-11T06:42:51Z</time>
      </trkpt>
      <trkpt lat="45.13834" lon="5.92305">
        <ele>1860.2</ele>
        <time>2020-08-11T06:42:52Z</time>
      </trkpt>
      <trkpt lat="45.13836" lon="5.92308">
        <ele>1860</ele>
        <time>2020-08-11T06:42:53Z</time>
      </trkpt>
      <trkpt lat="45.13838" lon="5.9231">
        <ele>1860</ele>
        <time>2020-08-11T06:42:54Z</time>
      </trkpt>
      <trkpt lat="45.1384" lon="5.92312">
        <ele>1860</ele>
        <time>2020-08-11T06:42:55Z</time>
      </trkpt>
      <trkpt lat="45.13842" lon="5.92315">
        <ele>1859.2</ele>
        <time>2020-08-11T06:42:56Z</time>
      </trkpt>
      <trkpt lat="45.13843" lon="5.92316">
        <ele>1859.4</ele>
        <time>2020-08-11T06:42:57Z</time>
      </trkpt>
      <trkpt lat="45.13844" lon="5.92316">
        <ele>1859.2</ele>
        <time>2020-08-11T06:42:58Z</time>
      </trkpt>
      <trkpt lat="45.13846" lon="5.92317">
        <ele>1859</ele>
        <time>2020-08-11T06:42:59Z</time>
      </trkpt>
      <trkpt lat="45.13847" lon="5.92318">
        <ele>1859</ele>
        <time>2020-08-11T06:43:00Z</time>
      </trkpt>
      <trkpt lat="45.13848" lon="5.92319">
        <ele>1859.2</ele>
        <time>2020-08-11T06:43:01Z</time>
      </trkpt>
      <trkpt lat="45.1385" lon="5.9232">
        <ele>1859.6</ele>
        <time>2020-08-11T06:43:02Z</time>
      </trkpt>
      <trkpt lat="45.13851" lon="5.92321">
        <ele>1859.8</ele>
        <time>2020-08-11T06:43:03Z</time>
      </trkpt>
      <trkpt lat="45.13852" lon="5.92321">
        <ele>1859.6</ele>
        <time>2020-08-11T06:43:04Z</time>
      </trkpt>
      <trkpt lat="45.13852" lon="5.92322">
        <ele>1859.6</ele>
        <time>2020-08-11T06:43:05Z</time>
      </trkpt>
      <trkpt lat="45.13853" lon="5.92323">
        <ele>1859.2</ele>
        <time>2020-08-11T06:43:06Z</time>
      </trkpt>
      <trkpt lat="45.13853" lon="5.92324">
        <ele>1859</ele>
        <time>2020-08-11T06:43:07Z</time>
      </trkpt>
      <trkpt lat="45.13854" lon="5.92325">
        <ele>1859</ele>
        <time>2020-08-11T06:43:08Z</time>
      </trkpt>
      <trkpt lat="45.13854" lon="5.92326">
        <ele>1858.8</ele>
        <time>2020-08-11T06:43:09Z</time>
      </trkpt>
      <trkpt lat="45.13855" lon="5.92327">
        <ele>1858.8</ele>
        <time>2020-08-11T06:43:10Z</time>
      </trkpt>
      <trkpt lat="45.13856" lon="5.92327">
        <ele>1859</ele>
        <time>2020-08-11T06:43:11Z</time>
      </trkpt>
      <trkpt lat="45.13856" lon="5.92328">
        <ele>1859</ele>
        <time>2020-08-11T06:43:12Z</time>
      </trkpt>
      <trkpt lat="45.13857" lon="5.92329">
        <ele>1859.2</ele>
        <time>2020-08-11T06:43:13Z</time>
      </trkpt>
      <trkpt lat="45.13857" lon="5.9233">
        <ele>1859.4</ele>
        <time>2020-08-11T06:43:14Z</time>
      </trkpt>
      <trkpt lat="45.13858" lon="5.92331">
        <ele>1859.4</ele>
        <time>2020-08-11T06:43:15Z</time>
      </trkpt>
      <trkpt lat="45.13858" lon="5.92332">
        <ele>1859.6</ele>
        <time>2020-08-11T06:43:16Z</time>
      </trkpt>
      <trkpt lat="45.13859" lon="5.92333">
        <ele>1859.8</ele>
        <time>2020-08-11T06:43:17Z</time>
      </trkpt>
      <trkpt lat="45.1386" lon="5.92334">
        <ele>1860.4</ele>
        <time>2020-08-11T06:43:18Z</time>
      </trkpt>
      <trkpt lat="45.13861" lon="5.92335">
        <ele>1860.8</ele>
        <time>2020-08-11T06:43:19Z</time>
      </trkpt>
      <trkpt lat="45.13862" lon="5.92336">
        <ele>1861</ele>
        <time>2020-08-11T06:43:20Z</time>
      </trkpt>
      <trkpt lat="45.13862" lon="5.92337">
        <ele>1861.2</ele>
        <time>2020-08-11T06:43:21Z</time>
      </trkpt>
      <trkpt lat="45.13863" lon="5.92338">
        <ele>1861.4</ele>
        <time>2020-08-11T06:43:22Z</time>
      </trkpt>
      <trkpt lat="45.13864" lon="5.92339">
        <ele>1861.6</ele>
        <time>2020-08-11T06:43:23Z</time>
      </trkpt>
      <trkpt lat="45.13865" lon="5.9234">
        <ele>1861.8</ele>
        <time>2020-08-11T06:43:24Z</time>
      </trkpt>
      <trkpt lat="45.13866" lon="5.92341">
        <ele>1861.8</ele>
        <time>2020-08-11T06:43:25Z</time>
      </trkpt>
      <trkpt lat="45.13867" lon="5.9234">
        <ele>1862.2</ele>
        <time>2020-08-11T06:43:26Z</time>
      </trkpt>
      <trkpt lat="45.13869" lon="5.92339">
        <ele>1862.4</ele>
        <time>2020-08-11T06:43:27Z</time>
      </trkpt>
      <trkpt lat="45.13871" lon="5.92338">
        <ele>1862.8</ele>
        <time>2020-08-11T06:43:28Z</time>
      </trkpt>
      <trkpt lat="45.13872" lon="5.92336">
        <ele>1862.8</ele>
        <time>2020-08-11T06:43:29Z</time>
      </trkpt>
      <trkpt lat="45.13874" lon="5.92335">
        <ele>1863.4</ele>
        <time>2020-08-11T06:43:30Z</time>
      </trkpt>
      <trkpt lat="45.13875" lon="5.92334">
        <ele>1863.8</ele>
        <time>2020-08-11T06:43:31Z</time>
      </trkpt>
      <trkpt lat="45.13876" lon="5.92334">
        <ele>1863.8</ele>
        <time>2020-08-11T06:43:32Z</time>
      </trkpt>
      <trkpt lat="45.13877" lon="5.92334">
        <ele>1863.8</ele>
        <time>2020-08-11T06:43:33Z</time>
      </trkpt>
      <trkpt lat="45.13878" lon="5.92334">
        <ele>1864</ele>
        <time>2020-08-11T06:43:34Z</time>
      </trkpt>
      <trkpt lat="45.1388" lon="5.92333">
        <ele>1864.2</ele>
        <time>2020-08-11T06:43:35Z</time>
      </trkpt>
      <trkpt lat="45.13881" lon="5.92333">
        <ele>1864.2</ele>
        <time>2020-08-11T06:43:36Z</time>
      </trkpt>
      <trkpt lat="45.13882" lon="5.92333">
        <ele>1864.6</ele>
        <time>2020-08-11T06:43:37Z</time>
      </trkpt>
      <trkpt lat="45.13883" lon="5.92333">
        <ele>1865</ele>
        <time>2020-08-11T06:43:38Z</time>
      </trkpt>
      <trkpt lat="45.13884" lon="5.92333">
        <ele>1865</ele>
        <time>2020-08-11T06:43:39Z</time>
      </trkpt>
      <trkpt lat="45.13885" lon="5.92333">
        <ele>1865.2</ele>
        <time>2020-08-11T06:43:40Z</time>
      </trkpt>
      <trkpt lat="45.13885" lon="5.92333">
        <ele>1865.6</ele>
        <time>2020-08-11T06:43:41Z</time>
      </trkpt>
      <trkpt lat="45.13886" lon="5.92334">
        <ele>1865.8</ele>
        <time>2020-08-11T06:43:42Z</time>
      </trkpt>
      <trkpt lat="45.13886" lon="5.92335">
        <ele>1865.8</ele>
        <time>2020-08-11T06:43:43Z</time>
      </trkpt>
      <trkpt lat="45.13887" lon="5.92335">
        <ele>1866</ele>
        <time>2020-08-11T06:43:44Z</time>
      </trkpt>
      <trkpt lat="45.13887" lon="5.92336">
        <ele>1866.4</ele>
        <time>2020-08-11T06:43:45Z</time>
      </trkpt>
      <trkpt lat="45.13887" lon="5.92337">
        <ele>1866.6</ele>
        <time>2020-08-11T06:43:46Z</time>
      </trkpt>
      <trkpt lat="45.13888" lon="5.92338">
        <ele>1867</ele>
        <time>2020-08-11T06:43:47Z</time>
      </trkpt>
      <trkpt lat="45.13888" lon="5.92338">
        <ele>1867.2</ele>
        <time>2020-08-11T06:43:48Z</time>
      </trkpt>
      <trkpt lat="45.13888" lon="5.92339">
        <ele>1867.2</ele>
        <time>2020-08-11T06:43:49Z</time>
      </trkpt>
      <trkpt lat="45.13889" lon="5.9234">
        <ele>1867.4</ele>
        <time>2020-08-11T06:43:50Z</time>
      </trkpt>
      <trkpt lat="45.13889" lon="5.92341">
        <ele>1867.6</ele>
        <time>2020-08-11T06:43:51Z</time>
      </trkpt>
      <trkpt lat="45.1389" lon="5.92341">
        <ele>1867.8</ele>
        <time>2020-08-11T06:43:52Z</time>
      </trkpt>
      <trkpt lat="45.1389" lon="5.92342">
        <ele>1868</ele>
        <time>2020-08-11T06:43:53Z</time>
      </trkpt>
      <trkpt lat="45.1389" lon="5.92343">
        <ele>1868.2</ele>
        <time>2020-08-11T06:43:54Z</time>
      </trkpt>
      <trkpt lat="45.13891" lon="5.92344">
        <ele>1868.4</ele>
        <time>2020-08-11T06:43:55Z</time>
      </trkpt>
      <trkpt lat="45.13891" lon="5.92344">
        <ele>1868.4</ele>
        <time>2020-08-11T06:43:56Z</time>
      </trkpt>
      <trkpt lat="45.13891" lon="5.92345">
        <ele>1868.6</ele>
        <time>2020-08-11T06:43:57Z</time>
      </trkpt>
      <trkpt lat="45.13892" lon="5.92346">
        <ele>1868.6</ele>
        <time>2020-08-11T06:43:58Z</time>
      </trkpt>
      <trkpt lat="45.13892" lon="5.92347">
        <ele>1868.8</ele>
        <time>2020-08-11T06:43:59Z</time>
      </trkpt>
      <trkpt lat="45.13892" lon="5.92348">
        <ele>1869.2</ele>
        <time>2020-08-11T06:44:00Z</time>
      </trkpt>
      <trkpt lat="45.13892" lon="5.92348">
        <ele>1869.2</ele>
        <time>2020-08-11T06:44:01Z</time>
      </trkpt>
      <trkpt lat="45.13892" lon="5.92349">
        <ele>1869.4</ele>
        <time>2020-08-11T06:44:02Z</time>
      </trkpt>
      <trkpt lat="45.13893" lon="5.9235">
        <ele>1869.6</ele>
        <time>2020-08-11T06:44:03Z</time>
      </trkpt>
      <trkpt lat="45.13893" lon="5.92351">
        <ele>1870</ele>
        <time>2020-08-11T06:44:04Z</time>
      </trkpt>
      <trkpt lat="45.13893" lon="5.92352">
        <ele>1870.4</ele>
        <time>2020-08-11T06:44:05Z</time>
      </trkpt>
      <trkpt lat="45.13893" lon="5.92353">
        <ele>1870.6</ele>
        <time>2020-08-11T06:44:06Z</time>
      </trkpt>
      <trkpt lat="45.13894" lon="5.92353">
        <ele>1870.8</ele>
        <time>2020-08-11T06:44:07Z</time>
      </trkpt>
      <trkpt lat="45.13894" lon="5.92354">
        <ele>1870.8</ele>
        <time>2020-08-11T06:44:08Z</time>
      </trkpt>
      <trkpt lat="45.13894" lon="5.92355">
        <ele>1871</ele>
        <time>2020-08-11T06:44:09Z</time>
      </trkpt>
      <trkpt lat="45.13894" lon="5.92356">
        <ele>1871.2</ele>
        <time>2020-08-11T06:44:10Z</time>
      </trkpt>
      <trkpt lat="45.13894" lon="5.92357">
        <ele>1871.4</ele>
        <time>2020-08-11T06:44:11Z</time>
      </trkpt>
      <trkpt lat="45.13894" lon="5.92359">
        <ele>1871.6</ele>
        <time>2020-08-11T06:44:12Z</time>
      </trkpt>
      <trkpt lat="45.13893" lon="5.92361">
        <ele>1871.8</ele>
        <time>2020-08-11T06:44:13Z</time>
      </trkpt>
      <trkpt lat="45.13893" lon="5.92363">
        <ele>1872</ele>
        <time>2020-08-11T06:44:14Z</time>
      </trkpt>
      <trkpt lat="45.13892" lon="5.92365">
        <ele>1872.2</ele>
        <time>2020-08-11T06:44:15Z</time>
      </trkpt>
      <trkpt lat="45.13891" lon="5.92367">
        <ele>1872.6</ele>
        <time>2020-08-11T06:44:16Z</time>
      </trkpt>
      <trkpt lat="45.13891" lon="5.92368">
        <ele>1873</ele>
        <time>2020-08-11T06:44:17Z</time>
      </trkpt>
      <trkpt lat="45.13892" lon="5.92369">
        <ele>1873.2</ele>
        <time>2020-08-11T06:44:18Z</time>
      </trkpt>
      <trkpt lat="45.13893" lon="5.9237">
        <ele>1873.4</ele>
        <time>2020-08-11T06:44:19Z</time>
      </trkpt>
      <trkpt lat="45.13894" lon="5.92371">
        <ele>1873.4</ele>
        <time>2020-08-11T06:44:20Z</time>
      </trkpt>
      <trkpt lat="45.13895" lon="5.92372">
        <ele>1873.8</ele>
        <time>2020-08-11T06:44:21Z</time>
      </trkpt>
      <trkpt lat="45.13896" lon="5.92373">
        <ele>1874.2</ele>
        <time>2020-08-11T06:44:22Z</time>
      </trkpt>
      <trkpt lat="45.13897" lon="5.92374">
        <ele>1874.2</ele>
        <time>2020-08-11T06:44:23Z</time>
      </trkpt>
      <trkpt lat="45.13898" lon="5.92375">
        <ele>1874.4</ele>
        <time>2020-08-11T06:44:24Z</time>
      </trkpt>
      <trkpt lat="45.13899" lon="5.92376">
        <ele>1874.8</ele>
        <time>2020-08-11T06:44:25Z</time>
      </trkpt>
      <trkpt lat="45.139" lon="5.92377">
        <ele>1875</ele>
        <time>2020-08-11T06:44:26Z</time>
      </trkpt>
      <trkpt lat="45.13901" lon="5.92378">
        <ele>1875.4</ele>
        <time>2020-08-11T06:44:27Z</time>
      </trkpt>
      <trkpt lat="45.13903" lon="5.92379">
        <ele>1875.6</ele>
        <time>2020-08-11T06:44:28Z</time>
      </trkpt>
      <trkpt lat="45.13904" lon="5.92381">
        <ele>1875.8</ele>
        <time>2020-08-11T06:44:29Z</time>
      </trkpt>
      <trkpt lat="45.13905" lon="5.92382">
        <ele>1875.8</ele>
        <time>2020-08-11T06:44:30Z</time>
      </trkpt>
      <trkpt lat="45.13907" lon="5.92383">
        <ele>1876</ele>
        <time>2020-08-11T06:44:31Z</time>
      </trkpt>
      <trkpt lat="45.13908" lon="5.92385">
        <ele>1876.2</ele>
        <time>2020-08-11T06:44:32Z</time>
      </trkpt>
      <trkpt lat="45.13908" lon="5.92386">
        <ele>1876.4</ele>
        <time>2020-08-11T06:44:33Z</time>
      </trkpt>
      <trkpt lat="45.13908" lon="5.92386">
        <ele>1876.6</ele>
        <time>2020-08-11T06:44:34Z</time>
      </trkpt>
      <trkpt lat="45.13908" lon="5.92387">
        <ele>1876.8</ele>
        <time>2020-08-11T06:44:35Z</time>
      </trkpt>
      <trkpt lat="45.13909" lon="5.92388">
        <ele>1877</ele>
        <time>2020-08-11T06:44:36Z</time>
      </trkpt>
      <trkpt lat="45.13909" lon="5.92389">
        <ele>1877.4</ele>
        <time>2020-08-11T06:44:37Z</time>
      </trkpt>
      <trkpt lat="45.13909" lon="5.9239">
        <ele>1877.4</ele>
        <time>2020-08-11T06:44:38Z</time>
      </trkpt>
      <trkpt lat="45.13909" lon="5.92391">
        <ele>1877.4</ele>
        <time>2020-08-11T06:44:39Z</time>
      </trkpt>
      <trkpt lat="45.13909" lon="5.92391">
        <ele>1877.8</ele>
        <time>2020-08-11T06:44:40Z</time>
      </trkpt>
      <trkpt lat="45.13909" lon="5.92392">
        <ele>1878.2</ele>
        <time>2020-08-11T06:44:41Z</time>
      </trkpt>
      <trkpt lat="45.13909" lon="5.92393">
        <ele>1878.4</ele>
        <time>2020-08-11T06:44:42Z</time>
      </trkpt>
      <trkpt lat="45.13909" lon="5.92394">
        <ele>1878.8</ele>
        <time>2020-08-11T06:44:43Z</time>
      </trkpt>
      <trkpt lat="45.1391" lon="5.92395">
        <ele>1878.8</ele>
        <time>2020-08-11T06:44:44Z</time>
      </trkpt>
      <trkpt lat="45.1391" lon="5.92396">
        <ele>1879</ele>
        <time>2020-08-11T06:44:45Z</time>
      </trkpt>
      <trkpt lat="45.1391" lon="5.92397">
        <ele>1879.2</ele>
        <time>2020-08-11T06:44:46Z</time>
      </trkpt>
      <trkpt lat="45.1391" lon="5.92397">
        <ele>1879.4</ele>
        <time>2020-08-11T06:44:47Z</time>
      </trkpt>
      <trkpt lat="45.1391" lon="5.92398">
        <ele>1879.6</ele>
        <time>2020-08-11T06:44:48Z</time>
      </trkpt>
      <trkpt lat="45.1391" lon="5.92398">
        <ele>1880</ele>
        <time>2020-08-11T06:44:49Z</time>
      </trkpt>
      <trkpt lat="45.13911" lon="5.92398">
        <ele>1880.2</ele>
        <time>2020-08-11T06:44:50Z</time>
      </trkpt>
      <trkpt lat="45.13911" lon="5.92399">
        <ele>1880.4</ele>
        <time>2020-08-11T06:44:51Z</time>
      </trkpt>
      <trkpt lat="45.13911" lon="5.92399">
        <ele>1880.8</ele>
        <time>2020-08-11T06:44:52Z</time>
      </trkpt>
      <trkpt lat="45.13911" lon="5.92399">
        <ele>1881</ele>
        <time>2020-08-11T06:44:53Z</time>
      </trkpt>
      <trkpt lat="45.13912" lon="5.924">
        <ele>1881.2</ele>
        <time>2020-08-11T06:44:54Z</time>
      </trkpt>
      <trkpt lat="45.13912" lon="5.924">
        <ele>1881.4</ele>
        <time>2020-08-11T06:44:55Z</time>
      </trkpt>
      <trkpt lat="45.13912" lon="5.924">
        <ele>1882</ele>
        <time>2020-08-11T06:44:56Z</time>
      </trkpt>
      <trkpt lat="45.13912" lon="5.924">
        <ele>1882.2</ele>
        <time>2020-08-11T06:44:57Z</time>
      </trkpt>
      <trkpt lat="45.13913" lon="5.92401">
        <ele>1882.2</ele>
        <time>2020-08-11T06:44:58Z</time>
      </trkpt>
      <trkpt lat="45.13913" lon="5.92401">
        <ele>1882.6</ele>
        <time>2020-08-11T06:44:59Z</time>
      </trkpt>
      <trkpt lat="45.13913" lon="5.92401">
        <ele>1882.8</ele>
        <time>2020-08-11T06:45:00Z</time>
      </trkpt>
      <trkpt lat="45.13913" lon="5.92402">
        <ele>1883</ele>
        <time>2020-08-11T06:45:01Z</time>
      </trkpt>
      <trkpt lat="45.13914" lon="5.92402">
        <ele>1883.2</ele>
        <time>2020-08-11T06:45:02Z</time>
      </trkpt>
      <trkpt lat="45.13914" lon="5.92402">
        <ele>1883.2</ele>
        <time>2020-08-11T06:45:03Z</time>
      </trkpt>
      <trkpt lat="45.13914" lon="5.92403">
        <ele>1883.4</ele>
        <time>2020-08-11T06:45:04Z</time>
      </trkpt>
      <trkpt lat="45.13914" lon="5.92403">
        <ele>1883.6</ele>
        <time>2020-08-11T06:45:05Z</time>
      </trkpt>
      <trkpt lat="45.13915" lon="5.92403">
        <ele>1884</ele>
        <time>2020-08-11T06:45:06Z</time>
      </trkpt>
      <trkpt lat="45.13915" lon="5.92404">
        <ele>1884.2</ele>
        <time>2020-08-11T06:45:07Z</time>
      </trkpt>
      <trkpt lat="45.13915" lon="5.92404">
        <ele>1884.4</ele>
        <time>2020-08-11T06:45:08Z</time>
      </trkpt>
      <trkpt lat="45.13915" lon="5.92404">
        <ele>1884.6</ele>
        <time>2020-08-11T06:45:09Z</time>
      </trkpt>
      <trkpt lat="45.13916" lon="5.92404">
        <ele>1885</ele>
        <time>2020-08-11T06:45:10Z</time>
      </trkpt>
      <trkpt lat="45.13916" lon="5.92405">
        <ele>1885.4</ele>
        <time>2020-08-11T06:45:11Z</time>
      </trkpt>
      <trkpt lat="45.13916" lon="5.92405">
        <ele>1885.6</ele>
        <time>2020-08-11T06:45:12Z</time>
      </trkpt>
      <trkpt lat="45.13916" lon="5.92405">
        <ele>1885.8</ele>
        <time>2020-08-11T06:45:13Z</time>
      </trkpt>
      <trkpt lat="45.13917" lon="5.92406">
        <ele>1886.2</ele>
        <time>2020-08-11T06:45:14Z</time>
      </trkpt>
      <trkpt lat="45.13917" lon="5.92406">
        <ele>1886.2</ele>
        <time>2020-08-11T06:45:15Z</time>
      </trkpt>
      <trkpt lat="45.13918" lon="5.92407">
        <ele>1886.2</ele>
        <time>2020-08-11T06:45:16Z</time>
      </trkpt>
      <trkpt lat="45.13919" lon="5.92408">
        <ele>1886.4</ele>
        <time>2020-08-11T06:45:17Z</time>
      </trkpt>
      <trkpt lat="45.1392" lon="5.92409">
        <ele>1886.6</ele>
        <time>2020-08-11T06:45:18Z</time>
      </trkpt>
      <trkpt lat="45.13921" lon="5.92409">
        <ele>1887</ele>
        <time>2020-08-11T06:45:19Z</time>
      </trkpt>
      <trkpt lat="45.13921" lon="5.9241">
        <ele>1887</ele>
        <time>2020-08-11T06:45:20Z</time>
      </trkpt>
      <trkpt lat="45.13922" lon="5.92411">
        <ele>1887.2</ele>
        <time>2020-08-11T06:45:21Z</time>
      </trkpt>
      <trkpt lat="45.13923" lon="5.92412">
        <ele>1887.4</ele>
        <time>2020-08-11T06:45:22Z</time>
      </trkpt>
      <trkpt lat="45.13924" lon="5.92413">
        <ele>1887.6</ele>
        <time>2020-08-11T06:45:23Z</time>
      </trkpt>
      <trkpt lat="45.13925" lon="5.92414">
        <ele>1887.8</ele>
        <time>2020-08-11T06:45:24Z</time>
      </trkpt>
      <trkpt lat="45.13926" lon="5.92415">
        <ele>1888.2</ele>
        <time>2020-08-11T06:45:25Z</time>
      </trkpt>
      <trkpt lat="45.13927" lon="5.92416">
        <ele>1888.2</ele>
        <time>2020-08-11T06:45:26Z</time>
      </trkpt>
      <trkpt lat="45.13928" lon="5.92415">
        <ele>1888.4</ele>
        <time>2020-08-11T06:45:27Z</time>
      </trkpt>
      <trkpt lat="45.13929" lon="5.92415">
        <ele>1888.6</ele>
        <time>2020-08-11T06:45:28Z</time>
      </trkpt>
      <trkpt lat="45.1393" lon="5.92415">
        <ele>1889</ele>
        <time>2020-08-11T06:45:29Z</time>
      </trkpt>
      <trkpt lat="45.13931" lon="5.92415">
        <ele>1889.2</ele>
        <time>2020-08-11T06:45:30Z</time>
      </trkpt>
      <trkpt lat="45.13932" lon="5.92415">
        <ele>1889.4</ele>
        <time>2020-08-11T06:45:31Z</time>
      </trkpt>
      <trkpt lat="45.13933" lon="5.92415">
        <ele>1889.8</ele>
        <time>2020-08-11T06:45:32Z</time>
      </trkpt>
      <trkpt lat="45.13934" lon="5.92415">
        <ele>1890</ele>
        <time>2020-08-11T06:45:33Z</time>
      </trkpt>
      <trkpt lat="45.13935" lon="5.92414">
        <ele>1890.2</ele>
        <time>2020-08-11T06:45:34Z</time>
      </trkpt>
      <trkpt lat="45.13936" lon="5.92414">
        <ele>1890.6</ele>
        <time>2020-08-11T06:45:35Z</time>
      </trkpt>
      <trkpt lat="45.13937" lon="5.92414">
        <ele>1890.6</ele>
        <time>2020-08-11T06:45:36Z</time>
      </trkpt>
      <trkpt lat="45.13937" lon="5.92415">
        <ele>1891</ele>
        <time>2020-08-11T06:45:37Z</time>
      </trkpt>
      <trkpt lat="45.13938" lon="5.92415">
        <ele>1891.2</ele>
        <time>2020-08-11T06:45:38Z</time>
      </trkpt>
      <trkpt lat="45.13938" lon="5.92415">
        <ele>1891.6</ele>
        <time>2020-08-11T06:45:39Z</time>
      </trkpt>
      <trkpt lat="45.13939" lon="5.92415">
        <ele>1891.8</ele>
        <time>2020-08-11T06:45:40Z</time>
      </trkpt>
      <trkpt lat="45.13939" lon="5.92415">
        <ele>1892.4</ele>
        <time>2020-08-11T06:45:41Z</time>
      </trkpt>
      <trkpt lat="45.1394" lon="5.92416">
        <ele>1892.4</ele>
        <time>2020-08-11T06:45:42Z</time>
      </trkpt>
      <trkpt lat="45.1394" lon="5.92416">
        <ele>1892.8</ele>
        <time>2020-08-11T06:45:43Z</time>
      </trkpt>
      <trkpt lat="45.13941" lon="5.92416">
        <ele>1893.2</ele>
        <time>2020-08-11T06:45:44Z</time>
      </trkpt>
      <trkpt lat="45.13941" lon="5.92416">
        <ele>1893.4</ele>
        <time>2020-08-11T06:45:45Z</time>
      </trkpt>
      <trkpt lat="45.13942" lon="5.92416">
        <ele>1893.8</ele>
        <time>2020-08-11T06:45:46Z</time>
      </trkpt>
      <trkpt lat="45.13942" lon="5.92417">
        <ele>1894</ele>
        <time>2020-08-11T06:45:47Z</time>
      </trkpt>
      <trkpt lat="45.13943" lon="5.92417">
        <ele>1894.4</ele>
        <time>2020-08-11T06:45:48Z</time>
      </trkpt>
      <trkpt lat="45.13943" lon="5.92417">
        <ele>1894.6</ele>
        <time>2020-08-11T06:45:49Z</time>
      </trkpt>
      <trkpt lat="45.13944" lon="5.92417">
        <ele>1894.8</ele>
        <time>2020-08-11T06:45:50Z</time>
      </trkpt>
      <trkpt lat="45.13945" lon="5.92417">
        <ele>1895</ele>
        <time>2020-08-11T06:45:51Z</time>
      </trkpt>
      <trkpt lat="45.13945" lon="5.92417">
        <ele>1895</ele>
        <time>2020-08-11T06:45:52Z</time>
      </trkpt>
      <trkpt lat="45.13946" lon="5.92418">
        <ele>1895</ele>
        <time>2020-08-11T06:45:53Z</time>
      </trkpt>
      <trkpt lat="45.13945" lon="5.92418">
        <ele>1895.4</ele>
        <time>2020-08-11T06:45:54Z</time>
      </trkpt>
      <trkpt lat="45.13945" lon="5.92419">
        <ele>1895.6</ele>
        <time>2020-08-11T06:45:55Z</time>
      </trkpt>
      <trkpt lat="45.13945" lon="5.92419">
        <ele>1896.4</ele>
        <time>2020-08-11T06:45:56Z</time>
      </trkpt>
      <trkpt lat="45.13944" lon="5.9242">
        <ele>1896.8</ele>
        <time>2020-08-11T06:45:57Z</time>
      </trkpt>
      <trkpt lat="45.13944" lon="5.92421">
        <ele>1896.8</ele>
        <time>2020-08-11T06:45:58Z</time>
      </trkpt>
      <trkpt lat="45.13944" lon="5.92421">
        <ele>1896.8</ele>
        <time>2020-08-11T06:45:59Z</time>
      </trkpt>
      <trkpt lat="45.13944" lon="5.92422">
        <ele>1896.8</ele>
        <time>2020-08-11T06:46:00Z</time>
      </trkpt>
      <trkpt lat="45.13943" lon="5.92422">
        <ele>1897.2</ele>
        <time>2020-08-11T06:46:01Z</time>
      </trkpt>
      <trkpt lat="45.13943" lon="5.92423">
        <ele>1897.4</ele>
        <time>2020-08-11T06:46:02Z</time>
      </trkpt>
      <trkpt lat="45.13943" lon="5.92424">
        <ele>1897.6</ele>
        <time>2020-08-11T06:46:03Z</time>
      </trkpt>
      <trkpt lat="45.13942" lon="5.92424">
        <ele>1897.8</ele>
        <time>2020-08-11T06:46:04Z</time>
      </trkpt>
      <trkpt lat="45.13942" lon="5.92425">
        <ele>1898</ele>
        <time>2020-08-11T06:46:05Z</time>
      </trkpt>
      <trkpt lat="45.13942" lon="5.92425">
        <ele>1898.2</ele>
        <time>2020-08-11T06:46:06Z</time>
      </trkpt>
      <trkpt lat="45.13942" lon="5.92426">
        <ele>1898.6</ele>
        <time>2020-08-11T06:46:07Z</time>
      </trkpt>
      <trkpt lat="45.13941" lon="5.92426">
        <ele>1898.8</ele>
        <time>2020-08-11T06:46:08Z</time>
      </trkpt>
      <trkpt lat="45.13941" lon="5.92427">
        <ele>1899</ele>
        <time>2020-08-11T06:46:09Z</time>
      </trkpt>
      <trkpt lat="45.13941" lon="5.92428">
        <ele>1899.2</ele>
        <time>2020-08-11T06:46:10Z</time>
      </trkpt>
      <trkpt lat="45.1394" lon="5.92428">
        <ele>1899.6</ele>
        <time>2020-08-11T06:46:11Z</time>
      </trkpt>
      <trkpt lat="45.1394" lon="5.92429">
        <ele>1899.4</ele>
        <time>2020-08-11T06:46:12Z</time>
      </trkpt>
      <trkpt lat="45.1394" lon="5.92429">
        <ele>1899.8</ele>
        <time>2020-08-11T06:46:13Z</time>
      </trkpt>
      <trkpt lat="45.1394" lon="5.9243">
        <ele>1900</ele>
        <time>2020-08-11T06:46:14Z</time>
      </trkpt>
      <trkpt lat="45.13939" lon="5.92431">
        <ele>1900</ele>
        <time>2020-08-11T06:46:15Z</time>
      </trkpt>
      <trkpt lat="45.13939" lon="5.92431">
        <ele>1900.2</ele>
        <time>2020-08-11T06:46:16Z</time>
      </trkpt>
      <trkpt lat="45.13938" lon="5.92432">
        <ele>1900.6</ele>
        <time>2020-08-11T06:46:17Z</time>
      </trkpt>
      <trkpt lat="45.13938" lon="5.92433">
        <ele>1900.6</ele>
        <time>2020-08-11T06:46:18Z</time>
      </trkpt>
      <trkpt lat="45.13937" lon="5.92433">
        <ele>1900.8</ele>
        <time>2020-08-11T06:46:19Z</time>
      </trkpt>
      <trkpt lat="45.13937" lon="5.92434">
        <ele>1901</ele>
        <time>2020-08-11T06:46:20Z</time>
      </trkpt>
      <trkpt lat="45.13936" lon="5.92435">
        <ele>1901.2</ele>
        <time>2020-08-11T06:46:21Z</time>
      </trkpt>
      <trkpt lat="45.13936" lon="5.92436">
        <ele>1901.6</ele>
        <time>2020-08-11T06:46:22Z</time>
      </trkpt>
      <trkpt lat="45.13935" lon="5.92436">
        <ele>1901.8</ele>
        <time>2020-08-11T06:46:23Z</time>
      </trkpt>
      <trkpt lat="45.13935" lon="5.92437">
        <ele>1901.8</ele>
        <time>2020-08-11T06:46:24Z</time>
      </trkpt>
      <trkpt lat="45.13934" lon="5.92438">
        <ele>1902.2</ele>
        <time>2020-08-11T06:46:25Z</time>
      </trkpt>
      <trkpt lat="45.13934" lon="5.92438">
        <ele>1902.4</ele>
        <time>2020-08-11T06:46:26Z</time>
      </trkpt>
      <trkpt lat="45.13933" lon="5.92439">
        <ele>1902.8</ele>
        <time>2020-08-11T06:46:27Z</time>
      </trkpt>
      <trkpt lat="45.13933" lon="5.9244">
        <ele>1903</ele>
        <time>2020-08-11T06:46:28Z</time>
      </trkpt>
      <trkpt lat="45.13933" lon="5.9244">
        <ele>1903.4</ele>
        <time>2020-08-11T06:46:29Z</time>
      </trkpt>
      <trkpt lat="45.13933" lon="5.92441">
        <ele>1903.4</ele>
        <time>2020-08-11T06:46:30Z</time>
      </trkpt>
      <trkpt lat="45.13933" lon="5.92441">
        <ele>1903.8</ele>
        <time>2020-08-11T06:46:31Z</time>
      </trkpt>
      <trkpt lat="45.13933" lon="5.92442">
        <ele>1904</ele>
        <time>2020-08-11T06:46:32Z</time>
      </trkpt>
      <trkpt lat="45.13933" lon="5.92443">
        <ele>1904</ele>
        <time>2020-08-11T06:46:33Z</time>
      </trkpt>
      <trkpt lat="45.13933" lon="5.92443">
        <ele>1904.6</ele>
        <time>2020-08-11T06:46:34Z</time>
      </trkpt>
      <trkpt lat="45.13934" lon="5.92444">
        <ele>1904.8</ele>
        <time>2020-08-11T06:46:35Z</time>
      </trkpt>
      <trkpt lat="45.13934" lon="5.92444">
        <ele>1905</ele>
        <time>2020-08-11T06:46:36Z</time>
      </trkpt>
      <trkpt lat="45.13934" lon="5.92445">
        <ele>1905.2</ele>
        <time>2020-08-11T06:46:37Z</time>
      </trkpt>
      <trkpt lat="45.13934" lon="5.92445">
        <ele>1905.6</ele>
        <time>2020-08-11T06:46:38Z</time>
      </trkpt>
      <trkpt lat="45.13934" lon="5.92446">
        <ele>1905.8</ele>
        <time>2020-08-11T06:46:39Z</time>
      </trkpt>
      <trkpt lat="45.13934" lon="5.92446">
        <ele>1906.2</ele>
        <time>2020-08-11T06:46:40Z</time>
      </trkpt>
      <trkpt lat="45.13934" lon="5.92447">
        <ele>1906.4</ele>
        <time>2020-08-11T06:46:41Z</time>
      </trkpt>
      <trkpt lat="45.13934" lon="5.92447">
        <ele>1906.6</ele>
        <time>2020-08-11T06:46:42Z</time>
      </trkpt>
      <trkpt lat="45.13934" lon="5.92448">
        <ele>1906.8</ele>
        <time>2020-08-11T06:46:43Z</time>
      </trkpt>
      <trkpt lat="45.13935" lon="5.92449">
        <ele>1907</ele>
        <time>2020-08-11T06:46:44Z</time>
      </trkpt>
      <trkpt lat="45.13935" lon="5.92449">
        <ele>1907.2</ele>
        <time>2020-08-11T06:46:45Z</time>
      </trkpt>
      <trkpt lat="45.13935" lon="5.9245">
        <ele>1907.4</ele>
        <time>2020-08-11T06:46:46Z</time>
      </trkpt>
      <trkpt lat="45.13935" lon="5.9245">
        <ele>1907.6</ele>
        <time>2020-08-11T06:46:47Z</time>
      </trkpt>
      <trkpt lat="45.13935" lon="5.92451">
        <ele>1907.8</ele>
        <time>2020-08-11T06:46:48Z</time>
      </trkpt>
      <trkpt lat="45.13935" lon="5.92451">
        <ele>1908.2</ele>
        <time>2020-08-11T06:46:49Z</time>
      </trkpt>
      <trkpt lat="45.13935" lon="5.92452">
        <ele>1908.4</ele>
        <time>2020-08-11T06:46:50Z</time>
      </trkpt>
      <trkpt lat="45.13935" lon="5.92452">
        <ele>1908.2</ele>
        <time>2020-08-11T06:46:51Z</time>
      </trkpt>
      <trkpt lat="45.13935" lon="5.92453">
        <ele>1908.4</ele>
        <time>2020-08-11T06:46:52Z</time>
      </trkpt>
      <trkpt lat="45.13935" lon="5.92453">
        <ele>1908.4</ele>
        <time>2020-08-11T06:46:53Z</time>
      </trkpt>
      <trkpt lat="45.13935" lon="5.92455">
        <ele>1908.8</ele>
        <time>2020-08-11T06:46:54Z</time>
      </trkpt>
      <trkpt lat="45.13934" lon="5.92457">
        <ele>1908.8</ele>
        <time>2020-08-11T06:46:55Z</time>
      </trkpt>
      <trkpt lat="45.13933" lon="5.92459">
        <ele>1908.8</ele>
        <time>2020-08-11T06:46:56Z</time>
      </trkpt>
      <trkpt lat="45.13932" lon="5.92461">
        <ele>1909</ele>
        <time>2020-08-11T06:46:57Z</time>
      </trkpt>
      <trkpt lat="45.13931" lon="5.92462">
        <ele>1909</ele>
        <time>2020-08-11T06:46:58Z</time>
      </trkpt>
      <trkpt lat="45.1393" lon="5.92464">
        <ele>1909.4</ele>
        <time>2020-08-11T06:46:59Z</time>
      </trkpt>
      <trkpt lat="45.13929" lon="5.92465">
        <ele>1909.4</ele>
        <time>2020-08-11T06:47:00Z</time>
      </trkpt>
      <trkpt lat="45.13928" lon="5.92466">
        <ele>1909.6</ele>
        <time>2020-08-11T06:47:01Z</time>
      </trkpt>
      <trkpt lat="45.13928" lon="5.92466">
        <ele>1909.8</ele>
        <time>2020-08-11T06:47:02Z</time>
      </trkpt>
      <trkpt lat="45.13927" lon="5.92467">
        <ele>1910.2</ele>
        <time>2020-08-11T06:47:03Z</time>
      </trkpt>
      <trkpt lat="45.13926" lon="5.92468">
        <ele>1910.2</ele>
        <time>2020-08-11T06:47:04Z</time>
      </trkpt>
      <trkpt lat="45.13925" lon="5.92469">
        <ele>1910.6</ele>
        <time>2020-08-11T06:47:05Z</time>
      </trkpt>
      <trkpt lat="45.13925" lon="5.9247">
        <ele>1911</ele>
        <time>2020-08-11T06:47:06Z</time>
      </trkpt>
      <trkpt lat="45.13924" lon="5.9247">
        <ele>1911.2</ele>
        <time>2020-08-11T06:47:07Z</time>
      </trkpt>
      <trkpt lat="45.13923" lon="5.92471">
        <ele>1911.2</ele>
        <time>2020-08-11T06:47:08Z</time>
      </trkpt>
      <trkpt lat="45.13922" lon="5.92472">
        <ele>1911.4</ele>
        <time>2020-08-11T06:47:09Z</time>
      </trkpt>
      <trkpt lat="45.13922" lon="5.92473">
        <ele>1911.6</ele>
        <time>2020-08-11T06:47:10Z</time>
      </trkpt>
      <trkpt lat="45.13921" lon="5.92473">
        <ele>1911.6</ele>
        <time>2020-08-11T06:47:11Z</time>
      </trkpt>
      <trkpt lat="45.13922" lon="5.92474">
        <ele>1911.8</ele>
        <time>2020-08-11T06:47:12Z</time>
      </trkpt>
      <trkpt lat="45.13923" lon="5.92475">
        <ele>1912.2</ele>
        <time>2020-08-11T06:47:13Z</time>
      </trkpt>
      <trkpt lat="45.13923" lon="5.92476">
        <ele>1912.6</ele>
        <time>2020-08-11T06:47:14Z</time>
      </trkpt>
      <trkpt lat="45.13924" lon="5.92477">
        <ele>1912.8</ele>
        <time>2020-08-11T06:47:15Z</time>
      </trkpt>
      <trkpt lat="45.13925" lon="5.92478">
        <ele>1913</ele>
        <time>2020-08-11T06:47:16Z</time>
      </trkpt>
      <trkpt lat="45.13926" lon="5.92479">
        <ele>1913.2</ele>
        <time>2020-08-11T06:47:17Z</time>
      </trkpt>
      <trkpt lat="45.13927" lon="5.92479">
        <ele>1913.6</ele>
        <time>2020-08-11T06:47:18Z</time>
      </trkpt>
      <trkpt lat="45.13928" lon="5.9248">
        <ele>1913.8</ele>
        <time>2020-08-11T06:47:19Z</time>
      </trkpt>
      <trkpt lat="45.13928" lon="5.92481">
        <ele>1914</ele>
        <time>2020-08-11T06:47:20Z</time>
      </trkpt>
      <trkpt lat="45.13929" lon="5.92482">
        <ele>1914.2</ele>
        <time>2020-08-11T06:47:21Z</time>
      </trkpt>
      <trkpt lat="45.1393" lon="5.92483">
        <ele>1914.6</ele>
        <time>2020-08-11T06:47:22Z</time>
      </trkpt>
      <trkpt lat="45.13931" lon="5.92484">
        <ele>1914.4</ele>
        <time>2020-08-11T06:47:23Z</time>
      </trkpt>
      <trkpt lat="45.13932" lon="5.92485">
        <ele>1914.6</ele>
        <time>2020-08-11T06:47:24Z</time>
      </trkpt>
      <trkpt lat="45.13933" lon="5.92486">
        <ele>1915</ele>
        <time>2020-08-11T06:47:25Z</time>
      </trkpt>
      <trkpt lat="45.13934" lon="5.92487">
        <ele>1915</ele>
        <time>2020-08-11T06:47:26Z</time>
      </trkpt>
      <trkpt lat="45.13934" lon="5.92488">
        <ele>1915.2</ele>
        <time>2020-08-11T06:47:27Z</time>
      </trkpt>
      <trkpt lat="45.13935" lon="5.92489">
        <ele>1915.6</ele>
        <time>2020-08-11T06:47:28Z</time>
      </trkpt>
      <trkpt lat="45.13936" lon="5.9249">
        <ele>1915.6</ele>
        <time>2020-08-11T06:47:29Z</time>
      </trkpt>
      <trkpt lat="45.13937" lon="5.92491">
        <ele>1915.8</ele>
        <time>2020-08-11T06:47:30Z</time>
      </trkpt>
      <trkpt lat="45.13938" lon="5.92492">
        <ele>1916.2</ele>
        <time>2020-08-11T06:47:31Z</time>
      </trkpt>
      <trkpt lat="45.13938" lon="5.92493">
        <ele>1916.6</ele>
        <time>2020-08-11T06:47:32Z</time>
      </trkpt>
      <trkpt lat="45.13938" lon="5.92493">
        <ele>1916.8</ele>
        <time>2020-08-11T06:47:33Z</time>
      </trkpt>
      <trkpt lat="45.13938" lon="5.92494">
        <ele>1917.2</ele>
        <time>2020-08-11T06:47:34Z</time>
      </trkpt>
      <trkpt lat="45.13939" lon="5.92494">
        <ele>1917.6</ele>
        <time>2020-08-11T06:47:35Z</time>
      </trkpt>
      <trkpt lat="45.13939" lon="5.92495">
        <ele>1917.8</ele>
        <time>2020-08-11T06:47:36Z</time>
      </trkpt>
      <trkpt lat="45.13939" lon="5.92495">
        <ele>1918.2</ele>
        <time>2020-08-11T06:47:37Z</time>
      </trkpt>
      <trkpt lat="45.13939" lon="5.92496">
        <ele>1918.4</ele>
        <time>2020-08-11T06:47:38Z</time>
      </trkpt>
      <trkpt lat="45.13939" lon="5.92496">
        <ele>1918.6</ele>
        <time>2020-08-11T06:47:39Z</time>
      </trkpt>
      <trkpt lat="45.1394" lon="5.92497">
        <ele>1919</ele>
        <time>2020-08-11T06:47:40Z</time>
      </trkpt>
      <trkpt lat="45.1394" lon="5.92497">
        <ele>1919.2</ele>
        <time>2020-08-11T06:47:41Z</time>
      </trkpt>
      <trkpt lat="45.1394" lon="5.92498">
        <ele>1919.6</ele>
        <time>2020-08-11T06:47:42Z</time>
      </trkpt>
      <trkpt lat="45.1394" lon="5.92498">
        <ele>1919.8</ele>
        <time>2020-08-11T06:47:43Z</time>
      </trkpt>
      <trkpt lat="45.1394" lon="5.92499">
        <ele>1920</ele>
        <time>2020-08-11T06:47:44Z</time>
      </trkpt>
      <trkpt lat="45.13941" lon="5.92499">
        <ele>1920.2</ele>
        <time>2020-08-11T06:47:45Z</time>
      </trkpt>
      <trkpt lat="45.13941" lon="5.925">
        <ele>1920.8</ele>
        <time>2020-08-11T06:47:46Z</time>
      </trkpt>
      <trkpt lat="45.13941" lon="5.925">
        <ele>1921.4</ele>
        <time>2020-08-11T06:47:47Z</time>
      </trkpt>
      <trkpt lat="45.13941" lon="5.92501">
        <ele>1921.8</ele>
        <time>2020-08-11T06:47:48Z</time>
      </trkpt>
      <trkpt lat="45.13941" lon="5.92501">
        <ele>1921.8</ele>
        <time>2020-08-11T06:47:49Z</time>
      </trkpt>
      <trkpt lat="45.13942" lon="5.92502">
        <ele>1922</ele>
        <time>2020-08-11T06:47:50Z</time>
      </trkpt>
      <trkpt lat="45.13942" lon="5.92502">
        <ele>1922.4</ele>
        <time>2020-08-11T06:47:51Z</time>
      </trkpt>
      <trkpt lat="45.13942" lon="5.92503">
        <ele>1922.6</ele>
        <time>2020-08-11T06:47:52Z</time>
      </trkpt>
      <trkpt lat="45.13942" lon="5.92503">
        <ele>1922.8</ele>
        <time>2020-08-11T06:47:53Z</time>
      </trkpt>
      <trkpt lat="45.13942" lon="5.92504">
        <ele>1923.2</ele>
        <time>2020-08-11T06:47:54Z</time>
      </trkpt>
      <trkpt lat="45.13942" lon="5.92505">
        <ele>1923.6</ele>
        <time>2020-08-11T06:47:55Z</time>
      </trkpt>
      <trkpt lat="45.13943" lon="5.92505">
        <ele>1923.4</ele>
        <time>2020-08-11T06:47:56Z</time>
      </trkpt>
      <trkpt lat="45.13943" lon="5.92506">
        <ele>1923.6</ele>
        <time>2020-08-11T06:47:57Z</time>
      </trkpt>
      <trkpt lat="45.13943" lon="5.92507">
        <ele>1924</ele>
        <time>2020-08-11T06:47:58Z</time>
      </trkpt>
      <trkpt lat="45.13943" lon="5.92507">
        <ele>1924.2</ele>
        <time>2020-08-11T06:47:59Z</time>
      </trkpt>
      <trkpt lat="45.13943" lon="5.92508">
        <ele>1924.4</ele>
        <time>2020-08-11T06:48:00Z</time>
      </trkpt>
      <trkpt lat="45.13943" lon="5.92509">
        <ele>1924.4</ele>
        <time>2020-08-11T06:48:01Z</time>
      </trkpt>
      <trkpt lat="45.13943" lon="5.92509">
        <ele>1924.6</ele>
        <time>2020-08-11T06:48:02Z</time>
      </trkpt>
      <trkpt lat="45.13944" lon="5.9251">
        <ele>1925</ele>
        <time>2020-08-11T06:48:03Z</time>
      </trkpt>
      <trkpt lat="45.13944" lon="5.9251">
        <ele>1925.2</ele>
        <time>2020-08-11T06:48:04Z</time>
      </trkpt>
      <trkpt lat="45.13944" lon="5.92511">
        <ele>1925.4</ele>
        <time>2020-08-11T06:48:05Z</time>
      </trkpt>
      <trkpt lat="45.13944" lon="5.92512">
        <ele>1925.6</ele>
        <time>2020-08-11T06:48:06Z</time>
      </trkpt>
      <trkpt lat="45.13944" lon="5.92512">
        <ele>1925.8</ele>
        <time>2020-08-11T06:48:07Z</time>
      </trkpt>
      <trkpt lat="45.13944" lon="5.92513">
        <ele>1926.2</ele>
        <time>2020-08-11T06:48:08Z</time>
      </trkpt>
      <trkpt lat="45.13944" lon="5.92514">
        <ele>1926.4</ele>
        <time>2020-08-11T06:48:09Z</time>
      </trkpt>
      <trkpt lat="45.13945" lon="5.92514">
        <ele>1926.6</ele>
        <time>2020-08-11T06:48:10Z</time>
      </trkpt>
      <trkpt lat="45.13945" lon="5.92515">
        <ele>1926.6</ele>
        <time>2020-08-11T06:48:11Z</time>
      </trkpt>
      <trkpt lat="45.13945" lon="5.92516">
        <ele>1927</ele>
        <time>2020-08-11T06:48:12Z</time>
      </trkpt>
      <trkpt lat="45.13945" lon="5.92516">
        <ele>1927.4</ele>
        <time>2020-08-11T06:48:13Z</time>
      </trkpt>
      <trkpt lat="45.13946" lon="5.92518">
        <ele>1927.4</ele>
        <time>2020-08-11T06:48:14Z</time>
      </trkpt>
      <trkpt lat="45.13946" lon="5.92519">
        <ele>1927.6</ele>
        <time>2020-08-11T06:48:15Z</time>
      </trkpt>
      <trkpt lat="45.13947" lon="5.92521">
        <ele>1927.6</ele>
        <time>2020-08-11T06:48:16Z</time>
      </trkpt>
      <trkpt lat="45.13948" lon="5.92522">
        <ele>1928</ele>
        <time>2020-08-11T06:48:17Z</time>
      </trkpt>
      <trkpt lat="45.13949" lon="5.92524">
        <ele>1928.4</ele>
        <time>2020-08-11T06:48:18Z</time>
      </trkpt>
      <trkpt lat="45.1395" lon="5.92526">
        <ele>1928.8</ele>
        <time>2020-08-11T06:48:19Z</time>
      </trkpt>
      <trkpt lat="45.1395" lon="5.92527">
        <ele>1928.8</ele>
        <time>2020-08-11T06:48:20Z</time>
      </trkpt>
      <trkpt lat="45.1395" lon="5.92526">
        <ele>1929.2</ele>
        <time>2020-08-11T06:48:21Z</time>
      </trkpt>
      <trkpt lat="45.13951" lon="5.92526">
        <ele>1929.2</ele>
        <time>2020-08-11T06:48:22Z</time>
      </trkpt>
      <trkpt lat="45.13951" lon="5.92525">
        <ele>1929.8</ele>
        <time>2020-08-11T06:48:23Z</time>
      </trkpt>
      <trkpt lat="45.13951" lon="5.92524">
        <ele>1930.6</ele>
        <time>2020-08-11T06:48:24Z</time>
      </trkpt>
      <trkpt lat="45.13951" lon="5.92524">
        <ele>1930.8</ele>
        <time>2020-08-11T06:48:25Z</time>
      </trkpt>
      <trkpt lat="45.13951" lon="5.92523">
        <ele>1930.8</ele>
        <time>2020-08-11T06:48:26Z</time>
      </trkpt>
      <trkpt lat="45.13951" lon="5.92522">
        <ele>1930.8</ele>
        <time>2020-08-11T06:48:27Z</time>
      </trkpt>
      <trkpt lat="45.13951" lon="5.92521">
        <ele>1931.2</ele>
        <time>2020-08-11T06:48:28Z</time>
      </trkpt>
      <trkpt lat="45.13952" lon="5.92521">
        <ele>1931.4</ele>
        <time>2020-08-11T06:48:29Z</time>
      </trkpt>
      <trkpt lat="45.13952" lon="5.9252">
        <ele>1931.6</ele>
        <time>2020-08-11T06:48:30Z</time>
      </trkpt>
      <trkpt lat="45.13952" lon="5.92519">
        <ele>1932</ele>
        <time>2020-08-11T06:48:31Z</time>
      </trkpt>
      <trkpt lat="45.13952" lon="5.92518">
        <ele>1932.2</ele>
        <time>2020-08-11T06:48:32Z</time>
      </trkpt>
      <trkpt lat="45.13952" lon="5.92518">
        <ele>1932.4</ele>
        <time>2020-08-11T06:48:33Z</time>
      </trkpt>
      <trkpt lat="45.13952" lon="5.92517">
        <ele>1932.6</ele>
        <time>2020-08-11T06:48:34Z</time>
      </trkpt>
      <trkpt lat="45.13952" lon="5.92516">
        <ele>1932.8</ele>
        <time>2020-08-11T06:48:35Z</time>
      </trkpt>
      <trkpt lat="45.13953" lon="5.92516">
        <ele>1933</ele>
        <time>2020-08-11T06:48:36Z</time>
      </trkpt>
      <trkpt lat="45.13953" lon="5.92515">
        <ele>1933.2</ele>
        <time>2020-08-11T06:48:37Z</time>
      </trkpt>
      <trkpt lat="45.13953" lon="5.92514">
        <ele>1933.4</ele>
        <time>2020-08-11T06:48:38Z</time>
      </trkpt>
      <trkpt lat="45.13953" lon="5.92512">
        <ele>1933.6</ele>
        <time>2020-08-11T06:48:39Z</time>
      </trkpt>
      <trkpt lat="45.13954" lon="5.92509">
        <ele>1934</ele>
        <time>2020-08-11T06:48:40Z</time>
      </trkpt>
      <trkpt lat="45.13954" lon="5.92506">
        <ele>1934</ele>
        <time>2020-08-11T06:48:41Z</time>
      </trkpt>
      <trkpt lat="45.13954" lon="5.92504">
        <ele>1934.4</ele>
        <time>2020-08-11T06:48:42Z</time>
      </trkpt>
      <trkpt lat="45.13955" lon="5.92501">
        <ele>1934.8</ele>
        <time>2020-08-11T06:48:43Z</time>
      </trkpt>
      <trkpt lat="45.13955" lon="5.92498">
        <ele>1935</ele>
        <time>2020-08-11T06:48:44Z</time>
      </trkpt>
      <trkpt lat="45.13955" lon="5.92499">
        <ele>1935.4</ele>
        <time>2020-08-11T06:48:45Z</time>
      </trkpt>
      <trkpt lat="45.13956" lon="5.92499">
        <ele>1935.6</ele>
        <time>2020-08-11T06:48:46Z</time>
      </trkpt>
      <trkpt lat="45.13956" lon="5.925">
        <ele>1935.8</ele>
        <time>2020-08-11T06:48:47Z</time>
      </trkpt>
      <trkpt lat="45.13956" lon="5.925">
        <ele>1935.8</ele>
        <time>2020-08-11T06:48:48Z</time>
      </trkpt>
      <trkpt lat="45.13956" lon="5.925">
        <ele>1936.4</ele>
        <time>2020-08-11T06:48:49Z</time>
      </trkpt>
      <trkpt lat="45.13957" lon="5.925">
        <ele>1936.4</ele>
        <time>2020-08-11T06:48:50Z</time>
      </trkpt>
      <trkpt lat="45.13957" lon="5.92501">
        <ele>1936.8</ele>
        <time>2020-08-11T06:48:51Z</time>
      </trkpt>
      <trkpt lat="45.13957" lon="5.92501">
        <ele>1936.8</ele>
        <time>2020-08-11T06:48:52Z</time>
      </trkpt>
      <trkpt lat="45.13957" lon="5.92501">
        <ele>1937</ele>
        <time>2020-08-11T06:48:53Z</time>
      </trkpt>
      <trkpt lat="45.13957" lon="5.92501">
        <ele>1937.4</ele>
        <time>2020-08-11T06:48:54Z</time>
      </trkpt>
      <trkpt lat="45.13958" lon="5.92501">
        <ele>1937.8</ele>
        <time>2020-08-11T06:48:55Z</time>
      </trkpt>
      <trkpt lat="45.13958" lon="5.92502">
        <ele>1938</ele>
        <time>2020-08-11T06:48:56Z</time>
      </trkpt>
      <trkpt lat="45.13958" lon="5.92502">
        <ele>1938.2</ele>
        <time>2020-08-11T06:48:57Z</time>
      </trkpt>
      <trkpt lat="45.13958" lon="5.92502">
        <ele>1938.6</ele>
        <time>2020-08-11T06:48:58Z</time>
      </trkpt>
      <trkpt lat="45.13959" lon="5.92502">
        <ele>1938.8</ele>
        <time>2020-08-11T06:48:59Z</time>
      </trkpt>
      <trkpt lat="45.13959" lon="5.92503">
        <ele>1939</ele>
        <time>2020-08-11T06:49:00Z</time>
      </trkpt>
      <trkpt lat="45.13959" lon="5.92503">
        <ele>1939.4</ele>
        <time>2020-08-11T06:49:01Z</time>
      </trkpt>
      <trkpt lat="45.13959" lon="5.92503">
        <ele>1939.6</ele>
        <time>2020-08-11T06:49:02Z</time>
      </trkpt>
      <trkpt lat="45.13959" lon="5.92503">
        <ele>1939.8</ele>
        <time>2020-08-11T06:49:03Z</time>
      </trkpt>
      <trkpt lat="45.1396" lon="5.92504">
        <ele>1939.8</ele>
        <time>2020-08-11T06:49:04Z</time>
      </trkpt>
      <trkpt lat="45.1396" lon="5.92504">
        <ele>1940.2</ele>
        <time>2020-08-11T06:49:05Z</time>
      </trkpt>
      <trkpt lat="45.1396" lon="5.92504">
        <ele>1940.2</ele>
        <time>2020-08-11T06:49:06Z</time>
      </trkpt>
      <trkpt lat="45.1396" lon="5.92504">
        <ele>1940.2</ele>
        <time>2020-08-11T06:49:07Z</time>
      </trkpt>
      <trkpt lat="45.13961" lon="5.92505">
        <ele>1940.4</ele>
        <time>2020-08-11T06:49:08Z</time>
      </trkpt>
      <trkpt lat="45.13961" lon="5.92505">
        <ele>1940.4</ele>
        <time>2020-08-11T06:49:09Z</time>
      </trkpt>
      <trkpt lat="45.13961" lon="5.92505">
        <ele>1940.6</ele>
        <time>2020-08-11T06:49:10Z</time>
      </trkpt>
      <trkpt lat="45.13961" lon="5.92505">
        <ele>1940.6</ele>
        <time>2020-08-11T06:49:11Z</time>
      </trkpt>
      <trkpt lat="45.13961" lon="5.92505">
        <ele>1940.8</ele>
        <time>2020-08-11T06:49:12Z</time>
      </trkpt>
      <trkpt lat="45.13962" lon="5.92506">
        <ele>1941</ele>
        <time>2020-08-11T06:49:13Z</time>
      </trkpt>
      <trkpt lat="45.13962" lon="5.92506">
        <ele>1941.4</ele>
        <time>2020-08-11T06:49:14Z</time>
      </trkpt>
      <trkpt lat="45.13962" lon="5.92506">
        <ele>1941.6</ele>
        <time>2020-08-11T06:49:15Z</time>
      </trkpt>
      <trkpt lat="45.13962" lon="5.92506">
        <ele>1941.8</ele>
        <time>2020-08-11T06:49:16Z</time>
      </trkpt>
      <trkpt lat="45.13963" lon="5.92507">
        <ele>1941.8</ele>
        <time>2020-08-11T06:49:17Z</time>
      </trkpt>
      <trkpt lat="45.13963" lon="5.92507">
        <ele>1942</ele>
        <time>2020-08-11T06:49:18Z</time>
      </trkpt>
      <trkpt lat="45.13963" lon="5.92507">
        <ele>1942</ele>
        <time>2020-08-11T06:49:19Z</time>
      </trkpt>
      <trkpt lat="45.13963" lon="5.92507">
        <ele>1942</ele>
        <time>2020-08-11T06:49:20Z</time>
      </trkpt>
      <trkpt lat="45.13963" lon="5.92508">
        <ele>1942</ele>
        <time>2020-08-11T06:49:21Z</time>
      </trkpt>
      <trkpt lat="45.13964" lon="5.92508">
        <ele>1942.2</ele>
        <time>2020-08-11T06:49:22Z</time>
      </trkpt>
      <trkpt lat="45.13964" lon="5.92508">
        <ele>1942.4</ele>
        <time>2020-08-11T06:49:23Z</time>
      </trkpt>
      <trkpt lat="45.13964" lon="5.92508">
        <ele>1942.6</ele>
        <time>2020-08-11T06:49:24Z</time>
      </trkpt>
      <trkpt lat="45.13964" lon="5.92509">
        <ele>1942.8</ele>
        <time>2020-08-11T06:49:25Z</time>
      </trkpt>
      <trkpt lat="45.13965" lon="5.92509">
        <ele>1943</ele>
        <time>2020-08-11T06:49:26Z</time>
      </trkpt>
      <trkpt lat="45.13965" lon="5.92509">
        <ele>1943.2</ele>
        <time>2020-08-11T06:49:27Z</time>
      </trkpt>
      <trkpt lat="45.13965" lon="5.92509">
        <ele>1943.2</ele>
        <time>2020-08-11T06:49:28Z</time>
      </trkpt>
      <trkpt lat="45.13965" lon="5.9251">
        <ele>1943.4</ele>
        <time>2020-08-11T06:49:29Z</time>
      </trkpt>
      <trkpt lat="45.13966" lon="5.9251">
        <ele>1943.8</ele>
        <time>2020-08-11T06:49:30Z</time>
      </trkpt>
      <trkpt lat="45.13966" lon="5.9251">
        <ele>1944</ele>
        <time>2020-08-11T06:49:31Z</time>
      </trkpt>
      <trkpt lat="45.13966" lon="5.9251">
        <ele>1944.2</ele>
        <time>2020-08-11T06:49:32Z</time>
      </trkpt>
      <trkpt lat="45.13966" lon="5.9251">
        <ele>1944.2</ele>
        <time>2020-08-11T06:49:33Z</time>
      </trkpt>
      <trkpt lat="45.13966" lon="5.92511">
        <ele>1944.4</ele>
        <time>2020-08-11T06:49:34Z</time>
      </trkpt>
      <trkpt lat="45.13967" lon="5.92511">
        <ele>1945</ele>
        <time>2020-08-11T06:49:35Z</time>
      </trkpt>
      <trkpt lat="45.13967" lon="5.92511">
        <ele>1945.4</ele>
        <time>2020-08-11T06:49:36Z</time>
      </trkpt>
      <trkpt lat="45.13967" lon="5.92511">
        <ele>1945.6</ele>
        <time>2020-08-11T06:49:37Z</time>
      </trkpt>
      <trkpt lat="45.13967" lon="5.92512">
        <ele>1945.8</ele>
        <time>2020-08-11T06:49:38Z</time>
      </trkpt>
      <trkpt lat="45.13968" lon="5.92512">
        <ele>1946</ele>
        <time>2020-08-11T06:49:39Z</time>
      </trkpt>
      <trkpt lat="45.13968" lon="5.92512">
        <ele>1946.2</ele>
        <time>2020-08-11T06:49:40Z</time>
      </trkpt>
      <trkpt lat="45.13968" lon="5.92512">
        <ele>1946.4</ele>
        <time>2020-08-11T06:49:41Z</time>
      </trkpt>
      <trkpt lat="45.13968" lon="5.92513">
        <ele>1946.6</ele>
        <time>2020-08-11T06:49:42Z</time>
      </trkpt>
      <trkpt lat="45.13968" lon="5.92513">
        <ele>1947.2</ele>
        <time>2020-08-11T06:49:43Z</time>
      </trkpt>
      <trkpt lat="45.13969" lon="5.92513">
        <ele>1947.4</ele>
        <time>2020-08-11T06:49:44Z</time>
      </trkpt>
      <trkpt lat="45.13969" lon="5.92513">
        <ele>1947.6</ele>
        <time>2020-08-11T06:49:45Z</time>
      </trkpt>
      <trkpt lat="45.13969" lon="5.92514">
        <ele>1948</ele>
        <time>2020-08-11T06:49:46Z</time>
      </trkpt>
      <trkpt lat="45.13969" lon="5.92514">
        <ele>1948.6</ele>
        <time>2020-08-11T06:49:47Z</time>
      </trkpt>
      <trkpt lat="45.1397" lon="5.92514">
        <ele>1948.8</ele>
        <time>2020-08-11T06:49:48Z</time>
      </trkpt>
      <trkpt lat="45.1397" lon="5.92514">
        <ele>1949</ele>
        <time>2020-08-11T06:49:49Z</time>
      </trkpt>
      <trkpt lat="45.1397" lon="5.92515">
        <ele>1949.4</ele>
        <time>2020-08-11T06:49:50Z</time>
      </trkpt>
      <trkpt lat="45.1397" lon="5.92515">
        <ele>1949.6</ele>
        <time>2020-08-11T06:49:51Z</time>
      </trkpt>
      <trkpt lat="45.1397" lon="5.92515">
        <ele>1949.8</ele>
        <time>2020-08-11T06:49:52Z</time>
      </trkpt>
      <trkpt lat="45.13971" lon="5.92515">
        <ele>1950</ele>
        <time>2020-08-11T06:49:53Z</time>
      </trkpt>
      <trkpt lat="45.13971" lon="5.92515">
        <ele>1950.4</ele>
        <time>2020-08-11T06:49:54Z</time>
      </trkpt>
      <trkpt lat="45.13971" lon="5.92516">
        <ele>1950.4</ele>
        <time>2020-08-11T06:49:55Z</time>
      </trkpt>
      <trkpt lat="45.13971" lon="5.92516">
        <ele>1950.6</ele>
        <time>2020-08-11T06:49:56Z</time>
      </trkpt>
      <trkpt lat="45.13972" lon="5.92516">
        <ele>1950.8</ele>
        <time>2020-08-11T06:49:57Z</time>
      </trkpt>
      <trkpt lat="45.13972" lon="5.92516">
        <ele>1951.2</ele>
        <time>2020-08-11T06:49:58Z</time>
      </trkpt>
      <trkpt lat="45.13972" lon="5.92517">
        <ele>1951.4</ele>
        <time>2020-08-11T06:49:59Z</time>
      </trkpt>
      <trkpt lat="45.13972" lon="5.92517">
        <ele>1951.8</ele>
        <time>2020-08-11T06:50:01Z</time>
      </trkpt>
      <trkpt lat="45.13972" lon="5.92517">
        <ele>1952.4</ele>
        <time>2020-08-11T06:50:02Z</time>
      </trkpt>
      <trkpt lat="45.13971" lon="5.92517">
        <ele>1952.4</ele>
        <time>2020-08-11T06:50:03Z</time>
      </trkpt>
      <trkpt lat="45.13971" lon="5.92518">
        <ele>1952.4</ele>
        <time>2020-08-11T06:50:04Z</time>
      </trkpt>
      <trkpt lat="45.13971" lon="5.92518">
        <ele>1952.6</ele>
        <time>2020-08-11T06:50:05Z</time>
      </trkpt>
      <trkpt lat="45.13971" lon="5.92519">
        <ele>1952.6</ele>
        <time>2020-08-11T06:50:06Z</time>
      </trkpt>
      <trkpt lat="45.1397" lon="5.92519">
        <ele>1953</ele>
        <time>2020-08-11T06:50:07Z</time>
      </trkpt>
      <trkpt lat="45.1397" lon="5.92519">
        <ele>1953.2</ele>
        <time>2020-08-11T06:50:08Z</time>
      </trkpt>
      <trkpt lat="45.1397" lon="5.9252">
        <ele>1953.2</ele>
        <time>2020-08-11T06:50:09Z</time>
      </trkpt>
      <trkpt lat="45.1397" lon="5.9252">
        <ele>1953</ele>
        <time>2020-08-11T06:50:10Z</time>
      </trkpt>
      <trkpt lat="45.13969" lon="5.92521">
        <ele>1952.8</ele>
        <time>2020-08-11T06:50:11Z</time>
      </trkpt>
      <trkpt lat="45.13969" lon="5.92521">
        <ele>1952.6</ele>
        <time>2020-08-11T06:50:12Z</time>
      </trkpt>
      <trkpt lat="45.13969" lon="5.92521">
        <ele>1952.4</ele>
        <time>2020-08-11T06:50:13Z</time>
      </trkpt>
      <trkpt lat="45.13968" lon="5.92522">
        <ele>1952.6</ele>
        <time>2020-08-11T06:50:14Z</time>
      </trkpt>
      <trkpt lat="45.13968" lon="5.92522">
        <ele>1952.8</ele>
        <time>2020-08-11T06:50:15Z</time>
      </trkpt>
      <trkpt lat="45.13968" lon="5.92522">
        <ele>1952.8</ele>
        <time>2020-08-11T06:50:16Z</time>
      </trkpt>
      <trkpt lat="45.13968" lon="5.92523">
        <ele>1952.6</ele>
        <time>2020-08-11T06:50:17Z</time>
      </trkpt>
      <trkpt lat="45.13967" lon="5.92523">
        <ele>1952.6</ele>
        <time>2020-08-11T06:50:18Z</time>
      </trkpt>
      <trkpt lat="45.13967" lon="5.92524">
        <ele>1952.4</ele>
        <time>2020-08-11T06:50:19Z</time>
      </trkpt>
      <trkpt lat="45.13967" lon="5.92524">
        <ele>1952.4</ele>
        <time>2020-08-11T06:50:20Z</time>
      </trkpt>
      <trkpt lat="45.13966" lon="5.92524">
        <ele>1952.4</ele>
        <time>2020-08-11T06:50:21Z</time>
      </trkpt>
      <trkpt lat="45.13966" lon="5.92525">
        <ele>1952.4</ele>
        <time>2020-08-11T06:50:22Z</time>
      </trkpt>
      <trkpt lat="45.13966" lon="5.92525">
        <ele>1952.4</ele>
        <time>2020-08-11T06:50:23Z</time>
      </trkpt>
      <trkpt lat="45.13966" lon="5.92526">
        <ele>1952.4</ele>
        <time>2020-08-11T06:50:24Z</time>
      </trkpt>
      <trkpt lat="45.13965" lon="5.92526">
        <ele>1952.2</ele>
        <time>2020-08-11T06:50:25Z</time>
      </trkpt>
      <trkpt lat="45.13965" lon="5.92526">
        <ele>1952.2</ele>
        <time>2020-08-11T06:50:26Z</time>
      </trkpt>
      <trkpt lat="45.13965" lon="5.92526">
        <ele>1952.2</ele>
        <time>2020-08-11T06:50:27Z</time>
      </trkpt>
      <trkpt lat="45.13965" lon="5.92526">
        <ele>1952.2</ele>
        <time>2020-08-11T06:50:28Z</time>
      </trkpt>
      <trkpt lat="45.13965" lon="5.92526">
        <ele>1952.4</ele>
        <time>2020-08-11T06:50:29Z</time>
      </trkpt>
      <trkpt lat="45.13966" lon="5.92526">
        <ele>1952.4</ele>
        <time>2020-08-11T06:50:30Z</time>
      </trkpt>
      <trkpt lat="45.13966" lon="5.92526">
        <ele>1952.2</ele>
        <time>2020-08-11T06:50:31Z</time>
      </trkpt>
      <trkpt lat="45.13966" lon="5.92526">
        <ele>1952</ele>
        <time>2020-08-11T06:50:32Z</time>
      </trkpt>
      <trkpt lat="45.13966" lon="5.92526">
        <ele>1952.2</ele>
        <time>2020-08-11T06:50:33Z</time>
      </trkpt>
      <trkpt lat="45.13966" lon="5.92525">
        <ele>1952.2</ele>
        <time>2020-08-11T06:50:34Z</time>
      </trkpt>
      <trkpt lat="45.13966" lon="5.92525">
        <ele>1952.4</ele>
        <time>2020-08-11T06:50:35Z</time>
      </trkpt>
      <trkpt lat="45.13966" lon="5.92525">
        <ele>1952.6</ele>
        <time>2020-08-11T06:50:36Z</time>
      </trkpt>
      <trkpt lat="45.13966" lon="5.92525">
        <ele>1952.4</ele>
        <time>2020-08-11T06:50:37Z</time>
      </trkpt>
      <trkpt lat="45.13966" lon="5.92525">
        <ele>1952.6</ele>
        <time>2020-08-11T06:50:38Z</time>
      </trkpt>
      <trkpt lat="45.13967" lon="5.92525">
        <ele>1952.6</ele>
        <time>2020-08-11T06:50:39Z</time>
      </trkpt>
      <trkpt lat="45.13967" lon="5.92525">
        <ele>1952.6</ele>
        <time>2020-08-11T06:50:40Z</time>
      </trkpt>
      <trkpt lat="45.13967" lon="5.92525">
        <ele>1952.8</ele>
        <time>2020-08-11T06:50:41Z</time>
      </trkpt>
      <trkpt lat="45.13967" lon="5.92524">
        <ele>1952.8</ele>
        <time>2020-08-11T06:50:42Z</time>
      </trkpt>
      <trkpt lat="45.13967" lon="5.92524">
        <ele>1952.6</ele>
        <time>2020-08-11T06:50:43Z</time>
      </trkpt>
      <trkpt lat="45.13967" lon="5.92524">
        <ele>1952.6</ele>
        <time>2020-08-11T06:50:44Z</time>
      </trkpt>
      <trkpt lat="45.13967" lon="5.92524">
        <ele>1952.6</ele>
        <time>2020-08-11T06:50:45Z</time>
      </trkpt>
      <trkpt lat="45.13967" lon="5.92524">
        <ele>1952.6</ele>
        <time>2020-08-11T06:50:46Z</time>
      </trkpt>
      <trkpt lat="45.13967" lon="5.92524">
        <ele>1952.6</ele>
        <time>2020-08-11T06:50:47Z</time>
      </trkpt>
      <trkpt lat="45.13968" lon="5.92524">
        <ele>1952.6</ele>
        <time>2020-08-11T06:50:48Z</time>
      </trkpt>
      <trkpt lat="45.13968" lon="5.92524">
        <ele>1952.6</ele>
        <time>2020-08-11T06:50:49Z</time>
      </trkpt>
      <trkpt lat="45.13968" lon="5.92523">
        <ele>1952.6</ele>
        <time>2020-08-11T06:50:50Z</time>
      </trkpt>
      <trkpt lat="45.13968" lon="5.92523">
        <ele>1952.6</ele>
        <time>2020-08-11T06:50:51Z</time>
      </trkpt>
      <trkpt lat="45.13968" lon="5.92523">
        <ele>1952.6</ele>
        <time>2020-08-11T06:50:52Z</time>
      </trkpt>
      <trkpt lat="45.13968" lon="5.92523">
        <ele>1952.6</ele>
        <time>2020-08-11T06:50:53Z</time>
      </trkpt>
      <trkpt lat="45.13968" lon="5.92523">
        <ele>1952.6</ele>
        <time>2020-08-11T06:50:54Z</time>
      </trkpt>
      <trkpt lat="45.13968" lon="5.92523">
        <ele>1952.6</ele>
        <time>2020-08-11T06:50:55Z</time>
      </trkpt>
      <trkpt lat="45.13968" lon="5.92523">
        <ele>1952.8</ele>
        <time>2020-08-11T06:50:56Z</time>
      </trkpt>
      <trkpt lat="45.13969" lon="5.92523">
        <ele>1952.8</ele>
        <time>2020-08-11T06:50:57Z</time>
      </trkpt>
      <trkpt lat="45.13969" lon="5.92522">
        <ele>1952.8</ele>
        <time>2020-08-11T06:50:58Z</time>
      </trkpt>
      <trkpt lat="45.13969" lon="5.92522">
        <ele>1953</ele>
        <time>2020-08-11T06:50:59Z</time>
      </trkpt>
      <trkpt lat="45.13969" lon="5.92522">
        <ele>1953</ele>
        <time>2020-08-11T06:51:00Z</time>
      </trkpt>
      <trkpt lat="45.13969" lon="5.92522">
        <ele>1952.8</ele>
        <time>2020-08-11T06:51:01Z</time>
      </trkpt>
      <trkpt lat="45.13969" lon="5.92522">
        <ele>1952.8</ele>
        <time>2020-08-11T06:51:02Z</time>
      </trkpt>
      <trkpt lat="45.13969" lon="5.92522">
        <ele>1952.8</ele>
        <time>2020-08-11T06:51:03Z</time>
      </trkpt>
      <trkpt lat="45.13969" lon="5.92522">
        <ele>1953</ele>
        <time>2020-08-11T06:51:04Z</time>
      </trkpt>
      <trkpt lat="45.13969" lon="5.92522">
        <ele>1953</ele>
        <time>2020-08-11T06:51:05Z</time>
      </trkpt>
      <trkpt lat="45.1397" lon="5.92522">
        <ele>1953</ele>
        <time>2020-08-11T06:51:06Z</time>
      </trkpt>
      <trkpt lat="45.1397" lon="5.92521">
        <ele>1953</ele>
        <time>2020-08-11T06:51:07Z</time>
      </trkpt>
      <trkpt lat="45.1397" lon="5.92521">
        <ele>1953.2</ele>
        <time>2020-08-11T06:51:08Z</time>
      </trkpt>
      <trkpt lat="45.1397" lon="5.92521">
        <ele>1953</ele>
        <time>2020-08-11T06:51:09Z</time>
      </trkpt>
      <trkpt lat="45.1397" lon="5.92522">
        <ele>1953.4</ele>
        <time>2020-08-11T06:51:10Z</time>
      </trkpt>
      <trkpt lat="45.1397" lon="5.92522">
        <ele>1953.6</ele>
        <time>2020-08-11T06:51:11Z</time>
      </trkpt>
      <trkpt lat="45.1397" lon="5.92523">
        <ele>1953.6</ele>
        <time>2020-08-11T06:51:12Z</time>
      </trkpt>
      <trkpt lat="45.1397" lon="5.92523">
        <ele>1953.4</ele>
        <time>2020-08-11T06:51:13Z</time>
      </trkpt>
      <trkpt lat="45.13969" lon="5.92524">
        <ele>1953.4</ele>
        <time>2020-08-11T06:51:14Z</time>
      </trkpt>
      <trkpt lat="45.13969" lon="5.92525">
        <ele>1953.4</ele>
        <time>2020-08-11T06:51:15Z</time>
      </trkpt>
      <trkpt lat="45.13969" lon="5.92525">
        <ele>1953.4</ele>
        <time>2020-08-11T06:51:16Z</time>
      </trkpt>
      <trkpt lat="45.13969" lon="5.92526">
        <ele>1953.2</ele>
        <time>2020-08-11T06:51:17Z</time>
      </trkpt>
      <trkpt lat="45.13969" lon="5.92526">
        <ele>1953.6</ele>
        <time>2020-08-11T06:51:18Z</time>
      </trkpt>
      <trkpt lat="45.13969" lon="5.92527">
        <ele>1953.8</ele>
        <time>2020-08-11T06:51:19Z</time>
      </trkpt>
      <trkpt lat="45.13969" lon="5.92527">
        <ele>1954</ele>
        <time>2020-08-11T06:51:20Z</time>
      </trkpt>
      <trkpt lat="45.13969" lon="5.92528">
        <ele>1953.8</ele>
        <time>2020-08-11T06:51:21Z</time>
      </trkpt>
      <trkpt lat="45.13969" lon="5.92529">
        <ele>1953.8</ele>
        <time>2020-08-11T06:51:22Z</time>
      </trkpt>
      <trkpt lat="45.13969" lon="5.92529">
        <ele>1953.6</ele>
        <time>2020-08-11T06:51:23Z</time>
      </trkpt>
      <trkpt lat="45.13969" lon="5.9253">
        <ele>1953.8</ele>
        <time>2020-08-11T06:51:24Z</time>
      </trkpt>
      <trkpt lat="45.13968" lon="5.9253">
        <ele>1953.8</ele>
        <time>2020-08-11T06:51:25Z</time>
      </trkpt>
      <trkpt lat="45.13968" lon="5.92531">
        <ele>1953.6</ele>
        <time>2020-08-11T06:51:26Z</time>
      </trkpt>
      <trkpt lat="45.13968" lon="5.92531">
        <ele>1953.8</ele>
        <time>2020-08-11T06:51:27Z</time>
      </trkpt>
      <trkpt lat="45.13968" lon="5.92532">
        <ele>1954.4</ele>
        <time>2020-08-11T06:51:28Z</time>
      </trkpt>
      <trkpt lat="45.13968" lon="5.92533">
        <ele>1954.8</ele>
        <time>2020-08-11T06:51:29Z</time>
      </trkpt>
      <trkpt lat="45.13968" lon="5.92533">
        <ele>1955</ele>
        <time>2020-08-11T06:51:30Z</time>
      </trkpt>
      <trkpt lat="45.13968" lon="5.92534">
        <ele>1955</ele>
        <time>2020-08-11T06:51:31Z</time>
      </trkpt>
      <trkpt lat="45.13968" lon="5.92534">
        <ele>1955.6</ele>
        <time>2020-08-11T06:51:32Z</time>
      </trkpt>
      <trkpt lat="45.13969" lon="5.92534">
        <ele>1956</ele>
        <time>2020-08-11T06:51:33Z</time>
      </trkpt>
      <trkpt lat="45.13969" lon="5.92535">
        <ele>1956.2</ele>
        <time>2020-08-11T06:51:34Z</time>
      </trkpt>
      <trkpt lat="45.1397" lon="5.92535">
        <ele>1956.4</ele>
        <time>2020-08-11T06:51:35Z</time>
      </trkpt>
      <trkpt lat="45.13971" lon="5.92535">
        <ele>1956.6</ele>
        <time>2020-08-11T06:51:36Z</time>
      </trkpt>
      <trkpt lat="45.13972" lon="5.92535">
        <ele>1956.8</ele>
        <time>2020-08-11T06:51:37Z</time>
      </trkpt>
      <trkpt lat="45.13973" lon="5.92535">
        <ele>1957.4</ele>
        <time>2020-08-11T06:51:38Z</time>
      </trkpt>
      <trkpt lat="45.13974" lon="5.92536">
        <ele>1957.8</ele>
        <time>2020-08-11T06:51:39Z</time>
      </trkpt>
      <trkpt lat="45.13974" lon="5.92536">
        <ele>1958</ele>
        <time>2020-08-11T06:51:40Z</time>
      </trkpt>
      <trkpt lat="45.13975" lon="5.92536">
        <ele>1958.2</ele>
        <time>2020-08-11T06:51:41Z</time>
      </trkpt>
      <trkpt lat="45.13976" lon="5.92536">
        <ele>1958.6</ele>
        <time>2020-08-11T06:51:42Z</time>
      </trkpt>
      <trkpt lat="45.13977" lon="5.92536">
        <ele>1959</ele>
        <time>2020-08-11T06:51:43Z</time>
      </trkpt>
      <trkpt lat="45.13977" lon="5.92536">
        <ele>1959.2</ele>
        <time>2020-08-11T06:51:44Z</time>
      </trkpt>
      <trkpt lat="45.13978" lon="5.92536">
        <ele>1959.4</ele>
        <time>2020-08-11T06:51:45Z</time>
      </trkpt>
      <trkpt lat="45.13978" lon="5.92536">
        <ele>1959.6</ele>
        <time>2020-08-11T06:51:46Z</time>
      </trkpt>
      <trkpt lat="45.13979" lon="5.92536">
        <ele>1960</ele>
        <time>2020-08-11T06:51:47Z</time>
      </trkpt>
      <trkpt lat="45.1398" lon="5.92536">
        <ele>1959.8</ele>
        <time>2020-08-11T06:51:48Z</time>
      </trkpt>
      <trkpt lat="45.1398" lon="5.92535">
        <ele>1960.2</ele>
        <time>2020-08-11T06:51:49Z</time>
      </trkpt>
      <trkpt lat="45.13981" lon="5.92535">
        <ele>1960.8</ele>
        <time>2020-08-11T06:51:50Z</time>
      </trkpt>
      <trkpt lat="45.13981" lon="5.92535">
        <ele>1961.4</ele>
        <time>2020-08-11T06:51:51Z</time>
      </trkpt>
      <trkpt lat="45.13982" lon="5.92535">
        <ele>1961.2</ele>
        <time>2020-08-11T06:51:52Z</time>
      </trkpt>
      <trkpt lat="45.13982" lon="5.92535">
        <ele>1961.4</ele>
        <time>2020-08-11T06:51:53Z</time>
      </trkpt>
      <trkpt lat="45.13983" lon="5.92535">
        <ele>1961.6</ele>
        <time>2020-08-11T06:51:54Z</time>
      </trkpt>
      <trkpt lat="45.13983" lon="5.92534">
        <ele>1961.8</ele>
        <time>2020-08-11T06:51:55Z</time>
      </trkpt>
      <trkpt lat="45.13984" lon="5.92534">
        <ele>1961.8</ele>
        <time>2020-08-11T06:51:56Z</time>
      </trkpt>
      <trkpt lat="45.13984" lon="5.92534">
        <ele>1962.2</ele>
        <time>2020-08-11T06:51:57Z</time>
      </trkpt>
      <trkpt lat="45.13985" lon="5.92534">
        <ele>1962.4</ele>
        <time>2020-08-11T06:51:58Z</time>
      </trkpt>
      <trkpt lat="45.13986" lon="5.92534">
        <ele>1962.8</ele>
        <time>2020-08-11T06:51:59Z</time>
      </trkpt>
      <trkpt lat="45.13986" lon="5.92534">
        <ele>1962.8</ele>
        <time>2020-08-11T06:52:00Z</time>
      </trkpt>
      <trkpt lat="45.13986" lon="5.92533">
        <ele>1963</ele>
        <time>2020-08-11T06:52:01Z</time>
      </trkpt>
      <trkpt lat="45.13987" lon="5.92532">
        <ele>1963.2</ele>
        <time>2020-08-11T06:52:02Z</time>
      </trkpt>
      <trkpt lat="45.13987" lon="5.92531">
        <ele>1963.4</ele>
        <time>2020-08-11T06:52:03Z</time>
      </trkpt>
      <trkpt lat="45.13988" lon="5.92531">
        <ele>1963.6</ele>
        <time>2020-08-11T06:52:04Z</time>
      </trkpt>
      <trkpt lat="45.13988" lon="5.9253">
        <ele>1963.8</ele>
        <time>2020-08-11T06:52:05Z</time>
      </trkpt>
      <trkpt lat="45.13989" lon="5.92529">
        <ele>1963.8</ele>
        <time>2020-08-11T06:52:06Z</time>
      </trkpt>
      <trkpt lat="45.13989" lon="5.92528">
        <ele>1964.2</ele>
        <time>2020-08-11T06:52:07Z</time>
      </trkpt>
      <trkpt lat="45.13989" lon="5.92528">
        <ele>1964.2</ele>
        <time>2020-08-11T06:52:08Z</time>
      </trkpt>
      <trkpt lat="45.1399" lon="5.92527">
        <ele>1964.6</ele>
        <time>2020-08-11T06:52:09Z</time>
      </trkpt>
      <trkpt lat="45.1399" lon="5.92527">
        <ele>1965</ele>
        <time>2020-08-11T06:52:10Z</time>
      </trkpt>
      <trkpt lat="45.13991" lon="5.92528">
        <ele>1965.2</ele>
        <time>2020-08-11T06:52:11Z</time>
      </trkpt>
      <trkpt lat="45.13991" lon="5.92528">
        <ele>1965.4</ele>
        <time>2020-08-11T06:52:12Z</time>
      </trkpt>
      <trkpt lat="45.13992" lon="5.92529">
        <ele>1965.6</ele>
        <time>2020-08-11T06:52:13Z</time>
      </trkpt>
      <trkpt lat="45.13992" lon="5.92529">
        <ele>1966</ele>
        <time>2020-08-11T06:52:14Z</time>
      </trkpt>
      <trkpt lat="45.13992" lon="5.9253">
        <ele>1966.2</ele>
        <time>2020-08-11T06:52:15Z</time>
      </trkpt>
      <trkpt lat="45.13993" lon="5.9253">
        <ele>1966.4</ele>
        <time>2020-08-11T06:52:16Z</time>
      </trkpt>
      <trkpt lat="45.13993" lon="5.92531">
        <ele>1966.8</ele>
        <time>2020-08-11T06:52:17Z</time>
      </trkpt>
      <trkpt lat="45.13994" lon="5.92531">
        <ele>1966.8</ele>
        <time>2020-08-11T06:52:18Z</time>
      </trkpt>
      <trkpt lat="45.13994" lon="5.92532">
        <ele>1967</ele>
        <time>2020-08-11T06:52:19Z</time>
      </trkpt>
      <trkpt lat="45.13994" lon="5.92532">
        <ele>1967.2</ele>
        <time>2020-08-11T06:52:20Z</time>
      </trkpt>
      <trkpt lat="45.13995" lon="5.92533">
        <ele>1967.6</ele>
        <time>2020-08-11T06:52:21Z</time>
      </trkpt>
      <trkpt lat="45.13995" lon="5.92533">
        <ele>1967.8</ele>
        <time>2020-08-11T06:52:22Z</time>
      </trkpt>
      <trkpt lat="45.13995" lon="5.92533">
        <ele>1968</ele>
        <time>2020-08-11T06:52:23Z</time>
      </trkpt>
      <trkpt lat="45.13995" lon="5.92533">
        <ele>1968.4</ele>
        <time>2020-08-11T06:52:24Z</time>
      </trkpt>
      <trkpt lat="45.13997" lon="5.92535">
        <ele>1968.6</ele>
        <time>2020-08-11T06:52:25Z</time>
      </trkpt>
      <trkpt lat="45.13997" lon="5.92535">
        <ele>1969</ele>
        <time>2020-08-11T06:52:26Z</time>
      </trkpt>
      <trkpt lat="45.13997" lon="5.92536">
        <ele>1969.2</ele>
        <time>2020-08-11T06:52:27Z</time>
      </trkpt>
      <trkpt lat="45.13997" lon="5.92537">
        <ele>1969.4</ele>
        <time>2020-08-11T06:52:28Z</time>
      </trkpt>
      <trkpt lat="45.13998" lon="5.92537">
        <ele>1969.8</ele>
        <time>2020-08-11T06:52:29Z</time>
      </trkpt>
      <trkpt lat="45.13998" lon="5.92538">
        <ele>1970.2</ele>
        <time>2020-08-11T06:52:30Z</time>
      </trkpt>
      <trkpt lat="45.13998" lon="5.92539">
        <ele>1970.4</ele>
        <time>2020-08-11T06:52:31Z</time>
      </trkpt>
      <trkpt lat="45.13999" lon="5.9254">
        <ele>1970.6</ele>
        <time>2020-08-11T06:52:32Z</time>
      </trkpt>
      <trkpt lat="45.13999" lon="5.92541">
        <ele>1971</ele>
        <time>2020-08-11T06:52:33Z</time>
      </trkpt>
      <trkpt lat="45.13999" lon="5.92541">
        <ele>1971.6</ele>
        <time>2020-08-11T06:52:34Z</time>
      </trkpt>
      <trkpt lat="45.13999" lon="5.92544">
        <ele>1972.2</ele>
        <time>2020-08-11T06:52:35Z</time>
      </trkpt>
      <trkpt lat="45.13999" lon="5.92544">
        <ele>1972.6</ele>
        <time>2020-08-11T06:52:36Z</time>
      </trkpt>
      <trkpt lat="45.13999" lon="5.92544">
        <ele>1972.6</ele>
        <time>2020-08-11T06:52:37Z</time>
      </trkpt>
      <trkpt lat="45.13999" lon="5.92544">
        <ele>1972.8</ele>
        <time>2020-08-11T06:52:38Z</time>
      </trkpt>
      <trkpt lat="45.14001" lon="5.92544">
        <ele>1973</ele>
        <time>2020-08-11T06:52:39Z</time>
      </trkpt>
      <trkpt lat="45.14001" lon="5.92544">
        <ele>1972.8</ele>
        <time>2020-08-11T06:52:40Z</time>
      </trkpt>
      <trkpt lat="45.14001" lon="5.92544">
        <ele>1972.8</ele>
        <time>2020-08-11T06:52:41Z</time>
      </trkpt>
      <trkpt lat="45.14003" lon="5.92545">
        <ele>1973.2</ele>
        <time>2020-08-11T06:52:42Z</time>
      </trkpt>
      <trkpt lat="45.14003" lon="5.92545">
        <ele>1973.4</ele>
        <time>2020-08-11T06:52:43Z</time>
      </trkpt>
      <trkpt lat="45.14003" lon="5.92545">
        <ele>1973.4</ele>
        <time>2020-08-11T06:52:44Z</time>
      </trkpt>
      <trkpt lat="45.14003" lon="5.92547">
        <ele>1973.8</ele>
        <time>2020-08-11T06:52:45Z</time>
      </trkpt>
      <trkpt lat="45.14003" lon="5.92549">
        <ele>1974</ele>
        <time>2020-08-11T06:52:46Z</time>
      </trkpt>
      <trkpt lat="45.14002" lon="5.92551">
        <ele>1974.2</ele>
        <time>2020-08-11T06:52:47Z</time>
      </trkpt>
      <trkpt lat="45.14002" lon="5.92552">
        <ele>1974.4</ele>
        <time>2020-08-11T06:52:48Z</time>
      </trkpt>
      <trkpt lat="45.14002" lon="5.92552">
        <ele>1974.6</ele>
        <time>2020-08-11T06:52:49Z</time>
      </trkpt>
      <trkpt lat="45.14002" lon="5.92552">
        <ele>1974.8</ele>
        <time>2020-08-11T06:52:50Z</time>
      </trkpt>
      <trkpt lat="45.14003" lon="5.92555">
        <ele>1975</ele>
        <time>2020-08-11T06:52:51Z</time>
      </trkpt>
      <trkpt lat="45.14003" lon="5.92555">
        <ele>1975</ele>
        <time>2020-08-11T06:52:52Z</time>
      </trkpt>
      <trkpt lat="45.14004" lon="5.92556">
        <ele>1975.2</ele>
        <time>2020-08-11T06:52:53Z</time>
      </trkpt>
      <trkpt lat="45.14005" lon="5.92556">
        <ele>1975.2</ele>
        <time>2020-08-11T06:52:54Z</time>
      </trkpt>
      <trkpt lat="45.14006" lon="5.92556">
        <ele>1975.6</ele>
        <time>2020-08-11T06:52:55Z</time>
      </trkpt>
      <trkpt lat="45.14006" lon="5.92557">
        <ele>1975.8</ele>
        <time>2020-08-11T06:52:56Z</time>
      </trkpt>
      <trkpt lat="45.14007" lon="5.92557">
        <ele>1976</ele>
        <time>2020-08-11T06:52:57Z</time>
      </trkpt>
      <trkpt lat="45.14008" lon="5.92558">
        <ele>1976.2</ele>
        <time>2020-08-11T06:52:58Z</time>
      </trkpt>
      <trkpt lat="45.14009" lon="5.92558">
        <ele>1976.4</ele>
        <time>2020-08-11T06:52:59Z</time>
      </trkpt>
      <trkpt lat="45.1401" lon="5.92559">
        <ele>1976.6</ele>
        <time>2020-08-11T06:53:00Z</time>
      </trkpt>
      <trkpt lat="45.14011" lon="5.92559">
        <ele>1977</ele>
        <time>2020-08-11T06:53:01Z</time>
      </trkpt>
      <trkpt lat="45.14012" lon="5.9256">
        <ele>1977.4</ele>
        <time>2020-08-11T06:53:02Z</time>
      </trkpt>
      <trkpt lat="45.14013" lon="5.9256">
        <ele>1977.6</ele>
        <time>2020-08-11T06:53:03Z</time>
      </trkpt>
      <trkpt lat="45.14014" lon="5.92561">
        <ele>1977.6</ele>
        <time>2020-08-11T06:53:04Z</time>
      </trkpt>
      <trkpt lat="45.14015" lon="5.92562">
        <ele>1977.6</ele>
        <time>2020-08-11T06:53:05Z</time>
      </trkpt>
      <trkpt lat="45.14016" lon="5.92562">
        <ele>1977.8</ele>
        <time>2020-08-11T06:53:06Z</time>
      </trkpt>
      <trkpt lat="45.14017" lon="5.92563">
        <ele>1977.8</ele>
        <time>2020-08-11T06:53:07Z</time>
      </trkpt>
      <trkpt lat="45.14018" lon="5.92564">
        <ele>1978</ele>
        <time>2020-08-11T06:53:08Z</time>
      </trkpt>
      <trkpt lat="45.14019" lon="5.92564">
        <ele>1978</ele>
        <time>2020-08-11T06:53:09Z</time>
      </trkpt>
      <trkpt lat="45.1402" lon="5.92565">
        <ele>1978.2</ele>
        <time>2020-08-11T06:53:10Z</time>
      </trkpt>
      <trkpt lat="45.14021" lon="5.92566">
        <ele>1978.4</ele>
        <time>2020-08-11T06:53:11Z</time>
      </trkpt>
      <trkpt lat="45.14022" lon="5.92566">
        <ele>1978.6</ele>
        <time>2020-08-11T06:53:12Z</time>
      </trkpt>
      <trkpt lat="45.14023" lon="5.92566">
        <ele>1978.6</ele>
        <time>2020-08-11T06:53:13Z</time>
      </trkpt>
      <trkpt lat="45.14024" lon="5.92567">
        <ele>1978.8</ele>
        <time>2020-08-11T06:53:14Z</time>
      </trkpt>
      <trkpt lat="45.14024" lon="5.92567">
        <ele>1979</ele>
        <time>2020-08-11T06:53:15Z</time>
      </trkpt>
      <trkpt lat="45.14025" lon="5.92567">
        <ele>1979</ele>
        <time>2020-08-11T06:53:16Z</time>
      </trkpt>
      <trkpt lat="45.14026" lon="5.92568">
        <ele>1979.2</ele>
        <time>2020-08-11T06:53:17Z</time>
      </trkpt>
      <trkpt lat="45.14027" lon="5.92568">
        <ele>1979.4</ele>
        <time>2020-08-11T06:53:18Z</time>
      </trkpt>
      <trkpt lat="45.14028" lon="5.92568">
        <ele>1979.6</ele>
        <time>2020-08-11T06:53:19Z</time>
      </trkpt>
      <trkpt lat="45.14029" lon="5.92568">
        <ele>1980</ele>
        <time>2020-08-11T06:53:20Z</time>
      </trkpt>
      <trkpt lat="45.1403" lon="5.92569">
        <ele>1980.2</ele>
        <time>2020-08-11T06:53:21Z</time>
      </trkpt>
      <trkpt lat="45.1403" lon="5.9257">
        <ele>1980.4</ele>
        <time>2020-08-11T06:53:22Z</time>
      </trkpt>
      <trkpt lat="45.14031" lon="5.9257">
        <ele>1980.6</ele>
        <time>2020-08-11T06:53:23Z</time>
      </trkpt>
      <trkpt lat="45.14032" lon="5.92571">
        <ele>1980.8</ele>
        <time>2020-08-11T06:53:24Z</time>
      </trkpt>
      <trkpt lat="45.14032" lon="5.92572">
        <ele>1980.8</ele>
        <time>2020-08-11T06:53:25Z</time>
      </trkpt>
      <trkpt lat="45.14033" lon="5.92573">
        <ele>1980.8</ele>
        <time>2020-08-11T06:53:26Z</time>
      </trkpt>
      <trkpt lat="45.14034" lon="5.92574">
        <ele>1980.6</ele>
        <time>2020-08-11T06:53:27Z</time>
      </trkpt>
      <trkpt lat="45.14034" lon="5.92574">
        <ele>1980.8</ele>
        <time>2020-08-11T06:53:28Z</time>
      </trkpt>
      <trkpt lat="45.14035" lon="5.92575">
        <ele>1980.8</ele>
        <time>2020-08-11T06:53:29Z</time>
      </trkpt>
      <trkpt lat="45.14035" lon="5.92576">
        <ele>1980.8</ele>
        <time>2020-08-11T06:53:30Z</time>
      </trkpt>
      <trkpt lat="45.14036" lon="5.92577">
        <ele>1980.8</ele>
        <time>2020-08-11T06:53:31Z</time>
      </trkpt>
      <trkpt lat="45.14037" lon="5.92578">
        <ele>1981</ele>
        <time>2020-08-11T06:53:32Z</time>
      </trkpt>
      <trkpt lat="45.14038" lon="5.92579">
        <ele>1981</ele>
        <time>2020-08-11T06:53:33Z</time>
      </trkpt>
      <trkpt lat="45.14038" lon="5.92581">
        <ele>1980.8</ele>
        <time>2020-08-11T06:53:34Z</time>
      </trkpt>
      <trkpt lat="45.14039" lon="5.92583">
        <ele>1980.8</ele>
        <time>2020-08-11T06:53:35Z</time>
      </trkpt>
      <trkpt lat="45.1404" lon="5.92584">
        <ele>1980.8</ele>
        <time>2020-08-11T06:53:36Z</time>
      </trkpt>
      <trkpt lat="45.14041" lon="5.92586">
        <ele>1981</ele>
        <time>2020-08-11T06:53:37Z</time>
      </trkpt>
      <trkpt lat="45.14041" lon="5.92588">
        <ele>1981.2</ele>
        <time>2020-08-11T06:53:38Z</time>
      </trkpt>
      <trkpt lat="45.14042" lon="5.92589">
        <ele>1981.4</ele>
        <time>2020-08-11T06:53:39Z</time>
      </trkpt>
      <trkpt lat="45.14044" lon="5.9259">
        <ele>1981.6</ele>
        <time>2020-08-11T06:53:40Z</time>
      </trkpt>
      <trkpt lat="45.14046" lon="5.92591">
        <ele>1982</ele>
        <time>2020-08-11T06:53:41Z</time>
      </trkpt>
      <trkpt lat="45.14048" lon="5.92592">
        <ele>1982.2</ele>
        <time>2020-08-11T06:53:42Z</time>
      </trkpt>
      <trkpt lat="45.14049" lon="5.92593">
        <ele>1982.4</ele>
        <time>2020-08-11T06:53:43Z</time>
      </trkpt>
      <trkpt lat="45.14051" lon="5.92594">
        <ele>1982.8</ele>
        <time>2020-08-11T06:53:44Z</time>
      </trkpt>
      <trkpt lat="45.14054" lon="5.92594">
        <ele>1983.2</ele>
        <time>2020-08-11T06:53:45Z</time>
      </trkpt>
      <trkpt lat="45.14056" lon="5.92594">
        <ele>1983.6</ele>
        <time>2020-08-11T06:53:46Z</time>
      </trkpt>
      <trkpt lat="45.14057" lon="5.92594">
        <ele>1983.6</ele>
        <time>2020-08-11T06:53:47Z</time>
      </trkpt>
      <trkpt lat="45.14058" lon="5.92593">
        <ele>1983.6</ele>
        <time>2020-08-11T06:53:48Z</time>
      </trkpt>
      <trkpt lat="45.14058" lon="5.92593">
        <ele>1984</ele>
        <time>2020-08-11T06:53:49Z</time>
      </trkpt>
      <trkpt lat="45.14058" lon="5.92593">
        <ele>1984.2</ele>
        <time>2020-08-11T06:53:50Z</time>
      </trkpt>
      <trkpt lat="45.14059" lon="5.92596">
        <ele>1984.6</ele>
        <time>2020-08-11T06:53:51Z</time>
      </trkpt>
      <trkpt lat="45.14059" lon="5.92596">
        <ele>1985</ele>
        <time>2020-08-11T06:53:52Z</time>
      </trkpt>
      <trkpt lat="45.14062" lon="5.92597">
        <ele>1985</ele>
        <time>2020-08-11T06:53:53Z</time>
      </trkpt>
      <trkpt lat="45.14062" lon="5.92597">
        <ele>1985.2</ele>
        <time>2020-08-11T06:53:54Z</time>
      </trkpt>
      <trkpt lat="45.14062" lon="5.92597">
        <ele>1985.4</ele>
        <time>2020-08-11T06:53:55Z</time>
      </trkpt>
      <trkpt lat="45.14064" lon="5.92599">
        <ele>1985.4</ele>
        <time>2020-08-11T06:53:56Z</time>
      </trkpt>
      <trkpt lat="45.14065" lon="5.92602">
        <ele>1985.6</ele>
        <time>2020-08-11T06:53:57Z</time>
      </trkpt>
      <trkpt lat="45.14066" lon="5.92605">
        <ele>1985.4</ele>
        <time>2020-08-11T06:53:58Z</time>
      </trkpt>
      <trkpt lat="45.14067" lon="5.92608">
        <ele>1985.2</ele>
        <time>2020-08-11T06:53:59Z</time>
      </trkpt>
      <trkpt lat="45.14067" lon="5.9261">
        <ele>1985.2</ele>
        <time>2020-08-11T06:54:00Z</time>
      </trkpt>
      <trkpt lat="45.14067" lon="5.92613">
        <ele>1985.2</ele>
        <time>2020-08-11T06:54:01Z</time>
      </trkpt>
      <trkpt lat="45.14067" lon="5.92613">
        <ele>1985.4</ele>
        <time>2020-08-11T06:54:02Z</time>
      </trkpt>
      <trkpt lat="45.14067" lon="5.92613">
        <ele>1986</ele>
        <time>2020-08-11T06:54:03Z</time>
      </trkpt>
      <trkpt lat="45.14066" lon="5.92617">
        <ele>1986.6</ele>
        <time>2020-08-11T06:54:04Z</time>
      </trkpt>
      <trkpt lat="45.14066" lon="5.92617">
        <ele>1986.4</ele>
        <time>2020-08-11T06:54:05Z</time>
      </trkpt>
      <trkpt lat="45.14065" lon="5.9262">
        <ele>1986.4</ele>
        <time>2020-08-11T06:54:06Z</time>
      </trkpt>
      <trkpt lat="45.14065" lon="5.9262">
        <ele>1986.6</ele>
        <time>2020-08-11T06:54:07Z</time>
      </trkpt>
      <trkpt lat="45.14065" lon="5.9262">
        <ele>1986.8</ele>
        <time>2020-08-11T06:54:08Z</time>
      </trkpt>
      <trkpt lat="45.14065" lon="5.9262">
        <ele>1987.2</ele>
        <time>2020-08-11T06:54:09Z</time>
      </trkpt>
      <trkpt lat="45.14064" lon="5.92624">
        <ele>1987.4</ele>
        <time>2020-08-11T06:54:10Z</time>
      </trkpt>
      <trkpt lat="45.14064" lon="5.92628">
        <ele>1987.4</ele>
        <time>2020-08-11T06:54:11Z</time>
      </trkpt>
      <trkpt lat="45.14064" lon="5.92628">
        <ele>1987.6</ele>
        <time>2020-08-11T06:54:12Z</time>
      </trkpt>
      <trkpt lat="45.14064" lon="5.92628">
        <ele>1987.8</ele>
        <time>2020-08-11T06:54:13Z</time>
      </trkpt>
      <trkpt lat="45.14064" lon="5.92632">
        <ele>1988.2</ele>
        <time>2020-08-11T06:54:14Z</time>
      </trkpt>
      <trkpt lat="45.14064" lon="5.92632">
        <ele>1988.6</ele>
        <time>2020-08-11T06:54:15Z</time>
      </trkpt>
      <trkpt lat="45.14065" lon="5.92636">
        <ele>1988.8</ele>
        <time>2020-08-11T06:54:16Z</time>
      </trkpt>
      <trkpt lat="45.14064" lon="5.92639">
        <ele>1988.8</ele>
        <time>2020-08-11T06:54:17Z</time>
      </trkpt>
      <trkpt lat="45.14064" lon="5.92639">
        <ele>1988.8</ele>
        <time>2020-08-11T06:54:18Z</time>
      </trkpt>
      <trkpt lat="45.14064" lon="5.92639">
        <ele>1989</ele>
        <time>2020-08-11T06:54:19Z</time>
      </trkpt>
      <trkpt lat="45.14062" lon="5.92641">
        <ele>1989.4</ele>
        <time>2020-08-11T06:54:20Z</time>
      </trkpt>
      <trkpt lat="45.14062" lon="5.92641">
        <ele>1989.8</ele>
        <time>2020-08-11T06:54:21Z</time>
      </trkpt>
      <trkpt lat="45.1406" lon="5.92642">
        <ele>1989.8</ele>
        <time>2020-08-11T06:54:22Z</time>
      </trkpt>
      <trkpt lat="45.1406" lon="5.92642">
        <ele>1990.4</ele>
        <time>2020-08-11T06:54:23Z</time>
      </trkpt>
      <trkpt lat="45.1406" lon="5.92642">
        <ele>1990.4</ele>
        <time>2020-08-11T06:54:24Z</time>
      </trkpt>
      <trkpt lat="45.1406" lon="5.92642">
        <ele>1990.4</ele>
        <time>2020-08-11T06:54:25Z</time>
      </trkpt>
      <trkpt lat="45.1406" lon="5.92642">
        <ele>1990.4</ele>
        <time>2020-08-11T06:54:26Z</time>
      </trkpt>
      <trkpt lat="45.1406" lon="5.92642">
        <ele>1990.4</ele>
        <time>2020-08-11T06:54:27Z</time>
      </trkpt>
      <trkpt lat="45.1406" lon="5.92642">
        <ele>1990.4</ele>
        <time>2020-08-11T06:54:28Z</time>
      </trkpt>
      <trkpt lat="45.1406" lon="5.92642">
        <ele>1990.4</ele>
        <time>2020-08-11T06:54:29Z</time>
      </trkpt>
      <trkpt lat="45.1406" lon="5.92642">
        <ele>1990.4</ele>
        <time>2020-08-11T06:54:30Z</time>
      </trkpt>
      <trkpt lat="45.1406" lon="5.92642">
        <ele>1990.4</ele>
        <time>2020-08-11T06:54:31Z</time>
      </trkpt>
      <trkpt lat="45.14062" lon="5.92643">
        <ele>1990.8</ele>
        <time>2020-08-11T06:54:32Z</time>
      </trkpt>
      <trkpt lat="45.14062" lon="5.92643">
        <ele>1991</ele>
        <time>2020-08-11T06:54:33Z</time>
      </trkpt>
      <trkpt lat="45.14062" lon="5.92643">
        <ele>1991.2</ele>
        <time>2020-08-11T06:54:34Z</time>
      </trkpt>
      <trkpt lat="45.14062" lon="5.92643">
        <ele>1991.2</ele>
        <time>2020-08-11T06:54:35Z</time>
      </trkpt>
      <trkpt lat="45.14062" lon="5.92643">
        <ele>1991.4</ele>
        <time>2020-08-11T06:54:36Z</time>
      </trkpt>
      <trkpt lat="45.14062" lon="5.92643">
        <ele>1991.6</ele>
        <time>2020-08-11T06:54:37Z</time>
      </trkpt>
      <trkpt lat="45.14062" lon="5.92643">
        <ele>1991</ele>
        <time>2020-08-11T06:54:38Z</time>
      </trkpt>
      <trkpt lat="45.14062" lon="5.92643">
        <ele>1990.8</ele>
        <time>2020-08-11T06:54:39Z</time>
      </trkpt>
      <trkpt lat="45.1406" lon="5.92643">
        <ele>1990.8</ele>
        <time>2020-08-11T06:54:40Z</time>
      </trkpt>
      <trkpt lat="45.1406" lon="5.92643">
        <ele>1990.6</ele>
        <time>2020-08-11T06:54:41Z</time>
      </trkpt>
      <trkpt lat="45.1406" lon="5.92643">
        <ele>1990.6</ele>
        <time>2020-08-11T06:54:42Z</time>
      </trkpt>
      <trkpt lat="45.1406" lon="5.92643">
        <ele>1990.4</ele>
        <time>2020-08-11T06:54:43Z</time>
      </trkpt>
      <trkpt lat="45.1406" lon="5.92643">
        <ele>1990.4</ele>
        <time>2020-08-11T06:54:44Z</time>
      </trkpt>
      <trkpt lat="45.1406" lon="5.92643">
        <ele>1990.4</ele>
        <time>2020-08-11T06:54:45Z</time>
      </trkpt>
      <trkpt lat="45.1406" lon="5.92643">
        <ele>1990.2</ele>
        <time>2020-08-11T06:54:46Z</time>
      </trkpt>
      <trkpt lat="45.1406" lon="5.92643">
        <ele>1990.2</ele>
        <time>2020-08-11T06:54:47Z</time>
      </trkpt>
      <trkpt lat="45.1406" lon="5.92643">
        <ele>1990.2</ele>
        <time>2020-08-11T06:54:48Z</time>
      </trkpt>
      <trkpt lat="45.1406" lon="5.92643">
        <ele>1990.8</ele>
        <time>2020-08-11T06:54:49Z</time>
      </trkpt>
      <trkpt lat="45.1406" lon="5.92643">
        <ele>1991</ele>
        <time>2020-08-11T06:54:50Z</time>
      </trkpt>
      <trkpt lat="45.1406" lon="5.92643">
        <ele>1991.4</ele>
        <time>2020-08-11T06:54:51Z</time>
      </trkpt>
      <trkpt lat="45.1406" lon="5.92643">
        <ele>1991.6</ele>
        <time>2020-08-11T06:54:52Z</time>
      </trkpt>
      <trkpt lat="45.1406" lon="5.92643">
        <ele>1991.8</ele>
        <time>2020-08-11T06:54:53Z</time>
      </trkpt>
      <trkpt lat="45.1406" lon="5.92643">
        <ele>1991.8</ele>
        <time>2020-08-11T06:54:54Z</time>
      </trkpt>
      <trkpt lat="45.1406" lon="5.92643">
        <ele>1991.8</ele>
        <time>2020-08-11T06:54:55Z</time>
      </trkpt>
      <trkpt lat="45.1406" lon="5.92643">
        <ele>1992</ele>
        <time>2020-08-11T06:54:56Z</time>
      </trkpt>
      <trkpt lat="45.1406" lon="5.92643">
        <ele>1992</ele>
        <time>2020-08-11T06:54:57Z</time>
      </trkpt>
      <trkpt lat="45.14059" lon="5.92645">
        <ele>1992</ele>
        <time>2020-08-11T06:54:58Z</time>
      </trkpt>
      <trkpt lat="45.14059" lon="5.92645">
        <ele>1992</ele>
        <time>2020-08-11T06:54:59Z</time>
      </trkpt>
      <trkpt lat="45.14059" lon="5.92645">
        <ele>1992</ele>
        <time>2020-08-11T06:55:00Z</time>
      </trkpt>
      <trkpt lat="45.14059" lon="5.92645">
        <ele>1992.2</ele>
        <time>2020-08-11T06:55:01Z</time>
      </trkpt>
      <trkpt lat="45.14059" lon="5.92645">
        <ele>1992.2</ele>
        <time>2020-08-11T06:55:02Z</time>
      </trkpt>
      <trkpt lat="45.14059" lon="5.92645">
        <ele>1992</ele>
        <time>2020-08-11T06:55:03Z</time>
      </trkpt>
      <trkpt lat="45.14059" lon="5.92645">
        <ele>1992</ele>
        <time>2020-08-11T06:55:04Z</time>
      </trkpt>
      <trkpt lat="45.14059" lon="5.92645">
        <ele>1992</ele>
        <time>2020-08-11T06:55:05Z</time>
      </trkpt>
      <trkpt lat="45.14059" lon="5.92645">
        <ele>1992.2</ele>
        <time>2020-08-11T06:55:06Z</time>
      </trkpt>
      <trkpt lat="45.14059" lon="5.92645">
        <ele>1992</ele>
        <time>2020-08-11T06:55:07Z</time>
      </trkpt>
      <trkpt lat="45.14059" lon="5.92645">
        <ele>1992</ele>
        <time>2020-08-11T06:55:08Z</time>
      </trkpt>
      <trkpt lat="45.14059" lon="5.92645">
        <ele>1991.8</ele>
        <time>2020-08-11T06:55:09Z</time>
      </trkpt>
      <trkpt lat="45.14059" lon="5.92645">
        <ele>1991.6</ele>
        <time>2020-08-11T06:55:10Z</time>
      </trkpt>
      <trkpt lat="45.14059" lon="5.92645">
        <ele>1991.6</ele>
        <time>2020-08-11T06:55:11Z</time>
      </trkpt>
      <trkpt lat="45.14059" lon="5.92645">
        <ele>1991.4</ele>
        <time>2020-08-11T06:55:12Z</time>
      </trkpt>
      <trkpt lat="45.14059" lon="5.92645">
        <ele>1991.6</ele>
        <time>2020-08-11T06:55:13Z</time>
      </trkpt>
      <trkpt lat="45.14059" lon="5.92645">
        <ele>1991.6</ele>
        <time>2020-08-11T06:55:14Z</time>
      </trkpt>
      <trkpt lat="45.14059" lon="5.92645">
        <ele>1991.8</ele>
        <time>2020-08-11T06:55:15Z</time>
      </trkpt>
      <trkpt lat="45.14059" lon="5.92645">
        <ele>1991.4</ele>
        <time>2020-08-11T06:55:16Z</time>
      </trkpt>
      <trkpt lat="45.14059" lon="5.92645">
        <ele>1991</ele>
        <time>2020-08-11T06:55:17Z</time>
      </trkpt>
      <trkpt lat="45.14059" lon="5.92645">
        <ele>1990.8</ele>
        <time>2020-08-11T06:55:18Z</time>
      </trkpt>
      <trkpt lat="45.14057" lon="5.92646">
        <ele>1990.8</ele>
        <time>2020-08-11T06:55:19Z</time>
      </trkpt>
      <trkpt lat="45.14057" lon="5.92646">
        <ele>1990.8</ele>
        <time>2020-08-11T06:55:20Z</time>
      </trkpt>
      <trkpt lat="45.14057" lon="5.92646">
        <ele>1990.8</ele>
        <time>2020-08-11T06:55:21Z</time>
      </trkpt>
      <trkpt lat="45.14057" lon="5.92646">
        <ele>1990.8</ele>
        <time>2020-08-11T06:55:22Z</time>
      </trkpt>
      <trkpt lat="45.14057" lon="5.92646">
        <ele>1990.8</ele>
        <time>2020-08-11T06:55:23Z</time>
      </trkpt>
      <trkpt lat="45.14057" lon="5.92646">
        <ele>1990.8</ele>
        <time>2020-08-11T06:55:24Z</time>
      </trkpt>
      <trkpt lat="45.14057" lon="5.92646">
        <ele>1990.8</ele>
        <time>2020-08-11T06:55:25Z</time>
      </trkpt>
      <trkpt lat="45.14057" lon="5.92646">
        <ele>1990.8</ele>
        <time>2020-08-11T06:55:26Z</time>
      </trkpt>
      <trkpt lat="45.14057" lon="5.92646">
        <ele>1990.8</ele>
        <time>2020-08-11T06:55:27Z</time>
      </trkpt>
      <trkpt lat="45.14057" lon="5.92646">
        <ele>1990.8</ele>
        <time>2020-08-11T06:55:28Z</time>
      </trkpt>
      <trkpt lat="45.14057" lon="5.92646">
        <ele>1990.8</ele>
        <time>2020-08-11T06:55:29Z</time>
      </trkpt>
      <trkpt lat="45.14057" lon="5.92646">
        <ele>1990.8</ele>
        <time>2020-08-11T06:55:30Z</time>
      </trkpt>
      <trkpt lat="45.14057" lon="5.92646">
        <ele>1990.8</ele>
        <time>2020-08-11T06:55:31Z</time>
      </trkpt>
      <trkpt lat="45.14057" lon="5.92646">
        <ele>1990.8</ele>
        <time>2020-08-11T06:55:32Z</time>
      </trkpt>
      <trkpt lat="45.14057" lon="5.92646">
        <ele>1990.8</ele>
        <time>2020-08-11T06:55:33Z</time>
      </trkpt>
      <trkpt lat="45.14057" lon="5.92646">
        <ele>1990.8</ele>
        <time>2020-08-11T06:55:34Z</time>
      </trkpt>
      <trkpt lat="45.14057" lon="5.92646">
        <ele>1990.6</ele>
        <time>2020-08-11T06:55:35Z</time>
      </trkpt>
      <trkpt lat="45.14057" lon="5.92646">
        <ele>1990.6</ele>
        <time>2020-08-11T06:55:36Z</time>
      </trkpt>
      <trkpt lat="45.14057" lon="5.92646">
        <ele>1990.6</ele>
        <time>2020-08-11T06:55:37Z</time>
      </trkpt>
      <trkpt lat="45.14057" lon="5.92646">
        <ele>1990.6</ele>
        <time>2020-08-11T06:55:38Z</time>
      </trkpt>
      <trkpt lat="45.14057" lon="5.92646">
        <ele>1990.4</ele>
        <time>2020-08-11T06:55:39Z</time>
      </trkpt>
      <trkpt lat="45.14058" lon="5.92643">
        <ele>1990.4</ele>
        <time>2020-08-11T06:55:40Z</time>
      </trkpt>
      <trkpt lat="45.14058" lon="5.92643">
        <ele>1990.4</ele>
        <time>2020-08-11T06:55:41Z</time>
      </trkpt>
      <trkpt lat="45.14058" lon="5.92643">
        <ele>1990.4</ele>
        <time>2020-08-11T06:55:42Z</time>
      </trkpt>
      <trkpt lat="45.14058" lon="5.92643">
        <ele>1990.4</ele>
        <time>2020-08-11T06:55:43Z</time>
      </trkpt>
      <trkpt lat="45.14058" lon="5.92643">
        <ele>1990.6</ele>
        <time>2020-08-11T06:55:44Z</time>
      </trkpt>
      <trkpt lat="45.14058" lon="5.92643">
        <ele>1990.4</ele>
        <time>2020-08-11T06:55:45Z</time>
      </trkpt>
      <trkpt lat="45.14058" lon="5.92643">
        <ele>1990.4</ele>
        <time>2020-08-11T06:55:46Z</time>
      </trkpt>
      <trkpt lat="45.14058" lon="5.92643">
        <ele>1990.4</ele>
        <time>2020-08-11T06:55:47Z</time>
      </trkpt>
      <trkpt lat="45.14058" lon="5.92643">
        <ele>1990.6</ele>
        <time>2020-08-11T06:55:48Z</time>
      </trkpt>
      <trkpt lat="45.14058" lon="5.92643">
        <ele>1990.6</ele>
        <time>2020-08-11T06:55:49Z</time>
      </trkpt>
      <trkpt lat="45.14058" lon="5.92643">
        <ele>1990.8</ele>
        <time>2020-08-11T06:55:50Z</time>
      </trkpt>
      <trkpt lat="45.14058" lon="5.92643">
        <ele>1990.8</ele>
        <time>2020-08-11T06:55:51Z</time>
      </trkpt>
      <trkpt lat="45.14058" lon="5.92643">
        <ele>1990.8</ele>
        <time>2020-08-11T06:55:52Z</time>
      </trkpt>
      <trkpt lat="45.14058" lon="5.92643">
        <ele>1991</ele>
        <time>2020-08-11T06:55:53Z</time>
      </trkpt>
      <trkpt lat="45.14058" lon="5.92643">
        <ele>1991</ele>
        <time>2020-08-11T06:55:54Z</time>
      </trkpt>
      <trkpt lat="45.14058" lon="5.92643">
        <ele>1990.8</ele>
        <time>2020-08-11T06:55:55Z</time>
      </trkpt>
      <trkpt lat="45.14058" lon="5.92643">
        <ele>1990.8</ele>
        <time>2020-08-11T06:55:56Z</time>
      </trkpt>
      <trkpt lat="45.14058" lon="5.92643">
        <ele>1990.8</ele>
        <time>2020-08-11T06:55:57Z</time>
      </trkpt>
      <trkpt lat="45.14058" lon="5.92643">
        <ele>1990.8</ele>
        <time>2020-08-11T06:55:58Z</time>
      </trkpt>
      <trkpt lat="45.14058" lon="5.92643">
        <ele>1990.8</ele>
        <time>2020-08-11T06:55:59Z</time>
      </trkpt>
      <trkpt lat="45.14058" lon="5.92643">
        <ele>1990.8</ele>
        <time>2020-08-11T06:56:00Z</time>
      </trkpt>
      <trkpt lat="45.14058" lon="5.92643">
        <ele>1990.6</ele>
        <time>2020-08-11T06:56:01Z</time>
      </trkpt>
      <trkpt lat="45.14058" lon="5.92643">
        <ele>1990.6</ele>
        <time>2020-08-11T06:56:02Z</time>
      </trkpt>
      <trkpt lat="45.14058" lon="5.92643">
        <ele>1990.8</ele>
        <time>2020-08-11T06:56:03Z</time>
      </trkpt>
      <trkpt lat="45.14058" lon="5.92643">
        <ele>1990.8</ele>
        <time>2020-08-11T06:56:04Z</time>
      </trkpt>
      <trkpt lat="45.14057" lon="5.92641">
        <ele>1990.6</ele>
        <time>2020-08-11T06:56:05Z</time>
      </trkpt>
      <trkpt lat="45.14057" lon="5.92641">
        <ele>1990.8</ele>
        <time>2020-08-11T06:56:06Z</time>
      </trkpt>
      <trkpt lat="45.14055" lon="5.92639">
        <ele>1991</ele>
        <time>2020-08-11T06:56:07Z</time>
      </trkpt>
      <trkpt lat="45.14055" lon="5.92639">
        <ele>1991.2</ele>
        <time>2020-08-11T06:56:08Z</time>
      </trkpt>
      <trkpt lat="45.14055" lon="5.92639">
        <ele>1991.4</ele>
        <time>2020-08-11T06:56:09Z</time>
      </trkpt>
      <trkpt lat="45.14054" lon="5.92638">
        <ele>1991.8</ele>
        <time>2020-08-11T06:56:10Z</time>
      </trkpt>
      <trkpt lat="45.14054" lon="5.92638">
        <ele>1992</ele>
        <time>2020-08-11T06:56:11Z</time>
      </trkpt>
      <trkpt lat="45.14054" lon="5.92638">
        <ele>1992.4</ele>
        <time>2020-08-11T06:56:12Z</time>
      </trkpt>
      <trkpt lat="45.14054" lon="5.92638">
        <ele>1992.6</ele>
        <time>2020-08-11T06:56:13Z</time>
      </trkpt>
      <trkpt lat="45.14052" lon="5.92642">
        <ele>1992.8</ele>
        <time>2020-08-11T06:56:14Z</time>
      </trkpt>
      <trkpt lat="45.14052" lon="5.92642">
        <ele>1993</ele>
        <time>2020-08-11T06:56:15Z</time>
      </trkpt>
      <trkpt lat="45.14052" lon="5.92645">
        <ele>1993.4</ele>
        <time>2020-08-11T06:56:16Z</time>
      </trkpt>
      <trkpt lat="45.14052" lon="5.92645">
        <ele>1993.6</ele>
        <time>2020-08-11T06:56:17Z</time>
      </trkpt>
      <trkpt lat="45.14052" lon="5.92645">
        <ele>1994</ele>
        <time>2020-08-11T06:56:18Z</time>
      </trkpt>
      <trkpt lat="45.14051" lon="5.92649">
        <ele>1994.2</ele>
        <time>2020-08-11T06:56:19Z</time>
      </trkpt>
      <trkpt lat="45.14051" lon="5.92649">
        <ele>1994.6</ele>
        <time>2020-08-11T06:56:20Z</time>
      </trkpt>
      <trkpt lat="45.14051" lon="5.92649">
        <ele>1995</ele>
        <time>2020-08-11T06:56:21Z</time>
      </trkpt>
      <trkpt lat="45.14051" lon="5.92649">
        <ele>1995.2</ele>
        <time>2020-08-11T06:56:22Z</time>
      </trkpt>
      <trkpt lat="45.1405" lon="5.92653">
        <ele>1995.4</ele>
        <time>2020-08-11T06:56:23Z</time>
      </trkpt>
      <trkpt lat="45.1405" lon="5.92653">
        <ele>1995.4</ele>
        <time>2020-08-11T06:56:24Z</time>
      </trkpt>
      <trkpt lat="45.14051" lon="5.92657">
        <ele>1995.4</ele>
        <time>2020-08-11T06:56:25Z</time>
      </trkpt>
      <trkpt lat="45.14051" lon="5.92661">
        <ele>1995.6</ele>
        <time>2020-08-11T06:56:26Z</time>
      </trkpt>
      <trkpt lat="45.14051" lon="5.92661">
        <ele>1995.6</ele>
        <time>2020-08-11T06:56:27Z</time>
      </trkpt>
      <trkpt lat="45.14051" lon="5.92661">
        <ele>1995.8</ele>
        <time>2020-08-11T06:56:28Z</time>
      </trkpt>
      <trkpt lat="45.14051" lon="5.92664">
        <ele>1996.2</ele>
        <time>2020-08-11T06:56:29Z</time>
      </trkpt>
      <trkpt lat="45.14051" lon="5.92664">
        <ele>1996.2</ele>
        <time>2020-08-11T06:56:30Z</time>
      </trkpt>
      <trkpt lat="45.14051" lon="5.92664">
        <ele>1996.4</ele>
        <time>2020-08-11T06:56:31Z</time>
      </trkpt>
      <trkpt lat="45.14052" lon="5.92667">
        <ele>1996.4</ele>
        <time>2020-08-11T06:56:32Z</time>
      </trkpt>
      <trkpt lat="45.14053" lon="5.9267">
        <ele>1996.4</ele>
        <time>2020-08-11T06:56:33Z</time>
      </trkpt>
      <trkpt lat="45.14053" lon="5.9267">
        <ele>1996.6</ele>
        <time>2020-08-11T06:56:34Z</time>
      </trkpt>
      <trkpt lat="45.14053" lon="5.9267">
        <ele>1996.6</ele>
        <time>2020-08-11T06:56:35Z</time>
      </trkpt>
      <trkpt lat="45.14054" lon="5.92673">
        <ele>1996.8</ele>
        <time>2020-08-11T06:56:36Z</time>
      </trkpt>
      <trkpt lat="45.14054" lon="5.92673">
        <ele>1997</ele>
        <time>2020-08-11T06:56:37Z</time>
      </trkpt>
      <trkpt lat="45.14054" lon="5.92673">
        <ele>1996.8</ele>
        <time>2020-08-11T06:56:38Z</time>
      </trkpt>
      <trkpt lat="45.14054" lon="5.92674">
        <ele>1996.8</ele>
        <time>2020-08-11T06:56:39Z</time>
      </trkpt>
      <trkpt lat="45.14055" lon="5.92674">
        <ele>1997.2</ele>
        <time>2020-08-11T06:56:40Z</time>
      </trkpt>
      <trkpt lat="45.14055" lon="5.92675">
        <ele>1997.4</ele>
        <time>2020-08-11T06:56:41Z</time>
      </trkpt>
      <trkpt lat="45.14056" lon="5.92676">
        <ele>1997.8</ele>
        <time>2020-08-11T06:56:42Z</time>
      </trkpt>
      <trkpt lat="45.14057" lon="5.92677">
        <ele>1998</ele>
        <time>2020-08-11T06:56:43Z</time>
      </trkpt>
      <trkpt lat="45.14057" lon="5.92677">
        <ele>1998.2</ele>
        <time>2020-08-11T06:56:44Z</time>
      </trkpt>
      <trkpt lat="45.14057" lon="5.92677">
        <ele>1998.4</ele>
        <time>2020-08-11T06:56:45Z</time>
      </trkpt>
      <trkpt lat="45.14057" lon="5.92677">
        <ele>1998.8</ele>
        <time>2020-08-11T06:56:46Z</time>
      </trkpt>
      <trkpt lat="45.1406" lon="5.92678">
        <ele>1999.2</ele>
        <time>2020-08-11T06:56:47Z</time>
      </trkpt>
      <trkpt lat="45.1406" lon="5.92678">
        <ele>1999.4</ele>
        <time>2020-08-11T06:56:48Z</time>
      </trkpt>
      <trkpt lat="45.1406" lon="5.92678">
        <ele>1999.8</ele>
        <time>2020-08-11T06:56:49Z</time>
      </trkpt>
      <trkpt lat="45.1406" lon="5.92678">
        <ele>2000</ele>
        <time>2020-08-11T06:56:50Z</time>
      </trkpt>
      <trkpt lat="45.14061" lon="5.92681">
        <ele>2000.2</ele>
        <time>2020-08-11T06:56:51Z</time>
      </trkpt>
      <trkpt lat="45.14061" lon="5.92681">
        <ele>2000.4</ele>
        <time>2020-08-11T06:56:52Z</time>
      </trkpt>
      <trkpt lat="45.14061" lon="5.92684">
        <ele>2000.6</ele>
        <time>2020-08-11T06:56:53Z</time>
      </trkpt>
      <trkpt lat="45.14061" lon="5.92684">
        <ele>2001</ele>
        <time>2020-08-11T06:56:54Z</time>
      </trkpt>
      <trkpt lat="45.14061" lon="5.92684">
        <ele>2001.2</ele>
        <time>2020-08-11T06:56:55Z</time>
      </trkpt>
      <trkpt lat="45.14061" lon="5.92685">
        <ele>2001.4</ele>
        <time>2020-08-11T06:56:56Z</time>
      </trkpt>
      <trkpt lat="45.14061" lon="5.92686">
        <ele>2002</ele>
        <time>2020-08-11T06:56:57Z</time>
      </trkpt>
      <trkpt lat="45.14061" lon="5.92688">
        <ele>2002.2</ele>
        <time>2020-08-11T06:56:58Z</time>
      </trkpt>
      <trkpt lat="45.14061" lon="5.92689">
        <ele>2002.4</ele>
        <time>2020-08-11T06:56:59Z</time>
      </trkpt>
      <trkpt lat="45.14061" lon="5.9269">
        <ele>2002.6</ele>
        <time>2020-08-11T06:57:00Z</time>
      </trkpt>
      <trkpt lat="45.14061" lon="5.92692">
        <ele>2002.8</ele>
        <time>2020-08-11T06:57:01Z</time>
      </trkpt>
      <trkpt lat="45.14061" lon="5.92692">
        <ele>2003</ele>
        <time>2020-08-11T06:57:02Z</time>
      </trkpt>
      <trkpt lat="45.14062" lon="5.92694">
        <ele>2003.4</ele>
        <time>2020-08-11T06:57:03Z</time>
      </trkpt>
      <trkpt lat="45.14063" lon="5.92697">
        <ele>2003.6</ele>
        <time>2020-08-11T06:57:04Z</time>
      </trkpt>
      <trkpt lat="45.14063" lon="5.92697">
        <ele>2003.8</ele>
        <time>2020-08-11T06:57:05Z</time>
      </trkpt>
      <trkpt lat="45.14063" lon="5.92697">
        <ele>2004</ele>
        <time>2020-08-11T06:57:06Z</time>
      </trkpt>
      <trkpt lat="45.14064" lon="5.927">
        <ele>2004.2</ele>
        <time>2020-08-11T06:57:07Z</time>
      </trkpt>
      <trkpt lat="45.14064" lon="5.927">
        <ele>2004.4</ele>
        <time>2020-08-11T06:57:08Z</time>
      </trkpt>
      <trkpt lat="45.14066" lon="5.92704">
        <ele>2004.4</ele>
        <time>2020-08-11T06:57:09Z</time>
      </trkpt>
      <trkpt lat="45.14067" lon="5.92706">
        <ele>2004.6</ele>
        <time>2020-08-11T06:57:10Z</time>
      </trkpt>
      <trkpt lat="45.14069" lon="5.92708">
        <ele>2004.6</ele>
        <time>2020-08-11T06:57:11Z</time>
      </trkpt>
      <trkpt lat="45.1407" lon="5.9271">
        <ele>2004.4</ele>
        <time>2020-08-11T06:57:12Z</time>
      </trkpt>
      <trkpt lat="45.14071" lon="5.92712">
        <ele>2004.4</ele>
        <time>2020-08-11T06:57:13Z</time>
      </trkpt>
      <trkpt lat="45.14071" lon="5.92712">
        <ele>2004.6</ele>
        <time>2020-08-11T06:57:14Z</time>
      </trkpt>
      <trkpt lat="45.14074" lon="5.92716">
        <ele>2004.8</ele>
        <time>2020-08-11T06:57:15Z</time>
      </trkpt>
      <trkpt lat="45.14074" lon="5.92716">
        <ele>2005</ele>
        <time>2020-08-11T06:57:16Z</time>
      </trkpt>
      <trkpt lat="45.14074" lon="5.92716">
        <ele>2005</ele>
        <time>2020-08-11T06:57:17Z</time>
      </trkpt>
      <trkpt lat="45.14075" lon="5.9272">
        <ele>2005.2</ele>
        <time>2020-08-11T06:57:18Z</time>
      </trkpt>
      <trkpt lat="45.14075" lon="5.9272">
        <ele>2005.4</ele>
        <time>2020-08-11T06:57:19Z</time>
      </trkpt>
      <trkpt lat="45.14075" lon="5.9272">
        <ele>2005.8</ele>
        <time>2020-08-11T06:57:20Z</time>
      </trkpt>
      <trkpt lat="45.14075" lon="5.9272">
        <ele>2006</ele>
        <time>2020-08-11T06:57:21Z</time>
      </trkpt>
      <trkpt lat="45.14075" lon="5.92722">
        <ele>2006.2</ele>
        <time>2020-08-11T06:57:22Z</time>
      </trkpt>
      <trkpt lat="45.14075" lon="5.92722">
        <ele>2006.4</ele>
        <time>2020-08-11T06:57:23Z</time>
      </trkpt>
      <trkpt lat="45.14074" lon="5.92725">
        <ele>2006.8</ele>
        <time>2020-08-11T06:57:24Z</time>
      </trkpt>
      <trkpt lat="45.14074" lon="5.92725">
        <ele>2007</ele>
        <time>2020-08-11T06:57:25Z</time>
      </trkpt>
      <trkpt lat="45.14073" lon="5.92727">
        <ele>2007</ele>
        <time>2020-08-11T06:57:26Z</time>
      </trkpt>
      <trkpt lat="45.14073" lon="5.92727">
        <ele>2007.2</ele>
        <time>2020-08-11T06:57:27Z</time>
      </trkpt>
      <trkpt lat="45.14072" lon="5.9273">
        <ele>2007</ele>
        <time>2020-08-11T06:57:28Z</time>
      </trkpt>
      <trkpt lat="45.14072" lon="5.9273">
        <ele>2007.2</ele>
        <time>2020-08-11T06:57:29Z</time>
      </trkpt>
      <trkpt lat="45.14072" lon="5.92732">
        <ele>2007.4</ele>
        <time>2020-08-11T06:57:30Z</time>
      </trkpt>
      <trkpt lat="45.14072" lon="5.92732">
        <ele>2007.6</ele>
        <time>2020-08-11T06:57:31Z</time>
      </trkpt>
      <trkpt lat="45.14071" lon="5.92736">
        <ele>2007.8</ele>
        <time>2020-08-11T06:57:32Z</time>
      </trkpt>
      <trkpt lat="45.14071" lon="5.9274">
        <ele>2007.8</ele>
        <time>2020-08-11T06:57:33Z</time>
      </trkpt>
      <trkpt lat="45.14071" lon="5.9274">
        <ele>2008</ele>
        <time>2020-08-11T06:57:34Z</time>
      </trkpt>
      <trkpt lat="45.14072" lon="5.92744">
        <ele>2008.4</ele>
        <time>2020-08-11T06:57:35Z</time>
      </trkpt>
      <trkpt lat="45.14072" lon="5.92744">
        <ele>2008.6</ele>
        <time>2020-08-11T06:57:36Z</time>
      </trkpt>
      <trkpt lat="45.14072" lon="5.92744">
        <ele>2008.8</ele>
        <time>2020-08-11T06:57:37Z</time>
      </trkpt>
      <trkpt lat="45.14072" lon="5.92747">
        <ele>2009</ele>
        <time>2020-08-11T06:57:38Z</time>
      </trkpt>
      <trkpt lat="45.14072" lon="5.92747">
        <ele>2009.2</ele>
        <time>2020-08-11T06:57:39Z</time>
      </trkpt>
      <trkpt lat="45.14072" lon="5.92747">
        <ele>2009</ele>
        <time>2020-08-11T06:57:40Z</time>
      </trkpt>
      <trkpt lat="45.14072" lon="5.92747">
        <ele>2009.2</ele>
        <time>2020-08-11T06:57:41Z</time>
      </trkpt>
      <trkpt lat="45.14073" lon="5.92749">
        <ele>2009.6</ele>
        <time>2020-08-11T06:57:42Z</time>
      </trkpt>
      <trkpt lat="45.14073" lon="5.92749">
        <ele>2010</ele>
        <time>2020-08-11T06:57:43Z</time>
      </trkpt>
      <trkpt lat="45.14073" lon="5.92749">
        <ele>2010.2</ele>
        <time>2020-08-11T06:57:44Z</time>
      </trkpt>
      <trkpt lat="45.14073" lon="5.92749">
        <ele>2010.8</ele>
        <time>2020-08-11T06:57:45Z</time>
      </trkpt>
      <trkpt lat="45.14074" lon="5.92752">
        <ele>2011.4</ele>
        <time>2020-08-11T06:57:46Z</time>
      </trkpt>
      <trkpt lat="45.14074" lon="5.92756">
        <ele>2011.2</ele>
        <time>2020-08-11T06:57:47Z</time>
      </trkpt>
      <trkpt lat="45.14074" lon="5.92756">
        <ele>2011.2</ele>
        <time>2020-08-11T06:57:48Z</time>
      </trkpt>
      <trkpt lat="45.14074" lon="5.92756">
        <ele>2011.4</ele>
        <time>2020-08-11T06:57:49Z</time>
      </trkpt>
      <trkpt lat="45.14074" lon="5.92759">
        <ele>2011.4</ele>
        <time>2020-08-11T06:57:50Z</time>
      </trkpt>
      <trkpt lat="45.14074" lon="5.92759">
        <ele>2011.6</ele>
        <time>2020-08-11T06:57:51Z</time>
      </trkpt>
      <trkpt lat="45.14074" lon="5.92759">
        <ele>2012</ele>
        <time>2020-08-11T06:57:52Z</time>
      </trkpt>
      <trkpt lat="45.14074" lon="5.92763">
        <ele>2012.2</ele>
        <time>2020-08-11T06:57:53Z</time>
      </trkpt>
      <trkpt lat="45.14075" lon="5.92766">
        <ele>2012.4</ele>
        <time>2020-08-11T06:57:54Z</time>
      </trkpt>
      <trkpt lat="45.14075" lon="5.92766">
        <ele>2012.6</ele>
        <time>2020-08-11T06:57:55Z</time>
      </trkpt>
      <trkpt lat="45.14075" lon="5.92769">
        <ele>2012.8</ele>
        <time>2020-08-11T06:57:56Z</time>
      </trkpt>
      <trkpt lat="45.14075" lon="5.92769">
        <ele>2013</ele>
        <time>2020-08-11T06:57:57Z</time>
      </trkpt>
      <trkpt lat="45.14073" lon="5.92771">
        <ele>2013.4</ele>
        <time>2020-08-11T06:57:58Z</time>
      </trkpt>
      <trkpt lat="45.14073" lon="5.92771">
        <ele>2013.6</ele>
        <time>2020-08-11T06:57:59Z</time>
      </trkpt>
      <trkpt lat="45.14073" lon="5.92771">
        <ele>2013.8</ele>
        <time>2020-08-11T06:58:00Z</time>
      </trkpt>
      <trkpt lat="45.14073" lon="5.92773">
        <ele>2014</ele>
        <time>2020-08-11T06:58:01Z</time>
      </trkpt>
      <trkpt lat="45.14073" lon="5.92775">
        <ele>2014.4</ele>
        <time>2020-08-11T06:58:02Z</time>
      </trkpt>
      <trkpt lat="45.14072" lon="5.92776">
        <ele>2014.8</ele>
        <time>2020-08-11T06:58:03Z</time>
      </trkpt>
      <trkpt lat="45.14072" lon="5.92778">
        <ele>2015</ele>
        <time>2020-08-11T06:58:04Z</time>
      </trkpt>
      <trkpt lat="45.14072" lon="5.92779">
        <ele>2015.2</ele>
        <time>2020-08-11T06:58:05Z</time>
      </trkpt>
      <trkpt lat="45.14071" lon="5.92781">
        <ele>2015.6</ele>
        <time>2020-08-11T06:58:06Z</time>
      </trkpt>
      <trkpt lat="45.14071" lon="5.92782">
        <ele>2016</ele>
        <time>2020-08-11T06:58:07Z</time>
      </trkpt>
      <trkpt lat="45.14071" lon="5.92784">
        <ele>2016.2</ele>
        <time>2020-08-11T06:58:08Z</time>
      </trkpt>
      <trkpt lat="45.14071" lon="5.92786">
        <ele>2016.4</ele>
        <time>2020-08-11T06:58:09Z</time>
      </trkpt>
      <trkpt lat="45.14071" lon="5.92788">
        <ele>2016.4</ele>
        <time>2020-08-11T06:58:10Z</time>
      </trkpt>
      <trkpt lat="45.14072" lon="5.9279">
        <ele>2016.6</ele>
        <time>2020-08-11T06:58:11Z</time>
      </trkpt>
      <trkpt lat="45.14072" lon="5.92792">
        <ele>2016.8</ele>
        <time>2020-08-11T06:58:12Z</time>
      </trkpt>
      <trkpt lat="45.14072" lon="5.92792">
        <ele>2016.8</ele>
        <time>2020-08-11T06:58:13Z</time>
      </trkpt>
      <trkpt lat="45.14073" lon="5.92795">
        <ele>2017.4</ele>
        <time>2020-08-11T06:58:14Z</time>
      </trkpt>
      <trkpt lat="45.14073" lon="5.92795">
        <ele>2017.6</ele>
        <time>2020-08-11T06:58:15Z</time>
      </trkpt>
      <trkpt lat="45.14073" lon="5.92795">
        <ele>2017.6</ele>
        <time>2020-08-11T06:58:16Z</time>
      </trkpt>
      <trkpt lat="45.14073" lon="5.92796">
        <ele>2018</ele>
        <time>2020-08-11T06:58:17Z</time>
      </trkpt>
      <trkpt lat="45.14072" lon="5.92796">
        <ele>2018.2</ele>
        <time>2020-08-11T06:58:18Z</time>
      </trkpt>
      <trkpt lat="45.14072" lon="5.92797">
        <ele>2018.4</ele>
        <time>2020-08-11T06:58:19Z</time>
      </trkpt>
      <trkpt lat="45.14072" lon="5.92797">
        <ele>2018.4</ele>
        <time>2020-08-11T06:58:20Z</time>
      </trkpt>
      <trkpt lat="45.14071" lon="5.92797">
        <ele>2019</ele>
        <time>2020-08-11T06:58:21Z</time>
      </trkpt>
      <trkpt lat="45.14071" lon="5.92798">
        <ele>2019</ele>
        <time>2020-08-11T06:58:22Z</time>
      </trkpt>
      <trkpt lat="45.14071" lon="5.92798">
        <ele>2019.4</ele>
        <time>2020-08-11T06:58:23Z</time>
      </trkpt>
      <trkpt lat="45.1407" lon="5.92799">
        <ele>2019.6</ele>
        <time>2020-08-11T06:58:24Z</time>
      </trkpt>
      <trkpt lat="45.1407" lon="5.92799">
        <ele>2019.8</ele>
        <time>2020-08-11T06:58:25Z</time>
      </trkpt>
      <trkpt lat="45.1407" lon="5.928">
        <ele>2020</ele>
        <time>2020-08-11T06:58:26Z</time>
      </trkpt>
      <trkpt lat="45.14068" lon="5.92798">
        <ele>2020.6</ele>
        <time>2020-08-11T06:58:27Z</time>
      </trkpt>
      <trkpt lat="45.14068" lon="5.92798">
        <ele>2020.8</ele>
        <time>2020-08-11T06:58:28Z</time>
      </trkpt>
      <trkpt lat="45.14068" lon="5.92798">
        <ele>2021</ele>
        <time>2020-08-11T06:58:29Z</time>
      </trkpt>
      <trkpt lat="45.14068" lon="5.92798">
        <ele>2021.2</ele>
        <time>2020-08-11T06:58:30Z</time>
      </trkpt>
      <trkpt lat="45.14068" lon="5.92798">
        <ele>2021.4</ele>
        <time>2020-08-11T06:58:31Z</time>
      </trkpt>
      <trkpt lat="45.14067" lon="5.92796">
        <ele>2021.8</ele>
        <time>2020-08-11T06:58:32Z</time>
      </trkpt>
      <trkpt lat="45.14067" lon="5.92796">
        <ele>2022</ele>
        <time>2020-08-11T06:58:33Z</time>
      </trkpt>
      <trkpt lat="45.14067" lon="5.92795">
        <ele>2022</ele>
        <time>2020-08-11T06:58:34Z</time>
      </trkpt>
      <trkpt lat="45.14067" lon="5.92794">
        <ele>2022.4</ele>
        <time>2020-08-11T06:58:35Z</time>
      </trkpt>
      <trkpt lat="45.14066" lon="5.92794">
        <ele>2022.4</ele>
        <time>2020-08-11T06:58:36Z</time>
      </trkpt>
      <trkpt lat="45.14066" lon="5.92793">
        <ele>2022.6</ele>
        <time>2020-08-11T06:58:37Z</time>
      </trkpt>
      <trkpt lat="45.14066" lon="5.92793">
        <ele>2023</ele>
        <time>2020-08-11T06:58:38Z</time>
      </trkpt>
      <trkpt lat="45.14065" lon="5.92792">
        <ele>2023.2</ele>
        <time>2020-08-11T06:58:39Z</time>
      </trkpt>
      <trkpt lat="45.14065" lon="5.92792">
        <ele>2023.4</ele>
        <time>2020-08-11T06:58:40Z</time>
      </trkpt>
      <trkpt lat="45.14065" lon="5.92791">
        <ele>2023.4</ele>
        <time>2020-08-11T06:58:41Z</time>
      </trkpt>
      <trkpt lat="45.14064" lon="5.92788">
        <ele>2023.6</ele>
        <time>2020-08-11T06:58:42Z</time>
      </trkpt>
      <trkpt lat="45.14064" lon="5.92788">
        <ele>2023.8</ele>
        <time>2020-08-11T06:58:43Z</time>
      </trkpt>
      <trkpt lat="45.14063" lon="5.92785">
        <ele>2024</ele>
        <time>2020-08-11T06:58:44Z</time>
      </trkpt>
      <trkpt lat="45.14063" lon="5.92785">
        <ele>2024.4</ele>
        <time>2020-08-11T06:58:45Z</time>
      </trkpt>
      <trkpt lat="45.14063" lon="5.92785">
        <ele>2024.6</ele>
        <time>2020-08-11T06:58:46Z</time>
      </trkpt>
      <trkpt lat="45.14063" lon="5.92785">
        <ele>2025</ele>
        <time>2020-08-11T06:58:47Z</time>
      </trkpt>
      <trkpt lat="45.14063" lon="5.92785">
        <ele>2025.4</ele>
        <time>2020-08-11T06:58:48Z</time>
      </trkpt>
      <trkpt lat="45.14061" lon="5.92784">
        <ele>2025.6</ele>
        <time>2020-08-11T06:58:49Z</time>
      </trkpt>
      <trkpt lat="45.14061" lon="5.92784">
        <ele>2025.8</ele>
        <time>2020-08-11T06:58:50Z</time>
      </trkpt>
      <trkpt lat="45.14061" lon="5.92784">
        <ele>2025.8</ele>
        <time>2020-08-11T06:58:51Z</time>
      </trkpt>
      <trkpt lat="45.14061" lon="5.92784">
        <ele>2026.4</ele>
        <time>2020-08-11T06:58:52Z</time>
      </trkpt>
      <trkpt lat="45.14061" lon="5.92784">
        <ele>2026.6</ele>
        <time>2020-08-11T06:58:53Z</time>
      </trkpt>
      <trkpt lat="45.14059" lon="5.92785">
        <ele>2026.6</ele>
        <time>2020-08-11T06:58:54Z</time>
      </trkpt>
      <trkpt lat="45.14059" lon="5.92785">
        <ele>2026.8</ele>
        <time>2020-08-11T06:58:55Z</time>
      </trkpt>
      <trkpt lat="45.14057" lon="5.92785">
        <ele>2027</ele>
        <time>2020-08-11T06:58:56Z</time>
      </trkpt>
      <trkpt lat="45.14057" lon="5.92785">
        <ele>2027.2</ele>
        <time>2020-08-11T06:58:57Z</time>
      </trkpt>
      <trkpt lat="45.14057" lon="5.92785">
        <ele>2027.4</ele>
        <time>2020-08-11T06:58:58Z</time>
      </trkpt>
      <trkpt lat="45.14057" lon="5.92785">
        <ele>2027.6</ele>
        <time>2020-08-11T06:58:59Z</time>
      </trkpt>
      <trkpt lat="45.14057" lon="5.92785">
        <ele>2028</ele>
        <time>2020-08-11T06:59:00Z</time>
      </trkpt>
      <trkpt lat="45.14057" lon="5.92785">
        <ele>2028.2</ele>
        <time>2020-08-11T06:59:01Z</time>
      </trkpt>
      <trkpt lat="45.14055" lon="5.92787">
        <ele>2028.2</ele>
        <time>2020-08-11T06:59:02Z</time>
      </trkpt>
      <trkpt lat="45.14055" lon="5.92787">
        <ele>2028.6</ele>
        <time>2020-08-11T06:59:03Z</time>
      </trkpt>
      <trkpt lat="45.14055" lon="5.92787">
        <ele>2029</ele>
        <time>2020-08-11T06:59:04Z</time>
      </trkpt>
      <trkpt lat="45.14055" lon="5.9279">
        <ele>2029.2</ele>
        <time>2020-08-11T06:59:05Z</time>
      </trkpt>
      <trkpt lat="45.14055" lon="5.9279">
        <ele>2029.2</ele>
        <time>2020-08-11T06:59:06Z</time>
      </trkpt>
      <trkpt lat="45.14054" lon="5.92793">
        <ele>2029.4</ele>
        <time>2020-08-11T06:59:07Z</time>
      </trkpt>
      <trkpt lat="45.14054" lon="5.92793">
        <ele>2029.8</ele>
        <time>2020-08-11T06:59:08Z</time>
      </trkpt>
      <trkpt lat="45.14054" lon="5.92797">
        <ele>2030</ele>
        <time>2020-08-11T06:59:09Z</time>
      </trkpt>
      <trkpt lat="45.14054" lon="5.92797">
        <ele>2030.6</ele>
        <time>2020-08-11T06:59:10Z</time>
      </trkpt>
      <trkpt lat="45.14054" lon="5.92797">
        <ele>2031</ele>
        <time>2020-08-11T06:59:11Z</time>
      </trkpt>
      <trkpt lat="45.14054" lon="5.92797">
        <ele>2031</ele>
        <time>2020-08-11T06:59:12Z</time>
      </trkpt>
      <trkpt lat="45.14054" lon="5.928">
        <ele>2031</ele>
        <time>2020-08-11T06:59:13Z</time>
      </trkpt>
      <trkpt lat="45.14054" lon="5.928">
        <ele>2031.2</ele>
        <time>2020-08-11T06:59:14Z</time>
      </trkpt>
      <trkpt lat="45.14052" lon="5.92802">
        <ele>2031.2</ele>
        <time>2020-08-11T06:59:15Z</time>
      </trkpt>
      <trkpt lat="45.14052" lon="5.92802">
        <ele>2031.6</ele>
        <time>2020-08-11T06:59:16Z</time>
      </trkpt>
      <trkpt lat="45.14052" lon="5.92802">
        <ele>2031.8</ele>
        <time>2020-08-11T06:59:17Z</time>
      </trkpt>
      <trkpt lat="45.14052" lon="5.92805">
        <ele>2031.8</ele>
        <time>2020-08-11T06:59:18Z</time>
      </trkpt>
      <trkpt lat="45.14052" lon="5.92805">
        <ele>2032.2</ele>
        <time>2020-08-11T06:59:19Z</time>
      </trkpt>
      <trkpt lat="45.14052" lon="5.92805">
        <ele>2032.4</ele>
        <time>2020-08-11T06:59:20Z</time>
      </trkpt>
      <trkpt lat="45.14052" lon="5.92809">
        <ele>2032.6</ele>
        <time>2020-08-11T06:59:21Z</time>
      </trkpt>
      <trkpt lat="45.14052" lon="5.92809">
        <ele>2032.8</ele>
        <time>2020-08-11T06:59:22Z</time>
      </trkpt>
      <trkpt lat="45.14052" lon="5.92809">
        <ele>2033</ele>
        <time>2020-08-11T06:59:23Z</time>
      </trkpt>
      <trkpt lat="45.14053" lon="5.92811">
        <ele>2033.2</ele>
        <time>2020-08-11T06:59:24Z</time>
      </trkpt>
      <trkpt lat="45.14053" lon="5.92815">
        <ele>2033.4</ele>
        <time>2020-08-11T06:59:25Z</time>
      </trkpt>
      <trkpt lat="45.14053" lon="5.92815">
        <ele>2033.8</ele>
        <time>2020-08-11T06:59:26Z</time>
      </trkpt>
      <trkpt lat="45.14053" lon="5.92815">
        <ele>2034</ele>
        <time>2020-08-11T06:59:27Z</time>
      </trkpt>
      <trkpt lat="45.14054" lon="5.92817">
        <ele>2034.2</ele>
        <time>2020-08-11T06:59:28Z</time>
      </trkpt>
      <trkpt lat="45.14054" lon="5.92817">
        <ele>2034.4</ele>
        <time>2020-08-11T06:59:29Z</time>
      </trkpt>
      <trkpt lat="45.14054" lon="5.92817">
        <ele>2034.6</ele>
        <time>2020-08-11T06:59:30Z</time>
      </trkpt>
      <trkpt lat="45.14056" lon="5.92819">
        <ele>2034.8</ele>
        <time>2020-08-11T06:59:31Z</time>
      </trkpt>
      <trkpt lat="45.14056" lon="5.92819">
        <ele>2035</ele>
        <time>2020-08-11T06:59:32Z</time>
      </trkpt>
      <trkpt lat="45.14056" lon="5.92819">
        <ele>2035</ele>
        <time>2020-08-11T06:59:33Z</time>
      </trkpt>
      <trkpt lat="45.14056" lon="5.92819">
        <ele>2035.2</ele>
        <time>2020-08-11T06:59:34Z</time>
      </trkpt>
      <trkpt lat="45.14057" lon="5.92821">
        <ele>2035.6</ele>
        <time>2020-08-11T06:59:35Z</time>
      </trkpt>
      <trkpt lat="45.14057" lon="5.92821">
        <ele>2036</ele>
        <time>2020-08-11T06:59:36Z</time>
      </trkpt>
      <trkpt lat="45.14058" lon="5.92823">
        <ele>2036.2</ele>
        <time>2020-08-11T06:59:37Z</time>
      </trkpt>
      <trkpt lat="45.14058" lon="5.92823">
        <ele>2036.4</ele>
        <time>2020-08-11T06:59:38Z</time>
      </trkpt>
      <trkpt lat="45.14058" lon="5.92823">
        <ele>2036.6</ele>
        <time>2020-08-11T06:59:39Z</time>
      </trkpt>
      <trkpt lat="45.14058" lon="5.92827">
        <ele>2036.8</ele>
        <time>2020-08-11T06:59:40Z</time>
      </trkpt>
      <trkpt lat="45.14059" lon="5.9283">
        <ele>2037</ele>
        <time>2020-08-11T06:59:41Z</time>
      </trkpt>
      <trkpt lat="45.1406" lon="5.92833">
        <ele>2037.2</ele>
        <time>2020-08-11T06:59:42Z</time>
      </trkpt>
      <trkpt lat="45.1406" lon="5.92833">
        <ele>2037.2</ele>
        <time>2020-08-11T06:59:43Z</time>
      </trkpt>
      <trkpt lat="45.1406" lon="5.92833">
        <ele>2037.2</ele>
        <time>2020-08-11T06:59:44Z</time>
      </trkpt>
      <trkpt lat="45.1406" lon="5.92837">
        <ele>2037.2</ele>
        <time>2020-08-11T06:59:45Z</time>
      </trkpt>
      <trkpt lat="45.1406" lon="5.92837">
        <ele>2037.2</ele>
        <time>2020-08-11T06:59:46Z</time>
      </trkpt>
      <trkpt lat="45.14061" lon="5.92841">
        <ele>2037.2</ele>
        <time>2020-08-11T06:59:47Z</time>
      </trkpt>
      <trkpt lat="45.14061" lon="5.92845">
        <ele>2037.2</ele>
        <time>2020-08-11T06:59:48Z</time>
      </trkpt>
      <trkpt lat="45.14061" lon="5.92845">
        <ele>2037.2</ele>
        <time>2020-08-11T06:59:49Z</time>
      </trkpt>
      <trkpt lat="45.14061" lon="5.92845">
        <ele>2037.4</ele>
        <time>2020-08-11T06:59:50Z</time>
      </trkpt>
      <trkpt lat="45.14063" lon="5.92848">
        <ele>2037.4</ele>
        <time>2020-08-11T06:59:51Z</time>
      </trkpt>
      <trkpt lat="45.14063" lon="5.92848">
        <ele>2037.6</ele>
        <time>2020-08-11T06:59:52Z</time>
      </trkpt>
      <trkpt lat="45.14063" lon="5.92848">
        <ele>2037.8</ele>
        <time>2020-08-11T06:59:53Z</time>
      </trkpt>
      <trkpt lat="45.14065" lon="5.92849">
        <ele>2038</ele>
        <time>2020-08-11T06:59:54Z</time>
      </trkpt>
      <trkpt lat="45.14065" lon="5.92849">
        <ele>2038.4</ele>
        <time>2020-08-11T06:59:55Z</time>
      </trkpt>
      <trkpt lat="45.14065" lon="5.92849">
        <ele>2038.2</ele>
        <time>2020-08-11T06:59:56Z</time>
      </trkpt>
      <trkpt lat="45.14065" lon="5.92849">
        <ele>2038</ele>
        <time>2020-08-11T06:59:57Z</time>
      </trkpt>
      <trkpt lat="45.14065" lon="5.92849">
        <ele>2038</ele>
        <time>2020-08-11T06:59:58Z</time>
      </trkpt>
      <trkpt lat="45.14065" lon="5.92849">
        <ele>2038</ele>
        <time>2020-08-11T06:59:59Z</time>
      </trkpt>
      <trkpt lat="45.14065" lon="5.92849">
        <ele>2037.8</ele>
        <time>2020-08-11T07:00:01Z</time>
      </trkpt>
      <trkpt lat="45.14065" lon="5.92849">
        <ele>2037.6</ele>
        <time>2020-08-11T07:00:02Z</time>
      </trkpt>
      <trkpt lat="45.14065" lon="5.92849">
        <ele>2037.6</ele>
        <time>2020-08-11T07:00:03Z</time>
      </trkpt>
      <trkpt lat="45.14065" lon="5.92849">
        <ele>2037.8</ele>
        <time>2020-08-11T07:00:04Z</time>
      </trkpt>
      <trkpt lat="45.14065" lon="5.92849">
        <ele>2038</ele>
        <time>2020-08-11T07:00:05Z</time>
      </trkpt>
      <trkpt lat="45.14065" lon="5.92849">
        <ele>2037.6</ele>
        <time>2020-08-11T07:00:06Z</time>
      </trkpt>
      <trkpt lat="45.14065" lon="5.92849">
        <ele>2037.6</ele>
        <time>2020-08-11T07:00:07Z</time>
      </trkpt>
      <trkpt lat="45.14065" lon="5.92849">
        <ele>2037.4</ele>
        <time>2020-08-11T07:00:08Z</time>
      </trkpt>
      <trkpt lat="45.14065" lon="5.92849">
        <ele>2037.2</ele>
        <time>2020-08-11T07:00:09Z</time>
      </trkpt>
      <trkpt lat="45.14065" lon="5.92849">
        <ele>2037</ele>
        <time>2020-08-11T07:00:10Z</time>
      </trkpt>
      <trkpt lat="45.14067" lon="5.92849">
        <ele>2037</ele>
        <time>2020-08-11T07:00:11Z</time>
      </trkpt>
      <trkpt lat="45.14067" lon="5.92849">
        <ele>2037</ele>
        <time>2020-08-11T07:00:12Z</time>
      </trkpt>
      <trkpt lat="45.14069" lon="5.92851">
        <ele>2037</ele>
        <time>2020-08-11T07:00:13Z</time>
      </trkpt>
      <trkpt lat="45.14069" lon="5.92851">
        <ele>2037.2</ele>
        <time>2020-08-11T07:00:14Z</time>
      </trkpt>
      <trkpt lat="45.1407" lon="5.92853">
        <ele>2037.4</ele>
        <time>2020-08-11T07:00:15Z</time>
      </trkpt>
      <trkpt lat="45.1407" lon="5.92853">
        <ele>2037.6</ele>
        <time>2020-08-11T07:00:16Z</time>
      </trkpt>
      <trkpt lat="45.14072" lon="5.92856">
        <ele>2037.8</ele>
        <time>2020-08-11T07:00:17Z</time>
      </trkpt>
      <trkpt lat="45.14072" lon="5.92856">
        <ele>2038</ele>
        <time>2020-08-11T07:00:18Z</time>
      </trkpt>
      <trkpt lat="45.14073" lon="5.92858">
        <ele>2038.2</ele>
        <time>2020-08-11T07:00:19Z</time>
      </trkpt>
      <trkpt lat="45.14073" lon="5.92858">
        <ele>2038.4</ele>
        <time>2020-08-11T07:00:20Z</time>
      </trkpt>
      <trkpt lat="45.14074" lon="5.92862">
        <ele>2038.4</ele>
        <time>2020-08-11T07:00:21Z</time>
      </trkpt>
      <trkpt lat="45.14074" lon="5.92862">
        <ele>2038.6</ele>
        <time>2020-08-11T07:00:22Z</time>
      </trkpt>
      <trkpt lat="45.14075" lon="5.92865">
        <ele>2038.8</ele>
        <time>2020-08-11T07:00:23Z</time>
      </trkpt>
      <trkpt lat="45.14075" lon="5.92865">
        <ele>2039.2</ele>
        <time>2020-08-11T07:00:24Z</time>
      </trkpt>
      <trkpt lat="45.14076" lon="5.92867">
        <ele>2039.4</ele>
        <time>2020-08-11T07:00:25Z</time>
      </trkpt>
      <trkpt lat="45.14076" lon="5.92867">
        <ele>2039.6</ele>
        <time>2020-08-11T07:00:26Z</time>
      </trkpt>
      <trkpt lat="45.14076" lon="5.92867">
        <ele>2039.6</ele>
        <time>2020-08-11T07:00:27Z</time>
      </trkpt>
      <trkpt lat="45.14078" lon="5.92869">
        <ele>2039.6</ele>
        <time>2020-08-11T07:00:28Z</time>
      </trkpt>
      <trkpt lat="45.14078" lon="5.92869">
        <ele>2039.8</ele>
        <time>2020-08-11T07:00:29Z</time>
      </trkpt>
      <trkpt lat="45.14078" lon="5.92869">
        <ele>2040</ele>
        <time>2020-08-11T07:00:30Z</time>
      </trkpt>
      <trkpt lat="45.14079" lon="5.92872">
        <ele>2040</ele>
        <time>2020-08-11T07:00:31Z</time>
      </trkpt>
      <trkpt lat="45.14079" lon="5.92872">
        <ele>2040</ele>
        <time>2020-08-11T07:00:32Z</time>
      </trkpt>
      <trkpt lat="45.14079" lon="5.92872">
        <ele>2040.2</ele>
        <time>2020-08-11T07:00:33Z</time>
      </trkpt>
      <trkpt lat="45.14079" lon="5.92876">
        <ele>2040.4</ele>
        <time>2020-08-11T07:00:34Z</time>
      </trkpt>
      <trkpt lat="45.14079" lon="5.92876">
        <ele>2040.2</ele>
        <time>2020-08-11T07:00:35Z</time>
      </trkpt>
      <trkpt lat="45.14079" lon="5.9288">
        <ele>2040.4</ele>
        <time>2020-08-11T07:00:36Z</time>
      </trkpt>
      <trkpt lat="45.14079" lon="5.9288">
        <ele>2040.6</ele>
        <time>2020-08-11T07:00:37Z</time>
      </trkpt>
      <trkpt lat="45.14079" lon="5.9288">
        <ele>2040.8</ele>
        <time>2020-08-11T07:00:38Z</time>
      </trkpt>
      <trkpt lat="45.14079" lon="5.92883">
        <ele>2040.8</ele>
        <time>2020-08-11T07:00:39Z</time>
      </trkpt>
      <trkpt lat="45.14079" lon="5.92883">
        <ele>2040.8</ele>
        <time>2020-08-11T07:00:40Z</time>
      </trkpt>
      <trkpt lat="45.1408" lon="5.92886">
        <ele>2041</ele>
        <time>2020-08-11T07:00:41Z</time>
      </trkpt>
      <trkpt lat="45.1408" lon="5.92886">
        <ele>2041.2</ele>
        <time>2020-08-11T07:00:42Z</time>
      </trkpt>
      <trkpt lat="45.1408" lon="5.92886">
        <ele>2041.6</ele>
        <time>2020-08-11T07:00:43Z</time>
      </trkpt>
      <trkpt lat="45.1408" lon="5.92889">
        <ele>2042</ele>
        <time>2020-08-11T07:00:44Z</time>
      </trkpt>
      <trkpt lat="45.1408" lon="5.92889">
        <ele>2042.2</ele>
        <time>2020-08-11T07:00:45Z</time>
      </trkpt>
      <trkpt lat="45.1408" lon="5.92893">
        <ele>2042.4</ele>
        <time>2020-08-11T07:00:46Z</time>
      </trkpt>
      <trkpt lat="45.14081" lon="5.92895">
        <ele>2042.4</ele>
        <time>2020-08-11T07:00:47Z</time>
      </trkpt>
      <trkpt lat="45.14082" lon="5.92897">
        <ele>2042.6</ele>
        <time>2020-08-11T07:00:48Z</time>
      </trkpt>
      <trkpt lat="45.14083" lon="5.929">
        <ele>2042.6</ele>
        <time>2020-08-11T07:00:49Z</time>
      </trkpt>
      <trkpt lat="45.14083" lon="5.929">
        <ele>2042.8</ele>
        <time>2020-08-11T07:00:50Z</time>
      </trkpt>
      <trkpt lat="45.14084" lon="5.92904">
        <ele>2042.8</ele>
        <time>2020-08-11T07:00:51Z</time>
      </trkpt>
      <trkpt lat="45.14084" lon="5.92904">
        <ele>2043</ele>
        <time>2020-08-11T07:00:52Z</time>
      </trkpt>
      <trkpt lat="45.14085" lon="5.92906">
        <ele>2043.2</ele>
        <time>2020-08-11T07:00:53Z</time>
      </trkpt>
      <trkpt lat="45.14085" lon="5.92906">
        <ele>2043.4</ele>
        <time>2020-08-11T07:00:54Z</time>
      </trkpt>
      <trkpt lat="45.14087" lon="5.9291">
        <ele>2043.6</ele>
        <time>2020-08-11T07:00:55Z</time>
      </trkpt>
      <trkpt lat="45.14089" lon="5.92913">
        <ele>2044.2</ele>
        <time>2020-08-11T07:00:56Z</time>
      </trkpt>
      <trkpt lat="45.14089" lon="5.92913">
        <ele>2044.4</ele>
        <time>2020-08-11T07:00:57Z</time>
      </trkpt>
      <trkpt lat="45.14089" lon="5.92913">
        <ele>2044.4</ele>
        <time>2020-08-11T07:00:58Z</time>
      </trkpt>
      <trkpt lat="45.1409" lon="5.92914">
        <ele>2044.4</ele>
        <time>2020-08-11T07:00:59Z</time>
      </trkpt>
      <trkpt lat="45.1409" lon="5.92914">
        <ele>2044.4</ele>
        <time>2020-08-11T07:01:00Z</time>
      </trkpt>
      <trkpt lat="45.1409" lon="5.92914">
        <ele>2044.4</ele>
        <time>2020-08-11T07:01:01Z</time>
      </trkpt>
      <trkpt lat="45.14092" lon="5.92917">
        <ele>2044.4</ele>
        <time>2020-08-11T07:01:02Z</time>
      </trkpt>
      <trkpt lat="45.14092" lon="5.92917">
        <ele>2044.4</ele>
        <time>2020-08-11T07:01:03Z</time>
      </trkpt>
      <trkpt lat="45.14093" lon="5.92919">
        <ele>2044.4</ele>
        <time>2020-08-11T07:01:04Z</time>
      </trkpt>
      <trkpt lat="45.14093" lon="5.92919">
        <ele>2044.4</ele>
        <time>2020-08-11T07:01:05Z</time>
      </trkpt>
      <trkpt lat="45.14093" lon="5.92919">
        <ele>2044.6</ele>
        <time>2020-08-11T07:01:06Z</time>
      </trkpt>
      <trkpt lat="45.14095" lon="5.92921">
        <ele>2044.6</ele>
        <time>2020-08-11T07:01:07Z</time>
      </trkpt>
      <trkpt lat="45.14095" lon="5.92921">
        <ele>2044.8</ele>
        <time>2020-08-11T07:01:08Z</time>
      </trkpt>
      <trkpt lat="45.14095" lon="5.92921">
        <ele>2045.2</ele>
        <time>2020-08-11T07:01:09Z</time>
      </trkpt>
      <trkpt lat="45.14095" lon="5.92924">
        <ele>2045.2</ele>
        <time>2020-08-11T07:01:10Z</time>
      </trkpt>
      <trkpt lat="45.14095" lon="5.92924">
        <ele>2045.4</ele>
        <time>2020-08-11T07:01:11Z</time>
      </trkpt>
      <trkpt lat="45.14095" lon="5.92926">
        <ele>2045.6</ele>
        <time>2020-08-11T07:01:12Z</time>
      </trkpt>
      <trkpt lat="45.14096" lon="5.92931">
        <ele>2045.4</ele>
        <time>2020-08-11T07:01:13Z</time>
      </trkpt>
      <trkpt lat="45.14096" lon="5.92931">
        <ele>2045.6</ele>
        <time>2020-08-11T07:01:14Z</time>
      </trkpt>
      <trkpt lat="45.14096" lon="5.92935">
        <ele>2045.8</ele>
        <time>2020-08-11T07:01:15Z</time>
      </trkpt>
      <trkpt lat="45.14096" lon="5.92935">
        <ele>2045.8</ele>
        <time>2020-08-11T07:01:16Z</time>
      </trkpt>
      <trkpt lat="45.14096" lon="5.92935">
        <ele>2045.8</ele>
        <time>2020-08-11T07:01:17Z</time>
      </trkpt>
      <trkpt lat="45.14096" lon="5.92939">
        <ele>2046</ele>
        <time>2020-08-11T07:01:18Z</time>
      </trkpt>
      <trkpt lat="45.14096" lon="5.92939">
        <ele>2046</ele>
        <time>2020-08-11T07:01:19Z</time>
      </trkpt>
      <trkpt lat="45.14097" lon="5.92944">
        <ele>2046</ele>
        <time>2020-08-11T07:01:20Z</time>
      </trkpt>
      <trkpt lat="45.14099" lon="5.92948">
        <ele>2046</ele>
        <time>2020-08-11T07:01:21Z</time>
      </trkpt>
      <trkpt lat="45.141" lon="5.9295">
        <ele>2046.2</ele>
        <time>2020-08-11T07:01:22Z</time>
      </trkpt>
      <trkpt lat="45.14101" lon="5.92951">
        <ele>2046.2</ele>
        <time>2020-08-11T07:01:23Z</time>
      </trkpt>
      <trkpt lat="45.14102" lon="5.92953">
        <ele>2046.2</ele>
        <time>2020-08-11T07:01:24Z</time>
      </trkpt>
      <trkpt lat="45.14102" lon="5.92953">
        <ele>2046.2</ele>
        <time>2020-08-11T07:01:25Z</time>
      </trkpt>
      <trkpt lat="45.14104" lon="5.92957">
        <ele>2046.4</ele>
        <time>2020-08-11T07:01:26Z</time>
      </trkpt>
      <trkpt lat="45.14104" lon="5.92957">
        <ele>2046.8</ele>
        <time>2020-08-11T07:01:27Z</time>
      </trkpt>
      <trkpt lat="45.14104" lon="5.92957">
        <ele>2047.2</ele>
        <time>2020-08-11T07:01:28Z</time>
      </trkpt>
      <trkpt lat="45.14105" lon="5.92959">
        <ele>2047.2</ele>
        <time>2020-08-11T07:01:29Z</time>
      </trkpt>
      <trkpt lat="45.14105" lon="5.92959">
        <ele>2047.4</ele>
        <time>2020-08-11T07:01:30Z</time>
      </trkpt>
      <trkpt lat="45.14105" lon="5.92959">
        <ele>2047.4</ele>
        <time>2020-08-11T07:01:31Z</time>
      </trkpt>
      <trkpt lat="45.14106" lon="5.92962">
        <ele>2047.6</ele>
        <time>2020-08-11T07:01:32Z</time>
      </trkpt>
      <trkpt lat="45.14106" lon="5.92962">
        <ele>2047.6</ele>
        <time>2020-08-11T07:01:33Z</time>
      </trkpt>
      <trkpt lat="45.14107" lon="5.92964">
        <ele>2047.6</ele>
        <time>2020-08-11T07:01:34Z</time>
      </trkpt>
      <trkpt lat="45.14107" lon="5.92964">
        <ele>2047.6</ele>
        <time>2020-08-11T07:01:35Z</time>
      </trkpt>
      <trkpt lat="45.14107" lon="5.92964">
        <ele>2047.8</ele>
        <time>2020-08-11T07:01:36Z</time>
      </trkpt>
      <trkpt lat="45.14108" lon="5.92967">
        <ele>2048</ele>
        <time>2020-08-11T07:01:37Z</time>
      </trkpt>
      <trkpt lat="45.14108" lon="5.92967">
        <ele>2048.2</ele>
        <time>2020-08-11T07:01:38Z</time>
      </trkpt>
      <trkpt lat="45.14108" lon="5.92967">
        <ele>2048.2</ele>
        <time>2020-08-11T07:01:39Z</time>
      </trkpt>
      <trkpt lat="45.14109" lon="5.9297">
        <ele>2048.2</ele>
        <time>2020-08-11T07:01:40Z</time>
      </trkpt>
      <trkpt lat="45.14109" lon="5.9297">
        <ele>2048.4</ele>
        <time>2020-08-11T07:01:41Z</time>
      </trkpt>
      <trkpt lat="45.1411" lon="5.92972">
        <ele>2048.6</ele>
        <time>2020-08-11T07:01:42Z</time>
      </trkpt>
      <trkpt lat="45.1411" lon="5.92972">
        <ele>2048.6</ele>
        <time>2020-08-11T07:01:43Z</time>
      </trkpt>
      <trkpt lat="45.1411" lon="5.92972">
        <ele>2048.6</ele>
        <time>2020-08-11T07:01:44Z</time>
      </trkpt>
      <trkpt lat="45.1411" lon="5.92972">
        <ele>2048.6</ele>
        <time>2020-08-11T07:01:45Z</time>
      </trkpt>
      <trkpt lat="45.14112" lon="5.92973">
        <ele>2049.2</ele>
        <time>2020-08-11T07:01:46Z</time>
      </trkpt>
      <trkpt lat="45.14112" lon="5.92973">
        <ele>2049.6</ele>
        <time>2020-08-11T07:01:47Z</time>
      </trkpt>
      <trkpt lat="45.14114" lon="5.9297">
        <ele>2050</ele>
        <time>2020-08-11T07:01:48Z</time>
      </trkpt>
      <trkpt lat="45.14114" lon="5.9297">
        <ele>2050.4</ele>
        <time>2020-08-11T07:01:49Z</time>
      </trkpt>
      <trkpt lat="45.14115" lon="5.92968">
        <ele>2050.6</ele>
        <time>2020-08-11T07:01:50Z</time>
      </trkpt>
      <trkpt lat="45.14117" lon="5.92966">
        <ele>2050.8</ele>
        <time>2020-08-11T07:01:51Z</time>
      </trkpt>
      <trkpt lat="45.14117" lon="5.92966">
        <ele>2050.6</ele>
        <time>2020-08-11T07:01:52Z</time>
      </trkpt>
      <trkpt lat="45.14117" lon="5.92966">
        <ele>2050.6</ele>
        <time>2020-08-11T07:01:53Z</time>
      </trkpt>
      <trkpt lat="45.14117" lon="5.92966">
        <ele>2050.8</ele>
        <time>2020-08-11T07:01:54Z</time>
      </trkpt>
      <trkpt lat="45.1412" lon="5.92968">
        <ele>2050.8</ele>
        <time>2020-08-11T07:01:55Z</time>
      </trkpt>
      <trkpt lat="45.1412" lon="5.92968">
        <ele>2050.8</ele>
        <time>2020-08-11T07:01:56Z</time>
      </trkpt>
      <trkpt lat="45.14121" lon="5.9297">
        <ele>2051</ele>
        <time>2020-08-11T07:01:57Z</time>
      </trkpt>
      <trkpt lat="45.14122" lon="5.92973">
        <ele>2051</ele>
        <time>2020-08-11T07:01:58Z</time>
      </trkpt>
      <trkpt lat="45.14122" lon="5.92973">
        <ele>2051</ele>
        <time>2020-08-11T07:01:59Z</time>
      </trkpt>
      <trkpt lat="45.14123" lon="5.92977">
        <ele>2051</ele>
        <time>2020-08-11T07:02:00Z</time>
      </trkpt>
      <trkpt lat="45.14123" lon="5.92977">
        <ele>2051.4</ele>
        <time>2020-08-11T07:02:01Z</time>
      </trkpt>
      <trkpt lat="45.14123" lon="5.92977">
        <ele>2051.8</ele>
        <time>2020-08-11T07:02:02Z</time>
      </trkpt>
      <trkpt lat="45.14125" lon="5.9298">
        <ele>2051.8</ele>
        <time>2020-08-11T07:02:03Z</time>
      </trkpt>
      <trkpt lat="45.14125" lon="5.9298">
        <ele>2052</ele>
        <time>2020-08-11T07:02:04Z</time>
      </trkpt>
      <trkpt lat="45.14126" lon="5.92982">
        <ele>2052.2</ele>
        <time>2020-08-11T07:02:05Z</time>
      </trkpt>
      <trkpt lat="45.14126" lon="5.92982">
        <ele>2052.2</ele>
        <time>2020-08-11T07:02:06Z</time>
      </trkpt>
      <trkpt lat="45.14126" lon="5.92982">
        <ele>2052.4</ele>
        <time>2020-08-11T07:02:07Z</time>
      </trkpt>
      <trkpt lat="45.14126" lon="5.92982">
        <ele>2052.6</ele>
        <time>2020-08-11T07:02:08Z</time>
      </trkpt>
      <trkpt lat="45.14127" lon="5.92985">
        <ele>2052.8</ele>
        <time>2020-08-11T07:02:09Z</time>
      </trkpt>
      <trkpt lat="45.14127" lon="5.92985">
        <ele>2052.6</ele>
        <time>2020-08-11T07:02:10Z</time>
      </trkpt>
      <trkpt lat="45.14127" lon="5.92985">
        <ele>2052.4</ele>
        <time>2020-08-11T07:02:11Z</time>
      </trkpt>
      <trkpt lat="45.14127" lon="5.92988">
        <ele>2052.2</ele>
        <time>2020-08-11T07:02:12Z</time>
      </trkpt>
      <trkpt lat="45.14127" lon="5.92988">
        <ele>2052.2</ele>
        <time>2020-08-11T07:02:13Z</time>
      </trkpt>
      <trkpt lat="45.14127" lon="5.92992">
        <ele>2052.4</ele>
        <time>2020-08-11T07:02:14Z</time>
      </trkpt>
      <trkpt lat="45.14127" lon="5.92992">
        <ele>2052.6</ele>
        <time>2020-08-11T07:02:15Z</time>
      </trkpt>
      <trkpt lat="45.14127" lon="5.92992">
        <ele>2052.8</ele>
        <time>2020-08-11T07:02:16Z</time>
      </trkpt>
      <trkpt lat="45.14128" lon="5.92995">
        <ele>2052.8</ele>
        <time>2020-08-11T07:02:17Z</time>
      </trkpt>
      <trkpt lat="45.14128" lon="5.92995">
        <ele>2052.8</ele>
        <time>2020-08-11T07:02:18Z</time>
      </trkpt>
      <trkpt lat="45.14129" lon="5.92997">
        <ele>2053</ele>
        <time>2020-08-11T07:02:19Z</time>
      </trkpt>
      <trkpt lat="45.14129" lon="5.92997">
        <ele>2053.4</ele>
        <time>2020-08-11T07:02:20Z</time>
      </trkpt>
      <trkpt lat="45.14129" lon="5.92997">
        <ele>2054.2</ele>
        <time>2020-08-11T07:02:21Z</time>
      </trkpt>
      <trkpt lat="45.14131" lon="5.92998">
        <ele>2054.2</ele>
        <time>2020-08-11T07:02:22Z</time>
      </trkpt>
      <trkpt lat="45.14131" lon="5.92998">
        <ele>2054.2</ele>
        <time>2020-08-11T07:02:23Z</time>
      </trkpt>
      <trkpt lat="45.14133" lon="5.93">
        <ele>2054.4</ele>
        <time>2020-08-11T07:02:24Z</time>
      </trkpt>
      <trkpt lat="45.14133" lon="5.93">
        <ele>2054.6</ele>
        <time>2020-08-11T07:02:25Z</time>
      </trkpt>
      <trkpt lat="45.14135" lon="5.93001">
        <ele>2054.8</ele>
        <time>2020-08-11T07:02:26Z</time>
      </trkpt>
      <trkpt lat="45.14136" lon="5.93003">
        <ele>2055</ele>
        <time>2020-08-11T07:02:27Z</time>
      </trkpt>
      <trkpt lat="45.14136" lon="5.93003">
        <ele>2055.4</ele>
        <time>2020-08-11T07:02:28Z</time>
      </trkpt>
      <trkpt lat="45.14137" lon="5.93005">
        <ele>2055.8</ele>
        <time>2020-08-11T07:02:29Z</time>
      </trkpt>
      <trkpt lat="45.14137" lon="5.93005">
        <ele>2055.8</ele>
        <time>2020-08-11T07:02:30Z</time>
      </trkpt>
      <trkpt lat="45.14139" lon="5.93008">
        <ele>2056</ele>
        <time>2020-08-11T07:02:31Z</time>
      </trkpt>
      <trkpt lat="45.14139" lon="5.93008">
        <ele>2056.4</ele>
        <time>2020-08-11T07:02:32Z</time>
      </trkpt>
      <trkpt lat="45.14141" lon="5.9301">
        <ele>2056.6</ele>
        <time>2020-08-11T07:02:33Z</time>
      </trkpt>
      <trkpt lat="45.14141" lon="5.9301">
        <ele>2056.8</ele>
        <time>2020-08-11T07:02:34Z</time>
      </trkpt>
      <trkpt lat="45.14141" lon="5.9301">
        <ele>2056.8</ele>
        <time>2020-08-11T07:02:35Z</time>
      </trkpt>
      <trkpt lat="45.14143" lon="5.93013">
        <ele>2057</ele>
        <time>2020-08-11T07:02:36Z</time>
      </trkpt>
      <trkpt lat="45.14143" lon="5.93013">
        <ele>2057.2</ele>
        <time>2020-08-11T07:02:37Z</time>
      </trkpt>
      <trkpt lat="45.14145" lon="5.93017">
        <ele>2057.2</ele>
        <time>2020-08-11T07:02:38Z</time>
      </trkpt>
      <trkpt lat="45.14145" lon="5.93017">
        <ele>2057.6</ele>
        <time>2020-08-11T07:02:39Z</time>
      </trkpt>
      <trkpt lat="45.14147" lon="5.93017">
        <ele>2057.8</ele>
        <time>2020-08-11T07:02:40Z</time>
      </trkpt>
      <trkpt lat="45.14148" lon="5.93016">
        <ele>2057.8</ele>
        <time>2020-08-11T07:02:41Z</time>
      </trkpt>
      <trkpt lat="45.1415" lon="5.93016">
        <ele>2057.8</ele>
        <time>2020-08-11T07:02:42Z</time>
      </trkpt>
      <trkpt lat="45.14151" lon="5.93016">
        <ele>2057.8</ele>
        <time>2020-08-11T07:02:43Z</time>
      </trkpt>
      <trkpt lat="45.14153" lon="5.93016">
        <ele>2058</ele>
        <time>2020-08-11T07:02:44Z</time>
      </trkpt>
      <trkpt lat="45.14154" lon="5.93015">
        <ele>2058.2</ele>
        <time>2020-08-11T07:02:45Z</time>
      </trkpt>
      <trkpt lat="45.14156" lon="5.93015">
        <ele>2058.4</ele>
        <time>2020-08-11T07:02:46Z</time>
      </trkpt>
      <trkpt lat="45.14157" lon="5.93016">
        <ele>2058.6</ele>
        <time>2020-08-11T07:02:47Z</time>
      </trkpt>
      <trkpt lat="45.14158" lon="5.93016">
        <ele>2058.8</ele>
        <time>2020-08-11T07:02:48Z</time>
      </trkpt>
      <trkpt lat="45.14158" lon="5.93017">
        <ele>2058.8</ele>
        <time>2020-08-11T07:02:49Z</time>
      </trkpt>
      <trkpt lat="45.14159" lon="5.93017">
        <ele>2058.8</ele>
        <time>2020-08-11T07:02:50Z</time>
      </trkpt>
      <trkpt lat="45.1416" lon="5.93018">
        <ele>2059</ele>
        <time>2020-08-11T07:02:51Z</time>
      </trkpt>
      <trkpt lat="45.14161" lon="5.93019">
        <ele>2059.2</ele>
        <time>2020-08-11T07:02:52Z</time>
      </trkpt>
      <trkpt lat="45.14162" lon="5.93019">
        <ele>2059.6</ele>
        <time>2020-08-11T07:02:53Z</time>
      </trkpt>
      <trkpt lat="45.14163" lon="5.9302">
        <ele>2059.8</ele>
        <time>2020-08-11T07:02:54Z</time>
      </trkpt>
      <trkpt lat="45.14163" lon="5.9302">
        <ele>2059.8</ele>
        <time>2020-08-11T07:02:55Z</time>
      </trkpt>
      <trkpt lat="45.14164" lon="5.93021">
        <ele>2060</ele>
        <time>2020-08-11T07:02:56Z</time>
      </trkpt>
      <trkpt lat="45.14164" lon="5.93022">
        <ele>2060.2</ele>
        <time>2020-08-11T07:02:57Z</time>
      </trkpt>
      <trkpt lat="45.14165" lon="5.93024">
        <ele>2060.4</ele>
        <time>2020-08-11T07:02:58Z</time>
      </trkpt>
      <trkpt lat="45.14165" lon="5.93026">
        <ele>2060.6</ele>
        <time>2020-08-11T07:02:59Z</time>
      </trkpt>
      <trkpt lat="45.14165" lon="5.93027">
        <ele>2060.8</ele>
        <time>2020-08-11T07:03:00Z</time>
      </trkpt>
      <trkpt lat="45.14166" lon="5.93029">
        <ele>2060.8</ele>
        <time>2020-08-11T07:03:01Z</time>
      </trkpt>
      <trkpt lat="45.14166" lon="5.93031">
        <ele>2061.2</ele>
        <time>2020-08-11T07:03:02Z</time>
      </trkpt>
      <trkpt lat="45.14166" lon="5.93032">
        <ele>2061.4</ele>
        <time>2020-08-11T07:03:03Z</time>
      </trkpt>
      <trkpt lat="45.14167" lon="5.93034">
        <ele>2061.6</ele>
        <time>2020-08-11T07:03:04Z</time>
      </trkpt>
      <trkpt lat="45.14167" lon="5.93035">
        <ele>2061.4</ele>
        <time>2020-08-11T07:03:05Z</time>
      </trkpt>
      <trkpt lat="45.14168" lon="5.93037">
        <ele>2061.4</ele>
        <time>2020-08-11T07:03:06Z</time>
      </trkpt>
      <trkpt lat="45.14168" lon="5.93038">
        <ele>2061.6</ele>
        <time>2020-08-11T07:03:07Z</time>
      </trkpt>
      <trkpt lat="45.14169" lon="5.93039">
        <ele>2061.6</ele>
        <time>2020-08-11T07:03:08Z</time>
      </trkpt>
      <trkpt lat="45.14169" lon="5.93041">
        <ele>2061.6</ele>
        <time>2020-08-11T07:03:09Z</time>
      </trkpt>
      <trkpt lat="45.1417" lon="5.93042">
        <ele>2061.8</ele>
        <time>2020-08-11T07:03:10Z</time>
      </trkpt>
      <trkpt lat="45.1417" lon="5.93043">
        <ele>2061.8</ele>
        <time>2020-08-11T07:03:11Z</time>
      </trkpt>
      <trkpt lat="45.14171" lon="5.93045">
        <ele>2062.2</ele>
        <time>2020-08-11T07:03:12Z</time>
      </trkpt>
      <trkpt lat="45.14172" lon="5.93046">
        <ele>2062.2</ele>
        <time>2020-08-11T07:03:13Z</time>
      </trkpt>
      <trkpt lat="45.14173" lon="5.93048">
        <ele>2062.2</ele>
        <time>2020-08-11T07:03:14Z</time>
      </trkpt>
      <trkpt lat="45.14175" lon="5.9305">
        <ele>2062.2</ele>
        <time>2020-08-11T07:03:15Z</time>
      </trkpt>
      <trkpt lat="45.14177" lon="5.93053">
        <ele>2062.2</ele>
        <time>2020-08-11T07:03:16Z</time>
      </trkpt>
      <trkpt lat="45.14178" lon="5.93055">
        <ele>2062.2</ele>
        <time>2020-08-11T07:03:17Z</time>
      </trkpt>
      <trkpt lat="45.14179" lon="5.93056">
        <ele>2062.2</ele>
        <time>2020-08-11T07:03:18Z</time>
      </trkpt>
      <trkpt lat="45.14179" lon="5.93057">
        <ele>2062.4</ele>
        <time>2020-08-11T07:03:19Z</time>
      </trkpt>
      <trkpt lat="45.1418" lon="5.93058">
        <ele>2062.4</ele>
        <time>2020-08-11T07:03:20Z</time>
      </trkpt>
      <trkpt lat="45.14181" lon="5.93059">
        <ele>2062.2</ele>
        <time>2020-08-11T07:03:21Z</time>
      </trkpt>
      <trkpt lat="45.14181" lon="5.93061">
        <ele>2062.4</ele>
        <time>2020-08-11T07:03:22Z</time>
      </trkpt>
      <trkpt lat="45.14182" lon="5.93062">
        <ele>2062.4</ele>
        <time>2020-08-11T07:03:23Z</time>
      </trkpt>
      <trkpt lat="45.14183" lon="5.93063">
        <ele>2062.6</ele>
        <time>2020-08-11T07:03:24Z</time>
      </trkpt>
      <trkpt lat="45.14183" lon="5.93064">
        <ele>2062.6</ele>
        <time>2020-08-11T07:03:25Z</time>
      </trkpt>
      <trkpt lat="45.14184" lon="5.93065">
        <ele>2062.8</ele>
        <time>2020-08-11T07:03:26Z</time>
      </trkpt>
      <trkpt lat="45.14184" lon="5.93065">
        <ele>2063</ele>
        <time>2020-08-11T07:03:27Z</time>
      </trkpt>
      <trkpt lat="45.14185" lon="5.93069">
        <ele>2063.2</ele>
        <time>2020-08-11T07:03:28Z</time>
      </trkpt>
      <trkpt lat="45.14185" lon="5.93069">
        <ele>2063.4</ele>
        <time>2020-08-11T07:03:29Z</time>
      </trkpt>
      <trkpt lat="45.14185" lon="5.9307">
        <ele>2063.4</ele>
        <time>2020-08-11T07:03:30Z</time>
      </trkpt>
      <trkpt lat="45.14186" lon="5.93071">
        <ele>2063.4</ele>
        <time>2020-08-11T07:03:31Z</time>
      </trkpt>
      <trkpt lat="45.14186" lon="5.93073">
        <ele>2063.6</ele>
        <time>2020-08-11T07:03:32Z</time>
      </trkpt>
      <trkpt lat="45.14186" lon="5.93074">
        <ele>2064</ele>
        <time>2020-08-11T07:03:33Z</time>
      </trkpt>
      <trkpt lat="45.14186" lon="5.93075">
        <ele>2064</ele>
        <time>2020-08-11T07:03:34Z</time>
      </trkpt>
      <trkpt lat="45.14187" lon="5.93079">
        <ele>2064.4</ele>
        <time>2020-08-11T07:03:35Z</time>
      </trkpt>
      <trkpt lat="45.14187" lon="5.93079">
        <ele>2064.4</ele>
        <time>2020-08-11T07:03:36Z</time>
      </trkpt>
      <trkpt lat="45.14187" lon="5.93079">
        <ele>2064.6</ele>
        <time>2020-08-11T07:03:37Z</time>
      </trkpt>
      <trkpt lat="45.14187" lon="5.93079">
        <ele>2064.6</ele>
        <time>2020-08-11T07:03:38Z</time>
      </trkpt>
      <trkpt lat="45.14189" lon="5.93082">
        <ele>2064.6</ele>
        <time>2020-08-11T07:03:39Z</time>
      </trkpt>
      <trkpt lat="45.14189" lon="5.93082">
        <ele>2064.8</ele>
        <time>2020-08-11T07:03:40Z</time>
      </trkpt>
      <trkpt lat="45.14189" lon="5.93082">
        <ele>2065</ele>
        <time>2020-08-11T07:03:41Z</time>
      </trkpt>
      <trkpt lat="45.14189" lon="5.93082">
        <ele>2065</ele>
        <time>2020-08-11T07:03:42Z</time>
      </trkpt>
      <trkpt lat="45.14191" lon="5.93085">
        <ele>2065.2</ele>
        <time>2020-08-11T07:03:43Z</time>
      </trkpt>
      <trkpt lat="45.14191" lon="5.93085">
        <ele>2065.2</ele>
        <time>2020-08-11T07:03:44Z</time>
      </trkpt>
      <trkpt lat="45.14192" lon="5.93087">
        <ele>2065.4</ele>
        <time>2020-08-11T07:03:45Z</time>
      </trkpt>
      <trkpt lat="45.14192" lon="5.93087">
        <ele>2065.4</ele>
        <time>2020-08-11T07:03:46Z</time>
      </trkpt>
      <trkpt lat="45.14195" lon="5.9309">
        <ele>2065.6</ele>
        <time>2020-08-11T07:03:47Z</time>
      </trkpt>
      <trkpt lat="45.14197" lon="5.93093">
        <ele>2065.6</ele>
        <time>2020-08-11T07:03:48Z</time>
      </trkpt>
      <trkpt lat="45.14199" lon="5.93096">
        <ele>2065.6</ele>
        <time>2020-08-11T07:03:49Z</time>
      </trkpt>
      <trkpt lat="45.14201" lon="5.93098">
        <ele>2065.6</ele>
        <time>2020-08-11T07:03:50Z</time>
      </trkpt>
      <trkpt lat="45.14202" lon="5.93101">
        <ele>2065.6</ele>
        <time>2020-08-11T07:03:51Z</time>
      </trkpt>
      <trkpt lat="45.14202" lon="5.93101">
        <ele>2065.6</ele>
        <time>2020-08-11T07:03:52Z</time>
      </trkpt>
      <trkpt lat="45.14203" lon="5.93103">
        <ele>2065.6</ele>
        <time>2020-08-11T07:03:53Z</time>
      </trkpt>
      <trkpt lat="45.14205" lon="5.93106">
        <ele>2065.4</ele>
        <time>2020-08-11T07:03:54Z</time>
      </trkpt>
      <trkpt lat="45.14205" lon="5.93106">
        <ele>2065.2</ele>
        <time>2020-08-11T07:03:55Z</time>
      </trkpt>
      <trkpt lat="45.14205" lon="5.93106">
        <ele>2065.2</ele>
        <time>2020-08-11T07:03:56Z</time>
      </trkpt>
      <trkpt lat="45.14206" lon="5.93108">
        <ele>2065.4</ele>
        <time>2020-08-11T07:03:57Z</time>
      </trkpt>
      <trkpt lat="45.14207" lon="5.93112">
        <ele>2065.6</ele>
        <time>2020-08-11T07:03:58Z</time>
      </trkpt>
      <trkpt lat="45.14207" lon="5.93112">
        <ele>2065.4</ele>
        <time>2020-08-11T07:03:59Z</time>
      </trkpt>
      <trkpt lat="45.14207" lon="5.93117">
        <ele>2065.2</ele>
        <time>2020-08-11T07:04:00Z</time>
      </trkpt>
      <trkpt lat="45.14207" lon="5.93117">
        <ele>2064.8</ele>
        <time>2020-08-11T07:04:01Z</time>
      </trkpt>
      <trkpt lat="45.14206" lon="5.9312">
        <ele>2064</ele>
        <time>2020-08-11T07:04:02Z</time>
      </trkpt>
      <trkpt lat="45.14206" lon="5.93124">
        <ele>2064.4</ele>
        <time>2020-08-11T07:04:03Z</time>
      </trkpt>
      <trkpt lat="45.14206" lon="5.93124">
        <ele>2064.2</ele>
        <time>2020-08-11T07:04:04Z</time>
      </trkpt>
      <trkpt lat="45.14206" lon="5.93124">
        <ele>2063.6</ele>
        <time>2020-08-11T07:04:05Z</time>
      </trkpt>
      <trkpt lat="45.14206" lon="5.93127">
        <ele>2063.6</ele>
        <time>2020-08-11T07:04:06Z</time>
      </trkpt>
      <trkpt lat="45.14207" lon="5.9313">
        <ele>2062.8</ele>
        <time>2020-08-11T07:04:07Z</time>
      </trkpt>
      <trkpt lat="45.14207" lon="5.93133">
        <ele>2062.8</ele>
        <time>2020-08-11T07:04:08Z</time>
      </trkpt>
      <trkpt lat="45.14207" lon="5.93136">
        <ele>2062.8</ele>
        <time>2020-08-11T07:04:09Z</time>
      </trkpt>
      <trkpt lat="45.14208" lon="5.93139">
        <ele>2062.2</ele>
        <time>2020-08-11T07:04:10Z</time>
      </trkpt>
      <trkpt lat="45.14211" lon="5.93139">
        <ele>2062</ele>
        <time>2020-08-11T07:04:11Z</time>
      </trkpt>
      <trkpt lat="45.14214" lon="5.93139">
        <ele>2061.2</ele>
        <time>2020-08-11T07:04:12Z</time>
      </trkpt>
      <trkpt lat="45.14216" lon="5.9314">
        <ele>2060.4</ele>
        <time>2020-08-11T07:04:13Z</time>
      </trkpt>
      <trkpt lat="45.14219" lon="5.9314">
        <ele>2060.4</ele>
        <time>2020-08-11T07:04:14Z</time>
      </trkpt>
      <trkpt lat="45.14222" lon="5.93139">
        <ele>2060.6</ele>
        <time>2020-08-11T07:04:15Z</time>
      </trkpt>
      <trkpt lat="45.14224" lon="5.93138">
        <ele>2060.2</ele>
        <time>2020-08-11T07:04:16Z</time>
      </trkpt>
      <trkpt lat="45.14227" lon="5.93137">
        <ele>2060</ele>
        <time>2020-08-11T07:04:17Z</time>
      </trkpt>
      <trkpt lat="45.14229" lon="5.93135">
        <ele>2059.6</ele>
        <time>2020-08-11T07:04:18Z</time>
      </trkpt>
      <trkpt lat="45.1423" lon="5.93135">
        <ele>2059.6</ele>
        <time>2020-08-11T07:04:19Z</time>
      </trkpt>
      <trkpt lat="45.14232" lon="5.93134">
        <ele>2058.6</ele>
        <time>2020-08-11T07:04:20Z</time>
      </trkpt>
      <trkpt lat="45.14233" lon="5.93134">
        <ele>2058.2</ele>
        <time>2020-08-11T07:04:21Z</time>
      </trkpt>
      <trkpt lat="45.14235" lon="5.93133">
        <ele>2057.8</ele>
        <time>2020-08-11T07:04:22Z</time>
      </trkpt>
      <trkpt lat="45.14236" lon="5.93132">
        <ele>2058</ele>
        <time>2020-08-11T07:04:23Z</time>
      </trkpt>
      <trkpt lat="45.14238" lon="5.93132">
        <ele>2057.6</ele>
        <time>2020-08-11T07:04:24Z</time>
      </trkpt>
      <trkpt lat="45.14239" lon="5.9313">
        <ele>2057.2</ele>
        <time>2020-08-11T07:04:25Z</time>
      </trkpt>
      <trkpt lat="45.14241" lon="5.93129">
        <ele>2057.4</ele>
        <time>2020-08-11T07:04:26Z</time>
      </trkpt>
      <trkpt lat="45.14243" lon="5.93128">
        <ele>2057.2</ele>
        <time>2020-08-11T07:04:27Z</time>
      </trkpt>
      <trkpt lat="45.14245" lon="5.93126">
        <ele>2057.2</ele>
        <time>2020-08-11T07:04:28Z</time>
      </trkpt>
      <trkpt lat="45.14246" lon="5.93125">
        <ele>2057</ele>
        <time>2020-08-11T07:04:29Z</time>
      </trkpt>
      <trkpt lat="45.14248" lon="5.93125">
        <ele>2056.6</ele>
        <time>2020-08-11T07:04:30Z</time>
      </trkpt>
      <trkpt lat="45.1425" lon="5.93126">
        <ele>2056.2</ele>
        <time>2020-08-11T07:04:31Z</time>
      </trkpt>
      <trkpt lat="45.14252" lon="5.93126">
        <ele>2055.4</ele>
        <time>2020-08-11T07:04:32Z</time>
      </trkpt>
      <trkpt lat="45.14253" lon="5.93126">
        <ele>2055.6</ele>
        <time>2020-08-11T07:04:33Z</time>
      </trkpt>
      <trkpt lat="45.14255" lon="5.93126">
        <ele>2055.4</ele>
        <time>2020-08-11T07:04:34Z</time>
      </trkpt>
      <trkpt lat="45.14257" lon="5.93127">
        <ele>2055.4</ele>
        <time>2020-08-11T07:04:35Z</time>
      </trkpt>
      <trkpt lat="45.14258" lon="5.93129">
        <ele>2055.4</ele>
        <time>2020-08-11T07:04:36Z</time>
      </trkpt>
      <trkpt lat="45.1426" lon="5.93131">
        <ele>2055.6</ele>
        <time>2020-08-11T07:04:37Z</time>
      </trkpt>
      <trkpt lat="45.14261" lon="5.93133">
        <ele>2055.6</ele>
        <time>2020-08-11T07:04:38Z</time>
      </trkpt>
      <trkpt lat="45.14263" lon="5.93135">
        <ele>2055.8</ele>
        <time>2020-08-11T07:04:39Z</time>
      </trkpt>
      <trkpt lat="45.14264" lon="5.93137">
        <ele>2056</ele>
        <time>2020-08-11T07:04:40Z</time>
      </trkpt>
      <trkpt lat="45.14265" lon="5.93139">
        <ele>2055.8</ele>
        <time>2020-08-11T07:04:41Z</time>
      </trkpt>
      <trkpt lat="45.14267" lon="5.93141">
        <ele>2056.2</ele>
        <time>2020-08-11T07:04:42Z</time>
      </trkpt>
      <trkpt lat="45.14268" lon="5.93143">
        <ele>2055.6</ele>
        <time>2020-08-11T07:04:43Z</time>
      </trkpt>
      <trkpt lat="45.14268" lon="5.93146">
        <ele>2055.2</ele>
        <time>2020-08-11T07:04:44Z</time>
      </trkpt>
      <trkpt lat="45.14269" lon="5.93149">
        <ele>2054.8</ele>
        <time>2020-08-11T07:04:45Z</time>
      </trkpt>
      <trkpt lat="45.14269" lon="5.93151">
        <ele>2054.2</ele>
        <time>2020-08-11T07:04:46Z</time>
      </trkpt>
      <trkpt lat="45.14269" lon="5.93154">
        <ele>2054.8</ele>
        <time>2020-08-11T07:04:47Z</time>
      </trkpt>
      <trkpt lat="45.14269" lon="5.93157">
        <ele>2054.6</ele>
        <time>2020-08-11T07:04:48Z</time>
      </trkpt>
      <trkpt lat="45.14269" lon="5.9316">
        <ele>2055</ele>
        <time>2020-08-11T07:04:49Z</time>
      </trkpt>
      <trkpt lat="45.1427" lon="5.93163">
        <ele>2055</ele>
        <time>2020-08-11T07:04:50Z</time>
      </trkpt>
      <trkpt lat="45.1427" lon="5.93165">
        <ele>2055</ele>
        <time>2020-08-11T07:04:51Z</time>
      </trkpt>
      <trkpt lat="45.1427" lon="5.93168">
        <ele>2055.2</ele>
        <time>2020-08-11T07:04:52Z</time>
      </trkpt>
      <trkpt lat="45.1427" lon="5.93171">
        <ele>2055.4</ele>
        <time>2020-08-11T07:04:53Z</time>
      </trkpt>
      <trkpt lat="45.1427" lon="5.93172">
        <ele>2055.6</ele>
        <time>2020-08-11T07:04:54Z</time>
      </trkpt>
      <trkpt lat="45.1427" lon="5.93174">
        <ele>2055.8</ele>
        <time>2020-08-11T07:04:55Z</time>
      </trkpt>
      <trkpt lat="45.1427" lon="5.93176">
        <ele>2056.2</ele>
        <time>2020-08-11T07:04:56Z</time>
      </trkpt>
      <trkpt lat="45.14271" lon="5.93178">
        <ele>2056.6</ele>
        <time>2020-08-11T07:04:57Z</time>
      </trkpt>
      <trkpt lat="45.14271" lon="5.9318">
        <ele>2056.8</ele>
        <time>2020-08-11T07:04:58Z</time>
      </trkpt>
      <trkpt lat="45.14271" lon="5.93184">
        <ele>2056.8</ele>
        <time>2020-08-11T07:04:59Z</time>
      </trkpt>
      <trkpt lat="45.14271" lon="5.93184">
        <ele>2056.8</ele>
        <time>2020-08-11T07:05:00Z</time>
      </trkpt>
      <trkpt lat="45.14271" lon="5.93189">
        <ele>2057.4</ele>
        <time>2020-08-11T07:05:01Z</time>
      </trkpt>
      <trkpt lat="45.14271" lon="5.93189">
        <ele>2057.8</ele>
        <time>2020-08-11T07:05:02Z</time>
      </trkpt>
      <trkpt lat="45.14272" lon="5.93192">
        <ele>2058</ele>
        <time>2020-08-11T07:05:03Z</time>
      </trkpt>
      <trkpt lat="45.14272" lon="5.93195">
        <ele>2057.6</ele>
        <time>2020-08-11T07:05:04Z</time>
      </trkpt>
      <trkpt lat="45.14273" lon="5.93199">
        <ele>2057.6</ele>
        <time>2020-08-11T07:05:05Z</time>
      </trkpt>
      <trkpt lat="45.14274" lon="5.93202">
        <ele>2057.6</ele>
        <time>2020-08-11T07:05:06Z</time>
      </trkpt>
      <trkpt lat="45.14274" lon="5.93206">
        <ele>2057.4</ele>
        <time>2020-08-11T07:05:07Z</time>
      </trkpt>
      <trkpt lat="45.14274" lon="5.93206">
        <ele>2057.6</ele>
        <time>2020-08-11T07:05:08Z</time>
      </trkpt>
      <trkpt lat="45.14274" lon="5.93206">
        <ele>2057.8</ele>
        <time>2020-08-11T07:05:09Z</time>
      </trkpt>
      <trkpt lat="45.14274" lon="5.9321">
        <ele>2058</ele>
        <time>2020-08-11T07:05:10Z</time>
      </trkpt>
      <trkpt lat="45.14274" lon="5.93213">
        <ele>2058.2</ele>
        <time>2020-08-11T07:05:11Z</time>
      </trkpt>
      <trkpt lat="45.14274" lon="5.93213">
        <ele>2058.4</ele>
        <time>2020-08-11T07:05:12Z</time>
      </trkpt>
      <trkpt lat="45.14274" lon="5.93217">
        <ele>2058.4</ele>
        <time>2020-08-11T07:05:13Z</time>
      </trkpt>
      <trkpt lat="45.14274" lon="5.93217">
        <ele>2058.6</ele>
        <time>2020-08-11T07:05:14Z</time>
      </trkpt>
      <trkpt lat="45.14274" lon="5.93217">
        <ele>2059.2</ele>
        <time>2020-08-11T07:05:15Z</time>
      </trkpt>
      <trkpt lat="45.14274" lon="5.9322">
        <ele>2059.4</ele>
        <time>2020-08-11T07:05:16Z</time>
      </trkpt>
      <trkpt lat="45.14274" lon="5.9322">
        <ele>2059.6</ele>
        <time>2020-08-11T07:05:17Z</time>
      </trkpt>
      <trkpt lat="45.14274" lon="5.93223">
        <ele>2059.6</ele>
        <time>2020-08-11T07:05:18Z</time>
      </trkpt>
      <trkpt lat="45.14275" lon="5.93225">
        <ele>2059.8</ele>
        <time>2020-08-11T07:05:19Z</time>
      </trkpt>
      <trkpt lat="45.14275" lon="5.93227">
        <ele>2059.8</ele>
        <time>2020-08-11T07:05:20Z</time>
      </trkpt>
      <trkpt lat="45.14275" lon="5.93229">
        <ele>2060.2</ele>
        <time>2020-08-11T07:05:21Z</time>
      </trkpt>
      <trkpt lat="45.14276" lon="5.93233">
        <ele>2060.6</ele>
        <time>2020-08-11T07:05:22Z</time>
      </trkpt>
      <trkpt lat="45.14276" lon="5.93233">
        <ele>2060.8</ele>
        <time>2020-08-11T07:05:23Z</time>
      </trkpt>
      <trkpt lat="45.14278" lon="5.93235">
        <ele>2060.6</ele>
        <time>2020-08-11T07:05:24Z</time>
      </trkpt>
      <trkpt lat="45.14279" lon="5.93237">
        <ele>2060.6</ele>
        <time>2020-08-11T07:05:25Z</time>
      </trkpt>
      <trkpt lat="45.14281" lon="5.93239">
        <ele>2060.8</ele>
        <time>2020-08-11T07:05:26Z</time>
      </trkpt>
      <trkpt lat="45.14281" lon="5.93239">
        <ele>2061</ele>
        <time>2020-08-11T07:05:27Z</time>
      </trkpt>
      <trkpt lat="45.14282" lon="5.93243">
        <ele>2061</ele>
        <time>2020-08-11T07:05:28Z</time>
      </trkpt>
      <trkpt lat="45.14282" lon="5.93243">
        <ele>2061.2</ele>
        <time>2020-08-11T07:05:29Z</time>
      </trkpt>
      <trkpt lat="45.14282" lon="5.93243">
        <ele>2061.4</ele>
        <time>2020-08-11T07:05:30Z</time>
      </trkpt>
      <trkpt lat="45.14282" lon="5.93248">
        <ele>2061.6</ele>
        <time>2020-08-11T07:05:31Z</time>
      </trkpt>
      <trkpt lat="45.14282" lon="5.93248">
        <ele>2061.8</ele>
        <time>2020-08-11T07:05:32Z</time>
      </trkpt>
      <trkpt lat="45.14282" lon="5.93248">
        <ele>2062</ele>
        <time>2020-08-11T07:05:33Z</time>
      </trkpt>
      <trkpt lat="45.14281" lon="5.9325">
        <ele>2062.2</ele>
        <time>2020-08-11T07:05:34Z</time>
      </trkpt>
      <trkpt lat="45.1428" lon="5.93251">
        <ele>2062.6</ele>
        <time>2020-08-11T07:05:35Z</time>
      </trkpt>
      <trkpt lat="45.1428" lon="5.93252">
        <ele>2062.8</ele>
        <time>2020-08-11T07:05:36Z</time>
      </trkpt>
      <trkpt lat="45.14279" lon="5.93253">
        <ele>2062.8</ele>
        <time>2020-08-11T07:05:37Z</time>
      </trkpt>
      <trkpt lat="45.14279" lon="5.93254">
        <ele>2063.2</ele>
        <time>2020-08-11T07:05:38Z</time>
      </trkpt>
      <trkpt lat="45.14277" lon="5.93255">
        <ele>2063.4</ele>
        <time>2020-08-11T07:05:39Z</time>
      </trkpt>
      <trkpt lat="45.14275" lon="5.93255">
        <ele>2063.6</ele>
        <time>2020-08-11T07:05:40Z</time>
      </trkpt>
      <trkpt lat="45.14273" lon="5.93256">
        <ele>2063.6</ele>
        <time>2020-08-11T07:05:41Z</time>
      </trkpt>
      <trkpt lat="45.14268" lon="5.93258">
        <ele>2064</ele>
        <time>2020-08-11T07:05:42Z</time>
      </trkpt>
      <trkpt lat="45.14268" lon="5.93258">
        <ele>2064</ele>
        <time>2020-08-11T07:05:43Z</time>
      </trkpt>
      <trkpt lat="45.14268" lon="5.93259">
        <ele>2064.2</ele>
        <time>2020-08-11T07:05:44Z</time>
      </trkpt>
      <trkpt lat="45.14269" lon="5.93259">
        <ele>2064.2</ele>
        <time>2020-08-11T07:05:45Z</time>
      </trkpt>
      <trkpt lat="45.14269" lon="5.9326">
        <ele>2064.6</ele>
        <time>2020-08-11T07:05:46Z</time>
      </trkpt>
      <trkpt lat="45.1427" lon="5.9326">
        <ele>2064.8</ele>
        <time>2020-08-11T07:05:47Z</time>
      </trkpt>
      <trkpt lat="45.1427" lon="5.93261">
        <ele>2065</ele>
        <time>2020-08-11T07:05:48Z</time>
      </trkpt>
      <trkpt lat="45.1427" lon="5.93261">
        <ele>2065.2</ele>
        <time>2020-08-11T07:05:49Z</time>
      </trkpt>
      <trkpt lat="45.14271" lon="5.93262">
        <ele>2065.6</ele>
        <time>2020-08-11T07:05:50Z</time>
      </trkpt>
      <trkpt lat="45.14271" lon="5.93262">
        <ele>2066</ele>
        <time>2020-08-11T07:05:51Z</time>
      </trkpt>
      <trkpt lat="45.14272" lon="5.93263">
        <ele>2066</ele>
        <time>2020-08-11T07:05:52Z</time>
      </trkpt>
      <trkpt lat="45.14272" lon="5.93263">
        <ele>2066.2</ele>
        <time>2020-08-11T07:05:53Z</time>
      </trkpt>
      <trkpt lat="45.14273" lon="5.93264">
        <ele>2066</ele>
        <time>2020-08-11T07:05:54Z</time>
      </trkpt>
      <trkpt lat="45.14273" lon="5.93264">
        <ele>2066.2</ele>
        <time>2020-08-11T07:05:55Z</time>
      </trkpt>
      <trkpt lat="45.14273" lon="5.93265">
        <ele>2066.6</ele>
        <time>2020-08-11T07:05:56Z</time>
      </trkpt>
      <trkpt lat="45.14274" lon="5.93266">
        <ele>2066.8</ele>
        <time>2020-08-11T07:05:57Z</time>
      </trkpt>
      <trkpt lat="45.14274" lon="5.93266">
        <ele>2066.8</ele>
        <time>2020-08-11T07:05:58Z</time>
      </trkpt>
      <trkpt lat="45.14275" lon="5.93267">
        <ele>2067</ele>
        <time>2020-08-11T07:05:59Z</time>
      </trkpt>
      <trkpt lat="45.14276" lon="5.93268">
        <ele>2067</ele>
        <time>2020-08-11T07:06:00Z</time>
      </trkpt>
      <trkpt lat="45.14276" lon="5.93269">
        <ele>2067.4</ele>
        <time>2020-08-11T07:06:01Z</time>
      </trkpt>
      <trkpt lat="45.14277" lon="5.9327">
        <ele>2067.6</ele>
        <time>2020-08-11T07:06:02Z</time>
      </trkpt>
      <trkpt lat="45.14278" lon="5.93271">
        <ele>2067.6</ele>
        <time>2020-08-11T07:06:03Z</time>
      </trkpt>
      <trkpt lat="45.14279" lon="5.93272">
        <ele>2067.6</ele>
        <time>2020-08-11T07:06:04Z</time>
      </trkpt>
      <trkpt lat="45.1428" lon="5.93273">
        <ele>2067.8</ele>
        <time>2020-08-11T07:06:05Z</time>
      </trkpt>
      <trkpt lat="45.14281" lon="5.93275">
        <ele>2068.2</ele>
        <time>2020-08-11T07:06:06Z</time>
      </trkpt>
      <trkpt lat="45.14282" lon="5.93276">
        <ele>2068.4</ele>
        <time>2020-08-11T07:06:07Z</time>
      </trkpt>
      <trkpt lat="45.14282" lon="5.93277">
        <ele>2068.8</ele>
        <time>2020-08-11T07:06:08Z</time>
      </trkpt>
      <trkpt lat="45.14283" lon="5.93278">
        <ele>2069</ele>
        <time>2020-08-11T07:06:09Z</time>
      </trkpt>
      <trkpt lat="45.14283" lon="5.9328">
        <ele>2069.2</ele>
        <time>2020-08-11T07:06:10Z</time>
      </trkpt>
      <trkpt lat="45.14284" lon="5.93281">
        <ele>2069.2</ele>
        <time>2020-08-11T07:06:11Z</time>
      </trkpt>
      <trkpt lat="45.14284" lon="5.93282">
        <ele>2069.2</ele>
        <time>2020-08-11T07:06:12Z</time>
      </trkpt>
      <trkpt lat="45.14285" lon="5.93284">
        <ele>2069.2</ele>
        <time>2020-08-11T07:06:13Z</time>
      </trkpt>
      <trkpt lat="45.14285" lon="5.93285">
        <ele>2069.6</ele>
        <time>2020-08-11T07:06:14Z</time>
      </trkpt>
      <trkpt lat="45.14286" lon="5.93286">
        <ele>2070</ele>
        <time>2020-08-11T07:06:15Z</time>
      </trkpt>
      <trkpt lat="45.14287" lon="5.93288">
        <ele>2070.2</ele>
        <time>2020-08-11T07:06:16Z</time>
      </trkpt>
      <trkpt lat="45.14287" lon="5.93289">
        <ele>2070.4</ele>
        <time>2020-08-11T07:06:17Z</time>
      </trkpt>
      <trkpt lat="45.14288" lon="5.9329">
        <ele>2070.6</ele>
        <time>2020-08-11T07:06:18Z</time>
      </trkpt>
      <trkpt lat="45.14288" lon="5.93291">
        <ele>2070.8</ele>
        <time>2020-08-11T07:06:19Z</time>
      </trkpt>
      <trkpt lat="45.14289" lon="5.93292">
        <ele>2070.8</ele>
        <time>2020-08-11T07:06:20Z</time>
      </trkpt>
      <trkpt lat="45.14289" lon="5.93293">
        <ele>2071</ele>
        <time>2020-08-11T07:06:21Z</time>
      </trkpt>
      <trkpt lat="45.1429" lon="5.93294">
        <ele>2071.6</ele>
        <time>2020-08-11T07:06:22Z</time>
      </trkpt>
      <trkpt lat="45.1429" lon="5.93296">
        <ele>2071.8</ele>
        <time>2020-08-11T07:06:23Z</time>
      </trkpt>
      <trkpt lat="45.14291" lon="5.93297">
        <ele>2072.2</ele>
        <time>2020-08-11T07:06:24Z</time>
      </trkpt>
      <trkpt lat="45.14291" lon="5.93298">
        <ele>2072.4</ele>
        <time>2020-08-11T07:06:25Z</time>
      </trkpt>
      <trkpt lat="45.14292" lon="5.93299">
        <ele>2072.6</ele>
        <time>2020-08-11T07:06:26Z</time>
      </trkpt>
      <trkpt lat="45.14293" lon="5.933">
        <ele>2072.6</ele>
        <time>2020-08-11T07:06:27Z</time>
      </trkpt>
      <trkpt lat="45.14294" lon="5.93302">
        <ele>2072.6</ele>
        <time>2020-08-11T07:06:28Z</time>
      </trkpt>
      <trkpt lat="45.14294" lon="5.93304">
        <ele>2073</ele>
        <time>2020-08-11T07:06:29Z</time>
      </trkpt>
      <trkpt lat="45.14295" lon="5.93305">
        <ele>2073.4</ele>
        <time>2020-08-11T07:06:30Z</time>
      </trkpt>
      <trkpt lat="45.14296" lon="5.93307">
        <ele>2073.6</ele>
        <time>2020-08-11T07:06:31Z</time>
      </trkpt>
      <trkpt lat="45.14297" lon="5.93308">
        <ele>2073.8</ele>
        <time>2020-08-11T07:06:32Z</time>
      </trkpt>
      <trkpt lat="45.14297" lon="5.93309">
        <ele>2073.8</ele>
        <time>2020-08-11T07:06:33Z</time>
      </trkpt>
      <trkpt lat="45.14297" lon="5.9331">
        <ele>2074</ele>
        <time>2020-08-11T07:06:34Z</time>
      </trkpt>
      <trkpt lat="45.14298" lon="5.93311">
        <ele>2074.2</ele>
        <time>2020-08-11T07:06:35Z</time>
      </trkpt>
      <trkpt lat="45.14298" lon="5.93312">
        <ele>2074.2</ele>
        <time>2020-08-11T07:06:36Z</time>
      </trkpt>
      <trkpt lat="45.14298" lon="5.93313">
        <ele>2074.2</ele>
        <time>2020-08-11T07:06:37Z</time>
      </trkpt>
      <trkpt lat="45.14299" lon="5.93314">
        <ele>2074</ele>
        <time>2020-08-11T07:06:38Z</time>
      </trkpt>
      <trkpt lat="45.14299" lon="5.93316">
        <ele>2074.2</ele>
        <time>2020-08-11T07:06:39Z</time>
      </trkpt>
      <trkpt lat="45.14299" lon="5.93317">
        <ele>2074</ele>
        <time>2020-08-11T07:06:40Z</time>
      </trkpt>
      <trkpt lat="45.14299" lon="5.93317">
        <ele>2073.8</ele>
        <time>2020-08-11T07:06:41Z</time>
      </trkpt>
      <trkpt lat="45.143" lon="5.9332">
        <ele>2073.8</ele>
        <time>2020-08-11T07:06:42Z</time>
      </trkpt>
      <trkpt lat="45.143" lon="5.93323">
        <ele>2073.8</ele>
        <time>2020-08-11T07:06:43Z</time>
      </trkpt>
      <trkpt lat="45.143" lon="5.93323">
        <ele>2074</ele>
        <time>2020-08-11T07:06:44Z</time>
      </trkpt>
      <trkpt lat="45.143" lon="5.93327">
        <ele>2074</ele>
        <time>2020-08-11T07:06:45Z</time>
      </trkpt>
      <trkpt lat="45.143" lon="5.9333">
        <ele>2074.2</ele>
        <time>2020-08-11T07:06:46Z</time>
      </trkpt>
      <trkpt lat="45.143" lon="5.93332">
        <ele>2074.4</ele>
        <time>2020-08-11T07:06:47Z</time>
      </trkpt>
      <trkpt lat="45.143" lon="5.93335">
        <ele>2074.2</ele>
        <time>2020-08-11T07:06:48Z</time>
      </trkpt>
      <trkpt lat="45.143" lon="5.93335">
        <ele>2074</ele>
        <time>2020-08-11T07:06:49Z</time>
      </trkpt>
      <trkpt lat="45.143" lon="5.93335">
        <ele>2074.2</ele>
        <time>2020-08-11T07:06:50Z</time>
      </trkpt>
      <trkpt lat="45.143" lon="5.93339">
        <ele>2074.2</ele>
        <time>2020-08-11T07:06:51Z</time>
      </trkpt>
      <trkpt lat="45.143" lon="5.93343">
        <ele>2074.2</ele>
        <time>2020-08-11T07:06:52Z</time>
      </trkpt>
      <trkpt lat="45.143" lon="5.93343">
        <ele>2074.4</ele>
        <time>2020-08-11T07:06:53Z</time>
      </trkpt>
      <trkpt lat="45.143" lon="5.93346">
        <ele>2074.2</ele>
        <time>2020-08-11T07:06:54Z</time>
      </trkpt>
      <trkpt lat="45.143" lon="5.9335">
        <ele>2074.4</ele>
        <time>2020-08-11T07:06:55Z</time>
      </trkpt>
      <trkpt lat="45.143" lon="5.9335">
        <ele>2074.4</ele>
        <time>2020-08-11T07:06:56Z</time>
      </trkpt>
      <trkpt lat="45.143" lon="5.9335">
        <ele>2074.4</ele>
        <time>2020-08-11T07:06:57Z</time>
      </trkpt>
      <trkpt lat="45.14301" lon="5.93353">
        <ele>2074.4</ele>
        <time>2020-08-11T07:06:58Z</time>
      </trkpt>
      <trkpt lat="45.14302" lon="5.93355">
        <ele>2074.4</ele>
        <time>2020-08-11T07:06:59Z</time>
      </trkpt>
      <trkpt lat="45.14302" lon="5.93355">
        <ele>2074.6</ele>
        <time>2020-08-11T07:07:00Z</time>
      </trkpt>
      <trkpt lat="45.14305" lon="5.93357">
        <ele>2074.6</ele>
        <time>2020-08-11T07:07:01Z</time>
      </trkpt>
      <trkpt lat="45.14305" lon="5.93357">
        <ele>2074.8</ele>
        <time>2020-08-11T07:07:02Z</time>
      </trkpt>
      <trkpt lat="45.14305" lon="5.93357">
        <ele>2075</ele>
        <time>2020-08-11T07:07:03Z</time>
      </trkpt>
      <trkpt lat="45.14306" lon="5.93359">
        <ele>2075</ele>
        <time>2020-08-11T07:07:04Z</time>
      </trkpt>
      <trkpt lat="45.14306" lon="5.93359">
        <ele>2075.6</ele>
        <time>2020-08-11T07:07:05Z</time>
      </trkpt>
      <trkpt lat="45.14306" lon="5.93359">
        <ele>2075.6</ele>
        <time>2020-08-11T07:07:06Z</time>
      </trkpt>
      <trkpt lat="45.14308" lon="5.93362">
        <ele>2075.6</ele>
        <time>2020-08-11T07:07:07Z</time>
      </trkpt>
      <trkpt lat="45.14308" lon="5.93362">
        <ele>2075.6</ele>
        <time>2020-08-11T07:07:08Z</time>
      </trkpt>
      <trkpt lat="45.14308" lon="5.93362">
        <ele>2075.8</ele>
        <time>2020-08-11T07:07:09Z</time>
      </trkpt>
      <trkpt lat="45.14308" lon="5.93362">
        <ele>2076</ele>
        <time>2020-08-11T07:07:10Z</time>
      </trkpt>
      <trkpt lat="45.14309" lon="5.93365">
        <ele>2076</ele>
        <time>2020-08-11T07:07:11Z</time>
      </trkpt>
      <trkpt lat="45.14309" lon="5.93365">
        <ele>2076.4</ele>
        <time>2020-08-11T07:07:12Z</time>
      </trkpt>
      <trkpt lat="45.14309" lon="5.93365">
        <ele>2076.6</ele>
        <time>2020-08-11T07:07:13Z</time>
      </trkpt>
      <trkpt lat="45.1431" lon="5.93367">
        <ele>2077</ele>
        <time>2020-08-11T07:07:14Z</time>
      </trkpt>
      <trkpt lat="45.1431" lon="5.93367">
        <ele>2077</ele>
        <time>2020-08-11T07:07:15Z</time>
      </trkpt>
      <trkpt lat="45.14311" lon="5.9337">
        <ele>2077.2</ele>
        <time>2020-08-11T07:07:16Z</time>
      </trkpt>
      <trkpt lat="45.14311" lon="5.9337">
        <ele>2077.2</ele>
        <time>2020-08-11T07:07:17Z</time>
      </trkpt>
      <trkpt lat="45.14311" lon="5.9337">
        <ele>2077.2</ele>
        <time>2020-08-11T07:07:18Z</time>
      </trkpt>
      <trkpt lat="45.14311" lon="5.9337">
        <ele>2077.2</ele>
        <time>2020-08-11T07:07:19Z</time>
      </trkpt>
      <trkpt lat="45.14312" lon="5.93373">
        <ele>2077.4</ele>
        <time>2020-08-11T07:07:20Z</time>
      </trkpt>
      <trkpt lat="45.14312" lon="5.93373">
        <ele>2077.2</ele>
        <time>2020-08-11T07:07:21Z</time>
      </trkpt>
      <trkpt lat="45.14312" lon="5.93373">
        <ele>2077.2</ele>
        <time>2020-08-11T07:07:22Z</time>
      </trkpt>
      <trkpt lat="45.14312" lon="5.93373">
        <ele>2077</ele>
        <time>2020-08-11T07:07:23Z</time>
      </trkpt>
      <trkpt lat="45.14314" lon="5.93374">
        <ele>2077</ele>
        <time>2020-08-11T07:07:24Z</time>
      </trkpt>
      <trkpt lat="45.14314" lon="5.93374">
        <ele>2077</ele>
        <time>2020-08-11T07:07:25Z</time>
      </trkpt>
      <trkpt lat="45.14316" lon="5.93373">
        <ele>2077.2</ele>
        <time>2020-08-11T07:07:26Z</time>
      </trkpt>
      <trkpt lat="45.14316" lon="5.93373">
        <ele>2077.4</ele>
        <time>2020-08-11T07:07:27Z</time>
      </trkpt>
      <trkpt lat="45.14317" lon="5.93373">
        <ele>2077.6</ele>
        <time>2020-08-11T07:07:28Z</time>
      </trkpt>
      <trkpt lat="45.14317" lon="5.93373">
        <ele>2077.6</ele>
        <time>2020-08-11T07:07:29Z</time>
      </trkpt>
      <trkpt lat="45.14317" lon="5.93373">
        <ele>2077.8</ele>
        <time>2020-08-11T07:07:30Z</time>
      </trkpt>
      <trkpt lat="45.14317" lon="5.93373">
        <ele>2078.2</ele>
        <time>2020-08-11T07:07:31Z</time>
      </trkpt>
      <trkpt lat="45.14319" lon="5.93374">
        <ele>2078.4</ele>
        <time>2020-08-11T07:07:32Z</time>
      </trkpt>
      <trkpt lat="45.14319" lon="5.93374">
        <ele>2078.6</ele>
        <time>2020-08-11T07:07:33Z</time>
      </trkpt>
      <trkpt lat="45.14319" lon="5.93374">
        <ele>2078.8</ele>
        <time>2020-08-11T07:07:34Z</time>
      </trkpt>
      <trkpt lat="45.14319" lon="5.93374">
        <ele>2078.8</ele>
        <time>2020-08-11T07:07:35Z</time>
      </trkpt>
      <trkpt lat="45.1432" lon="5.93379">
        <ele>2079</ele>
        <time>2020-08-11T07:07:36Z</time>
      </trkpt>
      <trkpt lat="45.1432" lon="5.93379">
        <ele>2079</ele>
        <time>2020-08-11T07:07:37Z</time>
      </trkpt>
      <trkpt lat="45.1432" lon="5.93379">
        <ele>2079.2</ele>
        <time>2020-08-11T07:07:38Z</time>
      </trkpt>
      <trkpt lat="45.14319" lon="5.93382">
        <ele>2079.6</ele>
        <time>2020-08-11T07:07:39Z</time>
      </trkpt>
      <trkpt lat="45.14318" lon="5.93385">
        <ele>2079.8</ele>
        <time>2020-08-11T07:07:40Z</time>
      </trkpt>
      <trkpt lat="45.14318" lon="5.93385">
        <ele>2080</ele>
        <time>2020-08-11T07:07:41Z</time>
      </trkpt>
      <trkpt lat="45.14318" lon="5.93385">
        <ele>2080.4</ele>
        <time>2020-08-11T07:07:42Z</time>
      </trkpt>
      <trkpt lat="45.14318" lon="5.93385">
        <ele>2080.4</ele>
        <time>2020-08-11T07:07:43Z</time>
      </trkpt>
      <trkpt lat="45.14318" lon="5.93385">
        <ele>2080.8</ele>
        <time>2020-08-11T07:07:44Z</time>
      </trkpt>
      <trkpt lat="45.14319" lon="5.93389">
        <ele>2081</ele>
        <time>2020-08-11T07:07:45Z</time>
      </trkpt>
      <trkpt lat="45.14319" lon="5.93389">
        <ele>2081</ele>
        <time>2020-08-11T07:07:46Z</time>
      </trkpt>
      <trkpt lat="45.14319" lon="5.93389">
        <ele>2081</ele>
        <time>2020-08-11T07:07:47Z</time>
      </trkpt>
      <trkpt lat="45.1432" lon="5.93393">
        <ele>2081</ele>
        <time>2020-08-11T07:07:48Z</time>
      </trkpt>
      <trkpt lat="45.14321" lon="5.93396">
        <ele>2081.6</ele>
        <time>2020-08-11T07:07:49Z</time>
      </trkpt>
      <trkpt lat="45.14321" lon="5.93396">
        <ele>2081.8</ele>
        <time>2020-08-11T07:07:50Z</time>
      </trkpt>
      <trkpt lat="45.14321" lon="5.93396">
        <ele>2082</ele>
        <time>2020-08-11T07:07:51Z</time>
      </trkpt>
      <trkpt lat="45.14321" lon="5.93396">
        <ele>2082</ele>
        <time>2020-08-11T07:07:52Z</time>
      </trkpt>
      <trkpt lat="45.14321" lon="5.93399">
        <ele>2082.2</ele>
        <time>2020-08-11T07:07:53Z</time>
      </trkpt>
      <trkpt lat="45.14321" lon="5.93399">
        <ele>2082.4</ele>
        <time>2020-08-11T07:07:54Z</time>
      </trkpt>
      <trkpt lat="45.14322" lon="5.93403">
        <ele>2082.6</ele>
        <time>2020-08-11T07:07:55Z</time>
      </trkpt>
      <trkpt lat="45.14322" lon="5.93403">
        <ele>2082.8</ele>
        <time>2020-08-11T07:07:56Z</time>
      </trkpt>
      <trkpt lat="45.14323" lon="5.93405">
        <ele>2082.8</ele>
        <time>2020-08-11T07:07:57Z</time>
      </trkpt>
      <trkpt lat="45.14323" lon="5.93405">
        <ele>2083.2</ele>
        <time>2020-08-11T07:07:58Z</time>
      </trkpt>
      <trkpt lat="45.14322" lon="5.93408">
        <ele>2083.4</ele>
        <time>2020-08-11T07:07:59Z</time>
      </trkpt>
      <trkpt lat="45.14322" lon="5.93408">
        <ele>2083.8</ele>
        <time>2020-08-11T07:08:00Z</time>
      </trkpt>
      <trkpt lat="45.14321" lon="5.93411">
        <ele>2084.2</ele>
        <time>2020-08-11T07:08:01Z</time>
      </trkpt>
      <trkpt lat="45.14321" lon="5.93411">
        <ele>2084.4</ele>
        <time>2020-08-11T07:08:02Z</time>
      </trkpt>
      <trkpt lat="45.14321" lon="5.93411">
        <ele>2084.8</ele>
        <time>2020-08-11T07:08:03Z</time>
      </trkpt>
      <trkpt lat="45.1432" lon="5.93413">
        <ele>2085</ele>
        <time>2020-08-11T07:08:04Z</time>
      </trkpt>
      <trkpt lat="45.1432" lon="5.93413">
        <ele>2085.4</ele>
        <time>2020-08-11T07:08:05Z</time>
      </trkpt>
      <trkpt lat="45.1432" lon="5.93413">
        <ele>2085.8</ele>
        <time>2020-08-11T07:08:06Z</time>
      </trkpt>
      <trkpt lat="45.14322" lon="5.93416">
        <ele>2085.8</ele>
        <time>2020-08-11T07:08:07Z</time>
      </trkpt>
      <trkpt lat="45.14324" lon="5.93419">
        <ele>2086</ele>
        <time>2020-08-11T07:08:08Z</time>
      </trkpt>
      <trkpt lat="45.14326" lon="5.93422">
        <ele>2086.2</ele>
        <time>2020-08-11T07:08:09Z</time>
      </trkpt>
      <trkpt lat="45.14328" lon="5.93425">
        <ele>2086.4</ele>
        <time>2020-08-11T07:08:10Z</time>
      </trkpt>
      <trkpt lat="45.14329" lon="5.93428">
        <ele>2086.6</ele>
        <time>2020-08-11T07:08:11Z</time>
      </trkpt>
      <trkpt lat="45.14334" lon="5.93429">
        <ele>2086.6</ele>
        <time>2020-08-11T07:08:12Z</time>
      </trkpt>
      <trkpt lat="45.14336" lon="5.9343">
        <ele>2086.6</ele>
        <time>2020-08-11T07:08:13Z</time>
      </trkpt>
      <trkpt lat="45.14338" lon="5.93431">
        <ele>2086.6</ele>
        <time>2020-08-11T07:08:14Z</time>
      </trkpt>
      <trkpt lat="45.14339" lon="5.93432">
        <ele>2086.8</ele>
        <time>2020-08-11T07:08:15Z</time>
      </trkpt>
      <trkpt lat="45.14341" lon="5.93433">
        <ele>2086.8</ele>
        <time>2020-08-11T07:08:16Z</time>
      </trkpt>
      <trkpt lat="45.14342" lon="5.93434">
        <ele>2086.8</ele>
        <time>2020-08-11T07:08:17Z</time>
      </trkpt>
      <trkpt lat="45.14344" lon="5.93435">
        <ele>2086.8</ele>
        <time>2020-08-11T07:08:18Z</time>
      </trkpt>
      <trkpt lat="45.14345" lon="5.93436">
        <ele>2086.8</ele>
        <time>2020-08-11T07:08:19Z</time>
      </trkpt>
      <trkpt lat="45.14346" lon="5.93437">
        <ele>2087</ele>
        <time>2020-08-11T07:08:20Z</time>
      </trkpt>
      <trkpt lat="45.14347" lon="5.93438">
        <ele>2087</ele>
        <time>2020-08-11T07:08:21Z</time>
      </trkpt>
      <trkpt lat="45.14348" lon="5.93438">
        <ele>2087.2</ele>
        <time>2020-08-11T07:08:22Z</time>
      </trkpt>
      <trkpt lat="45.14349" lon="5.93439">
        <ele>2087.4</ele>
        <time>2020-08-11T07:08:23Z</time>
      </trkpt>
      <trkpt lat="45.1435" lon="5.9344">
        <ele>2087.6</ele>
        <time>2020-08-11T07:08:24Z</time>
      </trkpt>
      <trkpt lat="45.14351" lon="5.93441">
        <ele>2088</ele>
        <time>2020-08-11T07:08:25Z</time>
      </trkpt>
      <trkpt lat="45.14352" lon="5.93442">
        <ele>2087.8</ele>
        <time>2020-08-11T07:08:26Z</time>
      </trkpt>
      <trkpt lat="45.14353" lon="5.93443">
        <ele>2088.2</ele>
        <time>2020-08-11T07:08:27Z</time>
      </trkpt>
      <trkpt lat="45.14354" lon="5.93444">
        <ele>2088.2</ele>
        <time>2020-08-11T07:08:28Z</time>
      </trkpt>
      <trkpt lat="45.14355" lon="5.93446">
        <ele>2088.6</ele>
        <time>2020-08-11T07:08:29Z</time>
      </trkpt>
      <trkpt lat="45.14356" lon="5.93447">
        <ele>2088.8</ele>
        <time>2020-08-11T07:08:30Z</time>
      </trkpt>
      <trkpt lat="45.14357" lon="5.93448">
        <ele>2089.2</ele>
        <time>2020-08-11T07:08:31Z</time>
      </trkpt>
      <trkpt lat="45.14358" lon="5.93449">
        <ele>2089.2</ele>
        <time>2020-08-11T07:08:32Z</time>
      </trkpt>
      <trkpt lat="45.1436" lon="5.93451">
        <ele>2089.4</ele>
        <time>2020-08-11T07:08:33Z</time>
      </trkpt>
      <trkpt lat="45.1436" lon="5.93451">
        <ele>2089.6</ele>
        <time>2020-08-11T07:08:34Z</time>
      </trkpt>
      <trkpt lat="45.1436" lon="5.93451">
        <ele>2089.8</ele>
        <time>2020-08-11T07:08:35Z</time>
      </trkpt>
      <trkpt lat="45.14361" lon="5.93452">
        <ele>2089.8</ele>
        <time>2020-08-11T07:08:36Z</time>
      </trkpt>
      <trkpt lat="45.14361" lon="5.93452">
        <ele>2090.2</ele>
        <time>2020-08-11T07:08:37Z</time>
      </trkpt>
      <trkpt lat="45.14362" lon="5.93453">
        <ele>2090.2</ele>
        <time>2020-08-11T07:08:38Z</time>
      </trkpt>
      <trkpt lat="45.14362" lon="5.93453">
        <ele>2090.4</ele>
        <time>2020-08-11T07:08:39Z</time>
      </trkpt>
      <trkpt lat="45.14363" lon="5.93454">
        <ele>2090.6</ele>
        <time>2020-08-11T07:08:40Z</time>
      </trkpt>
      <trkpt lat="45.14363" lon="5.93454">
        <ele>2091</ele>
        <time>2020-08-11T07:08:41Z</time>
      </trkpt>
      <trkpt lat="45.14363" lon="5.93455">
        <ele>2091.2</ele>
        <time>2020-08-11T07:08:42Z</time>
      </trkpt>
      <trkpt lat="45.14364" lon="5.93455">
        <ele>2091.4</ele>
        <time>2020-08-11T07:08:43Z</time>
      </trkpt>
      <trkpt lat="45.14364" lon="5.93456">
        <ele>2091.8</ele>
        <time>2020-08-11T07:08:44Z</time>
      </trkpt>
      <trkpt lat="45.14365" lon="5.93456">
        <ele>2091.8</ele>
        <time>2020-08-11T07:08:45Z</time>
      </trkpt>
      <trkpt lat="45.14365" lon="5.93457">
        <ele>2092</ele>
        <time>2020-08-11T07:08:46Z</time>
      </trkpt>
      <trkpt lat="45.14365" lon="5.93457">
        <ele>2092.2</ele>
        <time>2020-08-11T07:08:47Z</time>
      </trkpt>
      <trkpt lat="45.14366" lon="5.93458">
        <ele>2092.4</ele>
        <time>2020-08-11T07:08:48Z</time>
      </trkpt>
      <trkpt lat="45.14366" lon="5.93458">
        <ele>2092.6</ele>
        <time>2020-08-11T07:08:49Z</time>
      </trkpt>
      <trkpt lat="45.14367" lon="5.93458">
        <ele>2093</ele>
        <time>2020-08-11T07:08:50Z</time>
      </trkpt>
      <trkpt lat="45.14367" lon="5.93459">
        <ele>2093.4</ele>
        <time>2020-08-11T07:08:51Z</time>
      </trkpt>
      <trkpt lat="45.14367" lon="5.9346">
        <ele>2093.6</ele>
        <time>2020-08-11T07:08:52Z</time>
      </trkpt>
      <trkpt lat="45.14368" lon="5.93461">
        <ele>2094</ele>
        <time>2020-08-11T07:08:53Z</time>
      </trkpt>
      <trkpt lat="45.14368" lon="5.93462">
        <ele>2094.4</ele>
        <time>2020-08-11T07:08:54Z</time>
      </trkpt>
      <trkpt lat="45.14369" lon="5.93462">
        <ele>2094.4</ele>
        <time>2020-08-11T07:08:55Z</time>
      </trkpt>
      <trkpt lat="45.14369" lon="5.93463">
        <ele>2094.8</ele>
        <time>2020-08-11T07:08:56Z</time>
      </trkpt>
      <trkpt lat="45.14369" lon="5.93464">
        <ele>2095.2</ele>
        <time>2020-08-11T07:08:57Z</time>
      </trkpt>
      <trkpt lat="45.1437" lon="5.93465">
        <ele>2095.4</ele>
        <time>2020-08-11T07:08:58Z</time>
      </trkpt>
      <trkpt lat="45.1437" lon="5.93465">
        <ele>2095.8</ele>
        <time>2020-08-11T07:08:59Z</time>
      </trkpt>
      <trkpt lat="45.1437" lon="5.93466">
        <ele>2096.4</ele>
        <time>2020-08-11T07:09:00Z</time>
      </trkpt>
      <trkpt lat="45.14371" lon="5.93467">
        <ele>2096.4</ele>
        <time>2020-08-11T07:09:01Z</time>
      </trkpt>
      <trkpt lat="45.14371" lon="5.93468">
        <ele>2096.8</ele>
        <time>2020-08-11T07:09:02Z</time>
      </trkpt>
      <trkpt lat="45.14371" lon="5.93468">
        <ele>2097</ele>
        <time>2020-08-11T07:09:03Z</time>
      </trkpt>
      <trkpt lat="45.14372" lon="5.93469">
        <ele>2097.2</ele>
        <time>2020-08-11T07:09:04Z</time>
      </trkpt>
      <trkpt lat="45.14372" lon="5.9347">
        <ele>2097.4</ele>
        <time>2020-08-11T07:09:05Z</time>
      </trkpt>
      <trkpt lat="45.14373" lon="5.9347">
        <ele>2097.6</ele>
        <time>2020-08-11T07:09:06Z</time>
      </trkpt>
      <trkpt lat="45.14373" lon="5.9347">
        <ele>2098</ele>
        <time>2020-08-11T07:09:07Z</time>
      </trkpt>
      <trkpt lat="45.14374" lon="5.93471">
        <ele>2098.2</ele>
        <time>2020-08-11T07:09:08Z</time>
      </trkpt>
      <trkpt lat="45.14374" lon="5.93471">
        <ele>2098.2</ele>
        <time>2020-08-11T07:09:09Z</time>
      </trkpt>
      <trkpt lat="45.14375" lon="5.93471">
        <ele>2098.4</ele>
        <time>2020-08-11T07:09:10Z</time>
      </trkpt>
      <trkpt lat="45.14375" lon="5.93472">
        <ele>2098.6</ele>
        <time>2020-08-11T07:09:11Z</time>
      </trkpt>
      <trkpt lat="45.14376" lon="5.93472">
        <ele>2098.8</ele>
        <time>2020-08-11T07:09:12Z</time>
      </trkpt>
      <trkpt lat="45.14376" lon="5.93472">
        <ele>2098.8</ele>
        <time>2020-08-11T07:09:13Z</time>
      </trkpt>
      <trkpt lat="45.14378" lon="5.93472">
        <ele>2098.6</ele>
        <time>2020-08-11T07:09:14Z</time>
      </trkpt>
      <trkpt lat="45.14378" lon="5.93472">
        <ele>2098.8</ele>
        <time>2020-08-11T07:09:15Z</time>
      </trkpt>
      <trkpt lat="45.14378" lon="5.93472">
        <ele>2098.8</ele>
        <time>2020-08-11T07:09:16Z</time>
      </trkpt>
      <trkpt lat="45.14381" lon="5.93471">
        <ele>2099</ele>
        <time>2020-08-11T07:09:17Z</time>
      </trkpt>
      <trkpt lat="45.14381" lon="5.93471">
        <ele>2099</ele>
        <time>2020-08-11T07:09:18Z</time>
      </trkpt>
      <trkpt lat="45.14381" lon="5.93471">
        <ele>2099</ele>
        <time>2020-08-11T07:09:19Z</time>
      </trkpt>
      <trkpt lat="45.14381" lon="5.93471">
        <ele>2099</ele>
        <time>2020-08-11T07:09:20Z</time>
      </trkpt>
      <trkpt lat="45.14381" lon="5.93471">
        <ele>2099</ele>
        <time>2020-08-11T07:09:21Z</time>
      </trkpt>
      <trkpt lat="45.14381" lon="5.93471">
        <ele>2099</ele>
        <time>2020-08-11T07:09:22Z</time>
      </trkpt>
      <trkpt lat="45.14381" lon="5.93471">
        <ele>2099</ele>
        <time>2020-08-11T07:09:23Z</time>
      </trkpt>
      <trkpt lat="45.14381" lon="5.93471">
        <ele>2099.2</ele>
        <time>2020-08-11T07:09:24Z</time>
      </trkpt>
      <trkpt lat="45.14382" lon="5.93473">
        <ele>2099</ele>
        <time>2020-08-11T07:09:25Z</time>
      </trkpt>
      <trkpt lat="45.14382" lon="5.93473">
        <ele>2099</ele>
        <time>2020-08-11T07:09:26Z</time>
      </trkpt>
      <trkpt lat="45.14382" lon="5.93473">
        <ele>2099.2</ele>
        <time>2020-08-11T07:09:27Z</time>
      </trkpt>
      <trkpt lat="45.14382" lon="5.93473">
        <ele>2099.2</ele>
        <time>2020-08-11T07:09:28Z</time>
      </trkpt>
      <trkpt lat="45.14382" lon="5.93473">
        <ele>2099.2</ele>
        <time>2020-08-11T07:09:29Z</time>
      </trkpt>
      <trkpt lat="45.14382" lon="5.93473">
        <ele>2099.2</ele>
        <time>2020-08-11T07:09:30Z</time>
      </trkpt>
      <trkpt lat="45.14382" lon="5.93473">
        <ele>2099</ele>
        <time>2020-08-11T07:09:31Z</time>
      </trkpt>
      <trkpt lat="45.14385" lon="5.93473">
        <ele>2099</ele>
        <time>2020-08-11T07:09:32Z</time>
      </trkpt>
      <trkpt lat="45.14385" lon="5.93473">
        <ele>2099</ele>
        <time>2020-08-11T07:09:33Z</time>
      </trkpt>
      <trkpt lat="45.14385" lon="5.93473">
        <ele>2099</ele>
        <time>2020-08-11T07:09:34Z</time>
      </trkpt>
      <trkpt lat="45.14385" lon="5.93473">
        <ele>2099</ele>
        <time>2020-08-11T07:09:35Z</time>
      </trkpt>
      <trkpt lat="45.14385" lon="5.93473">
        <ele>2099</ele>
        <time>2020-08-11T07:09:36Z</time>
      </trkpt>
      <trkpt lat="45.14385" lon="5.93473">
        <ele>2099.2</ele>
        <time>2020-08-11T07:09:37Z</time>
      </trkpt>
      <trkpt lat="45.14385" lon="5.93473">
        <ele>2099</ele>
        <time>2020-08-11T07:09:38Z</time>
      </trkpt>
      <trkpt lat="45.14385" lon="5.93473">
        <ele>2099</ele>
        <time>2020-08-11T07:09:39Z</time>
      </trkpt>
      <trkpt lat="45.14385" lon="5.93473">
        <ele>2098.8</ele>
        <time>2020-08-11T07:09:40Z</time>
      </trkpt>
      <trkpt lat="45.14385" lon="5.93473">
        <ele>2099</ele>
        <time>2020-08-11T07:09:41Z</time>
      </trkpt>
      <trkpt lat="45.14385" lon="5.93473">
        <ele>2099</ele>
        <time>2020-08-11T07:09:42Z</time>
      </trkpt>
      <trkpt lat="45.14385" lon="5.93473">
        <ele>2099</ele>
        <time>2020-08-11T07:09:43Z</time>
      </trkpt>
      <trkpt lat="45.14385" lon="5.93473">
        <ele>2099</ele>
        <time>2020-08-11T07:09:44Z</time>
      </trkpt>
      <trkpt lat="45.14385" lon="5.93473">
        <ele>2098.8</ele>
        <time>2020-08-11T07:09:45Z</time>
      </trkpt>
      <trkpt lat="45.14385" lon="5.93473">
        <ele>2098.8</ele>
        <time>2020-08-11T07:09:46Z</time>
      </trkpt>
      <trkpt lat="45.14385" lon="5.93473">
        <ele>2098.8</ele>
        <time>2020-08-11T07:09:47Z</time>
      </trkpt>
      <trkpt lat="45.14386" lon="5.93472">
        <ele>2098.8</ele>
        <time>2020-08-11T07:09:48Z</time>
      </trkpt>
      <trkpt lat="45.14386" lon="5.93472">
        <ele>2098.8</ele>
        <time>2020-08-11T07:09:49Z</time>
      </trkpt>
      <trkpt lat="45.14386" lon="5.93472">
        <ele>2098.8</ele>
        <time>2020-08-11T07:09:50Z</time>
      </trkpt>
      <trkpt lat="45.14386" lon="5.93472">
        <ele>2099</ele>
        <time>2020-08-11T07:09:51Z</time>
      </trkpt>
      <trkpt lat="45.14386" lon="5.93472">
        <ele>2099</ele>
        <time>2020-08-11T07:09:52Z</time>
      </trkpt>
      <trkpt lat="45.14386" lon="5.93472">
        <ele>2099</ele>
        <time>2020-08-11T07:09:53Z</time>
      </trkpt>
      <trkpt lat="45.14386" lon="5.93472">
        <ele>2098.8</ele>
        <time>2020-08-11T07:09:54Z</time>
      </trkpt>
      <trkpt lat="45.14386" lon="5.93472">
        <ele>2099</ele>
        <time>2020-08-11T07:09:55Z</time>
      </trkpt>
      <trkpt lat="45.14386" lon="5.93472">
        <ele>2099.4</ele>
        <time>2020-08-11T07:09:56Z</time>
      </trkpt>
      <trkpt lat="45.14388" lon="5.93472">
        <ele>2099.4</ele>
        <time>2020-08-11T07:09:57Z</time>
      </trkpt>
      <trkpt lat="45.14388" lon="5.93472">
        <ele>2099.2</ele>
        <time>2020-08-11T07:09:58Z</time>
      </trkpt>
      <trkpt lat="45.14388" lon="5.93472">
        <ele>2099</ele>
        <time>2020-08-11T07:09:59Z</time>
      </trkpt>
      <trkpt lat="45.14388" lon="5.93472">
        <ele>2099.2</ele>
        <time>2020-08-11T07:10:01Z</time>
      </trkpt>
      <trkpt lat="45.14388" lon="5.93472">
        <ele>2099.6</ele>
        <time>2020-08-11T07:10:02Z</time>
      </trkpt>
      <trkpt lat="45.14388" lon="5.93472">
        <ele>2099.4</ele>
        <time>2020-08-11T07:10:03Z</time>
      </trkpt>
      <trkpt lat="45.14388" lon="5.93472">
        <ele>2099.2</ele>
        <time>2020-08-11T07:10:04Z</time>
      </trkpt>
      <trkpt lat="45.14388" lon="5.93472">
        <ele>2099.4</ele>
        <time>2020-08-11T07:10:05Z</time>
      </trkpt>
      <trkpt lat="45.14388" lon="5.93472">
        <ele>2099.2</ele>
        <time>2020-08-11T07:10:06Z</time>
      </trkpt>
      <trkpt lat="45.14388" lon="5.93472">
        <ele>2099.2</ele>
        <time>2020-08-11T07:10:07Z</time>
      </trkpt>
      <trkpt lat="45.14388" lon="5.93472">
        <ele>2099.2</ele>
        <time>2020-08-11T07:10:08Z</time>
      </trkpt>
      <trkpt lat="45.14388" lon="5.93472">
        <ele>2099</ele>
        <time>2020-08-11T07:10:09Z</time>
      </trkpt>
      <trkpt lat="45.14388" lon="5.93472">
        <ele>2098.8</ele>
        <time>2020-08-11T07:10:10Z</time>
      </trkpt>
      <trkpt lat="45.1439" lon="5.9347">
        <ele>2098.8</ele>
        <time>2020-08-11T07:10:11Z</time>
      </trkpt>
      <trkpt lat="45.1439" lon="5.9347">
        <ele>2098.4</ele>
        <time>2020-08-11T07:10:12Z</time>
      </trkpt>
      <trkpt lat="45.1439" lon="5.9347">
        <ele>2098.6</ele>
        <time>2020-08-11T07:10:13Z</time>
      </trkpt>
      <trkpt lat="45.1439" lon="5.9347">
        <ele>2098.6</ele>
        <time>2020-08-11T07:10:14Z</time>
      </trkpt>
      <trkpt lat="45.1439" lon="5.9347">
        <ele>2098.8</ele>
        <time>2020-08-11T07:10:15Z</time>
      </trkpt>
      <trkpt lat="45.1439" lon="5.9347">
        <ele>2098.8</ele>
        <time>2020-08-11T07:10:16Z</time>
      </trkpt>
      <trkpt lat="45.1439" lon="5.9347">
        <ele>2099</ele>
        <time>2020-08-11T07:10:17Z</time>
      </trkpt>
      <trkpt lat="45.1439" lon="5.9347">
        <ele>2099.2</ele>
        <time>2020-08-11T07:10:18Z</time>
      </trkpt>
      <trkpt lat="45.1439" lon="5.9347">
        <ele>2099.2</ele>
        <time>2020-08-11T07:10:19Z</time>
      </trkpt>
      <trkpt lat="45.1439" lon="5.9347">
        <ele>2099.2</ele>
        <time>2020-08-11T07:10:20Z</time>
      </trkpt>
      <trkpt lat="45.1439" lon="5.9347">
        <ele>2099.2</ele>
        <time>2020-08-11T07:10:21Z</time>
      </trkpt>
      <trkpt lat="45.1439" lon="5.9347">
        <ele>2099.2</ele>
        <time>2020-08-11T07:10:22Z</time>
      </trkpt>
      <trkpt lat="45.1439" lon="5.9347">
        <ele>2099.4</ele>
        <time>2020-08-11T07:10:23Z</time>
      </trkpt>
      <trkpt lat="45.1439" lon="5.9347">
        <ele>2099.4</ele>
        <time>2020-08-11T07:10:24Z</time>
      </trkpt>
      <trkpt lat="45.1439" lon="5.9347">
        <ele>2099.4</ele>
        <time>2020-08-11T07:10:25Z</time>
      </trkpt>
      <trkpt lat="45.1439" lon="5.9347">
        <ele>2099.4</ele>
        <time>2020-08-11T07:10:26Z</time>
      </trkpt>
      <trkpt lat="45.1439" lon="5.9347">
        <ele>2099.4</ele>
        <time>2020-08-11T07:10:27Z</time>
      </trkpt>
      <trkpt lat="45.1439" lon="5.9347">
        <ele>2099.4</ele>
        <time>2020-08-11T07:10:28Z</time>
      </trkpt>
      <trkpt lat="45.1439" lon="5.9347">
        <ele>2099.4</ele>
        <time>2020-08-11T07:10:29Z</time>
      </trkpt>
      <trkpt lat="45.1439" lon="5.9347">
        <ele>2099.4</ele>
        <time>2020-08-11T07:10:30Z</time>
      </trkpt>
      <trkpt lat="45.1439" lon="5.9347">
        <ele>2099.4</ele>
        <time>2020-08-11T07:10:31Z</time>
      </trkpt>
      <trkpt lat="45.1439" lon="5.9347">
        <ele>2099.4</ele>
        <time>2020-08-11T07:10:32Z</time>
      </trkpt>
      <trkpt lat="45.1439" lon="5.9347">
        <ele>2099.4</ele>
        <time>2020-08-11T07:10:33Z</time>
      </trkpt>
      <trkpt lat="45.14392" lon="5.9347">
        <ele>2099.4</ele>
        <time>2020-08-11T07:10:34Z</time>
      </trkpt>
      <trkpt lat="45.14392" lon="5.9347">
        <ele>2099.4</ele>
        <time>2020-08-11T07:10:35Z</time>
      </trkpt>
      <trkpt lat="45.14392" lon="5.9347">
        <ele>2099.4</ele>
        <time>2020-08-11T07:10:36Z</time>
      </trkpt>
      <trkpt lat="45.14392" lon="5.9347">
        <ele>2099.4</ele>
        <time>2020-08-11T07:10:37Z</time>
      </trkpt>
      <trkpt lat="45.14392" lon="5.9347">
        <ele>2099.4</ele>
        <time>2020-08-11T07:10:38Z</time>
      </trkpt>
      <trkpt lat="45.14392" lon="5.9347">
        <ele>2099.2</ele>
        <time>2020-08-11T07:10:39Z</time>
      </trkpt>
      <trkpt lat="45.14392" lon="5.9347">
        <ele>2099.4</ele>
        <time>2020-08-11T07:10:40Z</time>
      </trkpt>
      <trkpt lat="45.14392" lon="5.9347">
        <ele>2099.2</ele>
        <time>2020-08-11T07:10:41Z</time>
      </trkpt>
      <trkpt lat="45.14392" lon="5.9347">
        <ele>2099.4</ele>
        <time>2020-08-11T07:10:42Z</time>
      </trkpt>
      <trkpt lat="45.14392" lon="5.9347">
        <ele>2099.6</ele>
        <time>2020-08-11T07:10:43Z</time>
      </trkpt>
      <trkpt lat="45.14392" lon="5.9347">
        <ele>2099.6</ele>
        <time>2020-08-11T07:10:44Z</time>
      </trkpt>
      <trkpt lat="45.14392" lon="5.9347">
        <ele>2099.6</ele>
        <time>2020-08-11T07:10:45Z</time>
      </trkpt>
      <trkpt lat="45.14394" lon="5.9347">
        <ele>2099.6</ele>
        <time>2020-08-11T07:10:46Z</time>
      </trkpt>
      <trkpt lat="45.14394" lon="5.9347">
        <ele>2099.6</ele>
        <time>2020-08-11T07:10:47Z</time>
      </trkpt>
      <trkpt lat="45.14394" lon="5.9347">
        <ele>2099.6</ele>
        <time>2020-08-11T07:10:48Z</time>
      </trkpt>
      <trkpt lat="45.14394" lon="5.9347">
        <ele>2099.4</ele>
        <time>2020-08-11T07:10:49Z</time>
      </trkpt>
      <trkpt lat="45.14394" lon="5.9347">
        <ele>2099.2</ele>
        <time>2020-08-11T07:10:50Z</time>
      </trkpt>
      <trkpt lat="45.14394" lon="5.9347">
        <ele>2099.4</ele>
        <time>2020-08-11T07:10:51Z</time>
      </trkpt>
      <trkpt lat="45.14394" lon="5.9347">
        <ele>2099.2</ele>
        <time>2020-08-11T07:10:52Z</time>
      </trkpt>
      <trkpt lat="45.14394" lon="5.9347">
        <ele>2099.2</ele>
        <time>2020-08-11T07:10:53Z</time>
      </trkpt>
      <trkpt lat="45.14395" lon="5.93468">
        <ele>2099.2</ele>
        <time>2020-08-11T07:10:54Z</time>
      </trkpt>
      <trkpt lat="45.14395" lon="5.93468">
        <ele>2099.2</ele>
        <time>2020-08-11T07:10:55Z</time>
      </trkpt>
      <trkpt lat="45.14395" lon="5.93468">
        <ele>2099.2</ele>
        <time>2020-08-11T07:10:56Z</time>
      </trkpt>
      <trkpt lat="45.14395" lon="5.93468">
        <ele>2099.2</ele>
        <time>2020-08-11T07:10:57Z</time>
      </trkpt>
      <trkpt lat="45.14395" lon="5.93468">
        <ele>2099.2</ele>
        <time>2020-08-11T07:10:58Z</time>
      </trkpt>
      <trkpt lat="45.14395" lon="5.93468">
        <ele>2099.2</ele>
        <time>2020-08-11T07:10:59Z</time>
      </trkpt>
      <trkpt lat="45.14395" lon="5.93468">
        <ele>2099.2</ele>
        <time>2020-08-11T07:11:00Z</time>
      </trkpt>
      <trkpt lat="45.14395" lon="5.93468">
        <ele>2099.2</ele>
        <time>2020-08-11T07:11:01Z</time>
      </trkpt>
      <trkpt lat="45.14395" lon="5.93468">
        <ele>2099.2</ele>
        <time>2020-08-11T07:11:02Z</time>
      </trkpt>
      <trkpt lat="45.14395" lon="5.93468">
        <ele>2099.2</ele>
        <time>2020-08-11T07:11:03Z</time>
      </trkpt>
      <trkpt lat="45.14395" lon="5.93468">
        <ele>2099.2</ele>
        <time>2020-08-11T07:11:04Z</time>
      </trkpt>
      <trkpt lat="45.14395" lon="5.93468">
        <ele>2099.2</ele>
        <time>2020-08-11T07:11:05Z</time>
      </trkpt>
      <trkpt lat="45.14395" lon="5.93468">
        <ele>2099.2</ele>
        <time>2020-08-11T07:11:06Z</time>
      </trkpt>
      <trkpt lat="45.14395" lon="5.93468">
        <ele>2099.2</ele>
        <time>2020-08-11T07:11:07Z</time>
      </trkpt>
      <trkpt lat="45.14395" lon="5.93468">
        <ele>2099.2</ele>
        <time>2020-08-11T07:11:08Z</time>
      </trkpt>
      <trkpt lat="45.14395" lon="5.93468">
        <ele>2099</ele>
        <time>2020-08-11T07:11:09Z</time>
      </trkpt>
      <trkpt lat="45.14395" lon="5.93468">
        <ele>2098.8</ele>
        <time>2020-08-11T07:11:10Z</time>
      </trkpt>
      <trkpt lat="45.14395" lon="5.93468">
        <ele>2099</ele>
        <time>2020-08-11T07:11:11Z</time>
      </trkpt>
      <trkpt lat="45.14395" lon="5.93468">
        <ele>2099</ele>
        <time>2020-08-11T07:11:12Z</time>
      </trkpt>
      <trkpt lat="45.14396" lon="5.93466">
        <ele>2099.2</ele>
        <time>2020-08-11T07:11:13Z</time>
      </trkpt>
      <trkpt lat="45.14396" lon="5.93466">
        <ele>2099.2</ele>
        <time>2020-08-11T07:11:14Z</time>
      </trkpt>
      <trkpt lat="45.14396" lon="5.93466">
        <ele>2099.4</ele>
        <time>2020-08-11T07:11:15Z</time>
      </trkpt>
      <trkpt lat="45.14396" lon="5.93466">
        <ele>2099.4</ele>
        <time>2020-08-11T07:11:16Z</time>
      </trkpt>
      <trkpt lat="45.14396" lon="5.93466">
        <ele>2099.4</ele>
        <time>2020-08-11T07:11:17Z</time>
      </trkpt>
      <trkpt lat="45.14396" lon="5.93466">
        <ele>2099.4</ele>
        <time>2020-08-11T07:11:18Z</time>
      </trkpt>
      <trkpt lat="45.14396" lon="5.93466">
        <ele>2099.2</ele>
        <time>2020-08-11T07:11:19Z</time>
      </trkpt>
      <trkpt lat="45.14396" lon="5.93466">
        <ele>2099.4</ele>
        <time>2020-08-11T07:11:20Z</time>
      </trkpt>
      <trkpt lat="45.14398" lon="5.93466">
        <ele>2099.4</ele>
        <time>2020-08-11T07:11:21Z</time>
      </trkpt>
      <trkpt lat="45.14398" lon="5.93466">
        <ele>2099.4</ele>
        <time>2020-08-11T07:11:22Z</time>
      </trkpt>
      <trkpt lat="45.14398" lon="5.93466">
        <ele>2099.4</ele>
        <time>2020-08-11T07:11:23Z</time>
      </trkpt>
      <trkpt lat="45.14398" lon="5.93466">
        <ele>2099.4</ele>
        <time>2020-08-11T07:11:24Z</time>
      </trkpt>
      <trkpt lat="45.14398" lon="5.93466">
        <ele>2099.4</ele>
        <time>2020-08-11T07:11:25Z</time>
      </trkpt>
      <trkpt lat="45.14398" lon="5.93466">
        <ele>2099.4</ele>
        <time>2020-08-11T07:11:26Z</time>
      </trkpt>
      <trkpt lat="45.14398" lon="5.93466">
        <ele>2099.4</ele>
        <time>2020-08-11T07:11:27Z</time>
      </trkpt>
      <trkpt lat="45.14398" lon="5.93466">
        <ele>2099.4</ele>
        <time>2020-08-11T07:11:28Z</time>
      </trkpt>
      <trkpt lat="45.14398" lon="5.93466">
        <ele>2099.4</ele>
        <time>2020-08-11T07:11:29Z</time>
      </trkpt>
      <trkpt lat="45.14398" lon="5.93466">
        <ele>2099.4</ele>
        <time>2020-08-11T07:11:30Z</time>
      </trkpt>
      <trkpt lat="45.14398" lon="5.93466">
        <ele>2099.4</ele>
        <time>2020-08-11T07:11:31Z</time>
      </trkpt>
      <trkpt lat="45.14398" lon="5.93466">
        <ele>2099.4</ele>
        <time>2020-08-11T07:11:32Z</time>
      </trkpt>
      <trkpt lat="45.14398" lon="5.93466">
        <ele>2099.4</ele>
        <time>2020-08-11T07:11:33Z</time>
      </trkpt>
      <trkpt lat="45.14398" lon="5.93466">
        <ele>2099.2</ele>
        <time>2020-08-11T07:11:34Z</time>
      </trkpt>
      <trkpt lat="45.14398" lon="5.93466">
        <ele>2099.2</ele>
        <time>2020-08-11T07:11:35Z</time>
      </trkpt>
      <trkpt lat="45.14398" lon="5.93466">
        <ele>2099.2</ele>
        <time>2020-08-11T07:11:36Z</time>
      </trkpt>
      <trkpt lat="45.14398" lon="5.93466">
        <ele>2099.2</ele>
        <time>2020-08-11T07:11:37Z</time>
      </trkpt>
      <trkpt lat="45.14398" lon="5.93466">
        <ele>2099.2</ele>
        <time>2020-08-11T07:11:38Z</time>
      </trkpt>
      <trkpt lat="45.14398" lon="5.93466">
        <ele>2099.2</ele>
        <time>2020-08-11T07:11:39Z</time>
      </trkpt>
      <trkpt lat="45.14398" lon="5.93466">
        <ele>2099.2</ele>
        <time>2020-08-11T07:11:40Z</time>
      </trkpt>
      <trkpt lat="45.14398" lon="5.93466">
        <ele>2099.4</ele>
        <time>2020-08-11T07:11:41Z</time>
      </trkpt>
      <trkpt lat="45.14398" lon="5.93466">
        <ele>2099.4</ele>
        <time>2020-08-11T07:11:42Z</time>
      </trkpt>
      <trkpt lat="45.14398" lon="5.93466">
        <ele>2099.4</ele>
        <time>2020-08-11T07:11:43Z</time>
      </trkpt>
      <trkpt lat="45.14398" lon="5.93466">
        <ele>2099.4</ele>
        <time>2020-08-11T07:11:44Z</time>
      </trkpt>
      <trkpt lat="45.14398" lon="5.93466">
        <ele>2099.4</ele>
        <time>2020-08-11T07:11:45Z</time>
      </trkpt>
      <trkpt lat="45.14398" lon="5.93466">
        <ele>2099.4</ele>
        <time>2020-08-11T07:11:46Z</time>
      </trkpt>
      <trkpt lat="45.14398" lon="5.93466">
        <ele>2099.2</ele>
        <time>2020-08-11T07:11:47Z</time>
      </trkpt>
      <trkpt lat="45.14398" lon="5.93466">
        <ele>2099.2</ele>
        <time>2020-08-11T07:11:48Z</time>
      </trkpt>
      <trkpt lat="45.14398" lon="5.93466">
        <ele>2099.4</ele>
        <time>2020-08-11T07:11:49Z</time>
      </trkpt>
      <trkpt lat="45.14398" lon="5.93466">
        <ele>2099.2</ele>
        <time>2020-08-11T07:11:50Z</time>
      </trkpt>
      <trkpt lat="45.14398" lon="5.93466">
        <ele>2099.2</ele>
        <time>2020-08-11T07:11:51Z</time>
      </trkpt>
      <trkpt lat="45.14398" lon="5.93466">
        <ele>2099.2</ele>
        <time>2020-08-11T07:11:52Z</time>
      </trkpt>
      <trkpt lat="45.14398" lon="5.93466">
        <ele>2099</ele>
        <time>2020-08-11T07:11:53Z</time>
      </trkpt>
      <trkpt lat="45.14398" lon="5.93466">
        <ele>2099.2</ele>
        <time>2020-08-11T07:11:54Z</time>
      </trkpt>
      <trkpt lat="45.14398" lon="5.93466">
        <ele>2099.2</ele>
        <time>2020-08-11T07:11:55Z</time>
      </trkpt>
      <trkpt lat="45.14398" lon="5.93466">
        <ele>2099.2</ele>
        <time>2020-08-11T07:11:56Z</time>
      </trkpt>
      <trkpt lat="45.14398" lon="5.93466">
        <ele>2099.2</ele>
        <time>2020-08-11T07:11:57Z</time>
      </trkpt>
      <trkpt lat="45.14398" lon="5.93466">
        <ele>2099.2</ele>
        <time>2020-08-11T07:11:58Z</time>
      </trkpt>
      <trkpt lat="45.14398" lon="5.93466">
        <ele>2099.2</ele>
        <time>2020-08-11T07:11:59Z</time>
      </trkpt>
      <trkpt lat="45.14398" lon="5.93466">
        <ele>2099</ele>
        <time>2020-08-11T07:12:00Z</time>
      </trkpt>
      <trkpt lat="45.14398" lon="5.93466">
        <ele>2099</ele>
        <time>2020-08-11T07:12:01Z</time>
      </trkpt>
      <trkpt lat="45.14398" lon="5.93466">
        <ele>2099</ele>
        <time>2020-08-11T07:12:02Z</time>
      </trkpt>
      <trkpt lat="45.14398" lon="5.93466">
        <ele>2098.8</ele>
        <time>2020-08-11T07:12:03Z</time>
      </trkpt>
      <trkpt lat="45.14398" lon="5.93466">
        <ele>2098.8</ele>
        <time>2020-08-11T07:12:04Z</time>
      </trkpt>
      <trkpt lat="45.14398" lon="5.93466">
        <ele>2098.6</ele>
        <time>2020-08-11T07:12:05Z</time>
      </trkpt>
      <trkpt lat="45.14398" lon="5.93466">
        <ele>2098.6</ele>
        <time>2020-08-11T07:12:06Z</time>
      </trkpt>
      <trkpt lat="45.14398" lon="5.93466">
        <ele>2098.6</ele>
        <time>2020-08-11T07:12:07Z</time>
      </trkpt>
      <trkpt lat="45.14398" lon="5.93466">
        <ele>2098.6</ele>
        <time>2020-08-11T07:12:08Z</time>
      </trkpt>
      <trkpt lat="45.14398" lon="5.93466">
        <ele>2098.6</ele>
        <time>2020-08-11T07:12:09Z</time>
      </trkpt>
      <trkpt lat="45.14398" lon="5.93466">
        <ele>2098.4</ele>
        <time>2020-08-11T07:12:10Z</time>
      </trkpt>
      <trkpt lat="45.14398" lon="5.93466">
        <ele>2098.4</ele>
        <time>2020-08-11T07:12:11Z</time>
      </trkpt>
      <trkpt lat="45.14398" lon="5.93466">
        <ele>2098.4</ele>
        <time>2020-08-11T07:12:12Z</time>
      </trkpt>
      <trkpt lat="45.14398" lon="5.93466">
        <ele>2098.4</ele>
        <time>2020-08-11T07:12:13Z</time>
      </trkpt>
      <trkpt lat="45.14398" lon="5.93466">
        <ele>2098.2</ele>
        <time>2020-08-11T07:12:14Z</time>
      </trkpt>
      <trkpt lat="45.14401" lon="5.93465">
        <ele>2098</ele>
        <time>2020-08-11T07:12:15Z</time>
      </trkpt>
      <trkpt lat="45.14401" lon="5.93465">
        <ele>2097.8</ele>
        <time>2020-08-11T07:12:16Z</time>
      </trkpt>
      <trkpt lat="45.14401" lon="5.93462">
        <ele>2097.8</ele>
        <time>2020-08-11T07:12:17Z</time>
      </trkpt>
      <trkpt lat="45.14401" lon="5.93462">
        <ele>2097.6</ele>
        <time>2020-08-11T07:12:18Z</time>
      </trkpt>
      <trkpt lat="45.14401" lon="5.93462">
        <ele>2097.6</ele>
        <time>2020-08-11T07:12:19Z</time>
      </trkpt>
      <trkpt lat="45.14401" lon="5.93462">
        <ele>2097.6</ele>
        <time>2020-08-11T07:12:20Z</time>
      </trkpt>
      <trkpt lat="45.14401" lon="5.93462">
        <ele>2096.8</ele>
        <time>2020-08-11T07:12:21Z</time>
      </trkpt>
      <trkpt lat="45.14401" lon="5.93459">
        <ele>2096.6</ele>
        <time>2020-08-11T07:12:22Z</time>
      </trkpt>
      <trkpt lat="45.14401" lon="5.93459">
        <ele>2096.2</ele>
        <time>2020-08-11T07:12:23Z</time>
      </trkpt>
      <trkpt lat="45.144" lon="5.93457">
        <ele>2095.6</ele>
        <time>2020-08-11T07:12:24Z</time>
      </trkpt>
      <trkpt lat="45.144" lon="5.93457">
        <ele>2095.4</ele>
        <time>2020-08-11T07:12:25Z</time>
      </trkpt>
      <trkpt lat="45.144" lon="5.93457">
        <ele>2095</ele>
        <time>2020-08-11T07:12:26Z</time>
      </trkpt>
      <trkpt lat="45.144" lon="5.93453">
        <ele>2095</ele>
        <time>2020-08-11T07:12:27Z</time>
      </trkpt>
      <trkpt lat="45.144" lon="5.93453">
        <ele>2094.4</ele>
        <time>2020-08-11T07:12:28Z</time>
      </trkpt>
      <trkpt lat="45.144" lon="5.93453">
        <ele>2094.2</ele>
        <time>2020-08-11T07:12:29Z</time>
      </trkpt>
      <trkpt lat="45.144" lon="5.93453">
        <ele>2094.2</ele>
        <time>2020-08-11T07:12:30Z</time>
      </trkpt>
      <trkpt lat="45.144" lon="5.93453">
        <ele>2093.8</ele>
        <time>2020-08-11T07:12:31Z</time>
      </trkpt>
      <trkpt lat="45.144" lon="5.93453">
        <ele>2093.6</ele>
        <time>2020-08-11T07:12:32Z</time>
      </trkpt>
      <trkpt lat="45.144" lon="5.93453">
        <ele>2093.4</ele>
        <time>2020-08-11T07:12:33Z</time>
      </trkpt>
      <trkpt lat="45.144" lon="5.93453">
        <ele>2093.2</ele>
        <time>2020-08-11T07:12:34Z</time>
      </trkpt>
      <trkpt lat="45.14402" lon="5.9345">
        <ele>2093.4</ele>
        <time>2020-08-11T07:12:35Z</time>
      </trkpt>
      <trkpt lat="45.14402" lon="5.9345">
        <ele>2093.4</ele>
        <time>2020-08-11T07:12:36Z</time>
      </trkpt>
      <trkpt lat="45.14403" lon="5.93447">
        <ele>2093.4</ele>
        <time>2020-08-11T07:12:37Z</time>
      </trkpt>
      <trkpt lat="45.14403" lon="5.93447">
        <ele>2093.4</ele>
        <time>2020-08-11T07:12:38Z</time>
      </trkpt>
      <trkpt lat="45.14405" lon="5.93445">
        <ele>2093.4</ele>
        <time>2020-08-11T07:12:39Z</time>
      </trkpt>
      <trkpt lat="45.14405" lon="5.93445">
        <ele>2093.4</ele>
        <time>2020-08-11T07:12:40Z</time>
      </trkpt>
      <trkpt lat="45.14406" lon="5.93441">
        <ele>2093.6</ele>
        <time>2020-08-11T07:12:41Z</time>
      </trkpt>
      <trkpt lat="45.14406" lon="5.93441">
        <ele>2093.6</ele>
        <time>2020-08-11T07:12:42Z</time>
      </trkpt>
      <trkpt lat="45.14408" lon="5.93437">
        <ele>2093.6</ele>
        <time>2020-08-11T07:12:43Z</time>
      </trkpt>
      <trkpt lat="45.14409" lon="5.93435">
        <ele>2093.6</ele>
        <time>2020-08-11T07:12:44Z</time>
      </trkpt>
      <trkpt lat="45.14409" lon="5.93435">
        <ele>2093.6</ele>
        <time>2020-08-11T07:12:45Z</time>
      </trkpt>
      <trkpt lat="45.1441" lon="5.93431">
        <ele>2093.6</ele>
        <time>2020-08-11T07:12:46Z</time>
      </trkpt>
      <trkpt lat="45.1441" lon="5.93431">
        <ele>2093.4</ele>
        <time>2020-08-11T07:12:47Z</time>
      </trkpt>
      <trkpt lat="45.14412" lon="5.93428">
        <ele>2093.4</ele>
        <time>2020-08-11T07:12:48Z</time>
      </trkpt>
      <trkpt lat="45.14412" lon="5.93428">
        <ele>2093.6</ele>
        <time>2020-08-11T07:12:49Z</time>
      </trkpt>
      <trkpt lat="45.14412" lon="5.93428">
        <ele>2093.6</ele>
        <time>2020-08-11T07:12:50Z</time>
      </trkpt>
      <trkpt lat="45.14412" lon="5.93425">
        <ele>2093.8</ele>
        <time>2020-08-11T07:12:51Z</time>
      </trkpt>
      <trkpt lat="45.14413" lon="5.93422">
        <ele>2093.4</ele>
        <time>2020-08-11T07:12:52Z</time>
      </trkpt>
      <trkpt lat="45.14413" lon="5.93422">
        <ele>2093.2</ele>
        <time>2020-08-11T07:12:53Z</time>
      </trkpt>
      <trkpt lat="45.14413" lon="5.93422">
        <ele>2093</ele>
        <time>2020-08-11T07:12:54Z</time>
      </trkpt>
      <trkpt lat="45.14414" lon="5.93418">
        <ele>2093.2</ele>
        <time>2020-08-11T07:12:55Z</time>
      </trkpt>
      <trkpt lat="45.14414" lon="5.93418">
        <ele>2093.2</ele>
        <time>2020-08-11T07:12:56Z</time>
      </trkpt>
      <trkpt lat="45.14414" lon="5.93418">
        <ele>2093.2</ele>
        <time>2020-08-11T07:12:57Z</time>
      </trkpt>
      <trkpt lat="45.14414" lon="5.93414">
        <ele>2093.2</ele>
        <time>2020-08-11T07:12:58Z</time>
      </trkpt>
      <trkpt lat="45.14414" lon="5.93414">
        <ele>2093.4</ele>
        <time>2020-08-11T07:12:59Z</time>
      </trkpt>
      <trkpt lat="45.14414" lon="5.93411">
        <ele>2093.6</ele>
        <time>2020-08-11T07:13:00Z</time>
      </trkpt>
      <trkpt lat="45.14414" lon="5.93408">
        <ele>2093.8</ele>
        <time>2020-08-11T07:13:01Z</time>
      </trkpt>
      <trkpt lat="45.14414" lon="5.93408">
        <ele>2093.4</ele>
        <time>2020-08-11T07:13:02Z</time>
      </trkpt>
      <trkpt lat="45.14414" lon="5.93408">
        <ele>2093.4</ele>
        <time>2020-08-11T07:13:03Z</time>
      </trkpt>
      <trkpt lat="45.14416" lon="5.93406">
        <ele>2093.2</ele>
        <time>2020-08-11T07:13:04Z</time>
      </trkpt>
      <trkpt lat="45.14416" lon="5.93406">
        <ele>2093.2</ele>
        <time>2020-08-11T07:13:05Z</time>
      </trkpt>
      <trkpt lat="45.14419" lon="5.93404">
        <ele>2093.2</ele>
        <time>2020-08-11T07:13:06Z</time>
      </trkpt>
      <trkpt lat="45.14419" lon="5.93404">
        <ele>2093.4</ele>
        <time>2020-08-11T07:13:07Z</time>
      </trkpt>
      <trkpt lat="45.14422" lon="5.93403">
        <ele>2092.8</ele>
        <time>2020-08-11T07:13:08Z</time>
      </trkpt>
      <trkpt lat="45.14424" lon="5.93402">
        <ele>2093</ele>
        <time>2020-08-11T07:13:09Z</time>
      </trkpt>
      <trkpt lat="45.14424" lon="5.93402">
        <ele>2092.8</ele>
        <time>2020-08-11T07:13:10Z</time>
      </trkpt>
      <trkpt lat="45.14426" lon="5.93402">
        <ele>2093</ele>
        <time>2020-08-11T07:13:11Z</time>
      </trkpt>
      <trkpt lat="45.14426" lon="5.93402">
        <ele>2093.2</ele>
        <time>2020-08-11T07:13:12Z</time>
      </trkpt>
      <trkpt lat="45.14426" lon="5.93402">
        <ele>2093.4</ele>
        <time>2020-08-11T07:13:13Z</time>
      </trkpt>
      <trkpt lat="45.14428" lon="5.93405">
        <ele>2093.6</ele>
        <time>2020-08-11T07:13:14Z</time>
      </trkpt>
      <trkpt lat="45.14428" lon="5.93405">
        <ele>2094</ele>
        <time>2020-08-11T07:13:15Z</time>
      </trkpt>
      <trkpt lat="45.14428" lon="5.93405">
        <ele>2094.6</ele>
        <time>2020-08-11T07:13:16Z</time>
      </trkpt>
      <trkpt lat="45.14428" lon="5.93405">
        <ele>2095.2</ele>
        <time>2020-08-11T07:13:17Z</time>
      </trkpt>
      <trkpt lat="45.14428" lon="5.93405">
        <ele>2095</ele>
        <time>2020-08-11T07:13:18Z</time>
      </trkpt>
      <trkpt lat="45.14428" lon="5.93405">
        <ele>2095.4</ele>
        <time>2020-08-11T07:13:19Z</time>
      </trkpt>
      <trkpt lat="45.14428" lon="5.93405">
        <ele>2095.6</ele>
        <time>2020-08-11T07:13:20Z</time>
      </trkpt>
      <trkpt lat="45.14428" lon="5.93405">
        <ele>2095.8</ele>
        <time>2020-08-11T07:13:21Z</time>
      </trkpt>
      <trkpt lat="45.14428" lon="5.93405">
        <ele>2096.2</ele>
        <time>2020-08-11T07:13:22Z</time>
      </trkpt>
      <trkpt lat="45.14428" lon="5.93405">
        <ele>2096.2</ele>
        <time>2020-08-11T07:13:23Z</time>
      </trkpt>
      <trkpt lat="45.14428" lon="5.93405">
        <ele>2096.2</ele>
        <time>2020-08-11T07:13:24Z</time>
      </trkpt>
      <trkpt lat="45.14429" lon="5.93408">
        <ele>2096.6</ele>
        <time>2020-08-11T07:13:25Z</time>
      </trkpt>
      <trkpt lat="45.14429" lon="5.93408">
        <ele>2096.8</ele>
        <time>2020-08-11T07:13:26Z</time>
      </trkpt>
      <trkpt lat="45.14429" lon="5.93408">
        <ele>2097</ele>
        <time>2020-08-11T07:13:27Z</time>
      </trkpt>
      <trkpt lat="45.14429" lon="5.93408">
        <ele>2097.4</ele>
        <time>2020-08-11T07:13:28Z</time>
      </trkpt>
      <trkpt lat="45.14429" lon="5.93411">
        <ele>2097.6</ele>
        <time>2020-08-11T07:13:29Z</time>
      </trkpt>
      <trkpt lat="45.14429" lon="5.93412">
        <ele>2097.8</ele>
        <time>2020-08-11T07:13:30Z</time>
      </trkpt>
      <trkpt lat="45.14429" lon="5.93413">
        <ele>2098.2</ele>
        <time>2020-08-11T07:13:31Z</time>
      </trkpt>
      <trkpt lat="45.14429" lon="5.93413">
        <ele>2098.4</ele>
        <time>2020-08-11T07:13:32Z</time>
      </trkpt>
      <trkpt lat="45.14429" lon="5.93414">
        <ele>2098.6</ele>
        <time>2020-08-11T07:13:33Z</time>
      </trkpt>
      <trkpt lat="45.14429" lon="5.93415">
        <ele>2098.8</ele>
        <time>2020-08-11T07:13:34Z</time>
      </trkpt>
      <trkpt lat="45.14429" lon="5.93415">
        <ele>2099.2</ele>
        <time>2020-08-11T07:13:35Z</time>
      </trkpt>
      <trkpt lat="45.1443" lon="5.93416">
        <ele>2099.6</ele>
        <time>2020-08-11T07:13:36Z</time>
      </trkpt>
      <trkpt lat="45.1443" lon="5.93417">
        <ele>2099.8</ele>
        <time>2020-08-11T07:13:37Z</time>
      </trkpt>
      <trkpt lat="45.1443" lon="5.93417">
        <ele>2100.2</ele>
        <time>2020-08-11T07:13:38Z</time>
      </trkpt>
      <trkpt lat="45.1443" lon="5.93418">
        <ele>2100.2</ele>
        <time>2020-08-11T07:13:39Z</time>
      </trkpt>
      <trkpt lat="45.1443" lon="5.93419">
        <ele>2100.6</ele>
        <time>2020-08-11T07:13:40Z</time>
      </trkpt>
      <trkpt lat="45.1443" lon="5.93419">
        <ele>2100.8</ele>
        <time>2020-08-11T07:13:41Z</time>
      </trkpt>
      <trkpt lat="45.1443" lon="5.9342">
        <ele>2100.8</ele>
        <time>2020-08-11T07:13:42Z</time>
      </trkpt>
      <trkpt lat="45.1443" lon="5.93421">
        <ele>2100.8</ele>
        <time>2020-08-11T07:13:43Z</time>
      </trkpt>
      <trkpt lat="45.1443" lon="5.93421">
        <ele>2100.8</ele>
        <time>2020-08-11T07:13:44Z</time>
      </trkpt>
      <trkpt lat="45.1443" lon="5.93422">
        <ele>2101</ele>
        <time>2020-08-11T07:13:45Z</time>
      </trkpt>
      <trkpt lat="45.1443" lon="5.93423">
        <ele>2101.2</ele>
        <time>2020-08-11T07:13:46Z</time>
      </trkpt>
      <trkpt lat="45.1443" lon="5.93423">
        <ele>2101.2</ele>
        <time>2020-08-11T07:13:47Z</time>
      </trkpt>
      <trkpt lat="45.1443" lon="5.93424">
        <ele>2101.2</ele>
        <time>2020-08-11T07:13:48Z</time>
      </trkpt>
      <trkpt lat="45.1443" lon="5.93425">
        <ele>2101</ele>
        <time>2020-08-11T07:13:49Z</time>
      </trkpt>
      <trkpt lat="45.1443" lon="5.93425">
        <ele>2100.8</ele>
        <time>2020-08-11T07:13:50Z</time>
      </trkpt>
      <trkpt lat="45.14431" lon="5.93426">
        <ele>2100.6</ele>
        <time>2020-08-11T07:13:51Z</time>
      </trkpt>
      <trkpt lat="45.14431" lon="5.93427">
        <ele>2100.4</ele>
        <time>2020-08-11T07:13:52Z</time>
      </trkpt>
      <trkpt lat="45.14431" lon="5.93428">
        <ele>2100.2</ele>
        <time>2020-08-11T07:13:53Z</time>
      </trkpt>
      <trkpt lat="45.14431" lon="5.93428">
        <ele>2100.4</ele>
        <time>2020-08-11T07:13:54Z</time>
      </trkpt>
      <trkpt lat="45.14431" lon="5.93429">
        <ele>2100.6</ele>
        <time>2020-08-11T07:13:55Z</time>
      </trkpt>
      <trkpt lat="45.14431" lon="5.9343">
        <ele>2100.8</ele>
        <time>2020-08-11T07:13:56Z</time>
      </trkpt>
      <trkpt lat="45.14431" lon="5.9343">
        <ele>2101</ele>
        <time>2020-08-11T07:13:57Z</time>
      </trkpt>
      <trkpt lat="45.14431" lon="5.93431">
        <ele>2101</ele>
        <time>2020-08-11T07:13:58Z</time>
      </trkpt>
      <trkpt lat="45.14431" lon="5.93432">
        <ele>2100.8</ele>
        <time>2020-08-11T07:13:59Z</time>
      </trkpt>
      <trkpt lat="45.14431" lon="5.93432">
        <ele>2100.6</ele>
        <time>2020-08-11T07:14:00Z</time>
      </trkpt>
      <trkpt lat="45.14431" lon="5.93433">
        <ele>2100</ele>
        <time>2020-08-11T07:14:01Z</time>
      </trkpt>
      <trkpt lat="45.14431" lon="5.93434">
        <ele>2099.4</ele>
        <time>2020-08-11T07:14:02Z</time>
      </trkpt>
      <trkpt lat="45.14431" lon="5.93434">
        <ele>2098.8</ele>
        <time>2020-08-11T07:14:03Z</time>
      </trkpt>
      <trkpt lat="45.14431" lon="5.93435">
        <ele>2097.6</ele>
        <time>2020-08-11T07:14:04Z</time>
      </trkpt>
      <trkpt lat="45.14431" lon="5.93436">
        <ele>2097.4</ele>
        <time>2020-08-11T07:14:05Z</time>
      </trkpt>
      <trkpt lat="45.14432" lon="5.93436">
        <ele>2097.4</ele>
        <time>2020-08-11T07:14:06Z</time>
      </trkpt>
      <trkpt lat="45.14432" lon="5.93437">
        <ele>2097.2</ele>
        <time>2020-08-11T07:14:07Z</time>
      </trkpt>
      <trkpt lat="45.14432" lon="5.93438">
        <ele>2097</ele>
        <time>2020-08-11T07:14:08Z</time>
      </trkpt>
      <trkpt lat="45.14432" lon="5.93438">
        <ele>2096.6</ele>
        <time>2020-08-11T07:14:09Z</time>
      </trkpt>
      <trkpt lat="45.14432" lon="5.93439">
        <ele>2096.4</ele>
        <time>2020-08-11T07:14:10Z</time>
      </trkpt>
      <trkpt lat="45.14432" lon="5.9344">
        <ele>2096</ele>
        <time>2020-08-11T07:14:11Z</time>
      </trkpt>
      <trkpt lat="45.14432" lon="5.9344">
        <ele>2095.8</ele>
        <time>2020-08-11T07:14:12Z</time>
      </trkpt>
      <trkpt lat="45.14432" lon="5.93441">
        <ele>2095</ele>
        <time>2020-08-11T07:14:13Z</time>
      </trkpt>
      <trkpt lat="45.14432" lon="5.93442">
        <ele>2094.8</ele>
        <time>2020-08-11T07:14:14Z</time>
      </trkpt>
      <trkpt lat="45.14432" lon="5.93442">
        <ele>2094.8</ele>
        <time>2020-08-11T07:14:15Z</time>
      </trkpt>
      <trkpt lat="45.14432" lon="5.93443">
        <ele>2094.2</ele>
        <time>2020-08-11T07:14:16Z</time>
      </trkpt>
      <trkpt lat="45.14432" lon="5.93444">
        <ele>2094.2</ele>
        <time>2020-08-11T07:14:17Z</time>
      </trkpt>
      <trkpt lat="45.14432" lon="5.93444">
        <ele>2093.8</ele>
        <time>2020-08-11T07:14:18Z</time>
      </trkpt>
      <trkpt lat="45.14432" lon="5.93445">
        <ele>2093.8</ele>
        <time>2020-08-11T07:14:19Z</time>
      </trkpt>
      <trkpt lat="45.14433" lon="5.93446">
        <ele>2093.2</ele>
        <time>2020-08-11T07:14:20Z</time>
      </trkpt>
      <trkpt lat="45.14433" lon="5.93446">
        <ele>2092.8</ele>
        <time>2020-08-11T07:14:21Z</time>
      </trkpt>
      <trkpt lat="45.14433" lon="5.93447">
        <ele>2092.6</ele>
        <time>2020-08-11T07:14:22Z</time>
      </trkpt>
      <trkpt lat="45.14433" lon="5.93448">
        <ele>2092.6</ele>
        <time>2020-08-11T07:14:23Z</time>
      </trkpt>
      <trkpt lat="45.14433" lon="5.93448">
        <ele>2092.4</ele>
        <time>2020-08-11T07:14:24Z</time>
      </trkpt>
      <trkpt lat="45.14433" lon="5.93449">
        <ele>2092.2</ele>
        <time>2020-08-11T07:14:25Z</time>
      </trkpt>
      <trkpt lat="45.14433" lon="5.9345">
        <ele>2092</ele>
        <time>2020-08-11T07:14:26Z</time>
      </trkpt>
      <trkpt lat="45.14433" lon="5.9345">
        <ele>2091.8</ele>
        <time>2020-08-11T07:14:27Z</time>
      </trkpt>
      <trkpt lat="45.14433" lon="5.93451">
        <ele>2091.8</ele>
        <time>2020-08-11T07:14:28Z</time>
      </trkpt>
      <trkpt lat="45.14433" lon="5.93452">
        <ele>2091.6</ele>
        <time>2020-08-11T07:14:29Z</time>
      </trkpt>
      <trkpt lat="45.14433" lon="5.93452">
        <ele>2091.2</ele>
        <time>2020-08-11T07:14:30Z</time>
      </trkpt>
      <trkpt lat="45.14433" lon="5.93453">
        <ele>2091.2</ele>
        <time>2020-08-11T07:14:31Z</time>
      </trkpt>
      <trkpt lat="45.14433" lon="5.93454">
        <ele>2091</ele>
        <time>2020-08-11T07:14:32Z</time>
      </trkpt>
      <trkpt lat="45.14433" lon="5.93454">
        <ele>2090.8</ele>
        <time>2020-08-11T07:14:33Z</time>
      </trkpt>
      <trkpt lat="45.14433" lon="5.93455">
        <ele>2090.6</ele>
        <time>2020-08-11T07:14:34Z</time>
      </trkpt>
      <trkpt lat="45.14434" lon="5.93456">
        <ele>2090.6</ele>
        <time>2020-08-11T07:14:35Z</time>
      </trkpt>
      <trkpt lat="45.14434" lon="5.93456">
        <ele>2090.4</ele>
        <time>2020-08-11T07:14:36Z</time>
      </trkpt>
      <trkpt lat="45.14434" lon="5.93457">
        <ele>2089.8</ele>
        <time>2020-08-11T07:14:37Z</time>
      </trkpt>
      <trkpt lat="45.14434" lon="5.93458">
        <ele>2089</ele>
        <time>2020-08-11T07:14:38Z</time>
      </trkpt>
      <trkpt lat="45.14434" lon="5.93458">
        <ele>2088.2</ele>
        <time>2020-08-11T07:14:39Z</time>
      </trkpt>
      <trkpt lat="45.14434" lon="5.93459">
        <ele>2088</ele>
        <time>2020-08-11T07:14:40Z</time>
      </trkpt>
      <trkpt lat="45.14434" lon="5.9346">
        <ele>2087.8</ele>
        <time>2020-08-11T07:14:41Z</time>
      </trkpt>
      <trkpt lat="45.14434" lon="5.9346">
        <ele>2087.2</ele>
        <time>2020-08-11T07:14:42Z</time>
      </trkpt>
      <trkpt lat="45.14434" lon="5.93461">
        <ele>2086.8</ele>
        <time>2020-08-11T07:14:43Z</time>
      </trkpt>
      <trkpt lat="45.14434" lon="5.93462">
        <ele>2086.8</ele>
        <time>2020-08-11T07:14:44Z</time>
      </trkpt>
      <trkpt lat="45.14434" lon="5.93462">
        <ele>2086.4</ele>
        <time>2020-08-11T07:14:45Z</time>
      </trkpt>
      <trkpt lat="45.14434" lon="5.93463">
        <ele>2086.2</ele>
        <time>2020-08-11T07:14:46Z</time>
      </trkpt>
      <trkpt lat="45.14434" lon="5.93464">
        <ele>2086</ele>
        <time>2020-08-11T07:14:47Z</time>
      </trkpt>
      <trkpt lat="45.14434" lon="5.93464">
        <ele>2085.4</ele>
        <time>2020-08-11T07:14:48Z</time>
      </trkpt>
      <trkpt lat="45.14434" lon="5.93465">
        <ele>2085.2</ele>
        <time>2020-08-11T07:14:49Z</time>
      </trkpt>
      <trkpt lat="45.14435" lon="5.93466">
        <ele>2084.6</ele>
        <time>2020-08-11T07:14:50Z</time>
      </trkpt>
      <trkpt lat="45.14435" lon="5.93466">
        <ele>2084.2</ele>
        <time>2020-08-11T07:14:51Z</time>
      </trkpt>
      <trkpt lat="45.14435" lon="5.93467">
        <ele>2084</ele>
        <time>2020-08-11T07:14:52Z</time>
      </trkpt>
      <trkpt lat="45.14435" lon="5.93468">
        <ele>2083.8</ele>
        <time>2020-08-11T07:14:53Z</time>
      </trkpt>
      <trkpt lat="45.14435" lon="5.93468">
        <ele>2083.8</ele>
        <time>2020-08-11T07:14:54Z</time>
      </trkpt>
      <trkpt lat="45.14435" lon="5.93469">
        <ele>2083.4</ele>
        <time>2020-08-11T07:14:55Z</time>
      </trkpt>
      <trkpt lat="45.14435" lon="5.9347">
        <ele>2083.2</ele>
        <time>2020-08-11T07:14:56Z</time>
      </trkpt>
      <trkpt lat="45.14435" lon="5.9347">
        <ele>2082.8</ele>
        <time>2020-08-11T07:14:57Z</time>
      </trkpt>
      <trkpt lat="45.14435" lon="5.93471">
        <ele>2082.6</ele>
        <time>2020-08-11T07:14:58Z</time>
      </trkpt>
      <trkpt lat="45.14435" lon="5.93472">
        <ele>2082.2</ele>
        <time>2020-08-11T07:14:59Z</time>
      </trkpt>
      <trkpt lat="45.14435" lon="5.93472">
        <ele>2081.4</ele>
        <time>2020-08-11T07:15:00Z</time>
      </trkpt>
      <trkpt lat="45.14435" lon="5.93473">
        <ele>2080.8</ele>
        <time>2020-08-11T07:15:01Z</time>
      </trkpt>
      <trkpt lat="45.14435" lon="5.93474">
        <ele>2080.6</ele>
        <time>2020-08-11T07:15:02Z</time>
      </trkpt>
      <trkpt lat="45.14435" lon="5.93474">
        <ele>2080</ele>
        <time>2020-08-11T07:15:03Z</time>
      </trkpt>
      <trkpt lat="45.14435" lon="5.93474">
        <ele>2080</ele>
        <time>2020-08-11T07:15:04Z</time>
      </trkpt>
      <trkpt lat="45.14437" lon="5.93475">
        <ele>2078.8</ele>
        <time>2020-08-11T07:15:05Z</time>
      </trkpt>
      <trkpt lat="45.14439" lon="5.93476">
        <ele>2078.4</ele>
        <time>2020-08-11T07:15:06Z</time>
      </trkpt>
      <trkpt lat="45.1444" lon="5.93477">
        <ele>2077.8</ele>
        <time>2020-08-11T07:15:07Z</time>
      </trkpt>
      <trkpt lat="45.14442" lon="5.93479">
        <ele>2077.6</ele>
        <time>2020-08-11T07:15:08Z</time>
      </trkpt>
      <trkpt lat="45.14444" lon="5.9348">
        <ele>2076.6</ele>
        <time>2020-08-11T07:15:09Z</time>
      </trkpt>
      <trkpt lat="45.14444" lon="5.93481">
        <ele>2076.6</ele>
        <time>2020-08-11T07:15:10Z</time>
      </trkpt>
      <trkpt lat="45.14445" lon="5.93483">
        <ele>2076.6</ele>
        <time>2020-08-11T07:15:11Z</time>
      </trkpt>
      <trkpt lat="45.14446" lon="5.93484">
        <ele>2075.8</ele>
        <time>2020-08-11T07:15:12Z</time>
      </trkpt>
      <trkpt lat="45.14447" lon="5.93486">
        <ele>2075</ele>
        <time>2020-08-11T07:15:13Z</time>
      </trkpt>
      <trkpt lat="45.14448" lon="5.93487">
        <ele>2074.2</ele>
        <time>2020-08-11T07:15:14Z</time>
      </trkpt>
      <trkpt lat="45.14449" lon="5.93489">
        <ele>2074</ele>
        <time>2020-08-11T07:15:15Z</time>
      </trkpt>
      <trkpt lat="45.14449" lon="5.9349">
        <ele>2073.4</ele>
        <time>2020-08-11T07:15:16Z</time>
      </trkpt>
      <trkpt lat="45.1445" lon="5.93493">
        <ele>2073.2</ele>
        <time>2020-08-11T07:15:17Z</time>
      </trkpt>
      <trkpt lat="45.1445" lon="5.93495">
        <ele>2072.8</ele>
        <time>2020-08-11T07:15:18Z</time>
      </trkpt>
      <trkpt lat="45.1445" lon="5.93498">
        <ele>2072.2</ele>
        <time>2020-08-11T07:15:19Z</time>
      </trkpt>
      <trkpt lat="45.1445" lon="5.935">
        <ele>2072</ele>
        <time>2020-08-11T07:15:20Z</time>
      </trkpt>
      <trkpt lat="45.1445" lon="5.93503">
        <ele>2071.6</ele>
        <time>2020-08-11T07:15:21Z</time>
      </trkpt>
      <trkpt lat="45.14451" lon="5.93505">
        <ele>2071.2</ele>
        <time>2020-08-11T07:15:22Z</time>
      </trkpt>
      <trkpt lat="45.14451" lon="5.93507">
        <ele>2070.4</ele>
        <time>2020-08-11T07:15:23Z</time>
      </trkpt>
      <trkpt lat="45.14451" lon="5.9351">
        <ele>2070.2</ele>
        <time>2020-08-11T07:15:24Z</time>
      </trkpt>
      <trkpt lat="45.14452" lon="5.93512">
        <ele>2069.8</ele>
        <time>2020-08-11T07:15:25Z</time>
      </trkpt>
      <trkpt lat="45.14452" lon="5.93514">
        <ele>2068.8</ele>
        <time>2020-08-11T07:15:26Z</time>
      </trkpt>
      <trkpt lat="45.14452" lon="5.93516">
        <ele>2068.6</ele>
        <time>2020-08-11T07:15:27Z</time>
      </trkpt>
      <trkpt lat="45.14453" lon="5.93519">
        <ele>2068.2</ele>
        <time>2020-08-11T07:15:28Z</time>
      </trkpt>
      <trkpt lat="45.14454" lon="5.9352">
        <ele>2068</ele>
        <time>2020-08-11T07:15:29Z</time>
      </trkpt>
      <trkpt lat="45.14455" lon="5.93522">
        <ele>2067.4</ele>
        <time>2020-08-11T07:15:30Z</time>
      </trkpt>
      <trkpt lat="45.14456" lon="5.93524">
        <ele>2067.2</ele>
        <time>2020-08-11T07:15:31Z</time>
      </trkpt>
      <trkpt lat="45.14457" lon="5.93526">
        <ele>2066.6</ele>
        <time>2020-08-11T07:15:32Z</time>
      </trkpt>
      <trkpt lat="45.14458" lon="5.93528">
        <ele>2066.2</ele>
        <time>2020-08-11T07:15:33Z</time>
      </trkpt>
      <trkpt lat="45.14459" lon="5.9353">
        <ele>2065.6</ele>
        <time>2020-08-11T07:15:34Z</time>
      </trkpt>
      <trkpt lat="45.1446" lon="5.93532">
        <ele>2066</ele>
        <time>2020-08-11T07:15:35Z</time>
      </trkpt>
      <trkpt lat="45.14461" lon="5.93535">
        <ele>2065.2</ele>
        <time>2020-08-11T07:15:36Z</time>
      </trkpt>
      <trkpt lat="45.14462" lon="5.93537">
        <ele>2065.2</ele>
        <time>2020-08-11T07:15:37Z</time>
      </trkpt>
      <trkpt lat="45.14464" lon="5.9354">
        <ele>2064.6</ele>
        <time>2020-08-11T07:15:38Z</time>
      </trkpt>
      <trkpt lat="45.14465" lon="5.93542">
        <ele>2065</ele>
        <time>2020-08-11T07:15:39Z</time>
      </trkpt>
      <trkpt lat="45.14466" lon="5.93545">
        <ele>2064.6</ele>
        <time>2020-08-11T07:15:40Z</time>
      </trkpt>
      <trkpt lat="45.14467" lon="5.93548">
        <ele>2064.8</ele>
        <time>2020-08-11T07:15:41Z</time>
      </trkpt>
      <trkpt lat="45.14468" lon="5.93551">
        <ele>2065</ele>
        <time>2020-08-11T07:15:42Z</time>
      </trkpt>
      <trkpt lat="45.14469" lon="5.93554">
        <ele>2065.2</ele>
        <time>2020-08-11T07:15:43Z</time>
      </trkpt>
      <trkpt lat="45.14469" lon="5.93554">
        <ele>2065.2</ele>
        <time>2020-08-11T07:15:44Z</time>
      </trkpt>
      <trkpt lat="45.14469" lon="5.93554">
        <ele>2065.2</ele>
        <time>2020-08-11T07:15:45Z</time>
      </trkpt>
      <trkpt lat="45.14469" lon="5.93555">
        <ele>2065.6</ele>
        <time>2020-08-11T07:15:46Z</time>
      </trkpt>
      <trkpt lat="45.14469" lon="5.93555">
        <ele>2065.4</ele>
        <time>2020-08-11T07:15:47Z</time>
      </trkpt>
      <trkpt lat="45.14469" lon="5.93556">
        <ele>2065.4</ele>
        <time>2020-08-11T07:15:48Z</time>
      </trkpt>
      <trkpt lat="45.14469" lon="5.93556">
        <ele>2065.4</ele>
        <time>2020-08-11T07:15:49Z</time>
      </trkpt>
      <trkpt lat="45.14469" lon="5.93556">
        <ele>2065.6</ele>
        <time>2020-08-11T07:15:50Z</time>
      </trkpt>
      <trkpt lat="45.14469" lon="5.93557">
        <ele>2065.4</ele>
        <time>2020-08-11T07:15:51Z</time>
      </trkpt>
      <trkpt lat="45.14469" lon="5.93557">
        <ele>2065.4</ele>
        <time>2020-08-11T07:15:52Z</time>
      </trkpt>
      <trkpt lat="45.14469" lon="5.93557">
        <ele>2065.2</ele>
        <time>2020-08-11T07:15:53Z</time>
      </trkpt>
      <trkpt lat="45.14469" lon="5.93558">
        <ele>2065.4</ele>
        <time>2020-08-11T07:15:54Z</time>
      </trkpt>
      <trkpt lat="45.14469" lon="5.93558">
        <ele>2065.4</ele>
        <time>2020-08-11T07:15:55Z</time>
      </trkpt>
      <trkpt lat="45.14469" lon="5.93558">
        <ele>2065.4</ele>
        <time>2020-08-11T07:15:56Z</time>
      </trkpt>
      <trkpt lat="45.14469" lon="5.93559">
        <ele>2065.4</ele>
        <time>2020-08-11T07:15:57Z</time>
      </trkpt>
      <trkpt lat="45.14469" lon="5.93559">
        <ele>2065.4</ele>
        <time>2020-08-11T07:15:58Z</time>
      </trkpt>
      <trkpt lat="45.14469" lon="5.9356">
        <ele>2065.2</ele>
        <time>2020-08-11T07:15:59Z</time>
      </trkpt>
      <trkpt lat="45.14469" lon="5.9356">
        <ele>2065.4</ele>
        <time>2020-08-11T07:16:00Z</time>
      </trkpt>
      <trkpt lat="45.14469" lon="5.9356">
        <ele>2065.4</ele>
        <time>2020-08-11T07:16:01Z</time>
      </trkpt>
      <trkpt lat="45.14469" lon="5.93561">
        <ele>2065.4</ele>
        <time>2020-08-11T07:16:02Z</time>
      </trkpt>
      <trkpt lat="45.14469" lon="5.93561">
        <ele>2065.4</ele>
        <time>2020-08-11T07:16:03Z</time>
      </trkpt>
      <trkpt lat="45.14469" lon="5.93561">
        <ele>2065.2</ele>
        <time>2020-08-11T07:16:04Z</time>
      </trkpt>
      <trkpt lat="45.14469" lon="5.93562">
        <ele>2065.4</ele>
        <time>2020-08-11T07:16:05Z</time>
      </trkpt>
      <trkpt lat="45.14469" lon="5.93562">
        <ele>2065.4</ele>
        <time>2020-08-11T07:16:06Z</time>
      </trkpt>
      <trkpt lat="45.14469" lon="5.93563">
        <ele>2065.6</ele>
        <time>2020-08-11T07:16:07Z</time>
      </trkpt>
      <trkpt lat="45.14469" lon="5.93563">
        <ele>2065.6</ele>
        <time>2020-08-11T07:16:08Z</time>
      </trkpt>
      <trkpt lat="45.14469" lon="5.93563">
        <ele>2065.6</ele>
        <time>2020-08-11T07:16:09Z</time>
      </trkpt>
      <trkpt lat="45.14469" lon="5.93564">
        <ele>2065.8</ele>
        <time>2020-08-11T07:16:10Z</time>
      </trkpt>
      <trkpt lat="45.14469" lon="5.93564">
        <ele>2065.2</ele>
        <time>2020-08-11T07:16:11Z</time>
      </trkpt>
      <trkpt lat="45.14469" lon="5.93564">
        <ele>2065.4</ele>
        <time>2020-08-11T07:16:12Z</time>
      </trkpt>
      <trkpt lat="45.14469" lon="5.93565">
        <ele>2065.6</ele>
        <time>2020-08-11T07:16:13Z</time>
      </trkpt>
      <trkpt lat="45.14469" lon="5.93565">
        <ele>2065.6</ele>
        <time>2020-08-11T07:16:14Z</time>
      </trkpt>
      <trkpt lat="45.14469" lon="5.93566">
        <ele>2065.8</ele>
        <time>2020-08-11T07:16:15Z</time>
      </trkpt>
      <trkpt lat="45.14469" lon="5.93566">
        <ele>2065.8</ele>
        <time>2020-08-11T07:16:16Z</time>
      </trkpt>
      <trkpt lat="45.14469" lon="5.93566">
        <ele>2065.4</ele>
        <time>2020-08-11T07:16:17Z</time>
      </trkpt>
      <trkpt lat="45.14469" lon="5.93567">
        <ele>2065.2</ele>
        <time>2020-08-11T07:16:18Z</time>
      </trkpt>
      <trkpt lat="45.14469" lon="5.93567">
        <ele>2064.8</ele>
        <time>2020-08-11T07:16:19Z</time>
      </trkpt>
      <trkpt lat="45.14469" lon="5.93567">
        <ele>2064.8</ele>
        <time>2020-08-11T07:16:20Z</time>
      </trkpt>
      <trkpt lat="45.14469" lon="5.93568">
        <ele>2064.8</ele>
        <time>2020-08-11T07:16:21Z</time>
      </trkpt>
      <trkpt lat="45.14469" lon="5.93569">
        <ele>2064.8</ele>
        <time>2020-08-11T07:16:22Z</time>
      </trkpt>
      <trkpt lat="45.14469" lon="5.93571">
        <ele>2064.6</ele>
        <time>2020-08-11T07:16:23Z</time>
      </trkpt>
      <trkpt lat="45.14469" lon="5.93572">
        <ele>2064.6</ele>
        <time>2020-08-11T07:16:24Z</time>
      </trkpt>
      <trkpt lat="45.14469" lon="5.93574">
        <ele>2064.8</ele>
        <time>2020-08-11T07:16:25Z</time>
      </trkpt>
      <trkpt lat="45.14469" lon="5.93575">
        <ele>2065</ele>
        <time>2020-08-11T07:16:26Z</time>
      </trkpt>
      <trkpt lat="45.14469" lon="5.93577">
        <ele>2065</ele>
        <time>2020-08-11T07:16:27Z</time>
      </trkpt>
      <trkpt lat="45.14468" lon="5.93578">
        <ele>2065</ele>
        <time>2020-08-11T07:16:28Z</time>
      </trkpt>
      <trkpt lat="45.14468" lon="5.9358">
        <ele>2065.4</ele>
        <time>2020-08-11T07:16:29Z</time>
      </trkpt>
      <trkpt lat="45.14468" lon="5.93582">
        <ele>2065.4</ele>
        <time>2020-08-11T07:16:30Z</time>
      </trkpt>
      <trkpt lat="45.14468" lon="5.93582">
        <ele>2065.2</ele>
        <time>2020-08-11T07:16:31Z</time>
      </trkpt>
      <trkpt lat="45.14469" lon="5.93583">
        <ele>2065.4</ele>
        <time>2020-08-11T07:16:32Z</time>
      </trkpt>
      <trkpt lat="45.14469" lon="5.93584">
        <ele>2065.4</ele>
        <time>2020-08-11T07:16:33Z</time>
      </trkpt>
      <trkpt lat="45.14469" lon="5.93585">
        <ele>2065.4</ele>
        <time>2020-08-11T07:16:34Z</time>
      </trkpt>
      <trkpt lat="45.14469" lon="5.93586">
        <ele>2065.4</ele>
        <time>2020-08-11T07:16:35Z</time>
      </trkpt>
      <trkpt lat="45.1447" lon="5.93586">
        <ele>2065.6</ele>
        <time>2020-08-11T07:16:36Z</time>
      </trkpt>
      <trkpt lat="45.1447" lon="5.93587">
        <ele>2065.6</ele>
        <time>2020-08-11T07:16:37Z</time>
      </trkpt>
      <trkpt lat="45.1447" lon="5.93588">
        <ele>2065.6</ele>
        <time>2020-08-11T07:16:38Z</time>
      </trkpt>
      <trkpt lat="45.1447" lon="5.93589">
        <ele>2065.8</ele>
        <time>2020-08-11T07:16:39Z</time>
      </trkpt>
      <trkpt lat="45.1447" lon="5.9359">
        <ele>2065.8</ele>
        <time>2020-08-11T07:16:40Z</time>
      </trkpt>
      <trkpt lat="45.14471" lon="5.9359">
        <ele>2066.2</ele>
        <time>2020-08-11T07:16:41Z</time>
      </trkpt>
      <trkpt lat="45.14471" lon="5.93591">
        <ele>2066.2</ele>
        <time>2020-08-11T07:16:42Z</time>
      </trkpt>
      <trkpt lat="45.14471" lon="5.93592">
        <ele>2066.2</ele>
        <time>2020-08-11T07:16:43Z</time>
      </trkpt>
      <trkpt lat="45.14471" lon="5.93593">
        <ele>2066.2</ele>
        <time>2020-08-11T07:16:44Z</time>
      </trkpt>
      <trkpt lat="45.14471" lon="5.93594">
        <ele>2066.4</ele>
        <time>2020-08-11T07:16:45Z</time>
      </trkpt>
      <trkpt lat="45.14472" lon="5.93594">
        <ele>2066.4</ele>
        <time>2020-08-11T07:16:46Z</time>
      </trkpt>
      <trkpt lat="45.14472" lon="5.93596">
        <ele>2066.6</ele>
        <time>2020-08-11T07:16:47Z</time>
      </trkpt>
      <trkpt lat="45.14473" lon="5.93597">
        <ele>2066.4</ele>
        <time>2020-08-11T07:16:48Z</time>
      </trkpt>
      <trkpt lat="45.14473" lon="5.93598">
        <ele>2066.4</ele>
        <time>2020-08-11T07:16:49Z</time>
      </trkpt>
      <trkpt lat="45.14473" lon="5.936">
        <ele>2066.4</ele>
        <time>2020-08-11T07:16:50Z</time>
      </trkpt>
      <trkpt lat="45.14474" lon="5.93601">
        <ele>2066.6</ele>
        <time>2020-08-11T07:16:51Z</time>
      </trkpt>
      <trkpt lat="45.14474" lon="5.93602">
        <ele>2066.6</ele>
        <time>2020-08-11T07:16:52Z</time>
      </trkpt>
      <trkpt lat="45.14475" lon="5.93604">
        <ele>2066.6</ele>
        <time>2020-08-11T07:16:53Z</time>
      </trkpt>
      <trkpt lat="45.14475" lon="5.93605">
        <ele>2066.8</ele>
        <time>2020-08-11T07:16:54Z</time>
      </trkpt>
      <trkpt lat="45.14476" lon="5.93606">
        <ele>2067</ele>
        <time>2020-08-11T07:16:55Z</time>
      </trkpt>
      <trkpt lat="45.14476" lon="5.93608">
        <ele>2067.4</ele>
        <time>2020-08-11T07:16:56Z</time>
      </trkpt>
      <trkpt lat="45.14476" lon="5.93609">
        <ele>2067.6</ele>
        <time>2020-08-11T07:16:57Z</time>
      </trkpt>
      <trkpt lat="45.14476" lon="5.9361">
        <ele>2067.8</ele>
        <time>2020-08-11T07:16:58Z</time>
      </trkpt>
      <trkpt lat="45.14476" lon="5.93611">
        <ele>2067.8</ele>
        <time>2020-08-11T07:16:59Z</time>
      </trkpt>
      <trkpt lat="45.14476" lon="5.93613">
        <ele>2068</ele>
        <time>2020-08-11T07:17:00Z</time>
      </trkpt>
      <trkpt lat="45.14476" lon="5.93614">
        <ele>2068.2</ele>
        <time>2020-08-11T07:17:01Z</time>
      </trkpt>
      <trkpt lat="45.14476" lon="5.93615">
        <ele>2068.6</ele>
        <time>2020-08-11T07:17:02Z</time>
      </trkpt>
      <trkpt lat="45.14476" lon="5.93616">
        <ele>2068.8</ele>
        <time>2020-08-11T07:17:03Z</time>
      </trkpt>
      <trkpt lat="45.14477" lon="5.93617">
        <ele>2069.2</ele>
        <time>2020-08-11T07:17:04Z</time>
      </trkpt>
      <trkpt lat="45.14477" lon="5.93619">
        <ele>2069.4</ele>
        <time>2020-08-11T07:17:05Z</time>
      </trkpt>
      <trkpt lat="45.14477" lon="5.9362">
        <ele>2069.8</ele>
        <time>2020-08-11T07:17:06Z</time>
      </trkpt>
      <trkpt lat="45.14476" lon="5.93622">
        <ele>2070</ele>
        <time>2020-08-11T07:17:07Z</time>
      </trkpt>
      <trkpt lat="45.14476" lon="5.93623">
        <ele>2069.8</ele>
        <time>2020-08-11T07:17:08Z</time>
      </trkpt>
      <trkpt lat="45.14476" lon="5.93625">
        <ele>2070</ele>
        <time>2020-08-11T07:17:09Z</time>
      </trkpt>
      <trkpt lat="45.14476" lon="5.93627">
        <ele>2070.4</ele>
        <time>2020-08-11T07:17:10Z</time>
      </trkpt>
      <trkpt lat="45.14475" lon="5.93629">
        <ele>2070.4</ele>
        <time>2020-08-11T07:17:11Z</time>
      </trkpt>
      <trkpt lat="45.14475" lon="5.93631">
        <ele>2070.8</ele>
        <time>2020-08-11T07:17:12Z</time>
      </trkpt>
      <trkpt lat="45.14475" lon="5.93632">
        <ele>2070.8</ele>
        <time>2020-08-11T07:17:13Z</time>
      </trkpt>
      <trkpt lat="45.14474" lon="5.93634">
        <ele>2070.8</ele>
        <time>2020-08-11T07:17:14Z</time>
      </trkpt>
      <trkpt lat="45.14475" lon="5.93637">
        <ele>2070.6</ele>
        <time>2020-08-11T07:17:15Z</time>
      </trkpt>
      <trkpt lat="45.14475" lon="5.9364">
        <ele>2070.4</ele>
        <time>2020-08-11T07:17:16Z</time>
      </trkpt>
      <trkpt lat="45.14475" lon="5.93642">
        <ele>2070.6</ele>
        <time>2020-08-11T07:17:17Z</time>
      </trkpt>
      <trkpt lat="45.14475" lon="5.93645">
        <ele>2070.4</ele>
        <time>2020-08-11T07:17:18Z</time>
      </trkpt>
      <trkpt lat="45.14475" lon="5.93648">
        <ele>2070.8</ele>
        <time>2020-08-11T07:17:19Z</time>
      </trkpt>
      <trkpt lat="45.14476" lon="5.93654">
        <ele>2070.6</ele>
        <time>2020-08-11T07:17:20Z</time>
      </trkpt>
      <trkpt lat="45.14476" lon="5.93657">
        <ele>2070.6</ele>
        <time>2020-08-11T07:17:21Z</time>
      </trkpt>
      <trkpt lat="45.14476" lon="5.93661">
        <ele>2070.8</ele>
        <time>2020-08-11T07:17:22Z</time>
      </trkpt>
      <trkpt lat="45.14476" lon="5.93665">
        <ele>2070.8</ele>
        <time>2020-08-11T07:17:23Z</time>
      </trkpt>
      <trkpt lat="45.14476" lon="5.93668">
        <ele>2071</ele>
        <time>2020-08-11T07:17:24Z</time>
      </trkpt>
      <trkpt lat="45.14476" lon="5.93672">
        <ele>2071.2</ele>
        <time>2020-08-11T07:17:25Z</time>
      </trkpt>
      <trkpt lat="45.14477" lon="5.93676">
        <ele>2071.2</ele>
        <time>2020-08-11T07:17:26Z</time>
      </trkpt>
      <trkpt lat="45.14477" lon="5.93676">
        <ele>2071.4</ele>
        <time>2020-08-11T07:17:27Z</time>
      </trkpt>
      <trkpt lat="45.14477" lon="5.93676">
        <ele>2071.4</ele>
        <time>2020-08-11T07:17:28Z</time>
      </trkpt>
      <trkpt lat="45.14476" lon="5.93678">
        <ele>2071.4</ele>
        <time>2020-08-11T07:17:29Z</time>
      </trkpt>
      <trkpt lat="45.14476" lon="5.93681">
        <ele>2071.6</ele>
        <time>2020-08-11T07:17:30Z</time>
      </trkpt>
      <trkpt lat="45.14475" lon="5.93683">
        <ele>2071.8</ele>
        <time>2020-08-11T07:17:31Z</time>
      </trkpt>
      <trkpt lat="45.14475" lon="5.93686">
        <ele>2072</ele>
        <time>2020-08-11T07:17:32Z</time>
      </trkpt>
      <trkpt lat="45.14475" lon="5.93688">
        <ele>2071.6</ele>
        <time>2020-08-11T07:17:33Z</time>
      </trkpt>
      <trkpt lat="45.14474" lon="5.93691">
        <ele>2071.8</ele>
        <time>2020-08-11T07:17:34Z</time>
      </trkpt>
      <trkpt lat="45.14475" lon="5.93693">
        <ele>2071.4</ele>
        <time>2020-08-11T07:17:35Z</time>
      </trkpt>
      <trkpt lat="45.14475" lon="5.93696">
        <ele>2071.6</ele>
        <time>2020-08-11T07:17:36Z</time>
      </trkpt>
      <trkpt lat="45.14475" lon="5.93699">
        <ele>2071.4</ele>
        <time>2020-08-11T07:17:37Z</time>
      </trkpt>
      <trkpt lat="45.14476" lon="5.93702">
        <ele>2071.6</ele>
        <time>2020-08-11T07:17:38Z</time>
      </trkpt>
      <trkpt lat="45.14476" lon="5.93705">
        <ele>2071.6</ele>
        <time>2020-08-11T07:17:39Z</time>
      </trkpt>
      <trkpt lat="45.14477" lon="5.93706">
        <ele>2071.8</ele>
        <time>2020-08-11T07:17:40Z</time>
      </trkpt>
      <trkpt lat="45.14477" lon="5.93707">
        <ele>2072</ele>
        <time>2020-08-11T07:17:41Z</time>
      </trkpt>
      <trkpt lat="45.14477" lon="5.93708">
        <ele>2072</ele>
        <time>2020-08-11T07:17:42Z</time>
      </trkpt>
      <trkpt lat="45.14478" lon="5.9371">
        <ele>2072.2</ele>
        <time>2020-08-11T07:17:43Z</time>
      </trkpt>
      <trkpt lat="45.14478" lon="5.93711">
        <ele>2072.4</ele>
        <time>2020-08-11T07:17:44Z</time>
      </trkpt>
      <trkpt lat="45.14479" lon="5.93712">
        <ele>2073</ele>
        <time>2020-08-11T07:17:45Z</time>
      </trkpt>
      <trkpt lat="45.14479" lon="5.93713">
        <ele>2073.6</ele>
        <time>2020-08-11T07:17:46Z</time>
      </trkpt>
      <trkpt lat="45.1448" lon="5.93715">
        <ele>2073.4</ele>
        <time>2020-08-11T07:17:47Z</time>
      </trkpt>
      <trkpt lat="45.1448" lon="5.93716">
        <ele>2073.4</ele>
        <time>2020-08-11T07:17:48Z</time>
      </trkpt>
      <trkpt lat="45.1448" lon="5.93717">
        <ele>2073.2</ele>
        <time>2020-08-11T07:17:49Z</time>
      </trkpt>
      <trkpt lat="45.14481" lon="5.93718">
        <ele>2073.2</ele>
        <time>2020-08-11T07:17:50Z</time>
      </trkpt>
      <trkpt lat="45.14481" lon="5.93719">
        <ele>2073.6</ele>
        <time>2020-08-11T07:17:51Z</time>
      </trkpt>
      <trkpt lat="45.14481" lon="5.9372">
        <ele>2073.6</ele>
        <time>2020-08-11T07:17:52Z</time>
      </trkpt>
      <trkpt lat="45.14481" lon="5.93721">
        <ele>2073.8</ele>
        <time>2020-08-11T07:17:53Z</time>
      </trkpt>
      <trkpt lat="45.14482" lon="5.93722">
        <ele>2073.8</ele>
        <time>2020-08-11T07:17:54Z</time>
      </trkpt>
      <trkpt lat="45.14482" lon="5.93724">
        <ele>2074.2</ele>
        <time>2020-08-11T07:17:55Z</time>
      </trkpt>
      <trkpt lat="45.14482" lon="5.93725">
        <ele>2074.2</ele>
        <time>2020-08-11T07:17:56Z</time>
      </trkpt>
      <trkpt lat="45.14482" lon="5.93726">
        <ele>2074.4</ele>
        <time>2020-08-11T07:17:57Z</time>
      </trkpt>
      <trkpt lat="45.14483" lon="5.93727">
        <ele>2074.4</ele>
        <time>2020-08-11T07:17:58Z</time>
      </trkpt>
      <trkpt lat="45.14483" lon="5.93728">
        <ele>2074.8</ele>
        <time>2020-08-11T07:17:59Z</time>
      </trkpt>
      <trkpt lat="45.14483" lon="5.93729">
        <ele>2075.2</ele>
        <time>2020-08-11T07:18:00Z</time>
      </trkpt>
      <trkpt lat="45.14481" lon="5.93731">
        <ele>2075.4</ele>
        <time>2020-08-11T07:18:01Z</time>
      </trkpt>
      <trkpt lat="45.14479" lon="5.93733">
        <ele>2075.2</ele>
        <time>2020-08-11T07:18:02Z</time>
      </trkpt>
      <trkpt lat="45.14477" lon="5.93736">
        <ele>2075.2</ele>
        <time>2020-08-11T07:18:03Z</time>
      </trkpt>
      <trkpt lat="45.14475" lon="5.93738">
        <ele>2075</ele>
        <time>2020-08-11T07:18:04Z</time>
      </trkpt>
      <trkpt lat="45.14475" lon="5.93739">
        <ele>2074.8</ele>
        <time>2020-08-11T07:18:05Z</time>
      </trkpt>
      <trkpt lat="45.14476" lon="5.9374">
        <ele>2075</ele>
        <time>2020-08-11T07:18:06Z</time>
      </trkpt>
      <trkpt lat="45.14476" lon="5.93741">
        <ele>2075.2</ele>
        <time>2020-08-11T07:18:07Z</time>
      </trkpt>
      <trkpt lat="45.14476" lon="5.93742">
        <ele>2075.2</ele>
        <time>2020-08-11T07:18:08Z</time>
      </trkpt>
      <trkpt lat="45.14476" lon="5.93744">
        <ele>2074.4</ele>
        <time>2020-08-11T07:18:09Z</time>
      </trkpt>
      <trkpt lat="45.14477" lon="5.93745">
        <ele>2074.2</ele>
        <time>2020-08-11T07:18:10Z</time>
      </trkpt>
      <trkpt lat="45.14477" lon="5.93746">
        <ele>2074.4</ele>
        <time>2020-08-11T07:18:11Z</time>
      </trkpt>
      <trkpt lat="45.14477" lon="5.93747">
        <ele>2074.6</ele>
        <time>2020-08-11T07:18:12Z</time>
      </trkpt>
      <trkpt lat="45.14478" lon="5.93748">
        <ele>2074.8</ele>
        <time>2020-08-11T07:18:13Z</time>
      </trkpt>
      <trkpt lat="45.14478" lon="5.93749">
        <ele>2074.8</ele>
        <time>2020-08-11T07:18:14Z</time>
      </trkpt>
      <trkpt lat="45.14478" lon="5.9375">
        <ele>2075</ele>
        <time>2020-08-11T07:18:15Z</time>
      </trkpt>
      <trkpt lat="45.14479" lon="5.93752">
        <ele>2075</ele>
        <time>2020-08-11T07:18:16Z</time>
      </trkpt>
      <trkpt lat="45.1448" lon="5.93754">
        <ele>2075.2</ele>
        <time>2020-08-11T07:18:17Z</time>
      </trkpt>
      <trkpt lat="45.14481" lon="5.93756">
        <ele>2075.6</ele>
        <time>2020-08-11T07:18:18Z</time>
      </trkpt>
      <trkpt lat="45.14482" lon="5.93758">
        <ele>2075.8</ele>
        <time>2020-08-11T07:18:19Z</time>
      </trkpt>
      <trkpt lat="45.14483" lon="5.9376">
        <ele>2076</ele>
        <time>2020-08-11T07:18:20Z</time>
      </trkpt>
      <trkpt lat="45.14484" lon="5.93762">
        <ele>2076</ele>
        <time>2020-08-11T07:18:21Z</time>
      </trkpt>
      <trkpt lat="45.14484" lon="5.93763">
        <ele>2076.2</ele>
        <time>2020-08-11T07:18:22Z</time>
      </trkpt>
      <trkpt lat="45.14485" lon="5.93764">
        <ele>2076.4</ele>
        <time>2020-08-11T07:18:23Z</time>
      </trkpt>
      <trkpt lat="45.14485" lon="5.93765">
        <ele>2076.6</ele>
        <time>2020-08-11T07:18:24Z</time>
      </trkpt>
      <trkpt lat="45.14486" lon="5.93766">
        <ele>2076.6</ele>
        <time>2020-08-11T07:18:25Z</time>
      </trkpt>
      <trkpt lat="45.14486" lon="5.93766">
        <ele>2077</ele>
        <time>2020-08-11T07:18:26Z</time>
      </trkpt>
      <trkpt lat="45.14486" lon="5.93767">
        <ele>2077</ele>
        <time>2020-08-11T07:18:27Z</time>
      </trkpt>
      <trkpt lat="45.14487" lon="5.93768">
        <ele>2077.2</ele>
        <time>2020-08-11T07:18:28Z</time>
      </trkpt>
      <trkpt lat="45.14487" lon="5.93769">
        <ele>2077.4</ele>
        <time>2020-08-11T07:18:29Z</time>
      </trkpt>
      <trkpt lat="45.14488" lon="5.9377">
        <ele>2077.6</ele>
        <time>2020-08-11T07:18:30Z</time>
      </trkpt>
      <trkpt lat="45.14488" lon="5.93771">
        <ele>2077.6</ele>
        <time>2020-08-11T07:18:31Z</time>
      </trkpt>
      <trkpt lat="45.14488" lon="5.93772">
        <ele>2077.8</ele>
        <time>2020-08-11T07:18:32Z</time>
      </trkpt>
      <trkpt lat="45.14489" lon="5.93772">
        <ele>2078</ele>
        <time>2020-08-11T07:18:33Z</time>
      </trkpt>
      <trkpt lat="45.14489" lon="5.93773">
        <ele>2078.2</ele>
        <time>2020-08-11T07:18:34Z</time>
      </trkpt>
      <trkpt lat="45.1449" lon="5.93775">
        <ele>2078.2</ele>
        <time>2020-08-11T07:18:35Z</time>
      </trkpt>
      <trkpt lat="45.14491" lon="5.93776">
        <ele>2078.2</ele>
        <time>2020-08-11T07:18:36Z</time>
      </trkpt>
      <trkpt lat="45.14491" lon="5.93778">
        <ele>2078</ele>
        <time>2020-08-11T07:18:37Z</time>
      </trkpt>
      <trkpt lat="45.14492" lon="5.93779">
        <ele>2078.2</ele>
        <time>2020-08-11T07:18:38Z</time>
      </trkpt>
      <trkpt lat="45.14493" lon="5.93781">
        <ele>2078</ele>
        <time>2020-08-11T07:18:39Z</time>
      </trkpt>
      <trkpt lat="45.14493" lon="5.93783">
        <ele>2078</ele>
        <time>2020-08-11T07:18:40Z</time>
      </trkpt>
      <trkpt lat="45.14494" lon="5.93784">
        <ele>2078</ele>
        <time>2020-08-11T07:18:41Z</time>
      </trkpt>
      <trkpt lat="45.14494" lon="5.93786">
        <ele>2078</ele>
        <time>2020-08-11T07:18:42Z</time>
      </trkpt>
      <trkpt lat="45.14495" lon="5.93787">
        <ele>2078.4</ele>
        <time>2020-08-11T07:18:43Z</time>
      </trkpt>
      <trkpt lat="45.14495" lon="5.93788">
        <ele>2078.4</ele>
        <time>2020-08-11T07:18:44Z</time>
      </trkpt>
      <trkpt lat="45.14495" lon="5.93789">
        <ele>2078.8</ele>
        <time>2020-08-11T07:18:45Z</time>
      </trkpt>
      <trkpt lat="45.14496" lon="5.9379">
        <ele>2078.6</ele>
        <time>2020-08-11T07:18:46Z</time>
      </trkpt>
      <trkpt lat="45.14496" lon="5.93791">
        <ele>2078.8</ele>
        <time>2020-08-11T07:18:47Z</time>
      </trkpt>
      <trkpt lat="45.14496" lon="5.93792">
        <ele>2079.2</ele>
        <time>2020-08-11T07:18:48Z</time>
      </trkpt>
      <trkpt lat="45.14496" lon="5.93793">
        <ele>2079.4</ele>
        <time>2020-08-11T07:18:49Z</time>
      </trkpt>
      <trkpt lat="45.14497" lon="5.93794">
        <ele>2079.4</ele>
        <time>2020-08-11T07:18:50Z</time>
      </trkpt>
      <trkpt lat="45.14497" lon="5.93795">
        <ele>2079.8</ele>
        <time>2020-08-11T07:18:51Z</time>
      </trkpt>
      <trkpt lat="45.14497" lon="5.93796">
        <ele>2080</ele>
        <time>2020-08-11T07:18:52Z</time>
      </trkpt>
      <trkpt lat="45.14497" lon="5.93797">
        <ele>2080.2</ele>
        <time>2020-08-11T07:18:53Z</time>
      </trkpt>
      <trkpt lat="45.14498" lon="5.93798">
        <ele>2080.2</ele>
        <time>2020-08-11T07:18:54Z</time>
      </trkpt>
      <trkpt lat="45.14498" lon="5.93799">
        <ele>2080</ele>
        <time>2020-08-11T07:18:55Z</time>
      </trkpt>
      <trkpt lat="45.14499" lon="5.938">
        <ele>2079.8</ele>
        <time>2020-08-11T07:18:56Z</time>
      </trkpt>
      <trkpt lat="45.14499" lon="5.93801">
        <ele>2080</ele>
        <time>2020-08-11T07:18:57Z</time>
      </trkpt>
      <trkpt lat="45.145" lon="5.93801">
        <ele>2079.8</ele>
        <time>2020-08-11T07:18:58Z</time>
      </trkpt>
      <trkpt lat="45.14501" lon="5.93802">
        <ele>2079.8</ele>
        <time>2020-08-11T07:18:59Z</time>
      </trkpt>
      <trkpt lat="45.14501" lon="5.93803">
        <ele>2079.4</ele>
        <time>2020-08-11T07:19:00Z</time>
      </trkpt>
      <trkpt lat="45.14502" lon="5.93803">
        <ele>2079.4</ele>
        <time>2020-08-11T07:19:01Z</time>
      </trkpt>
      <trkpt lat="45.14503" lon="5.93804">
        <ele>2079.2</ele>
        <time>2020-08-11T07:19:02Z</time>
      </trkpt>
      <trkpt lat="45.14503" lon="5.93805">
        <ele>2079.2</ele>
        <time>2020-08-11T07:19:03Z</time>
      </trkpt>
      <trkpt lat="45.14504" lon="5.93805">
        <ele>2079</ele>
        <time>2020-08-11T07:19:04Z</time>
      </trkpt>
      <trkpt lat="45.14505" lon="5.93806">
        <ele>2078.2</ele>
        <time>2020-08-11T07:19:05Z</time>
      </trkpt>
      <trkpt lat="45.14505" lon="5.93807">
        <ele>2078</ele>
        <time>2020-08-11T07:19:06Z</time>
      </trkpt>
      <trkpt lat="45.14507" lon="5.93808">
        <ele>2077.8</ele>
        <time>2020-08-11T07:19:07Z</time>
      </trkpt>
      <trkpt lat="45.14508" lon="5.93809">
        <ele>2077.8</ele>
        <time>2020-08-11T07:19:08Z</time>
      </trkpt>
      <trkpt lat="45.14509" lon="5.9381">
        <ele>2077.8</ele>
        <time>2020-08-11T07:19:09Z</time>
      </trkpt>
      <trkpt lat="45.14511" lon="5.93812">
        <ele>2078</ele>
        <time>2020-08-11T07:19:10Z</time>
      </trkpt>
      <trkpt lat="45.14512" lon="5.93813">
        <ele>2078</ele>
        <time>2020-08-11T07:19:11Z</time>
      </trkpt>
      <trkpt lat="45.14513" lon="5.93814">
        <ele>2078</ele>
        <time>2020-08-11T07:19:12Z</time>
      </trkpt>
      <trkpt lat="45.14514" lon="5.93816">
        <ele>2078.4</ele>
        <time>2020-08-11T07:19:13Z</time>
      </trkpt>
      <trkpt lat="45.14514" lon="5.93817">
        <ele>2078.6</ele>
        <time>2020-08-11T07:19:14Z</time>
      </trkpt>
      <trkpt lat="45.14515" lon="5.93819">
        <ele>2079</ele>
        <time>2020-08-11T07:19:15Z</time>
      </trkpt>
      <trkpt lat="45.14515" lon="5.9382">
        <ele>2079</ele>
        <time>2020-08-11T07:19:16Z</time>
      </trkpt>
      <trkpt lat="45.14516" lon="5.93822">
        <ele>2079.4</ele>
        <time>2020-08-11T07:19:17Z</time>
      </trkpt>
      <trkpt lat="45.14517" lon="5.93823">
        <ele>2079.6</ele>
        <time>2020-08-11T07:19:18Z</time>
      </trkpt>
      <trkpt lat="45.14517" lon="5.93825">
        <ele>2079.8</ele>
        <time>2020-08-11T07:19:19Z</time>
      </trkpt>
      <trkpt lat="45.14518" lon="5.93826">
        <ele>2080</ele>
        <time>2020-08-11T07:19:20Z</time>
      </trkpt>
      <trkpt lat="45.14518" lon="5.93828">
        <ele>2080</ele>
        <time>2020-08-11T07:19:21Z</time>
      </trkpt>
      <trkpt lat="45.14518" lon="5.93829">
        <ele>2080.2</ele>
        <time>2020-08-11T07:19:22Z</time>
      </trkpt>
      <trkpt lat="45.14518" lon="5.93831">
        <ele>2080.2</ele>
        <time>2020-08-11T07:19:23Z</time>
      </trkpt>
      <trkpt lat="45.14518" lon="5.93832">
        <ele>2080.6</ele>
        <time>2020-08-11T07:19:24Z</time>
      </trkpt>
      <trkpt lat="45.14518" lon="5.93834">
        <ele>2080.8</ele>
        <time>2020-08-11T07:19:25Z</time>
      </trkpt>
      <trkpt lat="45.14518" lon="5.93835">
        <ele>2080.8</ele>
        <time>2020-08-11T07:19:26Z</time>
      </trkpt>
      <trkpt lat="45.14518" lon="5.93837">
        <ele>2081</ele>
        <time>2020-08-11T07:19:27Z</time>
      </trkpt>
      <trkpt lat="45.14518" lon="5.93838">
        <ele>2081</ele>
        <time>2020-08-11T07:19:28Z</time>
      </trkpt>
      <trkpt lat="45.14518" lon="5.93839">
        <ele>2081.2</ele>
        <time>2020-08-11T07:19:29Z</time>
      </trkpt>
      <trkpt lat="45.14518" lon="5.93841">
        <ele>2081.4</ele>
        <time>2020-08-11T07:19:30Z</time>
      </trkpt>
      <trkpt lat="45.14518" lon="5.93842">
        <ele>2081.8</ele>
        <time>2020-08-11T07:19:31Z</time>
      </trkpt>
      <trkpt lat="45.14518" lon="5.93844">
        <ele>2082.2</ele>
        <time>2020-08-11T07:19:32Z</time>
      </trkpt>
      <trkpt lat="45.14518" lon="5.93845">
        <ele>2082.2</ele>
        <time>2020-08-11T07:19:33Z</time>
      </trkpt>
      <trkpt lat="45.14518" lon="5.93847">
        <ele>2082.4</ele>
        <time>2020-08-11T07:19:34Z</time>
      </trkpt>
      <trkpt lat="45.14518" lon="5.93848">
        <ele>2082.6</ele>
        <time>2020-08-11T07:19:35Z</time>
      </trkpt>
      <trkpt lat="45.14519" lon="5.9385">
        <ele>2083</ele>
        <time>2020-08-11T07:19:36Z</time>
      </trkpt>
      <trkpt lat="45.14519" lon="5.93852">
        <ele>2083.2</ele>
        <time>2020-08-11T07:19:37Z</time>
      </trkpt>
      <trkpt lat="45.14519" lon="5.93853">
        <ele>2083.4</ele>
        <time>2020-08-11T07:19:38Z</time>
      </trkpt>
      <trkpt lat="45.1452" lon="5.93855">
        <ele>2083.6</ele>
        <time>2020-08-11T07:19:39Z</time>
      </trkpt>
      <trkpt lat="45.1452" lon="5.93857">
        <ele>2084</ele>
        <time>2020-08-11T07:19:40Z</time>
      </trkpt>
      <trkpt lat="45.1452" lon="5.93858">
        <ele>2084.2</ele>
        <time>2020-08-11T07:19:41Z</time>
      </trkpt>
      <trkpt lat="45.1452" lon="5.9386">
        <ele>2084.2</ele>
        <time>2020-08-11T07:19:42Z</time>
      </trkpt>
      <trkpt lat="45.14521" lon="5.93863">
        <ele>2084.2</ele>
        <time>2020-08-11T07:19:43Z</time>
      </trkpt>
      <trkpt lat="45.14521" lon="5.93865">
        <ele>2084.2</ele>
        <time>2020-08-11T07:19:44Z</time>
      </trkpt>
      <trkpt lat="45.14522" lon="5.93868">
        <ele>2084.4</ele>
        <time>2020-08-11T07:19:45Z</time>
      </trkpt>
      <trkpt lat="45.14522" lon="5.93871">
        <ele>2084.2</ele>
        <time>2020-08-11T07:19:46Z</time>
      </trkpt>
      <trkpt lat="45.14522" lon="5.93874">
        <ele>2084.2</ele>
        <time>2020-08-11T07:19:47Z</time>
      </trkpt>
      <trkpt lat="45.14523" lon="5.93875">
        <ele>2084.2</ele>
        <time>2020-08-11T07:19:48Z</time>
      </trkpt>
      <trkpt lat="45.14523" lon="5.93877">
        <ele>2084.2</ele>
        <time>2020-08-11T07:19:49Z</time>
      </trkpt>
      <trkpt lat="45.14523" lon="5.93878">
        <ele>2084.6</ele>
        <time>2020-08-11T07:19:50Z</time>
      </trkpt>
      <trkpt lat="45.14524" lon="5.93879">
        <ele>2084.4</ele>
        <time>2020-08-11T07:19:51Z</time>
      </trkpt>
      <trkpt lat="45.14524" lon="5.93881">
        <ele>2084.4</ele>
        <time>2020-08-11T07:19:52Z</time>
      </trkpt>
      <trkpt lat="45.14524" lon="5.93882">
        <ele>2084.6</ele>
        <time>2020-08-11T07:19:53Z</time>
      </trkpt>
      <trkpt lat="45.14524" lon="5.93884">
        <ele>2084.6</ele>
        <time>2020-08-11T07:19:54Z</time>
      </trkpt>
      <trkpt lat="45.14525" lon="5.93885">
        <ele>2084.8</ele>
        <time>2020-08-11T07:19:55Z</time>
      </trkpt>
      <trkpt lat="45.14525" lon="5.93886">
        <ele>2084.8</ele>
        <time>2020-08-11T07:19:56Z</time>
      </trkpt>
      <trkpt lat="45.14525" lon="5.93889">
        <ele>2085.2</ele>
        <time>2020-08-11T07:19:57Z</time>
      </trkpt>
      <trkpt lat="45.14525" lon="5.93891">
        <ele>2085.2</ele>
        <time>2020-08-11T07:19:58Z</time>
      </trkpt>
      <trkpt lat="45.14526" lon="5.93893">
        <ele>2085.6</ele>
        <time>2020-08-11T07:19:59Z</time>
      </trkpt>
      <trkpt lat="45.14526" lon="5.93896">
        <ele>2086</ele>
        <time>2020-08-11T07:20:01Z</time>
      </trkpt>
      <trkpt lat="45.14526" lon="5.93898">
        <ele>2086.4</ele>
        <time>2020-08-11T07:20:02Z</time>
      </trkpt>
      <trkpt lat="45.14526" lon="5.939">
        <ele>2086.6</ele>
        <time>2020-08-11T07:20:03Z</time>
      </trkpt>
      <trkpt lat="45.14527" lon="5.93901">
        <ele>2087</ele>
        <time>2020-08-11T07:20:04Z</time>
      </trkpt>
      <trkpt lat="45.14527" lon="5.93902">
        <ele>2087.2</ele>
        <time>2020-08-11T07:20:05Z</time>
      </trkpt>
      <trkpt lat="45.14527" lon="5.93904">
        <ele>2087.4</ele>
        <time>2020-08-11T07:20:06Z</time>
      </trkpt>
      <trkpt lat="45.14528" lon="5.93905">
        <ele>2087.6</ele>
        <time>2020-08-11T07:20:07Z</time>
      </trkpt>
      <trkpt lat="45.14528" lon="5.93906">
        <ele>2087.6</ele>
        <time>2020-08-11T07:20:08Z</time>
      </trkpt>
      <trkpt lat="45.14528" lon="5.93907">
        <ele>2087.8</ele>
        <time>2020-08-11T07:20:09Z</time>
      </trkpt>
      <trkpt lat="45.14529" lon="5.93908">
        <ele>2087.8</ele>
        <time>2020-08-11T07:20:10Z</time>
      </trkpt>
      <trkpt lat="45.14529" lon="5.93909">
        <ele>2088</ele>
        <time>2020-08-11T07:20:11Z</time>
      </trkpt>
      <trkpt lat="45.1453" lon="5.9391">
        <ele>2088.4</ele>
        <time>2020-08-11T07:20:12Z</time>
      </trkpt>
      <trkpt lat="45.1453" lon="5.93911">
        <ele>2088.6</ele>
        <time>2020-08-11T07:20:13Z</time>
      </trkpt>
      <trkpt lat="45.1453" lon="5.93913">
        <ele>2088.8</ele>
        <time>2020-08-11T07:20:14Z</time>
      </trkpt>
      <trkpt lat="45.14531" lon="5.93914">
        <ele>2089</ele>
        <time>2020-08-11T07:20:15Z</time>
      </trkpt>
      <trkpt lat="45.14531" lon="5.93915">
        <ele>2089.2</ele>
        <time>2020-08-11T07:20:16Z</time>
      </trkpt>
      <trkpt lat="45.14532" lon="5.93916">
        <ele>2089.4</ele>
        <time>2020-08-11T07:20:17Z</time>
      </trkpt>
      <trkpt lat="45.14534" lon="5.93917">
        <ele>2089.6</ele>
        <time>2020-08-11T07:20:18Z</time>
      </trkpt>
      <trkpt lat="45.14535" lon="5.93918">
        <ele>2089.6</ele>
        <time>2020-08-11T07:20:19Z</time>
      </trkpt>
      <trkpt lat="45.14536" lon="5.93919">
        <ele>2090</ele>
        <time>2020-08-11T07:20:20Z</time>
      </trkpt>
      <trkpt lat="45.14538" lon="5.9392">
        <ele>2090</ele>
        <time>2020-08-11T07:20:21Z</time>
      </trkpt>
      <trkpt lat="45.14539" lon="5.93921">
        <ele>2090.4</ele>
        <time>2020-08-11T07:20:22Z</time>
      </trkpt>
      <trkpt lat="45.1454" lon="5.93922">
        <ele>2090.4</ele>
        <time>2020-08-11T07:20:23Z</time>
      </trkpt>
      <trkpt lat="45.14542" lon="5.93922">
        <ele>2090.4</ele>
        <time>2020-08-11T07:20:25Z</time>
      </trkpt>
      <trkpt lat="45.14543" lon="5.93922">
        <ele>2090.4</ele>
        <time>2020-08-11T07:20:26Z</time>
      </trkpt>
      <trkpt lat="45.14544" lon="5.93922">
        <ele>2090.6</ele>
        <time>2020-08-11T07:20:27Z</time>
      </trkpt>
      <trkpt lat="45.14546" lon="5.93923">
        <ele>2090.8</ele>
        <time>2020-08-11T07:20:28Z</time>
      </trkpt>
      <trkpt lat="45.14547" lon="5.93923">
        <ele>2091.2</ele>
        <time>2020-08-11T07:20:29Z</time>
      </trkpt>
      <trkpt lat="45.14549" lon="5.93923">
        <ele>2091</ele>
        <time>2020-08-11T07:20:30Z</time>
      </trkpt>
      <trkpt lat="45.1455" lon="5.93923">
        <ele>2091</ele>
        <time>2020-08-11T07:20:31Z</time>
      </trkpt>
      <trkpt lat="45.14552" lon="5.93924">
        <ele>2091.2</ele>
        <time>2020-08-11T07:20:32Z</time>
      </trkpt>
      <trkpt lat="45.14553" lon="5.93926">
        <ele>2091.2</ele>
        <time>2020-08-11T07:20:33Z</time>
      </trkpt>
      <trkpt lat="45.14554" lon="5.93927">
        <ele>2091.6</ele>
        <time>2020-08-11T07:20:34Z</time>
      </trkpt>
      <trkpt lat="45.14556" lon="5.93928">
        <ele>2091.6</ele>
        <time>2020-08-11T07:20:35Z</time>
      </trkpt>
      <trkpt lat="45.14557" lon="5.9393">
        <ele>2091.8</ele>
        <time>2020-08-11T07:20:36Z</time>
      </trkpt>
      <trkpt lat="45.14558" lon="5.93931">
        <ele>2092.2</ele>
        <time>2020-08-11T07:20:37Z</time>
      </trkpt>
      <trkpt lat="45.14559" lon="5.93933">
        <ele>2092.4</ele>
        <time>2020-08-11T07:20:38Z</time>
      </trkpt>
      <trkpt lat="45.14559" lon="5.93935">
        <ele>2092.4</ele>
        <time>2020-08-11T07:20:39Z</time>
      </trkpt>
      <trkpt lat="45.14559" lon="5.93937">
        <ele>2092.6</ele>
        <time>2020-08-11T07:20:40Z</time>
      </trkpt>
      <trkpt lat="45.1456" lon="5.93939">
        <ele>2092.8</ele>
        <time>2020-08-11T07:20:41Z</time>
      </trkpt>
      <trkpt lat="45.1456" lon="5.93941">
        <ele>2093.2</ele>
        <time>2020-08-11T07:20:42Z</time>
      </trkpt>
      <trkpt lat="45.1456" lon="5.93943">
        <ele>2093.2</ele>
        <time>2020-08-11T07:20:43Z</time>
      </trkpt>
      <trkpt lat="45.14561" lon="5.93945">
        <ele>2093.2</ele>
        <time>2020-08-11T07:20:44Z</time>
      </trkpt>
      <trkpt lat="45.14561" lon="5.93945">
        <ele>2093.6</ele>
        <time>2020-08-11T07:20:45Z</time>
      </trkpt>
      <trkpt lat="45.14561" lon="5.93946">
        <ele>2093.8</ele>
        <time>2020-08-11T07:20:46Z</time>
      </trkpt>
      <trkpt lat="45.14562" lon="5.93947">
        <ele>2093.8</ele>
        <time>2020-08-11T07:20:47Z</time>
      </trkpt>
      <trkpt lat="45.14562" lon="5.93947">
        <ele>2094.2</ele>
        <time>2020-08-11T07:20:48Z</time>
      </trkpt>
      <trkpt lat="45.14562" lon="5.93948">
        <ele>2094.2</ele>
        <time>2020-08-11T07:20:49Z</time>
      </trkpt>
      <trkpt lat="45.14563" lon="5.93948">
        <ele>2094.6</ele>
        <time>2020-08-11T07:20:50Z</time>
      </trkpt>
      <trkpt lat="45.14563" lon="5.93949">
        <ele>2095</ele>
        <time>2020-08-11T07:20:51Z</time>
      </trkpt>
      <trkpt lat="45.14563" lon="5.93949">
        <ele>2095.2</ele>
        <time>2020-08-11T07:20:52Z</time>
      </trkpt>
      <trkpt lat="45.14564" lon="5.9395">
        <ele>2095.4</ele>
        <time>2020-08-11T07:20:53Z</time>
      </trkpt>
      <trkpt lat="45.14564" lon="5.93951">
        <ele>2095.8</ele>
        <time>2020-08-11T07:20:54Z</time>
      </trkpt>
      <trkpt lat="45.14564" lon="5.93951">
        <ele>2096</ele>
        <time>2020-08-11T07:20:55Z</time>
      </trkpt>
      <trkpt lat="45.14565" lon="5.93952">
        <ele>2096</ele>
        <time>2020-08-11T07:20:56Z</time>
      </trkpt>
      <trkpt lat="45.14565" lon="5.93952">
        <ele>2096.2</ele>
        <time>2020-08-11T07:20:57Z</time>
      </trkpt>
      <trkpt lat="45.14565" lon="5.93953">
        <ele>2096.2</ele>
        <time>2020-08-11T07:20:58Z</time>
      </trkpt>
      <trkpt lat="45.14566" lon="5.93954">
        <ele>2096.4</ele>
        <time>2020-08-11T07:20:59Z</time>
      </trkpt>
      <trkpt lat="45.14566" lon="5.93954">
        <ele>2096.6</ele>
        <time>2020-08-11T07:21:00Z</time>
      </trkpt>
      <trkpt lat="45.14566" lon="5.93955">
        <ele>2096.8</ele>
        <time>2020-08-11T07:21:01Z</time>
      </trkpt>
      <trkpt lat="45.14567" lon="5.93955">
        <ele>2097.2</ele>
        <time>2020-08-11T07:21:02Z</time>
      </trkpt>
      <trkpt lat="45.14567" lon="5.93956">
        <ele>2097.4</ele>
        <time>2020-08-11T07:21:03Z</time>
      </trkpt>
      <trkpt lat="45.14568" lon="5.93959">
        <ele>2097.6</ele>
        <time>2020-08-11T07:21:04Z</time>
      </trkpt>
      <trkpt lat="45.14569" lon="5.9396">
        <ele>2097.8</ele>
        <time>2020-08-11T07:21:05Z</time>
      </trkpt>
      <trkpt lat="45.14569" lon="5.93961">
        <ele>2098.4</ele>
        <time>2020-08-11T07:21:06Z</time>
      </trkpt>
      <trkpt lat="45.1457" lon="5.93963">
        <ele>2098</ele>
        <time>2020-08-11T07:21:07Z</time>
      </trkpt>
      <trkpt lat="45.1457" lon="5.93964">
        <ele>2098</ele>
        <time>2020-08-11T07:21:08Z</time>
      </trkpt>
      <trkpt lat="45.14571" lon="5.93965">
        <ele>2097.8</ele>
        <time>2020-08-11T07:21:09Z</time>
      </trkpt>
      <trkpt lat="45.14571" lon="5.93967">
        <ele>2097.6</ele>
        <time>2020-08-11T07:21:10Z</time>
      </trkpt>
      <trkpt lat="45.14572" lon="5.93968">
        <ele>2097.6</ele>
        <time>2020-08-11T07:21:11Z</time>
      </trkpt>
      <trkpt lat="45.14572" lon="5.93969">
        <ele>2097.8</ele>
        <time>2020-08-11T07:21:12Z</time>
      </trkpt>
      <trkpt lat="45.14573" lon="5.9397">
        <ele>2098</ele>
        <time>2020-08-11T07:21:13Z</time>
      </trkpt>
      <trkpt lat="45.14573" lon="5.93972">
        <ele>2098.2</ele>
        <time>2020-08-11T07:21:14Z</time>
      </trkpt>
      <trkpt lat="45.14574" lon="5.93973">
        <ele>2098.4</ele>
        <time>2020-08-11T07:21:15Z</time>
      </trkpt>
      <trkpt lat="45.14574" lon="5.93974">
        <ele>2098.4</ele>
        <time>2020-08-11T07:21:16Z</time>
      </trkpt>
      <trkpt lat="45.14575" lon="5.93976">
        <ele>2098.4</ele>
        <time>2020-08-11T07:21:17Z</time>
      </trkpt>
      <trkpt lat="45.14575" lon="5.93977">
        <ele>2098.4</ele>
        <time>2020-08-11T07:21:18Z</time>
      </trkpt>
      <trkpt lat="45.14576" lon="5.93978">
        <ele>2098.4</ele>
        <time>2020-08-11T07:21:19Z</time>
      </trkpt>
      <trkpt lat="45.14576" lon="5.9398">
        <ele>2098.4</ele>
        <time>2020-08-11T07:21:20Z</time>
      </trkpt>
      <trkpt lat="45.14577" lon="5.93981">
        <ele>2098.6</ele>
        <time>2020-08-11T07:21:21Z</time>
      </trkpt>
      <trkpt lat="45.14577" lon="5.93982">
        <ele>2098.6</ele>
        <time>2020-08-11T07:21:22Z</time>
      </trkpt>
      <trkpt lat="45.14578" lon="5.93983">
        <ele>2098.8</ele>
        <time>2020-08-11T07:21:23Z</time>
      </trkpt>
      <trkpt lat="45.14578" lon="5.93985">
        <ele>2099</ele>
        <time>2020-08-11T07:21:24Z</time>
      </trkpt>
      <trkpt lat="45.14579" lon="5.93986">
        <ele>2099</ele>
        <time>2020-08-11T07:21:25Z</time>
      </trkpt>
      <trkpt lat="45.14579" lon="5.93987">
        <ele>2099.2</ele>
        <time>2020-08-11T07:21:26Z</time>
      </trkpt>
      <trkpt lat="45.1458" lon="5.93989">
        <ele>2099.2</ele>
        <time>2020-08-11T07:21:27Z</time>
      </trkpt>
      <trkpt lat="45.1458" lon="5.9399">
        <ele>2099.6</ele>
        <time>2020-08-11T07:21:28Z</time>
      </trkpt>
      <trkpt lat="45.14581" lon="5.93991">
        <ele>2099.6</ele>
        <time>2020-08-11T07:21:29Z</time>
      </trkpt>
      <trkpt lat="45.14581" lon="5.93992">
        <ele>2099.4</ele>
        <time>2020-08-11T07:21:30Z</time>
      </trkpt>
      <trkpt lat="45.14582" lon="5.93994">
        <ele>2099.6</ele>
        <time>2020-08-11T07:21:31Z</time>
      </trkpt>
      <trkpt lat="45.14582" lon="5.93995">
        <ele>2099.6</ele>
        <time>2020-08-11T07:21:32Z</time>
      </trkpt>
      <trkpt lat="45.14583" lon="5.93996">
        <ele>2099.6</ele>
        <time>2020-08-11T07:21:33Z</time>
      </trkpt>
      <trkpt lat="45.14583" lon="5.93998">
        <ele>2099.4</ele>
        <time>2020-08-11T07:21:34Z</time>
      </trkpt>
      <trkpt lat="45.14584" lon="5.93999">
        <ele>2099.2</ele>
        <time>2020-08-11T07:21:35Z</time>
      </trkpt>
      <trkpt lat="45.14585" lon="5.94">
        <ele>2099.2</ele>
        <time>2020-08-11T07:21:36Z</time>
      </trkpt>
      <trkpt lat="45.14585" lon="5.94002">
        <ele>2099</ele>
        <time>2020-08-11T07:21:37Z</time>
      </trkpt>
      <trkpt lat="45.14586" lon="5.94003">
        <ele>2099</ele>
        <time>2020-08-11T07:21:38Z</time>
      </trkpt>
      <trkpt lat="45.14586" lon="5.94004">
        <ele>2098.8</ele>
        <time>2020-08-11T07:21:39Z</time>
      </trkpt>
      <trkpt lat="45.14587" lon="5.94005">
        <ele>2099</ele>
        <time>2020-08-11T07:21:40Z</time>
      </trkpt>
      <trkpt lat="45.14587" lon="5.94007">
        <ele>2098.4</ele>
        <time>2020-08-11T07:21:41Z</time>
      </trkpt>
      <trkpt lat="45.14588" lon="5.94008">
        <ele>2098.4</ele>
        <time>2020-08-11T07:21:42Z</time>
      </trkpt>
      <trkpt lat="45.14588" lon="5.94009">
        <ele>2098.6</ele>
        <time>2020-08-11T07:21:43Z</time>
      </trkpt>
      <trkpt lat="45.14589" lon="5.94011">
        <ele>2098.4</ele>
        <time>2020-08-11T07:21:44Z</time>
      </trkpt>
      <trkpt lat="45.14589" lon="5.94012">
        <ele>2098</ele>
        <time>2020-08-11T07:21:45Z</time>
      </trkpt>
      <trkpt lat="45.1459" lon="5.94013">
        <ele>2097.8</ele>
        <time>2020-08-11T07:21:46Z</time>
      </trkpt>
      <trkpt lat="45.1459" lon="5.94014">
        <ele>2097.6</ele>
        <time>2020-08-11T07:21:47Z</time>
      </trkpt>
      <trkpt lat="45.14591" lon="5.94016">
        <ele>2097.6</ele>
        <time>2020-08-11T07:21:48Z</time>
      </trkpt>
      <trkpt lat="45.14591" lon="5.94017">
        <ele>2097.2</ele>
        <time>2020-08-11T07:21:49Z</time>
      </trkpt>
      <trkpt lat="45.14592" lon="5.94018">
        <ele>2097.2</ele>
        <time>2020-08-11T07:21:50Z</time>
      </trkpt>
      <trkpt lat="45.14592" lon="5.9402">
        <ele>2097.4</ele>
        <time>2020-08-11T07:21:51Z</time>
      </trkpt>
      <trkpt lat="45.14593" lon="5.94021">
        <ele>2097.2</ele>
        <time>2020-08-11T07:21:52Z</time>
      </trkpt>
      <trkpt lat="45.14593" lon="5.94022">
        <ele>2097</ele>
        <time>2020-08-11T07:21:53Z</time>
      </trkpt>
      <trkpt lat="45.146" lon="5.94025">
        <ele>2097</ele>
        <time>2020-08-11T07:21:54Z</time>
      </trkpt>
      <trkpt lat="45.14602" lon="5.94026">
        <ele>2097</ele>
        <time>2020-08-11T07:21:55Z</time>
      </trkpt>
      <trkpt lat="45.14604" lon="5.94027">
        <ele>2096.6</ele>
        <time>2020-08-11T07:21:56Z</time>
      </trkpt>
      <trkpt lat="45.14607" lon="5.94028">
        <ele>2096.4</ele>
        <time>2020-08-11T07:21:57Z</time>
      </trkpt>
      <trkpt lat="45.14609" lon="5.94029">
        <ele>2096</ele>
        <time>2020-08-11T07:21:58Z</time>
      </trkpt>
      <trkpt lat="45.14609" lon="5.94029">
        <ele>2095.6</ele>
        <time>2020-08-11T07:21:59Z</time>
      </trkpt>
      <trkpt lat="45.1461" lon="5.9403">
        <ele>2095.2</ele>
        <time>2020-08-11T07:22:00Z</time>
      </trkpt>
      <trkpt lat="45.1461" lon="5.9403">
        <ele>2095</ele>
        <time>2020-08-11T07:22:01Z</time>
      </trkpt>
      <trkpt lat="45.14611" lon="5.94031">
        <ele>2094.6</ele>
        <time>2020-08-11T07:22:02Z</time>
      </trkpt>
      <trkpt lat="45.14611" lon="5.94031">
        <ele>2094.2</ele>
        <time>2020-08-11T07:22:03Z</time>
      </trkpt>
      <trkpt lat="45.14612" lon="5.94032">
        <ele>2094.2</ele>
        <time>2020-08-11T07:22:04Z</time>
      </trkpt>
      <trkpt lat="45.14612" lon="5.94032">
        <ele>2094.2</ele>
        <time>2020-08-11T07:22:05Z</time>
      </trkpt>
      <trkpt lat="45.14613" lon="5.94032">
        <ele>2092.8</ele>
        <time>2020-08-11T07:22:06Z</time>
      </trkpt>
      <trkpt lat="45.14613" lon="5.94033">
        <ele>2092.6</ele>
        <time>2020-08-11T07:22:07Z</time>
      </trkpt>
      <trkpt lat="45.14614" lon="5.94033">
        <ele>2092.4</ele>
        <time>2020-08-11T07:22:08Z</time>
      </trkpt>
      <trkpt lat="45.14614" lon="5.94034">
        <ele>2092.6</ele>
        <time>2020-08-11T07:22:09Z</time>
      </trkpt>
      <trkpt lat="45.14615" lon="5.94034">
        <ele>2092</ele>
        <time>2020-08-11T07:22:10Z</time>
      </trkpt>
      <trkpt lat="45.14615" lon="5.94035">
        <ele>2091.6</ele>
        <time>2020-08-11T07:22:11Z</time>
      </trkpt>
      <trkpt lat="45.14616" lon="5.94035">
        <ele>2090.4</ele>
        <time>2020-08-11T07:22:12Z</time>
      </trkpt>
      <trkpt lat="45.14616" lon="5.94036">
        <ele>2090.4</ele>
        <time>2020-08-11T07:22:13Z</time>
      </trkpt>
      <trkpt lat="45.14616" lon="5.94037">
        <ele>2089.8</ele>
        <time>2020-08-11T07:22:14Z</time>
      </trkpt>
      <trkpt lat="45.14616" lon="5.94039">
        <ele>2090</ele>
        <time>2020-08-11T07:22:15Z</time>
      </trkpt>
      <trkpt lat="45.14616" lon="5.9404">
        <ele>2090</ele>
        <time>2020-08-11T07:22:16Z</time>
      </trkpt>
      <trkpt lat="45.14616" lon="5.94041">
        <ele>2089.6</ele>
        <time>2020-08-11T07:22:17Z</time>
      </trkpt>
      <trkpt lat="45.14616" lon="5.94042">
        <ele>2089.6</ele>
        <time>2020-08-11T07:22:18Z</time>
      </trkpt>
      <trkpt lat="45.14616" lon="5.94044">
        <ele>2089.2</ele>
        <time>2020-08-11T07:22:19Z</time>
      </trkpt>
      <trkpt lat="45.14616" lon="5.94045">
        <ele>2088.8</ele>
        <time>2020-08-11T07:22:20Z</time>
      </trkpt>
      <trkpt lat="45.14616" lon="5.94046">
        <ele>2088.6</ele>
        <time>2020-08-11T07:22:21Z</time>
      </trkpt>
      <trkpt lat="45.14616" lon="5.94048">
        <ele>2088.6</ele>
        <time>2020-08-11T07:22:22Z</time>
      </trkpt>
      <trkpt lat="45.14616" lon="5.94049">
        <ele>2088.2</ele>
        <time>2020-08-11T07:22:23Z</time>
      </trkpt>
      <trkpt lat="45.14616" lon="5.9405">
        <ele>2087.8</ele>
        <time>2020-08-11T07:22:24Z</time>
      </trkpt>
      <trkpt lat="45.14616" lon="5.94052">
        <ele>2087.4</ele>
        <time>2020-08-11T07:22:25Z</time>
      </trkpt>
      <trkpt lat="45.14616" lon="5.94053">
        <ele>2087</ele>
        <time>2020-08-11T07:22:26Z</time>
      </trkpt>
      <trkpt lat="45.14616" lon="5.94055">
        <ele>2086.8</ele>
        <time>2020-08-11T07:22:27Z</time>
      </trkpt>
      <trkpt lat="45.14615" lon="5.94056">
        <ele>2086.2</ele>
        <time>2020-08-11T07:22:28Z</time>
      </trkpt>
      <trkpt lat="45.14615" lon="5.94058">
        <ele>2085.8</ele>
        <time>2020-08-11T07:22:29Z</time>
      </trkpt>
      <trkpt lat="45.14615" lon="5.94059">
        <ele>2084.6</ele>
        <time>2020-08-11T07:22:30Z</time>
      </trkpt>
      <trkpt lat="45.14615" lon="5.94061">
        <ele>2084.4</ele>
        <time>2020-08-11T07:22:31Z</time>
      </trkpt>
      <trkpt lat="45.14615" lon="5.94062">
        <ele>2084.2</ele>
        <time>2020-08-11T07:22:32Z</time>
      </trkpt>
      <trkpt lat="45.14615" lon="5.94064">
        <ele>2084.2</ele>
        <time>2020-08-11T07:22:33Z</time>
      </trkpt>
      <trkpt lat="45.14615" lon="5.94065">
        <ele>2084</ele>
        <time>2020-08-11T07:22:34Z</time>
      </trkpt>
      <trkpt lat="45.14616" lon="5.94066">
        <ele>2084</ele>
        <time>2020-08-11T07:22:35Z</time>
      </trkpt>
      <trkpt lat="45.14617" lon="5.94066">
        <ele>2084</ele>
        <time>2020-08-11T07:22:36Z</time>
      </trkpt>
      <trkpt lat="45.14617" lon="5.94067">
        <ele>2083.8</ele>
        <time>2020-08-11T07:22:37Z</time>
      </trkpt>
      <trkpt lat="45.14618" lon="5.94068">
        <ele>2084</ele>
        <time>2020-08-11T07:22:38Z</time>
      </trkpt>
      <trkpt lat="45.14618" lon="5.94069">
        <ele>2084.2</ele>
        <time>2020-08-11T07:22:39Z</time>
      </trkpt>
      <trkpt lat="45.14619" lon="5.9407">
        <ele>2084.6</ele>
        <time>2020-08-11T07:22:40Z</time>
      </trkpt>
      <trkpt lat="45.1462" lon="5.94071">
        <ele>2084.6</ele>
        <time>2020-08-11T07:22:41Z</time>
      </trkpt>
      <trkpt lat="45.1462" lon="5.94071">
        <ele>2084.8</ele>
        <time>2020-08-11T07:22:42Z</time>
      </trkpt>
      <trkpt lat="45.14621" lon="5.94072">
        <ele>2085</ele>
        <time>2020-08-11T07:22:43Z</time>
      </trkpt>
      <trkpt lat="45.14622" lon="5.94073">
        <ele>2085.4</ele>
        <time>2020-08-11T07:22:44Z</time>
      </trkpt>
      <trkpt lat="45.14622" lon="5.94074">
        <ele>2085.4</ele>
        <time>2020-08-11T07:22:45Z</time>
      </trkpt>
      <trkpt lat="45.14622" lon="5.94076">
        <ele>2085.6</ele>
        <time>2020-08-11T07:22:46Z</time>
      </trkpt>
      <trkpt lat="45.14622" lon="5.94077">
        <ele>2085.8</ele>
        <time>2020-08-11T07:22:47Z</time>
      </trkpt>
      <trkpt lat="45.14622" lon="5.94078">
        <ele>2086.2</ele>
        <time>2020-08-11T07:22:48Z</time>
      </trkpt>
      <trkpt lat="45.14623" lon="5.94079">
        <ele>2086.2</ele>
        <time>2020-08-11T07:22:49Z</time>
      </trkpt>
      <trkpt lat="45.14623" lon="5.9408">
        <ele>2086.6</ele>
        <time>2020-08-11T07:22:50Z</time>
      </trkpt>
      <trkpt lat="45.14623" lon="5.94081">
        <ele>2086.6</ele>
        <time>2020-08-11T07:22:51Z</time>
      </trkpt>
      <trkpt lat="45.14623" lon="5.94083">
        <ele>2086.8</ele>
        <time>2020-08-11T07:22:52Z</time>
      </trkpt>
      <trkpt lat="45.14624" lon="5.94084">
        <ele>2087.2</ele>
        <time>2020-08-11T07:22:53Z</time>
      </trkpt>
      <trkpt lat="45.14624" lon="5.94085">
        <ele>2087.4</ele>
        <time>2020-08-11T07:22:54Z</time>
      </trkpt>
      <trkpt lat="45.14624" lon="5.94086">
        <ele>2087.8</ele>
        <time>2020-08-11T07:22:55Z</time>
      </trkpt>
      <trkpt lat="45.14623" lon="5.94088">
        <ele>2087.8</ele>
        <time>2020-08-11T07:22:56Z</time>
      </trkpt>
      <trkpt lat="45.14622" lon="5.9409">
        <ele>2088</ele>
        <time>2020-08-11T07:22:57Z</time>
      </trkpt>
      <trkpt lat="45.14621" lon="5.94092">
        <ele>2088.2</ele>
        <time>2020-08-11T07:22:58Z</time>
      </trkpt>
      <trkpt lat="45.1462" lon="5.94094">
        <ele>2088.4</ele>
        <time>2020-08-11T07:22:59Z</time>
      </trkpt>
      <trkpt lat="45.1462" lon="5.94095">
        <ele>2088.8</ele>
        <time>2020-08-11T07:23:00Z</time>
      </trkpt>
      <trkpt lat="45.14619" lon="5.94097">
        <ele>2089.2</ele>
        <time>2020-08-11T07:23:01Z</time>
      </trkpt>
      <trkpt lat="45.14618" lon="5.94099">
        <ele>2089</ele>
        <time>2020-08-11T07:23:02Z</time>
      </trkpt>
      <trkpt lat="45.14617" lon="5.94101">
        <ele>2089.4</ele>
        <time>2020-08-11T07:23:03Z</time>
      </trkpt>
      <trkpt lat="45.14616" lon="5.94103">
        <ele>2089.6</ele>
        <time>2020-08-11T07:23:04Z</time>
      </trkpt>
      <trkpt lat="45.14615" lon="5.94105">
        <ele>2089.8</ele>
        <time>2020-08-11T07:23:05Z</time>
      </trkpt>
      <trkpt lat="45.14616" lon="5.94106">
        <ele>2090.2</ele>
        <time>2020-08-11T07:23:06Z</time>
      </trkpt>
      <trkpt lat="45.14617" lon="5.94107">
        <ele>2090.4</ele>
        <time>2020-08-11T07:23:07Z</time>
      </trkpt>
      <trkpt lat="45.14618" lon="5.94108">
        <ele>2090.6</ele>
        <time>2020-08-11T07:23:08Z</time>
      </trkpt>
      <trkpt lat="45.14619" lon="5.94109">
        <ele>2090.8</ele>
        <time>2020-08-11T07:23:09Z</time>
      </trkpt>
      <trkpt lat="45.1462" lon="5.9411">
        <ele>2091</ele>
        <time>2020-08-11T07:23:10Z</time>
      </trkpt>
      <trkpt lat="45.14621" lon="5.94111">
        <ele>2091.2</ele>
        <time>2020-08-11T07:23:11Z</time>
      </trkpt>
      <trkpt lat="45.14622" lon="5.94112">
        <ele>2091.6</ele>
        <time>2020-08-11T07:23:12Z</time>
      </trkpt>
      <trkpt lat="45.14623" lon="5.94113">
        <ele>2091.6</ele>
        <time>2020-08-11T07:23:13Z</time>
      </trkpt>
      <trkpt lat="45.14624" lon="5.94114">
        <ele>2091.8</ele>
        <time>2020-08-11T07:23:14Z</time>
      </trkpt>
      <trkpt lat="45.14625" lon="5.94115">
        <ele>2091.8</ele>
        <time>2020-08-11T07:23:15Z</time>
      </trkpt>
      <trkpt lat="45.14626" lon="5.94116">
        <ele>2091.8</ele>
        <time>2020-08-11T07:23:16Z</time>
      </trkpt>
      <trkpt lat="45.14626" lon="5.94117">
        <ele>2092</ele>
        <time>2020-08-11T07:23:17Z</time>
      </trkpt>
      <trkpt lat="45.14627" lon="5.94117">
        <ele>2092</ele>
        <time>2020-08-11T07:23:18Z</time>
      </trkpt>
      <trkpt lat="45.14627" lon="5.94118">
        <ele>2092.4</ele>
        <time>2020-08-11T07:23:19Z</time>
      </trkpt>
      <trkpt lat="45.14628" lon="5.94118">
        <ele>2092.6</ele>
        <time>2020-08-11T07:23:20Z</time>
      </trkpt>
      <trkpt lat="45.14628" lon="5.94119">
        <ele>2093</ele>
        <time>2020-08-11T07:23:21Z</time>
      </trkpt>
      <trkpt lat="45.14629" lon="5.94119">
        <ele>2093</ele>
        <time>2020-08-11T07:23:22Z</time>
      </trkpt>
      <trkpt lat="45.14629" lon="5.9412">
        <ele>2093.4</ele>
        <time>2020-08-11T07:23:23Z</time>
      </trkpt>
      <trkpt lat="45.1463" lon="5.9412">
        <ele>2093.4</ele>
        <time>2020-08-11T07:23:24Z</time>
      </trkpt>
      <trkpt lat="45.14631" lon="5.94121">
        <ele>2093.4</ele>
        <time>2020-08-11T07:23:25Z</time>
      </trkpt>
      <trkpt lat="45.14631" lon="5.94121">
        <ele>2093.4</ele>
        <time>2020-08-11T07:23:26Z</time>
      </trkpt>
      <trkpt lat="45.14632" lon="5.94122">
        <ele>2093.4</ele>
        <time>2020-08-11T07:23:27Z</time>
      </trkpt>
      <trkpt lat="45.14632" lon="5.94123">
        <ele>2093.4</ele>
        <time>2020-08-11T07:23:28Z</time>
      </trkpt>
      <trkpt lat="45.14633" lon="5.94123">
        <ele>2093.6</ele>
        <time>2020-08-11T07:23:29Z</time>
      </trkpt>
      <trkpt lat="45.14633" lon="5.94124">
        <ele>2093.8</ele>
        <time>2020-08-11T07:23:30Z</time>
      </trkpt>
      <trkpt lat="45.14634" lon="5.94124">
        <ele>2093.8</ele>
        <time>2020-08-11T07:23:31Z</time>
      </trkpt>
      <trkpt lat="45.14634" lon="5.94125">
        <ele>2093.8</ele>
        <time>2020-08-11T07:23:32Z</time>
      </trkpt>
      <trkpt lat="45.14633" lon="5.94125">
        <ele>2093.8</ele>
        <time>2020-08-11T07:23:33Z</time>
      </trkpt>
      <trkpt lat="45.14632" lon="5.94125">
        <ele>2093.8</ele>
        <time>2020-08-11T07:23:34Z</time>
      </trkpt>
      <trkpt lat="45.14632" lon="5.94126">
        <ele>2093.8</ele>
        <time>2020-08-11T07:23:35Z</time>
      </trkpt>
      <trkpt lat="45.14631" lon="5.94126">
        <ele>2093.8</ele>
        <time>2020-08-11T07:23:36Z</time>
      </trkpt>
      <trkpt lat="45.1463" lon="5.94127">
        <ele>2094.2</ele>
        <time>2020-08-11T07:23:37Z</time>
      </trkpt>
      <trkpt lat="45.14629" lon="5.94127">
        <ele>2094.2</ele>
        <time>2020-08-11T07:23:38Z</time>
      </trkpt>
      <trkpt lat="45.14628" lon="5.94127">
        <ele>2094.4</ele>
        <time>2020-08-11T07:23:39Z</time>
      </trkpt>
      <trkpt lat="45.14627" lon="5.94128">
        <ele>2094.6</ele>
        <time>2020-08-11T07:23:40Z</time>
      </trkpt>
      <trkpt lat="45.14626" lon="5.94128">
        <ele>2094.8</ele>
        <time>2020-08-11T07:23:41Z</time>
      </trkpt>
      <trkpt lat="45.14625" lon="5.94128">
        <ele>2095</ele>
        <time>2020-08-11T07:23:42Z</time>
      </trkpt>
      <trkpt lat="45.14624" lon="5.94129">
        <ele>2095.2</ele>
        <time>2020-08-11T07:23:43Z</time>
      </trkpt>
      <trkpt lat="45.14625" lon="5.9413">
        <ele>2095.4</ele>
        <time>2020-08-11T07:23:44Z</time>
      </trkpt>
      <trkpt lat="45.14626" lon="5.9413">
        <ele>2095.4</ele>
        <time>2020-08-11T07:23:45Z</time>
      </trkpt>
      <trkpt lat="45.14627" lon="5.94131">
        <ele>2095.4</ele>
        <time>2020-08-11T07:23:46Z</time>
      </trkpt>
      <trkpt lat="45.14628" lon="5.94132">
        <ele>2095.6</ele>
        <time>2020-08-11T07:23:47Z</time>
      </trkpt>
      <trkpt lat="45.14628" lon="5.94133">
        <ele>2095.8</ele>
        <time>2020-08-11T07:23:48Z</time>
      </trkpt>
      <trkpt lat="45.14629" lon="5.94133">
        <ele>2096</ele>
        <time>2020-08-11T07:23:49Z</time>
      </trkpt>
      <trkpt lat="45.1463" lon="5.94134">
        <ele>2096.2</ele>
        <time>2020-08-11T07:23:50Z</time>
      </trkpt>
      <trkpt lat="45.14631" lon="5.94135">
        <ele>2096.2</ele>
        <time>2020-08-11T07:23:51Z</time>
      </trkpt>
      <trkpt lat="45.14632" lon="5.94136">
        <ele>2096.8</ele>
        <time>2020-08-11T07:23:52Z</time>
      </trkpt>
      <trkpt lat="45.14632" lon="5.94136">
        <ele>2096.6</ele>
        <time>2020-08-11T07:23:53Z</time>
      </trkpt>
      <trkpt lat="45.14635" lon="5.94137">
        <ele>2096.8</ele>
        <time>2020-08-11T07:23:54Z</time>
      </trkpt>
      <trkpt lat="45.14638" lon="5.94138">
        <ele>2097</ele>
        <time>2020-08-11T07:23:55Z</time>
      </trkpt>
      <trkpt lat="45.14641" lon="5.94139">
        <ele>2097.4</ele>
        <time>2020-08-11T07:23:56Z</time>
      </trkpt>
      <trkpt lat="45.14644" lon="5.9414">
        <ele>2097.4</ele>
        <time>2020-08-11T07:23:57Z</time>
      </trkpt>
      <trkpt lat="45.14645" lon="5.94141">
        <ele>2097.6</ele>
        <time>2020-08-11T07:23:58Z</time>
      </trkpt>
      <trkpt lat="45.14647" lon="5.94143">
        <ele>2097.8</ele>
        <time>2020-08-11T07:23:59Z</time>
      </trkpt>
      <trkpt lat="45.14648" lon="5.94144">
        <ele>2098</ele>
        <time>2020-08-11T07:24:00Z</time>
      </trkpt>
      <trkpt lat="45.14649" lon="5.94146">
        <ele>2098.2</ele>
        <time>2020-08-11T07:24:01Z</time>
      </trkpt>
      <trkpt lat="45.1465" lon="5.94147">
        <ele>2098.6</ele>
        <time>2020-08-11T07:24:02Z</time>
      </trkpt>
      <trkpt lat="45.14652" lon="5.94149">
        <ele>2099</ele>
        <time>2020-08-11T07:24:03Z</time>
      </trkpt>
      <trkpt lat="45.14653" lon="5.9415">
        <ele>2099.2</ele>
        <time>2020-08-11T07:24:04Z</time>
      </trkpt>
      <trkpt lat="45.14654" lon="5.94152">
        <ele>2099.4</ele>
        <time>2020-08-11T07:24:05Z</time>
      </trkpt>
      <trkpt lat="45.14656" lon="5.94153">
        <ele>2099.8</ele>
        <time>2020-08-11T07:24:06Z</time>
      </trkpt>
      <trkpt lat="45.14657" lon="5.94154">
        <ele>2100</ele>
        <time>2020-08-11T07:24:07Z</time>
      </trkpt>
      <trkpt lat="45.14659" lon="5.94156">
        <ele>2100.2</ele>
        <time>2020-08-11T07:24:08Z</time>
      </trkpt>
      <trkpt lat="45.1466" lon="5.94157">
        <ele>2100.2</ele>
        <time>2020-08-11T07:24:09Z</time>
      </trkpt>
      <trkpt lat="45.14662" lon="5.94158">
        <ele>2100.4</ele>
        <time>2020-08-11T07:24:10Z</time>
      </trkpt>
      <trkpt lat="45.14663" lon="5.94159">
        <ele>2100.6</ele>
        <time>2020-08-11T07:24:11Z</time>
      </trkpt>
      <trkpt lat="45.14664" lon="5.94161">
        <ele>2101.2</ele>
        <time>2020-08-11T07:24:12Z</time>
      </trkpt>
      <trkpt lat="45.14666" lon="5.94162">
        <ele>2101.2</ele>
        <time>2020-08-11T07:24:13Z</time>
      </trkpt>
      <trkpt lat="45.14667" lon="5.94163">
        <ele>2101.4</ele>
        <time>2020-08-11T07:24:14Z</time>
      </trkpt>
      <trkpt lat="45.14668" lon="5.94164">
        <ele>2101.6</ele>
        <time>2020-08-11T07:24:15Z</time>
      </trkpt>
      <trkpt lat="45.14669" lon="5.94165">
        <ele>2101.8</ele>
        <time>2020-08-11T07:24:16Z</time>
      </trkpt>
      <trkpt lat="45.1467" lon="5.94165">
        <ele>2102</ele>
        <time>2020-08-11T07:24:17Z</time>
      </trkpt>
      <trkpt lat="45.14671" lon="5.94166">
        <ele>2102.4</ele>
        <time>2020-08-11T07:24:18Z</time>
      </trkpt>
      <trkpt lat="45.14671" lon="5.94166">
        <ele>2102.4</ele>
        <time>2020-08-11T07:24:19Z</time>
      </trkpt>
      <trkpt lat="45.14672" lon="5.94167">
        <ele>2102.6</ele>
        <time>2020-08-11T07:24:20Z</time>
      </trkpt>
      <trkpt lat="45.14673" lon="5.94167">
        <ele>2103</ele>
        <time>2020-08-11T07:24:21Z</time>
      </trkpt>
      <trkpt lat="45.14673" lon="5.94168">
        <ele>2103.2</ele>
        <time>2020-08-11T07:24:22Z</time>
      </trkpt>
      <trkpt lat="45.14674" lon="5.94168">
        <ele>2103.4</ele>
        <time>2020-08-11T07:24:23Z</time>
      </trkpt>
      <trkpt lat="45.14675" lon="5.94169">
        <ele>2103.6</ele>
        <time>2020-08-11T07:24:24Z</time>
      </trkpt>
      <trkpt lat="45.14675" lon="5.9417">
        <ele>2103.6</ele>
        <time>2020-08-11T07:24:25Z</time>
      </trkpt>
      <trkpt lat="45.14676" lon="5.9417">
        <ele>2104</ele>
        <time>2020-08-11T07:24:26Z</time>
      </trkpt>
      <trkpt lat="45.14677" lon="5.94171">
        <ele>2104</ele>
        <time>2020-08-11T07:24:27Z</time>
      </trkpt>
      <trkpt lat="45.14677" lon="5.94171">
        <ele>2104.2</ele>
        <time>2020-08-11T07:24:28Z</time>
      </trkpt>
      <trkpt lat="45.14677" lon="5.94172">
        <ele>2104.4</ele>
        <time>2020-08-11T07:24:29Z</time>
      </trkpt>
      <trkpt lat="45.14677" lon="5.94173">
        <ele>2104.8</ele>
        <time>2020-08-11T07:24:30Z</time>
      </trkpt>
      <trkpt lat="45.14676" lon="5.94174">
        <ele>2105</ele>
        <time>2020-08-11T07:24:31Z</time>
      </trkpt>
      <trkpt lat="45.14676" lon="5.94175">
        <ele>2105.2</ele>
        <time>2020-08-11T07:24:32Z</time>
      </trkpt>
      <trkpt lat="45.14676" lon="5.94175">
        <ele>2105.4</ele>
        <time>2020-08-11T07:24:33Z</time>
      </trkpt>
      <trkpt lat="45.14676" lon="5.94176">
        <ele>2105.6</ele>
        <time>2020-08-11T07:24:34Z</time>
      </trkpt>
      <trkpt lat="45.14676" lon="5.94177">
        <ele>2105.8</ele>
        <time>2020-08-11T07:24:35Z</time>
      </trkpt>
      <trkpt lat="45.14676" lon="5.94178">
        <ele>2106.2</ele>
        <time>2020-08-11T07:24:36Z</time>
      </trkpt>
      <trkpt lat="45.14676" lon="5.94179">
        <ele>2106.2</ele>
        <time>2020-08-11T07:24:37Z</time>
      </trkpt>
      <trkpt lat="45.14676" lon="5.94179">
        <ele>2106.6</ele>
        <time>2020-08-11T07:24:38Z</time>
      </trkpt>
      <trkpt lat="45.14676" lon="5.9418">
        <ele>2106.8</ele>
        <time>2020-08-11T07:24:39Z</time>
      </trkpt>
      <trkpt lat="45.14676" lon="5.94181">
        <ele>2107</ele>
        <time>2020-08-11T07:24:40Z</time>
      </trkpt>
      <trkpt lat="45.14676" lon="5.94182">
        <ele>2107.4</ele>
        <time>2020-08-11T07:24:41Z</time>
      </trkpt>
      <trkpt lat="45.14676" lon="5.94183">
        <ele>2107.6</ele>
        <time>2020-08-11T07:24:42Z</time>
      </trkpt>
      <trkpt lat="45.14676" lon="5.94183">
        <ele>2107.8</ele>
        <time>2020-08-11T07:24:43Z</time>
      </trkpt>
      <trkpt lat="45.14676" lon="5.94185">
        <ele>2108</ele>
        <time>2020-08-11T07:24:44Z</time>
      </trkpt>
      <trkpt lat="45.14675" lon="5.94186">
        <ele>2108.2</ele>
        <time>2020-08-11T07:24:45Z</time>
      </trkpt>
      <trkpt lat="45.14675" lon="5.94187">
        <ele>2108.2</ele>
        <time>2020-08-11T07:24:46Z</time>
      </trkpt>
      <trkpt lat="45.14674" lon="5.94188">
        <ele>2108.4</ele>
        <time>2020-08-11T07:24:47Z</time>
      </trkpt>
      <trkpt lat="45.14674" lon="5.94189">
        <ele>2108.4</ele>
        <time>2020-08-11T07:24:48Z</time>
      </trkpt>
      <trkpt lat="45.14674" lon="5.9419">
        <ele>2108.6</ele>
        <time>2020-08-11T07:24:49Z</time>
      </trkpt>
      <trkpt lat="45.14673" lon="5.94192">
        <ele>2109</ele>
        <time>2020-08-11T07:24:50Z</time>
      </trkpt>
      <trkpt lat="45.14673" lon="5.94193">
        <ele>2109.2</ele>
        <time>2020-08-11T07:24:51Z</time>
      </trkpt>
      <trkpt lat="45.14672" lon="5.94194">
        <ele>2109.4</ele>
        <time>2020-08-11T07:24:52Z</time>
      </trkpt>
      <trkpt lat="45.14672" lon="5.94195">
        <ele>2109.6</ele>
        <time>2020-08-11T07:24:53Z</time>
      </trkpt>
      <trkpt lat="45.14672" lon="5.94197">
        <ele>2109.8</ele>
        <time>2020-08-11T07:24:54Z</time>
      </trkpt>
      <trkpt lat="45.14671" lon="5.94198">
        <ele>2110</ele>
        <time>2020-08-11T07:24:55Z</time>
      </trkpt>
      <trkpt lat="45.14671" lon="5.942">
        <ele>2110.2</ele>
        <time>2020-08-11T07:24:56Z</time>
      </trkpt>
      <trkpt lat="45.14671" lon="5.94201">
        <ele>2110.4</ele>
        <time>2020-08-11T07:24:57Z</time>
      </trkpt>
      <trkpt lat="45.1467" lon="5.94202">
        <ele>2110.8</ele>
        <time>2020-08-11T07:24:58Z</time>
      </trkpt>
      <trkpt lat="45.1467" lon="5.94204">
        <ele>2111.4</ele>
        <time>2020-08-11T07:24:59Z</time>
      </trkpt>
      <trkpt lat="45.14669" lon="5.94205">
        <ele>2112</ele>
        <time>2020-08-11T07:25:00Z</time>
      </trkpt>
      <trkpt lat="45.14669" lon="5.94207">
        <ele>2112.4</ele>
        <time>2020-08-11T07:25:01Z</time>
      </trkpt>
      <trkpt lat="45.14669" lon="5.94208">
        <ele>2112.4</ele>
        <time>2020-08-11T07:25:02Z</time>
      </trkpt>
      <trkpt lat="45.14668" lon="5.9421">
        <ele>2112.2</ele>
        <time>2020-08-11T07:25:03Z</time>
      </trkpt>
      <trkpt lat="45.14667" lon="5.94211">
        <ele>2112.6</ele>
        <time>2020-08-11T07:25:04Z</time>
      </trkpt>
      <trkpt lat="45.14667" lon="5.94212">
        <ele>2112.6</ele>
        <time>2020-08-11T07:25:05Z</time>
      </trkpt>
      <trkpt lat="45.14666" lon="5.94214">
        <ele>2112.4</ele>
        <time>2020-08-11T07:25:06Z</time>
      </trkpt>
      <trkpt lat="45.14665" lon="5.94215">
        <ele>2112.8</ele>
        <time>2020-08-11T07:25:07Z</time>
      </trkpt>
      <trkpt lat="45.14665" lon="5.94216">
        <ele>2112.8</ele>
        <time>2020-08-11T07:25:08Z</time>
      </trkpt>
      <trkpt lat="45.14664" lon="5.94218">
        <ele>2112.8</ele>
        <time>2020-08-11T07:25:09Z</time>
      </trkpt>
      <trkpt lat="45.14663" lon="5.94219">
        <ele>2112.6</ele>
        <time>2020-08-11T07:25:10Z</time>
      </trkpt>
      <trkpt lat="45.14662" lon="5.94221">
        <ele>2112.8</ele>
        <time>2020-08-11T07:25:11Z</time>
      </trkpt>
      <trkpt lat="45.1466" lon="5.94222">
        <ele>2113</ele>
        <time>2020-08-11T07:25:12Z</time>
      </trkpt>
      <trkpt lat="45.14658" lon="5.94224">
        <ele>2113</ele>
        <time>2020-08-11T07:25:13Z</time>
      </trkpt>
      <trkpt lat="45.14657" lon="5.94226">
        <ele>2113.4</ele>
        <time>2020-08-11T07:25:14Z</time>
      </trkpt>
      <trkpt lat="45.14655" lon="5.94227">
        <ele>2113.4</ele>
        <time>2020-08-11T07:25:15Z</time>
      </trkpt>
      <trkpt lat="45.14652" lon="5.94228">
        <ele>2113.4</ele>
        <time>2020-08-11T07:25:16Z</time>
      </trkpt>
      <trkpt lat="45.14651" lon="5.94229">
        <ele>2113.6</ele>
        <time>2020-08-11T07:25:17Z</time>
      </trkpt>
      <trkpt lat="45.14649" lon="5.94229">
        <ele>2114</ele>
        <time>2020-08-11T07:25:18Z</time>
      </trkpt>
      <trkpt lat="45.14648" lon="5.9423">
        <ele>2114</ele>
        <time>2020-08-11T07:25:19Z</time>
      </trkpt>
      <trkpt lat="45.14646" lon="5.9423">
        <ele>2114.2</ele>
        <time>2020-08-11T07:25:20Z</time>
      </trkpt>
      <trkpt lat="45.14645" lon="5.94231">
        <ele>2114.6</ele>
        <time>2020-08-11T07:25:21Z</time>
      </trkpt>
      <trkpt lat="45.14643" lon="5.94231">
        <ele>2114.6</ele>
        <time>2020-08-11T07:25:22Z</time>
      </trkpt>
      <trkpt lat="45.14642" lon="5.94232">
        <ele>2114.8</ele>
        <time>2020-08-11T07:25:23Z</time>
      </trkpt>
      <trkpt lat="45.1464" lon="5.94232">
        <ele>2115</ele>
        <time>2020-08-11T07:25:24Z</time>
      </trkpt>
      <trkpt lat="45.14639" lon="5.94233">
        <ele>2115.4</ele>
        <time>2020-08-11T07:25:25Z</time>
      </trkpt>
      <trkpt lat="45.14637" lon="5.94234">
        <ele>2115.4</ele>
        <time>2020-08-11T07:25:26Z</time>
      </trkpt>
      <trkpt lat="45.14636" lon="5.94234">
        <ele>2115.6</ele>
        <time>2020-08-11T07:25:27Z</time>
      </trkpt>
      <trkpt lat="45.14634" lon="5.94235">
        <ele>2115.8</ele>
        <time>2020-08-11T07:25:28Z</time>
      </trkpt>
      <trkpt lat="45.14633" lon="5.94235">
        <ele>2116.2</ele>
        <time>2020-08-11T07:25:29Z</time>
      </trkpt>
      <trkpt lat="45.14631" lon="5.94236">
        <ele>2116.2</ele>
        <time>2020-08-11T07:25:30Z</time>
      </trkpt>
      <trkpt lat="45.1462" lon="5.9423">
        <ele>2116.4</ele>
        <time>2020-08-11T07:25:31Z</time>
      </trkpt>
      <trkpt lat="45.1462" lon="5.9423">
        <ele>2116.4</ele>
        <time>2020-08-11T07:25:32Z</time>
      </trkpt>
      <trkpt lat="45.14621" lon="5.94229">
        <ele>2116.6</ele>
        <time>2020-08-11T07:25:33Z</time>
      </trkpt>
      <trkpt lat="45.14623" lon="5.94228">
        <ele>2116.6</ele>
        <time>2020-08-11T07:25:34Z</time>
      </trkpt>
      <trkpt lat="45.14625" lon="5.94227">
        <ele>2116.8</ele>
        <time>2020-08-11T07:25:35Z</time>
      </trkpt>
      <trkpt lat="45.14626" lon="5.94226">
        <ele>2117</ele>
        <time>2020-08-11T07:25:36Z</time>
      </trkpt>
      <trkpt lat="45.14628" lon="5.94225">
        <ele>2116.8</ele>
        <time>2020-08-11T07:25:37Z</time>
      </trkpt>
      <trkpt lat="45.1463" lon="5.94224">
        <ele>2117</ele>
        <time>2020-08-11T07:25:38Z</time>
      </trkpt>
      <trkpt lat="45.14631" lon="5.94223">
        <ele>2117</ele>
        <time>2020-08-11T07:25:39Z</time>
      </trkpt>
      <trkpt lat="45.14633" lon="5.94222">
        <ele>2117.2</ele>
        <time>2020-08-11T07:25:40Z</time>
      </trkpt>
      <trkpt lat="45.14633" lon="5.94221">
        <ele>2117.4</ele>
        <time>2020-08-11T07:25:41Z</time>
      </trkpt>
      <trkpt lat="45.14634" lon="5.9422">
        <ele>2117.4</ele>
        <time>2020-08-11T07:25:42Z</time>
      </trkpt>
      <trkpt lat="45.14634" lon="5.94219">
        <ele>2117.4</ele>
        <time>2020-08-11T07:25:43Z</time>
      </trkpt>
      <trkpt lat="45.14635" lon="5.94218">
        <ele>2117.4</ele>
        <time>2020-08-11T07:25:44Z</time>
      </trkpt>
      <trkpt lat="45.14635" lon="5.94217">
        <ele>2117.6</ele>
        <time>2020-08-11T07:25:45Z</time>
      </trkpt>
      <trkpt lat="45.14636" lon="5.94216">
        <ele>2117.8</ele>
        <time>2020-08-11T07:25:46Z</time>
      </trkpt>
      <trkpt lat="45.14636" lon="5.94215">
        <ele>2118.2</ele>
        <time>2020-08-11T07:25:47Z</time>
      </trkpt>
      <trkpt lat="45.14637" lon="5.94214">
        <ele>2118.2</ele>
        <time>2020-08-11T07:25:48Z</time>
      </trkpt>
      <trkpt lat="45.14637" lon="5.94212">
        <ele>2118.4</ele>
        <time>2020-08-11T07:25:49Z</time>
      </trkpt>
      <trkpt lat="45.14638" lon="5.94211">
        <ele>2118.6</ele>
        <time>2020-08-11T07:25:50Z</time>
      </trkpt>
      <trkpt lat="45.14638" lon="5.94212">
        <ele>2118.8</ele>
        <time>2020-08-11T07:25:51Z</time>
      </trkpt>
      <trkpt lat="45.14639" lon="5.94213">
        <ele>2119.2</ele>
        <time>2020-08-11T07:25:52Z</time>
      </trkpt>
      <trkpt lat="45.1464" lon="5.94214">
        <ele>2119.4</ele>
        <time>2020-08-11T07:25:53Z</time>
      </trkpt>
      <trkpt lat="45.1464" lon="5.94216">
        <ele>2119.4</ele>
        <time>2020-08-11T07:25:54Z</time>
      </trkpt>
      <trkpt lat="45.14641" lon="5.94217">
        <ele>2119.6</ele>
        <time>2020-08-11T07:25:55Z</time>
      </trkpt>
      <trkpt lat="45.14641" lon="5.94218">
        <ele>2119.8</ele>
        <time>2020-08-11T07:25:56Z</time>
      </trkpt>
      <trkpt lat="45.14642" lon="5.94219">
        <ele>2120</ele>
        <time>2020-08-11T07:25:57Z</time>
      </trkpt>
      <trkpt lat="45.14642" lon="5.9422">
        <ele>2120.2</ele>
        <time>2020-08-11T07:25:58Z</time>
      </trkpt>
      <trkpt lat="45.14643" lon="5.94221">
        <ele>2120.4</ele>
        <time>2020-08-11T07:25:59Z</time>
      </trkpt>
      <trkpt lat="45.14643" lon="5.94222">
        <ele>2120.6</ele>
        <time>2020-08-11T07:26:00Z</time>
      </trkpt>
      <trkpt lat="45.14644" lon="5.94223">
        <ele>2120.6</ele>
        <time>2020-08-11T07:26:01Z</time>
      </trkpt>
      <trkpt lat="45.14644" lon="5.94223">
        <ele>2120.8</ele>
        <time>2020-08-11T07:26:02Z</time>
      </trkpt>
      <trkpt lat="45.14644" lon="5.94224">
        <ele>2121</ele>
        <time>2020-08-11T07:26:03Z</time>
      </trkpt>
      <trkpt lat="45.14644" lon="5.94224">
        <ele>2121.4</ele>
        <time>2020-08-11T07:26:04Z</time>
      </trkpt>
      <trkpt lat="45.14644" lon="5.94224">
        <ele>2121.4</ele>
        <time>2020-08-11T07:26:05Z</time>
      </trkpt>
      <trkpt lat="45.14644" lon="5.94225">
        <ele>2121.4</ele>
        <time>2020-08-11T07:26:06Z</time>
      </trkpt>
      <trkpt lat="45.14644" lon="5.94225">
        <ele>2121.6</ele>
        <time>2020-08-11T07:26:07Z</time>
      </trkpt>
      <trkpt lat="45.14644" lon="5.94226">
        <ele>2121.8</ele>
        <time>2020-08-11T07:26:08Z</time>
      </trkpt>
      <trkpt lat="45.14644" lon="5.94226">
        <ele>2121.8</ele>
        <time>2020-08-11T07:26:09Z</time>
      </trkpt>
      <trkpt lat="45.14644" lon="5.94227">
        <ele>2121.8</ele>
        <time>2020-08-11T07:26:10Z</time>
      </trkpt>
      <trkpt lat="45.14644" lon="5.94227">
        <ele>2121.8</ele>
        <time>2020-08-11T07:26:11Z</time>
      </trkpt>
      <trkpt lat="45.14644" lon="5.94227">
        <ele>2122</ele>
        <time>2020-08-11T07:26:12Z</time>
      </trkpt>
      <trkpt lat="45.14644" lon="5.94228">
        <ele>2122</ele>
        <time>2020-08-11T07:26:13Z</time>
      </trkpt>
      <trkpt lat="45.14644" lon="5.94228">
        <ele>2122</ele>
        <time>2020-08-11T07:26:14Z</time>
      </trkpt>
      <trkpt lat="45.14645" lon="5.94229">
        <ele>2122</ele>
        <time>2020-08-11T07:26:15Z</time>
      </trkpt>
      <trkpt lat="45.14645" lon="5.94229">
        <ele>2122</ele>
        <time>2020-08-11T07:26:16Z</time>
      </trkpt>
      <trkpt lat="45.14645" lon="5.94229">
        <ele>2122</ele>
        <time>2020-08-11T07:26:17Z</time>
      </trkpt>
      <trkpt lat="45.14645" lon="5.9423">
        <ele>2122</ele>
        <time>2020-08-11T07:26:18Z</time>
      </trkpt>
      <trkpt lat="45.14645" lon="5.9423">
        <ele>2122.2</ele>
        <time>2020-08-11T07:26:19Z</time>
      </trkpt>
      <trkpt lat="45.14645" lon="5.94231">
        <ele>2122.2</ele>
        <time>2020-08-11T07:26:20Z</time>
      </trkpt>
      <trkpt lat="45.14645" lon="5.94231">
        <ele>2122</ele>
        <time>2020-08-11T07:26:21Z</time>
      </trkpt>
      <trkpt lat="45.14645" lon="5.94231">
        <ele>2122</ele>
        <time>2020-08-11T07:26:22Z</time>
      </trkpt>
      <trkpt lat="45.14645" lon="5.94232">
        <ele>2122</ele>
        <time>2020-08-11T07:26:23Z</time>
      </trkpt>
      <trkpt lat="45.14645" lon="5.94232">
        <ele>2122</ele>
        <time>2020-08-11T07:26:24Z</time>
      </trkpt>
      <trkpt lat="45.14645" lon="5.94233">
        <ele>2121.8</ele>
        <time>2020-08-11T07:26:25Z</time>
      </trkpt>
      <trkpt lat="45.14645" lon="5.94233">
        <ele>2121.8</ele>
        <time>2020-08-11T07:26:26Z</time>
      </trkpt>
      <trkpt lat="45.14645" lon="5.94234">
        <ele>2121.8</ele>
        <time>2020-08-11T07:26:27Z</time>
      </trkpt>
      <trkpt lat="45.14645" lon="5.94234">
        <ele>2121.8</ele>
        <time>2020-08-11T07:26:28Z</time>
      </trkpt>
      <trkpt lat="45.14645" lon="5.94234">
        <ele>2122</ele>
        <time>2020-08-11T07:26:29Z</time>
      </trkpt>
      <trkpt lat="45.14645" lon="5.94235">
        <ele>2122.2</ele>
        <time>2020-08-11T07:26:30Z</time>
      </trkpt>
      <trkpt lat="45.14645" lon="5.94235">
        <ele>2122.4</ele>
        <time>2020-08-11T07:26:31Z</time>
      </trkpt>
      <trkpt lat="45.14645" lon="5.94236">
        <ele>2122.4</ele>
        <time>2020-08-11T07:26:32Z</time>
      </trkpt>
      <trkpt lat="45.14645" lon="5.94235">
        <ele>2122.6</ele>
        <time>2020-08-11T07:26:33Z</time>
      </trkpt>
      <trkpt lat="45.14645" lon="5.94234">
        <ele>2122.6</ele>
        <time>2020-08-11T07:26:34Z</time>
      </trkpt>
      <trkpt lat="45.14645" lon="5.94233">
        <ele>2122.6</ele>
        <time>2020-08-11T07:26:35Z</time>
      </trkpt>
      <trkpt lat="45.14644" lon="5.94233">
        <ele>2122.6</ele>
        <time>2020-08-11T07:26:36Z</time>
      </trkpt>
      <trkpt lat="45.14644" lon="5.94232">
        <ele>2122.8</ele>
        <time>2020-08-11T07:26:37Z</time>
      </trkpt>
      <trkpt lat="45.14644" lon="5.94231">
        <ele>2122.8</ele>
        <time>2020-08-11T07:26:38Z</time>
      </trkpt>
      <trkpt lat="45.14643" lon="5.9423">
        <ele>2122.8</ele>
        <time>2020-08-11T07:26:39Z</time>
      </trkpt>
      <trkpt lat="45.14643" lon="5.9423">
        <ele>2122.8</ele>
        <time>2020-08-11T07:26:40Z</time>
      </trkpt>
      <trkpt lat="45.14643" lon="5.94229">
        <ele>2122.8</ele>
        <time>2020-08-11T07:26:41Z</time>
      </trkpt>
      <trkpt lat="45.14642" lon="5.94228">
        <ele>2122.8</ele>
        <time>2020-08-11T07:26:42Z</time>
      </trkpt>
      <trkpt lat="45.14642" lon="5.94228">
        <ele>2122.8</ele>
        <time>2020-08-11T07:26:43Z</time>
      </trkpt>
      <trkpt lat="45.14642" lon="5.94227">
        <ele>2122.8</ele>
        <time>2020-08-11T07:26:44Z</time>
      </trkpt>
      <trkpt lat="45.14641" lon="5.94226">
        <ele>2122.8</ele>
        <time>2020-08-11T07:26:45Z</time>
      </trkpt>
      <trkpt lat="45.14641" lon="5.94225">
        <ele>2122.8</ele>
        <time>2020-08-11T07:26:46Z</time>
      </trkpt>
      <trkpt lat="45.14641" lon="5.94225">
        <ele>2122.6</ele>
        <time>2020-08-11T07:26:47Z</time>
      </trkpt>
      <trkpt lat="45.14641" lon="5.94224">
        <ele>2122.6</ele>
        <time>2020-08-11T07:26:48Z</time>
      </trkpt>
      <trkpt lat="45.1464" lon="5.94223">
        <ele>2122.6</ele>
        <time>2020-08-11T07:26:49Z</time>
      </trkpt>
      <trkpt lat="45.1464" lon="5.94222">
        <ele>2122.8</ele>
        <time>2020-08-11T07:26:50Z</time>
      </trkpt>
      <trkpt lat="45.1464" lon="5.94222">
        <ele>2122.6</ele>
        <time>2020-08-11T07:26:51Z</time>
      </trkpt>
      <trkpt lat="45.14639" lon="5.94221">
        <ele>2122.8</ele>
        <time>2020-08-11T07:26:52Z</time>
      </trkpt>
      <trkpt lat="45.14639" lon="5.94221">
        <ele>2122.8</ele>
        <time>2020-08-11T07:26:53Z</time>
      </trkpt>
      <trkpt lat="45.14639" lon="5.94221">
        <ele>2122.4</ele>
        <time>2020-08-11T07:26:54Z</time>
      </trkpt>
      <trkpt lat="45.14639" lon="5.94221">
        <ele>2122.6</ele>
        <time>2020-08-11T07:26:55Z</time>
      </trkpt>
      <trkpt lat="45.14638" lon="5.9422">
        <ele>2122.4</ele>
        <time>2020-08-11T07:26:56Z</time>
      </trkpt>
      <trkpt lat="45.14638" lon="5.9422">
        <ele>2122.6</ele>
        <time>2020-08-11T07:26:57Z</time>
      </trkpt>
      <trkpt lat="45.14638" lon="5.9422">
        <ele>2122.4</ele>
        <time>2020-08-11T07:26:58Z</time>
      </trkpt>
      <trkpt lat="45.14638" lon="5.9422">
        <ele>2122.4</ele>
        <time>2020-08-11T07:26:59Z</time>
      </trkpt>
      <trkpt lat="45.14637" lon="5.9422">
        <ele>2122.2</ele>
        <time>2020-08-11T07:27:00Z</time>
      </trkpt>
      <trkpt lat="45.14637" lon="5.9422">
        <ele>2122</ele>
        <time>2020-08-11T07:27:01Z</time>
      </trkpt>
      <trkpt lat="45.14637" lon="5.94219">
        <ele>2122</ele>
        <time>2020-08-11T07:27:02Z</time>
      </trkpt>
      <trkpt lat="45.14637" lon="5.94219">
        <ele>2121.8</ele>
        <time>2020-08-11T07:27:03Z</time>
      </trkpt>
      <trkpt lat="45.14637" lon="5.94219">
        <ele>2122</ele>
        <time>2020-08-11T07:27:04Z</time>
      </trkpt>
      <trkpt lat="45.14636" lon="5.94219">
        <ele>2121.8</ele>
        <time>2020-08-11T07:27:05Z</time>
      </trkpt>
      <trkpt lat="45.14636" lon="5.94219">
        <ele>2121.8</ele>
        <time>2020-08-11T07:27:06Z</time>
      </trkpt>
      <trkpt lat="45.14636" lon="5.94219">
        <ele>2121.8</ele>
        <time>2020-08-11T07:27:07Z</time>
      </trkpt>
      <trkpt lat="45.14636" lon="5.94218">
        <ele>2121.6</ele>
        <time>2020-08-11T07:27:08Z</time>
      </trkpt>
      <trkpt lat="45.14635" lon="5.94218">
        <ele>2121.6</ele>
        <time>2020-08-11T07:27:09Z</time>
      </trkpt>
      <trkpt lat="45.14635" lon="5.94218">
        <ele>2121.6</ele>
        <time>2020-08-11T07:27:10Z</time>
      </trkpt>
      <trkpt lat="45.14635" lon="5.94218">
        <ele>2121.6</ele>
        <time>2020-08-11T07:27:11Z</time>
      </trkpt>
      <trkpt lat="45.14635" lon="5.94218">
        <ele>2121.6</ele>
        <time>2020-08-11T07:27:12Z</time>
      </trkpt>
      <trkpt lat="45.14634" lon="5.94218">
        <ele>2122</ele>
        <time>2020-08-11T07:27:13Z</time>
      </trkpt>
      <trkpt lat="45.14634" lon="5.94217">
        <ele>2122.4</ele>
        <time>2020-08-11T07:27:14Z</time>
      </trkpt>
      <trkpt lat="45.14634" lon="5.94217">
        <ele>2122.8</ele>
        <time>2020-08-11T07:27:15Z</time>
      </trkpt>
      <trkpt lat="45.14634" lon="5.94217">
        <ele>2122.4</ele>
        <time>2020-08-11T07:27:16Z</time>
      </trkpt>
      <trkpt lat="45.14633" lon="5.94217">
        <ele>2122.2</ele>
        <time>2020-08-11T07:27:17Z</time>
      </trkpt>
      <trkpt lat="45.14633" lon="5.94217">
        <ele>2122</ele>
        <time>2020-08-11T07:27:18Z</time>
      </trkpt>
      <trkpt lat="45.14633" lon="5.94217">
        <ele>2122</ele>
        <time>2020-08-11T07:27:19Z</time>
      </trkpt>
      <trkpt lat="45.14633" lon="5.94216">
        <ele>2122</ele>
        <time>2020-08-11T07:27:20Z</time>
      </trkpt>
      <trkpt lat="45.14633" lon="5.94216">
        <ele>2122.2</ele>
        <time>2020-08-11T07:27:21Z</time>
      </trkpt>
      <trkpt lat="45.14632" lon="5.94216">
        <ele>2122</ele>
        <time>2020-08-11T07:27:22Z</time>
      </trkpt>
      <trkpt lat="45.14632" lon="5.94216">
        <ele>2122</ele>
        <time>2020-08-11T07:27:23Z</time>
      </trkpt>
      <trkpt lat="45.14632" lon="5.94216">
        <ele>2122</ele>
        <time>2020-08-11T07:27:24Z</time>
      </trkpt>
      <trkpt lat="45.14632" lon="5.94216">
        <ele>2121.8</ele>
        <time>2020-08-11T07:27:25Z</time>
      </trkpt>
      <trkpt lat="45.14631" lon="5.94215">
        <ele>2121.8</ele>
        <time>2020-08-11T07:27:26Z</time>
      </trkpt>
      <trkpt lat="45.14631" lon="5.94215">
        <ele>2121.8</ele>
        <time>2020-08-11T07:27:27Z</time>
      </trkpt>
      <trkpt lat="45.14631" lon="5.94216">
        <ele>2121.8</ele>
        <time>2020-08-11T07:27:28Z</time>
      </trkpt>
      <trkpt lat="45.14631" lon="5.94217">
        <ele>2121.8</ele>
        <time>2020-08-11T07:27:29Z</time>
      </trkpt>
      <trkpt lat="45.14632" lon="5.94218">
        <ele>2121.8</ele>
        <time>2020-08-11T07:27:30Z</time>
      </trkpt>
      <trkpt lat="45.14632" lon="5.94219">
        <ele>2121.6</ele>
        <time>2020-08-11T07:27:31Z</time>
      </trkpt>
      <trkpt lat="45.14632" lon="5.9422">
        <ele>2121.8</ele>
        <time>2020-08-11T07:27:32Z</time>
      </trkpt>
      <trkpt lat="45.14632" lon="5.94221">
        <ele>2121.8</ele>
        <time>2020-08-11T07:27:33Z</time>
      </trkpt>
      <trkpt lat="45.14632" lon="5.94222">
        <ele>2121.6</ele>
        <time>2020-08-11T07:27:34Z</time>
      </trkpt>
      <trkpt lat="45.14632" lon="5.94223">
        <ele>2121.8</ele>
        <time>2020-08-11T07:27:35Z</time>
      </trkpt>
      <trkpt lat="45.14633" lon="5.94224">
        <ele>2121.8</ele>
        <time>2020-08-11T07:27:36Z</time>
      </trkpt>
      <trkpt lat="45.14633" lon="5.94225">
        <ele>2121.8</ele>
        <time>2020-08-11T07:27:37Z</time>
      </trkpt>
      <trkpt lat="45.14633" lon="5.94225">
        <ele>2122</ele>
        <time>2020-08-11T07:27:38Z</time>
      </trkpt>
      <trkpt lat="45.14633" lon="5.94226">
        <ele>2121.8</ele>
        <time>2020-08-11T07:27:39Z</time>
      </trkpt>
      <trkpt lat="45.14633" lon="5.94227">
        <ele>2121.8</ele>
        <time>2020-08-11T07:27:40Z</time>
      </trkpt>
      <trkpt lat="45.14633" lon="5.94228">
        <ele>2122</ele>
        <time>2020-08-11T07:27:41Z</time>
      </trkpt>
      <trkpt lat="45.14633" lon="5.94229">
        <ele>2122</ele>
        <time>2020-08-11T07:27:42Z</time>
      </trkpt>
      <trkpt lat="45.14634" lon="5.9423">
        <ele>2121.8</ele>
        <time>2020-08-11T07:27:43Z</time>
      </trkpt>
      <trkpt lat="45.14634" lon="5.94232">
        <ele>2121.8</ele>
        <time>2020-08-11T07:27:44Z</time>
      </trkpt>
      <trkpt lat="45.14634" lon="5.94234">
        <ele>2121.8</ele>
        <time>2020-08-11T07:27:45Z</time>
      </trkpt>
      <trkpt lat="45.14635" lon="5.94237">
        <ele>2122</ele>
        <time>2020-08-11T07:27:46Z</time>
      </trkpt>
      <trkpt lat="45.14635" lon="5.94239">
        <ele>2121.8</ele>
        <time>2020-08-11T07:27:47Z</time>
      </trkpt>
      <trkpt lat="45.14635" lon="5.94241">
        <ele>2121.8</ele>
        <time>2020-08-11T07:27:48Z</time>
      </trkpt>
      <trkpt lat="45.14636" lon="5.94243">
        <ele>2121.8</ele>
        <time>2020-08-11T07:27:49Z</time>
      </trkpt>
      <trkpt lat="45.14636" lon="5.94244">
        <ele>2121.6</ele>
        <time>2020-08-11T07:27:50Z</time>
      </trkpt>
      <trkpt lat="45.14635" lon="5.94246">
        <ele>2121.4</ele>
        <time>2020-08-11T07:27:51Z</time>
      </trkpt>
      <trkpt lat="45.14635" lon="5.94247">
        <ele>2121.4</ele>
        <time>2020-08-11T07:27:52Z</time>
      </trkpt>
      <trkpt lat="45.14635" lon="5.94249">
        <ele>2121.4</ele>
        <time>2020-08-11T07:27:53Z</time>
      </trkpt>
      <trkpt lat="45.14634" lon="5.9425">
        <ele>2121.4</ele>
        <time>2020-08-11T07:27:54Z</time>
      </trkpt>
      <trkpt lat="45.14634" lon="5.94251">
        <ele>2121.4</ele>
        <time>2020-08-11T07:27:55Z</time>
      </trkpt>
      <trkpt lat="45.14634" lon="5.94253">
        <ele>2121</ele>
        <time>2020-08-11T07:27:56Z</time>
      </trkpt>
      <trkpt lat="45.14634" lon="5.94254">
        <ele>2121</ele>
        <time>2020-08-11T07:27:57Z</time>
      </trkpt>
      <trkpt lat="45.14633" lon="5.94256">
        <ele>2121</ele>
        <time>2020-08-11T07:27:58Z</time>
      </trkpt>
      <trkpt lat="45.14633" lon="5.94256">
        <ele>2120.6</ele>
        <time>2020-08-11T07:27:59Z</time>
      </trkpt>
      <trkpt lat="45.14632" lon="5.94257">
        <ele>2120.6</ele>
        <time>2020-08-11T07:28:00Z</time>
      </trkpt>
      <trkpt lat="45.14631" lon="5.94258">
        <ele>2120.8</ele>
        <time>2020-08-11T07:28:01Z</time>
      </trkpt>
      <trkpt lat="45.14631" lon="5.94259">
        <ele>2121.2</ele>
        <time>2020-08-11T07:28:02Z</time>
      </trkpt>
      <trkpt lat="45.1463" lon="5.9426">
        <ele>2121</ele>
        <time>2020-08-11T07:28:03Z</time>
      </trkpt>
      <trkpt lat="45.14629" lon="5.9426">
        <ele>2120.8</ele>
        <time>2020-08-11T07:28:04Z</time>
      </trkpt>
      <trkpt lat="45.14629" lon="5.94261">
        <ele>2120.8</ele>
        <time>2020-08-11T07:28:05Z</time>
      </trkpt>
      <trkpt lat="45.14628" lon="5.94262">
        <ele>2120.6</ele>
        <time>2020-08-11T07:28:06Z</time>
      </trkpt>
      <trkpt lat="45.14628" lon="5.94263">
        <ele>2120.4</ele>
        <time>2020-08-11T07:28:07Z</time>
      </trkpt>
      <trkpt lat="45.14627" lon="5.94264">
        <ele>2120.4</ele>
        <time>2020-08-11T07:28:08Z</time>
      </trkpt>
      <trkpt lat="45.14626" lon="5.94264">
        <ele>2120.4</ele>
        <time>2020-08-11T07:28:09Z</time>
      </trkpt>
      <trkpt lat="45.14626" lon="5.94265">
        <ele>2120.4</ele>
        <time>2020-08-11T07:28:10Z</time>
      </trkpt>
      <trkpt lat="45.14624" lon="5.94267">
        <ele>2120.4</ele>
        <time>2020-08-11T07:28:11Z</time>
      </trkpt>
      <trkpt lat="45.14623" lon="5.94269">
        <ele>2120.2</ele>
        <time>2020-08-11T07:28:12Z</time>
      </trkpt>
      <trkpt lat="45.14622" lon="5.94271">
        <ele>2119.8</ele>
        <time>2020-08-11T07:28:13Z</time>
      </trkpt>
      <trkpt lat="45.14621" lon="5.94273">
        <ele>2119.6</ele>
        <time>2020-08-11T07:28:14Z</time>
      </trkpt>
      <trkpt lat="45.1462" lon="5.94275">
        <ele>2119.2</ele>
        <time>2020-08-11T07:28:15Z</time>
      </trkpt>
      <trkpt lat="45.1462" lon="5.94277">
        <ele>2119.2</ele>
        <time>2020-08-11T07:28:16Z</time>
      </trkpt>
      <trkpt lat="45.14621" lon="5.94279">
        <ele>2119.6</ele>
        <time>2020-08-11T07:28:17Z</time>
      </trkpt>
      <trkpt lat="45.14621" lon="5.9428">
        <ele>2119.2</ele>
        <time>2020-08-11T07:28:18Z</time>
      </trkpt>
      <trkpt lat="45.14622" lon="5.94282">
        <ele>2119.2</ele>
        <time>2020-08-11T07:28:19Z</time>
      </trkpt>
      <trkpt lat="45.14622" lon="5.94284">
        <ele>2119</ele>
        <time>2020-08-11T07:28:20Z</time>
      </trkpt>
      <trkpt lat="45.14623" lon="5.94286">
        <ele>2119.4</ele>
        <time>2020-08-11T07:28:21Z</time>
      </trkpt>
      <trkpt lat="45.14623" lon="5.94287">
        <ele>2119.6</ele>
        <time>2020-08-11T07:28:22Z</time>
      </trkpt>
      <trkpt lat="45.14623" lon="5.94289">
        <ele>2119.6</ele>
        <time>2020-08-11T07:28:23Z</time>
      </trkpt>
      <trkpt lat="45.14622" lon="5.9429">
        <ele>2119.2</ele>
        <time>2020-08-11T07:28:24Z</time>
      </trkpt>
      <trkpt lat="45.14622" lon="5.94292">
        <ele>2119.6</ele>
        <time>2020-08-11T07:28:25Z</time>
      </trkpt>
      <trkpt lat="45.14622" lon="5.94293">
        <ele>2119.8</ele>
        <time>2020-08-11T07:28:26Z</time>
      </trkpt>
      <trkpt lat="45.14621" lon="5.94295">
        <ele>2119.8</ele>
        <time>2020-08-11T07:28:27Z</time>
      </trkpt>
      <trkpt lat="45.14621" lon="5.94296">
        <ele>2120.2</ele>
        <time>2020-08-11T07:28:28Z</time>
      </trkpt>
      <trkpt lat="45.1462" lon="5.94298">
        <ele>2120.6</ele>
        <time>2020-08-11T07:28:29Z</time>
      </trkpt>
      <trkpt lat="45.1462" lon="5.94299">
        <ele>2121</ele>
        <time>2020-08-11T07:28:30Z</time>
      </trkpt>
      <trkpt lat="45.1462" lon="5.943">
        <ele>2120.8</ele>
        <time>2020-08-11T07:28:31Z</time>
      </trkpt>
      <trkpt lat="45.14621" lon="5.94301">
        <ele>2121.2</ele>
        <time>2020-08-11T07:28:32Z</time>
      </trkpt>
      <trkpt lat="45.14621" lon="5.94301">
        <ele>2121.6</ele>
        <time>2020-08-11T07:28:33Z</time>
      </trkpt>
      <trkpt lat="45.14622" lon="5.94302">
        <ele>2121.8</ele>
        <time>2020-08-11T07:28:34Z</time>
      </trkpt>
      <trkpt lat="45.14622" lon="5.94303">
        <ele>2121.8</ele>
        <time>2020-08-11T07:28:35Z</time>
      </trkpt>
      <trkpt lat="45.14623" lon="5.94303">
        <ele>2122</ele>
        <time>2020-08-11T07:28:36Z</time>
      </trkpt>
      <trkpt lat="45.14623" lon="5.94304">
        <ele>2122.2</ele>
        <time>2020-08-11T07:28:37Z</time>
      </trkpt>
      <trkpt lat="45.14624" lon="5.94305">
        <ele>2122.4</ele>
        <time>2020-08-11T07:28:38Z</time>
      </trkpt>
      <trkpt lat="45.14624" lon="5.94305">
        <ele>2122.4</ele>
        <time>2020-08-11T07:28:39Z</time>
      </trkpt>
      <trkpt lat="45.14625" lon="5.94306">
        <ele>2122.8</ele>
        <time>2020-08-11T07:28:40Z</time>
      </trkpt>
      <trkpt lat="45.14625" lon="5.94307">
        <ele>2123</ele>
        <time>2020-08-11T07:28:41Z</time>
      </trkpt>
      <trkpt lat="45.14626" lon="5.94307">
        <ele>2123.2</ele>
        <time>2020-08-11T07:28:42Z</time>
      </trkpt>
      <trkpt lat="45.14626" lon="5.94308">
        <ele>2123.4</ele>
        <time>2020-08-11T07:28:43Z</time>
      </trkpt>
      <trkpt lat="45.14627" lon="5.94309">
        <ele>2123.6</ele>
        <time>2020-08-11T07:28:44Z</time>
      </trkpt>
      <trkpt lat="45.14627" lon="5.94311">
        <ele>2124</ele>
        <time>2020-08-11T07:28:45Z</time>
      </trkpt>
      <trkpt lat="45.14628" lon="5.94312">
        <ele>2124.2</ele>
        <time>2020-08-11T07:28:46Z</time>
      </trkpt>
      <trkpt lat="45.14628" lon="5.94314">
        <ele>2124.4</ele>
        <time>2020-08-11T07:28:47Z</time>
      </trkpt>
      <trkpt lat="45.14628" lon="5.94315">
        <ele>2124.6</ele>
        <time>2020-08-11T07:28:48Z</time>
      </trkpt>
      <trkpt lat="45.14629" lon="5.94316">
        <ele>2124.6</ele>
        <time>2020-08-11T07:28:49Z</time>
      </trkpt>
      <trkpt lat="45.14629" lon="5.94318">
        <ele>2124.8</ele>
        <time>2020-08-11T07:28:50Z</time>
      </trkpt>
      <trkpt lat="45.1463" lon="5.94319">
        <ele>2124.8</ele>
        <time>2020-08-11T07:28:51Z</time>
      </trkpt>
      <trkpt lat="45.1463" lon="5.94321">
        <ele>2125</ele>
        <time>2020-08-11T07:28:52Z</time>
      </trkpt>
      <trkpt lat="45.1463" lon="5.94323">
        <ele>2125.2</ele>
        <time>2020-08-11T07:28:53Z</time>
      </trkpt>
      <trkpt lat="45.1463" lon="5.94325">
        <ele>2125.4</ele>
        <time>2020-08-11T07:28:54Z</time>
      </trkpt>
      <trkpt lat="45.14631" lon="5.94327">
        <ele>2125.4</ele>
        <time>2020-08-11T07:28:55Z</time>
      </trkpt>
      <trkpt lat="45.14631" lon="5.94329">
        <ele>2125.4</ele>
        <time>2020-08-11T07:28:56Z</time>
      </trkpt>
      <trkpt lat="45.14631" lon="5.9433">
        <ele>2125.4</ele>
        <time>2020-08-11T07:28:57Z</time>
      </trkpt>
      <trkpt lat="45.14631" lon="5.94332">
        <ele>2125.6</ele>
        <time>2020-08-11T07:28:58Z</time>
      </trkpt>
      <trkpt lat="45.14631" lon="5.94334">
        <ele>2125.8</ele>
        <time>2020-08-11T07:28:59Z</time>
      </trkpt>
      <trkpt lat="45.14632" lon="5.94334">
        <ele>2126</ele>
        <time>2020-08-11T07:29:00Z</time>
      </trkpt>
      <trkpt lat="45.14633" lon="5.94334">
        <ele>2126.2</ele>
        <time>2020-08-11T07:29:01Z</time>
      </trkpt>
      <trkpt lat="45.14633" lon="5.94334">
        <ele>2126.4</ele>
        <time>2020-08-11T07:29:02Z</time>
      </trkpt>
      <trkpt lat="45.14634" lon="5.94334">
        <ele>2126.6</ele>
        <time>2020-08-11T07:29:03Z</time>
      </trkpt>
      <trkpt lat="45.14634" lon="5.94334">
        <ele>2126.4</ele>
        <time>2020-08-11T07:29:04Z</time>
      </trkpt>
      <trkpt lat="45.14635" lon="5.94334">
        <ele>2126.6</ele>
        <time>2020-08-11T07:29:05Z</time>
      </trkpt>
      <trkpt lat="45.14636" lon="5.94334">
        <ele>2126.8</ele>
        <time>2020-08-11T07:29:06Z</time>
      </trkpt>
      <trkpt lat="45.14636" lon="5.94334">
        <ele>2127</ele>
        <time>2020-08-11T07:29:07Z</time>
      </trkpt>
      <trkpt lat="45.14637" lon="5.94334">
        <ele>2127.2</ele>
        <time>2020-08-11T07:29:08Z</time>
      </trkpt>
      <trkpt lat="45.14637" lon="5.94334">
        <ele>2127.6</ele>
        <time>2020-08-11T07:29:09Z</time>
      </trkpt>
      <trkpt lat="45.14638" lon="5.94334">
        <ele>2128</ele>
        <time>2020-08-11T07:29:10Z</time>
      </trkpt>
      <trkpt lat="45.14639" lon="5.94334">
        <ele>2128.2</ele>
        <time>2020-08-11T07:29:11Z</time>
      </trkpt>
      <trkpt lat="45.14639" lon="5.94334">
        <ele>2128.2</ele>
        <time>2020-08-11T07:29:12Z</time>
      </trkpt>
      <trkpt lat="45.1464" lon="5.94334">
        <ele>2128.6</ele>
        <time>2020-08-11T07:29:13Z</time>
      </trkpt>
      <trkpt lat="45.1464" lon="5.94334">
        <ele>2129</ele>
        <time>2020-08-11T07:29:14Z</time>
      </trkpt>
      <trkpt lat="45.14641" lon="5.94335">
        <ele>2129</ele>
        <time>2020-08-11T07:29:15Z</time>
      </trkpt>
      <trkpt lat="45.14642" lon="5.94336">
        <ele>2129.4</ele>
        <time>2020-08-11T07:29:16Z</time>
      </trkpt>
      <trkpt lat="45.14642" lon="5.94336">
        <ele>2129.8</ele>
        <time>2020-08-11T07:29:17Z</time>
      </trkpt>
      <trkpt lat="45.14643" lon="5.94337">
        <ele>2130</ele>
        <time>2020-08-11T07:29:18Z</time>
      </trkpt>
      <trkpt lat="45.14643" lon="5.94338">
        <ele>2130.2</ele>
        <time>2020-08-11T07:29:19Z</time>
      </trkpt>
      <trkpt lat="45.14644" lon="5.94339">
        <ele>2130.6</ele>
        <time>2020-08-11T07:29:20Z</time>
      </trkpt>
      <trkpt lat="45.14644" lon="5.9434">
        <ele>2130.6</ele>
        <time>2020-08-11T07:29:21Z</time>
      </trkpt>
      <trkpt lat="45.14645" lon="5.94341">
        <ele>2131</ele>
        <time>2020-08-11T07:29:22Z</time>
      </trkpt>
      <trkpt lat="45.14646" lon="5.94342">
        <ele>2131.4</ele>
        <time>2020-08-11T07:29:23Z</time>
      </trkpt>
      <trkpt lat="45.14646" lon="5.94342">
        <ele>2131.6</ele>
        <time>2020-08-11T07:29:24Z</time>
      </trkpt>
      <trkpt lat="45.14647" lon="5.94343">
        <ele>2131.6</ele>
        <time>2020-08-11T07:29:25Z</time>
      </trkpt>
      <trkpt lat="45.14648" lon="5.94346">
        <ele>2132</ele>
        <time>2020-08-11T07:29:26Z</time>
      </trkpt>
      <trkpt lat="45.14649" lon="5.94349">
        <ele>2132</ele>
        <time>2020-08-11T07:29:27Z</time>
      </trkpt>
      <trkpt lat="45.14651" lon="5.94351">
        <ele>2132.4</ele>
        <time>2020-08-11T07:29:28Z</time>
      </trkpt>
      <trkpt lat="45.14652" lon="5.94354">
        <ele>2132.8</ele>
        <time>2020-08-11T07:29:29Z</time>
      </trkpt>
      <trkpt lat="45.14652" lon="5.94357">
        <ele>2132.8</ele>
        <time>2020-08-11T07:29:30Z</time>
      </trkpt>
      <trkpt lat="45.14652" lon="5.94359">
        <ele>2133.2</ele>
        <time>2020-08-11T07:29:31Z</time>
      </trkpt>
      <trkpt lat="45.14652" lon="5.94362">
        <ele>2133.6</ele>
        <time>2020-08-11T07:29:32Z</time>
      </trkpt>
      <trkpt lat="45.14652" lon="5.94364">
        <ele>2133.6</ele>
        <time>2020-08-11T07:29:33Z</time>
      </trkpt>
      <trkpt lat="45.14652" lon="5.94367">
        <ele>2133.8</ele>
        <time>2020-08-11T07:29:34Z</time>
      </trkpt>
      <trkpt lat="45.14652" lon="5.94369">
        <ele>2134</ele>
        <time>2020-08-11T07:29:35Z</time>
      </trkpt>
      <trkpt lat="45.14652" lon="5.9437">
        <ele>2134.2</ele>
        <time>2020-08-11T07:29:36Z</time>
      </trkpt>
      <trkpt lat="45.14652" lon="5.94371">
        <ele>2134.4</ele>
        <time>2020-08-11T07:29:37Z</time>
      </trkpt>
      <trkpt lat="45.14652" lon="5.94372">
        <ele>2134.8</ele>
        <time>2020-08-11T07:29:38Z</time>
      </trkpt>
      <trkpt lat="45.14653" lon="5.94373">
        <ele>2135.2</ele>
        <time>2020-08-11T07:29:39Z</time>
      </trkpt>
      <trkpt lat="45.14653" lon="5.94374">
        <ele>2135.2</ele>
        <time>2020-08-11T07:29:40Z</time>
      </trkpt>
      <trkpt lat="45.14653" lon="5.94375">
        <ele>2135.4</ele>
        <time>2020-08-11T07:29:41Z</time>
      </trkpt>
      <trkpt lat="45.14653" lon="5.94376">
        <ele>2135.6</ele>
        <time>2020-08-11T07:29:42Z</time>
      </trkpt>
      <trkpt lat="45.14654" lon="5.94377">
        <ele>2135.8</ele>
        <time>2020-08-11T07:29:43Z</time>
      </trkpt>
      <trkpt lat="45.14654" lon="5.94378">
        <ele>2136.2</ele>
        <time>2020-08-11T07:29:44Z</time>
      </trkpt>
      <trkpt lat="45.14654" lon="5.94379">
        <ele>2136.4</ele>
        <time>2020-08-11T07:29:45Z</time>
      </trkpt>
      <trkpt lat="45.14654" lon="5.9438">
        <ele>2136.8</ele>
        <time>2020-08-11T07:29:46Z</time>
      </trkpt>
      <trkpt lat="45.14654" lon="5.94381">
        <ele>2137</ele>
        <time>2020-08-11T07:29:47Z</time>
      </trkpt>
      <trkpt lat="45.14655" lon="5.94382">
        <ele>2137.4</ele>
        <time>2020-08-11T07:29:48Z</time>
      </trkpt>
      <trkpt lat="45.14655" lon="5.94384">
        <ele>2137.6</ele>
        <time>2020-08-11T07:29:49Z</time>
      </trkpt>
      <trkpt lat="45.14655" lon="5.94387">
        <ele>2138</ele>
        <time>2020-08-11T07:29:50Z</time>
      </trkpt>
      <trkpt lat="45.14655" lon="5.94389">
        <ele>2138.2</ele>
        <time>2020-08-11T07:29:51Z</time>
      </trkpt>
      <trkpt lat="45.14655" lon="5.94391">
        <ele>2138.2</ele>
        <time>2020-08-11T07:29:52Z</time>
      </trkpt>
      <trkpt lat="45.14655" lon="5.94393">
        <ele>2138.6</ele>
        <time>2020-08-11T07:29:53Z</time>
      </trkpt>
      <trkpt lat="45.14655" lon="5.94395">
        <ele>2139</ele>
        <time>2020-08-11T07:29:54Z</time>
      </trkpt>
      <trkpt lat="45.14656" lon="5.94397">
        <ele>2139</ele>
        <time>2020-08-11T07:29:55Z</time>
      </trkpt>
      <trkpt lat="45.14656" lon="5.94399">
        <ele>2139.2</ele>
        <time>2020-08-11T07:29:56Z</time>
      </trkpt>
      <trkpt lat="45.14656" lon="5.944">
        <ele>2139.4</ele>
        <time>2020-08-11T07:29:57Z</time>
      </trkpt>
      <trkpt lat="45.14656" lon="5.94402">
        <ele>2139.4</ele>
        <time>2020-08-11T07:29:58Z</time>
      </trkpt>
      <trkpt lat="45.14656" lon="5.94403">
        <ele>2139.6</ele>
        <time>2020-08-11T07:29:59Z</time>
      </trkpt>
      <trkpt lat="45.14656" lon="5.94404">
        <ele>2140</ele>
        <time>2020-08-11T07:30:01Z</time>
      </trkpt>
      <trkpt lat="45.14656" lon="5.94406">
        <ele>2140.2</ele>
        <time>2020-08-11T07:30:02Z</time>
      </trkpt>
      <trkpt lat="45.14656" lon="5.94407">
        <ele>2140.4</ele>
        <time>2020-08-11T07:30:03Z</time>
      </trkpt>
      <trkpt lat="45.14656" lon="5.94409">
        <ele>2140.6</ele>
        <time>2020-08-11T07:30:04Z</time>
      </trkpt>
      <trkpt lat="45.14656" lon="5.9441">
        <ele>2140.8</ele>
        <time>2020-08-11T07:30:05Z</time>
      </trkpt>
      <trkpt lat="45.14656" lon="5.94411">
        <ele>2140.8</ele>
        <time>2020-08-11T07:30:06Z</time>
      </trkpt>
      <trkpt lat="45.14656" lon="5.94412">
        <ele>2141</ele>
        <time>2020-08-11T07:30:07Z</time>
      </trkpt>
      <trkpt lat="45.14656" lon="5.94412">
        <ele>2141</ele>
        <time>2020-08-11T07:30:08Z</time>
      </trkpt>
      <trkpt lat="45.14656" lon="5.94413">
        <ele>2141.2</ele>
        <time>2020-08-11T07:30:09Z</time>
      </trkpt>
      <trkpt lat="45.14656" lon="5.94414">
        <ele>2141.6</ele>
        <time>2020-08-11T07:30:10Z</time>
      </trkpt>
      <trkpt lat="45.14656" lon="5.94414">
        <ele>2141.8</ele>
        <time>2020-08-11T07:30:11Z</time>
      </trkpt>
      <trkpt lat="45.14656" lon="5.94415">
        <ele>2142</ele>
        <time>2020-08-11T07:30:12Z</time>
      </trkpt>
      <trkpt lat="45.14656" lon="5.94416">
        <ele>2142.2</ele>
        <time>2020-08-11T07:30:13Z</time>
      </trkpt>
      <trkpt lat="45.14656" lon="5.94416">
        <ele>2142.6</ele>
        <time>2020-08-11T07:30:14Z</time>
      </trkpt>
      <trkpt lat="45.14656" lon="5.94417">
        <ele>2142.6</ele>
        <time>2020-08-11T07:30:15Z</time>
      </trkpt>
      <trkpt lat="45.14655" lon="5.94418">
        <ele>2143</ele>
        <time>2020-08-11T07:30:16Z</time>
      </trkpt>
      <trkpt lat="45.14655" lon="5.94418">
        <ele>2143.2</ele>
        <time>2020-08-11T07:30:17Z</time>
      </trkpt>
      <trkpt lat="45.14655" lon="5.94419">
        <ele>2143.4</ele>
        <time>2020-08-11T07:30:18Z</time>
      </trkpt>
      <trkpt lat="45.14655" lon="5.9442">
        <ele>2143.6</ele>
        <time>2020-08-11T07:30:19Z</time>
      </trkpt>
      <trkpt lat="45.14655" lon="5.9442">
        <ele>2143.8</ele>
        <time>2020-08-11T07:30:20Z</time>
      </trkpt>
      <trkpt lat="45.14655" lon="5.94421">
        <ele>2144</ele>
        <time>2020-08-11T07:30:21Z</time>
      </trkpt>
      <trkpt lat="45.14655" lon="5.94422">
        <ele>2144.2</ele>
        <time>2020-08-11T07:30:22Z</time>
      </trkpt>
      <trkpt lat="45.14655" lon="5.94422">
        <ele>2144.6</ele>
        <time>2020-08-11T07:30:23Z</time>
      </trkpt>
      <trkpt lat="45.14655" lon="5.94423">
        <ele>2144.8</ele>
        <time>2020-08-11T07:30:24Z</time>
      </trkpt>
      <trkpt lat="45.14654" lon="5.94424">
        <ele>2145.2</ele>
        <time>2020-08-11T07:30:25Z</time>
      </trkpt>
      <trkpt lat="45.14654" lon="5.94426">
        <ele>2145.4</ele>
        <time>2020-08-11T07:30:26Z</time>
      </trkpt>
      <trkpt lat="45.14653" lon="5.94427">
        <ele>2146</ele>
        <time>2020-08-11T07:30:27Z</time>
      </trkpt>
      <trkpt lat="45.14653" lon="5.94428">
        <ele>2146</ele>
        <time>2020-08-11T07:30:28Z</time>
      </trkpt>
      <trkpt lat="45.14652" lon="5.94429">
        <ele>2146.4</ele>
        <time>2020-08-11T07:30:29Z</time>
      </trkpt>
      <trkpt lat="45.14652" lon="5.9443">
        <ele>2146.6</ele>
        <time>2020-08-11T07:30:30Z</time>
      </trkpt>
      <trkpt lat="45.14652" lon="5.94432">
        <ele>2146.8</ele>
        <time>2020-08-11T07:30:31Z</time>
      </trkpt>
      <trkpt lat="45.14651" lon="5.94433">
        <ele>2147.2</ele>
        <time>2020-08-11T07:30:32Z</time>
      </trkpt>
      <trkpt lat="45.14651" lon="5.94434">
        <ele>2147.2</ele>
        <time>2020-08-11T07:30:33Z</time>
      </trkpt>
      <trkpt lat="45.1465" lon="5.94435">
        <ele>2147.6</ele>
        <time>2020-08-11T07:30:34Z</time>
      </trkpt>
      <trkpt lat="45.1465" lon="5.94436">
        <ele>2147.8</ele>
        <time>2020-08-11T07:30:35Z</time>
      </trkpt>
      <trkpt lat="45.14651" lon="5.94437">
        <ele>2148.2</ele>
        <time>2020-08-11T07:30:36Z</time>
      </trkpt>
      <trkpt lat="45.14651" lon="5.94438">
        <ele>2148.4</ele>
        <time>2020-08-11T07:30:37Z</time>
      </trkpt>
      <trkpt lat="45.14651" lon="5.94439">
        <ele>2148.4</ele>
        <time>2020-08-11T07:30:38Z</time>
      </trkpt>
      <trkpt lat="45.14652" lon="5.9444">
        <ele>2149</ele>
        <time>2020-08-11T07:30:40Z</time>
      </trkpt>
      <trkpt lat="45.14652" lon="5.94441">
        <ele>2149.4</ele>
        <time>2020-08-11T07:30:41Z</time>
      </trkpt>
      <trkpt lat="45.14652" lon="5.94442">
        <ele>2149.8</ele>
        <time>2020-08-11T07:30:42Z</time>
      </trkpt>
      <trkpt lat="45.14652" lon="5.94443">
        <ele>2150</ele>
        <time>2020-08-11T07:30:43Z</time>
      </trkpt>
      <trkpt lat="45.14653" lon="5.94444">
        <ele>2150.2</ele>
        <time>2020-08-11T07:30:44Z</time>
      </trkpt>
      <trkpt lat="45.14653" lon="5.94445">
        <ele>2150.4</ele>
        <time>2020-08-11T07:30:45Z</time>
      </trkpt>
      <trkpt lat="45.14653" lon="5.94446">
        <ele>2150.8</ele>
        <time>2020-08-11T07:30:46Z</time>
      </trkpt>
      <trkpt lat="45.14654" lon="5.94447">
        <ele>2151.2</ele>
        <time>2020-08-11T07:30:47Z</time>
      </trkpt>
      <trkpt lat="45.14654" lon="5.94448">
        <ele>2151.2</ele>
        <time>2020-08-11T07:30:48Z</time>
      </trkpt>
      <trkpt lat="45.14654" lon="5.94449">
        <ele>2151.6</ele>
        <time>2020-08-11T07:30:49Z</time>
      </trkpt>
      <trkpt lat="45.14654" lon="5.94449">
        <ele>2152.2</ele>
        <time>2020-08-11T07:30:50Z</time>
      </trkpt>
      <trkpt lat="45.14655" lon="5.9445">
        <ele>2152.4</ele>
        <time>2020-08-11T07:30:51Z</time>
      </trkpt>
      <trkpt lat="45.14655" lon="5.94451">
        <ele>2152.4</ele>
        <time>2020-08-11T07:30:52Z</time>
      </trkpt>
      <trkpt lat="45.14655" lon="5.94451">
        <ele>2152.6</ele>
        <time>2020-08-11T07:30:53Z</time>
      </trkpt>
      <trkpt lat="45.14655" lon="5.94452">
        <ele>2152.8</ele>
        <time>2020-08-11T07:30:54Z</time>
      </trkpt>
      <trkpt lat="45.14656" lon="5.94453">
        <ele>2153</ele>
        <time>2020-08-11T07:30:55Z</time>
      </trkpt>
      <trkpt lat="45.14656" lon="5.94453">
        <ele>2153</ele>
        <time>2020-08-11T07:30:56Z</time>
      </trkpt>
      <trkpt lat="45.14656" lon="5.94454">
        <ele>2153.2</ele>
        <time>2020-08-11T07:30:57Z</time>
      </trkpt>
      <trkpt lat="45.14656" lon="5.94455">
        <ele>2153.6</ele>
        <time>2020-08-11T07:30:58Z</time>
      </trkpt>
      <trkpt lat="45.14656" lon="5.94455">
        <ele>2154</ele>
        <time>2020-08-11T07:30:59Z</time>
      </trkpt>
      <trkpt lat="45.14657" lon="5.94456">
        <ele>2154.4</ele>
        <time>2020-08-11T07:31:00Z</time>
      </trkpt>
      <trkpt lat="45.14657" lon="5.94457">
        <ele>2154.6</ele>
        <time>2020-08-11T07:31:01Z</time>
      </trkpt>
      <trkpt lat="45.14657" lon="5.94457">
        <ele>2154.8</ele>
        <time>2020-08-11T07:31:02Z</time>
      </trkpt>
      <trkpt lat="45.14657" lon="5.94458">
        <ele>2155</ele>
        <time>2020-08-11T07:31:03Z</time>
      </trkpt>
      <trkpt lat="45.14658" lon="5.94459">
        <ele>2155.2</ele>
        <time>2020-08-11T07:31:04Z</time>
      </trkpt>
      <trkpt lat="45.14658" lon="5.94459">
        <ele>2155.8</ele>
        <time>2020-08-11T07:31:05Z</time>
      </trkpt>
      <trkpt lat="45.14658" lon="5.9446">
        <ele>2155.8</ele>
        <time>2020-08-11T07:31:06Z</time>
      </trkpt>
      <trkpt lat="45.14658" lon="5.9446">
        <ele>2156.2</ele>
        <time>2020-08-11T07:31:07Z</time>
      </trkpt>
      <trkpt lat="45.14659" lon="5.94462">
        <ele>2156.4</ele>
        <time>2020-08-11T07:31:08Z</time>
      </trkpt>
      <trkpt lat="45.1466" lon="5.94464">
        <ele>2157</ele>
        <time>2020-08-11T07:31:09Z</time>
      </trkpt>
      <trkpt lat="45.1466" lon="5.94466">
        <ele>2156.8</ele>
        <time>2020-08-11T07:31:10Z</time>
      </trkpt>
      <trkpt lat="45.14661" lon="5.94467">
        <ele>2157.2</ele>
        <time>2020-08-11T07:31:11Z</time>
      </trkpt>
      <trkpt lat="45.14662" lon="5.94469">
        <ele>2157.4</ele>
        <time>2020-08-11T07:31:12Z</time>
      </trkpt>
      <trkpt lat="45.14662" lon="5.94471">
        <ele>2157.8</ele>
        <time>2020-08-11T07:31:13Z</time>
      </trkpt>
      <trkpt lat="45.14663" lon="5.94473">
        <ele>2158</ele>
        <time>2020-08-11T07:31:14Z</time>
      </trkpt>
      <trkpt lat="45.14663" lon="5.94474">
        <ele>2158.2</ele>
        <time>2020-08-11T07:31:15Z</time>
      </trkpt>
      <trkpt lat="45.14663" lon="5.94475">
        <ele>2158.2</ele>
        <time>2020-08-11T07:31:16Z</time>
      </trkpt>
      <trkpt lat="45.14664" lon="5.94476">
        <ele>2158.4</ele>
        <time>2020-08-11T07:31:17Z</time>
      </trkpt>
      <trkpt lat="45.14664" lon="5.94477">
        <ele>2158.8</ele>
        <time>2020-08-11T07:31:18Z</time>
      </trkpt>
      <trkpt lat="45.14664" lon="5.94478">
        <ele>2159.2</ele>
        <time>2020-08-11T07:31:19Z</time>
      </trkpt>
      <trkpt lat="45.14664" lon="5.94479">
        <ele>2159.6</ele>
        <time>2020-08-11T07:31:20Z</time>
      </trkpt>
      <trkpt lat="45.14664" lon="5.9448">
        <ele>2159.8</ele>
        <time>2020-08-11T07:31:21Z</time>
      </trkpt>
      <trkpt lat="45.14664" lon="5.94481">
        <ele>2160</ele>
        <time>2020-08-11T07:31:22Z</time>
      </trkpt>
      <trkpt lat="45.14665" lon="5.94482">
        <ele>2160.4</ele>
        <time>2020-08-11T07:31:23Z</time>
      </trkpt>
      <trkpt lat="45.14665" lon="5.94483">
        <ele>2160.6</ele>
        <time>2020-08-11T07:31:24Z</time>
      </trkpt>
      <trkpt lat="45.14665" lon="5.94484">
        <ele>2160.8</ele>
        <time>2020-08-11T07:31:25Z</time>
      </trkpt>
      <trkpt lat="45.14665" lon="5.94485">
        <ele>2161</ele>
        <time>2020-08-11T07:31:26Z</time>
      </trkpt>
      <trkpt lat="45.14665" lon="5.94485">
        <ele>2161.2</ele>
        <time>2020-08-11T07:31:27Z</time>
      </trkpt>
      <trkpt lat="45.14665" lon="5.94486">
        <ele>2161.2</ele>
        <time>2020-08-11T07:31:28Z</time>
      </trkpt>
      <trkpt lat="45.14664" lon="5.94486">
        <ele>2161.4</ele>
        <time>2020-08-11T07:31:29Z</time>
      </trkpt>
      <trkpt lat="45.14664" lon="5.94486">
        <ele>2161.6</ele>
        <time>2020-08-11T07:31:30Z</time>
      </trkpt>
      <trkpt lat="45.14664" lon="5.94487">
        <ele>2161.8</ele>
        <time>2020-08-11T07:31:31Z</time>
      </trkpt>
      <trkpt lat="45.14663" lon="5.94487">
        <ele>2162</ele>
        <time>2020-08-11T07:31:32Z</time>
      </trkpt>
      <trkpt lat="45.14663" lon="5.94488">
        <ele>2162.2</ele>
        <time>2020-08-11T07:31:33Z</time>
      </trkpt>
      <trkpt lat="45.14663" lon="5.94488">
        <ele>2162.2</ele>
        <time>2020-08-11T07:31:34Z</time>
      </trkpt>
      <trkpt lat="45.14662" lon="5.94488">
        <ele>2162.2</ele>
        <time>2020-08-11T07:31:35Z</time>
      </trkpt>
      <trkpt lat="45.14662" lon="5.94489">
        <ele>2162.6</ele>
        <time>2020-08-11T07:31:36Z</time>
      </trkpt>
      <trkpt lat="45.14662" lon="5.94489">
        <ele>2163</ele>
        <time>2020-08-11T07:31:37Z</time>
      </trkpt>
      <trkpt lat="45.14661" lon="5.94489">
        <ele>2163.2</ele>
        <time>2020-08-11T07:31:38Z</time>
      </trkpt>
      <trkpt lat="45.14661" lon="5.9449">
        <ele>2163.2</ele>
        <time>2020-08-11T07:31:39Z</time>
      </trkpt>
      <trkpt lat="45.14661" lon="5.9449">
        <ele>2163.4</ele>
        <time>2020-08-11T07:31:40Z</time>
      </trkpt>
      <trkpt lat="45.1466" lon="5.9449">
        <ele>2163.6</ele>
        <time>2020-08-11T07:31:41Z</time>
      </trkpt>
      <trkpt lat="45.1466" lon="5.94491">
        <ele>2163.8</ele>
        <time>2020-08-11T07:31:42Z</time>
      </trkpt>
      <trkpt lat="45.1466" lon="5.94491">
        <ele>2164.2</ele>
        <time>2020-08-11T07:31:43Z</time>
      </trkpt>
      <trkpt lat="45.14659" lon="5.94491">
        <ele>2164.6</ele>
        <time>2020-08-11T07:31:44Z</time>
      </trkpt>
      <trkpt lat="45.14659" lon="5.94492">
        <ele>2164.8</ele>
        <time>2020-08-11T07:31:45Z</time>
      </trkpt>
      <trkpt lat="45.14659" lon="5.94492">
        <ele>2165.2</ele>
        <time>2020-08-11T07:31:46Z</time>
      </trkpt>
      <trkpt lat="45.14658" lon="5.94493">
        <ele>2165.4</ele>
        <time>2020-08-11T07:31:47Z</time>
      </trkpt>
      <trkpt lat="45.14658" lon="5.94493">
        <ele>2165.6</ele>
        <time>2020-08-11T07:31:48Z</time>
      </trkpt>
      <trkpt lat="45.14658" lon="5.94493">
        <ele>2166</ele>
        <time>2020-08-11T07:31:49Z</time>
      </trkpt>
      <trkpt lat="45.14658" lon="5.94494">
        <ele>2166</ele>
        <time>2020-08-11T07:31:50Z</time>
      </trkpt>
      <trkpt lat="45.14658" lon="5.94495">
        <ele>2166.4</ele>
        <time>2020-08-11T07:31:51Z</time>
      </trkpt>
      <trkpt lat="45.14657" lon="5.94496">
        <ele>2166.6</ele>
        <time>2020-08-11T07:31:52Z</time>
      </trkpt>
      <trkpt lat="45.14657" lon="5.94497">
        <ele>2166.8</ele>
        <time>2020-08-11T07:31:53Z</time>
      </trkpt>
      <trkpt lat="45.14657" lon="5.94497">
        <ele>2167</ele>
        <time>2020-08-11T07:31:54Z</time>
      </trkpt>
      <trkpt lat="45.14657" lon="5.94498">
        <ele>2167.4</ele>
        <time>2020-08-11T07:31:55Z</time>
      </trkpt>
      <trkpt lat="45.14657" lon="5.94499">
        <ele>2167.6</ele>
        <time>2020-08-11T07:31:56Z</time>
      </trkpt>
      <trkpt lat="45.14657" lon="5.945">
        <ele>2168</ele>
        <time>2020-08-11T07:31:57Z</time>
      </trkpt>
      <trkpt lat="45.14657" lon="5.94501">
        <ele>2168.2</ele>
        <time>2020-08-11T07:31:58Z</time>
      </trkpt>
      <trkpt lat="45.14657" lon="5.94501">
        <ele>2168.8</ele>
        <time>2020-08-11T07:31:59Z</time>
      </trkpt>
      <trkpt lat="45.14657" lon="5.94502">
        <ele>2168.8</ele>
        <time>2020-08-11T07:32:00Z</time>
      </trkpt>
      <trkpt lat="45.14656" lon="5.94503">
        <ele>2169</ele>
        <time>2020-08-11T07:32:01Z</time>
      </trkpt>
      <trkpt lat="45.14656" lon="5.94504">
        <ele>2169</ele>
        <time>2020-08-11T07:32:02Z</time>
      </trkpt>
      <trkpt lat="45.14656" lon="5.94505">
        <ele>2169.4</ele>
        <time>2020-08-11T07:32:03Z</time>
      </trkpt>
      <trkpt lat="45.14656" lon="5.94506">
        <ele>2169.8</ele>
        <time>2020-08-11T07:32:04Z</time>
      </trkpt>
      <trkpt lat="45.14656" lon="5.94506">
        <ele>2170.2</ele>
        <time>2020-08-11T07:32:05Z</time>
      </trkpt>
      <trkpt lat="45.14656" lon="5.94507">
        <ele>2170.4</ele>
        <time>2020-08-11T07:32:06Z</time>
      </trkpt>
      <trkpt lat="45.14655" lon="5.94508">
        <ele>2170.6</ele>
        <time>2020-08-11T07:32:07Z</time>
      </trkpt>
      <trkpt lat="45.14655" lon="5.94509">
        <ele>2170.8</ele>
        <time>2020-08-11T07:32:08Z</time>
      </trkpt>
      <trkpt lat="45.14655" lon="5.9451">
        <ele>2171.4</ele>
        <time>2020-08-11T07:32:09Z</time>
      </trkpt>
      <trkpt lat="45.14654" lon="5.94511">
        <ele>2171.4</ele>
        <time>2020-08-11T07:32:10Z</time>
      </trkpt>
      <trkpt lat="45.14654" lon="5.94512">
        <ele>2171.6</ele>
        <time>2020-08-11T07:32:11Z</time>
      </trkpt>
      <trkpt lat="45.14654" lon="5.94513">
        <ele>2171.8</ele>
        <time>2020-08-11T07:32:12Z</time>
      </trkpt>
      <trkpt lat="45.14653" lon="5.94514">
        <ele>2172</ele>
        <time>2020-08-11T07:32:13Z</time>
      </trkpt>
      <trkpt lat="45.14653" lon="5.94515">
        <ele>2172</ele>
        <time>2020-08-11T07:32:14Z</time>
      </trkpt>
      <trkpt lat="45.14653" lon="5.94516">
        <ele>2172.4</ele>
        <time>2020-08-11T07:32:15Z</time>
      </trkpt>
      <trkpt lat="45.14653" lon="5.94517">
        <ele>2172.4</ele>
        <time>2020-08-11T07:32:16Z</time>
      </trkpt>
      <trkpt lat="45.14652" lon="5.94518">
        <ele>2172.8</ele>
        <time>2020-08-11T07:32:17Z</time>
      </trkpt>
      <trkpt lat="45.14652" lon="5.94519">
        <ele>2173</ele>
        <time>2020-08-11T07:32:18Z</time>
      </trkpt>
      <trkpt lat="45.14652" lon="5.9452">
        <ele>2173.4</ele>
        <time>2020-08-11T07:32:19Z</time>
      </trkpt>
      <trkpt lat="45.14652" lon="5.9452">
        <ele>2173.4</ele>
        <time>2020-08-11T07:32:20Z</time>
      </trkpt>
      <trkpt lat="45.14652" lon="5.94521">
        <ele>2173.6</ele>
        <time>2020-08-11T07:32:21Z</time>
      </trkpt>
      <trkpt lat="45.14651" lon="5.94522">
        <ele>2174</ele>
        <time>2020-08-11T07:32:22Z</time>
      </trkpt>
      <trkpt lat="45.14651" lon="5.94522">
        <ele>2174.4</ele>
        <time>2020-08-11T07:32:23Z</time>
      </trkpt>
      <trkpt lat="45.14651" lon="5.94523">
        <ele>2174.6</ele>
        <time>2020-08-11T07:32:24Z</time>
      </trkpt>
      <trkpt lat="45.14651" lon="5.94524">
        <ele>2175</ele>
        <time>2020-08-11T07:32:25Z</time>
      </trkpt>
      <trkpt lat="45.14651" lon="5.94524">
        <ele>2175</ele>
        <time>2020-08-11T07:32:26Z</time>
      </trkpt>
      <trkpt lat="45.1465" lon="5.94525">
        <ele>2175</ele>
        <time>2020-08-11T07:32:27Z</time>
      </trkpt>
      <trkpt lat="45.1465" lon="5.94525">
        <ele>2175.4</ele>
        <time>2020-08-11T07:32:28Z</time>
      </trkpt>
      <trkpt lat="45.1465" lon="5.94526">
        <ele>2175.6</ele>
        <time>2020-08-11T07:32:29Z</time>
      </trkpt>
      <trkpt lat="45.1465" lon="5.94527">
        <ele>2175.8</ele>
        <time>2020-08-11T07:32:30Z</time>
      </trkpt>
      <trkpt lat="45.1465" lon="5.94527">
        <ele>2175.8</ele>
        <time>2020-08-11T07:32:31Z</time>
      </trkpt>
      <trkpt lat="45.14649" lon="5.94528">
        <ele>2176</ele>
        <time>2020-08-11T07:32:32Z</time>
      </trkpt>
      <trkpt lat="45.14649" lon="5.94529">
        <ele>2176.4</ele>
        <time>2020-08-11T07:32:33Z</time>
      </trkpt>
      <trkpt lat="45.14649" lon="5.94529">
        <ele>2176.6</ele>
        <time>2020-08-11T07:32:34Z</time>
      </trkpt>
      <trkpt lat="45.14649" lon="5.9453">
        <ele>2176.8</ele>
        <time>2020-08-11T07:32:35Z</time>
      </trkpt>
      <trkpt lat="45.14649" lon="5.94531">
        <ele>2177</ele>
        <time>2020-08-11T07:32:36Z</time>
      </trkpt>
      <trkpt lat="45.14649" lon="5.94531">
        <ele>2177.2</ele>
        <time>2020-08-11T07:32:37Z</time>
      </trkpt>
      <trkpt lat="45.14649" lon="5.94532">
        <ele>2177.2</ele>
        <time>2020-08-11T07:32:38Z</time>
      </trkpt>
      <trkpt lat="45.14649" lon="5.94533">
        <ele>2177.6</ele>
        <time>2020-08-11T07:32:39Z</time>
      </trkpt>
      <trkpt lat="45.14649" lon="5.94534">
        <ele>2177.8</ele>
        <time>2020-08-11T07:32:40Z</time>
      </trkpt>
      <trkpt lat="45.14649" lon="5.94534">
        <ele>2178.2</ele>
        <time>2020-08-11T07:32:41Z</time>
      </trkpt>
      <trkpt lat="45.14649" lon="5.94535">
        <ele>2178.4</ele>
        <time>2020-08-11T07:32:42Z</time>
      </trkpt>
      <trkpt lat="45.14649" lon="5.94536">
        <ele>2178.4</ele>
        <time>2020-08-11T07:32:43Z</time>
      </trkpt>
      <trkpt lat="45.14649" lon="5.94537">
        <ele>2178.8</ele>
        <time>2020-08-11T07:32:44Z</time>
      </trkpt>
      <trkpt lat="45.14649" lon="5.94538">
        <ele>2179.2</ele>
        <time>2020-08-11T07:32:45Z</time>
      </trkpt>
      <trkpt lat="45.14649" lon="5.94539">
        <ele>2179.2</ele>
        <time>2020-08-11T07:32:46Z</time>
      </trkpt>
      <trkpt lat="45.14649" lon="5.94539">
        <ele>2179.6</ele>
        <time>2020-08-11T07:32:47Z</time>
      </trkpt>
      <trkpt lat="45.14649" lon="5.9454">
        <ele>2179.8</ele>
        <time>2020-08-11T07:32:48Z</time>
      </trkpt>
      <trkpt lat="45.1465" lon="5.94541">
        <ele>2180</ele>
        <time>2020-08-11T07:32:49Z</time>
      </trkpt>
      <trkpt lat="45.1465" lon="5.94542">
        <ele>2180.2</ele>
        <time>2020-08-11T07:32:50Z</time>
      </trkpt>
      <trkpt lat="45.1465" lon="5.94543">
        <ele>2180.6</ele>
        <time>2020-08-11T07:32:51Z</time>
      </trkpt>
      <trkpt lat="45.1465" lon="5.94543">
        <ele>2180.6</ele>
        <time>2020-08-11T07:32:52Z</time>
      </trkpt>
      <trkpt lat="45.1465" lon="5.94544">
        <ele>2181</ele>
        <time>2020-08-11T07:32:53Z</time>
      </trkpt>
      <trkpt lat="45.1465" lon="5.94545">
        <ele>2181.2</ele>
        <time>2020-08-11T07:32:54Z</time>
      </trkpt>
      <trkpt lat="45.1465" lon="5.94546">
        <ele>2181.2</ele>
        <time>2020-08-11T07:32:55Z</time>
      </trkpt>
      <trkpt lat="45.1465" lon="5.94546">
        <ele>2181.8</ele>
        <time>2020-08-11T07:32:56Z</time>
      </trkpt>
      <trkpt lat="45.1465" lon="5.94547">
        <ele>2182</ele>
        <time>2020-08-11T07:32:57Z</time>
      </trkpt>
      <trkpt lat="45.1465" lon="5.94548">
        <ele>2182</ele>
        <time>2020-08-11T07:32:58Z</time>
      </trkpt>
      <trkpt lat="45.14651" lon="5.94548">
        <ele>2182.2</ele>
        <time>2020-08-11T07:32:59Z</time>
      </trkpt>
      <trkpt lat="45.14651" lon="5.94549">
        <ele>2182.6</ele>
        <time>2020-08-11T07:33:00Z</time>
      </trkpt>
      <trkpt lat="45.14651" lon="5.9455">
        <ele>2182.6</ele>
        <time>2020-08-11T07:33:01Z</time>
      </trkpt>
      <trkpt lat="45.14651" lon="5.94551">
        <ele>2182.8</ele>
        <time>2020-08-11T07:33:02Z</time>
      </trkpt>
      <trkpt lat="45.14651" lon="5.94551">
        <ele>2183.2</ele>
        <time>2020-08-11T07:33:03Z</time>
      </trkpt>
      <trkpt lat="45.14651" lon="5.94552">
        <ele>2183.2</ele>
        <time>2020-08-11T07:33:04Z</time>
      </trkpt>
      <trkpt lat="45.14651" lon="5.94553">
        <ele>2183.4</ele>
        <time>2020-08-11T07:33:05Z</time>
      </trkpt>
      <trkpt lat="45.14651" lon="5.94553">
        <ele>2183.6</ele>
        <time>2020-08-11T07:33:06Z</time>
      </trkpt>
      <trkpt lat="45.14652" lon="5.94554">
        <ele>2184</ele>
        <time>2020-08-11T07:33:07Z</time>
      </trkpt>
      <trkpt lat="45.14652" lon="5.94555">
        <ele>2184.2</ele>
        <time>2020-08-11T07:33:08Z</time>
      </trkpt>
      <trkpt lat="45.14652" lon="5.94555">
        <ele>2184.2</ele>
        <time>2020-08-11T07:33:09Z</time>
      </trkpt>
      <trkpt lat="45.14652" lon="5.94556">
        <ele>2184.6</ele>
        <time>2020-08-11T07:33:10Z</time>
      </trkpt>
      <trkpt lat="45.14652" lon="5.94557">
        <ele>2185</ele>
        <time>2020-08-11T07:33:11Z</time>
      </trkpt>
      <trkpt lat="45.14652" lon="5.94557">
        <ele>2185.2</ele>
        <time>2020-08-11T07:33:12Z</time>
      </trkpt>
      <trkpt lat="45.14652" lon="5.94558">
        <ele>2185.4</ele>
        <time>2020-08-11T07:33:13Z</time>
      </trkpt>
      <trkpt lat="45.14652" lon="5.94559">
        <ele>2185.6</ele>
        <time>2020-08-11T07:33:14Z</time>
      </trkpt>
      <trkpt lat="45.14652" lon="5.94559">
        <ele>2185.8</ele>
        <time>2020-08-11T07:33:15Z</time>
      </trkpt>
      <trkpt lat="45.14653" lon="5.9456">
        <ele>2186.2</ele>
        <time>2020-08-11T07:33:16Z</time>
      </trkpt>
      <trkpt lat="45.14653" lon="5.94561">
        <ele>2186.4</ele>
        <time>2020-08-11T07:33:17Z</time>
      </trkpt>
      <trkpt lat="45.14653" lon="5.94561">
        <ele>2186.6</ele>
        <time>2020-08-11T07:33:18Z</time>
      </trkpt>
      <trkpt lat="45.14653" lon="5.94562">
        <ele>2187</ele>
        <time>2020-08-11T07:33:19Z</time>
      </trkpt>
      <trkpt lat="45.14653" lon="5.94563">
        <ele>2187</ele>
        <time>2020-08-11T07:33:20Z</time>
      </trkpt>
      <trkpt lat="45.14653" lon="5.94563">
        <ele>2187.4</ele>
        <time>2020-08-11T07:33:21Z</time>
      </trkpt>
      <trkpt lat="45.14653" lon="5.94564">
        <ele>2187.6</ele>
        <time>2020-08-11T07:33:22Z</time>
      </trkpt>
      <trkpt lat="45.14653" lon="5.94565">
        <ele>2187.6</ele>
        <time>2020-08-11T07:33:23Z</time>
      </trkpt>
      <trkpt lat="45.14654" lon="5.94565">
        <ele>2187.8</ele>
        <time>2020-08-11T07:33:24Z</time>
      </trkpt>
      <trkpt lat="45.14654" lon="5.94566">
        <ele>2188</ele>
        <time>2020-08-11T07:33:25Z</time>
      </trkpt>
      <trkpt lat="45.14654" lon="5.94567">
        <ele>2188.2</ele>
        <time>2020-08-11T07:33:26Z</time>
      </trkpt>
      <trkpt lat="45.14654" lon="5.94567">
        <ele>2188.4</ele>
        <time>2020-08-11T07:33:27Z</time>
      </trkpt>
      <trkpt lat="45.14654" lon="5.94568">
        <ele>2188.8</ele>
        <time>2020-08-11T07:33:28Z</time>
      </trkpt>
      <trkpt lat="45.14654" lon="5.94569">
        <ele>2189</ele>
        <time>2020-08-11T07:33:29Z</time>
      </trkpt>
      <trkpt lat="45.14654" lon="5.94569">
        <ele>2189</ele>
        <time>2020-08-11T07:33:30Z</time>
      </trkpt>
      <trkpt lat="45.14654" lon="5.9457">
        <ele>2189.2</ele>
        <time>2020-08-11T07:33:31Z</time>
      </trkpt>
      <trkpt lat="45.14654" lon="5.94571">
        <ele>2189.6</ele>
        <time>2020-08-11T07:33:32Z</time>
      </trkpt>
      <trkpt lat="45.14655" lon="5.94572">
        <ele>2189.8</ele>
        <time>2020-08-11T07:33:33Z</time>
      </trkpt>
      <trkpt lat="45.14655" lon="5.94573">
        <ele>2190</ele>
        <time>2020-08-11T07:33:34Z</time>
      </trkpt>
      <trkpt lat="45.14656" lon="5.94574">
        <ele>2190.6</ele>
        <time>2020-08-11T07:33:35Z</time>
      </trkpt>
      <trkpt lat="45.14656" lon="5.94575">
        <ele>2191</ele>
        <time>2020-08-11T07:33:36Z</time>
      </trkpt>
      <trkpt lat="45.14657" lon="5.94576">
        <ele>2191</ele>
        <time>2020-08-11T07:33:37Z</time>
      </trkpt>
      <trkpt lat="45.14657" lon="5.94576">
        <ele>2191.2</ele>
        <time>2020-08-11T07:33:38Z</time>
      </trkpt>
      <trkpt lat="45.14657" lon="5.94576">
        <ele>2191.4</ele>
        <time>2020-08-11T07:33:39Z</time>
      </trkpt>
      <trkpt lat="45.14659" lon="5.94579">
        <ele>2191.4</ele>
        <time>2020-08-11T07:33:40Z</time>
      </trkpt>
      <trkpt lat="45.14659" lon="5.94579">
        <ele>2191.4</ele>
        <time>2020-08-11T07:33:41Z</time>
      </trkpt>
      <trkpt lat="45.14659" lon="5.94579">
        <ele>2191.8</ele>
        <time>2020-08-11T07:33:42Z</time>
      </trkpt>
      <trkpt lat="45.1466" lon="5.94581">
        <ele>2192</ele>
        <time>2020-08-11T07:33:43Z</time>
      </trkpt>
      <trkpt lat="45.1466" lon="5.94581">
        <ele>2192.4</ele>
        <time>2020-08-11T07:33:44Z</time>
      </trkpt>
      <trkpt lat="45.1466" lon="5.94581">
        <ele>2192.4</ele>
        <time>2020-08-11T07:33:45Z</time>
      </trkpt>
      <trkpt lat="45.14661" lon="5.94584">
        <ele>2192.6</ele>
        <time>2020-08-11T07:33:46Z</time>
      </trkpt>
      <trkpt lat="45.14661" lon="5.94584">
        <ele>2192.8</ele>
        <time>2020-08-11T07:33:47Z</time>
      </trkpt>
      <trkpt lat="45.14661" lon="5.94584">
        <ele>2192.8</ele>
        <time>2020-08-11T07:33:48Z</time>
      </trkpt>
      <trkpt lat="45.14661" lon="5.94588">
        <ele>2192.8</ele>
        <time>2020-08-11T07:33:49Z</time>
      </trkpt>
      <trkpt lat="45.14661" lon="5.94588">
        <ele>2193.2</ele>
        <time>2020-08-11T07:33:50Z</time>
      </trkpt>
      <trkpt lat="45.14661" lon="5.94591">
        <ele>2193</ele>
        <time>2020-08-11T07:33:51Z</time>
      </trkpt>
      <trkpt lat="45.14661" lon="5.94591">
        <ele>2193.2</ele>
        <time>2020-08-11T07:33:52Z</time>
      </trkpt>
      <trkpt lat="45.14662" lon="5.94594">
        <ele>2193</ele>
        <time>2020-08-11T07:33:53Z</time>
      </trkpt>
      <trkpt lat="45.14662" lon="5.94594">
        <ele>2193</ele>
        <time>2020-08-11T07:33:54Z</time>
      </trkpt>
      <trkpt lat="45.14662" lon="5.94596">
        <ele>2193</ele>
        <time>2020-08-11T07:33:55Z</time>
      </trkpt>
      <trkpt lat="45.14662" lon="5.94596">
        <ele>2193</ele>
        <time>2020-08-11T07:33:56Z</time>
      </trkpt>
      <trkpt lat="45.14662" lon="5.94596">
        <ele>2193</ele>
        <time>2020-08-11T07:33:57Z</time>
      </trkpt>
      <trkpt lat="45.14663" lon="5.94599">
        <ele>2193</ele>
        <time>2020-08-11T07:33:58Z</time>
      </trkpt>
      <trkpt lat="45.14663" lon="5.94599">
        <ele>2193.2</ele>
        <time>2020-08-11T07:33:59Z</time>
      </trkpt>
      <trkpt lat="45.14663" lon="5.94599">
        <ele>2193.2</ele>
        <time>2020-08-11T07:34:00Z</time>
      </trkpt>
      <trkpt lat="45.14663" lon="5.94599">
        <ele>2193.4</ele>
        <time>2020-08-11T07:34:01Z</time>
      </trkpt>
      <trkpt lat="45.14663" lon="5.94599">
        <ele>2193.4</ele>
        <time>2020-08-11T07:34:02Z</time>
      </trkpt>
      <trkpt lat="45.14664" lon="5.94601">
        <ele>2193.4</ele>
        <time>2020-08-11T07:34:03Z</time>
      </trkpt>
      <trkpt lat="45.14664" lon="5.94601">
        <ele>2193.2</ele>
        <time>2020-08-11T07:34:04Z</time>
      </trkpt>
      <trkpt lat="45.14664" lon="5.94601">
        <ele>2193.2</ele>
        <time>2020-08-11T07:34:05Z</time>
      </trkpt>
      <trkpt lat="45.14664" lon="5.94601">
        <ele>2193.2</ele>
        <time>2020-08-11T07:34:06Z</time>
      </trkpt>
      <trkpt lat="45.14664" lon="5.94601">
        <ele>2193</ele>
        <time>2020-08-11T07:34:07Z</time>
      </trkpt>
      <trkpt lat="45.14664" lon="5.94601">
        <ele>2193</ele>
        <time>2020-08-11T07:34:08Z</time>
      </trkpt>
      <trkpt lat="45.14664" lon="5.94601">
        <ele>2193</ele>
        <time>2020-08-11T07:34:09Z</time>
      </trkpt>
      <trkpt lat="45.14664" lon="5.94601">
        <ele>2193</ele>
        <time>2020-08-11T07:34:10Z</time>
      </trkpt>
      <trkpt lat="45.14664" lon="5.94601">
        <ele>2193</ele>
        <time>2020-08-11T07:34:11Z</time>
      </trkpt>
      <trkpt lat="45.14664" lon="5.94601">
        <ele>2192.8</ele>
        <time>2020-08-11T07:34:12Z</time>
      </trkpt>
      <trkpt lat="45.14664" lon="5.94601">
        <ele>2193</ele>
        <time>2020-08-11T07:34:13Z</time>
      </trkpt>
      <trkpt lat="45.14664" lon="5.94601">
        <ele>2193.2</ele>
        <time>2020-08-11T07:34:14Z</time>
      </trkpt>
      <trkpt lat="45.14664" lon="5.94601">
        <ele>2193.4</ele>
        <time>2020-08-11T07:34:15Z</time>
      </trkpt>
      <trkpt lat="45.14665" lon="5.94604">
        <ele>2193.4</ele>
        <time>2020-08-11T07:34:16Z</time>
      </trkpt>
      <trkpt lat="45.14665" lon="5.94604">
        <ele>2193.4</ele>
        <time>2020-08-11T07:34:17Z</time>
      </trkpt>
      <trkpt lat="45.14664" lon="5.94606">
        <ele>2193.6</ele>
        <time>2020-08-11T07:34:18Z</time>
      </trkpt>
      <trkpt lat="45.14664" lon="5.94606">
        <ele>2193.6</ele>
        <time>2020-08-11T07:34:19Z</time>
      </trkpt>
      <trkpt lat="45.14663" lon="5.94609">
        <ele>2193.6</ele>
        <time>2020-08-11T07:34:20Z</time>
      </trkpt>
      <trkpt lat="45.14663" lon="5.94609">
        <ele>2193.6</ele>
        <time>2020-08-11T07:34:21Z</time>
      </trkpt>
      <trkpt lat="45.14663" lon="5.94609">
        <ele>2194</ele>
        <time>2020-08-11T07:34:22Z</time>
      </trkpt>
      <trkpt lat="45.14662" lon="5.94612">
        <ele>2193.8</ele>
        <time>2020-08-11T07:34:23Z</time>
      </trkpt>
      <trkpt lat="45.14662" lon="5.94612">
        <ele>2193.8</ele>
        <time>2020-08-11T07:34:24Z</time>
      </trkpt>
      <trkpt lat="45.14662" lon="5.94612">
        <ele>2193.8</ele>
        <time>2020-08-11T07:34:25Z</time>
      </trkpt>
      <trkpt lat="45.14662" lon="5.94612">
        <ele>2193.8</ele>
        <time>2020-08-11T07:34:26Z</time>
      </trkpt>
      <trkpt lat="45.14662" lon="5.94614">
        <ele>2193.8</ele>
        <time>2020-08-11T07:34:27Z</time>
      </trkpt>
      <trkpt lat="45.14662" lon="5.94614">
        <ele>2193.8</ele>
        <time>2020-08-11T07:34:28Z</time>
      </trkpt>
      <trkpt lat="45.14662" lon="5.94614">
        <ele>2193.6</ele>
        <time>2020-08-11T07:34:29Z</time>
      </trkpt>
      <trkpt lat="45.14662" lon="5.94614">
        <ele>2194</ele>
        <time>2020-08-11T07:34:30Z</time>
      </trkpt>
      <trkpt lat="45.14662" lon="5.94614">
        <ele>2194</ele>
        <time>2020-08-11T07:34:31Z</time>
      </trkpt>
      <trkpt lat="45.14662" lon="5.94614">
        <ele>2194.2</ele>
        <time>2020-08-11T07:34:32Z</time>
      </trkpt>
      <trkpt lat="45.14662" lon="5.94614">
        <ele>2194.2</ele>
        <time>2020-08-11T07:34:33Z</time>
      </trkpt>
      <trkpt lat="45.14662" lon="5.94614">
        <ele>2194.4</ele>
        <time>2020-08-11T07:34:34Z</time>
      </trkpt>
      <trkpt lat="45.14662" lon="5.94614">
        <ele>2194.6</ele>
        <time>2020-08-11T07:34:35Z</time>
      </trkpt>
      <trkpt lat="45.14662" lon="5.94614">
        <ele>2194.8</ele>
        <time>2020-08-11T07:34:36Z</time>
      </trkpt>
      <trkpt lat="45.14662" lon="5.94614">
        <ele>2195</ele>
        <time>2020-08-11T07:34:37Z</time>
      </trkpt>
      <trkpt lat="45.14662" lon="5.94614">
        <ele>2195</ele>
        <time>2020-08-11T07:34:38Z</time>
      </trkpt>
      <trkpt lat="45.14662" lon="5.94614">
        <ele>2195</ele>
        <time>2020-08-11T07:34:39Z</time>
      </trkpt>
      <trkpt lat="45.14662" lon="5.94614">
        <ele>2195.2</ele>
        <time>2020-08-11T07:34:40Z</time>
      </trkpt>
      <trkpt lat="45.14662" lon="5.94614">
        <ele>2195.2</ele>
        <time>2020-08-11T07:34:41Z</time>
      </trkpt>
      <trkpt lat="45.14661" lon="5.94617">
        <ele>2195</ele>
        <time>2020-08-11T07:34:42Z</time>
      </trkpt>
      <trkpt lat="45.14661" lon="5.9462">
        <ele>2194.8</ele>
        <time>2020-08-11T07:34:43Z</time>
      </trkpt>
      <trkpt lat="45.14661" lon="5.9462">
        <ele>2194.6</ele>
        <time>2020-08-11T07:34:44Z</time>
      </trkpt>
      <trkpt lat="45.14661" lon="5.9462">
        <ele>2194.6</ele>
        <time>2020-08-11T07:34:45Z</time>
      </trkpt>
      <trkpt lat="45.14661" lon="5.94623">
        <ele>2194.4</ele>
        <time>2020-08-11T07:34:46Z</time>
      </trkpt>
      <trkpt lat="45.14661" lon="5.94623">
        <ele>2194.2</ele>
        <time>2020-08-11T07:34:47Z</time>
      </trkpt>
      <trkpt lat="45.14661" lon="5.94623">
        <ele>2194.2</ele>
        <time>2020-08-11T07:34:48Z</time>
      </trkpt>
      <trkpt lat="45.14661" lon="5.94626">
        <ele>2194.2</ele>
        <time>2020-08-11T07:34:49Z</time>
      </trkpt>
      <trkpt lat="45.14661" lon="5.94626">
        <ele>2194.2</ele>
        <time>2020-08-11T07:34:50Z</time>
      </trkpt>
      <trkpt lat="45.14661" lon="5.94629">
        <ele>2194.2</ele>
        <time>2020-08-11T07:34:51Z</time>
      </trkpt>
      <trkpt lat="45.14661" lon="5.94629">
        <ele>2194.4</ele>
        <time>2020-08-11T07:34:52Z</time>
      </trkpt>
      <trkpt lat="45.14661" lon="5.94632">
        <ele>2194.6</ele>
        <time>2020-08-11T07:34:53Z</time>
      </trkpt>
      <trkpt lat="45.14661" lon="5.94632">
        <ele>2195</ele>
        <time>2020-08-11T07:34:54Z</time>
      </trkpt>
      <trkpt lat="45.14661" lon="5.94632">
        <ele>2195.2</ele>
        <time>2020-08-11T07:34:55Z</time>
      </trkpt>
      <trkpt lat="45.14663" lon="5.94634">
        <ele>2195.2</ele>
        <time>2020-08-11T07:34:56Z</time>
      </trkpt>
      <trkpt lat="45.14664" lon="5.94637">
        <ele>2195.6</ele>
        <time>2020-08-11T07:34:57Z</time>
      </trkpt>
      <trkpt lat="45.14664" lon="5.94637">
        <ele>2195.6</ele>
        <time>2020-08-11T07:34:58Z</time>
      </trkpt>
      <trkpt lat="45.14664" lon="5.94637">
        <ele>2195.8</ele>
        <time>2020-08-11T07:34:59Z</time>
      </trkpt>
      <trkpt lat="45.14664" lon="5.94637">
        <ele>2196.2</ele>
        <time>2020-08-11T07:35:00Z</time>
      </trkpt>
      <trkpt lat="45.14665" lon="5.9464">
        <ele>2196.6</ele>
        <time>2020-08-11T07:35:01Z</time>
      </trkpt>
      <trkpt lat="45.14666" lon="5.94642">
        <ele>2196.6</ele>
        <time>2020-08-11T07:35:02Z</time>
      </trkpt>
      <trkpt lat="45.14666" lon="5.94642">
        <ele>2196.8</ele>
        <time>2020-08-11T07:35:03Z</time>
      </trkpt>
      <trkpt lat="45.14666" lon="5.94642">
        <ele>2197</ele>
        <time>2020-08-11T07:35:04Z</time>
      </trkpt>
      <trkpt lat="45.14667" lon="5.94646">
        <ele>2197.4</ele>
        <time>2020-08-11T07:35:05Z</time>
      </trkpt>
      <trkpt lat="45.14667" lon="5.94646">
        <ele>2197.6</ele>
        <time>2020-08-11T07:35:06Z</time>
      </trkpt>
      <trkpt lat="45.14667" lon="5.94646">
        <ele>2197.8</ele>
        <time>2020-08-11T07:35:07Z</time>
      </trkpt>
      <trkpt lat="45.14667" lon="5.94646">
        <ele>2198</ele>
        <time>2020-08-11T07:35:08Z</time>
      </trkpt>
      <trkpt lat="45.14668" lon="5.94649">
        <ele>2198.2</ele>
        <time>2020-08-11T07:35:09Z</time>
      </trkpt>
      <trkpt lat="45.14668" lon="5.94649">
        <ele>2198.4</ele>
        <time>2020-08-11T07:35:10Z</time>
      </trkpt>
      <trkpt lat="45.14668" lon="5.94649">
        <ele>2198.6</ele>
        <time>2020-08-11T07:35:11Z</time>
      </trkpt>
      <trkpt lat="45.14668" lon="5.94649">
        <ele>2198.8</ele>
        <time>2020-08-11T07:35:12Z</time>
      </trkpt>
      <trkpt lat="45.14669" lon="5.94651">
        <ele>2199.2</ele>
        <time>2020-08-11T07:35:13Z</time>
      </trkpt>
      <trkpt lat="45.14669" lon="5.94651">
        <ele>2199.4</ele>
        <time>2020-08-11T07:35:14Z</time>
      </trkpt>
      <trkpt lat="45.14669" lon="5.94651">
        <ele>2199.4</ele>
        <time>2020-08-11T07:35:15Z</time>
      </trkpt>
      <trkpt lat="45.1467" lon="5.94654">
        <ele>2199.4</ele>
        <time>2020-08-11T07:35:16Z</time>
      </trkpt>
      <trkpt lat="45.1467" lon="5.94654">
        <ele>2199.6</ele>
        <time>2020-08-11T07:35:17Z</time>
      </trkpt>
      <trkpt lat="45.1467" lon="5.94654">
        <ele>2200</ele>
        <time>2020-08-11T07:35:18Z</time>
      </trkpt>
      <trkpt lat="45.1467" lon="5.94654">
        <ele>2200.2</ele>
        <time>2020-08-11T07:35:19Z</time>
      </trkpt>
      <trkpt lat="45.14673" lon="5.94656">
        <ele>2200.2</ele>
        <time>2020-08-11T07:35:20Z</time>
      </trkpt>
      <trkpt lat="45.14673" lon="5.94656">
        <ele>2200.4</ele>
        <time>2020-08-11T07:35:21Z</time>
      </trkpt>
      <trkpt lat="45.14673" lon="5.94656">
        <ele>2200.8</ele>
        <time>2020-08-11T07:35:22Z</time>
      </trkpt>
      <trkpt lat="45.14674" lon="5.94658">
        <ele>2200.8</ele>
        <time>2020-08-11T07:35:23Z</time>
      </trkpt>
      <trkpt lat="45.14674" lon="5.94658">
        <ele>2201</ele>
        <time>2020-08-11T07:35:24Z</time>
      </trkpt>
      <trkpt lat="45.14676" lon="5.94661">
        <ele>2201.4</ele>
        <time>2020-08-11T07:35:25Z</time>
      </trkpt>
      <trkpt lat="45.14676" lon="5.94661">
        <ele>2201.8</ele>
        <time>2020-08-11T07:35:26Z</time>
      </trkpt>
      <trkpt lat="45.14676" lon="5.94661">
        <ele>2202</ele>
        <time>2020-08-11T07:35:27Z</time>
      </trkpt>
      <trkpt lat="45.14677" lon="5.94664">
        <ele>2202</ele>
        <time>2020-08-11T07:35:28Z</time>
      </trkpt>
      <trkpt lat="45.14678" lon="5.94665">
        <ele>2202</ele>
        <time>2020-08-11T07:35:29Z</time>
      </trkpt>
      <trkpt lat="45.14678" lon="5.94666">
        <ele>2202.2</ele>
        <time>2020-08-11T07:35:30Z</time>
      </trkpt>
      <trkpt lat="45.14678" lon="5.94667">
        <ele>2202.4</ele>
        <time>2020-08-11T07:35:31Z</time>
      </trkpt>
      <trkpt lat="45.14678" lon="5.94668">
        <ele>2202.6</ele>
        <time>2020-08-11T07:35:32Z</time>
      </trkpt>
      <trkpt lat="45.14678" lon="5.94669">
        <ele>2202.8</ele>
        <time>2020-08-11T07:35:33Z</time>
      </trkpt>
      <trkpt lat="45.14678" lon="5.94669">
        <ele>2202.8</ele>
        <time>2020-08-11T07:35:34Z</time>
      </trkpt>
      <trkpt lat="45.14678" lon="5.94669">
        <ele>2202.8</ele>
        <time>2020-08-11T07:35:35Z</time>
      </trkpt>
      <trkpt lat="45.14679" lon="5.94671">
        <ele>2202.8</ele>
        <time>2020-08-11T07:35:36Z</time>
      </trkpt>
      <trkpt lat="45.1468" lon="5.94672">
        <ele>2203</ele>
        <time>2020-08-11T07:35:37Z</time>
      </trkpt>
      <trkpt lat="45.14681" lon="5.94674">
        <ele>2203</ele>
        <time>2020-08-11T07:35:38Z</time>
      </trkpt>
      <trkpt lat="45.14681" lon="5.94675">
        <ele>2203.2</ele>
        <time>2020-08-11T07:35:39Z</time>
      </trkpt>
      <trkpt lat="45.14682" lon="5.94677">
        <ele>2203.4</ele>
        <time>2020-08-11T07:35:40Z</time>
      </trkpt>
      <trkpt lat="45.14683" lon="5.94678">
        <ele>2203.6</ele>
        <time>2020-08-11T07:35:41Z</time>
      </trkpt>
      <trkpt lat="45.14684" lon="5.9468">
        <ele>2203.8</ele>
        <time>2020-08-11T07:35:42Z</time>
      </trkpt>
      <trkpt lat="45.14684" lon="5.94681">
        <ele>2204.2</ele>
        <time>2020-08-11T07:35:43Z</time>
      </trkpt>
      <trkpt lat="45.14685" lon="5.94683">
        <ele>2204.2</ele>
        <time>2020-08-11T07:35:44Z</time>
      </trkpt>
      <trkpt lat="45.14686" lon="5.94684">
        <ele>2204.2</ele>
        <time>2020-08-11T07:35:45Z</time>
      </trkpt>
      <trkpt lat="45.14687" lon="5.94686">
        <ele>2204.2</ele>
        <time>2020-08-11T07:35:46Z</time>
      </trkpt>
      <trkpt lat="45.14688" lon="5.94687">
        <ele>2204.2</ele>
        <time>2020-08-11T07:35:47Z</time>
      </trkpt>
      <trkpt lat="45.14689" lon="5.94689">
        <ele>2204.2</ele>
        <time>2020-08-11T07:35:48Z</time>
      </trkpt>
      <trkpt lat="45.14689" lon="5.9469">
        <ele>2204.2</ele>
        <time>2020-08-11T07:35:49Z</time>
      </trkpt>
      <trkpt lat="45.1469" lon="5.94692">
        <ele>2204.2</ele>
        <time>2020-08-11T07:35:50Z</time>
      </trkpt>
      <trkpt lat="45.14691" lon="5.94693">
        <ele>2204.4</ele>
        <time>2020-08-11T07:35:51Z</time>
      </trkpt>
      <trkpt lat="45.14691" lon="5.94694">
        <ele>2204.4</ele>
        <time>2020-08-11T07:35:52Z</time>
      </trkpt>
      <trkpt lat="45.14692" lon="5.94696">
        <ele>2204.6</ele>
        <time>2020-08-11T07:35:53Z</time>
      </trkpt>
      <trkpt lat="45.14692" lon="5.94697">
        <ele>2204.6</ele>
        <time>2020-08-11T07:35:54Z</time>
      </trkpt>
      <trkpt lat="45.14692" lon="5.94698">
        <ele>2205</ele>
        <time>2020-08-11T07:35:55Z</time>
      </trkpt>
      <trkpt lat="45.14693" lon="5.947">
        <ele>2205.4</ele>
        <time>2020-08-11T07:35:56Z</time>
      </trkpt>
      <trkpt lat="45.14693" lon="5.94701">
        <ele>2206</ele>
        <time>2020-08-11T07:35:57Z</time>
      </trkpt>
      <trkpt lat="45.14694" lon="5.94702">
        <ele>2206</ele>
        <time>2020-08-11T07:35:58Z</time>
      </trkpt>
      <trkpt lat="45.14694" lon="5.94704">
        <ele>2206.2</ele>
        <time>2020-08-11T07:35:59Z</time>
      </trkpt>
      <trkpt lat="45.14695" lon="5.94705">
        <ele>2206.4</ele>
        <time>2020-08-11T07:36:00Z</time>
      </trkpt>
      <trkpt lat="45.14695" lon="5.94706">
        <ele>2206.6</ele>
        <time>2020-08-11T07:36:01Z</time>
      </trkpt>
      <trkpt lat="45.14696" lon="5.94707">
        <ele>2207</ele>
        <time>2020-08-11T07:36:02Z</time>
      </trkpt>
      <trkpt lat="45.14696" lon="5.94708">
        <ele>2207.2</ele>
        <time>2020-08-11T07:36:03Z</time>
      </trkpt>
      <trkpt lat="45.14697" lon="5.94709">
        <ele>2207.2</ele>
        <time>2020-08-11T07:36:04Z</time>
      </trkpt>
      <trkpt lat="45.14697" lon="5.9471">
        <ele>2207.4</ele>
        <time>2020-08-11T07:36:05Z</time>
      </trkpt>
      <trkpt lat="45.14698" lon="5.94711">
        <ele>2207.6</ele>
        <time>2020-08-11T07:36:06Z</time>
      </trkpt>
      <trkpt lat="45.14698" lon="5.94712">
        <ele>2207.8</ele>
        <time>2020-08-11T07:36:07Z</time>
      </trkpt>
      <trkpt lat="45.14699" lon="5.94713">
        <ele>2208</ele>
        <time>2020-08-11T07:36:08Z</time>
      </trkpt>
      <trkpt lat="45.14699" lon="5.94714">
        <ele>2208.2</ele>
        <time>2020-08-11T07:36:09Z</time>
      </trkpt>
      <trkpt lat="45.147" lon="5.94715">
        <ele>2208.4</ele>
        <time>2020-08-11T07:36:10Z</time>
      </trkpt>
      <trkpt lat="45.147" lon="5.94716">
        <ele>2208.6</ele>
        <time>2020-08-11T07:36:11Z</time>
      </trkpt>
      <trkpt lat="45.147" lon="5.94717">
        <ele>2209</ele>
        <time>2020-08-11T07:36:12Z</time>
      </trkpt>
      <trkpt lat="45.147" lon="5.94718">
        <ele>2209.2</ele>
        <time>2020-08-11T07:36:13Z</time>
      </trkpt>
      <trkpt lat="45.147" lon="5.94719">
        <ele>2209.2</ele>
        <time>2020-08-11T07:36:14Z</time>
      </trkpt>
      <trkpt lat="45.14701" lon="5.9472">
        <ele>2209.4</ele>
        <time>2020-08-11T07:36:15Z</time>
      </trkpt>
      <trkpt lat="45.14701" lon="5.9472">
        <ele>2209.6</ele>
        <time>2020-08-11T07:36:16Z</time>
      </trkpt>
      <trkpt lat="45.14701" lon="5.94721">
        <ele>2209.8</ele>
        <time>2020-08-11T07:36:17Z</time>
      </trkpt>
      <trkpt lat="45.14701" lon="5.94722">
        <ele>2210.2</ele>
        <time>2020-08-11T07:36:18Z</time>
      </trkpt>
      <trkpt lat="45.14702" lon="5.94723">
        <ele>2210.4</ele>
        <time>2020-08-11T07:36:19Z</time>
      </trkpt>
      <trkpt lat="45.14702" lon="5.94724">
        <ele>2210.6</ele>
        <time>2020-08-11T07:36:20Z</time>
      </trkpt>
      <trkpt lat="45.14702" lon="5.94725">
        <ele>2210.8</ele>
        <time>2020-08-11T07:36:21Z</time>
      </trkpt>
      <trkpt lat="45.14702" lon="5.94726">
        <ele>2211.2</ele>
        <time>2020-08-11T07:36:22Z</time>
      </trkpt>
      <trkpt lat="45.14702" lon="5.94726">
        <ele>2211.2</ele>
        <time>2020-08-11T07:36:23Z</time>
      </trkpt>
      <trkpt lat="45.14703" lon="5.94727">
        <ele>2211.4</ele>
        <time>2020-08-11T07:36:24Z</time>
      </trkpt>
      <trkpt lat="45.14703" lon="5.94729">
        <ele>2211.6</ele>
        <time>2020-08-11T07:36:25Z</time>
      </trkpt>
      <trkpt lat="45.14703" lon="5.9473">
        <ele>2211.8</ele>
        <time>2020-08-11T07:36:26Z</time>
      </trkpt>
      <trkpt lat="45.14703" lon="5.94731">
        <ele>2212</ele>
        <time>2020-08-11T07:36:27Z</time>
      </trkpt>
      <trkpt lat="45.14703" lon="5.94732">
        <ele>2212.4</ele>
        <time>2020-08-11T07:36:28Z</time>
      </trkpt>
      <trkpt lat="45.14703" lon="5.94734">
        <ele>2212.6</ele>
        <time>2020-08-11T07:36:29Z</time>
      </trkpt>
      <trkpt lat="45.14703" lon="5.94735">
        <ele>2212.6</ele>
        <time>2020-08-11T07:36:30Z</time>
      </trkpt>
      <trkpt lat="45.14703" lon="5.94736">
        <ele>2212.8</ele>
        <time>2020-08-11T07:36:31Z</time>
      </trkpt>
      <trkpt lat="45.14703" lon="5.94737">
        <ele>2213.2</ele>
        <time>2020-08-11T07:36:32Z</time>
      </trkpt>
      <trkpt lat="45.14703" lon="5.94739">
        <ele>2213</ele>
        <time>2020-08-11T07:36:33Z</time>
      </trkpt>
      <trkpt lat="45.14703" lon="5.9474">
        <ele>2213.2</ele>
        <time>2020-08-11T07:36:34Z</time>
      </trkpt>
      <trkpt lat="45.14703" lon="5.94741">
        <ele>2213.4</ele>
        <time>2020-08-11T07:36:35Z</time>
      </trkpt>
      <trkpt lat="45.14704" lon="5.94742">
        <ele>2213.4</ele>
        <time>2020-08-11T07:36:36Z</time>
      </trkpt>
      <trkpt lat="45.14706" lon="5.94743">
        <ele>2213.4</ele>
        <time>2020-08-11T07:36:37Z</time>
      </trkpt>
      <trkpt lat="45.14708" lon="5.94745">
        <ele>2213.6</ele>
        <time>2020-08-11T07:36:38Z</time>
      </trkpt>
      <trkpt lat="45.14709" lon="5.94746">
        <ele>2213.4</ele>
        <time>2020-08-11T07:36:39Z</time>
      </trkpt>
      <trkpt lat="45.14711" lon="5.94747">
        <ele>2213.6</ele>
        <time>2020-08-11T07:36:40Z</time>
      </trkpt>
      <trkpt lat="45.14713" lon="5.94748">
        <ele>2213.6</ele>
        <time>2020-08-11T07:36:41Z</time>
      </trkpt>
      <trkpt lat="45.14715" lon="5.94749">
        <ele>2213.6</ele>
        <time>2020-08-11T07:36:42Z</time>
      </trkpt>
      <trkpt lat="45.14716" lon="5.9475">
        <ele>2213.6</ele>
        <time>2020-08-11T07:36:43Z</time>
      </trkpt>
      <trkpt lat="45.14718" lon="5.94752">
        <ele>2213.6</ele>
        <time>2020-08-11T07:36:44Z</time>
      </trkpt>
      <trkpt lat="45.1472" lon="5.94753">
        <ele>2213.4</ele>
        <time>2020-08-11T07:36:45Z</time>
      </trkpt>
      <trkpt lat="45.14722" lon="5.94754">
        <ele>2213.4</ele>
        <time>2020-08-11T07:36:46Z</time>
      </trkpt>
      <trkpt lat="45.14723" lon="5.94755">
        <ele>2213.6</ele>
        <time>2020-08-11T07:36:47Z</time>
      </trkpt>
      <trkpt lat="45.14727" lon="5.94753">
        <ele>2213.6</ele>
        <time>2020-08-11T07:36:48Z</time>
      </trkpt>
      <trkpt lat="45.14726" lon="5.94746">
        <ele>2213.6</ele>
        <time>2020-08-11T07:36:49Z</time>
      </trkpt>
      <trkpt lat="45.14726" lon="5.94739">
        <ele>2213.6</ele>
        <time>2020-08-11T07:36:50Z</time>
      </trkpt>
      <trkpt lat="45.14726" lon="5.94739">
        <ele>2213.6</ele>
        <time>2020-08-11T07:36:51Z</time>
      </trkpt>
      <trkpt lat="45.14726" lon="5.9474">
        <ele>2213.6</ele>
        <time>2020-08-11T07:36:52Z</time>
      </trkpt>
      <trkpt lat="45.14726" lon="5.94741">
        <ele>2213.6</ele>
        <time>2020-08-11T07:36:53Z</time>
      </trkpt>
      <trkpt lat="45.14727" lon="5.94742">
        <ele>2213.6</ele>
        <time>2020-08-11T07:36:54Z</time>
      </trkpt>
      <trkpt lat="45.14727" lon="5.94743">
        <ele>2213.6</ele>
        <time>2020-08-11T07:36:55Z</time>
      </trkpt>
      <trkpt lat="45.14727" lon="5.94744">
        <ele>2213.4</ele>
        <time>2020-08-11T07:36:56Z</time>
      </trkpt>
      <trkpt lat="45.14728" lon="5.94745">
        <ele>2213.6</ele>
        <time>2020-08-11T07:36:57Z</time>
      </trkpt>
      <trkpt lat="45.14728" lon="5.94746">
        <ele>2213.6</ele>
        <time>2020-08-11T07:36:58Z</time>
      </trkpt>
      <trkpt lat="45.14729" lon="5.94747">
        <ele>2213.6</ele>
        <time>2020-08-11T07:36:59Z</time>
      </trkpt>
      <trkpt lat="45.14729" lon="5.94747">
        <ele>2213.8</ele>
        <time>2020-08-11T07:37:00Z</time>
      </trkpt>
      <trkpt lat="45.14729" lon="5.94748">
        <ele>2213.6</ele>
        <time>2020-08-11T07:37:01Z</time>
      </trkpt>
      <trkpt lat="45.1473" lon="5.94749">
        <ele>2213.6</ele>
        <time>2020-08-11T07:37:02Z</time>
      </trkpt>
      <trkpt lat="45.1473" lon="5.9475">
        <ele>2213.6</ele>
        <time>2020-08-11T07:37:03Z</time>
      </trkpt>
      <trkpt lat="45.1473" lon="5.94752">
        <ele>2213.6</ele>
        <time>2020-08-11T07:37:04Z</time>
      </trkpt>
      <trkpt lat="45.14731" lon="5.94755">
        <ele>2213.4</ele>
        <time>2020-08-11T07:37:05Z</time>
      </trkpt>
      <trkpt lat="45.14731" lon="5.94757">
        <ele>2213.4</ele>
        <time>2020-08-11T07:37:06Z</time>
      </trkpt>
      <trkpt lat="45.14731" lon="5.94759">
        <ele>2213.2</ele>
        <time>2020-08-11T07:37:07Z</time>
      </trkpt>
      <trkpt lat="45.14732" lon="5.94761">
        <ele>2213.2</ele>
        <time>2020-08-11T07:37:08Z</time>
      </trkpt>
      <trkpt lat="45.14732" lon="5.94763">
        <ele>2213.2</ele>
        <time>2020-08-11T07:37:09Z</time>
      </trkpt>
      <trkpt lat="45.14732" lon="5.94765">
        <ele>2213.2</ele>
        <time>2020-08-11T07:37:10Z</time>
      </trkpt>
      <trkpt lat="45.14732" lon="5.94765">
        <ele>2213.2</ele>
        <time>2020-08-11T07:37:11Z</time>
      </trkpt>
      <trkpt lat="45.14732" lon="5.94766">
        <ele>2213.2</ele>
        <time>2020-08-11T07:37:12Z</time>
      </trkpt>
      <trkpt lat="45.14732" lon="5.94766">
        <ele>2213.4</ele>
        <time>2020-08-11T07:37:13Z</time>
      </trkpt>
      <trkpt lat="45.14732" lon="5.94766">
        <ele>2213.4</ele>
        <time>2020-08-11T07:37:14Z</time>
      </trkpt>
      <trkpt lat="45.14732" lon="5.94766">
        <ele>2213.4</ele>
        <time>2020-08-11T07:37:15Z</time>
      </trkpt>
      <trkpt lat="45.14731" lon="5.94766">
        <ele>2213.2</ele>
        <time>2020-08-11T07:37:16Z</time>
      </trkpt>
      <trkpt lat="45.14731" lon="5.94767">
        <ele>2213.4</ele>
        <time>2020-08-11T07:37:17Z</time>
      </trkpt>
      <trkpt lat="45.14731" lon="5.94767">
        <ele>2213.2</ele>
        <time>2020-08-11T07:37:18Z</time>
      </trkpt>
      <trkpt lat="45.14731" lon="5.94767">
        <ele>2213.2</ele>
        <time>2020-08-11T07:37:19Z</time>
      </trkpt>
      <trkpt lat="45.14731" lon="5.94767">
        <ele>2213.2</ele>
        <time>2020-08-11T07:37:20Z</time>
      </trkpt>
      <trkpt lat="45.1473" lon="5.94767">
        <ele>2213.2</ele>
        <time>2020-08-11T07:37:21Z</time>
      </trkpt>
      <trkpt lat="45.1473" lon="5.94768">
        <ele>2213</ele>
        <time>2020-08-11T07:37:22Z</time>
      </trkpt>
      <trkpt lat="45.1473" lon="5.94768">
        <ele>2213.2</ele>
        <time>2020-08-11T07:37:23Z</time>
      </trkpt>
      <trkpt lat="45.1473" lon="5.94768">
        <ele>2213.2</ele>
        <time>2020-08-11T07:37:24Z</time>
      </trkpt>
      <trkpt lat="45.1473" lon="5.94768">
        <ele>2213.2</ele>
        <time>2020-08-11T07:37:25Z</time>
      </trkpt>
      <trkpt lat="45.14729" lon="5.94768">
        <ele>2213</ele>
        <time>2020-08-11T07:37:26Z</time>
      </trkpt>
      <trkpt lat="45.14729" lon="5.94769">
        <ele>2213</ele>
        <time>2020-08-11T07:37:27Z</time>
      </trkpt>
      <trkpt lat="45.14729" lon="5.94769">
        <ele>2213</ele>
        <time>2020-08-11T07:37:28Z</time>
      </trkpt>
      <trkpt lat="45.14729" lon="5.94769">
        <ele>2213</ele>
        <time>2020-08-11T07:37:29Z</time>
      </trkpt>
      <trkpt lat="45.14729" lon="5.94769">
        <ele>2213</ele>
        <time>2020-08-11T07:37:30Z</time>
      </trkpt>
      <trkpt lat="45.14729" lon="5.94769">
        <ele>2213</ele>
        <time>2020-08-11T07:37:31Z</time>
      </trkpt>
      <trkpt lat="45.14728" lon="5.94769">
        <ele>2213</ele>
        <time>2020-08-11T07:37:32Z</time>
      </trkpt>
      <trkpt lat="45.14728" lon="5.9477">
        <ele>2213</ele>
        <time>2020-08-11T07:37:33Z</time>
      </trkpt>
      <trkpt lat="45.14728" lon="5.9477">
        <ele>2212.8</ele>
        <time>2020-08-11T07:37:34Z</time>
      </trkpt>
      <trkpt lat="45.14728" lon="5.9477">
        <ele>2212.8</ele>
        <time>2020-08-11T07:37:35Z</time>
      </trkpt>
      <trkpt lat="45.14728" lon="5.9477">
        <ele>2212.4</ele>
        <time>2020-08-11T07:37:36Z</time>
      </trkpt>
      <trkpt lat="45.14727" lon="5.9477">
        <ele>2212.6</ele>
        <time>2020-08-11T07:37:37Z</time>
      </trkpt>
      <trkpt lat="45.14727" lon="5.94771">
        <ele>2212.4</ele>
        <time>2020-08-11T07:37:38Z</time>
      </trkpt>
      <trkpt lat="45.14727" lon="5.94771">
        <ele>2212.2</ele>
        <time>2020-08-11T07:37:39Z</time>
      </trkpt>
      <trkpt lat="45.14727" lon="5.94771">
        <ele>2212.6</ele>
        <time>2020-08-11T07:37:40Z</time>
      </trkpt>
      <trkpt lat="45.14727" lon="5.94771">
        <ele>2212</ele>
        <time>2020-08-11T07:37:41Z</time>
      </trkpt>
      <trkpt lat="45.14726" lon="5.94771">
        <ele>2211.8</ele>
        <time>2020-08-11T07:37:42Z</time>
      </trkpt>
      <trkpt lat="45.14726" lon="5.94772">
        <ele>2211.6</ele>
        <time>2020-08-11T07:37:43Z</time>
      </trkpt>
      <trkpt lat="45.14726" lon="5.94772">
        <ele>2211.2</ele>
        <time>2020-08-11T07:37:44Z</time>
      </trkpt>
      <trkpt lat="45.14726" lon="5.94772">
        <ele>2211.2</ele>
        <time>2020-08-11T07:37:45Z</time>
      </trkpt>
      <trkpt lat="45.14726" lon="5.94772">
        <ele>2211.2</ele>
        <time>2020-08-11T07:37:46Z</time>
      </trkpt>
      <trkpt lat="45.14725" lon="5.94772">
        <ele>2211.2</ele>
        <time>2020-08-11T07:37:47Z</time>
      </trkpt>
      <trkpt lat="45.14725" lon="5.94773">
        <ele>2211</ele>
        <time>2020-08-11T07:37:48Z</time>
      </trkpt>
      <trkpt lat="45.14725" lon="5.94773">
        <ele>2211.2</ele>
        <time>2020-08-11T07:37:49Z</time>
      </trkpt>
      <trkpt lat="45.14725" lon="5.94773">
        <ele>2210.8</ele>
        <time>2020-08-11T07:37:50Z</time>
      </trkpt>
      <trkpt lat="45.14725" lon="5.94773">
        <ele>2210.8</ele>
        <time>2020-08-11T07:37:51Z</time>
      </trkpt>
      <trkpt lat="45.14725" lon="5.94773">
        <ele>2210.6</ele>
        <time>2020-08-11T07:37:52Z</time>
      </trkpt>
      <trkpt lat="45.14724" lon="5.94774">
        <ele>2210.6</ele>
        <time>2020-08-11T07:37:53Z</time>
      </trkpt>
      <trkpt lat="45.14724" lon="5.94774">
        <ele>2210.4</ele>
        <time>2020-08-11T07:37:54Z</time>
      </trkpt>
      <trkpt lat="45.14724" lon="5.94775">
        <ele>2210.6</ele>
        <time>2020-08-11T07:37:55Z</time>
      </trkpt>
      <trkpt lat="45.14724" lon="5.94775">
        <ele>2210.6</ele>
        <time>2020-08-11T07:37:56Z</time>
      </trkpt>
      <trkpt lat="45.14724" lon="5.94776">
        <ele>2210.6</ele>
        <time>2020-08-11T07:37:57Z</time>
      </trkpt>
      <trkpt lat="45.14723" lon="5.94776">
        <ele>2210.6</ele>
        <time>2020-08-11T07:37:58Z</time>
      </trkpt>
      <trkpt lat="45.14723" lon="5.94777">
        <ele>2210.6</ele>
        <time>2020-08-11T07:37:59Z</time>
      </trkpt>
      <trkpt lat="45.14723" lon="5.94777">
        <ele>2210.6</ele>
        <time>2020-08-11T07:38:00Z</time>
      </trkpt>
      <trkpt lat="45.14723" lon="5.94778">
        <ele>2210.6</ele>
        <time>2020-08-11T07:38:01Z</time>
      </trkpt>
      <trkpt lat="45.14723" lon="5.94778">
        <ele>2210.6</ele>
        <time>2020-08-11T07:38:02Z</time>
      </trkpt>
      <trkpt lat="45.14722" lon="5.94778">
        <ele>2211</ele>
        <time>2020-08-11T07:38:03Z</time>
      </trkpt>
      <trkpt lat="45.14722" lon="5.94779">
        <ele>2211.4</ele>
        <time>2020-08-11T07:38:04Z</time>
      </trkpt>
      <trkpt lat="45.14722" lon="5.94779">
        <ele>2211.8</ele>
        <time>2020-08-11T07:38:05Z</time>
      </trkpt>
      <trkpt lat="45.14722" lon="5.9478">
        <ele>2212</ele>
        <time>2020-08-11T07:38:06Z</time>
      </trkpt>
      <trkpt lat="45.14722" lon="5.9478">
        <ele>2211.6</ele>
        <time>2020-08-11T07:38:07Z</time>
      </trkpt>
      <trkpt lat="45.14721" lon="5.94781">
        <ele>2211.4</ele>
        <time>2020-08-11T07:38:08Z</time>
      </trkpt>
      <trkpt lat="45.14721" lon="5.94781">
        <ele>2211.2</ele>
        <time>2020-08-11T07:38:09Z</time>
      </trkpt>
      <trkpt lat="45.14721" lon="5.94782">
        <ele>2211.2</ele>
        <time>2020-08-11T07:38:10Z</time>
      </trkpt>
      <trkpt lat="45.14721" lon="5.94782">
        <ele>2211</ele>
        <time>2020-08-11T07:38:11Z</time>
      </trkpt>
      <trkpt lat="45.14721" lon="5.94783">
        <ele>2210.8</ele>
        <time>2020-08-11T07:38:12Z</time>
      </trkpt>
      <trkpt lat="45.1472" lon="5.94783">
        <ele>2210.4</ele>
        <time>2020-08-11T07:38:13Z</time>
      </trkpt>
      <trkpt lat="45.1472" lon="5.94783">
        <ele>2209.6</ele>
        <time>2020-08-11T07:38:14Z</time>
      </trkpt>
      <trkpt lat="45.1472" lon="5.94784">
        <ele>2210</ele>
        <time>2020-08-11T07:38:15Z</time>
      </trkpt>
      <trkpt lat="45.1472" lon="5.94784">
        <ele>2209.8</ele>
        <time>2020-08-11T07:38:16Z</time>
      </trkpt>
      <trkpt lat="45.14718" lon="5.94786">
        <ele>2209.8</ele>
        <time>2020-08-11T07:38:17Z</time>
      </trkpt>
      <trkpt lat="45.14717" lon="5.94789">
        <ele>2210</ele>
        <time>2020-08-11T07:38:18Z</time>
      </trkpt>
      <trkpt lat="45.14715" lon="5.94791">
        <ele>2209.8</ele>
        <time>2020-08-11T07:38:19Z</time>
      </trkpt>
      <trkpt lat="45.14714" lon="5.94793">
        <ele>2209.6</ele>
        <time>2020-08-11T07:38:20Z</time>
      </trkpt>
      <trkpt lat="45.14712" lon="5.94795">
        <ele>2209</ele>
        <time>2020-08-11T07:38:21Z</time>
      </trkpt>
      <trkpt lat="45.14711" lon="5.94797">
        <ele>2209.4</ele>
        <time>2020-08-11T07:38:22Z</time>
      </trkpt>
      <trkpt lat="45.1471" lon="5.94799">
        <ele>2209.4</ele>
        <time>2020-08-11T07:38:23Z</time>
      </trkpt>
      <trkpt lat="45.1471" lon="5.94801">
        <ele>2209.6</ele>
        <time>2020-08-11T07:38:24Z</time>
      </trkpt>
      <trkpt lat="45.14709" lon="5.94803">
        <ele>2209.2</ele>
        <time>2020-08-11T07:38:25Z</time>
      </trkpt>
      <trkpt lat="45.14708" lon="5.94805">
        <ele>2208.8</ele>
        <time>2020-08-11T07:38:26Z</time>
      </trkpt>
      <trkpt lat="45.14707" lon="5.94806">
        <ele>2208.8</ele>
        <time>2020-08-11T07:38:27Z</time>
      </trkpt>
      <trkpt lat="45.14705" lon="5.94808">
        <ele>2208.8</ele>
        <time>2020-08-11T07:38:28Z</time>
      </trkpt>
      <trkpt lat="45.14704" lon="5.9481">
        <ele>2209.2</ele>
        <time>2020-08-11T07:38:29Z</time>
      </trkpt>
      <trkpt lat="45.14703" lon="5.94812">
        <ele>2209.2</ele>
        <time>2020-08-11T07:38:30Z</time>
      </trkpt>
      <trkpt lat="45.14702" lon="5.94814">
        <ele>2209.2</ele>
        <time>2020-08-11T07:38:31Z</time>
      </trkpt>
      <trkpt lat="45.14701" lon="5.94815">
        <ele>2208.8</ele>
        <time>2020-08-11T07:38:32Z</time>
      </trkpt>
      <trkpt lat="45.147" lon="5.94817">
        <ele>2208.4</ele>
        <time>2020-08-11T07:38:33Z</time>
      </trkpt>
      <trkpt lat="45.14698" lon="5.94818">
        <ele>2208.6</ele>
        <time>2020-08-11T07:38:34Z</time>
      </trkpt>
      <trkpt lat="45.14697" lon="5.9482">
        <ele>2208.6</ele>
        <time>2020-08-11T07:38:35Z</time>
      </trkpt>
      <trkpt lat="45.14695" lon="5.94821">
        <ele>2208.6</ele>
        <time>2020-08-11T07:38:36Z</time>
      </trkpt>
      <trkpt lat="45.14694" lon="5.94822">
        <ele>2208.6</ele>
        <time>2020-08-11T07:38:37Z</time>
      </trkpt>
      <trkpt lat="45.14692" lon="5.94823">
        <ele>2208.6</ele>
        <time>2020-08-11T07:38:38Z</time>
      </trkpt>
      <trkpt lat="45.14691" lon="5.94824">
        <ele>2208.2</ele>
        <time>2020-08-11T07:38:39Z</time>
      </trkpt>
      <trkpt lat="45.1469" lon="5.94825">
        <ele>2207.8</ele>
        <time>2020-08-11T07:38:40Z</time>
      </trkpt>
      <trkpt lat="45.14688" lon="5.94827">
        <ele>2207.6</ele>
        <time>2020-08-11T07:38:41Z</time>
      </trkpt>
      <trkpt lat="45.14685" lon="5.9483">
        <ele>2207.6</ele>
        <time>2020-08-11T07:38:42Z</time>
      </trkpt>
      <trkpt lat="45.14681" lon="5.94833">
        <ele>2207.4</ele>
        <time>2020-08-11T07:38:43Z</time>
      </trkpt>
      <trkpt lat="45.14678" lon="5.94836">
        <ele>2206.8</ele>
        <time>2020-08-11T07:38:44Z</time>
      </trkpt>
      <trkpt lat="45.14677" lon="5.94838">
        <ele>2206.4</ele>
        <time>2020-08-11T07:38:45Z</time>
      </trkpt>
      <trkpt lat="45.14676" lon="5.9484">
        <ele>2206.6</ele>
        <time>2020-08-11T07:38:46Z</time>
      </trkpt>
      <trkpt lat="45.14675" lon="5.94841">
        <ele>2206.4</ele>
        <time>2020-08-11T07:38:47Z</time>
      </trkpt>
      <trkpt lat="45.14675" lon="5.94842">
        <ele>2205.8</ele>
        <time>2020-08-11T07:38:48Z</time>
      </trkpt>
      <trkpt lat="45.14674" lon="5.94844">
        <ele>2205.8</ele>
        <time>2020-08-11T07:38:49Z</time>
      </trkpt>
      <trkpt lat="45.14673" lon="5.94845">
        <ele>2205.6</ele>
        <time>2020-08-11T07:38:50Z</time>
      </trkpt>
      <trkpt lat="45.14673" lon="5.94846">
        <ele>2205.4</ele>
        <time>2020-08-11T07:38:51Z</time>
      </trkpt>
      <trkpt lat="45.14672" lon="5.94848">
        <ele>2205.4</ele>
        <time>2020-08-11T07:38:52Z</time>
      </trkpt>
      <trkpt lat="45.14671" lon="5.94849">
        <ele>2204.6</ele>
        <time>2020-08-11T07:38:53Z</time>
      </trkpt>
      <trkpt lat="45.14671" lon="5.9485">
        <ele>2204.4</ele>
        <time>2020-08-11T07:38:54Z</time>
      </trkpt>
      <trkpt lat="45.1467" lon="5.94852">
        <ele>2204.6</ele>
        <time>2020-08-11T07:38:55Z</time>
      </trkpt>
      <trkpt lat="45.1467" lon="5.94853">
        <ele>2204.8</ele>
        <time>2020-08-11T07:38:56Z</time>
      </trkpt>
      <trkpt lat="45.14669" lon="5.94854">
        <ele>2204.6</ele>
        <time>2020-08-11T07:38:57Z</time>
      </trkpt>
      <trkpt lat="45.14668" lon="5.94855">
        <ele>2204.6</ele>
        <time>2020-08-11T07:38:58Z</time>
      </trkpt>
      <trkpt lat="45.14668" lon="5.94857">
        <ele>2204.6</ele>
        <time>2020-08-11T07:38:59Z</time>
      </trkpt>
      <trkpt lat="45.14667" lon="5.94858">
        <ele>2204.8</ele>
        <time>2020-08-11T07:39:00Z</time>
      </trkpt>
      <trkpt lat="45.14666" lon="5.94859">
        <ele>2205.2</ele>
        <time>2020-08-11T07:39:01Z</time>
      </trkpt>
      <trkpt lat="45.14666" lon="5.94861">
        <ele>2205.2</ele>
        <time>2020-08-11T07:39:02Z</time>
      </trkpt>
      <trkpt lat="45.14665" lon="5.94862">
        <ele>2205.6</ele>
        <time>2020-08-11T07:39:03Z</time>
      </trkpt>
      <trkpt lat="45.14664" lon="5.94863">
        <ele>2205.6</ele>
        <time>2020-08-11T07:39:04Z</time>
      </trkpt>
      <trkpt lat="45.1466" lon="5.94867">
        <ele>2206.2</ele>
        <time>2020-08-11T07:39:05Z</time>
      </trkpt>
      <trkpt lat="45.14655" lon="5.94872">
        <ele>2206</ele>
        <time>2020-08-11T07:39:06Z</time>
      </trkpt>
      <trkpt lat="45.14651" lon="5.94876">
        <ele>2206</ele>
        <time>2020-08-11T07:39:07Z</time>
      </trkpt>
      <trkpt lat="45.14646" lon="5.9488">
        <ele>2205.6</ele>
        <time>2020-08-11T07:39:08Z</time>
      </trkpt>
      <trkpt lat="45.14646" lon="5.9488">
        <ele>2205.4</ele>
        <time>2020-08-11T07:39:09Z</time>
      </trkpt>
      <trkpt lat="45.14644" lon="5.94883">
        <ele>2205.4</ele>
        <time>2020-08-11T07:39:10Z</time>
      </trkpt>
      <trkpt lat="45.14641" lon="5.94887">
        <ele>2205.4</ele>
        <time>2020-08-11T07:39:11Z</time>
      </trkpt>
      <trkpt lat="45.14639" lon="5.9489">
        <ele>2206</ele>
        <time>2020-08-11T07:39:12Z</time>
      </trkpt>
      <trkpt lat="45.14639" lon="5.94893">
        <ele>2206</ele>
        <time>2020-08-11T07:39:13Z</time>
      </trkpt>
      <trkpt lat="45.14639" lon="5.94895">
        <ele>2206.6</ele>
        <time>2020-08-11T07:39:14Z</time>
      </trkpt>
      <trkpt lat="45.14638" lon="5.94898">
        <ele>2206.6</ele>
        <time>2020-08-11T07:39:15Z</time>
      </trkpt>
      <trkpt lat="45.14638" lon="5.94901">
        <ele>2206.8</ele>
        <time>2020-08-11T07:39:16Z</time>
      </trkpt>
      <trkpt lat="45.14638" lon="5.94903">
        <ele>2206.6</ele>
        <time>2020-08-11T07:39:17Z</time>
      </trkpt>
      <trkpt lat="45.14638" lon="5.94906">
        <ele>2206.8</ele>
        <time>2020-08-11T07:39:18Z</time>
      </trkpt>
      <trkpt lat="45.14638" lon="5.94909">
        <ele>2206.2</ele>
        <time>2020-08-11T07:39:19Z</time>
      </trkpt>
      <trkpt lat="45.14638" lon="5.94913">
        <ele>2206.4</ele>
        <time>2020-08-11T07:39:20Z</time>
      </trkpt>
      <trkpt lat="45.14639" lon="5.94916">
        <ele>2206.4</ele>
        <time>2020-08-11T07:39:21Z</time>
      </trkpt>
      <trkpt lat="45.14639" lon="5.9492">
        <ele>2206.2</ele>
        <time>2020-08-11T07:39:22Z</time>
      </trkpt>
      <trkpt lat="45.14639" lon="5.94922">
        <ele>2206.4</ele>
        <time>2020-08-11T07:39:23Z</time>
      </trkpt>
      <trkpt lat="45.1464" lon="5.94925">
        <ele>2206.6</ele>
        <time>2020-08-11T07:39:24Z</time>
      </trkpt>
      <trkpt lat="45.14641" lon="5.94927">
        <ele>2206.8</ele>
        <time>2020-08-11T07:39:25Z</time>
      </trkpt>
      <trkpt lat="45.14641" lon="5.94929">
        <ele>2207</ele>
        <time>2020-08-11T07:39:26Z</time>
      </trkpt>
      <trkpt lat="45.14642" lon="5.94932">
        <ele>2206.8</ele>
        <time>2020-08-11T07:39:27Z</time>
      </trkpt>
      <trkpt lat="45.14643" lon="5.94934">
        <ele>2206.8</ele>
        <time>2020-08-11T07:39:28Z</time>
      </trkpt>
      <trkpt lat="45.14643" lon="5.94936">
        <ele>2207</ele>
        <time>2020-08-11T07:39:29Z</time>
      </trkpt>
      <trkpt lat="45.14643" lon="5.94937">
        <ele>2207.4</ele>
        <time>2020-08-11T07:39:30Z</time>
      </trkpt>
      <trkpt lat="45.14643" lon="5.94938">
        <ele>2207.6</ele>
        <time>2020-08-11T07:39:31Z</time>
      </trkpt>
      <trkpt lat="45.14643" lon="5.94939">
        <ele>2208</ele>
        <time>2020-08-11T07:39:32Z</time>
      </trkpt>
      <trkpt lat="45.14644" lon="5.94941">
        <ele>2207.8</ele>
        <time>2020-08-11T07:39:33Z</time>
      </trkpt>
      <trkpt lat="45.14644" lon="5.94942">
        <ele>2208</ele>
        <time>2020-08-11T07:39:34Z</time>
      </trkpt>
      <trkpt lat="45.14644" lon="5.94943">
        <ele>2208.4</ele>
        <time>2020-08-11T07:39:35Z</time>
      </trkpt>
      <trkpt lat="45.14644" lon="5.94944">
        <ele>2208.8</ele>
        <time>2020-08-11T07:39:36Z</time>
      </trkpt>
      <trkpt lat="45.14644" lon="5.94946">
        <ele>2209.2</ele>
        <time>2020-08-11T07:39:37Z</time>
      </trkpt>
      <trkpt lat="45.14645" lon="5.94947">
        <ele>2209.4</ele>
        <time>2020-08-11T07:39:38Z</time>
      </trkpt>
      <trkpt lat="45.14644" lon="5.94948">
        <ele>2209.4</ele>
        <time>2020-08-11T07:39:39Z</time>
      </trkpt>
      <trkpt lat="45.14644" lon="5.94949">
        <ele>2209.6</ele>
        <time>2020-08-11T07:39:40Z</time>
      </trkpt>
      <trkpt lat="45.14644" lon="5.9495">
        <ele>2209.8</ele>
        <time>2020-08-11T07:39:41Z</time>
      </trkpt>
      <trkpt lat="45.14644" lon="5.94952">
        <ele>2209.8</ele>
        <time>2020-08-11T07:39:42Z</time>
      </trkpt>
      <trkpt lat="45.14643" lon="5.94953">
        <ele>2210</ele>
        <time>2020-08-11T07:39:43Z</time>
      </trkpt>
      <trkpt lat="45.14643" lon="5.94954">
        <ele>2210.2</ele>
        <time>2020-08-11T07:39:44Z</time>
      </trkpt>
      <trkpt lat="45.14643" lon="5.94955">
        <ele>2210.6</ele>
        <time>2020-08-11T07:39:45Z</time>
      </trkpt>
      <trkpt lat="45.14643" lon="5.94956">
        <ele>2210.8</ele>
        <time>2020-08-11T07:39:46Z</time>
      </trkpt>
      <trkpt lat="45.14643" lon="5.94956">
        <ele>2211</ele>
        <time>2020-08-11T07:39:47Z</time>
      </trkpt>
      <trkpt lat="45.14643" lon="5.94956">
        <ele>2211.4</ele>
        <time>2020-08-11T07:39:48Z</time>
      </trkpt>
      <trkpt lat="45.14643" lon="5.94956">
        <ele>2211.4</ele>
        <time>2020-08-11T07:39:49Z</time>
      </trkpt>
      <trkpt lat="45.14643" lon="5.94956">
        <ele>2211.6</ele>
        <time>2020-08-11T07:39:50Z</time>
      </trkpt>
      <trkpt lat="45.14643" lon="5.94956">
        <ele>2211.8</ele>
        <time>2020-08-11T07:39:51Z</time>
      </trkpt>
      <trkpt lat="45.14643" lon="5.94961">
        <ele>2211.8</ele>
        <time>2020-08-11T07:39:52Z</time>
      </trkpt>
      <trkpt lat="45.14643" lon="5.94961">
        <ele>2212</ele>
        <time>2020-08-11T07:39:53Z</time>
      </trkpt>
      <trkpt lat="45.14643" lon="5.94961">
        <ele>2212</ele>
        <time>2020-08-11T07:39:54Z</time>
      </trkpt>
      <trkpt lat="45.14643" lon="5.94961">
        <ele>2212.2</ele>
        <time>2020-08-11T07:39:55Z</time>
      </trkpt>
      <trkpt lat="45.14643" lon="5.94961">
        <ele>2212.2</ele>
        <time>2020-08-11T07:39:56Z</time>
      </trkpt>
      <trkpt lat="45.14643" lon="5.94961">
        <ele>2212</ele>
        <time>2020-08-11T07:39:57Z</time>
      </trkpt>
      <trkpt lat="45.14643" lon="5.94961">
        <ele>2212.2</ele>
        <time>2020-08-11T07:39:58Z</time>
      </trkpt>
      <trkpt lat="45.14641" lon="5.94965">
        <ele>2212</ele>
        <time>2020-08-11T07:39:59Z</time>
      </trkpt>
      <trkpt lat="45.14641" lon="5.94965">
        <ele>2212</ele>
        <time>2020-08-11T07:40:01Z</time>
      </trkpt>
      <trkpt lat="45.14641" lon="5.94965">
        <ele>2212</ele>
        <time>2020-08-11T07:40:02Z</time>
      </trkpt>
      <trkpt lat="45.14641" lon="5.94968">
        <ele>2212</ele>
        <time>2020-08-11T07:40:03Z</time>
      </trkpt>
      <trkpt lat="45.14641" lon="5.94968">
        <ele>2211.8</ele>
        <time>2020-08-11T07:40:04Z</time>
      </trkpt>
      <trkpt lat="45.14641" lon="5.94968">
        <ele>2211.8</ele>
        <time>2020-08-11T07:40:05Z</time>
      </trkpt>
      <trkpt lat="45.14641" lon="5.94971">
        <ele>2211.4</ele>
        <time>2020-08-11T07:40:06Z</time>
      </trkpt>
      <trkpt lat="45.14641" lon="5.94971">
        <ele>2211.2</ele>
        <time>2020-08-11T07:40:07Z</time>
      </trkpt>
      <trkpt lat="45.14641" lon="5.94971">
        <ele>2211.4</ele>
        <time>2020-08-11T07:40:08Z</time>
      </trkpt>
      <trkpt lat="45.14641" lon="5.94973">
        <ele>2211.4</ele>
        <time>2020-08-11T07:40:09Z</time>
      </trkpt>
      <trkpt lat="45.14641" lon="5.94973">
        <ele>2211.6</ele>
        <time>2020-08-11T07:40:10Z</time>
      </trkpt>
      <trkpt lat="45.14641" lon="5.94973">
        <ele>2211.8</ele>
        <time>2020-08-11T07:40:11Z</time>
      </trkpt>
      <trkpt lat="45.1464" lon="5.94976">
        <ele>2212</ele>
        <time>2020-08-11T07:40:12Z</time>
      </trkpt>
      <trkpt lat="45.1464" lon="5.94978">
        <ele>2211.8</ele>
        <time>2020-08-11T07:40:13Z</time>
      </trkpt>
      <trkpt lat="45.1464" lon="5.9498">
        <ele>2212.2</ele>
        <time>2020-08-11T07:40:14Z</time>
      </trkpt>
      <trkpt lat="45.14639" lon="5.94982">
        <ele>2212.4</ele>
        <time>2020-08-11T07:40:15Z</time>
      </trkpt>
      <trkpt lat="45.14639" lon="5.94985">
        <ele>2212.4</ele>
        <time>2020-08-11T07:40:16Z</time>
      </trkpt>
      <trkpt lat="45.14639" lon="5.94985">
        <ele>2212.4</ele>
        <time>2020-08-11T07:40:17Z</time>
      </trkpt>
      <trkpt lat="45.14638" lon="5.94989">
        <ele>2212.4</ele>
        <time>2020-08-11T07:40:18Z</time>
      </trkpt>
      <trkpt lat="45.14638" lon="5.94989">
        <ele>2212.2</ele>
        <time>2020-08-11T07:40:19Z</time>
      </trkpt>
      <trkpt lat="45.14637" lon="5.94994">
        <ele>2212.2</ele>
        <time>2020-08-11T07:40:20Z</time>
      </trkpt>
      <trkpt lat="45.14637" lon="5.94994">
        <ele>2212</ele>
        <time>2020-08-11T07:40:21Z</time>
      </trkpt>
      <trkpt lat="45.14636" lon="5.94998">
        <ele>2211.8</ele>
        <time>2020-08-11T07:40:22Z</time>
      </trkpt>
      <trkpt lat="45.14636" lon="5.94998">
        <ele>2211.6</ele>
        <time>2020-08-11T07:40:23Z</time>
      </trkpt>
      <trkpt lat="45.14636" lon="5.94998">
        <ele>2211.6</ele>
        <time>2020-08-11T07:40:24Z</time>
      </trkpt>
      <trkpt lat="45.14635" lon="5.95001">
        <ele>2211.6</ele>
        <time>2020-08-11T07:40:25Z</time>
      </trkpt>
      <trkpt lat="45.14635" lon="5.95001">
        <ele>2211.6</ele>
        <time>2020-08-11T07:40:26Z</time>
      </trkpt>
      <trkpt lat="45.14634" lon="5.95004">
        <ele>2211.4</ele>
        <time>2020-08-11T07:40:27Z</time>
      </trkpt>
      <trkpt lat="45.14634" lon="5.95004">
        <ele>2211.6</ele>
        <time>2020-08-11T07:40:28Z</time>
      </trkpt>
      <trkpt lat="45.14634" lon="5.95004">
        <ele>2211.6</ele>
        <time>2020-08-11T07:40:29Z</time>
      </trkpt>
      <trkpt lat="45.14633" lon="5.95007">
        <ele>2211.4</ele>
        <time>2020-08-11T07:40:30Z</time>
      </trkpt>
      <trkpt lat="45.14633" lon="5.95007">
        <ele>2211.2</ele>
        <time>2020-08-11T07:40:31Z</time>
      </trkpt>
      <trkpt lat="45.14633" lon="5.95007">
        <ele>2211.2</ele>
        <time>2020-08-11T07:40:32Z</time>
      </trkpt>
      <trkpt lat="45.14633" lon="5.95007">
        <ele>2211.2</ele>
        <time>2020-08-11T07:40:33Z</time>
      </trkpt>
      <trkpt lat="45.14633" lon="5.95007">
        <ele>2211.4</ele>
        <time>2020-08-11T07:40:34Z</time>
      </trkpt>
      <trkpt lat="45.14632" lon="5.95009">
        <ele>2211.4</ele>
        <time>2020-08-11T07:40:35Z</time>
      </trkpt>
      <trkpt lat="45.14632" lon="5.95009">
        <ele>2211</ele>
        <time>2020-08-11T07:40:36Z</time>
      </trkpt>
      <trkpt lat="45.14632" lon="5.9501">
        <ele>2211</ele>
        <time>2020-08-11T07:40:37Z</time>
      </trkpt>
      <trkpt lat="45.14632" lon="5.95012">
        <ele>2211</ele>
        <time>2020-08-11T07:40:38Z</time>
      </trkpt>
      <trkpt lat="45.14632" lon="5.95013">
        <ele>2211.2</ele>
        <time>2020-08-11T07:40:39Z</time>
      </trkpt>
      <trkpt lat="45.14632" lon="5.95015">
        <ele>2211.2</ele>
        <time>2020-08-11T07:40:40Z</time>
      </trkpt>
      <trkpt lat="45.14631" lon="5.95016">
        <ele>2211.4</ele>
        <time>2020-08-11T07:40:41Z</time>
      </trkpt>
      <trkpt lat="45.14631" lon="5.95018">
        <ele>2211.4</ele>
        <time>2020-08-11T07:40:42Z</time>
      </trkpt>
      <trkpt lat="45.1463" lon="5.9502">
        <ele>2211.8</ele>
        <time>2020-08-11T07:40:43Z</time>
      </trkpt>
      <trkpt lat="45.14629" lon="5.95022">
        <ele>2211.6</ele>
        <time>2020-08-11T07:40:44Z</time>
      </trkpt>
      <trkpt lat="45.14629" lon="5.95024">
        <ele>2211.6</ele>
        <time>2020-08-11T07:40:45Z</time>
      </trkpt>
      <trkpt lat="45.14628" lon="5.95025">
        <ele>2211.6</ele>
        <time>2020-08-11T07:40:46Z</time>
      </trkpt>
      <trkpt lat="45.14627" lon="5.95026">
        <ele>2211.6</ele>
        <time>2020-08-11T07:40:47Z</time>
      </trkpt>
      <trkpt lat="45.14626" lon="5.95027">
        <ele>2211.6</ele>
        <time>2020-08-11T07:40:48Z</time>
      </trkpt>
      <trkpt lat="45.14626" lon="5.95028">
        <ele>2211.4</ele>
        <time>2020-08-11T07:40:49Z</time>
      </trkpt>
      <trkpt lat="45.14625" lon="5.95028">
        <ele>2211.4</ele>
        <time>2020-08-11T07:40:50Z</time>
      </trkpt>
      <trkpt lat="45.14624" lon="5.95029">
        <ele>2211.4</ele>
        <time>2020-08-11T07:40:51Z</time>
      </trkpt>
      <trkpt lat="45.14623" lon="5.9503">
        <ele>2211.4</ele>
        <time>2020-08-11T07:40:52Z</time>
      </trkpt>
      <trkpt lat="45.14623" lon="5.95031">
        <ele>2211.4</ele>
        <time>2020-08-11T07:40:53Z</time>
      </trkpt>
      <trkpt lat="45.14622" lon="5.95032">
        <ele>2211.4</ele>
        <time>2020-08-11T07:40:54Z</time>
      </trkpt>
      <trkpt lat="45.14621" lon="5.95032">
        <ele>2211.4</ele>
        <time>2020-08-11T07:40:55Z</time>
      </trkpt>
      <trkpt lat="45.14621" lon="5.95033">
        <ele>2211.6</ele>
        <time>2020-08-11T07:40:56Z</time>
      </trkpt>
      <trkpt lat="45.1462" lon="5.95034">
        <ele>2211.4</ele>
        <time>2020-08-11T07:40:57Z</time>
      </trkpt>
      <trkpt lat="45.14619" lon="5.95035">
        <ele>2211.6</ele>
        <time>2020-08-11T07:40:58Z</time>
      </trkpt>
      <trkpt lat="45.14618" lon="5.95036">
        <ele>2211.6</ele>
        <time>2020-08-11T07:40:59Z</time>
      </trkpt>
      <trkpt lat="45.14618" lon="5.95037">
        <ele>2211.6</ele>
        <time>2020-08-11T07:41:00Z</time>
      </trkpt>
      <trkpt lat="45.14617" lon="5.95038">
        <ele>2211.6</ele>
        <time>2020-08-11T07:41:01Z</time>
      </trkpt>
      <trkpt lat="45.14616" lon="5.95038">
        <ele>2211.8</ele>
        <time>2020-08-11T07:41:02Z</time>
      </trkpt>
      <trkpt lat="45.14615" lon="5.95039">
        <ele>2211.6</ele>
        <time>2020-08-11T07:41:03Z</time>
      </trkpt>
      <trkpt lat="45.14614" lon="5.9504">
        <ele>2211.6</ele>
        <time>2020-08-11T07:41:04Z</time>
      </trkpt>
      <trkpt lat="45.14614" lon="5.95041">
        <ele>2211.6</ele>
        <time>2020-08-11T07:41:05Z</time>
      </trkpt>
      <trkpt lat="45.14613" lon="5.95042">
        <ele>2211.6</ele>
        <time>2020-08-11T07:41:06Z</time>
      </trkpt>
      <trkpt lat="45.14611" lon="5.95043">
        <ele>2211.6</ele>
        <time>2020-08-11T07:41:07Z</time>
      </trkpt>
      <trkpt lat="45.1461" lon="5.95044">
        <ele>2211.8</ele>
        <time>2020-08-11T07:41:08Z</time>
      </trkpt>
      <trkpt lat="45.14608" lon="5.95045">
        <ele>2211.8</ele>
        <time>2020-08-11T07:41:09Z</time>
      </trkpt>
      <trkpt lat="45.14607" lon="5.95046">
        <ele>2211.6</ele>
        <time>2020-08-11T07:41:10Z</time>
      </trkpt>
      <trkpt lat="45.14605" lon="5.95047">
        <ele>2211.8</ele>
        <time>2020-08-11T07:41:11Z</time>
      </trkpt>
      <trkpt lat="45.14603" lon="5.95048">
        <ele>2211.8</ele>
        <time>2020-08-11T07:41:12Z</time>
      </trkpt>
      <trkpt lat="45.14603" lon="5.95048">
        <ele>2211.8</ele>
        <time>2020-08-11T07:41:13Z</time>
      </trkpt>
      <trkpt lat="45.14603" lon="5.95048">
        <ele>2211.8</ele>
        <time>2020-08-11T07:41:14Z</time>
      </trkpt>
      <trkpt lat="45.14603" lon="5.95048">
        <ele>2211.8</ele>
        <time>2020-08-11T07:41:15Z</time>
      </trkpt>
      <trkpt lat="45.14603" lon="5.95048">
        <ele>2211.8</ele>
        <time>2020-08-11T07:41:16Z</time>
      </trkpt>
      <trkpt lat="45.14603" lon="5.95048">
        <ele>2212</ele>
        <time>2020-08-11T07:41:17Z</time>
      </trkpt>
      <trkpt lat="45.14604" lon="5.95049">
        <ele>2212</ele>
        <time>2020-08-11T07:41:18Z</time>
      </trkpt>
      <trkpt lat="45.14604" lon="5.95049">
        <ele>2212.2</ele>
        <time>2020-08-11T07:41:19Z</time>
      </trkpt>
      <trkpt lat="45.14604" lon="5.95049">
        <ele>2212.2</ele>
        <time>2020-08-11T07:41:20Z</time>
      </trkpt>
      <trkpt lat="45.14604" lon="5.95049">
        <ele>2212.2</ele>
        <time>2020-08-11T07:41:21Z</time>
      </trkpt>
      <trkpt lat="45.14604" lon="5.95049">
        <ele>2212.2</ele>
        <time>2020-08-11T07:41:22Z</time>
      </trkpt>
      <trkpt lat="45.14604" lon="5.95049">
        <ele>2212.2</ele>
        <time>2020-08-11T07:41:23Z</time>
      </trkpt>
      <trkpt lat="45.14604" lon="5.95049">
        <ele>2212.2</ele>
        <time>2020-08-11T07:41:24Z</time>
      </trkpt>
      <trkpt lat="45.14604" lon="5.95049">
        <ele>2212</ele>
        <time>2020-08-11T07:41:25Z</time>
      </trkpt>
      <trkpt lat="45.14604" lon="5.95049">
        <ele>2212</ele>
        <time>2020-08-11T07:41:26Z</time>
      </trkpt>
      <trkpt lat="45.14604" lon="5.95049">
        <ele>2212.4</ele>
        <time>2020-08-11T07:41:27Z</time>
      </trkpt>
      <trkpt lat="45.14604" lon="5.95049">
        <ele>2212.8</ele>
        <time>2020-08-11T07:41:28Z</time>
      </trkpt>
      <trkpt lat="45.14604" lon="5.95049">
        <ele>2213.2</ele>
        <time>2020-08-11T07:41:29Z</time>
      </trkpt>
      <trkpt lat="45.14604" lon="5.95049">
        <ele>2213.6</ele>
        <time>2020-08-11T07:41:30Z</time>
      </trkpt>
      <trkpt lat="45.14604" lon="5.95049">
        <ele>2213</ele>
        <time>2020-08-11T07:41:31Z</time>
      </trkpt>
      <trkpt lat="45.14604" lon="5.95049">
        <ele>2212.8</ele>
        <time>2020-08-11T07:41:32Z</time>
      </trkpt>
      <trkpt lat="45.14604" lon="5.95049">
        <ele>2212.6</ele>
        <time>2020-08-11T07:41:33Z</time>
      </trkpt>
      <trkpt lat="45.14604" lon="5.95049">
        <ele>2212.4</ele>
        <time>2020-08-11T07:41:34Z</time>
      </trkpt>
      <trkpt lat="45.14604" lon="5.95049">
        <ele>2212.4</ele>
        <time>2020-08-11T07:41:35Z</time>
      </trkpt>
      <trkpt lat="45.14604" lon="5.9505">
        <ele>2212.4</ele>
        <time>2020-08-11T07:41:36Z</time>
      </trkpt>
      <trkpt lat="45.14604" lon="5.9505">
        <ele>2212.4</ele>
        <time>2020-08-11T07:41:37Z</time>
      </trkpt>
      <trkpt lat="45.14604" lon="5.9505">
        <ele>2212.2</ele>
        <time>2020-08-11T07:41:38Z</time>
      </trkpt>
      <trkpt lat="45.14604" lon="5.9505">
        <ele>2212.2</ele>
        <time>2020-08-11T07:41:39Z</time>
      </trkpt>
      <trkpt lat="45.14604" lon="5.9505">
        <ele>2212.2</ele>
        <time>2020-08-11T07:41:40Z</time>
      </trkpt>
      <trkpt lat="45.14604" lon="5.9505">
        <ele>2212</ele>
        <time>2020-08-11T07:41:41Z</time>
      </trkpt>
      <trkpt lat="45.14604" lon="5.9505">
        <ele>2212</ele>
        <time>2020-08-11T07:41:42Z</time>
      </trkpt>
      <trkpt lat="45.14604" lon="5.9505">
        <ele>2212.4</ele>
        <time>2020-08-11T07:41:43Z</time>
      </trkpt>
      <trkpt lat="45.14604" lon="5.9505">
        <ele>2212.6</ele>
        <time>2020-08-11T07:41:44Z</time>
      </trkpt>
      <trkpt lat="45.14604" lon="5.9505">
        <ele>2212.4</ele>
        <time>2020-08-11T07:41:45Z</time>
      </trkpt>
      <trkpt lat="45.14604" lon="5.9505">
        <ele>2212.2</ele>
        <time>2020-08-11T07:41:46Z</time>
      </trkpt>
      <trkpt lat="45.14604" lon="5.9505">
        <ele>2212.2</ele>
        <time>2020-08-11T07:41:47Z</time>
      </trkpt>
      <trkpt lat="45.14604" lon="5.9505">
        <ele>2212.2</ele>
        <time>2020-08-11T07:41:48Z</time>
      </trkpt>
      <trkpt lat="45.14604" lon="5.9505">
        <ele>2212.2</ele>
        <time>2020-08-11T07:41:49Z</time>
      </trkpt>
      <trkpt lat="45.14604" lon="5.9505">
        <ele>2212.2</ele>
        <time>2020-08-11T07:41:50Z</time>
      </trkpt>
      <trkpt lat="45.14604" lon="5.9505">
        <ele>2212.2</ele>
        <time>2020-08-11T07:41:51Z</time>
      </trkpt>
      <trkpt lat="45.14604" lon="5.9505">
        <ele>2212.2</ele>
        <time>2020-08-11T07:41:52Z</time>
      </trkpt>
      <trkpt lat="45.14604" lon="5.9505">
        <ele>2212.4</ele>
        <time>2020-08-11T07:41:53Z</time>
      </trkpt>
      <trkpt lat="45.14604" lon="5.95051">
        <ele>2212.6</ele>
        <time>2020-08-11T07:41:54Z</time>
      </trkpt>
      <trkpt lat="45.14604" lon="5.95051">
        <ele>2212.6</ele>
        <time>2020-08-11T07:41:55Z</time>
      </trkpt>
      <trkpt lat="45.14604" lon="5.95051">
        <ele>2212.4</ele>
        <time>2020-08-11T07:41:56Z</time>
      </trkpt>
      <trkpt lat="45.14604" lon="5.95051">
        <ele>2212.6</ele>
        <time>2020-08-11T07:41:57Z</time>
      </trkpt>
      <trkpt lat="45.14604" lon="5.95051">
        <ele>2212.6</ele>
        <time>2020-08-11T07:41:58Z</time>
      </trkpt>
      <trkpt lat="45.14604" lon="5.95051">
        <ele>2212.4</ele>
        <time>2020-08-11T07:41:59Z</time>
      </trkpt>
      <trkpt lat="45.14604" lon="5.95051">
        <ele>2212.4</ele>
        <time>2020-08-11T07:42:00Z</time>
      </trkpt>
      <trkpt lat="45.14604" lon="5.95051">
        <ele>2212.4</ele>
        <time>2020-08-11T07:42:01Z</time>
      </trkpt>
      <trkpt lat="45.14604" lon="5.95051">
        <ele>2212.4</ele>
        <time>2020-08-11T07:42:02Z</time>
      </trkpt>
      <trkpt lat="45.14604" lon="5.95051">
        <ele>2212</ele>
        <time>2020-08-11T07:42:03Z</time>
      </trkpt>
      <trkpt lat="45.14604" lon="5.95051">
        <ele>2212.2</ele>
        <time>2020-08-11T07:42:04Z</time>
      </trkpt>
      <trkpt lat="45.14601" lon="5.95051">
        <ele>2212.2</ele>
        <time>2020-08-11T07:42:05Z</time>
      </trkpt>
      <trkpt lat="45.14598" lon="5.95051">
        <ele>2212.2</ele>
        <time>2020-08-11T07:42:06Z</time>
      </trkpt>
      <trkpt lat="45.14596" lon="5.95051">
        <ele>2212.2</ele>
        <time>2020-08-11T07:42:07Z</time>
      </trkpt>
      <trkpt lat="45.14593" lon="5.95051">
        <ele>2212.2</ele>
        <time>2020-08-11T07:42:08Z</time>
      </trkpt>
      <trkpt lat="45.14591" lon="5.95052">
        <ele>2212.2</ele>
        <time>2020-08-11T07:42:09Z</time>
      </trkpt>
      <trkpt lat="45.1459" lon="5.95054">
        <ele>2212.2</ele>
        <time>2020-08-11T07:42:10Z</time>
      </trkpt>
      <trkpt lat="45.14589" lon="5.95055">
        <ele>2212.2</ele>
        <time>2020-08-11T07:42:11Z</time>
      </trkpt>
      <trkpt lat="45.14587" lon="5.95057">
        <ele>2212.4</ele>
        <time>2020-08-11T07:42:12Z</time>
      </trkpt>
      <trkpt lat="45.14586" lon="5.95059">
        <ele>2212.4</ele>
        <time>2020-08-11T07:42:13Z</time>
      </trkpt>
      <trkpt lat="45.14584" lon="5.9506">
        <ele>2212.4</ele>
        <time>2020-08-11T07:42:14Z</time>
      </trkpt>
      <trkpt lat="45.14583" lon="5.95061">
        <ele>2212.4</ele>
        <time>2020-08-11T07:42:15Z</time>
      </trkpt>
      <trkpt lat="45.14582" lon="5.95062">
        <ele>2212.4</ele>
        <time>2020-08-11T07:42:16Z</time>
      </trkpt>
      <trkpt lat="45.14581" lon="5.95064">
        <ele>2212.4</ele>
        <time>2020-08-11T07:42:17Z</time>
      </trkpt>
      <trkpt lat="45.1458" lon="5.95065">
        <ele>2212.4</ele>
        <time>2020-08-11T07:42:18Z</time>
      </trkpt>
      <trkpt lat="45.14579" lon="5.95066">
        <ele>2212.4</ele>
        <time>2020-08-11T07:42:19Z</time>
      </trkpt>
      <trkpt lat="45.14578" lon="5.95067">
        <ele>2212.6</ele>
        <time>2020-08-11T07:42:20Z</time>
      </trkpt>
      <trkpt lat="45.14577" lon="5.95067">
        <ele>2212.6</ele>
        <time>2020-08-11T07:42:21Z</time>
      </trkpt>
      <trkpt lat="45.14576" lon="5.95066">
        <ele>2212.6</ele>
        <time>2020-08-11T07:42:22Z</time>
      </trkpt>
      <trkpt lat="45.14575" lon="5.95066">
        <ele>2212.4</ele>
        <time>2020-08-11T07:42:23Z</time>
      </trkpt>
      <trkpt lat="45.14574" lon="5.95065">
        <ele>2212.4</ele>
        <time>2020-08-11T07:42:24Z</time>
      </trkpt>
      <trkpt lat="45.14573" lon="5.95065">
        <ele>2212.4</ele>
        <time>2020-08-11T07:42:25Z</time>
      </trkpt>
      <trkpt lat="45.14572" lon="5.95064">
        <ele>2212.4</ele>
        <time>2020-08-11T07:42:26Z</time>
      </trkpt>
      <trkpt lat="45.14571" lon="5.95064">
        <ele>2212.2</ele>
        <time>2020-08-11T07:42:27Z</time>
      </trkpt>
      <trkpt lat="45.1457" lon="5.95064">
        <ele>2212.2</ele>
        <time>2020-08-11T07:42:28Z</time>
      </trkpt>
      <trkpt lat="45.14569" lon="5.95063">
        <ele>2212.4</ele>
        <time>2020-08-11T07:42:29Z</time>
      </trkpt>
      <trkpt lat="45.14568" lon="5.95063">
        <ele>2212.6</ele>
        <time>2020-08-11T07:42:30Z</time>
      </trkpt>
      <trkpt lat="45.14567" lon="5.95062">
        <ele>2212.6</ele>
        <time>2020-08-11T07:42:31Z</time>
      </trkpt>
      <trkpt lat="45.14568" lon="5.95063">
        <ele>2212.6</ele>
        <time>2020-08-11T07:42:32Z</time>
      </trkpt>
      <trkpt lat="45.14569" lon="5.95063">
        <ele>2212.6</ele>
        <time>2020-08-11T07:42:33Z</time>
      </trkpt>
      <trkpt lat="45.14569" lon="5.95063">
        <ele>2212.6</ele>
        <time>2020-08-11T07:42:34Z</time>
      </trkpt>
      <trkpt lat="45.1457" lon="5.95064">
        <ele>2212.6</ele>
        <time>2020-08-11T07:42:35Z</time>
      </trkpt>
      <trkpt lat="45.1457" lon="5.95064">
        <ele>2212.6</ele>
        <time>2020-08-11T07:42:36Z</time>
      </trkpt>
      <trkpt lat="45.14571" lon="5.95065">
        <ele>2212.8</ele>
        <time>2020-08-11T07:42:37Z</time>
      </trkpt>
      <trkpt lat="45.14572" lon="5.95065">
        <ele>2212.6</ele>
        <time>2020-08-11T07:42:38Z</time>
      </trkpt>
      <trkpt lat="45.14572" lon="5.95065">
        <ele>2212.8</ele>
        <time>2020-08-11T07:42:39Z</time>
      </trkpt>
      <trkpt lat="45.14573" lon="5.95066">
        <ele>2212.6</ele>
        <time>2020-08-11T07:42:40Z</time>
      </trkpt>
      <trkpt lat="45.14573" lon="5.95066">
        <ele>2212.8</ele>
        <time>2020-08-11T07:42:41Z</time>
      </trkpt>
      <trkpt lat="45.14574" lon="5.95067">
        <ele>2212.8</ele>
        <time>2020-08-11T07:42:42Z</time>
      </trkpt>
      <trkpt lat="45.14574" lon="5.95067">
        <ele>2212.8</ele>
        <time>2020-08-11T07:42:43Z</time>
      </trkpt>
      <trkpt lat="45.14575" lon="5.95067">
        <ele>2212.6</ele>
        <time>2020-08-11T07:42:44Z</time>
      </trkpt>
      <trkpt lat="45.14576" lon="5.95068">
        <ele>2212.8</ele>
        <time>2020-08-11T07:42:45Z</time>
      </trkpt>
      <trkpt lat="45.14577" lon="5.95069">
        <ele>2212.8</ele>
        <time>2020-08-11T07:42:46Z</time>
      </trkpt>
      <trkpt lat="45.14578" lon="5.95071">
        <ele>2212.8</ele>
        <time>2020-08-11T07:42:47Z</time>
      </trkpt>
      <trkpt lat="45.14579" lon="5.95073">
        <ele>2212.8</ele>
        <time>2020-08-11T07:42:48Z</time>
      </trkpt>
      <trkpt lat="45.1458" lon="5.95075">
        <ele>2212.8</ele>
        <time>2020-08-11T07:42:49Z</time>
      </trkpt>
      <trkpt lat="45.14581" lon="5.95076">
        <ele>2212.8</ele>
        <time>2020-08-11T07:42:50Z</time>
      </trkpt>
      <trkpt lat="45.14582" lon="5.95078">
        <ele>2213</ele>
        <time>2020-08-11T07:42:51Z</time>
      </trkpt>
      <trkpt lat="45.14582" lon="5.95078">
        <ele>2213</ele>
        <time>2020-08-11T07:42:52Z</time>
      </trkpt>
      <trkpt lat="45.14582" lon="5.95079">
        <ele>2213</ele>
        <time>2020-08-11T07:42:53Z</time>
      </trkpt>
      <trkpt lat="45.14582" lon="5.95079">
        <ele>2213</ele>
        <time>2020-08-11T07:42:54Z</time>
      </trkpt>
      <trkpt lat="45.14581" lon="5.95079">
        <ele>2213</ele>
        <time>2020-08-11T07:42:55Z</time>
      </trkpt>
      <trkpt lat="45.14581" lon="5.9508">
        <ele>2213</ele>
        <time>2020-08-11T07:42:56Z</time>
      </trkpt>
      <trkpt lat="45.14581" lon="5.9508">
        <ele>2213.2</ele>
        <time>2020-08-11T07:42:57Z</time>
      </trkpt>
      <trkpt lat="45.1458" lon="5.9508">
        <ele>2213.2</ele>
        <time>2020-08-11T07:42:58Z</time>
      </trkpt>
      <trkpt lat="45.1458" lon="5.9508">
        <ele>2213.2</ele>
        <time>2020-08-11T07:42:59Z</time>
      </trkpt>
      <trkpt lat="45.1458" lon="5.95081">
        <ele>2213.2</ele>
        <time>2020-08-11T07:43:00Z</time>
      </trkpt>
      <trkpt lat="45.14579" lon="5.95081">
        <ele>2213.2</ele>
        <time>2020-08-11T07:43:01Z</time>
      </trkpt>
      <trkpt lat="45.14579" lon="5.95081">
        <ele>2213.2</ele>
        <time>2020-08-11T07:43:02Z</time>
      </trkpt>
      <trkpt lat="45.14579" lon="5.95082">
        <ele>2213.2</ele>
        <time>2020-08-11T07:43:03Z</time>
      </trkpt>
      <trkpt lat="45.14578" lon="5.95082">
        <ele>2213.2</ele>
        <time>2020-08-11T07:43:04Z</time>
      </trkpt>
      <trkpt lat="45.14578" lon="5.95082">
        <ele>2213.2</ele>
        <time>2020-08-11T07:43:05Z</time>
      </trkpt>
      <trkpt lat="45.14578" lon="5.95083">
        <ele>2213.2</ele>
        <time>2020-08-11T07:43:06Z</time>
      </trkpt>
      <trkpt lat="45.14577" lon="5.95083">
        <ele>2213.2</ele>
        <time>2020-08-11T07:43:07Z</time>
      </trkpt>
      <trkpt lat="45.14577" lon="5.95083">
        <ele>2213.2</ele>
        <time>2020-08-11T07:43:08Z</time>
      </trkpt>
      <trkpt lat="45.14577" lon="5.95083">
        <ele>2213.4</ele>
        <time>2020-08-11T07:43:09Z</time>
      </trkpt>
      <trkpt lat="45.14577" lon="5.95084">
        <ele>2213.4</ele>
        <time>2020-08-11T07:43:10Z</time>
      </trkpt>
      <trkpt lat="45.14576" lon="5.95084">
        <ele>2213.4</ele>
        <time>2020-08-11T07:43:11Z</time>
      </trkpt>
      <trkpt lat="45.14576" lon="5.95084">
        <ele>2213.4</ele>
        <time>2020-08-11T07:43:12Z</time>
      </trkpt>
      <trkpt lat="45.14576" lon="5.95085">
        <ele>2213.2</ele>
        <time>2020-08-11T07:43:13Z</time>
      </trkpt>
      <trkpt lat="45.14575" lon="5.95085">
        <ele>2213.2</ele>
        <time>2020-08-11T07:43:14Z</time>
      </trkpt>
      <trkpt lat="45.14575" lon="5.95085">
        <ele>2213.2</ele>
        <time>2020-08-11T07:43:15Z</time>
      </trkpt>
      <trkpt lat="45.14575" lon="5.95085">
        <ele>2213</ele>
        <time>2020-08-11T07:43:16Z</time>
      </trkpt>
      <trkpt lat="45.14574" lon="5.95086">
        <ele>2213</ele>
        <time>2020-08-11T07:43:17Z</time>
      </trkpt>
      <trkpt lat="45.14574" lon="5.95086">
        <ele>2212.8</ele>
        <time>2020-08-11T07:43:18Z</time>
      </trkpt>
      <trkpt lat="45.14574" lon="5.95086">
        <ele>2213</ele>
        <time>2020-08-11T07:43:19Z</time>
      </trkpt>
      <trkpt lat="45.14573" lon="5.95087">
        <ele>2213</ele>
        <time>2020-08-11T07:43:20Z</time>
      </trkpt>
      <trkpt lat="45.14573" lon="5.95087">
        <ele>2213.6</ele>
        <time>2020-08-11T07:43:21Z</time>
      </trkpt>
      <trkpt lat="45.14574" lon="5.95088">
        <ele>2213.8</ele>
        <time>2020-08-11T07:43:22Z</time>
      </trkpt>
      <trkpt lat="45.14574" lon="5.95089">
        <ele>2213.8</ele>
        <time>2020-08-11T07:43:23Z</time>
      </trkpt>
      <trkpt lat="45.14575" lon="5.95091">
        <ele>2213.6</ele>
        <time>2020-08-11T07:43:24Z</time>
      </trkpt>
      <trkpt lat="45.14575" lon="5.95092">
        <ele>2213.6</ele>
        <time>2020-08-11T07:43:25Z</time>
      </trkpt>
      <trkpt lat="45.14576" lon="5.95093">
        <ele>2213.4</ele>
        <time>2020-08-11T07:43:26Z</time>
      </trkpt>
      <trkpt lat="45.14576" lon="5.95094">
        <ele>2213.6</ele>
        <time>2020-08-11T07:43:27Z</time>
      </trkpt>
      <trkpt lat="45.14577" lon="5.95095">
        <ele>2213.8</ele>
        <time>2020-08-11T07:43:28Z</time>
      </trkpt>
      <trkpt lat="45.14578" lon="5.95097">
        <ele>2213.6</ele>
        <time>2020-08-11T07:43:29Z</time>
      </trkpt>
      <trkpt lat="45.14578" lon="5.95098">
        <ele>2213.8</ele>
        <time>2020-08-11T07:43:30Z</time>
      </trkpt>
      <trkpt lat="45.14579" lon="5.95099">
        <ele>2213.6</ele>
        <time>2020-08-11T07:43:31Z</time>
      </trkpt>
      <trkpt lat="45.14579" lon="5.95099">
        <ele>2213.8</ele>
        <time>2020-08-11T07:43:32Z</time>
      </trkpt>
      <trkpt lat="45.14579" lon="5.951">
        <ele>2213.6</ele>
        <time>2020-08-11T07:43:33Z</time>
      </trkpt>
      <trkpt lat="45.14579" lon="5.951">
        <ele>2213.6</ele>
        <time>2020-08-11T07:43:34Z</time>
      </trkpt>
      <trkpt lat="45.14579" lon="5.95101">
        <ele>2213.6</ele>
        <time>2020-08-11T07:43:35Z</time>
      </trkpt>
      <trkpt lat="45.14579" lon="5.95101">
        <ele>2213.4</ele>
        <time>2020-08-11T07:43:36Z</time>
      </trkpt>
      <trkpt lat="45.14579" lon="5.95101">
        <ele>2213.4</ele>
        <time>2020-08-11T07:43:37Z</time>
      </trkpt>
      <trkpt lat="45.14579" lon="5.95102">
        <ele>2213.4</ele>
        <time>2020-08-11T07:43:38Z</time>
      </trkpt>
      <trkpt lat="45.14579" lon="5.95102">
        <ele>2213.2</ele>
        <time>2020-08-11T07:43:39Z</time>
      </trkpt>
      <trkpt lat="45.14579" lon="5.95103">
        <ele>2213.4</ele>
        <time>2020-08-11T07:43:40Z</time>
      </trkpt>
      <trkpt lat="45.14579" lon="5.95103">
        <ele>2213.6</ele>
        <time>2020-08-11T07:43:41Z</time>
      </trkpt>
      <trkpt lat="45.14579" lon="5.95103">
        <ele>2213.6</ele>
        <time>2020-08-11T07:43:42Z</time>
      </trkpt>
      <trkpt lat="45.14579" lon="5.95104">
        <ele>2213.6</ele>
        <time>2020-08-11T07:43:43Z</time>
      </trkpt>
      <trkpt lat="45.14579" lon="5.95104">
        <ele>2213.4</ele>
        <time>2020-08-11T07:43:44Z</time>
      </trkpt>
      <trkpt lat="45.14579" lon="5.95105">
        <ele>2213.4</ele>
        <time>2020-08-11T07:43:45Z</time>
      </trkpt>
      <trkpt lat="45.14579" lon="5.95105">
        <ele>2213.4</ele>
        <time>2020-08-11T07:43:46Z</time>
      </trkpt>
      <trkpt lat="45.14579" lon="5.95105">
        <ele>2213.4</ele>
        <time>2020-08-11T07:43:47Z</time>
      </trkpt>
      <trkpt lat="45.14579" lon="5.95106">
        <ele>2213.4</ele>
        <time>2020-08-11T07:43:48Z</time>
      </trkpt>
      <trkpt lat="45.14579" lon="5.95106">
        <ele>2213.4</ele>
        <time>2020-08-11T07:43:49Z</time>
      </trkpt>
      <trkpt lat="45.14579" lon="5.95107">
        <ele>2213.6</ele>
        <time>2020-08-11T07:43:50Z</time>
      </trkpt>
      <trkpt lat="45.1458" lon="5.95107">
        <ele>2213.4</ele>
        <time>2020-08-11T07:43:51Z</time>
      </trkpt>
      <trkpt lat="45.1458" lon="5.95107">
        <ele>2213.4</ele>
        <time>2020-08-11T07:43:52Z</time>
      </trkpt>
      <trkpt lat="45.1458" lon="5.95108">
        <ele>2213.6</ele>
        <time>2020-08-11T07:43:53Z</time>
      </trkpt>
      <trkpt lat="45.1458" lon="5.95108">
        <ele>2214.2</ele>
        <time>2020-08-11T07:43:54Z</time>
      </trkpt>
      <trkpt lat="45.1458" lon="5.95109">
        <ele>2214.4</ele>
        <time>2020-08-11T07:43:55Z</time>
      </trkpt>
      <trkpt lat="45.1458" lon="5.95109">
        <ele>2214.4</ele>
        <time>2020-08-11T07:43:56Z</time>
      </trkpt>
      <trkpt lat="45.1458" lon="5.9511">
        <ele>2214.4</ele>
        <time>2020-08-11T07:43:57Z</time>
      </trkpt>
      <trkpt lat="45.1458" lon="5.9511">
        <ele>2214.4</ele>
        <time>2020-08-11T07:43:58Z</time>
      </trkpt>
      <trkpt lat="45.1458" lon="5.9511">
        <ele>2214.2</ele>
        <time>2020-08-11T07:43:59Z</time>
      </trkpt>
      <trkpt lat="45.1458" lon="5.95111">
        <ele>2214.2</ele>
        <time>2020-08-11T07:44:00Z</time>
      </trkpt>
      <trkpt lat="45.1458" lon="5.95111">
        <ele>2214.2</ele>
        <time>2020-08-11T07:44:01Z</time>
      </trkpt>
      <trkpt lat="45.1458" lon="5.95112">
        <ele>2214.2</ele>
        <time>2020-08-11T07:44:02Z</time>
      </trkpt>
      <trkpt lat="45.1458" lon="5.95112">
        <ele>2214.2</ele>
        <time>2020-08-11T07:44:03Z</time>
      </trkpt>
      <trkpt lat="45.1458" lon="5.95112">
        <ele>2214.4</ele>
        <time>2020-08-11T07:44:04Z</time>
      </trkpt>
      <trkpt lat="45.1458" lon="5.95113">
        <ele>2214.4</ele>
        <time>2020-08-11T07:44:05Z</time>
      </trkpt>
      <trkpt lat="45.1458" lon="5.95116">
        <ele>2214.6</ele>
        <time>2020-08-11T07:44:06Z</time>
      </trkpt>
      <trkpt lat="45.14581" lon="5.95118">
        <ele>2214.8</ele>
        <time>2020-08-11T07:44:07Z</time>
      </trkpt>
      <trkpt lat="45.14581" lon="5.95121">
        <ele>2214.8</ele>
        <time>2020-08-11T07:44:08Z</time>
      </trkpt>
      <trkpt lat="45.14581" lon="5.95124">
        <ele>2215</ele>
        <time>2020-08-11T07:44:09Z</time>
      </trkpt>
      <trkpt lat="45.14582" lon="5.95127">
        <ele>2215.2</ele>
        <time>2020-08-11T07:44:10Z</time>
      </trkpt>
      <trkpt lat="45.14582" lon="5.95128">
        <ele>2215.4</ele>
        <time>2020-08-11T07:44:11Z</time>
      </trkpt>
      <trkpt lat="45.14582" lon="5.95129">
        <ele>2215.4</ele>
        <time>2020-08-11T07:44:12Z</time>
      </trkpt>
      <trkpt lat="45.14582" lon="5.95131">
        <ele>2215.4</ele>
        <time>2020-08-11T07:44:13Z</time>
      </trkpt>
      <trkpt lat="45.14582" lon="5.95132">
        <ele>2215.6</ele>
        <time>2020-08-11T07:44:14Z</time>
      </trkpt>
      <trkpt lat="45.14582" lon="5.95133">
        <ele>2215.8</ele>
        <time>2020-08-11T07:44:15Z</time>
      </trkpt>
      <trkpt lat="45.14582" lon="5.95134">
        <ele>2215.8</ele>
        <time>2020-08-11T07:44:16Z</time>
      </trkpt>
      <trkpt lat="45.14582" lon="5.95136">
        <ele>2215.8</ele>
        <time>2020-08-11T07:44:17Z</time>
      </trkpt>
      <trkpt lat="45.14582" lon="5.95137">
        <ele>2215.8</ele>
        <time>2020-08-11T07:44:18Z</time>
      </trkpt>
      <trkpt lat="45.14582" lon="5.95138">
        <ele>2216</ele>
        <time>2020-08-11T07:44:19Z</time>
      </trkpt>
      <trkpt lat="45.14582" lon="5.9514">
        <ele>2216.2</ele>
        <time>2020-08-11T07:44:20Z</time>
      </trkpt>
      <trkpt lat="45.14582" lon="5.95141">
        <ele>2216.6</ele>
        <time>2020-08-11T07:44:21Z</time>
      </trkpt>
      <trkpt lat="45.14583" lon="5.95142">
        <ele>2216.6</ele>
        <time>2020-08-11T07:44:22Z</time>
      </trkpt>
      <trkpt lat="45.14583" lon="5.95144">
        <ele>2216.8</ele>
        <time>2020-08-11T07:44:23Z</time>
      </trkpt>
      <trkpt lat="45.14583" lon="5.95145">
        <ele>2217</ele>
        <time>2020-08-11T07:44:24Z</time>
      </trkpt>
      <trkpt lat="45.14584" lon="5.95146">
        <ele>2217.4</ele>
        <time>2020-08-11T07:44:25Z</time>
      </trkpt>
      <trkpt lat="45.14584" lon="5.95148">
        <ele>2217.4</ele>
        <time>2020-08-11T07:44:26Z</time>
      </trkpt>
      <trkpt lat="45.14584" lon="5.95149">
        <ele>2217.4</ele>
        <time>2020-08-11T07:44:27Z</time>
      </trkpt>
      <trkpt lat="45.14585" lon="5.9515">
        <ele>2217.6</ele>
        <time>2020-08-11T07:44:28Z</time>
      </trkpt>
      <trkpt lat="45.14585" lon="5.95152">
        <ele>2218</ele>
        <time>2020-08-11T07:44:29Z</time>
      </trkpt>
      <trkpt lat="45.14585" lon="5.95153">
        <ele>2218.2</ele>
        <time>2020-08-11T07:44:30Z</time>
      </trkpt>
      <trkpt lat="45.14586" lon="5.95154">
        <ele>2218.2</ele>
        <time>2020-08-11T07:44:31Z</time>
      </trkpt>
      <trkpt lat="45.14586" lon="5.95155">
        <ele>2218.4</ele>
        <time>2020-08-11T07:44:32Z</time>
      </trkpt>
      <trkpt lat="45.14587" lon="5.95155">
        <ele>2218.4</ele>
        <time>2020-08-11T07:44:33Z</time>
      </trkpt>
      <trkpt lat="45.14588" lon="5.95156">
        <ele>2218.8</ele>
        <time>2020-08-11T07:44:34Z</time>
      </trkpt>
      <trkpt lat="45.14588" lon="5.95157">
        <ele>2219.2</ele>
        <time>2020-08-11T07:44:35Z</time>
      </trkpt>
      <trkpt lat="45.14589" lon="5.95158">
        <ele>2219.2</ele>
        <time>2020-08-11T07:44:36Z</time>
      </trkpt>
      <trkpt lat="45.14589" lon="5.95159">
        <ele>2219.2</ele>
        <time>2020-08-11T07:44:37Z</time>
      </trkpt>
      <trkpt lat="45.1459" lon="5.9516">
        <ele>2219.4</ele>
        <time>2020-08-11T07:44:38Z</time>
      </trkpt>
      <trkpt lat="45.1459" lon="5.95161">
        <ele>2219.8</ele>
        <time>2020-08-11T07:44:39Z</time>
      </trkpt>
      <trkpt lat="45.14591" lon="5.95161">
        <ele>2220</ele>
        <time>2020-08-11T07:44:40Z</time>
      </trkpt>
      <trkpt lat="45.14591" lon="5.95162">
        <ele>2220.2</ele>
        <time>2020-08-11T07:44:41Z</time>
      </trkpt>
      <trkpt lat="45.14592" lon="5.95163">
        <ele>2220.4</ele>
        <time>2020-08-11T07:44:42Z</time>
      </trkpt>
      <trkpt lat="45.14592" lon="5.95165">
        <ele>2220.6</ele>
        <time>2020-08-11T07:44:43Z</time>
      </trkpt>
      <trkpt lat="45.14591" lon="5.95167">
        <ele>2220.6</ele>
        <time>2020-08-11T07:44:44Z</time>
      </trkpt>
      <trkpt lat="45.14591" lon="5.95169">
        <ele>2220.6</ele>
        <time>2020-08-11T07:44:45Z</time>
      </trkpt>
      <trkpt lat="45.14591" lon="5.95171">
        <ele>2221</ele>
        <time>2020-08-11T07:44:46Z</time>
      </trkpt>
      <trkpt lat="45.14591" lon="5.95174">
        <ele>2221</ele>
        <time>2020-08-11T07:44:47Z</time>
      </trkpt>
      <trkpt lat="45.14591" lon="5.95176">
        <ele>2221.2</ele>
        <time>2020-08-11T07:44:48Z</time>
      </trkpt>
      <trkpt lat="45.14591" lon="5.95178">
        <ele>2221.4</ele>
        <time>2020-08-11T07:44:49Z</time>
      </trkpt>
      <trkpt lat="45.1459" lon="5.9518">
        <ele>2221.4</ele>
        <time>2020-08-11T07:44:50Z</time>
      </trkpt>
      <trkpt lat="45.1459" lon="5.95181">
        <ele>2221.6</ele>
        <time>2020-08-11T07:44:51Z</time>
      </trkpt>
      <trkpt lat="45.14589" lon="5.95182">
        <ele>2221.8</ele>
        <time>2020-08-11T07:44:52Z</time>
      </trkpt>
      <trkpt lat="45.14589" lon="5.95183">
        <ele>2222</ele>
        <time>2020-08-11T07:44:53Z</time>
      </trkpt>
      <trkpt lat="45.14588" lon="5.95185">
        <ele>2222.2</ele>
        <time>2020-08-11T07:44:54Z</time>
      </trkpt>
      <trkpt lat="45.14588" lon="5.95186">
        <ele>2222.6</ele>
        <time>2020-08-11T07:44:55Z</time>
      </trkpt>
      <trkpt lat="45.14587" lon="5.95187">
        <ele>2223</ele>
        <time>2020-08-11T07:44:56Z</time>
      </trkpt>
      <trkpt lat="45.14587" lon="5.95188">
        <ele>2223</ele>
        <time>2020-08-11T07:44:57Z</time>
      </trkpt>
      <trkpt lat="45.14586" lon="5.9519">
        <ele>2223</ele>
        <time>2020-08-11T07:44:58Z</time>
      </trkpt>
      <trkpt lat="45.14586" lon="5.95191">
        <ele>2223.2</ele>
        <time>2020-08-11T07:44:59Z</time>
      </trkpt>
      <trkpt lat="45.14586" lon="5.95192">
        <ele>2223.4</ele>
        <time>2020-08-11T07:45:00Z</time>
      </trkpt>
      <trkpt lat="45.14586" lon="5.95193">
        <ele>2224.2</ele>
        <time>2020-08-11T07:45:01Z</time>
      </trkpt>
      <trkpt lat="45.14586" lon="5.95195">
        <ele>2224.6</ele>
        <time>2020-08-11T07:45:02Z</time>
      </trkpt>
      <trkpt lat="45.14587" lon="5.95196">
        <ele>2224.6</ele>
        <time>2020-08-11T07:45:03Z</time>
      </trkpt>
      <trkpt lat="45.14587" lon="5.95197">
        <ele>2224.6</ele>
        <time>2020-08-11T07:45:04Z</time>
      </trkpt>
      <trkpt lat="45.14587" lon="5.95198">
        <ele>2224.8</ele>
        <time>2020-08-11T07:45:05Z</time>
      </trkpt>
      <trkpt lat="45.14587" lon="5.952">
        <ele>2225</ele>
        <time>2020-08-11T07:45:06Z</time>
      </trkpt>
      <trkpt lat="45.14588" lon="5.95201">
        <ele>2225.4</ele>
        <time>2020-08-11T07:45:07Z</time>
      </trkpt>
      <trkpt lat="45.14588" lon="5.95202">
        <ele>2225.4</ele>
        <time>2020-08-11T07:45:08Z</time>
      </trkpt>
      <trkpt lat="45.14588" lon="5.95203">
        <ele>2225.6</ele>
        <time>2020-08-11T07:45:09Z</time>
      </trkpt>
      <trkpt lat="45.14588" lon="5.95204">
        <ele>2225.6</ele>
        <time>2020-08-11T07:45:10Z</time>
      </trkpt>
      <trkpt lat="45.14589" lon="5.95206">
        <ele>2225.8</ele>
        <time>2020-08-11T07:45:11Z</time>
      </trkpt>
      <trkpt lat="45.14589" lon="5.95208">
        <ele>2226</ele>
        <time>2020-08-11T07:45:12Z</time>
      </trkpt>
      <trkpt lat="45.1459" lon="5.9521">
        <ele>2226.2</ele>
        <time>2020-08-11T07:45:13Z</time>
      </trkpt>
      <trkpt lat="45.1459" lon="5.95211">
        <ele>2226.2</ele>
        <time>2020-08-11T07:45:14Z</time>
      </trkpt>
      <trkpt lat="45.14591" lon="5.95213">
        <ele>2226.4</ele>
        <time>2020-08-11T07:45:15Z</time>
      </trkpt>
      <trkpt lat="45.14591" lon="5.95215">
        <ele>2226.6</ele>
        <time>2020-08-11T07:45:16Z</time>
      </trkpt>
      <trkpt lat="45.14592" lon="5.95216">
        <ele>2226.6</ele>
        <time>2020-08-11T07:45:17Z</time>
      </trkpt>
      <trkpt lat="45.14592" lon="5.95218">
        <ele>2226.6</ele>
        <time>2020-08-11T07:45:18Z</time>
      </trkpt>
      <trkpt lat="45.14592" lon="5.95219">
        <ele>2227</ele>
        <time>2020-08-11T07:45:19Z</time>
      </trkpt>
      <trkpt lat="45.14592" lon="5.9522">
        <ele>2227.4</ele>
        <time>2020-08-11T07:45:20Z</time>
      </trkpt>
      <trkpt lat="45.14592" lon="5.95222">
        <ele>2227.6</ele>
        <time>2020-08-11T07:45:21Z</time>
      </trkpt>
      <trkpt lat="45.14592" lon="5.95223">
        <ele>2227.8</ele>
        <time>2020-08-11T07:45:22Z</time>
      </trkpt>
      <trkpt lat="45.14592" lon="5.95224">
        <ele>2228</ele>
        <time>2020-08-11T07:45:23Z</time>
      </trkpt>
      <trkpt lat="45.14592" lon="5.95226">
        <ele>2228.4</ele>
        <time>2020-08-11T07:45:24Z</time>
      </trkpt>
      <trkpt lat="45.14592" lon="5.95227">
        <ele>2228.6</ele>
        <time>2020-08-11T07:45:25Z</time>
      </trkpt>
      <trkpt lat="45.14592" lon="5.95228">
        <ele>2228.8</ele>
        <time>2020-08-11T07:45:26Z</time>
      </trkpt>
      <trkpt lat="45.14592" lon="5.95229">
        <ele>2229.2</ele>
        <time>2020-08-11T07:45:27Z</time>
      </trkpt>
      <trkpt lat="45.14593" lon="5.9523">
        <ele>2229.4</ele>
        <time>2020-08-11T07:45:28Z</time>
      </trkpt>
      <trkpt lat="45.14593" lon="5.95231">
        <ele>2229.4</ele>
        <time>2020-08-11T07:45:29Z</time>
      </trkpt>
      <trkpt lat="45.14594" lon="5.95232">
        <ele>2229.6</ele>
        <time>2020-08-11T07:45:30Z</time>
      </trkpt>
      <trkpt lat="45.14595" lon="5.95232">
        <ele>2229.8</ele>
        <time>2020-08-11T07:45:31Z</time>
      </trkpt>
      <trkpt lat="45.14595" lon="5.95233">
        <ele>2230.2</ele>
        <time>2020-08-11T07:45:32Z</time>
      </trkpt>
      <trkpt lat="45.14596" lon="5.95234">
        <ele>2230.4</ele>
        <time>2020-08-11T07:45:33Z</time>
      </trkpt>
      <trkpt lat="45.14596" lon="5.95235">
        <ele>2230.6</ele>
        <time>2020-08-11T07:45:34Z</time>
      </trkpt>
      <trkpt lat="45.14597" lon="5.95235">
        <ele>2231</ele>
        <time>2020-08-11T07:45:35Z</time>
      </trkpt>
      <trkpt lat="45.14598" lon="5.95236">
        <ele>2231.2</ele>
        <time>2020-08-11T07:45:36Z</time>
      </trkpt>
      <trkpt lat="45.14598" lon="5.95237">
        <ele>2231.4</ele>
        <time>2020-08-11T07:45:37Z</time>
      </trkpt>
      <trkpt lat="45.14599" lon="5.95237">
        <ele>2231.6</ele>
        <time>2020-08-11T07:45:38Z</time>
      </trkpt>
      <trkpt lat="45.14599" lon="5.95238">
        <ele>2232</ele>
        <time>2020-08-11T07:45:39Z</time>
      </trkpt>
      <trkpt lat="45.146" lon="5.95239">
        <ele>2232</ele>
        <time>2020-08-11T07:45:40Z</time>
      </trkpt>
      <trkpt lat="45.146" lon="5.95241">
        <ele>2232</ele>
        <time>2020-08-11T07:45:41Z</time>
      </trkpt>
      <trkpt lat="45.14599" lon="5.95242">
        <ele>2232.4</ele>
        <time>2020-08-11T07:45:42Z</time>
      </trkpt>
      <trkpt lat="45.14599" lon="5.95244">
        <ele>2232.6</ele>
        <time>2020-08-11T07:45:43Z</time>
      </trkpt>
      <trkpt lat="45.14598" lon="5.95246">
        <ele>2232.8</ele>
        <time>2020-08-11T07:45:44Z</time>
      </trkpt>
      <trkpt lat="45.14598" lon="5.95247">
        <ele>2232.8</ele>
        <time>2020-08-11T07:45:45Z</time>
      </trkpt>
      <trkpt lat="45.14597" lon="5.95249">
        <ele>2233.2</ele>
        <time>2020-08-11T07:45:46Z</time>
      </trkpt>
      <trkpt lat="45.14597" lon="5.95251">
        <ele>2233.4</ele>
        <time>2020-08-11T07:45:47Z</time>
      </trkpt>
      <trkpt lat="45.14597" lon="5.95252">
        <ele>2233.6</ele>
        <time>2020-08-11T07:45:48Z</time>
      </trkpt>
      <trkpt lat="45.14597" lon="5.95253">
        <ele>2233.8</ele>
        <time>2020-08-11T07:45:49Z</time>
      </trkpt>
      <trkpt lat="45.14597" lon="5.95254">
        <ele>2234</ele>
        <time>2020-08-11T07:45:50Z</time>
      </trkpt>
      <trkpt lat="45.14596" lon="5.95255">
        <ele>2234.2</ele>
        <time>2020-08-11T07:45:51Z</time>
      </trkpt>
      <trkpt lat="45.14596" lon="5.95256">
        <ele>2234.2</ele>
        <time>2020-08-11T07:45:52Z</time>
      </trkpt>
      <trkpt lat="45.14596" lon="5.95257">
        <ele>2234.4</ele>
        <time>2020-08-11T07:45:53Z</time>
      </trkpt>
      <trkpt lat="45.14596" lon="5.95258">
        <ele>2234.6</ele>
        <time>2020-08-11T07:45:54Z</time>
      </trkpt>
      <trkpt lat="45.14596" lon="5.95259">
        <ele>2235</ele>
        <time>2020-08-11T07:45:55Z</time>
      </trkpt>
      <trkpt lat="45.14596" lon="5.9526">
        <ele>2235.4</ele>
        <time>2020-08-11T07:45:56Z</time>
      </trkpt>
      <trkpt lat="45.14596" lon="5.95261">
        <ele>2235.4</ele>
        <time>2020-08-11T07:45:57Z</time>
      </trkpt>
      <trkpt lat="45.14596" lon="5.95262">
        <ele>2235.4</ele>
        <time>2020-08-11T07:45:58Z</time>
      </trkpt>
      <trkpt lat="45.14596" lon="5.95263">
        <ele>2235.8</ele>
        <time>2020-08-11T07:45:59Z</time>
      </trkpt>
      <trkpt lat="45.14596" lon="5.95264">
        <ele>2236</ele>
        <time>2020-08-11T07:46:00Z</time>
      </trkpt>
      <trkpt lat="45.14596" lon="5.95265">
        <ele>2236.2</ele>
        <time>2020-08-11T07:46:01Z</time>
      </trkpt>
      <trkpt lat="45.14597" lon="5.95266">
        <ele>2236.6</ele>
        <time>2020-08-11T07:46:02Z</time>
      </trkpt>
      <trkpt lat="45.14598" lon="5.95267">
        <ele>2236.8</ele>
        <time>2020-08-11T07:46:03Z</time>
      </trkpt>
      <trkpt lat="45.14598" lon="5.95268">
        <ele>2237.2</ele>
        <time>2020-08-11T07:46:04Z</time>
      </trkpt>
      <trkpt lat="45.14599" lon="5.95268">
        <ele>2238</ele>
        <time>2020-08-11T07:46:05Z</time>
      </trkpt>
      <trkpt lat="45.146" lon="5.95269">
        <ele>2238</ele>
        <time>2020-08-11T07:46:06Z</time>
      </trkpt>
      <trkpt lat="45.146" lon="5.9527">
        <ele>2238</ele>
        <time>2020-08-11T07:46:07Z</time>
      </trkpt>
      <trkpt lat="45.14601" lon="5.95271">
        <ele>2238.4</ele>
        <time>2020-08-11T07:46:08Z</time>
      </trkpt>
      <trkpt lat="45.14602" lon="5.95272">
        <ele>2238.6</ele>
        <time>2020-08-11T07:46:09Z</time>
      </trkpt>
      <trkpt lat="45.14602" lon="5.95273">
        <ele>2239</ele>
        <time>2020-08-11T07:46:10Z</time>
      </trkpt>
      <trkpt lat="45.14603" lon="5.95274">
        <ele>2239</ele>
        <time>2020-08-11T07:46:11Z</time>
      </trkpt>
      <trkpt lat="45.14603" lon="5.95275">
        <ele>2239.2</ele>
        <time>2020-08-11T07:46:12Z</time>
      </trkpt>
      <trkpt lat="45.14604" lon="5.95276">
        <ele>2239.2</ele>
        <time>2020-08-11T07:46:13Z</time>
      </trkpt>
      <trkpt lat="45.14604" lon="5.95276">
        <ele>2239.6</ele>
        <time>2020-08-11T07:46:14Z</time>
      </trkpt>
      <trkpt lat="45.14605" lon="5.95277">
        <ele>2239.8</ele>
        <time>2020-08-11T07:46:15Z</time>
      </trkpt>
      <trkpt lat="45.14605" lon="5.95278">
        <ele>2240</ele>
        <time>2020-08-11T07:46:16Z</time>
      </trkpt>
      <trkpt lat="45.14606" lon="5.95279">
        <ele>2240.2</ele>
        <time>2020-08-11T07:46:17Z</time>
      </trkpt>
      <trkpt lat="45.14606" lon="5.9528">
        <ele>2240.4</ele>
        <time>2020-08-11T07:46:18Z</time>
      </trkpt>
      <trkpt lat="45.14607" lon="5.9528">
        <ele>2240.6</ele>
        <time>2020-08-11T07:46:19Z</time>
      </trkpt>
      <trkpt lat="45.14607" lon="5.95281">
        <ele>2240.8</ele>
        <time>2020-08-11T07:46:20Z</time>
      </trkpt>
      <trkpt lat="45.14608" lon="5.95282">
        <ele>2240.8</ele>
        <time>2020-08-11T07:46:21Z</time>
      </trkpt>
      <trkpt lat="45.14608" lon="5.95283">
        <ele>2240.8</ele>
        <time>2020-08-11T07:46:22Z</time>
      </trkpt>
      <trkpt lat="45.14609" lon="5.95284">
        <ele>2241.2</ele>
        <time>2020-08-11T07:46:23Z</time>
      </trkpt>
      <trkpt lat="45.1461" lon="5.95284">
        <ele>2241.2</ele>
        <time>2020-08-11T07:46:24Z</time>
      </trkpt>
      <trkpt lat="45.14611" lon="5.95285">
        <ele>2241.4</ele>
        <time>2020-08-11T07:46:25Z</time>
      </trkpt>
      <trkpt lat="45.14612" lon="5.95285">
        <ele>2241.8</ele>
        <time>2020-08-11T07:46:26Z</time>
      </trkpt>
      <trkpt lat="45.14613" lon="5.95286">
        <ele>2242</ele>
        <time>2020-08-11T07:46:27Z</time>
      </trkpt>
      <trkpt lat="45.14614" lon="5.95286">
        <ele>2242.4</ele>
        <time>2020-08-11T07:46:28Z</time>
      </trkpt>
      <trkpt lat="45.14615" lon="5.95287">
        <ele>2242.6</ele>
        <time>2020-08-11T07:46:29Z</time>
      </trkpt>
      <trkpt lat="45.14616" lon="5.95287">
        <ele>2242.6</ele>
        <time>2020-08-11T07:46:30Z</time>
      </trkpt>
      <trkpt lat="45.14617" lon="5.95288">
        <ele>2243</ele>
        <time>2020-08-11T07:46:31Z</time>
      </trkpt>
      <trkpt lat="45.14618" lon="5.95288">
        <ele>2243.2</ele>
        <time>2020-08-11T07:46:32Z</time>
      </trkpt>
      <trkpt lat="45.14619" lon="5.95289">
        <ele>2243.6</ele>
        <time>2020-08-11T07:46:33Z</time>
      </trkpt>
      <trkpt lat="45.14619" lon="5.95289">
        <ele>2243.6</ele>
        <time>2020-08-11T07:46:34Z</time>
      </trkpt>
      <trkpt lat="45.1462" lon="5.9529">
        <ele>2243.8</ele>
        <time>2020-08-11T07:46:35Z</time>
      </trkpt>
      <trkpt lat="45.14621" lon="5.9529">
        <ele>2244</ele>
        <time>2020-08-11T07:46:36Z</time>
      </trkpt>
      <trkpt lat="45.14621" lon="5.95291">
        <ele>2244</ele>
        <time>2020-08-11T07:46:37Z</time>
      </trkpt>
      <trkpt lat="45.14622" lon="5.95292">
        <ele>2244</ele>
        <time>2020-08-11T07:46:38Z</time>
      </trkpt>
      <trkpt lat="45.14623" lon="5.95292">
        <ele>2244.4</ele>
        <time>2020-08-11T07:46:39Z</time>
      </trkpt>
      <trkpt lat="45.14623" lon="5.95293">
        <ele>2244.6</ele>
        <time>2020-08-11T07:46:40Z</time>
      </trkpt>
      <trkpt lat="45.14624" lon="5.95293">
        <ele>2245</ele>
        <time>2020-08-11T07:46:41Z</time>
      </trkpt>
      <trkpt lat="45.14625" lon="5.95294">
        <ele>2245.2</ele>
        <time>2020-08-11T07:46:42Z</time>
      </trkpt>
      <trkpt lat="45.14625" lon="5.95294">
        <ele>2245.6</ele>
        <time>2020-08-11T07:46:43Z</time>
      </trkpt>
      <trkpt lat="45.14626" lon="5.95295">
        <ele>2245.8</ele>
        <time>2020-08-11T07:46:44Z</time>
      </trkpt>
      <trkpt lat="45.14626" lon="5.95296">
        <ele>2245.8</ele>
        <time>2020-08-11T07:46:45Z</time>
      </trkpt>
      <trkpt lat="45.14627" lon="5.95296">
        <ele>2246.2</ele>
        <time>2020-08-11T07:46:46Z</time>
      </trkpt>
      <trkpt lat="45.14627" lon="5.95297">
        <ele>2246.2</ele>
        <time>2020-08-11T07:46:47Z</time>
      </trkpt>
      <trkpt lat="45.14627" lon="5.95298">
        <ele>2246.4</ele>
        <time>2020-08-11T07:46:48Z</time>
      </trkpt>
      <trkpt lat="45.14628" lon="5.95299">
        <ele>2246.8</ele>
        <time>2020-08-11T07:46:49Z</time>
      </trkpt>
      <trkpt lat="45.14628" lon="5.953">
        <ele>2246.8</ele>
        <time>2020-08-11T07:46:50Z</time>
      </trkpt>
      <trkpt lat="45.14629" lon="5.953">
        <ele>2247.4</ele>
        <time>2020-08-11T07:46:51Z</time>
      </trkpt>
      <trkpt lat="45.14629" lon="5.95301">
        <ele>2247.4</ele>
        <time>2020-08-11T07:46:52Z</time>
      </trkpt>
      <trkpt lat="45.14629" lon="5.95302">
        <ele>2247.6</ele>
        <time>2020-08-11T07:46:53Z</time>
      </trkpt>
      <trkpt lat="45.1463" lon="5.95303">
        <ele>2247.8</ele>
        <time>2020-08-11T07:46:54Z</time>
      </trkpt>
      <trkpt lat="45.1463" lon="5.95304">
        <ele>2248</ele>
        <time>2020-08-11T07:46:55Z</time>
      </trkpt>
      <trkpt lat="45.14631" lon="5.95304">
        <ele>2248.4</ele>
        <time>2020-08-11T07:46:56Z</time>
      </trkpt>
      <trkpt lat="45.14631" lon="5.95305">
        <ele>2248.6</ele>
        <time>2020-08-11T07:46:57Z</time>
      </trkpt>
      <trkpt lat="45.14632" lon="5.95306">
        <ele>2248.8</ele>
        <time>2020-08-11T07:46:58Z</time>
      </trkpt>
      <trkpt lat="45.14632" lon="5.95307">
        <ele>2249</ele>
        <time>2020-08-11T07:46:59Z</time>
      </trkpt>
      <trkpt lat="45.14633" lon="5.95307">
        <ele>2249.2</ele>
        <time>2020-08-11T07:47:00Z</time>
      </trkpt>
      <trkpt lat="45.14633" lon="5.95308">
        <ele>2249.2</ele>
        <time>2020-08-11T07:47:01Z</time>
      </trkpt>
      <trkpt lat="45.14634" lon="5.95309">
        <ele>2249.4</ele>
        <time>2020-08-11T07:47:02Z</time>
      </trkpt>
      <trkpt lat="45.14634" lon="5.9531">
        <ele>2249.6</ele>
        <time>2020-08-11T07:47:03Z</time>
      </trkpt>
      <trkpt lat="45.14635" lon="5.9531">
        <ele>2249.8</ele>
        <time>2020-08-11T07:47:04Z</time>
      </trkpt>
      <trkpt lat="45.14635" lon="5.95311">
        <ele>2250</ele>
        <time>2020-08-11T07:47:05Z</time>
      </trkpt>
      <trkpt lat="45.14636" lon="5.95312">
        <ele>2250.4</ele>
        <time>2020-08-11T07:47:06Z</time>
      </trkpt>
      <trkpt lat="45.14637" lon="5.95313">
        <ele>2250.6</ele>
        <time>2020-08-11T07:47:07Z</time>
      </trkpt>
      <trkpt lat="45.14637" lon="5.95313">
        <ele>2250.6</ele>
        <time>2020-08-11T07:47:08Z</time>
      </trkpt>
      <trkpt lat="45.14638" lon="5.95314">
        <ele>2251</ele>
        <time>2020-08-11T07:47:09Z</time>
      </trkpt>
      <trkpt lat="45.14638" lon="5.95315">
        <ele>2251.2</ele>
        <time>2020-08-11T07:47:10Z</time>
      </trkpt>
      <trkpt lat="45.14639" lon="5.95315">
        <ele>2251.6</ele>
        <time>2020-08-11T07:47:11Z</time>
      </trkpt>
      <trkpt lat="45.1464" lon="5.95315">
        <ele>2251.6</ele>
        <time>2020-08-11T07:47:12Z</time>
      </trkpt>
      <trkpt lat="45.14641" lon="5.95315">
        <ele>2251.6</ele>
        <time>2020-08-11T07:47:13Z</time>
      </trkpt>
      <trkpt lat="45.14642" lon="5.95315">
        <ele>2252</ele>
        <time>2020-08-11T07:47:14Z</time>
      </trkpt>
      <trkpt lat="45.14643" lon="5.95315">
        <ele>2252</ele>
        <time>2020-08-11T07:47:15Z</time>
      </trkpt>
      <trkpt lat="45.14644" lon="5.95315">
        <ele>2252.2</ele>
        <time>2020-08-11T07:47:16Z</time>
      </trkpt>
      <trkpt lat="45.14645" lon="5.95314">
        <ele>2252.6</ele>
        <time>2020-08-11T07:47:17Z</time>
      </trkpt>
      <trkpt lat="45.14647" lon="5.95314">
        <ele>2252.8</ele>
        <time>2020-08-11T07:47:18Z</time>
      </trkpt>
      <trkpt lat="45.14648" lon="5.95314">
        <ele>2253</ele>
        <time>2020-08-11T07:47:19Z</time>
      </trkpt>
      <trkpt lat="45.14648" lon="5.95314">
        <ele>2253.2</ele>
        <time>2020-08-11T07:47:20Z</time>
      </trkpt>
      <trkpt lat="45.14649" lon="5.95314">
        <ele>2253.6</ele>
        <time>2020-08-11T07:47:21Z</time>
      </trkpt>
      <trkpt lat="45.14649" lon="5.95314">
        <ele>2253.8</ele>
        <time>2020-08-11T07:47:22Z</time>
      </trkpt>
      <trkpt lat="45.1465" lon="5.95315">
        <ele>2254</ele>
        <time>2020-08-11T07:47:23Z</time>
      </trkpt>
      <trkpt lat="45.1465" lon="5.95315">
        <ele>2254</ele>
        <time>2020-08-11T07:47:24Z</time>
      </trkpt>
      <trkpt lat="45.14651" lon="5.95315">
        <ele>2254.2</ele>
        <time>2020-08-11T07:47:25Z</time>
      </trkpt>
      <trkpt lat="45.14651" lon="5.95315">
        <ele>2254.4</ele>
        <time>2020-08-11T07:47:26Z</time>
      </trkpt>
      <trkpt lat="45.14652" lon="5.95315">
        <ele>2254.4</ele>
        <time>2020-08-11T07:47:27Z</time>
      </trkpt>
      <trkpt lat="45.14652" lon="5.95315">
        <ele>2254.8</ele>
        <time>2020-08-11T07:47:28Z</time>
      </trkpt>
      <trkpt lat="45.14653" lon="5.95315">
        <ele>2254.8</ele>
        <time>2020-08-11T07:47:29Z</time>
      </trkpt>
      <trkpt lat="45.14653" lon="5.95315">
        <ele>2255.4</ele>
        <time>2020-08-11T07:47:30Z</time>
      </trkpt>
      <trkpt lat="45.14654" lon="5.95315">
        <ele>2255.4</ele>
        <time>2020-08-11T07:47:31Z</time>
      </trkpt>
      <trkpt lat="45.14654" lon="5.95315">
        <ele>2255.6</ele>
        <time>2020-08-11T07:47:32Z</time>
      </trkpt>
      <trkpt lat="45.14655" lon="5.95315">
        <ele>2255.8</ele>
        <time>2020-08-11T07:47:33Z</time>
      </trkpt>
      <trkpt lat="45.14655" lon="5.95315">
        <ele>2256</ele>
        <time>2020-08-11T07:47:34Z</time>
      </trkpt>
      <trkpt lat="45.14656" lon="5.95315">
        <ele>2256</ele>
        <time>2020-08-11T07:47:35Z</time>
      </trkpt>
      <trkpt lat="45.14656" lon="5.95315">
        <ele>2256</ele>
        <time>2020-08-11T07:47:36Z</time>
      </trkpt>
      <trkpt lat="45.14657" lon="5.95315">
        <ele>2256.4</ele>
        <time>2020-08-11T07:47:37Z</time>
      </trkpt>
      <trkpt lat="45.14657" lon="5.95315">
        <ele>2256.6</ele>
        <time>2020-08-11T07:47:38Z</time>
      </trkpt>
      <trkpt lat="45.14658" lon="5.95316">
        <ele>2257</ele>
        <time>2020-08-11T07:47:39Z</time>
      </trkpt>
      <trkpt lat="45.14659" lon="5.95316">
        <ele>2257</ele>
        <time>2020-08-11T07:47:40Z</time>
      </trkpt>
      <trkpt lat="45.14659" lon="5.95316">
        <ele>2257.2</ele>
        <time>2020-08-11T07:47:41Z</time>
      </trkpt>
      <trkpt lat="45.1466" lon="5.95316">
        <ele>2257.6</ele>
        <time>2020-08-11T07:47:42Z</time>
      </trkpt>
      <trkpt lat="45.14661" lon="5.95317">
        <ele>2257.6</ele>
        <time>2020-08-11T07:47:43Z</time>
      </trkpt>
      <trkpt lat="45.14661" lon="5.95317">
        <ele>2258.2</ele>
        <time>2020-08-11T07:47:44Z</time>
      </trkpt>
      <trkpt lat="45.14662" lon="5.95317">
        <ele>2258</ele>
        <time>2020-08-11T07:47:45Z</time>
      </trkpt>
      <trkpt lat="45.14662" lon="5.95317">
        <ele>2258.2</ele>
        <time>2020-08-11T07:47:46Z</time>
      </trkpt>
      <trkpt lat="45.14663" lon="5.95318">
        <ele>2258.4</ele>
        <time>2020-08-11T07:47:47Z</time>
      </trkpt>
      <trkpt lat="45.14664" lon="5.95318">
        <ele>2258.8</ele>
        <time>2020-08-11T07:47:48Z</time>
      </trkpt>
      <trkpt lat="45.14664" lon="5.95318">
        <ele>2259</ele>
        <time>2020-08-11T07:47:49Z</time>
      </trkpt>
      <trkpt lat="45.14665" lon="5.95318">
        <ele>2259.2</ele>
        <time>2020-08-11T07:47:50Z</time>
      </trkpt>
      <trkpt lat="45.14666" lon="5.95319">
        <ele>2259.6</ele>
        <time>2020-08-11T07:47:51Z</time>
      </trkpt>
      <trkpt lat="45.14666" lon="5.95319">
        <ele>2259.8</ele>
        <time>2020-08-11T07:47:52Z</time>
      </trkpt>
      <trkpt lat="45.14667" lon="5.95319">
        <ele>2260</ele>
        <time>2020-08-11T07:47:53Z</time>
      </trkpt>
      <trkpt lat="45.14668" lon="5.9532">
        <ele>2260.2</ele>
        <time>2020-08-11T07:47:54Z</time>
      </trkpt>
      <trkpt lat="45.14669" lon="5.9532">
        <ele>2260.6</ele>
        <time>2020-08-11T07:47:55Z</time>
      </trkpt>
      <trkpt lat="45.1467" lon="5.9532">
        <ele>2260.8</ele>
        <time>2020-08-11T07:47:56Z</time>
      </trkpt>
      <trkpt lat="45.14671" lon="5.95321">
        <ele>2260.8</ele>
        <time>2020-08-11T07:47:57Z</time>
      </trkpt>
      <trkpt lat="45.14672" lon="5.95321">
        <ele>2261</ele>
        <time>2020-08-11T07:47:58Z</time>
      </trkpt>
      <trkpt lat="45.14673" lon="5.95321">
        <ele>2261.4</ele>
        <time>2020-08-11T07:47:59Z</time>
      </trkpt>
      <trkpt lat="45.14674" lon="5.95321">
        <ele>2261.4</ele>
        <time>2020-08-11T07:48:00Z</time>
      </trkpt>
      <trkpt lat="45.14675" lon="5.95322">
        <ele>2261.6</ele>
        <time>2020-08-11T07:48:01Z</time>
      </trkpt>
      <trkpt lat="45.14676" lon="5.95322">
        <ele>2262</ele>
        <time>2020-08-11T07:48:02Z</time>
      </trkpt>
      <trkpt lat="45.14677" lon="5.95321">
        <ele>2262.2</ele>
        <time>2020-08-11T07:48:03Z</time>
      </trkpt>
      <trkpt lat="45.14677" lon="5.95321">
        <ele>2262.4</ele>
        <time>2020-08-11T07:48:04Z</time>
      </trkpt>
      <trkpt lat="45.14678" lon="5.9532">
        <ele>2262.6</ele>
        <time>2020-08-11T07:48:05Z</time>
      </trkpt>
      <trkpt lat="45.14679" lon="5.9532">
        <ele>2262.8</ele>
        <time>2020-08-11T07:48:06Z</time>
      </trkpt>
      <trkpt lat="45.1468" lon="5.95319">
        <ele>2263</ele>
        <time>2020-08-11T07:48:07Z</time>
      </trkpt>
      <trkpt lat="45.14681" lon="5.95319">
        <ele>2263.4</ele>
        <time>2020-08-11T07:48:08Z</time>
      </trkpt>
      <trkpt lat="45.14682" lon="5.95318">
        <ele>2263.8</ele>
        <time>2020-08-11T07:48:09Z</time>
      </trkpt>
      <trkpt lat="45.14683" lon="5.95318">
        <ele>2263.8</ele>
        <time>2020-08-11T07:48:10Z</time>
      </trkpt>
      <trkpt lat="45.14683" lon="5.95317">
        <ele>2264</ele>
        <time>2020-08-11T07:48:11Z</time>
      </trkpt>
      <trkpt lat="45.14684" lon="5.95316">
        <ele>2264.2</ele>
        <time>2020-08-11T07:48:12Z</time>
      </trkpt>
      <trkpt lat="45.14685" lon="5.95316">
        <ele>2264.4</ele>
        <time>2020-08-11T07:48:13Z</time>
      </trkpt>
      <trkpt lat="45.14686" lon="5.95316">
        <ele>2264.6</ele>
        <time>2020-08-11T07:48:14Z</time>
      </trkpt>
      <trkpt lat="45.14686" lon="5.95315">
        <ele>2264.8</ele>
        <time>2020-08-11T07:48:15Z</time>
      </trkpt>
      <trkpt lat="45.14687" lon="5.95315">
        <ele>2265</ele>
        <time>2020-08-11T07:48:16Z</time>
      </trkpt>
      <trkpt lat="45.14688" lon="5.95314">
        <ele>2265.2</ele>
        <time>2020-08-11T07:48:17Z</time>
      </trkpt>
      <trkpt lat="45.14688" lon="5.95314">
        <ele>2265.6</ele>
        <time>2020-08-11T07:48:18Z</time>
      </trkpt>
      <trkpt lat="45.14689" lon="5.95313">
        <ele>2265.8</ele>
        <time>2020-08-11T07:48:19Z</time>
      </trkpt>
      <trkpt lat="45.1469" lon="5.95313">
        <ele>2266.2</ele>
        <time>2020-08-11T07:48:20Z</time>
      </trkpt>
      <trkpt lat="45.1469" lon="5.95312">
        <ele>2266.4</ele>
        <time>2020-08-11T07:48:21Z</time>
      </trkpt>
      <trkpt lat="45.14691" lon="5.95312">
        <ele>2266.8</ele>
        <time>2020-08-11T07:48:22Z</time>
      </trkpt>
      <trkpt lat="45.14692" lon="5.95311">
        <ele>2267</ele>
        <time>2020-08-11T07:48:23Z</time>
      </trkpt>
      <trkpt lat="45.14692" lon="5.95311">
        <ele>2267.2</ele>
        <time>2020-08-11T07:48:24Z</time>
      </trkpt>
      <trkpt lat="45.14693" lon="5.95311">
        <ele>2267.2</ele>
        <time>2020-08-11T07:48:25Z</time>
      </trkpt>
      <trkpt lat="45.14694" lon="5.95311">
        <ele>2267.4</ele>
        <time>2020-08-11T07:48:26Z</time>
      </trkpt>
      <trkpt lat="45.14695" lon="5.95311">
        <ele>2267.6</ele>
        <time>2020-08-11T07:48:27Z</time>
      </trkpt>
      <trkpt lat="45.14695" lon="5.95311">
        <ele>2268</ele>
        <time>2020-08-11T07:48:28Z</time>
      </trkpt>
      <trkpt lat="45.14696" lon="5.95311">
        <ele>2268.2</ele>
        <time>2020-08-11T07:48:29Z</time>
      </trkpt>
      <trkpt lat="45.14697" lon="5.95311">
        <ele>2268.4</ele>
        <time>2020-08-11T07:48:30Z</time>
      </trkpt>
      <trkpt lat="45.14698" lon="5.95311">
        <ele>2268.6</ele>
        <time>2020-08-11T07:48:31Z</time>
      </trkpt>
      <trkpt lat="45.14698" lon="5.95311">
        <ele>2269</ele>
        <time>2020-08-11T07:48:32Z</time>
      </trkpt>
      <trkpt lat="45.14699" lon="5.95311">
        <ele>2269.8</ele>
        <time>2020-08-11T07:48:33Z</time>
      </trkpt>
      <trkpt lat="45.147" lon="5.95311">
        <ele>2270.4</ele>
        <time>2020-08-11T07:48:34Z</time>
      </trkpt>
      <trkpt lat="45.14701" lon="5.95311">
        <ele>2270.4</ele>
        <time>2020-08-11T07:48:35Z</time>
      </trkpt>
      <trkpt lat="45.14701" lon="5.9531">
        <ele>2270.4</ele>
        <time>2020-08-11T07:48:36Z</time>
      </trkpt>
      <trkpt lat="45.14702" lon="5.9531">
        <ele>2270.4</ele>
        <time>2020-08-11T07:48:37Z</time>
      </trkpt>
      <trkpt lat="45.14703" lon="5.9531">
        <ele>2270.8</ele>
        <time>2020-08-11T07:48:38Z</time>
      </trkpt>
      <trkpt lat="45.14704" lon="5.9531">
        <ele>2271</ele>
        <time>2020-08-11T07:48:39Z</time>
      </trkpt>
      <trkpt lat="45.14704" lon="5.95309">
        <ele>2271.4</ele>
        <time>2020-08-11T07:48:40Z</time>
      </trkpt>
      <trkpt lat="45.14705" lon="5.95309">
        <ele>2271.8</ele>
        <time>2020-08-11T07:48:41Z</time>
      </trkpt>
      <trkpt lat="45.14706" lon="5.95309">
        <ele>2271.8</ele>
        <time>2020-08-11T07:48:42Z</time>
      </trkpt>
      <trkpt lat="45.14706" lon="5.95309">
        <ele>2271.8</ele>
        <time>2020-08-11T07:48:43Z</time>
      </trkpt>
      <trkpt lat="45.14707" lon="5.95309">
        <ele>2271.8</ele>
        <time>2020-08-11T07:48:44Z</time>
      </trkpt>
      <trkpt lat="45.14707" lon="5.95309">
        <ele>2272</ele>
        <time>2020-08-11T07:48:45Z</time>
      </trkpt>
      <trkpt lat="45.14708" lon="5.95308">
        <ele>2272.2</ele>
        <time>2020-08-11T07:48:46Z</time>
      </trkpt>
      <trkpt lat="45.14709" lon="5.95308">
        <ele>2272.4</ele>
        <time>2020-08-11T07:48:47Z</time>
      </trkpt>
      <trkpt lat="45.14709" lon="5.95308">
        <ele>2272.6</ele>
        <time>2020-08-11T07:48:48Z</time>
      </trkpt>
      <trkpt lat="45.1471" lon="5.95308">
        <ele>2272.8</ele>
        <time>2020-08-11T07:48:49Z</time>
      </trkpt>
      <trkpt lat="45.1471" lon="5.95308">
        <ele>2272.8</ele>
        <time>2020-08-11T07:48:50Z</time>
      </trkpt>
      <trkpt lat="45.14711" lon="5.95308">
        <ele>2273</ele>
        <time>2020-08-11T07:48:51Z</time>
      </trkpt>
      <trkpt lat="45.14711" lon="5.95308">
        <ele>2273.4</ele>
        <time>2020-08-11T07:48:52Z</time>
      </trkpt>
      <trkpt lat="45.14712" lon="5.95308">
        <ele>2273.4</ele>
        <time>2020-08-11T07:48:53Z</time>
      </trkpt>
      <trkpt lat="45.14712" lon="5.95307">
        <ele>2273.6</ele>
        <time>2020-08-11T07:48:54Z</time>
      </trkpt>
      <trkpt lat="45.14713" lon="5.95307">
        <ele>2273.8</ele>
        <time>2020-08-11T07:48:55Z</time>
      </trkpt>
      <trkpt lat="45.14713" lon="5.95307">
        <ele>2274.2</ele>
        <time>2020-08-11T07:48:56Z</time>
      </trkpt>
      <trkpt lat="45.14714" lon="5.95307">
        <ele>2274.6</ele>
        <time>2020-08-11T07:48:57Z</time>
      </trkpt>
      <trkpt lat="45.14714" lon="5.95307">
        <ele>2274.8</ele>
        <time>2020-08-11T07:48:58Z</time>
      </trkpt>
      <trkpt lat="45.14715" lon="5.95307">
        <ele>2274.8</ele>
        <time>2020-08-11T07:48:59Z</time>
      </trkpt>
      <trkpt lat="45.14715" lon="5.95307">
        <ele>2275.2</ele>
        <time>2020-08-11T07:49:00Z</time>
      </trkpt>
      <trkpt lat="45.14716" lon="5.95307">
        <ele>2275.4</ele>
        <time>2020-08-11T07:49:01Z</time>
      </trkpt>
      <trkpt lat="45.14717" lon="5.95307">
        <ele>2275.6</ele>
        <time>2020-08-11T07:49:02Z</time>
      </trkpt>
      <trkpt lat="45.14717" lon="5.95308">
        <ele>2275.6</ele>
        <time>2020-08-11T07:49:03Z</time>
      </trkpt>
      <trkpt lat="45.14718" lon="5.95308">
        <ele>2276</ele>
        <time>2020-08-11T07:49:04Z</time>
      </trkpt>
      <trkpt lat="45.14719" lon="5.95308">
        <ele>2276.2</ele>
        <time>2020-08-11T07:49:05Z</time>
      </trkpt>
      <trkpt lat="45.14719" lon="5.95308">
        <ele>2276.6</ele>
        <time>2020-08-11T07:49:06Z</time>
      </trkpt>
      <trkpt lat="45.1472" lon="5.95309">
        <ele>2276.8</ele>
        <time>2020-08-11T07:49:07Z</time>
      </trkpt>
      <trkpt lat="45.1472" lon="5.95309">
        <ele>2277</ele>
        <time>2020-08-11T07:49:08Z</time>
      </trkpt>
      <trkpt lat="45.14721" lon="5.95309">
        <ele>2277.2</ele>
        <time>2020-08-11T07:49:09Z</time>
      </trkpt>
      <trkpt lat="45.14722" lon="5.95309">
        <ele>2277.4</ele>
        <time>2020-08-11T07:49:10Z</time>
      </trkpt>
      <trkpt lat="45.14722" lon="5.9531">
        <ele>2277.6</ele>
        <time>2020-08-11T07:49:11Z</time>
      </trkpt>
      <trkpt lat="45.14723" lon="5.9531">
        <ele>2277.8</ele>
        <time>2020-08-11T07:49:12Z</time>
      </trkpt>
      <trkpt lat="45.14724" lon="5.9531">
        <ele>2278</ele>
        <time>2020-08-11T07:49:13Z</time>
      </trkpt>
      <trkpt lat="45.14724" lon="5.9531">
        <ele>2278.4</ele>
        <time>2020-08-11T07:49:14Z</time>
      </trkpt>
      <trkpt lat="45.14725" lon="5.95312">
        <ele>2278.6</ele>
        <time>2020-08-11T07:49:15Z</time>
      </trkpt>
      <trkpt lat="45.14725" lon="5.95313">
        <ele>2278.8</ele>
        <time>2020-08-11T07:49:16Z</time>
      </trkpt>
      <trkpt lat="45.14726" lon="5.95315">
        <ele>2278.8</ele>
        <time>2020-08-11T07:49:17Z</time>
      </trkpt>
      <trkpt lat="45.14727" lon="5.95316">
        <ele>2279.2</ele>
        <time>2020-08-11T07:49:18Z</time>
      </trkpt>
      <trkpt lat="45.14727" lon="5.95317">
        <ele>2279.2</ele>
        <time>2020-08-11T07:49:19Z</time>
      </trkpt>
      <trkpt lat="45.14728" lon="5.95319">
        <ele>2279.2</ele>
        <time>2020-08-11T07:49:20Z</time>
      </trkpt>
      <trkpt lat="45.14729" lon="5.9532">
        <ele>2279.2</ele>
        <time>2020-08-11T07:49:21Z</time>
      </trkpt>
      <trkpt lat="45.14729" lon="5.95322">
        <ele>2279.6</ele>
        <time>2020-08-11T07:49:22Z</time>
      </trkpt>
      <trkpt lat="45.1473" lon="5.95322">
        <ele>2279.8</ele>
        <time>2020-08-11T07:49:23Z</time>
      </trkpt>
      <trkpt lat="45.14731" lon="5.95323">
        <ele>2280</ele>
        <time>2020-08-11T07:49:24Z</time>
      </trkpt>
      <trkpt lat="45.14732" lon="5.95324">
        <ele>2280.4</ele>
        <time>2020-08-11T07:49:25Z</time>
      </trkpt>
      <trkpt lat="45.14733" lon="5.95324">
        <ele>2280.6</ele>
        <time>2020-08-11T07:49:26Z</time>
      </trkpt>
      <trkpt lat="45.14734" lon="5.95325">
        <ele>2280.6</ele>
        <time>2020-08-11T07:49:27Z</time>
      </trkpt>
      <trkpt lat="45.14735" lon="5.95326">
        <ele>2280.8</ele>
        <time>2020-08-11T07:49:28Z</time>
      </trkpt>
      <trkpt lat="45.14736" lon="5.95327">
        <ele>2281.2</ele>
        <time>2020-08-11T07:49:29Z</time>
      </trkpt>
      <trkpt lat="45.14736" lon="5.95327">
        <ele>2281.6</ele>
        <time>2020-08-11T07:49:30Z</time>
      </trkpt>
      <trkpt lat="45.14737" lon="5.95328">
        <ele>2281.8</ele>
        <time>2020-08-11T07:49:31Z</time>
      </trkpt>
      <trkpt lat="45.14738" lon="5.95328">
        <ele>2282</ele>
        <time>2020-08-11T07:49:32Z</time>
      </trkpt>
      <trkpt lat="45.14739" lon="5.95329">
        <ele>2282</ele>
        <time>2020-08-11T07:49:33Z</time>
      </trkpt>
      <trkpt lat="45.1474" lon="5.95329">
        <ele>2282.2</ele>
        <time>2020-08-11T07:49:34Z</time>
      </trkpt>
      <trkpt lat="45.14741" lon="5.9533">
        <ele>2282.8</ele>
        <time>2020-08-11T07:49:35Z</time>
      </trkpt>
      <trkpt lat="45.14742" lon="5.9533">
        <ele>2283</ele>
        <time>2020-08-11T07:49:36Z</time>
      </trkpt>
      <trkpt lat="45.14743" lon="5.95331">
        <ele>2283.2</ele>
        <time>2020-08-11T07:49:37Z</time>
      </trkpt>
      <trkpt lat="45.14744" lon="5.95331">
        <ele>2283.6</ele>
        <time>2020-08-11T07:49:38Z</time>
      </trkpt>
      <trkpt lat="45.14745" lon="5.95332">
        <ele>2283.6</ele>
        <time>2020-08-11T07:49:39Z</time>
      </trkpt>
      <trkpt lat="45.14745" lon="5.95332">
        <ele>2284</ele>
        <time>2020-08-11T07:49:40Z</time>
      </trkpt>
      <trkpt lat="45.14746" lon="5.95332">
        <ele>2284.2</ele>
        <time>2020-08-11T07:49:41Z</time>
      </trkpt>
      <trkpt lat="45.14747" lon="5.95333">
        <ele>2284.4</ele>
        <time>2020-08-11T07:49:42Z</time>
      </trkpt>
      <trkpt lat="45.14748" lon="5.95333">
        <ele>2284.8</ele>
        <time>2020-08-11T07:49:43Z</time>
      </trkpt>
      <trkpt lat="45.14749" lon="5.95333">
        <ele>2284.8</ele>
        <time>2020-08-11T07:49:44Z</time>
      </trkpt>
      <trkpt lat="45.14749" lon="5.95333">
        <ele>2285.2</ele>
        <time>2020-08-11T07:49:45Z</time>
      </trkpt>
      <trkpt lat="45.1475" lon="5.95334">
        <ele>2285.4</ele>
        <time>2020-08-11T07:49:46Z</time>
      </trkpt>
      <trkpt lat="45.14751" lon="5.95334">
        <ele>2285.6</ele>
        <time>2020-08-11T07:49:47Z</time>
      </trkpt>
      <trkpt lat="45.14751" lon="5.95334">
        <ele>2286</ele>
        <time>2020-08-11T07:49:48Z</time>
      </trkpt>
      <trkpt lat="45.14752" lon="5.95334">
        <ele>2286.4</ele>
        <time>2020-08-11T07:49:49Z</time>
      </trkpt>
      <trkpt lat="45.14753" lon="5.95334">
        <ele>2286.4</ele>
        <time>2020-08-11T07:49:50Z</time>
      </trkpt>
      <trkpt lat="45.14754" lon="5.95335">
        <ele>2286.6</ele>
        <time>2020-08-11T07:49:51Z</time>
      </trkpt>
      <trkpt lat="45.14754" lon="5.95335">
        <ele>2286.8</ele>
        <time>2020-08-11T07:49:52Z</time>
      </trkpt>
      <trkpt lat="45.14755" lon="5.95335">
        <ele>2287</ele>
        <time>2020-08-11T07:49:53Z</time>
      </trkpt>
      <trkpt lat="45.14757" lon="5.95334">
        <ele>2287.4</ele>
        <time>2020-08-11T07:49:54Z</time>
      </trkpt>
      <trkpt lat="45.14759" lon="5.95333">
        <ele>2287.6</ele>
        <time>2020-08-11T07:49:55Z</time>
      </trkpt>
      <trkpt lat="45.14761" lon="5.95332">
        <ele>2288</ele>
        <time>2020-08-11T07:49:56Z</time>
      </trkpt>
      <trkpt lat="45.14763" lon="5.95331">
        <ele>2288</ele>
        <time>2020-08-11T07:49:57Z</time>
      </trkpt>
      <trkpt lat="45.14764" lon="5.9533">
        <ele>2288.2</ele>
        <time>2020-08-11T07:49:58Z</time>
      </trkpt>
      <trkpt lat="45.14765" lon="5.95332">
        <ele>2288.6</ele>
        <time>2020-08-11T07:49:59Z</time>
      </trkpt>
      <trkpt lat="45.14765" lon="5.95334">
        <ele>2288.8</ele>
        <time>2020-08-11T07:50:01Z</time>
      </trkpt>
      <trkpt lat="45.14766" lon="5.95335">
        <ele>2289</ele>
        <time>2020-08-11T07:50:02Z</time>
      </trkpt>
      <trkpt lat="45.14766" lon="5.95337">
        <ele>2289.2</ele>
        <time>2020-08-11T07:50:03Z</time>
      </trkpt>
      <trkpt lat="45.14766" lon="5.95339">
        <ele>2289.4</ele>
        <time>2020-08-11T07:50:04Z</time>
      </trkpt>
      <trkpt lat="45.14767" lon="5.9534">
        <ele>2289.6</ele>
        <time>2020-08-11T07:50:05Z</time>
      </trkpt>
      <trkpt lat="45.14767" lon="5.95342">
        <ele>2289.8</ele>
        <time>2020-08-11T07:50:06Z</time>
      </trkpt>
      <trkpt lat="45.14767" lon="5.95343">
        <ele>2290</ele>
        <time>2020-08-11T07:50:07Z</time>
      </trkpt>
      <trkpt lat="45.14768" lon="5.95343">
        <ele>2290.2</ele>
        <time>2020-08-11T07:50:08Z</time>
      </trkpt>
      <trkpt lat="45.14768" lon="5.95343">
        <ele>2290.6</ele>
        <time>2020-08-11T07:50:09Z</time>
      </trkpt>
      <trkpt lat="45.14768" lon="5.95343">
        <ele>2290.8</ele>
        <time>2020-08-11T07:50:10Z</time>
      </trkpt>
      <trkpt lat="45.14769" lon="5.95344">
        <ele>2290.8</ele>
        <time>2020-08-11T07:50:11Z</time>
      </trkpt>
      <trkpt lat="45.14769" lon="5.95344">
        <ele>2291.2</ele>
        <time>2020-08-11T07:50:12Z</time>
      </trkpt>
      <trkpt lat="45.14769" lon="5.95344">
        <ele>2291.2</ele>
        <time>2020-08-11T07:50:13Z</time>
      </trkpt>
      <trkpt lat="45.1477" lon="5.95344">
        <ele>2291.6</ele>
        <time>2020-08-11T07:50:14Z</time>
      </trkpt>
      <trkpt lat="45.1477" lon="5.95344">
        <ele>2292</ele>
        <time>2020-08-11T07:50:15Z</time>
      </trkpt>
      <trkpt lat="45.1477" lon="5.95344">
        <ele>2292.2</ele>
        <time>2020-08-11T07:50:16Z</time>
      </trkpt>
      <trkpt lat="45.14771" lon="5.95344">
        <ele>2292.4</ele>
        <time>2020-08-11T07:50:17Z</time>
      </trkpt>
      <trkpt lat="45.14771" lon="5.95344">
        <ele>2292.6</ele>
        <time>2020-08-11T07:50:18Z</time>
      </trkpt>
      <trkpt lat="45.14771" lon="5.95344">
        <ele>2292.6</ele>
        <time>2020-08-11T07:50:19Z</time>
      </trkpt>
      <trkpt lat="45.14771" lon="5.95344">
        <ele>2293</ele>
        <time>2020-08-11T07:50:20Z</time>
      </trkpt>
      <trkpt lat="45.14772" lon="5.95344">
        <ele>2293.4</ele>
        <time>2020-08-11T07:50:21Z</time>
      </trkpt>
      <trkpt lat="45.14772" lon="5.95344">
        <ele>2293.6</ele>
        <time>2020-08-11T07:50:22Z</time>
      </trkpt>
      <trkpt lat="45.14772" lon="5.95344">
        <ele>2293.8</ele>
        <time>2020-08-11T07:50:23Z</time>
      </trkpt>
      <trkpt lat="45.14773" lon="5.95344">
        <ele>2294.2</ele>
        <time>2020-08-11T07:50:24Z</time>
      </trkpt>
      <trkpt lat="45.14773" lon="5.95344">
        <ele>2294.4</ele>
        <time>2020-08-11T07:50:25Z</time>
      </trkpt>
      <trkpt lat="45.14773" lon="5.95344">
        <ele>2294.6</ele>
        <time>2020-08-11T07:50:26Z</time>
      </trkpt>
      <trkpt lat="45.14774" lon="5.95344">
        <ele>2294.8</ele>
        <time>2020-08-11T07:50:27Z</time>
      </trkpt>
      <trkpt lat="45.14774" lon="5.95344">
        <ele>2295</ele>
        <time>2020-08-11T07:50:28Z</time>
      </trkpt>
      <trkpt lat="45.14774" lon="5.95344">
        <ele>2295</ele>
        <time>2020-08-11T07:50:29Z</time>
      </trkpt>
      <trkpt lat="45.14775" lon="5.95344">
        <ele>2295.4</ele>
        <time>2020-08-11T07:50:30Z</time>
      </trkpt>
      <trkpt lat="45.14775" lon="5.95344">
        <ele>2295.6</ele>
        <time>2020-08-11T07:50:31Z</time>
      </trkpt>
      <trkpt lat="45.14775" lon="5.95344">
        <ele>2296.2</ele>
        <time>2020-08-11T07:50:32Z</time>
      </trkpt>
      <trkpt lat="45.14775" lon="5.95344">
        <ele>2296.4</ele>
        <time>2020-08-11T07:50:33Z</time>
      </trkpt>
      <trkpt lat="45.14776" lon="5.95344">
        <ele>2296.6</ele>
        <time>2020-08-11T07:50:34Z</time>
      </trkpt>
      <trkpt lat="45.14776" lon="5.95344">
        <ele>2296.8</ele>
        <time>2020-08-11T07:50:35Z</time>
      </trkpt>
      <trkpt lat="45.14776" lon="5.95344">
        <ele>2296.8</ele>
        <time>2020-08-11T07:50:36Z</time>
      </trkpt>
      <trkpt lat="45.14777" lon="5.95344">
        <ele>2297.2</ele>
        <time>2020-08-11T07:50:37Z</time>
      </trkpt>
      <trkpt lat="45.14777" lon="5.95344">
        <ele>2297.4</ele>
        <time>2020-08-11T07:50:38Z</time>
      </trkpt>
      <trkpt lat="45.14777" lon="5.95344">
        <ele>2297.4</ele>
        <time>2020-08-11T07:50:39Z</time>
      </trkpt>
      <trkpt lat="45.14778" lon="5.95344">
        <ele>2297.8</ele>
        <time>2020-08-11T07:50:40Z</time>
      </trkpt>
      <trkpt lat="45.14778" lon="5.95344">
        <ele>2298</ele>
        <time>2020-08-11T07:50:41Z</time>
      </trkpt>
      <trkpt lat="45.14778" lon="5.95344">
        <ele>2298.2</ele>
        <time>2020-08-11T07:50:42Z</time>
      </trkpt>
      <trkpt lat="45.14779" lon="5.95344">
        <ele>2298.6</ele>
        <time>2020-08-11T07:50:43Z</time>
      </trkpt>
      <trkpt lat="45.14779" lon="5.95344">
        <ele>2298.8</ele>
        <time>2020-08-11T07:50:44Z</time>
      </trkpt>
      <trkpt lat="45.14779" lon="5.95344">
        <ele>2299</ele>
        <time>2020-08-11T07:50:45Z</time>
      </trkpt>
      <trkpt lat="45.1478" lon="5.95345">
        <ele>2299.2</ele>
        <time>2020-08-11T07:50:46Z</time>
      </trkpt>
      <trkpt lat="45.1478" lon="5.95345">
        <ele>2299.4</ele>
        <time>2020-08-11T07:50:47Z</time>
      </trkpt>
      <trkpt lat="45.1478" lon="5.95345">
        <ele>2299.8</ele>
        <time>2020-08-11T07:50:48Z</time>
      </trkpt>
      <trkpt lat="45.14781" lon="5.95345">
        <ele>2300</ele>
        <time>2020-08-11T07:50:49Z</time>
      </trkpt>
      <trkpt lat="45.14781" lon="5.95345">
        <ele>2300</ele>
        <time>2020-08-11T07:50:50Z</time>
      </trkpt>
      <trkpt lat="45.14782" lon="5.95345">
        <ele>2300.2</ele>
        <time>2020-08-11T07:50:51Z</time>
      </trkpt>
      <trkpt lat="45.14782" lon="5.95345">
        <ele>2300.4</ele>
        <time>2020-08-11T07:50:52Z</time>
      </trkpt>
      <trkpt lat="45.14782" lon="5.95345">
        <ele>2300.8</ele>
        <time>2020-08-11T07:50:53Z</time>
      </trkpt>
      <trkpt lat="45.14783" lon="5.95345">
        <ele>2301</ele>
        <time>2020-08-11T07:50:54Z</time>
      </trkpt>
      <trkpt lat="45.14783" lon="5.95345">
        <ele>2301.8</ele>
        <time>2020-08-11T07:50:55Z</time>
      </trkpt>
      <trkpt lat="45.14783" lon="5.95345">
        <ele>2302.4</ele>
        <time>2020-08-11T07:50:56Z</time>
      </trkpt>
      <trkpt lat="45.14784" lon="5.95345">
        <ele>2302.8</ele>
        <time>2020-08-11T07:50:57Z</time>
      </trkpt>
      <trkpt lat="45.14784" lon="5.95345">
        <ele>2303.2</ele>
        <time>2020-08-11T07:50:58Z</time>
      </trkpt>
      <trkpt lat="45.14784" lon="5.95345">
        <ele>2303.2</ele>
        <time>2020-08-11T07:50:59Z</time>
      </trkpt>
      <trkpt lat="45.14785" lon="5.95345">
        <ele>2303.2</ele>
        <time>2020-08-11T07:51:00Z</time>
      </trkpt>
      <trkpt lat="45.14785" lon="5.95345">
        <ele>2303.2</ele>
        <time>2020-08-11T07:51:01Z</time>
      </trkpt>
      <trkpt lat="45.14785" lon="5.95346">
        <ele>2303.4</ele>
        <time>2020-08-11T07:51:02Z</time>
      </trkpt>
      <trkpt lat="45.14786" lon="5.95346">
        <ele>2303.4</ele>
        <time>2020-08-11T07:51:03Z</time>
      </trkpt>
      <trkpt lat="45.14786" lon="5.95346">
        <ele>2303.6</ele>
        <time>2020-08-11T07:51:04Z</time>
      </trkpt>
      <trkpt lat="45.14786" lon="5.95345">
        <ele>2303.6</ele>
        <time>2020-08-11T07:51:05Z</time>
      </trkpt>
      <trkpt lat="45.14787" lon="5.95345">
        <ele>2304</ele>
        <time>2020-08-11T07:51:06Z</time>
      </trkpt>
      <trkpt lat="45.14787" lon="5.95344">
        <ele>2304.2</ele>
        <time>2020-08-11T07:51:07Z</time>
      </trkpt>
      <trkpt lat="45.14787" lon="5.95344">
        <ele>2304.4</ele>
        <time>2020-08-11T07:51:08Z</time>
      </trkpt>
      <trkpt lat="45.14788" lon="5.95343">
        <ele>2304.4</ele>
        <time>2020-08-11T07:51:09Z</time>
      </trkpt>
      <trkpt lat="45.14788" lon="5.95342">
        <ele>2304.6</ele>
        <time>2020-08-11T07:51:10Z</time>
      </trkpt>
      <trkpt lat="45.14788" lon="5.95342">
        <ele>2305</ele>
        <time>2020-08-11T07:51:11Z</time>
      </trkpt>
      <trkpt lat="45.14789" lon="5.95341">
        <ele>2305.2</ele>
        <time>2020-08-11T07:51:12Z</time>
      </trkpt>
      <trkpt lat="45.14789" lon="5.95341">
        <ele>2305.4</ele>
        <time>2020-08-11T07:51:13Z</time>
      </trkpt>
      <trkpt lat="45.14789" lon="5.9534">
        <ele>2305.6</ele>
        <time>2020-08-11T07:51:14Z</time>
      </trkpt>
      <trkpt lat="45.1479" lon="5.9534">
        <ele>2306</ele>
        <time>2020-08-11T07:51:15Z</time>
      </trkpt>
      <trkpt lat="45.1479" lon="5.95339">
        <ele>2306.2</ele>
        <time>2020-08-11T07:51:16Z</time>
      </trkpt>
      <trkpt lat="45.1479" lon="5.95339">
        <ele>2306.4</ele>
        <time>2020-08-11T07:51:17Z</time>
      </trkpt>
      <trkpt lat="45.14791" lon="5.95338">
        <ele>2306.6</ele>
        <time>2020-08-11T07:51:18Z</time>
      </trkpt>
      <trkpt lat="45.14791" lon="5.95338">
        <ele>2306.8</ele>
        <time>2020-08-11T07:51:19Z</time>
      </trkpt>
      <trkpt lat="45.14791" lon="5.95337">
        <ele>2307</ele>
        <time>2020-08-11T07:51:20Z</time>
      </trkpt>
      <trkpt lat="45.14792" lon="5.95337">
        <ele>2307</ele>
        <time>2020-08-11T07:51:21Z</time>
      </trkpt>
      <trkpt lat="45.14792" lon="5.95336">
        <ele>2307.2</ele>
        <time>2020-08-11T07:51:22Z</time>
      </trkpt>
      <trkpt lat="45.14792" lon="5.95335">
        <ele>2307.6</ele>
        <time>2020-08-11T07:51:23Z</time>
      </trkpt>
      <trkpt lat="45.14793" lon="5.95335">
        <ele>2307.6</ele>
        <time>2020-08-11T07:51:24Z</time>
      </trkpt>
      <trkpt lat="45.14793" lon="5.95334">
        <ele>2308</ele>
        <time>2020-08-11T07:51:25Z</time>
      </trkpt>
      <trkpt lat="45.14794" lon="5.95333">
        <ele>2308.2</ele>
        <time>2020-08-11T07:51:26Z</time>
      </trkpt>
      <trkpt lat="45.14794" lon="5.95333">
        <ele>2308.4</ele>
        <time>2020-08-11T07:51:27Z</time>
      </trkpt>
      <trkpt lat="45.14794" lon="5.95332">
        <ele>2308.8</ele>
        <time>2020-08-11T07:51:28Z</time>
      </trkpt>
      <trkpt lat="45.14795" lon="5.95332">
        <ele>2308.8</ele>
        <time>2020-08-11T07:51:29Z</time>
      </trkpt>
      <trkpt lat="45.14795" lon="5.95331">
        <ele>2309.2</ele>
        <time>2020-08-11T07:51:30Z</time>
      </trkpt>
      <trkpt lat="45.14796" lon="5.9533">
        <ele>2309.4</ele>
        <time>2020-08-11T07:51:31Z</time>
      </trkpt>
      <trkpt lat="45.14796" lon="5.9533">
        <ele>2309.8</ele>
        <time>2020-08-11T07:51:32Z</time>
      </trkpt>
      <trkpt lat="45.14796" lon="5.95329">
        <ele>2310</ele>
        <time>2020-08-11T07:51:33Z</time>
      </trkpt>
      <trkpt lat="45.14797" lon="5.95328">
        <ele>2310</ele>
        <time>2020-08-11T07:51:34Z</time>
      </trkpt>
      <trkpt lat="45.14797" lon="5.95328">
        <ele>2310.4</ele>
        <time>2020-08-11T07:51:35Z</time>
      </trkpt>
      <trkpt lat="45.14798" lon="5.95327">
        <ele>2310.6</ele>
        <time>2020-08-11T07:51:36Z</time>
      </trkpt>
      <trkpt lat="45.14798" lon="5.95326">
        <ele>2310.8</ele>
        <time>2020-08-11T07:51:37Z</time>
      </trkpt>
      <trkpt lat="45.14798" lon="5.95326">
        <ele>2311.2</ele>
        <time>2020-08-11T07:51:38Z</time>
      </trkpt>
      <trkpt lat="45.14799" lon="5.95325">
        <ele>2311.2</ele>
        <time>2020-08-11T07:51:39Z</time>
      </trkpt>
      <trkpt lat="45.14799" lon="5.95325">
        <ele>2311.4</ele>
        <time>2020-08-11T07:51:40Z</time>
      </trkpt>
      <trkpt lat="45.14799" lon="5.95325">
        <ele>2311.6</ele>
        <time>2020-08-11T07:51:41Z</time>
      </trkpt>
      <trkpt lat="45.148" lon="5.95324">
        <ele>2311.8</ele>
        <time>2020-08-11T07:51:42Z</time>
      </trkpt>
      <trkpt lat="45.148" lon="5.95324">
        <ele>2312</ele>
        <time>2020-08-11T07:51:43Z</time>
      </trkpt>
      <trkpt lat="45.148" lon="5.95324">
        <ele>2312</ele>
        <time>2020-08-11T07:51:44Z</time>
      </trkpt>
      <trkpt lat="45.148" lon="5.95323">
        <ele>2312.2</ele>
        <time>2020-08-11T07:51:45Z</time>
      </trkpt>
      <trkpt lat="45.14801" lon="5.95323">
        <ele>2312.4</ele>
        <time>2020-08-11T07:51:46Z</time>
      </trkpt>
      <trkpt lat="45.14801" lon="5.95322">
        <ele>2312.4</ele>
        <time>2020-08-11T07:51:47Z</time>
      </trkpt>
      <trkpt lat="45.14801" lon="5.95322">
        <ele>2312.8</ele>
        <time>2020-08-11T07:51:48Z</time>
      </trkpt>
      <trkpt lat="45.14802" lon="5.95322">
        <ele>2313.2</ele>
        <time>2020-08-11T07:51:49Z</time>
      </trkpt>
      <trkpt lat="45.14802" lon="5.95321">
        <ele>2313.4</ele>
        <time>2020-08-11T07:51:50Z</time>
      </trkpt>
      <trkpt lat="45.14802" lon="5.95321">
        <ele>2313.4</ele>
        <time>2020-08-11T07:51:51Z</time>
      </trkpt>
      <trkpt lat="45.14802" lon="5.95321">
        <ele>2313.8</ele>
        <time>2020-08-11T07:51:52Z</time>
      </trkpt>
      <trkpt lat="45.14803" lon="5.9532">
        <ele>2314.4</ele>
        <time>2020-08-11T07:51:53Z</time>
      </trkpt>
      <trkpt lat="45.14803" lon="5.9532">
        <ele>2314.8</ele>
        <time>2020-08-11T07:51:54Z</time>
      </trkpt>
      <trkpt lat="45.14803" lon="5.9532">
        <ele>2315.2</ele>
        <time>2020-08-11T07:51:55Z</time>
      </trkpt>
      <trkpt lat="45.14804" lon="5.95319">
        <ele>2315.4</ele>
        <time>2020-08-11T07:51:56Z</time>
      </trkpt>
      <trkpt lat="45.14804" lon="5.95319">
        <ele>2315.4</ele>
        <time>2020-08-11T07:51:57Z</time>
      </trkpt>
      <trkpt lat="45.14804" lon="5.95319">
        <ele>2315.6</ele>
        <time>2020-08-11T07:51:58Z</time>
      </trkpt>
      <trkpt lat="45.14804" lon="5.95318">
        <ele>2316</ele>
        <time>2020-08-11T07:51:59Z</time>
      </trkpt>
      <trkpt lat="45.14805" lon="5.95318">
        <ele>2316.2</ele>
        <time>2020-08-11T07:52:00Z</time>
      </trkpt>
      <trkpt lat="45.14805" lon="5.95318">
        <ele>2316.6</ele>
        <time>2020-08-11T07:52:01Z</time>
      </trkpt>
      <trkpt lat="45.14805" lon="5.95317">
        <ele>2317</ele>
        <time>2020-08-11T07:52:02Z</time>
      </trkpt>
      <trkpt lat="45.14806" lon="5.95317">
        <ele>2317</ele>
        <time>2020-08-11T07:52:03Z</time>
      </trkpt>
      <trkpt lat="45.14806" lon="5.95317">
        <ele>2317.2</ele>
        <time>2020-08-11T07:52:04Z</time>
      </trkpt>
      <trkpt lat="45.14807" lon="5.95317">
        <ele>2317.4</ele>
        <time>2020-08-11T07:52:05Z</time>
      </trkpt>
      <trkpt lat="45.14807" lon="5.95318">
        <ele>2317.8</ele>
        <time>2020-08-11T07:52:06Z</time>
      </trkpt>
      <trkpt lat="45.14808" lon="5.95318">
        <ele>2318.2</ele>
        <time>2020-08-11T07:52:07Z</time>
      </trkpt>
      <trkpt lat="45.14808" lon="5.95318">
        <ele>2318.2</ele>
        <time>2020-08-11T07:52:08Z</time>
      </trkpt>
      <trkpt lat="45.14809" lon="5.95319">
        <ele>2318.6</ele>
        <time>2020-08-11T07:52:09Z</time>
      </trkpt>
      <trkpt lat="45.14809" lon="5.95319">
        <ele>2318.6</ele>
        <time>2020-08-11T07:52:10Z</time>
      </trkpt>
      <trkpt lat="45.1481" lon="5.95319">
        <ele>2318.8</ele>
        <time>2020-08-11T07:52:11Z</time>
      </trkpt>
      <trkpt lat="45.1481" lon="5.95319">
        <ele>2319</ele>
        <time>2020-08-11T07:52:12Z</time>
      </trkpt>
      <trkpt lat="45.14811" lon="5.9532">
        <ele>2319.2</ele>
        <time>2020-08-11T07:52:13Z</time>
      </trkpt>
      <trkpt lat="45.14811" lon="5.9532">
        <ele>2319.8</ele>
        <time>2020-08-11T07:52:14Z</time>
      </trkpt>
      <trkpt lat="45.14812" lon="5.9532">
        <ele>2320</ele>
        <time>2020-08-11T07:52:15Z</time>
      </trkpt>
      <trkpt lat="45.14812" lon="5.9532">
        <ele>2320.2</ele>
        <time>2020-08-11T07:52:16Z</time>
      </trkpt>
      <trkpt lat="45.14813" lon="5.95321">
        <ele>2320.4</ele>
        <time>2020-08-11T07:52:17Z</time>
      </trkpt>
      <trkpt lat="45.14813" lon="5.95321">
        <ele>2320.4</ele>
        <time>2020-08-11T07:52:18Z</time>
      </trkpt>
      <trkpt lat="45.14814" lon="5.95321">
        <ele>2320.8</ele>
        <time>2020-08-11T07:52:19Z</time>
      </trkpt>
      <trkpt lat="45.14814" lon="5.95322">
        <ele>2321</ele>
        <time>2020-08-11T07:52:20Z</time>
      </trkpt>
      <trkpt lat="45.14815" lon="5.95322">
        <ele>2321.2</ele>
        <time>2020-08-11T07:52:21Z</time>
      </trkpt>
      <trkpt lat="45.14815" lon="5.95322">
        <ele>2321.2</ele>
        <time>2020-08-11T07:52:22Z</time>
      </trkpt>
      <trkpt lat="45.14816" lon="5.95323">
        <ele>2321</ele>
        <time>2020-08-11T07:52:23Z</time>
      </trkpt>
      <trkpt lat="45.14816" lon="5.95323">
        <ele>2320.8</ele>
        <time>2020-08-11T07:52:24Z</time>
      </trkpt>
      <trkpt lat="45.14817" lon="5.95323">
        <ele>2320.8</ele>
        <time>2020-08-11T07:52:25Z</time>
      </trkpt>
      <trkpt lat="45.14817" lon="5.95324">
        <ele>2321</ele>
        <time>2020-08-11T07:52:26Z</time>
      </trkpt>
      <trkpt lat="45.14818" lon="5.95324">
        <ele>2321</ele>
        <time>2020-08-11T07:52:27Z</time>
      </trkpt>
      <trkpt lat="45.14818" lon="5.95324">
        <ele>2321</ele>
        <time>2020-08-11T07:52:28Z</time>
      </trkpt>
      <trkpt lat="45.14819" lon="5.95325">
        <ele>2321.2</ele>
        <time>2020-08-11T07:52:29Z</time>
      </trkpt>
      <trkpt lat="45.14819" lon="5.95325">
        <ele>2321</ele>
        <time>2020-08-11T07:52:30Z</time>
      </trkpt>
      <trkpt lat="45.1482" lon="5.95325">
        <ele>2321.2</ele>
        <time>2020-08-11T07:52:31Z</time>
      </trkpt>
      <trkpt lat="45.1482" lon="5.95326">
        <ele>2321.4</ele>
        <time>2020-08-11T07:52:32Z</time>
      </trkpt>
      <trkpt lat="45.14821" lon="5.95326">
        <ele>2321.4</ele>
        <time>2020-08-11T07:52:33Z</time>
      </trkpt>
      <trkpt lat="45.14821" lon="5.95326">
        <ele>2321.8</ele>
        <time>2020-08-11T07:52:34Z</time>
      </trkpt>
      <trkpt lat="45.14822" lon="5.95327">
        <ele>2322</ele>
        <time>2020-08-11T07:52:35Z</time>
      </trkpt>
      <trkpt lat="45.14822" lon="5.95327">
        <ele>2322</ele>
        <time>2020-08-11T07:52:36Z</time>
      </trkpt>
      <trkpt lat="45.14823" lon="5.95327">
        <ele>2322.4</ele>
        <time>2020-08-11T07:52:37Z</time>
      </trkpt>
      <trkpt lat="45.14823" lon="5.95328">
        <ele>2322.6</ele>
        <time>2020-08-11T07:52:38Z</time>
      </trkpt>
      <trkpt lat="45.14824" lon="5.95328">
        <ele>2322.8</ele>
        <time>2020-08-11T07:52:39Z</time>
      </trkpt>
      <trkpt lat="45.14824" lon="5.95329">
        <ele>2322.8</ele>
        <time>2020-08-11T07:52:40Z</time>
      </trkpt>
      <trkpt lat="45.14825" lon="5.95328">
        <ele>2323.2</ele>
        <time>2020-08-11T07:52:41Z</time>
      </trkpt>
      <trkpt lat="45.14825" lon="5.95328">
        <ele>2323.2</ele>
        <time>2020-08-11T07:52:42Z</time>
      </trkpt>
      <trkpt lat="45.14826" lon="5.95328">
        <ele>2323.4</ele>
        <time>2020-08-11T07:52:43Z</time>
      </trkpt>
      <trkpt lat="45.14827" lon="5.95327">
        <ele>2323.6</ele>
        <time>2020-08-11T07:52:44Z</time>
      </trkpt>
      <trkpt lat="45.14827" lon="5.95327">
        <ele>2323.4</ele>
        <time>2020-08-11T07:52:45Z</time>
      </trkpt>
      <trkpt lat="45.14828" lon="5.95327">
        <ele>2323.8</ele>
        <time>2020-08-11T07:52:46Z</time>
      </trkpt>
      <trkpt lat="45.14828" lon="5.95327">
        <ele>2324</ele>
        <time>2020-08-11T07:52:47Z</time>
      </trkpt>
      <trkpt lat="45.14829" lon="5.95326">
        <ele>2324.4</ele>
        <time>2020-08-11T07:52:48Z</time>
      </trkpt>
      <trkpt lat="45.1483" lon="5.95326">
        <ele>2324.8</ele>
        <time>2020-08-11T07:52:49Z</time>
      </trkpt>
      <trkpt lat="45.1483" lon="5.95326">
        <ele>2324.8</ele>
        <time>2020-08-11T07:52:50Z</time>
      </trkpt>
      <trkpt lat="45.14831" lon="5.95325">
        <ele>2325</ele>
        <time>2020-08-11T07:52:51Z</time>
      </trkpt>
      <trkpt lat="45.14831" lon="5.95325">
        <ele>2325.4</ele>
        <time>2020-08-11T07:52:52Z</time>
      </trkpt>
      <trkpt lat="45.14832" lon="5.95325">
        <ele>2325.6</ele>
        <time>2020-08-11T07:52:53Z</time>
      </trkpt>
      <trkpt lat="45.14833" lon="5.95325">
        <ele>2325.8</ele>
        <time>2020-08-11T07:52:54Z</time>
      </trkpt>
      <trkpt lat="45.14833" lon="5.95324">
        <ele>2326</ele>
        <time>2020-08-11T07:52:55Z</time>
      </trkpt>
      <trkpt lat="45.14833" lon="5.95324">
        <ele>2326.2</ele>
        <time>2020-08-11T07:52:56Z</time>
      </trkpt>
      <trkpt lat="45.14834" lon="5.95324">
        <ele>2326.4</ele>
        <time>2020-08-11T07:52:57Z</time>
      </trkpt>
      <trkpt lat="45.14834" lon="5.95325">
        <ele>2326.6</ele>
        <time>2020-08-11T07:52:58Z</time>
      </trkpt>
      <trkpt lat="45.14834" lon="5.95325">
        <ele>2326.8</ele>
        <time>2020-08-11T07:52:59Z</time>
      </trkpt>
      <trkpt lat="45.14835" lon="5.95325">
        <ele>2327</ele>
        <time>2020-08-11T07:53:00Z</time>
      </trkpt>
      <trkpt lat="45.14835" lon="5.95325">
        <ele>2327.6</ele>
        <time>2020-08-11T07:53:01Z</time>
      </trkpt>
      <trkpt lat="45.14835" lon="5.95325">
        <ele>2327.8</ele>
        <time>2020-08-11T07:53:02Z</time>
      </trkpt>
      <trkpt lat="45.14835" lon="5.95325">
        <ele>2328</ele>
        <time>2020-08-11T07:53:03Z</time>
      </trkpt>
      <trkpt lat="45.14836" lon="5.95325">
        <ele>2328.4</ele>
        <time>2020-08-11T07:53:04Z</time>
      </trkpt>
      <trkpt lat="45.14836" lon="5.95325">
        <ele>2328.4</ele>
        <time>2020-08-11T07:53:05Z</time>
      </trkpt>
      <trkpt lat="45.14836" lon="5.95325">
        <ele>2328.8</ele>
        <time>2020-08-11T07:53:06Z</time>
      </trkpt>
      <trkpt lat="45.14837" lon="5.95325">
        <ele>2329.2</ele>
        <time>2020-08-11T07:53:07Z</time>
      </trkpt>
      <trkpt lat="45.14837" lon="5.95325">
        <ele>2329.2</ele>
        <time>2020-08-11T07:53:08Z</time>
      </trkpt>
      <trkpt lat="45.14837" lon="5.95325">
        <ele>2329.4</ele>
        <time>2020-08-11T07:53:09Z</time>
      </trkpt>
      <trkpt lat="45.14838" lon="5.95326">
        <ele>2329.8</ele>
        <time>2020-08-11T07:53:10Z</time>
      </trkpt>
      <trkpt lat="45.14838" lon="5.95326">
        <ele>2330</ele>
        <time>2020-08-11T07:53:11Z</time>
      </trkpt>
      <trkpt lat="45.14838" lon="5.95326">
        <ele>2330.2</ele>
        <time>2020-08-11T07:53:12Z</time>
      </trkpt>
      <trkpt lat="45.14838" lon="5.95326">
        <ele>2330.4</ele>
        <time>2020-08-11T07:53:13Z</time>
      </trkpt>
      <trkpt lat="45.14839" lon="5.95326">
        <ele>2330.6</ele>
        <time>2020-08-11T07:53:14Z</time>
      </trkpt>
      <trkpt lat="45.14839" lon="5.95326">
        <ele>2330.8</ele>
        <time>2020-08-11T07:53:15Z</time>
      </trkpt>
      <trkpt lat="45.14839" lon="5.95326">
        <ele>2330.8</ele>
        <time>2020-08-11T07:53:16Z</time>
      </trkpt>
      <trkpt lat="45.1484" lon="5.95326">
        <ele>2331</ele>
        <time>2020-08-11T07:53:17Z</time>
      </trkpt>
      <trkpt lat="45.1484" lon="5.95326">
        <ele>2331</ele>
        <time>2020-08-11T07:53:18Z</time>
      </trkpt>
      <trkpt lat="45.1484" lon="5.95326">
        <ele>2331</ele>
        <time>2020-08-11T07:53:19Z</time>
      </trkpt>
      <trkpt lat="45.1484" lon="5.95326">
        <ele>2331.2</ele>
        <time>2020-08-11T07:53:20Z</time>
      </trkpt>
      <trkpt lat="45.14841" lon="5.95326">
        <ele>2331</ele>
        <time>2020-08-11T07:53:21Z</time>
      </trkpt>
      <trkpt lat="45.14841" lon="5.95327">
        <ele>2330.8</ele>
        <time>2020-08-11T07:53:22Z</time>
      </trkpt>
      <trkpt lat="45.14841" lon="5.95327">
        <ele>2330.8</ele>
        <time>2020-08-11T07:53:23Z</time>
      </trkpt>
      <trkpt lat="45.14842" lon="5.95327">
        <ele>2330.8</ele>
        <time>2020-08-11T07:53:24Z</time>
      </trkpt>
      <trkpt lat="45.14842" lon="5.95327">
        <ele>2331</ele>
        <time>2020-08-11T07:53:25Z</time>
      </trkpt>
      <trkpt lat="45.14842" lon="5.95327">
        <ele>2331</ele>
        <time>2020-08-11T07:53:26Z</time>
      </trkpt>
      <trkpt lat="45.14843" lon="5.95327">
        <ele>2331</ele>
        <time>2020-08-11T07:53:27Z</time>
      </trkpt>
      <trkpt lat="45.14843" lon="5.95326">
        <ele>2331</ele>
        <time>2020-08-11T07:53:28Z</time>
      </trkpt>
      <trkpt lat="45.14844" lon="5.95326">
        <ele>2331</ele>
        <time>2020-08-11T07:53:29Z</time>
      </trkpt>
      <trkpt lat="45.14844" lon="5.95326">
        <ele>2331.4</ele>
        <time>2020-08-11T07:53:30Z</time>
      </trkpt>
      <trkpt lat="45.14845" lon="5.95326">
        <ele>2331.4</ele>
        <time>2020-08-11T07:53:31Z</time>
      </trkpt>
      <trkpt lat="45.14845" lon="5.95326">
        <ele>2331.4</ele>
        <time>2020-08-11T07:53:32Z</time>
      </trkpt>
      <trkpt lat="45.14846" lon="5.95325">
        <ele>2331.4</ele>
        <time>2020-08-11T07:53:33Z</time>
      </trkpt>
      <trkpt lat="45.14846" lon="5.95325">
        <ele>2331.8</ele>
        <time>2020-08-11T07:53:34Z</time>
      </trkpt>
      <trkpt lat="45.14847" lon="5.95325">
        <ele>2332.2</ele>
        <time>2020-08-11T07:53:35Z</time>
      </trkpt>
      <trkpt lat="45.14848" lon="5.95326">
        <ele>2332.6</ele>
        <time>2020-08-11T07:53:36Z</time>
      </trkpt>
      <trkpt lat="45.14849" lon="5.95326">
        <ele>2333.2</ele>
        <time>2020-08-11T07:53:37Z</time>
      </trkpt>
      <trkpt lat="45.1485" lon="5.95326">
        <ele>2333.6</ele>
        <time>2020-08-11T07:53:38Z</time>
      </trkpt>
      <trkpt lat="45.14851" lon="5.95326">
        <ele>2333.8</ele>
        <time>2020-08-11T07:53:39Z</time>
      </trkpt>
      <trkpt lat="45.14852" lon="5.95327">
        <ele>2334.2</ele>
        <time>2020-08-11T07:53:40Z</time>
      </trkpt>
      <trkpt lat="45.14854" lon="5.95327">
        <ele>2334.2</ele>
        <time>2020-08-11T07:53:41Z</time>
      </trkpt>
      <trkpt lat="45.14855" lon="5.95327">
        <ele>2334.2</ele>
        <time>2020-08-11T07:53:42Z</time>
      </trkpt>
      <trkpt lat="45.14856" lon="5.95328">
        <ele>2334.4</ele>
        <time>2020-08-11T07:53:43Z</time>
      </trkpt>
      <trkpt lat="45.14857" lon="5.95328">
        <ele>2334.6</ele>
        <time>2020-08-11T07:53:44Z</time>
      </trkpt>
      <trkpt lat="45.14858" lon="5.95328">
        <ele>2334.6</ele>
        <time>2020-08-11T07:53:45Z</time>
      </trkpt>
      <trkpt lat="45.14858" lon="5.95328">
        <ele>2334.8</ele>
        <time>2020-08-11T07:53:46Z</time>
      </trkpt>
      <trkpt lat="45.14859" lon="5.95329">
        <ele>2335.2</ele>
        <time>2020-08-11T07:53:47Z</time>
      </trkpt>
      <trkpt lat="45.1486" lon="5.95329">
        <ele>2335.2</ele>
        <time>2020-08-11T07:53:48Z</time>
      </trkpt>
      <trkpt lat="45.14861" lon="5.95329">
        <ele>2335.4</ele>
        <time>2020-08-11T07:53:49Z</time>
      </trkpt>
      <trkpt lat="45.14862" lon="5.9533">
        <ele>2335.6</ele>
        <time>2020-08-11T07:53:50Z</time>
      </trkpt>
      <trkpt lat="45.14863" lon="5.95331">
        <ele>2335.8</ele>
        <time>2020-08-11T07:53:51Z</time>
      </trkpt>
      <trkpt lat="45.14863" lon="5.95332">
        <ele>2336</ele>
        <time>2020-08-11T07:53:52Z</time>
      </trkpt>
      <trkpt lat="45.14863" lon="5.95333">
        <ele>2336.2</ele>
        <time>2020-08-11T07:53:53Z</time>
      </trkpt>
      <trkpt lat="45.14864" lon="5.95334">
        <ele>2336.6</ele>
        <time>2020-08-11T07:53:54Z</time>
      </trkpt>
      <trkpt lat="45.14864" lon="5.95335">
        <ele>2337</ele>
        <time>2020-08-11T07:53:55Z</time>
      </trkpt>
      <trkpt lat="45.14864" lon="5.95336">
        <ele>2337</ele>
        <time>2020-08-11T07:53:56Z</time>
      </trkpt>
      <trkpt lat="45.14865" lon="5.95337">
        <ele>2337.4</ele>
        <time>2020-08-11T07:53:57Z</time>
      </trkpt>
      <trkpt lat="45.14865" lon="5.95338">
        <ele>2337.6</ele>
        <time>2020-08-11T07:53:58Z</time>
      </trkpt>
      <trkpt lat="45.14865" lon="5.95339">
        <ele>2337.8</ele>
        <time>2020-08-11T07:53:59Z</time>
      </trkpt>
      <trkpt lat="45.14866" lon="5.9534">
        <ele>2338</ele>
        <time>2020-08-11T07:54:00Z</time>
      </trkpt>
      <trkpt lat="45.14866" lon="5.95341">
        <ele>2338.2</ele>
        <time>2020-08-11T07:54:01Z</time>
      </trkpt>
      <trkpt lat="45.14866" lon="5.95342">
        <ele>2338</ele>
        <time>2020-08-11T07:54:02Z</time>
      </trkpt>
      <trkpt lat="45.14867" lon="5.95343">
        <ele>2338.4</ele>
        <time>2020-08-11T07:54:03Z</time>
      </trkpt>
      <trkpt lat="45.14867" lon="5.95344">
        <ele>2338.6</ele>
        <time>2020-08-11T07:54:04Z</time>
      </trkpt>
      <trkpt lat="45.14867" lon="5.95344">
        <ele>2338.8</ele>
        <time>2020-08-11T07:54:05Z</time>
      </trkpt>
      <trkpt lat="45.14868" lon="5.95343">
        <ele>2338.8</ele>
        <time>2020-08-11T07:54:06Z</time>
      </trkpt>
      <trkpt lat="45.14869" lon="5.95342">
        <ele>2339</ele>
        <time>2020-08-11T07:54:07Z</time>
      </trkpt>
      <trkpt lat="45.14869" lon="5.95342">
        <ele>2339.2</ele>
        <time>2020-08-11T07:54:08Z</time>
      </trkpt>
      <trkpt lat="45.1487" lon="5.95341">
        <ele>2339.4</ele>
        <time>2020-08-11T07:54:09Z</time>
      </trkpt>
      <trkpt lat="45.1487" lon="5.9534">
        <ele>2339.6</ele>
        <time>2020-08-11T07:54:10Z</time>
      </trkpt>
      <trkpt lat="45.14871" lon="5.9534">
        <ele>2339.8</ele>
        <time>2020-08-11T07:54:11Z</time>
      </trkpt>
      <trkpt lat="45.14872" lon="5.95339">
        <ele>2340</ele>
        <time>2020-08-11T07:54:12Z</time>
      </trkpt>
      <trkpt lat="45.14872" lon="5.95338">
        <ele>2340.4</ele>
        <time>2020-08-11T07:54:13Z</time>
      </trkpt>
      <trkpt lat="45.14873" lon="5.95338">
        <ele>2340.4</ele>
        <time>2020-08-11T07:54:14Z</time>
      </trkpt>
      <trkpt lat="45.14873" lon="5.95337">
        <ele>2340.8</ele>
        <time>2020-08-11T07:54:15Z</time>
      </trkpt>
      <trkpt lat="45.14874" lon="5.95336">
        <ele>2341.2</ele>
        <time>2020-08-11T07:54:16Z</time>
      </trkpt>
      <trkpt lat="45.14874" lon="5.95336">
        <ele>2341.4</ele>
        <time>2020-08-11T07:54:17Z</time>
      </trkpt>
      <trkpt lat="45.14875" lon="5.95337">
        <ele>2341.8</ele>
        <time>2020-08-11T07:54:18Z</time>
      </trkpt>
      <trkpt lat="45.14875" lon="5.95337">
        <ele>2342</ele>
        <time>2020-08-11T07:54:19Z</time>
      </trkpt>
      <trkpt lat="45.14876" lon="5.95338">
        <ele>2342.2</ele>
        <time>2020-08-11T07:54:20Z</time>
      </trkpt>
      <trkpt lat="45.14876" lon="5.95338">
        <ele>2342.2</ele>
        <time>2020-08-11T07:54:21Z</time>
      </trkpt>
      <trkpt lat="45.14876" lon="5.95338">
        <ele>2342.6</ele>
        <time>2020-08-11T07:54:22Z</time>
      </trkpt>
      <trkpt lat="45.14877" lon="5.95339">
        <ele>2343</ele>
        <time>2020-08-11T07:54:23Z</time>
      </trkpt>
      <trkpt lat="45.14877" lon="5.95339">
        <ele>2343.2</ele>
        <time>2020-08-11T07:54:24Z</time>
      </trkpt>
      <trkpt lat="45.14878" lon="5.95339">
        <ele>2343.4</ele>
        <time>2020-08-11T07:54:25Z</time>
      </trkpt>
      <trkpt lat="45.14878" lon="5.9534">
        <ele>2343.6</ele>
        <time>2020-08-11T07:54:26Z</time>
      </trkpt>
      <trkpt lat="45.14878" lon="5.9534">
        <ele>2343.4</ele>
        <time>2020-08-11T07:54:27Z</time>
      </trkpt>
      <trkpt lat="45.14879" lon="5.9534">
        <ele>2343.8</ele>
        <time>2020-08-11T07:54:28Z</time>
      </trkpt>
      <trkpt lat="45.14879" lon="5.95341">
        <ele>2343.8</ele>
        <time>2020-08-11T07:54:29Z</time>
      </trkpt>
      <trkpt lat="45.1488" lon="5.95341">
        <ele>2344.2</ele>
        <time>2020-08-11T07:54:30Z</time>
      </trkpt>
      <trkpt lat="45.1488" lon="5.95341">
        <ele>2344.4</ele>
        <time>2020-08-11T07:54:31Z</time>
      </trkpt>
      <trkpt lat="45.1488" lon="5.95342">
        <ele>2344.6</ele>
        <time>2020-08-11T07:54:32Z</time>
      </trkpt>
      <trkpt lat="45.14881" lon="5.95342">
        <ele>2344.6</ele>
        <time>2020-08-11T07:54:33Z</time>
      </trkpt>
      <trkpt lat="45.14881" lon="5.95342">
        <ele>2345</ele>
        <time>2020-08-11T07:54:34Z</time>
      </trkpt>
      <trkpt lat="45.14881" lon="5.95343">
        <ele>2345.2</ele>
        <time>2020-08-11T07:54:35Z</time>
      </trkpt>
      <trkpt lat="45.14882" lon="5.95343">
        <ele>2345.2</ele>
        <time>2020-08-11T07:54:36Z</time>
      </trkpt>
      <trkpt lat="45.14882" lon="5.95343">
        <ele>2345.4</ele>
        <time>2020-08-11T07:54:37Z</time>
      </trkpt>
      <trkpt lat="45.14883" lon="5.95344">
        <ele>2345.6</ele>
        <time>2020-08-11T07:54:38Z</time>
      </trkpt>
      <trkpt lat="45.14884" lon="5.95344">
        <ele>2345.8</ele>
        <time>2020-08-11T07:54:39Z</time>
      </trkpt>
      <trkpt lat="45.14884" lon="5.95345">
        <ele>2346</ele>
        <time>2020-08-11T07:54:40Z</time>
      </trkpt>
      <trkpt lat="45.14885" lon="5.95345">
        <ele>2346.4</ele>
        <time>2020-08-11T07:54:41Z</time>
      </trkpt>
      <trkpt lat="45.14886" lon="5.95345">
        <ele>2346.6</ele>
        <time>2020-08-11T07:54:42Z</time>
      </trkpt>
      <trkpt lat="45.14886" lon="5.95346">
        <ele>2347</ele>
        <time>2020-08-11T07:54:43Z</time>
      </trkpt>
      <trkpt lat="45.14887" lon="5.95346">
        <ele>2347</ele>
        <time>2020-08-11T07:54:44Z</time>
      </trkpt>
      <trkpt lat="45.14888" lon="5.95346">
        <ele>2347.2</ele>
        <time>2020-08-11T07:54:45Z</time>
      </trkpt>
      <trkpt lat="45.14888" lon="5.95347">
        <ele>2347.2</ele>
        <time>2020-08-11T07:54:46Z</time>
      </trkpt>
      <trkpt lat="45.14889" lon="5.95347">
        <ele>2347.6</ele>
        <time>2020-08-11T07:54:47Z</time>
      </trkpt>
      <trkpt lat="45.1489" lon="5.95347">
        <ele>2348</ele>
        <time>2020-08-11T07:54:48Z</time>
      </trkpt>
      <trkpt lat="45.1489" lon="5.95348">
        <ele>2348.2</ele>
        <time>2020-08-11T07:54:49Z</time>
      </trkpt>
      <trkpt lat="45.14891" lon="5.95348">
        <ele>2348.4</ele>
        <time>2020-08-11T07:54:50Z</time>
      </trkpt>
      <trkpt lat="45.14891" lon="5.95348">
        <ele>2348.8</ele>
        <time>2020-08-11T07:54:51Z</time>
      </trkpt>
      <trkpt lat="45.14892" lon="5.95348">
        <ele>2349</ele>
        <time>2020-08-11T07:54:52Z</time>
      </trkpt>
      <trkpt lat="45.14893" lon="5.95347">
        <ele>2349.2</ele>
        <time>2020-08-11T07:54:53Z</time>
      </trkpt>
      <trkpt lat="45.14893" lon="5.95347">
        <ele>2349.4</ele>
        <time>2020-08-11T07:54:54Z</time>
      </trkpt>
      <trkpt lat="45.14894" lon="5.95347">
        <ele>2349.6</ele>
        <time>2020-08-11T07:54:55Z</time>
      </trkpt>
      <trkpt lat="45.14894" lon="5.95346">
        <ele>2349.6</ele>
        <time>2020-08-11T07:54:56Z</time>
      </trkpt>
      <trkpt lat="45.14895" lon="5.95346">
        <ele>2350</ele>
        <time>2020-08-11T07:54:57Z</time>
      </trkpt>
      <trkpt lat="45.14895" lon="5.95346">
        <ele>2350.2</ele>
        <time>2020-08-11T07:54:58Z</time>
      </trkpt>
      <trkpt lat="45.14896" lon="5.95346">
        <ele>2350.4</ele>
        <time>2020-08-11T07:54:59Z</time>
      </trkpt>
      <trkpt lat="45.14897" lon="5.95345">
        <ele>2350.6</ele>
        <time>2020-08-11T07:55:00Z</time>
      </trkpt>
      <trkpt lat="45.14897" lon="5.95345">
        <ele>2350.8</ele>
        <time>2020-08-11T07:55:01Z</time>
      </trkpt>
      <trkpt lat="45.14898" lon="5.95345">
        <ele>2351</ele>
        <time>2020-08-11T07:55:02Z</time>
      </trkpt>
      <trkpt lat="45.14898" lon="5.95344">
        <ele>2351.2</ele>
        <time>2020-08-11T07:55:03Z</time>
      </trkpt>
      <trkpt lat="45.14899" lon="5.95344">
        <ele>2351.4</ele>
        <time>2020-08-11T07:55:04Z</time>
      </trkpt>
      <trkpt lat="45.14899" lon="5.95344">
        <ele>2351.6</ele>
        <time>2020-08-11T07:55:05Z</time>
      </trkpt>
      <trkpt lat="45.149" lon="5.95344">
        <ele>2351.6</ele>
        <time>2020-08-11T07:55:06Z</time>
      </trkpt>
      <trkpt lat="45.14901" lon="5.95344">
        <ele>2351.8</ele>
        <time>2020-08-11T07:55:07Z</time>
      </trkpt>
      <trkpt lat="45.14901" lon="5.95344">
        <ele>2351.8</ele>
        <time>2020-08-11T07:55:08Z</time>
      </trkpt>
      <trkpt lat="45.14902" lon="5.95344">
        <ele>2352.2</ele>
        <time>2020-08-11T07:55:09Z</time>
      </trkpt>
      <trkpt lat="45.14902" lon="5.95344">
        <ele>2352.4</ele>
        <time>2020-08-11T07:55:10Z</time>
      </trkpt>
      <trkpt lat="45.14903" lon="5.95344">
        <ele>2352.6</ele>
        <time>2020-08-11T07:55:11Z</time>
      </trkpt>
      <trkpt lat="45.14903" lon="5.95344">
        <ele>2353</ele>
        <time>2020-08-11T07:55:12Z</time>
      </trkpt>
      <trkpt lat="45.14904" lon="5.95344">
        <ele>2353.4</ele>
        <time>2020-08-11T07:55:13Z</time>
      </trkpt>
      <trkpt lat="45.14904" lon="5.95344">
        <ele>2353.6</ele>
        <time>2020-08-11T07:55:14Z</time>
      </trkpt>
      <trkpt lat="45.14905" lon="5.95343">
        <ele>2353.8</ele>
        <time>2020-08-11T07:55:15Z</time>
      </trkpt>
      <trkpt lat="45.14905" lon="5.95343">
        <ele>2354</ele>
        <time>2020-08-11T07:55:16Z</time>
      </trkpt>
      <trkpt lat="45.14906" lon="5.95343">
        <ele>2354.2</ele>
        <time>2020-08-11T07:55:17Z</time>
      </trkpt>
      <trkpt lat="45.14906" lon="5.95343">
        <ele>2354.6</ele>
        <time>2020-08-11T07:55:18Z</time>
      </trkpt>
      <trkpt lat="45.14907" lon="5.95343">
        <ele>2354.6</ele>
        <time>2020-08-11T07:55:19Z</time>
      </trkpt>
      <trkpt lat="45.14908" lon="5.95343">
        <ele>2354.8</ele>
        <time>2020-08-11T07:55:20Z</time>
      </trkpt>
      <trkpt lat="45.14908" lon="5.95343">
        <ele>2355</ele>
        <time>2020-08-11T07:55:21Z</time>
      </trkpt>
      <trkpt lat="45.14909" lon="5.95343">
        <ele>2355.4</ele>
        <time>2020-08-11T07:55:22Z</time>
      </trkpt>
      <trkpt lat="45.14909" lon="5.95344">
        <ele>2355.8</ele>
        <time>2020-08-11T07:55:23Z</time>
      </trkpt>
      <trkpt lat="45.1491" lon="5.95344">
        <ele>2356</ele>
        <time>2020-08-11T07:55:24Z</time>
      </trkpt>
      <trkpt lat="45.1491" lon="5.95344">
        <ele>2356.8</ele>
        <time>2020-08-11T07:55:25Z</time>
      </trkpt>
      <trkpt lat="45.1491" lon="5.95345">
        <ele>2357.2</ele>
        <time>2020-08-11T07:55:26Z</time>
      </trkpt>
      <trkpt lat="45.14911" lon="5.95345">
        <ele>2357.6</ele>
        <time>2020-08-11T07:55:27Z</time>
      </trkpt>
      <trkpt lat="45.14911" lon="5.95346">
        <ele>2357.4</ele>
        <time>2020-08-11T07:55:28Z</time>
      </trkpt>
      <trkpt lat="45.14912" lon="5.95346">
        <ele>2357.2</ele>
        <time>2020-08-11T07:55:29Z</time>
      </trkpt>
      <trkpt lat="45.14912" lon="5.95346">
        <ele>2357</ele>
        <time>2020-08-11T07:55:30Z</time>
      </trkpt>
      <trkpt lat="45.14913" lon="5.95347">
        <ele>2356.8</ele>
        <time>2020-08-11T07:55:31Z</time>
      </trkpt>
      <trkpt lat="45.14913" lon="5.95347">
        <ele>2356.8</ele>
        <time>2020-08-11T07:55:32Z</time>
      </trkpt>
      <trkpt lat="45.14914" lon="5.95348">
        <ele>2356.8</ele>
        <time>2020-08-11T07:55:33Z</time>
      </trkpt>
      <trkpt lat="45.14914" lon="5.95348">
        <ele>2356.8</ele>
        <time>2020-08-11T07:55:34Z</time>
      </trkpt>
      <trkpt lat="45.14914" lon="5.95348">
        <ele>2356.8</ele>
        <time>2020-08-11T07:55:35Z</time>
      </trkpt>
      <trkpt lat="45.14915" lon="5.95349">
        <ele>2356.8</ele>
        <time>2020-08-11T07:55:36Z</time>
      </trkpt>
      <trkpt lat="45.14915" lon="5.95349">
        <ele>2356.8</ele>
        <time>2020-08-11T07:55:37Z</time>
      </trkpt>
      <trkpt lat="45.14916" lon="5.9535">
        <ele>2356.8</ele>
        <time>2020-08-11T07:55:38Z</time>
      </trkpt>
      <trkpt lat="45.14916" lon="5.9535">
        <ele>2356.6</ele>
        <time>2020-08-11T07:55:39Z</time>
      </trkpt>
      <trkpt lat="45.14917" lon="5.95351">
        <ele>2356.8</ele>
        <time>2020-08-11T07:55:40Z</time>
      </trkpt>
      <trkpt lat="45.14919" lon="5.95352">
        <ele>2356.8</ele>
        <time>2020-08-11T07:55:41Z</time>
      </trkpt>
      <trkpt lat="45.1492" lon="5.95353">
        <ele>2356.8</ele>
        <time>2020-08-11T07:55:42Z</time>
      </trkpt>
      <trkpt lat="45.14921" lon="5.95354">
        <ele>2357</ele>
        <time>2020-08-11T07:55:43Z</time>
      </trkpt>
      <trkpt lat="45.14922" lon="5.95355">
        <ele>2357.6</ele>
        <time>2020-08-11T07:55:44Z</time>
      </trkpt>
      <trkpt lat="45.14924" lon="5.95356">
        <ele>2357.4</ele>
        <time>2020-08-11T07:55:45Z</time>
      </trkpt>
      <trkpt lat="45.14925" lon="5.95357">
        <ele>2357.4</ele>
        <time>2020-08-11T07:55:46Z</time>
      </trkpt>
      <trkpt lat="45.14925" lon="5.95357">
        <ele>2357.6</ele>
        <time>2020-08-11T07:55:47Z</time>
      </trkpt>
      <trkpt lat="45.14925" lon="5.95357">
        <ele>2357.6</ele>
        <time>2020-08-11T07:55:48Z</time>
      </trkpt>
      <trkpt lat="45.14925" lon="5.95357">
        <ele>2357.8</ele>
        <time>2020-08-11T07:55:49Z</time>
      </trkpt>
      <trkpt lat="45.14925" lon="5.95357">
        <ele>2357.8</ele>
        <time>2020-08-11T07:55:50Z</time>
      </trkpt>
      <trkpt lat="45.14926" lon="5.95358">
        <ele>2357.8</ele>
        <time>2020-08-11T07:55:51Z</time>
      </trkpt>
      <trkpt lat="45.14926" lon="5.95358">
        <ele>2357.8</ele>
        <time>2020-08-11T07:55:52Z</time>
      </trkpt>
      <trkpt lat="45.14926" lon="5.95358">
        <ele>2358</ele>
        <time>2020-08-11T07:55:53Z</time>
      </trkpt>
      <trkpt lat="45.14926" lon="5.95358">
        <ele>2358</ele>
        <time>2020-08-11T07:55:54Z</time>
      </trkpt>
      <trkpt lat="45.14926" lon="5.95358">
        <ele>2358</ele>
        <time>2020-08-11T07:55:55Z</time>
      </trkpt>
      <trkpt lat="45.14926" lon="5.95359">
        <ele>2358</ele>
        <time>2020-08-11T07:55:56Z</time>
      </trkpt>
      <trkpt lat="45.14926" lon="5.95359">
        <ele>2358.2</ele>
        <time>2020-08-11T07:55:57Z</time>
      </trkpt>
      <trkpt lat="45.14926" lon="5.95359">
        <ele>2358.2</ele>
        <time>2020-08-11T07:55:58Z</time>
      </trkpt>
      <trkpt lat="45.14926" lon="5.95359">
        <ele>2358</ele>
        <time>2020-08-11T07:55:59Z</time>
      </trkpt>
      <trkpt lat="45.14927" lon="5.9536">
        <ele>2357.8</ele>
        <time>2020-08-11T07:56:00Z</time>
      </trkpt>
      <trkpt lat="45.14927" lon="5.9536">
        <ele>2357.8</ele>
        <time>2020-08-11T07:56:01Z</time>
      </trkpt>
      <trkpt lat="45.14927" lon="5.9536">
        <ele>2357.8</ele>
        <time>2020-08-11T07:56:02Z</time>
      </trkpt>
      <trkpt lat="45.14927" lon="5.9536">
        <ele>2357.8</ele>
        <time>2020-08-11T07:56:03Z</time>
      </trkpt>
      <trkpt lat="45.14927" lon="5.9536">
        <ele>2357.8</ele>
        <time>2020-08-11T07:56:04Z</time>
      </trkpt>
      <trkpt lat="45.14927" lon="5.95361">
        <ele>2358</ele>
        <time>2020-08-11T07:56:05Z</time>
      </trkpt>
      <trkpt lat="45.14927" lon="5.95361">
        <ele>2357.8</ele>
        <time>2020-08-11T07:56:06Z</time>
      </trkpt>
      <trkpt lat="45.14927" lon="5.95361">
        <ele>2358.2</ele>
        <time>2020-08-11T07:56:07Z</time>
      </trkpt>
      <trkpt lat="45.14928" lon="5.95361">
        <ele>2358.2</ele>
        <time>2020-08-11T07:56:08Z</time>
      </trkpt>
      <trkpt lat="45.14928" lon="5.95361">
        <ele>2358.2</ele>
        <time>2020-08-11T07:56:09Z</time>
      </trkpt>
      <trkpt lat="45.14928" lon="5.95362">
        <ele>2358</ele>
        <time>2020-08-11T07:56:10Z</time>
      </trkpt>
      <trkpt lat="45.14928" lon="5.95362">
        <ele>2358</ele>
        <time>2020-08-11T07:56:11Z</time>
      </trkpt>
      <trkpt lat="45.14928" lon="5.95362">
        <ele>2358</ele>
        <time>2020-08-11T07:56:12Z</time>
      </trkpt>
      <trkpt lat="45.14928" lon="5.95362">
        <ele>2357.8</ele>
        <time>2020-08-11T07:56:13Z</time>
      </trkpt>
      <trkpt lat="45.14928" lon="5.95362">
        <ele>2357.8</ele>
        <time>2020-08-11T07:56:14Z</time>
      </trkpt>
      <trkpt lat="45.14928" lon="5.95363">
        <ele>2357.6</ele>
        <time>2020-08-11T07:56:15Z</time>
      </trkpt>
      <trkpt lat="45.14929" lon="5.95363">
        <ele>2357.8</ele>
        <time>2020-08-11T07:56:16Z</time>
      </trkpt>
      <trkpt lat="45.14929" lon="5.95363">
        <ele>2357.6</ele>
        <time>2020-08-11T07:56:17Z</time>
      </trkpt>
      <trkpt lat="45.14929" lon="5.95363">
        <ele>2357.8</ele>
        <time>2020-08-11T07:56:18Z</time>
      </trkpt>
      <trkpt lat="45.14929" lon="5.95363">
        <ele>2357.8</ele>
        <time>2020-08-11T07:56:19Z</time>
      </trkpt>
      <trkpt lat="45.14929" lon="5.95364">
        <ele>2357.6</ele>
        <time>2020-08-11T07:56:20Z</time>
      </trkpt>
      <trkpt lat="45.14929" lon="5.95364">
        <ele>2357.6</ele>
        <time>2020-08-11T07:56:21Z</time>
      </trkpt>
      <trkpt lat="45.14929" lon="5.95364">
        <ele>2357.4</ele>
        <time>2020-08-11T07:56:22Z</time>
      </trkpt>
      <trkpt lat="45.14929" lon="5.95364">
        <ele>2357.4</ele>
        <time>2020-08-11T07:56:23Z</time>
      </trkpt>
      <trkpt lat="45.14929" lon="5.95364">
        <ele>2357.4</ele>
        <time>2020-08-11T07:56:24Z</time>
      </trkpt>
      <trkpt lat="45.1493" lon="5.95365">
        <ele>2357.4</ele>
        <time>2020-08-11T07:56:25Z</time>
      </trkpt>
      <trkpt lat="45.1493" lon="5.95365">
        <ele>2357.4</ele>
        <time>2020-08-11T07:56:26Z</time>
      </trkpt>
      <trkpt lat="45.1493" lon="5.95365">
        <ele>2357.4</ele>
        <time>2020-08-11T07:56:27Z</time>
      </trkpt>
      <trkpt lat="45.1493" lon="5.95365">
        <ele>2357.6</ele>
        <time>2020-08-11T07:56:28Z</time>
      </trkpt>
      <trkpt lat="45.1493" lon="5.95365">
        <ele>2357.6</ele>
        <time>2020-08-11T07:56:29Z</time>
      </trkpt>
      <trkpt lat="45.1493" lon="5.95366">
        <ele>2357.4</ele>
        <time>2020-08-11T07:56:30Z</time>
      </trkpt>
      <trkpt lat="45.1493" lon="5.95366">
        <ele>2357.4</ele>
        <time>2020-08-11T07:56:31Z</time>
      </trkpt>
      <trkpt lat="45.1493" lon="5.95366">
        <ele>2357.4</ele>
        <time>2020-08-11T07:56:32Z</time>
      </trkpt>
      <trkpt lat="45.14931" lon="5.95366">
        <ele>2357.6</ele>
        <time>2020-08-11T07:56:33Z</time>
      </trkpt>
      <trkpt lat="45.14931" lon="5.95366">
        <ele>2357.8</ele>
        <time>2020-08-11T07:56:34Z</time>
      </trkpt>
      <trkpt lat="45.14931" lon="5.95367">
        <ele>2358</ele>
        <time>2020-08-11T07:56:35Z</time>
      </trkpt>
      <trkpt lat="45.14931" lon="5.95367">
        <ele>2358.2</ele>
        <time>2020-08-11T07:56:36Z</time>
      </trkpt>
      <trkpt lat="45.14932" lon="5.95367">
        <ele>2358.4</ele>
        <time>2020-08-11T07:56:37Z</time>
      </trkpt>
      <trkpt lat="45.14932" lon="5.95368">
        <ele>2358.6</ele>
        <time>2020-08-11T07:56:38Z</time>
      </trkpt>
      <trkpt lat="45.14933" lon="5.95368">
        <ele>2359</ele>
        <time>2020-08-11T07:56:39Z</time>
      </trkpt>
      <trkpt lat="45.14933" lon="5.95368">
        <ele>2359</ele>
        <time>2020-08-11T07:56:40Z</time>
      </trkpt>
      <trkpt lat="45.14933" lon="5.95369">
        <ele>2359.2</ele>
        <time>2020-08-11T07:56:41Z</time>
      </trkpt>
      <trkpt lat="45.14934" lon="5.95369">
        <ele>2359.6</ele>
        <time>2020-08-11T07:56:42Z</time>
      </trkpt>
      <trkpt lat="45.14934" lon="5.95369">
        <ele>2359.8</ele>
        <time>2020-08-11T07:56:43Z</time>
      </trkpt>
      <trkpt lat="45.14935" lon="5.95369">
        <ele>2360.2</ele>
        <time>2020-08-11T07:56:44Z</time>
      </trkpt>
      <trkpt lat="45.14935" lon="5.9537">
        <ele>2360.6</ele>
        <time>2020-08-11T07:56:45Z</time>
      </trkpt>
      <trkpt lat="45.14936" lon="5.9537">
        <ele>2360.6</ele>
        <time>2020-08-11T07:56:46Z</time>
      </trkpt>
      <trkpt lat="45.14936" lon="5.9537">
        <ele>2361</ele>
        <time>2020-08-11T07:56:47Z</time>
      </trkpt>
      <trkpt lat="45.14937" lon="5.95371">
        <ele>2361.4</ele>
        <time>2020-08-11T07:56:48Z</time>
      </trkpt>
      <trkpt lat="45.14937" lon="5.95371">
        <ele>2361.6</ele>
        <time>2020-08-11T07:56:49Z</time>
      </trkpt>
      <trkpt lat="45.14938" lon="5.95371">
        <ele>2362</ele>
        <time>2020-08-11T07:56:50Z</time>
      </trkpt>
      <trkpt lat="45.14938" lon="5.95372">
        <ele>2362</ele>
        <time>2020-08-11T07:56:51Z</time>
      </trkpt>
      <trkpt lat="45.14938" lon="5.95372">
        <ele>2362.2</ele>
        <time>2020-08-11T07:56:52Z</time>
      </trkpt>
      <trkpt lat="45.14939" lon="5.95372">
        <ele>2362.6</ele>
        <time>2020-08-11T07:56:53Z</time>
      </trkpt>
      <trkpt lat="45.14939" lon="5.95373">
        <ele>2362.8</ele>
        <time>2020-08-11T07:56:54Z</time>
      </trkpt>
      <trkpt lat="45.1494" lon="5.95373">
        <ele>2362.8</ele>
        <time>2020-08-11T07:56:55Z</time>
      </trkpt>
      <trkpt lat="45.14941" lon="5.95373">
        <ele>2363</ele>
        <time>2020-08-11T07:56:56Z</time>
      </trkpt>
      <trkpt lat="45.14942" lon="5.95373">
        <ele>2363.2</ele>
        <time>2020-08-11T07:56:57Z</time>
      </trkpt>
      <trkpt lat="45.14943" lon="5.95374">
        <ele>2363.2</ele>
        <time>2020-08-11T07:56:58Z</time>
      </trkpt>
      <trkpt lat="45.14943" lon="5.95374">
        <ele>2363</ele>
        <time>2020-08-11T07:56:59Z</time>
      </trkpt>
      <trkpt lat="45.14944" lon="5.95374">
        <ele>2363.2</ele>
        <time>2020-08-11T07:57:00Z</time>
      </trkpt>
      <trkpt lat="45.14945" lon="5.95375">
        <ele>2363.2</ele>
        <time>2020-08-11T07:57:01Z</time>
      </trkpt>
      <trkpt lat="45.14946" lon="5.95375">
        <ele>2363.2</ele>
        <time>2020-08-11T07:57:02Z</time>
      </trkpt>
      <trkpt lat="45.14947" lon="5.95375">
        <ele>2363.2</ele>
        <time>2020-08-11T07:57:03Z</time>
      </trkpt>
      <trkpt lat="45.14947" lon="5.95376">
        <ele>2363.2</ele>
        <time>2020-08-11T07:57:04Z</time>
      </trkpt>
      <trkpt lat="45.14948" lon="5.95376">
        <ele>2363.2</ele>
        <time>2020-08-11T07:57:05Z</time>
      </trkpt>
      <trkpt lat="45.14949" lon="5.95376">
        <ele>2363.2</ele>
        <time>2020-08-11T07:57:06Z</time>
      </trkpt>
      <trkpt lat="45.14949" lon="5.95377">
        <ele>2363.2</ele>
        <time>2020-08-11T07:57:07Z</time>
      </trkpt>
      <trkpt lat="45.1495" lon="5.95377">
        <ele>2363.4</ele>
        <time>2020-08-11T07:57:08Z</time>
      </trkpt>
      <trkpt lat="45.1495" lon="5.95378">
        <ele>2363.6</ele>
        <time>2020-08-11T07:57:09Z</time>
      </trkpt>
      <trkpt lat="45.1495" lon="5.95378">
        <ele>2363.6</ele>
        <time>2020-08-11T07:57:10Z</time>
      </trkpt>
      <trkpt lat="45.14951" lon="5.95379">
        <ele>2364</ele>
        <time>2020-08-11T07:57:11Z</time>
      </trkpt>
      <trkpt lat="45.14951" lon="5.95379">
        <ele>2364.2</ele>
        <time>2020-08-11T07:57:12Z</time>
      </trkpt>
      <trkpt lat="45.14952" lon="5.9538">
        <ele>2364.6</ele>
        <time>2020-08-11T07:57:13Z</time>
      </trkpt>
      <trkpt lat="45.14952" lon="5.9538">
        <ele>2364.6</ele>
        <time>2020-08-11T07:57:14Z</time>
      </trkpt>
      <trkpt lat="45.14953" lon="5.95381">
        <ele>2364.6</ele>
        <time>2020-08-11T07:57:15Z</time>
      </trkpt>
      <trkpt lat="45.14953" lon="5.95381">
        <ele>2365</ele>
        <time>2020-08-11T07:57:16Z</time>
      </trkpt>
      <trkpt lat="45.14954" lon="5.95382">
        <ele>2365.4</ele>
        <time>2020-08-11T07:57:17Z</time>
      </trkpt>
      <trkpt lat="45.14954" lon="5.95382">
        <ele>2365.6</ele>
        <time>2020-08-11T07:57:18Z</time>
      </trkpt>
      <trkpt lat="45.14955" lon="5.95383">
        <ele>2365.8</ele>
        <time>2020-08-11T07:57:19Z</time>
      </trkpt>
      <trkpt lat="45.14955" lon="5.95383">
        <ele>2366</ele>
        <time>2020-08-11T07:57:20Z</time>
      </trkpt>
      <trkpt lat="45.14956" lon="5.95383">
        <ele>2366.2</ele>
        <time>2020-08-11T07:57:21Z</time>
      </trkpt>
      <trkpt lat="45.14956" lon="5.95384">
        <ele>2366.6</ele>
        <time>2020-08-11T07:57:22Z</time>
      </trkpt>
      <trkpt lat="45.14957" lon="5.95384">
        <ele>2366.8</ele>
        <time>2020-08-11T07:57:23Z</time>
      </trkpt>
      <trkpt lat="45.14957" lon="5.95385">
        <ele>2367</ele>
        <time>2020-08-11T07:57:24Z</time>
      </trkpt>
      <trkpt lat="45.14958" lon="5.95385">
        <ele>2367.2</ele>
        <time>2020-08-11T07:57:25Z</time>
      </trkpt>
      <trkpt lat="45.14959" lon="5.95385">
        <ele>2367.2</ele>
        <time>2020-08-11T07:57:26Z</time>
      </trkpt>
      <trkpt lat="45.14959" lon="5.95386">
        <ele>2367.4</ele>
        <time>2020-08-11T07:57:27Z</time>
      </trkpt>
      <trkpt lat="45.1496" lon="5.95386">
        <ele>2367.6</ele>
        <time>2020-08-11T07:57:28Z</time>
      </trkpt>
      <trkpt lat="45.1496" lon="5.95387">
        <ele>2368</ele>
        <time>2020-08-11T07:57:29Z</time>
      </trkpt>
      <trkpt lat="45.14961" lon="5.95387">
        <ele>2368.2</ele>
        <time>2020-08-11T07:57:30Z</time>
      </trkpt>
      <trkpt lat="45.14962" lon="5.95387">
        <ele>2368.2</ele>
        <time>2020-08-11T07:57:31Z</time>
      </trkpt>
      <trkpt lat="45.14962" lon="5.95388">
        <ele>2368.4</ele>
        <time>2020-08-11T07:57:32Z</time>
      </trkpt>
      <trkpt lat="45.14963" lon="5.95388">
        <ele>2368.6</ele>
        <time>2020-08-11T07:57:33Z</time>
      </trkpt>
      <trkpt lat="45.14963" lon="5.95389">
        <ele>2368.6</ele>
        <time>2020-08-11T07:57:34Z</time>
      </trkpt>
      <trkpt lat="45.14964" lon="5.95389">
        <ele>2369</ele>
        <time>2020-08-11T07:57:35Z</time>
      </trkpt>
      <trkpt lat="45.14965" lon="5.95389">
        <ele>2369.4</ele>
        <time>2020-08-11T07:57:36Z</time>
      </trkpt>
      <trkpt lat="45.14965" lon="5.9539">
        <ele>2369.6</ele>
        <time>2020-08-11T07:57:37Z</time>
      </trkpt>
      <trkpt lat="45.14966" lon="5.9539">
        <ele>2369.6</ele>
        <time>2020-08-11T07:57:38Z</time>
      </trkpt>
      <trkpt lat="45.14967" lon="5.9539">
        <ele>2369.8</ele>
        <time>2020-08-11T07:57:39Z</time>
      </trkpt>
      <trkpt lat="45.14968" lon="5.95391">
        <ele>2370</ele>
        <time>2020-08-11T07:57:40Z</time>
      </trkpt>
      <trkpt lat="45.14968" lon="5.95391">
        <ele>2370.2</ele>
        <time>2020-08-11T07:57:41Z</time>
      </trkpt>
      <trkpt lat="45.14969" lon="5.95391">
        <ele>2370.4</ele>
        <time>2020-08-11T07:57:42Z</time>
      </trkpt>
      <trkpt lat="45.1497" lon="5.95392">
        <ele>2370.6</ele>
        <time>2020-08-11T07:57:43Z</time>
      </trkpt>
      <trkpt lat="45.14971" lon="5.95392">
        <ele>2370.6</ele>
        <time>2020-08-11T07:57:44Z</time>
      </trkpt>
      <trkpt lat="45.14971" lon="5.95392">
        <ele>2370.6</ele>
        <time>2020-08-11T07:57:45Z</time>
      </trkpt>
      <trkpt lat="45.14972" lon="5.95393">
        <ele>2370.8</ele>
        <time>2020-08-11T07:57:46Z</time>
      </trkpt>
      <trkpt lat="45.14973" lon="5.95393">
        <ele>2370.8</ele>
        <time>2020-08-11T07:57:47Z</time>
      </trkpt>
      <trkpt lat="45.14973" lon="5.95393">
        <ele>2371.2</ele>
        <time>2020-08-11T07:57:48Z</time>
      </trkpt>
      <trkpt lat="45.14974" lon="5.95394">
        <ele>2371.6</ele>
        <time>2020-08-11T07:57:49Z</time>
      </trkpt>
      <trkpt lat="45.14975" lon="5.95395">
        <ele>2371.6</ele>
        <time>2020-08-11T07:57:50Z</time>
      </trkpt>
      <trkpt lat="45.14976" lon="5.95396">
        <ele>2371.6</ele>
        <time>2020-08-11T07:57:51Z</time>
      </trkpt>
      <trkpt lat="45.14976" lon="5.95397">
        <ele>2371.8</ele>
        <time>2020-08-11T07:57:52Z</time>
      </trkpt>
      <trkpt lat="45.14977" lon="5.95397">
        <ele>2372</ele>
        <time>2020-08-11T07:57:53Z</time>
      </trkpt>
      <trkpt lat="45.14978" lon="5.95398">
        <ele>2372.2</ele>
        <time>2020-08-11T07:57:54Z</time>
      </trkpt>
      <trkpt lat="45.14979" lon="5.95399">
        <ele>2372.2</ele>
        <time>2020-08-11T07:57:55Z</time>
      </trkpt>
      <trkpt lat="45.14979" lon="5.954">
        <ele>2372.4</ele>
        <time>2020-08-11T07:57:56Z</time>
      </trkpt>
      <trkpt lat="45.1498" lon="5.95401">
        <ele>2372.4</ele>
        <time>2020-08-11T07:57:57Z</time>
      </trkpt>
      <trkpt lat="45.14981" lon="5.95402">
        <ele>2372.8</ele>
        <time>2020-08-11T07:57:58Z</time>
      </trkpt>
      <trkpt lat="45.14981" lon="5.95402">
        <ele>2373</ele>
        <time>2020-08-11T07:57:59Z</time>
      </trkpt>
      <trkpt lat="45.14982" lon="5.95405">
        <ele>2373.2</ele>
        <time>2020-08-11T07:58:00Z</time>
      </trkpt>
      <trkpt lat="45.14982" lon="5.95405">
        <ele>2373.4</ele>
        <time>2020-08-11T07:58:01Z</time>
      </trkpt>
      <trkpt lat="45.14982" lon="5.95409">
        <ele>2373.4</ele>
        <time>2020-08-11T07:58:02Z</time>
      </trkpt>
      <trkpt lat="45.14982" lon="5.95409">
        <ele>2373.8</ele>
        <time>2020-08-11T07:58:03Z</time>
      </trkpt>
      <trkpt lat="45.14982" lon="5.95413">
        <ele>2374</ele>
        <time>2020-08-11T07:58:04Z</time>
      </trkpt>
      <trkpt lat="45.14982" lon="5.95413">
        <ele>2374</ele>
        <time>2020-08-11T07:58:05Z</time>
      </trkpt>
      <trkpt lat="45.14981" lon="5.95414">
        <ele>2374</ele>
        <time>2020-08-11T07:58:06Z</time>
      </trkpt>
      <trkpt lat="45.14981" lon="5.95415">
        <ele>2374.2</ele>
        <time>2020-08-11T07:58:07Z</time>
      </trkpt>
      <trkpt lat="45.14981" lon="5.95416">
        <ele>2374.6</ele>
        <time>2020-08-11T07:58:08Z</time>
      </trkpt>
      <trkpt lat="45.14981" lon="5.95417">
        <ele>2374.8</ele>
        <time>2020-08-11T07:58:09Z</time>
      </trkpt>
      <trkpt lat="45.1498" lon="5.95418">
        <ele>2374.8</ele>
        <time>2020-08-11T07:58:10Z</time>
      </trkpt>
      <trkpt lat="45.1498" lon="5.95419">
        <ele>2375</ele>
        <time>2020-08-11T07:58:11Z</time>
      </trkpt>
      <trkpt lat="45.1498" lon="5.9542">
        <ele>2375.2</ele>
        <time>2020-08-11T07:58:12Z</time>
      </trkpt>
      <trkpt lat="45.14981" lon="5.95422">
        <ele>2375.2</ele>
        <time>2020-08-11T07:58:13Z</time>
      </trkpt>
      <trkpt lat="45.14981" lon="5.95424">
        <ele>2375.6</ele>
        <time>2020-08-11T07:58:14Z</time>
      </trkpt>
      <trkpt lat="45.14981" lon="5.95425">
        <ele>2375.8</ele>
        <time>2020-08-11T07:58:15Z</time>
      </trkpt>
      <trkpt lat="45.14981" lon="5.95427">
        <ele>2375.8</ele>
        <time>2020-08-11T07:58:16Z</time>
      </trkpt>
      <trkpt lat="45.14981" lon="5.95428">
        <ele>2376</ele>
        <time>2020-08-11T07:58:17Z</time>
      </trkpt>
      <trkpt lat="45.14981" lon="5.95428">
        <ele>2376.2</ele>
        <time>2020-08-11T07:58:18Z</time>
      </trkpt>
      <trkpt lat="45.14981" lon="5.95428">
        <ele>2376.4</ele>
        <time>2020-08-11T07:58:19Z</time>
      </trkpt>
      <trkpt lat="45.14982" lon="5.95429">
        <ele>2376.8</ele>
        <time>2020-08-11T07:58:20Z</time>
      </trkpt>
      <trkpt lat="45.14982" lon="5.9543">
        <ele>2376.8</ele>
        <time>2020-08-11T07:58:21Z</time>
      </trkpt>
      <trkpt lat="45.14982" lon="5.95431">
        <ele>2376.8</ele>
        <time>2020-08-11T07:58:22Z</time>
      </trkpt>
      <trkpt lat="45.14983" lon="5.95433">
        <ele>2377.2</ele>
        <time>2020-08-11T07:58:23Z</time>
      </trkpt>
      <trkpt lat="45.14983" lon="5.95434">
        <ele>2377.6</ele>
        <time>2020-08-11T07:58:24Z</time>
      </trkpt>
      <trkpt lat="45.14984" lon="5.95435">
        <ele>2377.8</ele>
        <time>2020-08-11T07:58:25Z</time>
      </trkpt>
      <trkpt lat="45.14984" lon="5.95436">
        <ele>2378</ele>
        <time>2020-08-11T07:58:26Z</time>
      </trkpt>
      <trkpt lat="45.14984" lon="5.95437">
        <ele>2378.2</ele>
        <time>2020-08-11T07:58:27Z</time>
      </trkpt>
      <trkpt lat="45.14985" lon="5.95438">
        <ele>2378.4</ele>
        <time>2020-08-11T07:58:28Z</time>
      </trkpt>
      <trkpt lat="45.14985" lon="5.95439">
        <ele>2378.4</ele>
        <time>2020-08-11T07:58:29Z</time>
      </trkpt>
      <trkpt lat="45.14985" lon="5.9544">
        <ele>2378.6</ele>
        <time>2020-08-11T07:58:30Z</time>
      </trkpt>
      <trkpt lat="45.14986" lon="5.95441">
        <ele>2378.8</ele>
        <time>2020-08-11T07:58:31Z</time>
      </trkpt>
      <trkpt lat="45.14986" lon="5.95442">
        <ele>2378.8</ele>
        <time>2020-08-11T07:58:32Z</time>
      </trkpt>
      <trkpt lat="45.14987" lon="5.95443">
        <ele>2378.8</ele>
        <time>2020-08-11T07:58:33Z</time>
      </trkpt>
      <trkpt lat="45.14987" lon="5.95445">
        <ele>2379</ele>
        <time>2020-08-11T07:58:34Z</time>
      </trkpt>
      <trkpt lat="45.14988" lon="5.95446">
        <ele>2379</ele>
        <time>2020-08-11T07:58:35Z</time>
      </trkpt>
      <trkpt lat="45.14989" lon="5.95448">
        <ele>2379</ele>
        <time>2020-08-11T07:58:36Z</time>
      </trkpt>
      <trkpt lat="45.14989" lon="5.95449">
        <ele>2379</ele>
        <time>2020-08-11T07:58:37Z</time>
      </trkpt>
      <trkpt lat="45.1499" lon="5.95451">
        <ele>2379.4</ele>
        <time>2020-08-11T07:58:38Z</time>
      </trkpt>
      <trkpt lat="45.14991" lon="5.95452">
        <ele>2379.4</ele>
        <time>2020-08-11T07:58:39Z</time>
      </trkpt>
      <trkpt lat="45.14991" lon="5.95454">
        <ele>2379.8</ele>
        <time>2020-08-11T07:58:40Z</time>
      </trkpt>
      <trkpt lat="45.14992" lon="5.95454">
        <ele>2380</ele>
        <time>2020-08-11T07:58:41Z</time>
      </trkpt>
      <trkpt lat="45.14992" lon="5.95455">
        <ele>2380.4</ele>
        <time>2020-08-11T07:58:42Z</time>
      </trkpt>
      <trkpt lat="45.14992" lon="5.95456">
        <ele>2380.6</ele>
        <time>2020-08-11T07:58:43Z</time>
      </trkpt>
      <trkpt lat="45.14993" lon="5.95457">
        <ele>2380.8</ele>
        <time>2020-08-11T07:58:44Z</time>
      </trkpt>
      <trkpt lat="45.14993" lon="5.95457">
        <ele>2381</ele>
        <time>2020-08-11T07:58:45Z</time>
      </trkpt>
      <trkpt lat="45.14993" lon="5.95458">
        <ele>2381.6</ele>
        <time>2020-08-11T07:58:46Z</time>
      </trkpt>
      <trkpt lat="45.14994" lon="5.95459">
        <ele>2381.8</ele>
        <time>2020-08-11T07:58:47Z</time>
      </trkpt>
      <trkpt lat="45.14994" lon="5.95459">
        <ele>2382</ele>
        <time>2020-08-11T07:58:48Z</time>
      </trkpt>
      <trkpt lat="45.14994" lon="5.9546">
        <ele>2382.4</ele>
        <time>2020-08-11T07:58:49Z</time>
      </trkpt>
      <trkpt lat="45.14995" lon="5.95461">
        <ele>2382.4</ele>
        <time>2020-08-11T07:58:50Z</time>
      </trkpt>
      <trkpt lat="45.14996" lon="5.95464">
        <ele>2382.8</ele>
        <time>2020-08-11T07:58:51Z</time>
      </trkpt>
      <trkpt lat="45.14996" lon="5.95464">
        <ele>2383.4</ele>
        <time>2020-08-11T07:58:52Z</time>
      </trkpt>
      <trkpt lat="45.14999" lon="5.95467">
        <ele>2383.8</ele>
        <time>2020-08-11T07:58:53Z</time>
      </trkpt>
      <trkpt lat="45.14999" lon="5.95467">
        <ele>2383.8</ele>
        <time>2020-08-11T07:58:54Z</time>
      </trkpt>
      <trkpt lat="45.15" lon="5.9547">
        <ele>2383.6</ele>
        <time>2020-08-11T07:58:55Z</time>
      </trkpt>
      <trkpt lat="45.15002" lon="5.95472">
        <ele>2383.6</ele>
        <time>2020-08-11T07:58:56Z</time>
      </trkpt>
      <trkpt lat="45.15002" lon="5.95472">
        <ele>2383.6</ele>
        <time>2020-08-11T07:58:57Z</time>
      </trkpt>
      <trkpt lat="45.15005" lon="5.95474">
        <ele>2383.4</ele>
        <time>2020-08-11T07:58:58Z</time>
      </trkpt>
      <trkpt lat="45.15005" lon="5.95474">
        <ele>2383.2</ele>
        <time>2020-08-11T07:58:59Z</time>
      </trkpt>
      <trkpt lat="45.15007" lon="5.95476">
        <ele>2383.2</ele>
        <time>2020-08-11T07:59:00Z</time>
      </trkpt>
      <trkpt lat="45.15007" lon="5.95476">
        <ele>2383.2</ele>
        <time>2020-08-11T07:59:01Z</time>
      </trkpt>
      <trkpt lat="45.15007" lon="5.95476">
        <ele>2383.2</ele>
        <time>2020-08-11T07:59:02Z</time>
      </trkpt>
      <trkpt lat="45.15009" lon="5.95478">
        <ele>2383.4</ele>
        <time>2020-08-11T07:59:03Z</time>
      </trkpt>
      <trkpt lat="45.15009" lon="5.95478">
        <ele>2383.4</ele>
        <time>2020-08-11T07:59:04Z</time>
      </trkpt>
      <trkpt lat="45.15012" lon="5.95481">
        <ele>2383.2</ele>
        <time>2020-08-11T07:59:05Z</time>
      </trkpt>
      <trkpt lat="45.15012" lon="5.95481">
        <ele>2383.2</ele>
        <time>2020-08-11T07:59:06Z</time>
      </trkpt>
      <trkpt lat="45.15014" lon="5.95483">
        <ele>2382.8</ele>
        <time>2020-08-11T07:59:07Z</time>
      </trkpt>
      <trkpt lat="45.15016" lon="5.95485">
        <ele>2382.8</ele>
        <time>2020-08-11T07:59:08Z</time>
      </trkpt>
      <trkpt lat="45.15016" lon="5.95485">
        <ele>2382.8</ele>
        <time>2020-08-11T07:59:09Z</time>
      </trkpt>
      <trkpt lat="45.15016" lon="5.95485">
        <ele>2382.8</ele>
        <time>2020-08-11T07:59:10Z</time>
      </trkpt>
      <trkpt lat="45.15016" lon="5.95485">
        <ele>2383.2</ele>
        <time>2020-08-11T07:59:11Z</time>
      </trkpt>
      <trkpt lat="45.15016" lon="5.95485">
        <ele>2383.2</ele>
        <time>2020-08-11T07:59:12Z</time>
      </trkpt>
      <trkpt lat="45.15018" lon="5.95485">
        <ele>2383.2</ele>
        <time>2020-08-11T07:59:13Z</time>
      </trkpt>
      <trkpt lat="45.15018" lon="5.95485">
        <ele>2383.2</ele>
        <time>2020-08-11T07:59:14Z</time>
      </trkpt>
      <trkpt lat="45.15018" lon="5.95485">
        <ele>2383.2</ele>
        <time>2020-08-11T07:59:15Z</time>
      </trkpt>
      <trkpt lat="45.15018" lon="5.95485">
        <ele>2383.2</ele>
        <time>2020-08-11T07:59:16Z</time>
      </trkpt>
      <trkpt lat="45.15018" lon="5.95485">
        <ele>2383.2</ele>
        <time>2020-08-11T07:59:17Z</time>
      </trkpt>
      <trkpt lat="45.15018" lon="5.95485">
        <ele>2383.2</ele>
        <time>2020-08-11T07:59:18Z</time>
      </trkpt>
      <trkpt lat="45.15019" lon="5.95486">
        <ele>2383.2</ele>
        <time>2020-08-11T07:59:19Z</time>
      </trkpt>
      <trkpt lat="45.15019" lon="5.95486">
        <ele>2383</ele>
        <time>2020-08-11T07:59:20Z</time>
      </trkpt>
      <trkpt lat="45.15019" lon="5.95486">
        <ele>2383</ele>
        <time>2020-08-11T07:59:21Z</time>
      </trkpt>
      <trkpt lat="45.1502" lon="5.95489">
        <ele>2383.4</ele>
        <time>2020-08-11T07:59:22Z</time>
      </trkpt>
      <trkpt lat="45.1502" lon="5.95489">
        <ele>2383.4</ele>
        <time>2020-08-11T07:59:23Z</time>
      </trkpt>
      <trkpt lat="45.1502" lon="5.95489">
        <ele>2383.2</ele>
        <time>2020-08-11T07:59:24Z</time>
      </trkpt>
      <trkpt lat="45.1502" lon="5.95489">
        <ele>2383.2</ele>
        <time>2020-08-11T07:59:25Z</time>
      </trkpt>
      <trkpt lat="45.1502" lon="5.95489">
        <ele>2383.2</ele>
        <time>2020-08-11T07:59:26Z</time>
      </trkpt>
      <trkpt lat="45.1502" lon="5.95489">
        <ele>2383.4</ele>
        <time>2020-08-11T07:59:27Z</time>
      </trkpt>
      <trkpt lat="45.1502" lon="5.95489">
        <ele>2383.4</ele>
        <time>2020-08-11T07:59:28Z</time>
      </trkpt>
      <trkpt lat="45.1502" lon="5.95489">
        <ele>2383.4</ele>
        <time>2020-08-11T07:59:29Z</time>
      </trkpt>
      <trkpt lat="45.1502" lon="5.95489">
        <ele>2383.6</ele>
        <time>2020-08-11T07:59:30Z</time>
      </trkpt>
      <trkpt lat="45.1502" lon="5.95489">
        <ele>2383.6</ele>
        <time>2020-08-11T07:59:31Z</time>
      </trkpt>
      <trkpt lat="45.1502" lon="5.95489">
        <ele>2383.6</ele>
        <time>2020-08-11T07:59:32Z</time>
      </trkpt>
      <trkpt lat="45.15021" lon="5.95491">
        <ele>2383.6</ele>
        <time>2020-08-11T07:59:33Z</time>
      </trkpt>
      <trkpt lat="45.15021" lon="5.95491">
        <ele>2383.8</ele>
        <time>2020-08-11T07:59:34Z</time>
      </trkpt>
      <trkpt lat="45.15021" lon="5.95491">
        <ele>2384</ele>
        <time>2020-08-11T07:59:35Z</time>
      </trkpt>
      <trkpt lat="45.15021" lon="5.95491">
        <ele>2384.2</ele>
        <time>2020-08-11T07:59:36Z</time>
      </trkpt>
      <trkpt lat="45.15021" lon="5.95491">
        <ele>2384</ele>
        <time>2020-08-11T07:59:37Z</time>
      </trkpt>
      <trkpt lat="45.15021" lon="5.95491">
        <ele>2383.8</ele>
        <time>2020-08-11T07:59:38Z</time>
      </trkpt>
      <trkpt lat="45.15023" lon="5.95488">
        <ele>2383.6</ele>
        <time>2020-08-11T07:59:39Z</time>
      </trkpt>
      <trkpt lat="45.15023" lon="5.95488">
        <ele>2383.4</ele>
        <time>2020-08-11T07:59:40Z</time>
      </trkpt>
      <trkpt lat="45.15025" lon="5.95488">
        <ele>2383.4</ele>
        <time>2020-08-11T07:59:41Z</time>
      </trkpt>
      <trkpt lat="45.15028" lon="5.95487">
        <ele>2383.4</ele>
        <time>2020-08-11T07:59:42Z</time>
      </trkpt>
      <trkpt lat="45.15028" lon="5.95487">
        <ele>2383.4</ele>
        <time>2020-08-11T07:59:43Z</time>
      </trkpt>
      <trkpt lat="45.15028" lon="5.95487">
        <ele>2383.4</ele>
        <time>2020-08-11T07:59:44Z</time>
      </trkpt>
      <trkpt lat="45.15031" lon="5.95486">
        <ele>2383.4</ele>
        <time>2020-08-11T07:59:45Z</time>
      </trkpt>
      <trkpt lat="45.15031" lon="5.95486">
        <ele>2383.6</ele>
        <time>2020-08-11T07:59:46Z</time>
      </trkpt>
      <trkpt lat="45.15032" lon="5.95486">
        <ele>2383.4</ele>
        <time>2020-08-11T07:59:47Z</time>
      </trkpt>
      <trkpt lat="45.15033" lon="5.95486">
        <ele>2383.6</ele>
        <time>2020-08-11T07:59:48Z</time>
      </trkpt>
      <trkpt lat="45.15033" lon="5.95486">
        <ele>2383.6</ele>
        <time>2020-08-11T07:59:49Z</time>
      </trkpt>
      <trkpt lat="45.15034" lon="5.95486">
        <ele>2383.8</ele>
        <time>2020-08-11T07:59:50Z</time>
      </trkpt>
      <trkpt lat="45.15035" lon="5.95486">
        <ele>2384</ele>
        <time>2020-08-11T07:59:51Z</time>
      </trkpt>
      <trkpt lat="45.15035" lon="5.95486">
        <ele>2384.4</ele>
        <time>2020-08-11T07:59:52Z</time>
      </trkpt>
      <trkpt lat="45.15036" lon="5.95486">
        <ele>2384.6</ele>
        <time>2020-08-11T07:59:53Z</time>
      </trkpt>
      <trkpt lat="45.15037" lon="5.95486">
        <ele>2385</ele>
        <time>2020-08-11T07:59:54Z</time>
      </trkpt>
      <trkpt lat="45.15038" lon="5.95486">
        <ele>2385.2</ele>
        <time>2020-08-11T07:59:55Z</time>
      </trkpt>
      <trkpt lat="45.15038" lon="5.95486">
        <ele>2385.6</ele>
        <time>2020-08-11T07:59:56Z</time>
      </trkpt>
      <trkpt lat="45.15039" lon="5.95486">
        <ele>2385.6</ele>
        <time>2020-08-11T07:59:57Z</time>
      </trkpt>
      <trkpt lat="45.1504" lon="5.95486">
        <ele>2385.8</ele>
        <time>2020-08-11T07:59:58Z</time>
      </trkpt>
      <trkpt lat="45.1504" lon="5.95486">
        <ele>2386.4</ele>
        <time>2020-08-11T07:59:59Z</time>
      </trkpt>
      <trkpt lat="45.15041" lon="5.95487">
        <ele>2386.6</ele>
        <time>2020-08-11T08:00:01Z</time>
      </trkpt>
      <trkpt lat="45.15042" lon="5.95487">
        <ele>2386.6</ele>
        <time>2020-08-11T08:00:02Z</time>
      </trkpt>
      <trkpt lat="45.15043" lon="5.95488">
        <ele>2387</ele>
        <time>2020-08-11T08:00:03Z</time>
      </trkpt>
      <trkpt lat="45.15044" lon="5.95488">
        <ele>2387.4</ele>
        <time>2020-08-11T08:00:04Z</time>
      </trkpt>
      <trkpt lat="45.15045" lon="5.95489">
        <ele>2387.6</ele>
        <time>2020-08-11T08:00:05Z</time>
      </trkpt>
      <trkpt lat="45.15046" lon="5.95489">
        <ele>2387.6</ele>
        <time>2020-08-11T08:00:06Z</time>
      </trkpt>
      <trkpt lat="45.15047" lon="5.95489">
        <ele>2387.8</ele>
        <time>2020-08-11T08:00:07Z</time>
      </trkpt>
      <trkpt lat="45.15048" lon="5.9549">
        <ele>2387.8</ele>
        <time>2020-08-11T08:00:08Z</time>
      </trkpt>
      <trkpt lat="45.15049" lon="5.9549">
        <ele>2387.6</ele>
        <time>2020-08-11T08:00:09Z</time>
      </trkpt>
      <trkpt lat="45.1505" lon="5.95491">
        <ele>2387.6</ele>
        <time>2020-08-11T08:00:10Z</time>
      </trkpt>
      <trkpt lat="45.15051" lon="5.95491">
        <ele>2387.8</ele>
        <time>2020-08-11T08:00:11Z</time>
      </trkpt>
      <trkpt lat="45.15052" lon="5.95491">
        <ele>2388.2</ele>
        <time>2020-08-11T08:00:12Z</time>
      </trkpt>
      <trkpt lat="45.15053" lon="5.95491">
        <ele>2388.2</ele>
        <time>2020-08-11T08:00:13Z</time>
      </trkpt>
      <trkpt lat="45.15054" lon="5.95491">
        <ele>2388.4</ele>
        <time>2020-08-11T08:00:14Z</time>
      </trkpt>
      <trkpt lat="45.15055" lon="5.95491">
        <ele>2388.4</ele>
        <time>2020-08-11T08:00:15Z</time>
      </trkpt>
      <trkpt lat="45.15056" lon="5.95491">
        <ele>2388.8</ele>
        <time>2020-08-11T08:00:16Z</time>
      </trkpt>
      <trkpt lat="45.15057" lon="5.95491">
        <ele>2389.2</ele>
        <time>2020-08-11T08:00:17Z</time>
      </trkpt>
      <trkpt lat="45.15057" lon="5.95491">
        <ele>2389.4</ele>
        <time>2020-08-11T08:00:18Z</time>
      </trkpt>
      <trkpt lat="45.15058" lon="5.95491">
        <ele>2389.6</ele>
        <time>2020-08-11T08:00:19Z</time>
      </trkpt>
      <trkpt lat="45.15059" lon="5.95491">
        <ele>2389.6</ele>
        <time>2020-08-11T08:00:20Z</time>
      </trkpt>
      <trkpt lat="45.1506" lon="5.95491">
        <ele>2389.8</ele>
        <time>2020-08-11T08:00:21Z</time>
      </trkpt>
      <trkpt lat="45.15061" lon="5.95491">
        <ele>2390.2</ele>
        <time>2020-08-11T08:00:22Z</time>
      </trkpt>
      <trkpt lat="45.15062" lon="5.95491">
        <ele>2390.2</ele>
        <time>2020-08-11T08:00:23Z</time>
      </trkpt>
      <trkpt lat="45.15062" lon="5.95491">
        <ele>2390.4</ele>
        <time>2020-08-11T08:00:24Z</time>
      </trkpt>
      <trkpt lat="45.15063" lon="5.95491">
        <ele>2390.6</ele>
        <time>2020-08-11T08:00:25Z</time>
      </trkpt>
      <trkpt lat="45.15064" lon="5.95492">
        <ele>2390.6</ele>
        <time>2020-08-11T08:00:26Z</time>
      </trkpt>
      <trkpt lat="45.15065" lon="5.95492">
        <ele>2390.6</ele>
        <time>2020-08-11T08:00:27Z</time>
      </trkpt>
      <trkpt lat="45.15065" lon="5.95492">
        <ele>2391.2</ele>
        <time>2020-08-11T08:00:28Z</time>
      </trkpt>
      <trkpt lat="45.15066" lon="5.95492">
        <ele>2391.4</ele>
        <time>2020-08-11T08:00:29Z</time>
      </trkpt>
      <trkpt lat="45.15067" lon="5.95492">
        <ele>2391.4</ele>
        <time>2020-08-11T08:00:30Z</time>
      </trkpt>
      <trkpt lat="45.15068" lon="5.95492">
        <ele>2391.4</ele>
        <time>2020-08-11T08:00:31Z</time>
      </trkpt>
      <trkpt lat="45.15068" lon="5.95492">
        <ele>2391.6</ele>
        <time>2020-08-11T08:00:32Z</time>
      </trkpt>
      <trkpt lat="45.1507" lon="5.95492">
        <ele>2391.8</ele>
        <time>2020-08-11T08:00:33Z</time>
      </trkpt>
      <trkpt lat="45.15072" lon="5.95492">
        <ele>2392</ele>
        <time>2020-08-11T08:00:34Z</time>
      </trkpt>
      <trkpt lat="45.15073" lon="5.95492">
        <ele>2392</ele>
        <time>2020-08-11T08:00:35Z</time>
      </trkpt>
      <trkpt lat="45.15075" lon="5.95492">
        <ele>2392</ele>
        <time>2020-08-11T08:00:36Z</time>
      </trkpt>
      <trkpt lat="45.15077" lon="5.95492">
        <ele>2392.2</ele>
        <time>2020-08-11T08:00:37Z</time>
      </trkpt>
      <trkpt lat="45.15078" lon="5.95492">
        <ele>2392.2</ele>
        <time>2020-08-11T08:00:38Z</time>
      </trkpt>
      <trkpt lat="45.15078" lon="5.95492">
        <ele>2392.4</ele>
        <time>2020-08-11T08:00:39Z</time>
      </trkpt>
      <trkpt lat="45.15081" lon="5.95491">
        <ele>2392.4</ele>
        <time>2020-08-11T08:00:40Z</time>
      </trkpt>
      <trkpt lat="45.15083" lon="5.95491">
        <ele>2392.4</ele>
        <time>2020-08-11T08:00:41Z</time>
      </trkpt>
      <trkpt lat="45.15083" lon="5.95491">
        <ele>2392.6</ele>
        <time>2020-08-11T08:00:42Z</time>
      </trkpt>
      <trkpt lat="45.15085" lon="5.95491">
        <ele>2392.6</ele>
        <time>2020-08-11T08:00:43Z</time>
      </trkpt>
      <trkpt lat="45.15085" lon="5.95491">
        <ele>2392.8</ele>
        <time>2020-08-11T08:00:44Z</time>
      </trkpt>
      <trkpt lat="45.15085" lon="5.95491">
        <ele>2393</ele>
        <time>2020-08-11T08:00:45Z</time>
      </trkpt>
      <trkpt lat="45.15088" lon="5.95491">
        <ele>2393.2</ele>
        <time>2020-08-11T08:00:46Z</time>
      </trkpt>
      <trkpt lat="45.15088" lon="5.95491">
        <ele>2393.4</ele>
        <time>2020-08-11T08:00:47Z</time>
      </trkpt>
      <trkpt lat="45.15089" lon="5.95489">
        <ele>2393.6</ele>
        <time>2020-08-11T08:00:48Z</time>
      </trkpt>
      <trkpt lat="45.15089" lon="5.95489">
        <ele>2393.8</ele>
        <time>2020-08-11T08:00:49Z</time>
      </trkpt>
      <trkpt lat="45.1509" lon="5.95486">
        <ele>2393.8</ele>
        <time>2020-08-11T08:00:50Z</time>
      </trkpt>
      <trkpt lat="45.1509" lon="5.95486">
        <ele>2394.2</ele>
        <time>2020-08-11T08:00:51Z</time>
      </trkpt>
      <trkpt lat="45.1509" lon="5.95486">
        <ele>2394.2</ele>
        <time>2020-08-11T08:00:52Z</time>
      </trkpt>
      <trkpt lat="45.15092" lon="5.95484">
        <ele>2394.4</ele>
        <time>2020-08-11T08:00:53Z</time>
      </trkpt>
      <trkpt lat="45.15092" lon="5.95484">
        <ele>2394.8</ele>
        <time>2020-08-11T08:00:54Z</time>
      </trkpt>
      <trkpt lat="45.15092" lon="5.95484">
        <ele>2395</ele>
        <time>2020-08-11T08:00:55Z</time>
      </trkpt>
      <trkpt lat="45.15092" lon="5.95484">
        <ele>2395.2</ele>
        <time>2020-08-11T08:00:56Z</time>
      </trkpt>
      <trkpt lat="45.15092" lon="5.95484">
        <ele>2395.6</ele>
        <time>2020-08-11T08:00:57Z</time>
      </trkpt>
      <trkpt lat="45.15093" lon="5.95483">
        <ele>2395.6</ele>
        <time>2020-08-11T08:00:58Z</time>
      </trkpt>
      <trkpt lat="45.15093" lon="5.95483">
        <ele>2395.8</ele>
        <time>2020-08-11T08:00:59Z</time>
      </trkpt>
      <trkpt lat="45.15093" lon="5.95483">
        <ele>2395.8</ele>
        <time>2020-08-11T08:01:00Z</time>
      </trkpt>
      <trkpt lat="45.15093" lon="5.95483">
        <ele>2396.4</ele>
        <time>2020-08-11T08:01:01Z</time>
      </trkpt>
      <trkpt lat="45.15096" lon="5.95484">
        <ele>2396.4</ele>
        <time>2020-08-11T08:01:02Z</time>
      </trkpt>
      <trkpt lat="45.15096" lon="5.95484">
        <ele>2396.6</ele>
        <time>2020-08-11T08:01:03Z</time>
      </trkpt>
      <trkpt lat="45.15096" lon="5.95484">
        <ele>2397</ele>
        <time>2020-08-11T08:01:04Z</time>
      </trkpt>
      <trkpt lat="45.15096" lon="5.95484">
        <ele>2397.6</ele>
        <time>2020-08-11T08:01:05Z</time>
      </trkpt>
      <trkpt lat="45.15098" lon="5.95484">
        <ele>2398</ele>
        <time>2020-08-11T08:01:06Z</time>
      </trkpt>
      <trkpt lat="45.15098" lon="5.95484">
        <ele>2398</ele>
        <time>2020-08-11T08:01:07Z</time>
      </trkpt>
      <trkpt lat="45.15098" lon="5.95484">
        <ele>2398.6</ele>
        <time>2020-08-11T08:01:08Z</time>
      </trkpt>
      <trkpt lat="45.15098" lon="5.95484">
        <ele>2398.8</ele>
        <time>2020-08-11T08:01:09Z</time>
      </trkpt>
      <trkpt lat="45.15098" lon="5.95484">
        <ele>2399</ele>
        <time>2020-08-11T08:01:10Z</time>
      </trkpt>
      <trkpt lat="45.15098" lon="5.95487">
        <ele>2399</ele>
        <time>2020-08-11T08:01:11Z</time>
      </trkpt>
      <trkpt lat="45.15098" lon="5.95487">
        <ele>2399.4</ele>
        <time>2020-08-11T08:01:12Z</time>
      </trkpt>
      <trkpt lat="45.15098" lon="5.95487">
        <ele>2399.8</ele>
        <time>2020-08-11T08:01:13Z</time>
      </trkpt>
      <trkpt lat="45.15098" lon="5.95487">
        <ele>2400</ele>
        <time>2020-08-11T08:01:14Z</time>
      </trkpt>
      <trkpt lat="45.151" lon="5.95489">
        <ele>2400.2</ele>
        <time>2020-08-11T08:01:15Z</time>
      </trkpt>
      <trkpt lat="45.151" lon="5.95489">
        <ele>2400.8</ele>
        <time>2020-08-11T08:01:16Z</time>
      </trkpt>
      <trkpt lat="45.15102" lon="5.95489">
        <ele>2400.8</ele>
        <time>2020-08-11T08:01:17Z</time>
      </trkpt>
      <trkpt lat="45.15102" lon="5.95489">
        <ele>2401</ele>
        <time>2020-08-11T08:01:18Z</time>
      </trkpt>
      <trkpt lat="45.15102" lon="5.95489">
        <ele>2401.2</ele>
        <time>2020-08-11T08:01:19Z</time>
      </trkpt>
      <trkpt lat="45.15105" lon="5.9549">
        <ele>2401.6</ele>
        <time>2020-08-11T08:01:20Z</time>
      </trkpt>
      <trkpt lat="45.15105" lon="5.9549">
        <ele>2402</ele>
        <time>2020-08-11T08:01:21Z</time>
      </trkpt>
      <trkpt lat="45.15105" lon="5.9549">
        <ele>2402</ele>
        <time>2020-08-11T08:01:22Z</time>
      </trkpt>
      <trkpt lat="45.15105" lon="5.9549">
        <ele>2402.2</ele>
        <time>2020-08-11T08:01:23Z</time>
      </trkpt>
      <trkpt lat="45.15107" lon="5.95489">
        <ele>2402.6</ele>
        <time>2020-08-11T08:01:24Z</time>
      </trkpt>
      <trkpt lat="45.15107" lon="5.95489">
        <ele>2402.8</ele>
        <time>2020-08-11T08:01:25Z</time>
      </trkpt>
      <trkpt lat="45.15107" lon="5.95489">
        <ele>2403</ele>
        <time>2020-08-11T08:01:26Z</time>
      </trkpt>
      <trkpt lat="45.15107" lon="5.95489">
        <ele>2403.2</ele>
        <time>2020-08-11T08:01:27Z</time>
      </trkpt>
      <trkpt lat="45.15107" lon="5.95489">
        <ele>2403.4</ele>
        <time>2020-08-11T08:01:28Z</time>
      </trkpt>
      <trkpt lat="45.15107" lon="5.95489">
        <ele>2403.6</ele>
        <time>2020-08-11T08:01:29Z</time>
      </trkpt>
      <trkpt lat="45.15107" lon="5.95489">
        <ele>2403.8</ele>
        <time>2020-08-11T08:01:30Z</time>
      </trkpt>
      <trkpt lat="45.15109" lon="5.9549">
        <ele>2403.8</ele>
        <time>2020-08-11T08:01:31Z</time>
      </trkpt>
      <trkpt lat="45.15109" lon="5.9549">
        <ele>2404</ele>
        <time>2020-08-11T08:01:32Z</time>
      </trkpt>
      <trkpt lat="45.15109" lon="5.9549">
        <ele>2404.2</ele>
        <time>2020-08-11T08:01:33Z</time>
      </trkpt>
      <trkpt lat="45.15109" lon="5.9549">
        <ele>2404.4</ele>
        <time>2020-08-11T08:01:34Z</time>
      </trkpt>
      <trkpt lat="45.15109" lon="5.9549">
        <ele>2404.8</ele>
        <time>2020-08-11T08:01:35Z</time>
      </trkpt>
      <trkpt lat="45.15112" lon="5.95491">
        <ele>2405</ele>
        <time>2020-08-11T08:01:36Z</time>
      </trkpt>
      <trkpt lat="45.15112" lon="5.95491">
        <ele>2405.4</ele>
        <time>2020-08-11T08:01:37Z</time>
      </trkpt>
      <trkpt lat="45.15112" lon="5.95491">
        <ele>2405.6</ele>
        <time>2020-08-11T08:01:38Z</time>
      </trkpt>
      <trkpt lat="45.15114" lon="5.95493">
        <ele>2405.8</ele>
        <time>2020-08-11T08:01:39Z</time>
      </trkpt>
      <trkpt lat="45.15114" lon="5.95493">
        <ele>2406</ele>
        <time>2020-08-11T08:01:40Z</time>
      </trkpt>
      <trkpt lat="45.15114" lon="5.95493">
        <ele>2406.2</ele>
        <time>2020-08-11T08:01:41Z</time>
      </trkpt>
      <trkpt lat="45.15114" lon="5.95493">
        <ele>2406.6</ele>
        <time>2020-08-11T08:01:42Z</time>
      </trkpt>
      <trkpt lat="45.15116" lon="5.95493">
        <ele>2406.8</ele>
        <time>2020-08-11T08:01:43Z</time>
      </trkpt>
      <trkpt lat="45.15116" lon="5.95493">
        <ele>2406.8</ele>
        <time>2020-08-11T08:01:44Z</time>
      </trkpt>
      <trkpt lat="45.15116" lon="5.95493">
        <ele>2407</ele>
        <time>2020-08-11T08:01:45Z</time>
      </trkpt>
      <trkpt lat="45.15117" lon="5.9549">
        <ele>2407.2</ele>
        <time>2020-08-11T08:01:46Z</time>
      </trkpt>
      <trkpt lat="45.15117" lon="5.9549">
        <ele>2407.2</ele>
        <time>2020-08-11T08:01:47Z</time>
      </trkpt>
      <trkpt lat="45.15117" lon="5.9549">
        <ele>2407.4</ele>
        <time>2020-08-11T08:01:48Z</time>
      </trkpt>
      <trkpt lat="45.15118" lon="5.95487">
        <ele>2407.6</ele>
        <time>2020-08-11T08:01:49Z</time>
      </trkpt>
      <trkpt lat="45.15118" lon="5.95487">
        <ele>2408</ele>
        <time>2020-08-11T08:01:50Z</time>
      </trkpt>
      <trkpt lat="45.15118" lon="5.95487">
        <ele>2408.2</ele>
        <time>2020-08-11T08:01:51Z</time>
      </trkpt>
      <trkpt lat="45.15118" lon="5.95487">
        <ele>2408.2</ele>
        <time>2020-08-11T08:01:52Z</time>
      </trkpt>
      <trkpt lat="45.15118" lon="5.95484">
        <ele>2408.4</ele>
        <time>2020-08-11T08:01:53Z</time>
      </trkpt>
      <trkpt lat="45.15118" lon="5.95484">
        <ele>2408.8</ele>
        <time>2020-08-11T08:01:54Z</time>
      </trkpt>
      <trkpt lat="45.15118" lon="5.95484">
        <ele>2409</ele>
        <time>2020-08-11T08:01:55Z</time>
      </trkpt>
      <trkpt lat="45.15118" lon="5.95484">
        <ele>2409.2</ele>
        <time>2020-08-11T08:01:56Z</time>
      </trkpt>
      <trkpt lat="45.15118" lon="5.95481">
        <ele>2409.2</ele>
        <time>2020-08-11T08:01:57Z</time>
      </trkpt>
      <trkpt lat="45.15118" lon="5.95481">
        <ele>2409.4</ele>
        <time>2020-08-11T08:01:58Z</time>
      </trkpt>
      <trkpt lat="45.15118" lon="5.95481">
        <ele>2409.6</ele>
        <time>2020-08-11T08:01:59Z</time>
      </trkpt>
      <trkpt lat="45.15118" lon="5.95481">
        <ele>2409.8</ele>
        <time>2020-08-11T08:02:00Z</time>
      </trkpt>
      <trkpt lat="45.1512" lon="5.95479">
        <ele>2410</ele>
        <time>2020-08-11T08:02:01Z</time>
      </trkpt>
      <trkpt lat="45.1512" lon="5.95479">
        <ele>2410.2</ele>
        <time>2020-08-11T08:02:02Z</time>
      </trkpt>
      <trkpt lat="45.1512" lon="5.95479">
        <ele>2410.6</ele>
        <time>2020-08-11T08:02:03Z</time>
      </trkpt>
      <trkpt lat="45.1512" lon="5.95479">
        <ele>2410.8</ele>
        <time>2020-08-11T08:02:04Z</time>
      </trkpt>
      <trkpt lat="45.1512" lon="5.95479">
        <ele>2410.8</ele>
        <time>2020-08-11T08:02:05Z</time>
      </trkpt>
      <trkpt lat="45.15122" lon="5.95477">
        <ele>2411</ele>
        <time>2020-08-11T08:02:06Z</time>
      </trkpt>
      <trkpt lat="45.15122" lon="5.95477">
        <ele>2411.4</ele>
        <time>2020-08-11T08:02:07Z</time>
      </trkpt>
      <trkpt lat="45.15122" lon="5.95477">
        <ele>2411.4</ele>
        <time>2020-08-11T08:02:08Z</time>
      </trkpt>
      <trkpt lat="45.15123" lon="5.95475">
        <ele>2411.6</ele>
        <time>2020-08-11T08:02:09Z</time>
      </trkpt>
      <trkpt lat="45.15123" lon="5.95475">
        <ele>2411.8</ele>
        <time>2020-08-11T08:02:10Z</time>
      </trkpt>
      <trkpt lat="45.15123" lon="5.95475">
        <ele>2412.2</ele>
        <time>2020-08-11T08:02:11Z</time>
      </trkpt>
      <trkpt lat="45.15123" lon="5.95475">
        <ele>2412.2</ele>
        <time>2020-08-11T08:02:12Z</time>
      </trkpt>
      <trkpt lat="45.15125" lon="5.95473">
        <ele>2412.6</ele>
        <time>2020-08-11T08:02:13Z</time>
      </trkpt>
      <trkpt lat="45.15125" lon="5.95473">
        <ele>2413.2</ele>
        <time>2020-08-11T08:02:14Z</time>
      </trkpt>
      <trkpt lat="45.15125" lon="5.95473">
        <ele>2413.2</ele>
        <time>2020-08-11T08:02:15Z</time>
      </trkpt>
      <trkpt lat="45.15125" lon="5.95473">
        <ele>2413.4</ele>
        <time>2020-08-11T08:02:16Z</time>
      </trkpt>
      <trkpt lat="45.15127" lon="5.95472">
        <ele>2413.6</ele>
        <time>2020-08-11T08:02:17Z</time>
      </trkpt>
      <trkpt lat="45.15127" lon="5.95472">
        <ele>2414</ele>
        <time>2020-08-11T08:02:18Z</time>
      </trkpt>
      <trkpt lat="45.15127" lon="5.95472">
        <ele>2414.2</ele>
        <time>2020-08-11T08:02:19Z</time>
      </trkpt>
      <trkpt lat="45.15127" lon="5.95472">
        <ele>2414.4</ele>
        <time>2020-08-11T08:02:20Z</time>
      </trkpt>
      <trkpt lat="45.15127" lon="5.95472">
        <ele>2414.6</ele>
        <time>2020-08-11T08:02:21Z</time>
      </trkpt>
      <trkpt lat="45.15129" lon="5.9547">
        <ele>2414.8</ele>
        <time>2020-08-11T08:02:22Z</time>
      </trkpt>
      <trkpt lat="45.15129" lon="5.9547">
        <ele>2415</ele>
        <time>2020-08-11T08:02:23Z</time>
      </trkpt>
      <trkpt lat="45.15129" lon="5.9547">
        <ele>2415.4</ele>
        <time>2020-08-11T08:02:24Z</time>
      </trkpt>
      <trkpt lat="45.15129" lon="5.9547">
        <ele>2415.6</ele>
        <time>2020-08-11T08:02:25Z</time>
      </trkpt>
      <trkpt lat="45.15129" lon="5.9547">
        <ele>2415.8</ele>
        <time>2020-08-11T08:02:26Z</time>
      </trkpt>
      <trkpt lat="45.1513" lon="5.95468">
        <ele>2416.2</ele>
        <time>2020-08-11T08:02:27Z</time>
      </trkpt>
      <trkpt lat="45.1513" lon="5.95468">
        <ele>2416.4</ele>
        <time>2020-08-11T08:02:28Z</time>
      </trkpt>
      <trkpt lat="45.1513" lon="5.95468">
        <ele>2416.6</ele>
        <time>2020-08-11T08:02:29Z</time>
      </trkpt>
      <trkpt lat="45.1513" lon="5.95468">
        <ele>2417.2</ele>
        <time>2020-08-11T08:02:30Z</time>
      </trkpt>
      <trkpt lat="45.1513" lon="5.95468">
        <ele>2417</ele>
        <time>2020-08-11T08:02:31Z</time>
      </trkpt>
      <trkpt lat="45.15132" lon="5.95466">
        <ele>2417.4</ele>
        <time>2020-08-11T08:02:32Z</time>
      </trkpt>
      <trkpt lat="45.15132" lon="5.95466">
        <ele>2417.6</ele>
        <time>2020-08-11T08:02:33Z</time>
      </trkpt>
      <trkpt lat="45.15132" lon="5.95466">
        <ele>2417.6</ele>
        <time>2020-08-11T08:02:34Z</time>
      </trkpt>
      <trkpt lat="45.15133" lon="5.95464">
        <ele>2417.8</ele>
        <time>2020-08-11T08:02:35Z</time>
      </trkpt>
      <trkpt lat="45.15133" lon="5.95464">
        <ele>2418.2</ele>
        <time>2020-08-11T08:02:36Z</time>
      </trkpt>
      <trkpt lat="45.15133" lon="5.95464">
        <ele>2418.4</ele>
        <time>2020-08-11T08:02:37Z</time>
      </trkpt>
      <trkpt lat="45.15133" lon="5.95464">
        <ele>2418.6</ele>
        <time>2020-08-11T08:02:38Z</time>
      </trkpt>
      <trkpt lat="45.15133" lon="5.95464">
        <ele>2419</ele>
        <time>2020-08-11T08:02:39Z</time>
      </trkpt>
      <trkpt lat="45.15135" lon="5.95462">
        <ele>2419.2</ele>
        <time>2020-08-11T08:02:40Z</time>
      </trkpt>
      <trkpt lat="45.15135" lon="5.95462">
        <ele>2419.4</ele>
        <time>2020-08-11T08:02:41Z</time>
      </trkpt>
      <trkpt lat="45.15135" lon="5.95462">
        <ele>2419.8</ele>
        <time>2020-08-11T08:02:42Z</time>
      </trkpt>
      <trkpt lat="45.15135" lon="5.95462">
        <ele>2420</ele>
        <time>2020-08-11T08:02:43Z</time>
      </trkpt>
      <trkpt lat="45.15136" lon="5.9546">
        <ele>2420.2</ele>
        <time>2020-08-11T08:02:44Z</time>
      </trkpt>
      <trkpt lat="45.15136" lon="5.9546">
        <ele>2420.2</ele>
        <time>2020-08-11T08:02:45Z</time>
      </trkpt>
      <trkpt lat="45.15136" lon="5.9546">
        <ele>2420.4</ele>
        <time>2020-08-11T08:02:46Z</time>
      </trkpt>
      <trkpt lat="45.15136" lon="5.9546">
        <ele>2420.6</ele>
        <time>2020-08-11T08:02:47Z</time>
      </trkpt>
      <trkpt lat="45.15137" lon="5.95458">
        <ele>2421</ele>
        <time>2020-08-11T08:02:48Z</time>
      </trkpt>
      <trkpt lat="45.15137" lon="5.95458">
        <ele>2421.2</ele>
        <time>2020-08-11T08:02:49Z</time>
      </trkpt>
      <trkpt lat="45.15137" lon="5.95458">
        <ele>2421.2</ele>
        <time>2020-08-11T08:02:50Z</time>
      </trkpt>
      <trkpt lat="45.15137" lon="5.95458">
        <ele>2421.4</ele>
        <time>2020-08-11T08:02:51Z</time>
      </trkpt>
      <trkpt lat="45.15139" lon="5.95458">
        <ele>2421.6</ele>
        <time>2020-08-11T08:02:52Z</time>
      </trkpt>
      <trkpt lat="45.15139" lon="5.95458">
        <ele>2421.8</ele>
        <time>2020-08-11T08:02:53Z</time>
      </trkpt>
      <trkpt lat="45.15139" lon="5.95458">
        <ele>2422</ele>
        <time>2020-08-11T08:02:54Z</time>
      </trkpt>
      <trkpt lat="45.15139" lon="5.95458">
        <ele>2422.2</ele>
        <time>2020-08-11T08:02:55Z</time>
      </trkpt>
      <trkpt lat="45.15139" lon="5.95458">
        <ele>2422.4</ele>
        <time>2020-08-11T08:02:56Z</time>
      </trkpt>
      <trkpt lat="45.15141" lon="5.95456">
        <ele>2422.6</ele>
        <time>2020-08-11T08:02:57Z</time>
      </trkpt>
      <trkpt lat="45.15141" lon="5.95456">
        <ele>2422.8</ele>
        <time>2020-08-11T08:02:58Z</time>
      </trkpt>
      <trkpt lat="45.15141" lon="5.95456">
        <ele>2422.8</ele>
        <time>2020-08-11T08:02:59Z</time>
      </trkpt>
      <trkpt lat="45.15141" lon="5.95456">
        <ele>2423</ele>
        <time>2020-08-11T08:03:00Z</time>
      </trkpt>
      <trkpt lat="45.15143" lon="5.95456">
        <ele>2423.2</ele>
        <time>2020-08-11T08:03:01Z</time>
      </trkpt>
      <trkpt lat="45.15143" lon="5.95456">
        <ele>2423.6</ele>
        <time>2020-08-11T08:03:02Z</time>
      </trkpt>
      <trkpt lat="45.15143" lon="5.95456">
        <ele>2424</ele>
        <time>2020-08-11T08:03:03Z</time>
      </trkpt>
      <trkpt lat="45.15145" lon="5.95454">
        <ele>2424</ele>
        <time>2020-08-11T08:03:04Z</time>
      </trkpt>
      <trkpt lat="45.15145" lon="5.95454">
        <ele>2424.2</ele>
        <time>2020-08-11T08:03:05Z</time>
      </trkpt>
      <trkpt lat="45.15145" lon="5.95454">
        <ele>2424.2</ele>
        <time>2020-08-11T08:03:06Z</time>
      </trkpt>
      <trkpt lat="45.15145" lon="5.95454">
        <ele>2424.4</ele>
        <time>2020-08-11T08:03:07Z</time>
      </trkpt>
      <trkpt lat="45.15145" lon="5.95454">
        <ele>2424.4</ele>
        <time>2020-08-11T08:03:08Z</time>
      </trkpt>
      <trkpt lat="45.15146" lon="5.95452">
        <ele>2424.6</ele>
        <time>2020-08-11T08:03:09Z</time>
      </trkpt>
      <trkpt lat="45.15146" lon="5.95452">
        <ele>2425</ele>
        <time>2020-08-11T08:03:10Z</time>
      </trkpt>
      <trkpt lat="45.15146" lon="5.95452">
        <ele>2425.2</ele>
        <time>2020-08-11T08:03:11Z</time>
      </trkpt>
      <trkpt lat="45.15148" lon="5.9545">
        <ele>2425.4</ele>
        <time>2020-08-11T08:03:12Z</time>
      </trkpt>
      <trkpt lat="45.15148" lon="5.9545">
        <ele>2425.6</ele>
        <time>2020-08-11T08:03:13Z</time>
      </trkpt>
      <trkpt lat="45.15148" lon="5.9545">
        <ele>2425.8</ele>
        <time>2020-08-11T08:03:14Z</time>
      </trkpt>
      <trkpt lat="45.15148" lon="5.9545">
        <ele>2426</ele>
        <time>2020-08-11T08:03:15Z</time>
      </trkpt>
      <trkpt lat="45.15148" lon="5.9545">
        <ele>2426.2</ele>
        <time>2020-08-11T08:03:16Z</time>
      </trkpt>
      <trkpt lat="45.1515" lon="5.95451">
        <ele>2426.4</ele>
        <time>2020-08-11T08:03:17Z</time>
      </trkpt>
      <trkpt lat="45.1515" lon="5.95451">
        <ele>2426.6</ele>
        <time>2020-08-11T08:03:18Z</time>
      </trkpt>
      <trkpt lat="45.1515" lon="5.95451">
        <ele>2426.8</ele>
        <time>2020-08-11T08:03:19Z</time>
      </trkpt>
      <trkpt lat="45.1515" lon="5.95451">
        <ele>2427.2</ele>
        <time>2020-08-11T08:03:20Z</time>
      </trkpt>
      <trkpt lat="45.1515" lon="5.95451">
        <ele>2427.8</ele>
        <time>2020-08-11T08:03:21Z</time>
      </trkpt>
      <trkpt lat="45.1515" lon="5.95451">
        <ele>2428.2</ele>
        <time>2020-08-11T08:03:22Z</time>
      </trkpt>
      <trkpt lat="45.1515" lon="5.95451">
        <ele>2428.4</ele>
        <time>2020-08-11T08:03:23Z</time>
      </trkpt>
      <trkpt lat="45.1515" lon="5.95451">
        <ele>2428.4</ele>
        <time>2020-08-11T08:03:24Z</time>
      </trkpt>
      <trkpt lat="45.1515" lon="5.95451">
        <ele>2428.6</ele>
        <time>2020-08-11T08:03:25Z</time>
      </trkpt>
      <trkpt lat="45.15153" lon="5.95451">
        <ele>2428.8</ele>
        <time>2020-08-11T08:03:26Z</time>
      </trkpt>
      <trkpt lat="45.15153" lon="5.95451">
        <ele>2428.8</ele>
        <time>2020-08-11T08:03:27Z</time>
      </trkpt>
      <trkpt lat="45.15153" lon="5.95451">
        <ele>2429</ele>
        <time>2020-08-11T08:03:28Z</time>
      </trkpt>
      <trkpt lat="45.15154" lon="5.95453">
        <ele>2429</ele>
        <time>2020-08-11T08:03:29Z</time>
      </trkpt>
      <trkpt lat="45.15154" lon="5.95453">
        <ele>2429</ele>
        <time>2020-08-11T08:03:30Z</time>
      </trkpt>
      <trkpt lat="45.15154" lon="5.95453">
        <ele>2430.2</ele>
        <time>2020-08-11T08:03:31Z</time>
      </trkpt>
      <trkpt lat="45.15154" lon="5.95453">
        <ele>2430.6</ele>
        <time>2020-08-11T08:03:32Z</time>
      </trkpt>
      <trkpt lat="45.15154" lon="5.95453">
        <ele>2430.4</ele>
        <time>2020-08-11T08:03:33Z</time>
      </trkpt>
      <trkpt lat="45.15154" lon="5.95453">
        <ele>2430.4</ele>
        <time>2020-08-11T08:03:34Z</time>
      </trkpt>
      <trkpt lat="45.15156" lon="5.95452">
        <ele>2430.6</ele>
        <time>2020-08-11T08:03:35Z</time>
      </trkpt>
      <trkpt lat="45.15156" lon="5.95452">
        <ele>2430.6</ele>
        <time>2020-08-11T08:03:36Z</time>
      </trkpt>
      <trkpt lat="45.15156" lon="5.95452">
        <ele>2431</ele>
        <time>2020-08-11T08:03:37Z</time>
      </trkpt>
      <trkpt lat="45.15156" lon="5.95452">
        <ele>2431.2</ele>
        <time>2020-08-11T08:03:38Z</time>
      </trkpt>
      <trkpt lat="45.15156" lon="5.95452">
        <ele>2431.4</ele>
        <time>2020-08-11T08:03:39Z</time>
      </trkpt>
      <trkpt lat="45.15156" lon="5.95452">
        <ele>2431.6</ele>
        <time>2020-08-11T08:03:40Z</time>
      </trkpt>
      <trkpt lat="45.15156" lon="5.95447">
        <ele>2431.8</ele>
        <time>2020-08-11T08:03:41Z</time>
      </trkpt>
      <trkpt lat="45.15156" lon="5.95447">
        <ele>2431.8</ele>
        <time>2020-08-11T08:03:42Z</time>
      </trkpt>
      <trkpt lat="45.15156" lon="5.95447">
        <ele>2432</ele>
        <time>2020-08-11T08:03:43Z</time>
      </trkpt>
      <trkpt lat="45.15157" lon="5.95444">
        <ele>2432.2</ele>
        <time>2020-08-11T08:03:44Z</time>
      </trkpt>
      <trkpt lat="45.15157" lon="5.95444">
        <ele>2432.6</ele>
        <time>2020-08-11T08:03:45Z</time>
      </trkpt>
      <trkpt lat="45.15157" lon="5.95444">
        <ele>2433</ele>
        <time>2020-08-11T08:03:46Z</time>
      </trkpt>
      <trkpt lat="45.15157" lon="5.95444">
        <ele>2433.2</ele>
        <time>2020-08-11T08:03:47Z</time>
      </trkpt>
      <trkpt lat="45.15157" lon="5.95444">
        <ele>2433.6</ele>
        <time>2020-08-11T08:03:48Z</time>
      </trkpt>
      <trkpt lat="45.15157" lon="5.95444">
        <ele>2433.8</ele>
        <time>2020-08-11T08:03:49Z</time>
      </trkpt>
      <trkpt lat="45.15158" lon="5.95441">
        <ele>2434</ele>
        <time>2020-08-11T08:03:50Z</time>
      </trkpt>
      <trkpt lat="45.15158" lon="5.95441">
        <ele>2434.2</ele>
        <time>2020-08-11T08:03:51Z</time>
      </trkpt>
      <trkpt lat="45.15158" lon="5.95441">
        <ele>2434.4</ele>
        <time>2020-08-11T08:03:52Z</time>
      </trkpt>
      <trkpt lat="45.15158" lon="5.95441">
        <ele>2434.6</ele>
        <time>2020-08-11T08:03:53Z</time>
      </trkpt>
      <trkpt lat="45.15158" lon="5.95441">
        <ele>2434.6</ele>
        <time>2020-08-11T08:03:54Z</time>
      </trkpt>
      <trkpt lat="45.15158" lon="5.95441">
        <ele>2435</ele>
        <time>2020-08-11T08:03:55Z</time>
      </trkpt>
      <trkpt lat="45.15158" lon="5.95438">
        <ele>2435.2</ele>
        <time>2020-08-11T08:03:56Z</time>
      </trkpt>
      <trkpt lat="45.15158" lon="5.95438">
        <ele>2435.4</ele>
        <time>2020-08-11T08:03:57Z</time>
      </trkpt>
      <trkpt lat="45.15158" lon="5.95438">
        <ele>2435.6</ele>
        <time>2020-08-11T08:03:58Z</time>
      </trkpt>
      <trkpt lat="45.15158" lon="5.95438">
        <ele>2435.8</ele>
        <time>2020-08-11T08:03:59Z</time>
      </trkpt>
      <trkpt lat="45.15158" lon="5.95438">
        <ele>2435.8</ele>
        <time>2020-08-11T08:04:00Z</time>
      </trkpt>
      <trkpt lat="45.15158" lon="5.95438">
        <ele>2435.8</ele>
        <time>2020-08-11T08:04:01Z</time>
      </trkpt>
      <trkpt lat="45.1516" lon="5.95436">
        <ele>2436</ele>
        <time>2020-08-11T08:04:02Z</time>
      </trkpt>
      <trkpt lat="45.1516" lon="5.95436">
        <ele>2436.2</ele>
        <time>2020-08-11T08:04:03Z</time>
      </trkpt>
      <trkpt lat="45.1516" lon="5.95436">
        <ele>2436.4</ele>
        <time>2020-08-11T08:04:04Z</time>
      </trkpt>
      <trkpt lat="45.15162" lon="5.95436">
        <ele>2436.6</ele>
        <time>2020-08-11T08:04:05Z</time>
      </trkpt>
      <trkpt lat="45.15162" lon="5.95436">
        <ele>2436.8</ele>
        <time>2020-08-11T08:04:06Z</time>
      </trkpt>
      <trkpt lat="45.15162" lon="5.95436">
        <ele>2436.8</ele>
        <time>2020-08-11T08:04:07Z</time>
      </trkpt>
      <trkpt lat="45.15162" lon="5.95436">
        <ele>2437.2</ele>
        <time>2020-08-11T08:04:08Z</time>
      </trkpt>
      <trkpt lat="45.15164" lon="5.95436">
        <ele>2437.4</ele>
        <time>2020-08-11T08:04:09Z</time>
      </trkpt>
      <trkpt lat="45.15164" lon="5.95436">
        <ele>2437.6</ele>
        <time>2020-08-11T08:04:10Z</time>
      </trkpt>
      <trkpt lat="45.15164" lon="5.95436">
        <ele>2438</ele>
        <time>2020-08-11T08:04:11Z</time>
      </trkpt>
      <trkpt lat="45.15164" lon="5.95436">
        <ele>2438.2</ele>
        <time>2020-08-11T08:04:12Z</time>
      </trkpt>
      <trkpt lat="45.15167" lon="5.95436">
        <ele>2438.4</ele>
        <time>2020-08-11T08:04:13Z</time>
      </trkpt>
      <trkpt lat="45.15167" lon="5.95436">
        <ele>2438.6</ele>
        <time>2020-08-11T08:04:14Z</time>
      </trkpt>
      <trkpt lat="45.15167" lon="5.95436">
        <ele>2438.8</ele>
        <time>2020-08-11T08:04:15Z</time>
      </trkpt>
      <trkpt lat="45.15167" lon="5.95436">
        <ele>2439.2</ele>
        <time>2020-08-11T08:04:16Z</time>
      </trkpt>
      <trkpt lat="45.15169" lon="5.95437">
        <ele>2439.4</ele>
        <time>2020-08-11T08:04:17Z</time>
      </trkpt>
      <trkpt lat="45.15169" lon="5.95437">
        <ele>2439.6</ele>
        <time>2020-08-11T08:04:18Z</time>
      </trkpt>
      <trkpt lat="45.15169" lon="5.95437">
        <ele>2439.6</ele>
        <time>2020-08-11T08:04:19Z</time>
      </trkpt>
      <trkpt lat="45.15169" lon="5.95437">
        <ele>2439.8</ele>
        <time>2020-08-11T08:04:20Z</time>
      </trkpt>
      <trkpt lat="45.15169" lon="5.95437">
        <ele>2440</ele>
        <time>2020-08-11T08:04:21Z</time>
      </trkpt>
      <trkpt lat="45.15172" lon="5.95438">
        <ele>2440.2</ele>
        <time>2020-08-11T08:04:22Z</time>
      </trkpt>
      <trkpt lat="45.15172" lon="5.95438">
        <ele>2440.4</ele>
        <time>2020-08-11T08:04:23Z</time>
      </trkpt>
      <trkpt lat="45.15172" lon="5.95438">
        <ele>2440.6</ele>
        <time>2020-08-11T08:04:24Z</time>
      </trkpt>
      <trkpt lat="45.15172" lon="5.95438">
        <ele>2441</ele>
        <time>2020-08-11T08:04:25Z</time>
      </trkpt>
      <trkpt lat="45.15172" lon="5.95438">
        <ele>2441.2</ele>
        <time>2020-08-11T08:04:26Z</time>
      </trkpt>
      <trkpt lat="45.15172" lon="5.95438">
        <ele>2441.6</ele>
        <time>2020-08-11T08:04:27Z</time>
      </trkpt>
      <trkpt lat="45.15174" lon="5.95438">
        <ele>2441.6</ele>
        <time>2020-08-11T08:04:28Z</time>
      </trkpt>
      <trkpt lat="45.15174" lon="5.95438">
        <ele>2441.8</ele>
        <time>2020-08-11T08:04:29Z</time>
      </trkpt>
      <trkpt lat="45.15174" lon="5.95438">
        <ele>2442.2</ele>
        <time>2020-08-11T08:04:30Z</time>
      </trkpt>
      <trkpt lat="45.15174" lon="5.95438">
        <ele>2442.4</ele>
        <time>2020-08-11T08:04:31Z</time>
      </trkpt>
      <trkpt lat="45.15174" lon="5.95438">
        <ele>2442.8</ele>
        <time>2020-08-11T08:04:32Z</time>
      </trkpt>
      <trkpt lat="45.15174" lon="5.95438">
        <ele>2443.4</ele>
        <time>2020-08-11T08:04:33Z</time>
      </trkpt>
      <trkpt lat="45.15174" lon="5.95438">
        <ele>2443.8</ele>
        <time>2020-08-11T08:04:34Z</time>
      </trkpt>
      <trkpt lat="45.15177" lon="5.95437">
        <ele>2444</ele>
        <time>2020-08-11T08:04:35Z</time>
      </trkpt>
      <trkpt lat="45.15177" lon="5.95437">
        <ele>2444</ele>
        <time>2020-08-11T08:04:36Z</time>
      </trkpt>
      <trkpt lat="45.15177" lon="5.95437">
        <ele>2444</ele>
        <time>2020-08-11T08:04:37Z</time>
      </trkpt>
      <trkpt lat="45.15177" lon="5.95437">
        <ele>2444.2</ele>
        <time>2020-08-11T08:04:38Z</time>
      </trkpt>
      <trkpt lat="45.15179" lon="5.95437">
        <ele>2444.6</ele>
        <time>2020-08-11T08:04:39Z</time>
      </trkpt>
      <trkpt lat="45.15179" lon="5.95437">
        <ele>2444.8</ele>
        <time>2020-08-11T08:04:40Z</time>
      </trkpt>
      <trkpt lat="45.15179" lon="5.95437">
        <ele>2445</ele>
        <time>2020-08-11T08:04:41Z</time>
      </trkpt>
      <trkpt lat="45.15179" lon="5.95437">
        <ele>2445.2</ele>
        <time>2020-08-11T08:04:42Z</time>
      </trkpt>
      <trkpt lat="45.15179" lon="5.95437">
        <ele>2445.4</ele>
        <time>2020-08-11T08:04:43Z</time>
      </trkpt>
      <trkpt lat="45.15179" lon="5.95437">
        <ele>2445.6</ele>
        <time>2020-08-11T08:04:44Z</time>
      </trkpt>
      <trkpt lat="45.15179" lon="5.95437">
        <ele>2445.6</ele>
        <time>2020-08-11T08:04:45Z</time>
      </trkpt>
      <trkpt lat="45.15179" lon="5.95437">
        <ele>2446</ele>
        <time>2020-08-11T08:04:46Z</time>
      </trkpt>
      <trkpt lat="45.15179" lon="5.95437">
        <ele>2446</ele>
        <time>2020-08-11T08:04:47Z</time>
      </trkpt>
      <trkpt lat="45.15181" lon="5.95437">
        <ele>2446.2</ele>
        <time>2020-08-11T08:04:48Z</time>
      </trkpt>
      <trkpt lat="45.15181" lon="5.95437">
        <ele>2446.4</ele>
        <time>2020-08-11T08:04:49Z</time>
      </trkpt>
      <trkpt lat="45.15181" lon="5.95437">
        <ele>2446.4</ele>
        <time>2020-08-11T08:04:50Z</time>
      </trkpt>
      <trkpt lat="45.15182" lon="5.95435">
        <ele>2446.6</ele>
        <time>2020-08-11T08:04:51Z</time>
      </trkpt>
      <trkpt lat="45.15182" lon="5.95435">
        <ele>2446.8</ele>
        <time>2020-08-11T08:04:52Z</time>
      </trkpt>
      <trkpt lat="45.15182" lon="5.95435">
        <ele>2447.2</ele>
        <time>2020-08-11T08:04:53Z</time>
      </trkpt>
      <trkpt lat="45.15182" lon="5.95435">
        <ele>2447.6</ele>
        <time>2020-08-11T08:04:54Z</time>
      </trkpt>
      <trkpt lat="45.15185" lon="5.95434">
        <ele>2447.6</ele>
        <time>2020-08-11T08:04:55Z</time>
      </trkpt>
      <trkpt lat="45.15185" lon="5.95434">
        <ele>2448</ele>
        <time>2020-08-11T08:04:56Z</time>
      </trkpt>
      <trkpt lat="45.15185" lon="5.95434">
        <ele>2448.2</ele>
        <time>2020-08-11T08:04:57Z</time>
      </trkpt>
      <trkpt lat="45.15185" lon="5.95434">
        <ele>2448.6</ele>
        <time>2020-08-11T08:04:58Z</time>
      </trkpt>
      <trkpt lat="45.15185" lon="5.95434">
        <ele>2449</ele>
        <time>2020-08-11T08:04:59Z</time>
      </trkpt>
      <trkpt lat="45.15187" lon="5.95435">
        <ele>2449.6</ele>
        <time>2020-08-11T08:05:00Z</time>
      </trkpt>
      <trkpt lat="45.15187" lon="5.95435">
        <ele>2449.6</ele>
        <time>2020-08-11T08:05:01Z</time>
      </trkpt>
      <trkpt lat="45.15188" lon="5.95436">
        <ele>2449.8</ele>
        <time>2020-08-11T08:05:02Z</time>
      </trkpt>
      <trkpt lat="45.15188" lon="5.95436">
        <ele>2449.8</ele>
        <time>2020-08-11T08:05:03Z</time>
      </trkpt>
      <trkpt lat="45.15188" lon="5.95437">
        <ele>2450.2</ele>
        <time>2020-08-11T08:05:04Z</time>
      </trkpt>
      <trkpt lat="45.15189" lon="5.95437">
        <ele>2450.2</ele>
        <time>2020-08-11T08:05:05Z</time>
      </trkpt>
      <trkpt lat="45.15189" lon="5.95438">
        <ele>2450.4</ele>
        <time>2020-08-11T08:05:06Z</time>
      </trkpt>
      <trkpt lat="45.15189" lon="5.95438">
        <ele>2450.6</ele>
        <time>2020-08-11T08:05:07Z</time>
      </trkpt>
      <trkpt lat="45.15189" lon="5.95439">
        <ele>2450.6</ele>
        <time>2020-08-11T08:05:08Z</time>
      </trkpt>
      <trkpt lat="45.1519" lon="5.95439">
        <ele>2450.8</ele>
        <time>2020-08-11T08:05:09Z</time>
      </trkpt>
      <trkpt lat="45.1519" lon="5.9544">
        <ele>2451</ele>
        <time>2020-08-11T08:05:10Z</time>
      </trkpt>
      <trkpt lat="45.1519" lon="5.95441">
        <ele>2451</ele>
        <time>2020-08-11T08:05:11Z</time>
      </trkpt>
      <trkpt lat="45.15191" lon="5.95441">
        <ele>2451.4</ele>
        <time>2020-08-11T08:05:12Z</time>
      </trkpt>
      <trkpt lat="45.15191" lon="5.95441">
        <ele>2451.4</ele>
        <time>2020-08-11T08:05:13Z</time>
      </trkpt>
      <trkpt lat="45.15192" lon="5.95442">
        <ele>2451.8</ele>
        <time>2020-08-11T08:05:14Z</time>
      </trkpt>
      <trkpt lat="45.15192" lon="5.95442">
        <ele>2452</ele>
        <time>2020-08-11T08:05:15Z</time>
      </trkpt>
      <trkpt lat="45.15193" lon="5.95443">
        <ele>2452.4</ele>
        <time>2020-08-11T08:05:16Z</time>
      </trkpt>
      <trkpt lat="45.15194" lon="5.95443">
        <ele>2452.4</ele>
        <time>2020-08-11T08:05:17Z</time>
      </trkpt>
      <trkpt lat="45.15194" lon="5.95444">
        <ele>2452.8</ele>
        <time>2020-08-11T08:05:18Z</time>
      </trkpt>
      <trkpt lat="45.15195" lon="5.95444">
        <ele>2452.8</ele>
        <time>2020-08-11T08:05:19Z</time>
      </trkpt>
      <trkpt lat="45.15195" lon="5.95445">
        <ele>2453</ele>
        <time>2020-08-11T08:05:20Z</time>
      </trkpt>
      <trkpt lat="45.15196" lon="5.95445">
        <ele>2453.4</ele>
        <time>2020-08-11T08:05:21Z</time>
      </trkpt>
      <trkpt lat="45.15196" lon="5.95445">
        <ele>2453.4</ele>
        <time>2020-08-11T08:05:22Z</time>
      </trkpt>
      <trkpt lat="45.15196" lon="5.95445">
        <ele>2453.6</ele>
        <time>2020-08-11T08:05:23Z</time>
      </trkpt>
      <trkpt lat="45.15196" lon="5.95445">
        <ele>2453.6</ele>
        <time>2020-08-11T08:05:24Z</time>
      </trkpt>
      <trkpt lat="45.15198" lon="5.95447">
        <ele>2453.6</ele>
        <time>2020-08-11T08:05:25Z</time>
      </trkpt>
      <trkpt lat="45.15198" lon="5.95447">
        <ele>2453.8</ele>
        <time>2020-08-11T08:05:26Z</time>
      </trkpt>
      <trkpt lat="45.15199" lon="5.95447">
        <ele>2454.4</ele>
        <time>2020-08-11T08:05:27Z</time>
      </trkpt>
      <trkpt lat="45.152" lon="5.95447">
        <ele>2454.6</ele>
        <time>2020-08-11T08:05:28Z</time>
      </trkpt>
      <trkpt lat="45.152" lon="5.95448">
        <ele>2454.6</ele>
        <time>2020-08-11T08:05:29Z</time>
      </trkpt>
      <trkpt lat="45.15201" lon="5.95448">
        <ele>2455</ele>
        <time>2020-08-11T08:05:30Z</time>
      </trkpt>
      <trkpt lat="45.15202" lon="5.95448">
        <ele>2455</ele>
        <time>2020-08-11T08:05:31Z</time>
      </trkpt>
      <trkpt lat="45.15202" lon="5.95448">
        <ele>2455.4</ele>
        <time>2020-08-11T08:05:32Z</time>
      </trkpt>
      <trkpt lat="45.15203" lon="5.95449">
        <ele>2455.4</ele>
        <time>2020-08-11T08:05:33Z</time>
      </trkpt>
      <trkpt lat="45.15204" lon="5.95449">
        <ele>2455.8</ele>
        <time>2020-08-11T08:05:34Z</time>
      </trkpt>
      <trkpt lat="45.15204" lon="5.95449">
        <ele>2455.8</ele>
        <time>2020-08-11T08:05:35Z</time>
      </trkpt>
      <trkpt lat="45.15205" lon="5.9545">
        <ele>2455.8</ele>
        <time>2020-08-11T08:05:36Z</time>
      </trkpt>
      <trkpt lat="45.15206" lon="5.9545">
        <ele>2456</ele>
        <time>2020-08-11T08:05:37Z</time>
      </trkpt>
      <trkpt lat="45.15206" lon="5.9545">
        <ele>2456.4</ele>
        <time>2020-08-11T08:05:38Z</time>
      </trkpt>
      <trkpt lat="45.15208" lon="5.9545">
        <ele>2456.8</ele>
        <time>2020-08-11T08:05:39Z</time>
      </trkpt>
      <trkpt lat="45.15208" lon="5.9545">
        <ele>2457</ele>
        <time>2020-08-11T08:05:40Z</time>
      </trkpt>
      <trkpt lat="45.15208" lon="5.9545">
        <ele>2457.4</ele>
        <time>2020-08-11T08:05:41Z</time>
      </trkpt>
      <trkpt lat="45.1521" lon="5.95451">
        <ele>2457.6</ele>
        <time>2020-08-11T08:05:42Z</time>
      </trkpt>
      <trkpt lat="45.1521" lon="5.95451">
        <ele>2458</ele>
        <time>2020-08-11T08:05:43Z</time>
      </trkpt>
      <trkpt lat="45.1521" lon="5.95451">
        <ele>2458.2</ele>
        <time>2020-08-11T08:05:44Z</time>
      </trkpt>
      <trkpt lat="45.1521" lon="5.95451">
        <ele>2458.2</ele>
        <time>2020-08-11T08:05:45Z</time>
      </trkpt>
      <trkpt lat="45.15213" lon="5.95452">
        <ele>2458.6</ele>
        <time>2020-08-11T08:05:46Z</time>
      </trkpt>
      <trkpt lat="45.15213" lon="5.95452">
        <ele>2458.8</ele>
        <time>2020-08-11T08:05:47Z</time>
      </trkpt>
      <trkpt lat="45.15213" lon="5.95452">
        <ele>2459</ele>
        <time>2020-08-11T08:05:48Z</time>
      </trkpt>
      <trkpt lat="45.15213" lon="5.95452">
        <ele>2459.2</ele>
        <time>2020-08-11T08:05:49Z</time>
      </trkpt>
      <trkpt lat="45.15213" lon="5.95452">
        <ele>2459.4</ele>
        <time>2020-08-11T08:05:50Z</time>
      </trkpt>
      <trkpt lat="45.15213" lon="5.95452">
        <ele>2459.8</ele>
        <time>2020-08-11T08:05:51Z</time>
      </trkpt>
      <trkpt lat="45.15213" lon="5.95452">
        <ele>2460</ele>
        <time>2020-08-11T08:05:52Z</time>
      </trkpt>
      <trkpt lat="45.15213" lon="5.95452">
        <ele>2460.4</ele>
        <time>2020-08-11T08:05:53Z</time>
      </trkpt>
      <trkpt lat="45.15213" lon="5.95452">
        <ele>2460.6</ele>
        <time>2020-08-11T08:05:54Z</time>
      </trkpt>
      <trkpt lat="45.15217" lon="5.95453">
        <ele>2460.6</ele>
        <time>2020-08-11T08:05:55Z</time>
      </trkpt>
      <trkpt lat="45.15217" lon="5.95453">
        <ele>2460.8</ele>
        <time>2020-08-11T08:05:56Z</time>
      </trkpt>
      <trkpt lat="45.15217" lon="5.95453">
        <ele>2461</ele>
        <time>2020-08-11T08:05:57Z</time>
      </trkpt>
      <trkpt lat="45.15219" lon="5.95454">
        <ele>2461</ele>
        <time>2020-08-11T08:05:58Z</time>
      </trkpt>
      <trkpt lat="45.1522" lon="5.95454">
        <ele>2461.4</ele>
        <time>2020-08-11T08:05:59Z</time>
      </trkpt>
      <trkpt lat="45.15221" lon="5.95455">
        <ele>2461.6</ele>
        <time>2020-08-11T08:06:00Z</time>
      </trkpt>
      <trkpt lat="45.15222" lon="5.95455">
        <ele>2461.8</ele>
        <time>2020-08-11T08:06:01Z</time>
      </trkpt>
      <trkpt lat="45.15222" lon="5.95455">
        <ele>2462</ele>
        <time>2020-08-11T08:06:02Z</time>
      </trkpt>
      <trkpt lat="45.15222" lon="5.95455">
        <ele>2462.2</ele>
        <time>2020-08-11T08:06:03Z</time>
      </trkpt>
      <trkpt lat="45.15222" lon="5.95455">
        <ele>2462.6</ele>
        <time>2020-08-11T08:06:04Z</time>
      </trkpt>
      <trkpt lat="45.15225" lon="5.95456">
        <ele>2462.8</ele>
        <time>2020-08-11T08:06:05Z</time>
      </trkpt>
      <trkpt lat="45.15225" lon="5.95456">
        <ele>2463</ele>
        <time>2020-08-11T08:06:06Z</time>
      </trkpt>
      <trkpt lat="45.15225" lon="5.95456">
        <ele>2463.2</ele>
        <time>2020-08-11T08:06:07Z</time>
      </trkpt>
      <trkpt lat="45.15226" lon="5.95457">
        <ele>2463.4</ele>
        <time>2020-08-11T08:06:08Z</time>
      </trkpt>
      <trkpt lat="45.15227" lon="5.95457">
        <ele>2463.6</ele>
        <time>2020-08-11T08:06:09Z</time>
      </trkpt>
      <trkpt lat="45.15227" lon="5.95457">
        <ele>2463.8</ele>
        <time>2020-08-11T08:06:10Z</time>
      </trkpt>
      <trkpt lat="45.15228" lon="5.95458">
        <ele>2464</ele>
        <time>2020-08-11T08:06:11Z</time>
      </trkpt>
      <trkpt lat="45.15228" lon="5.95458">
        <ele>2464.2</ele>
        <time>2020-08-11T08:06:12Z</time>
      </trkpt>
      <trkpt lat="45.15229" lon="5.95459">
        <ele>2464.8</ele>
        <time>2020-08-11T08:06:13Z</time>
      </trkpt>
      <trkpt lat="45.1523" lon="5.95459">
        <ele>2465.2</ele>
        <time>2020-08-11T08:06:14Z</time>
      </trkpt>
      <trkpt lat="45.1523" lon="5.9546">
        <ele>2465.4</ele>
        <time>2020-08-11T08:06:15Z</time>
      </trkpt>
      <trkpt lat="45.1523" lon="5.95461">
        <ele>2465.6</ele>
        <time>2020-08-11T08:06:16Z</time>
      </trkpt>
      <trkpt lat="45.15231" lon="5.95462">
        <ele>2465.8</ele>
        <time>2020-08-11T08:06:17Z</time>
      </trkpt>
      <trkpt lat="45.15231" lon="5.95463">
        <ele>2466</ele>
        <time>2020-08-11T08:06:18Z</time>
      </trkpt>
      <trkpt lat="45.15231" lon="5.95463">
        <ele>2466.6</ele>
        <time>2020-08-11T08:06:19Z</time>
      </trkpt>
      <trkpt lat="45.15232" lon="5.95464">
        <ele>2467</ele>
        <time>2020-08-11T08:06:20Z</time>
      </trkpt>
      <trkpt lat="45.15232" lon="5.95465">
        <ele>2467.2</ele>
        <time>2020-08-11T08:06:21Z</time>
      </trkpt>
      <trkpt lat="45.15232" lon="5.95465">
        <ele>2467.4</ele>
        <time>2020-08-11T08:06:22Z</time>
      </trkpt>
      <trkpt lat="45.15234" lon="5.95465">
        <ele>2467.4</ele>
        <time>2020-08-11T08:06:23Z</time>
      </trkpt>
      <trkpt lat="45.15234" lon="5.95465">
        <ele>2467.4</ele>
        <time>2020-08-11T08:06:24Z</time>
      </trkpt>
      <trkpt lat="45.15234" lon="5.95465">
        <ele>2467.4</ele>
        <time>2020-08-11T08:06:25Z</time>
      </trkpt>
      <trkpt lat="45.15234" lon="5.95465">
        <ele>2467.4</ele>
        <time>2020-08-11T08:06:26Z</time>
      </trkpt>
      <trkpt lat="45.15235" lon="5.95466">
        <ele>2467.4</ele>
        <time>2020-08-11T08:06:27Z</time>
      </trkpt>
      <trkpt lat="45.15235" lon="5.95466">
        <ele>2467.6</ele>
        <time>2020-08-11T08:06:28Z</time>
      </trkpt>
      <trkpt lat="45.15235" lon="5.95466">
        <ele>2467.6</ele>
        <time>2020-08-11T08:06:29Z</time>
      </trkpt>
      <trkpt lat="45.15235" lon="5.95466">
        <ele>2467.6</ele>
        <time>2020-08-11T08:06:30Z</time>
      </trkpt>
      <trkpt lat="45.15238" lon="5.95469">
        <ele>2467.8</ele>
        <time>2020-08-11T08:06:31Z</time>
      </trkpt>
      <trkpt lat="45.15238" lon="5.95469">
        <ele>2468</ele>
        <time>2020-08-11T08:06:32Z</time>
      </trkpt>
      <trkpt lat="45.15238" lon="5.95469">
        <ele>2468.2</ele>
        <time>2020-08-11T08:06:33Z</time>
      </trkpt>
      <trkpt lat="45.15238" lon="5.95469">
        <ele>2468.4</ele>
        <time>2020-08-11T08:06:34Z</time>
      </trkpt>
      <trkpt lat="45.1524" lon="5.9547">
        <ele>2468.8</ele>
        <time>2020-08-11T08:06:35Z</time>
      </trkpt>
      <trkpt lat="45.1524" lon="5.9547">
        <ele>2468.6</ele>
        <time>2020-08-11T08:06:36Z</time>
      </trkpt>
      <trkpt lat="45.15242" lon="5.9547">
        <ele>2468.8</ele>
        <time>2020-08-11T08:06:37Z</time>
      </trkpt>
      <trkpt lat="45.15242" lon="5.9547">
        <ele>2469</ele>
        <time>2020-08-11T08:06:38Z</time>
      </trkpt>
      <trkpt lat="45.15242" lon="5.9547">
        <ele>2469.2</ele>
        <time>2020-08-11T08:06:39Z</time>
      </trkpt>
      <trkpt lat="45.15245" lon="5.95471">
        <ele>2469.2</ele>
        <time>2020-08-11T08:06:40Z</time>
      </trkpt>
      <trkpt lat="45.15245" lon="5.95471">
        <ele>2469.4</ele>
        <time>2020-08-11T08:06:41Z</time>
      </trkpt>
      <trkpt lat="45.15245" lon="5.95471">
        <ele>2469.6</ele>
        <time>2020-08-11T08:06:42Z</time>
      </trkpt>
      <trkpt lat="45.15245" lon="5.95471">
        <ele>2469.6</ele>
        <time>2020-08-11T08:06:43Z</time>
      </trkpt>
      <trkpt lat="45.15245" lon="5.95471">
        <ele>2469.8</ele>
        <time>2020-08-11T08:06:44Z</time>
      </trkpt>
      <trkpt lat="45.15245" lon="5.95471">
        <ele>2470.2</ele>
        <time>2020-08-11T08:06:45Z</time>
      </trkpt>
      <trkpt lat="45.15248" lon="5.95473">
        <ele>2470.2</ele>
        <time>2020-08-11T08:06:46Z</time>
      </trkpt>
      <trkpt lat="45.15248" lon="5.95473">
        <ele>2470.4</ele>
        <time>2020-08-11T08:06:47Z</time>
      </trkpt>
      <trkpt lat="45.1525" lon="5.95474">
        <ele>2470.4</ele>
        <time>2020-08-11T08:06:48Z</time>
      </trkpt>
      <trkpt lat="45.1525" lon="5.95474">
        <ele>2470.6</ele>
        <time>2020-08-11T08:06:49Z</time>
      </trkpt>
      <trkpt lat="45.15252" lon="5.95474">
        <ele>2470.6</ele>
        <time>2020-08-11T08:06:50Z</time>
      </trkpt>
      <trkpt lat="45.15252" lon="5.95474">
        <ele>2470.6</ele>
        <time>2020-08-11T08:06:51Z</time>
      </trkpt>
      <trkpt lat="45.15252" lon="5.95474">
        <ele>2470.8</ele>
        <time>2020-08-11T08:06:52Z</time>
      </trkpt>
      <trkpt lat="45.15254" lon="5.95474">
        <ele>2471</ele>
        <time>2020-08-11T08:06:53Z</time>
      </trkpt>
      <trkpt lat="45.15254" lon="5.95474">
        <ele>2471.2</ele>
        <time>2020-08-11T08:06:54Z</time>
      </trkpt>
      <trkpt lat="45.15254" lon="5.95474">
        <ele>2471.4</ele>
        <time>2020-08-11T08:06:55Z</time>
      </trkpt>
      <trkpt lat="45.15257" lon="5.95474">
        <ele>2471.4</ele>
        <time>2020-08-11T08:06:56Z</time>
      </trkpt>
      <trkpt lat="45.15257" lon="5.95474">
        <ele>2471.6</ele>
        <time>2020-08-11T08:06:57Z</time>
      </trkpt>
      <trkpt lat="45.15257" lon="5.95474">
        <ele>2471.6</ele>
        <time>2020-08-11T08:06:58Z</time>
      </trkpt>
      <trkpt lat="45.15257" lon="5.95474">
        <ele>2471.8</ele>
        <time>2020-08-11T08:06:59Z</time>
      </trkpt>
      <trkpt lat="45.15259" lon="5.95473">
        <ele>2472</ele>
        <time>2020-08-11T08:07:00Z</time>
      </trkpt>
      <trkpt lat="45.15259" lon="5.95473">
        <ele>2472</ele>
        <time>2020-08-11T08:07:01Z</time>
      </trkpt>
      <trkpt lat="45.15259" lon="5.95473">
        <ele>2472</ele>
        <time>2020-08-11T08:07:02Z</time>
      </trkpt>
      <trkpt lat="45.15259" lon="5.95473">
        <ele>2472.2</ele>
        <time>2020-08-11T08:07:03Z</time>
      </trkpt>
      <trkpt lat="45.15261" lon="5.95472">
        <ele>2472.4</ele>
        <time>2020-08-11T08:07:04Z</time>
      </trkpt>
      <trkpt lat="45.15261" lon="5.95472">
        <ele>2472.2</ele>
        <time>2020-08-11T08:07:05Z</time>
      </trkpt>
      <trkpt lat="45.15262" lon="5.9547">
        <ele>2472.2</ele>
        <time>2020-08-11T08:07:06Z</time>
      </trkpt>
      <trkpt lat="45.15262" lon="5.9547">
        <ele>2472.4</ele>
        <time>2020-08-11T08:07:07Z</time>
      </trkpt>
      <trkpt lat="45.15262" lon="5.9547">
        <ele>2473</ele>
        <time>2020-08-11T08:07:08Z</time>
      </trkpt>
      <trkpt lat="45.15262" lon="5.9547">
        <ele>2473.4</ele>
        <time>2020-08-11T08:07:09Z</time>
      </trkpt>
      <trkpt lat="45.15262" lon="5.9547">
        <ele>2473.4</ele>
        <time>2020-08-11T08:07:10Z</time>
      </trkpt>
      <trkpt lat="45.15264" lon="5.95467">
        <ele>2473.6</ele>
        <time>2020-08-11T08:07:11Z</time>
      </trkpt>
      <trkpt lat="45.15264" lon="5.95467">
        <ele>2473.4</ele>
        <time>2020-08-11T08:07:12Z</time>
      </trkpt>
      <trkpt lat="45.15264" lon="5.95467">
        <ele>2473.4</ele>
        <time>2020-08-11T08:07:13Z</time>
      </trkpt>
      <trkpt lat="45.15264" lon="5.95467">
        <ele>2473.4</ele>
        <time>2020-08-11T08:07:14Z</time>
      </trkpt>
      <trkpt lat="45.15264" lon="5.95467">
        <ele>2473.4</ele>
        <time>2020-08-11T08:07:15Z</time>
      </trkpt>
      <trkpt lat="45.15264" lon="5.95467">
        <ele>2473.4</ele>
        <time>2020-08-11T08:07:16Z</time>
      </trkpt>
      <trkpt lat="45.15264" lon="5.95467">
        <ele>2473.8</ele>
        <time>2020-08-11T08:07:17Z</time>
      </trkpt>
      <trkpt lat="45.15264" lon="5.95467">
        <ele>2474</ele>
        <time>2020-08-11T08:07:18Z</time>
      </trkpt>
      <trkpt lat="45.15264" lon="5.95467">
        <ele>2473.8</ele>
        <time>2020-08-11T08:07:19Z</time>
      </trkpt>
      <trkpt lat="45.15264" lon="5.95467">
        <ele>2473.6</ele>
        <time>2020-08-11T08:07:20Z</time>
      </trkpt>
      <trkpt lat="45.15264" lon="5.95467">
        <ele>2473.4</ele>
        <time>2020-08-11T08:07:21Z</time>
      </trkpt>
      <trkpt lat="45.15264" lon="5.95467">
        <ele>2473.4</ele>
        <time>2020-08-11T08:07:22Z</time>
      </trkpt>
      <trkpt lat="45.15263" lon="5.95464">
        <ele>2473.4</ele>
        <time>2020-08-11T08:07:23Z</time>
      </trkpt>
      <trkpt lat="45.15263" lon="5.95464">
        <ele>2473.6</ele>
        <time>2020-08-11T08:07:24Z</time>
      </trkpt>
      <trkpt lat="45.15263" lon="5.95464">
        <ele>2473.4</ele>
        <time>2020-08-11T08:07:25Z</time>
      </trkpt>
      <trkpt lat="45.15263" lon="5.95464">
        <ele>2473.4</ele>
        <time>2020-08-11T08:07:26Z</time>
      </trkpt>
      <trkpt lat="45.15263" lon="5.95464">
        <ele>2473.4</ele>
        <time>2020-08-11T08:07:27Z</time>
      </trkpt>
      <trkpt lat="45.15263" lon="5.95464">
        <ele>2473.6</ele>
        <time>2020-08-11T08:07:28Z</time>
      </trkpt>
      <trkpt lat="45.15263" lon="5.95464">
        <ele>2473.8</ele>
        <time>2020-08-11T08:07:29Z</time>
      </trkpt>
      <trkpt lat="45.15263" lon="5.95464">
        <ele>2474</ele>
        <time>2020-08-11T08:07:30Z</time>
      </trkpt>
      <trkpt lat="45.15263" lon="5.95464">
        <ele>2473.8</ele>
        <time>2020-08-11T08:07:31Z</time>
      </trkpt>
      <trkpt lat="45.15263" lon="5.95464">
        <ele>2474</ele>
        <time>2020-08-11T08:07:32Z</time>
      </trkpt>
      <trkpt lat="45.15263" lon="5.95464">
        <ele>2474.2</ele>
        <time>2020-08-11T08:07:33Z</time>
      </trkpt>
      <trkpt lat="45.15263" lon="5.95464">
        <ele>2474.2</ele>
        <time>2020-08-11T08:07:34Z</time>
      </trkpt>
      <trkpt lat="45.15263" lon="5.95464">
        <ele>2474</ele>
        <time>2020-08-11T08:07:35Z</time>
      </trkpt>
      <trkpt lat="45.15263" lon="5.95464">
        <ele>2474.2</ele>
        <time>2020-08-11T08:07:36Z</time>
      </trkpt>
      <trkpt lat="45.15263" lon="5.95464">
        <ele>2474.2</ele>
        <time>2020-08-11T08:07:37Z</time>
      </trkpt>
      <trkpt lat="45.15263" lon="5.95462">
        <ele>2474.2</ele>
        <time>2020-08-11T08:07:38Z</time>
      </trkpt>
      <trkpt lat="45.15263" lon="5.95462">
        <ele>2474.4</ele>
        <time>2020-08-11T08:07:39Z</time>
      </trkpt>
      <trkpt lat="45.15263" lon="5.95462">
        <ele>2474</ele>
        <time>2020-08-11T08:07:40Z</time>
      </trkpt>
      <trkpt lat="45.15263" lon="5.95462">
        <ele>2474</ele>
        <time>2020-08-11T08:07:41Z</time>
      </trkpt>
      <trkpt lat="45.15263" lon="5.95462">
        <ele>2473.8</ele>
        <time>2020-08-11T08:07:42Z</time>
      </trkpt>
      <trkpt lat="45.15263" lon="5.95462">
        <ele>2473.8</ele>
        <time>2020-08-11T08:07:43Z</time>
      </trkpt>
      <trkpt lat="45.15264" lon="5.95464">
        <ele>2473.6</ele>
        <time>2020-08-11T08:07:44Z</time>
      </trkpt>
      <trkpt lat="45.15264" lon="5.95464">
        <ele>2473.6</ele>
        <time>2020-08-11T08:07:45Z</time>
      </trkpt>
      <trkpt lat="45.15266" lon="5.95465">
        <ele>2473.4</ele>
        <time>2020-08-11T08:07:46Z</time>
      </trkpt>
      <trkpt lat="45.15266" lon="5.95465">
        <ele>2472.8</ele>
        <time>2020-08-11T08:07:47Z</time>
      </trkpt>
      <trkpt lat="45.15267" lon="5.95467">
        <ele>2472.8</ele>
        <time>2020-08-11T08:07:48Z</time>
      </trkpt>
      <trkpt lat="45.15267" lon="5.95467">
        <ele>2472.8</ele>
        <time>2020-08-11T08:07:49Z</time>
      </trkpt>
      <trkpt lat="45.15267" lon="5.95467">
        <ele>2472.8</ele>
        <time>2020-08-11T08:07:50Z</time>
      </trkpt>
      <trkpt lat="45.15267" lon="5.95467">
        <ele>2472.6</ele>
        <time>2020-08-11T08:07:51Z</time>
      </trkpt>
      <trkpt lat="45.15267" lon="5.95467">
        <ele>2472.8</ele>
        <time>2020-08-11T08:07:52Z</time>
      </trkpt>
      <trkpt lat="45.15269" lon="5.95469">
        <ele>2473</ele>
        <time>2020-08-11T08:07:53Z</time>
      </trkpt>
      <trkpt lat="45.15269" lon="5.95469">
        <ele>2473</ele>
        <time>2020-08-11T08:07:54Z</time>
      </trkpt>
      <trkpt lat="45.15269" lon="5.95469">
        <ele>2473.2</ele>
        <time>2020-08-11T08:07:55Z</time>
      </trkpt>
      <trkpt lat="45.15269" lon="5.95469">
        <ele>2473.2</ele>
        <time>2020-08-11T08:07:56Z</time>
      </trkpt>
      <trkpt lat="45.15269" lon="5.95469">
        <ele>2473.2</ele>
        <time>2020-08-11T08:07:57Z</time>
      </trkpt>
      <trkpt lat="45.15269" lon="5.95469">
        <ele>2473.4</ele>
        <time>2020-08-11T08:07:58Z</time>
      </trkpt>
      <trkpt lat="45.15269" lon="5.95469">
        <ele>2473.4</ele>
        <time>2020-08-11T08:07:59Z</time>
      </trkpt>
      <trkpt lat="45.15269" lon="5.95469">
        <ele>2473.4</ele>
        <time>2020-08-11T08:08:00Z</time>
      </trkpt>
      <trkpt lat="45.15269" lon="5.95469">
        <ele>2473.4</ele>
        <time>2020-08-11T08:08:01Z</time>
      </trkpt>
      <trkpt lat="45.15269" lon="5.95472">
        <ele>2473.4</ele>
        <time>2020-08-11T08:08:02Z</time>
      </trkpt>
      <trkpt lat="45.15269" lon="5.95472">
        <ele>2473.4</ele>
        <time>2020-08-11T08:08:03Z</time>
      </trkpt>
      <trkpt lat="45.15269" lon="5.95472">
        <ele>2473.4</ele>
        <time>2020-08-11T08:08:04Z</time>
      </trkpt>
      <trkpt lat="45.15269" lon="5.95472">
        <ele>2473.4</ele>
        <time>2020-08-11T08:08:05Z</time>
      </trkpt>
      <trkpt lat="45.15269" lon="5.95472">
        <ele>2473.8</ele>
        <time>2020-08-11T08:08:06Z</time>
      </trkpt>
      <trkpt lat="45.15269" lon="5.95469">
        <ele>2473.6</ele>
        <time>2020-08-11T08:08:07Z</time>
      </trkpt>
      <trkpt lat="45.15269" lon="5.95469">
        <ele>2473.6</ele>
        <time>2020-08-11T08:08:08Z</time>
      </trkpt>
      <trkpt lat="45.15269" lon="5.95469">
        <ele>2473.4</ele>
        <time>2020-08-11T08:08:09Z</time>
      </trkpt>
      <trkpt lat="45.15269" lon="5.95469">
        <ele>2473.6</ele>
        <time>2020-08-11T08:08:10Z</time>
      </trkpt>
      <trkpt lat="45.15269" lon="5.95469">
        <ele>2473.6</ele>
        <time>2020-08-11T08:08:11Z</time>
      </trkpt>
      <trkpt lat="45.15269" lon="5.95469">
        <ele>2473.6</ele>
        <time>2020-08-11T08:08:12Z</time>
      </trkpt>
      <trkpt lat="45.15269" lon="5.95469">
        <ele>2473.4</ele>
        <time>2020-08-11T08:08:13Z</time>
      </trkpt>
      <trkpt lat="45.15269" lon="5.95469">
        <ele>2473.4</ele>
        <time>2020-08-11T08:08:14Z</time>
      </trkpt>
      <trkpt lat="45.15269" lon="5.95469">
        <ele>2473.6</ele>
        <time>2020-08-11T08:08:15Z</time>
      </trkpt>
      <trkpt lat="45.15269" lon="5.95469">
        <ele>2473.6</ele>
        <time>2020-08-11T08:08:16Z</time>
      </trkpt>
      <trkpt lat="45.15269" lon="5.95469">
        <ele>2473.4</ele>
        <time>2020-08-11T08:08:17Z</time>
      </trkpt>
      <trkpt lat="45.15269" lon="5.95469">
        <ele>2473.4</ele>
        <time>2020-08-11T08:08:18Z</time>
      </trkpt>
      <trkpt lat="45.15269" lon="5.95469">
        <ele>2473.4</ele>
        <time>2020-08-11T08:08:19Z</time>
      </trkpt>
      <trkpt lat="45.15269" lon="5.95469">
        <ele>2473.6</ele>
        <time>2020-08-11T08:08:20Z</time>
      </trkpt>
      <trkpt lat="45.15269" lon="5.95469">
        <ele>2473.4</ele>
        <time>2020-08-11T08:08:21Z</time>
      </trkpt>
      <trkpt lat="45.15269" lon="5.95469">
        <ele>2473.6</ele>
        <time>2020-08-11T08:08:22Z</time>
      </trkpt>
      <trkpt lat="45.15269" lon="5.95469">
        <ele>2473.4</ele>
        <time>2020-08-11T08:08:23Z</time>
      </trkpt>
      <trkpt lat="45.15269" lon="5.95469">
        <ele>2473.8</ele>
        <time>2020-08-11T08:08:24Z</time>
      </trkpt>
      <trkpt lat="45.15269" lon="5.95469">
        <ele>2474</ele>
        <time>2020-08-11T08:08:25Z</time>
      </trkpt>
      <trkpt lat="45.15269" lon="5.95469">
        <ele>2474.2</ele>
        <time>2020-08-11T08:08:26Z</time>
      </trkpt>
      <trkpt lat="45.15269" lon="5.95469">
        <ele>2474.4</ele>
        <time>2020-08-11T08:08:27Z</time>
      </trkpt>
      <trkpt lat="45.15269" lon="5.95469">
        <ele>2474.6</ele>
        <time>2020-08-11T08:08:28Z</time>
      </trkpt>
      <trkpt lat="45.15269" lon="5.95469">
        <ele>2474.6</ele>
        <time>2020-08-11T08:08:29Z</time>
      </trkpt>
      <trkpt lat="45.15269" lon="5.95469">
        <ele>2474.6</ele>
        <time>2020-08-11T08:08:30Z</time>
      </trkpt>
      <trkpt lat="45.15269" lon="5.95469">
        <ele>2474.6</ele>
        <time>2020-08-11T08:08:31Z</time>
      </trkpt>
      <trkpt lat="45.15269" lon="5.95469">
        <ele>2474.2</ele>
        <time>2020-08-11T08:08:32Z</time>
      </trkpt>
      <trkpt lat="45.15269" lon="5.95469">
        <ele>2474</ele>
        <time>2020-08-11T08:08:33Z</time>
      </trkpt>
      <trkpt lat="45.15269" lon="5.95469">
        <ele>2473.8</ele>
        <time>2020-08-11T08:08:34Z</time>
      </trkpt>
      <trkpt lat="45.15269" lon="5.95469">
        <ele>2473.8</ele>
        <time>2020-08-11T08:08:35Z</time>
      </trkpt>
      <trkpt lat="45.15269" lon="5.95469">
        <ele>2473.8</ele>
        <time>2020-08-11T08:08:36Z</time>
      </trkpt>
      <trkpt lat="45.15269" lon="5.95469">
        <ele>2473.6</ele>
        <time>2020-08-11T08:08:37Z</time>
      </trkpt>
      <trkpt lat="45.15269" lon="5.95469">
        <ele>2473.6</ele>
        <time>2020-08-11T08:08:38Z</time>
      </trkpt>
      <trkpt lat="45.15269" lon="5.95469">
        <ele>2473.8</ele>
        <time>2020-08-11T08:08:39Z</time>
      </trkpt>
      <trkpt lat="45.1527" lon="5.95471">
        <ele>2473.8</ele>
        <time>2020-08-11T08:08:40Z</time>
      </trkpt>
      <trkpt lat="45.1527" lon="5.95471">
        <ele>2474</ele>
        <time>2020-08-11T08:08:41Z</time>
      </trkpt>
      <trkpt lat="45.1527" lon="5.95471">
        <ele>2474</ele>
        <time>2020-08-11T08:08:42Z</time>
      </trkpt>
      <trkpt lat="45.1527" lon="5.95471">
        <ele>2474.4</ele>
        <time>2020-08-11T08:08:43Z</time>
      </trkpt>
      <trkpt lat="45.15271" lon="5.95474">
        <ele>2474.4</ele>
        <time>2020-08-11T08:08:44Z</time>
      </trkpt>
      <trkpt lat="45.15271" lon="5.95474">
        <ele>2474.2</ele>
        <time>2020-08-11T08:08:45Z</time>
      </trkpt>
      <trkpt lat="45.15274" lon="5.95476">
        <ele>2474.4</ele>
        <time>2020-08-11T08:08:46Z</time>
      </trkpt>
      <trkpt lat="45.15274" lon="5.95476">
        <ele>2474.8</ele>
        <time>2020-08-11T08:08:47Z</time>
      </trkpt>
      <trkpt lat="45.15276" lon="5.95477">
        <ele>2474.8</ele>
        <time>2020-08-11T08:08:48Z</time>
      </trkpt>
      <trkpt lat="45.15276" lon="5.95477">
        <ele>2475.4</ele>
        <time>2020-08-11T08:08:49Z</time>
      </trkpt>
      <trkpt lat="45.15278" lon="5.95478">
        <ele>2476</ele>
        <time>2020-08-11T08:08:50Z</time>
      </trkpt>
      <trkpt lat="45.15279" lon="5.9548">
        <ele>2476.4</ele>
        <time>2020-08-11T08:08:51Z</time>
      </trkpt>
      <trkpt lat="45.15279" lon="5.9548">
        <ele>2476</ele>
        <time>2020-08-11T08:08:52Z</time>
      </trkpt>
      <trkpt lat="45.15279" lon="5.9548">
        <ele>2475.8</ele>
        <time>2020-08-11T08:08:53Z</time>
      </trkpt>
      <trkpt lat="45.15281" lon="5.95482">
        <ele>2475.8</ele>
        <time>2020-08-11T08:08:54Z</time>
      </trkpt>
      <trkpt lat="45.15281" lon="5.95482">
        <ele>2476</ele>
        <time>2020-08-11T08:08:55Z</time>
      </trkpt>
      <trkpt lat="45.15283" lon="5.95484">
        <ele>2476.2</ele>
        <time>2020-08-11T08:08:56Z</time>
      </trkpt>
      <trkpt lat="45.15283" lon="5.95484">
        <ele>2476.6</ele>
        <time>2020-08-11T08:08:57Z</time>
      </trkpt>
      <trkpt lat="45.15285" lon="5.95486">
        <ele>2476.6</ele>
        <time>2020-08-11T08:08:58Z</time>
      </trkpt>
      <trkpt lat="45.15285" lon="5.95486">
        <ele>2476.8</ele>
        <time>2020-08-11T08:08:59Z</time>
      </trkpt>
      <trkpt lat="45.15285" lon="5.95486">
        <ele>2476.6</ele>
        <time>2020-08-11T08:09:00Z</time>
      </trkpt>
      <trkpt lat="45.15285" lon="5.95486">
        <ele>2476.8</ele>
        <time>2020-08-11T08:09:01Z</time>
      </trkpt>
      <trkpt lat="45.15287" lon="5.95487">
        <ele>2477</ele>
        <time>2020-08-11T08:09:02Z</time>
      </trkpt>
      <trkpt lat="45.15287" lon="5.95487">
        <ele>2477.4</ele>
        <time>2020-08-11T08:09:03Z</time>
      </trkpt>
      <trkpt lat="45.15289" lon="5.95488">
        <ele>2477.4</ele>
        <time>2020-08-11T08:09:04Z</time>
      </trkpt>
      <trkpt lat="45.15289" lon="5.95488">
        <ele>2477.4</ele>
        <time>2020-08-11T08:09:05Z</time>
      </trkpt>
      <trkpt lat="45.15289" lon="5.95488">
        <ele>2477.6</ele>
        <time>2020-08-11T08:09:06Z</time>
      </trkpt>
      <trkpt lat="45.15291" lon="5.9549">
        <ele>2477.8</ele>
        <time>2020-08-11T08:09:07Z</time>
      </trkpt>
      <trkpt lat="45.15291" lon="5.9549">
        <ele>2478</ele>
        <time>2020-08-11T08:09:08Z</time>
      </trkpt>
      <trkpt lat="45.15291" lon="5.9549">
        <ele>2478.2</ele>
        <time>2020-08-11T08:09:09Z</time>
      </trkpt>
      <trkpt lat="45.15292" lon="5.95492">
        <ele>2478.8</ele>
        <time>2020-08-11T08:09:10Z</time>
      </trkpt>
      <trkpt lat="45.15292" lon="5.95492">
        <ele>2479</ele>
        <time>2020-08-11T08:09:11Z</time>
      </trkpt>
      <trkpt lat="45.15294" lon="5.95494">
        <ele>2479.2</ele>
        <time>2020-08-11T08:09:12Z</time>
      </trkpt>
      <trkpt lat="45.15294" lon="5.95494">
        <ele>2479.4</ele>
        <time>2020-08-11T08:09:13Z</time>
      </trkpt>
      <trkpt lat="45.15294" lon="5.95494">
        <ele>2479.6</ele>
        <time>2020-08-11T08:09:14Z</time>
      </trkpt>
      <trkpt lat="45.15294" lon="5.95494">
        <ele>2479.8</ele>
        <time>2020-08-11T08:09:15Z</time>
      </trkpt>
      <trkpt lat="45.15294" lon="5.95496">
        <ele>2479.8</ele>
        <time>2020-08-11T08:09:16Z</time>
      </trkpt>
      <trkpt lat="45.15294" lon="5.95496">
        <ele>2480</ele>
        <time>2020-08-11T08:09:17Z</time>
      </trkpt>
      <trkpt lat="45.15294" lon="5.95496">
        <ele>2480.4</ele>
        <time>2020-08-11T08:09:18Z</time>
      </trkpt>
      <trkpt lat="45.15296" lon="5.95499">
        <ele>2480.8</ele>
        <time>2020-08-11T08:09:19Z</time>
      </trkpt>
      <trkpt lat="45.15296" lon="5.95499">
        <ele>2481</ele>
        <time>2020-08-11T08:09:20Z</time>
      </trkpt>
      <trkpt lat="45.15296" lon="5.95499">
        <ele>2481</ele>
        <time>2020-08-11T08:09:21Z</time>
      </trkpt>
      <trkpt lat="45.15297" lon="5.95501">
        <ele>2481.4</ele>
        <time>2020-08-11T08:09:22Z</time>
      </trkpt>
      <trkpt lat="45.15297" lon="5.95501">
        <ele>2481.4</ele>
        <time>2020-08-11T08:09:23Z</time>
      </trkpt>
      <trkpt lat="45.15298" lon="5.95503">
        <ele>2482</ele>
        <time>2020-08-11T08:09:24Z</time>
      </trkpt>
      <trkpt lat="45.15298" lon="5.95503">
        <ele>2482.2</ele>
        <time>2020-08-11T08:09:25Z</time>
      </trkpt>
      <trkpt lat="45.15298" lon="5.95503">
        <ele>2482.6</ele>
        <time>2020-08-11T08:09:26Z</time>
      </trkpt>
      <trkpt lat="45.15299" lon="5.95506">
        <ele>2483</ele>
        <time>2020-08-11T08:09:27Z</time>
      </trkpt>
      <trkpt lat="45.15299" lon="5.95506">
        <ele>2483.2</ele>
        <time>2020-08-11T08:09:28Z</time>
      </trkpt>
      <trkpt lat="45.15299" lon="5.95506">
        <ele>2483.4</ele>
        <time>2020-08-11T08:09:29Z</time>
      </trkpt>
      <trkpt lat="45.15301" lon="5.95507">
        <ele>2483.8</ele>
        <time>2020-08-11T08:09:30Z</time>
      </trkpt>
      <trkpt lat="45.15301" lon="5.95507">
        <ele>2484</ele>
        <time>2020-08-11T08:09:31Z</time>
      </trkpt>
      <trkpt lat="45.15301" lon="5.95507">
        <ele>2484</ele>
        <time>2020-08-11T08:09:32Z</time>
      </trkpt>
      <trkpt lat="45.15301" lon="5.95507">
        <ele>2484.2</ele>
        <time>2020-08-11T08:09:33Z</time>
      </trkpt>
      <trkpt lat="45.15302" lon="5.9551">
        <ele>2484.4</ele>
        <time>2020-08-11T08:09:34Z</time>
      </trkpt>
      <trkpt lat="45.15302" lon="5.9551">
        <ele>2484.6</ele>
        <time>2020-08-11T08:09:35Z</time>
      </trkpt>
      <trkpt lat="45.15302" lon="5.9551">
        <ele>2484.8</ele>
        <time>2020-08-11T08:09:36Z</time>
      </trkpt>
      <trkpt lat="45.15304" lon="5.95511">
        <ele>2485</ele>
        <time>2020-08-11T08:09:37Z</time>
      </trkpt>
      <trkpt lat="45.15304" lon="5.95511">
        <ele>2485.4</ele>
        <time>2020-08-11T08:09:38Z</time>
      </trkpt>
      <trkpt lat="45.15304" lon="5.95511">
        <ele>2485.6</ele>
        <time>2020-08-11T08:09:39Z</time>
      </trkpt>
      <trkpt lat="45.15304" lon="5.95511">
        <ele>2485.8</ele>
        <time>2020-08-11T08:09:40Z</time>
      </trkpt>
      <trkpt lat="45.15305" lon="5.95514">
        <ele>2486</ele>
        <time>2020-08-11T08:09:41Z</time>
      </trkpt>
      <trkpt lat="45.15305" lon="5.95514">
        <ele>2486.4</ele>
        <time>2020-08-11T08:09:42Z</time>
      </trkpt>
      <trkpt lat="45.15305" lon="5.95514">
        <ele>2486.6</ele>
        <time>2020-08-11T08:09:43Z</time>
      </trkpt>
      <trkpt lat="45.15305" lon="5.95514">
        <ele>2487</ele>
        <time>2020-08-11T08:09:44Z</time>
      </trkpt>
      <trkpt lat="45.15305" lon="5.95514">
        <ele>2487</ele>
        <time>2020-08-11T08:09:45Z</time>
      </trkpt>
      <trkpt lat="45.15305" lon="5.95514">
        <ele>2487.4</ele>
        <time>2020-08-11T08:09:46Z</time>
      </trkpt>
      <trkpt lat="45.15305" lon="5.95514">
        <ele>2487.8</ele>
        <time>2020-08-11T08:09:47Z</time>
      </trkpt>
      <trkpt lat="45.15305" lon="5.95514">
        <ele>2487.8</ele>
        <time>2020-08-11T08:09:48Z</time>
      </trkpt>
      <trkpt lat="45.15307" lon="5.95516">
        <ele>2487.8</ele>
        <time>2020-08-11T08:09:49Z</time>
      </trkpt>
      <trkpt lat="45.15309" lon="5.95518">
        <ele>2488</ele>
        <time>2020-08-11T08:09:50Z</time>
      </trkpt>
      <trkpt lat="45.15309" lon="5.95518">
        <ele>2488.2</ele>
        <time>2020-08-11T08:09:51Z</time>
      </trkpt>
      <trkpt lat="45.1531" lon="5.95519">
        <ele>2488.2</ele>
        <time>2020-08-11T08:09:52Z</time>
      </trkpt>
      <trkpt lat="45.15311" lon="5.9552">
        <ele>2488.4</ele>
        <time>2020-08-11T08:09:53Z</time>
      </trkpt>
      <trkpt lat="45.15312" lon="5.95521">
        <ele>2488.4</ele>
        <time>2020-08-11T08:09:54Z</time>
      </trkpt>
      <trkpt lat="45.15312" lon="5.95522">
        <ele>2488.6</ele>
        <time>2020-08-11T08:09:55Z</time>
      </trkpt>
      <trkpt lat="45.15312" lon="5.95522">
        <ele>2488.6</ele>
        <time>2020-08-11T08:09:56Z</time>
      </trkpt>
      <trkpt lat="45.15312" lon="5.95522">
        <ele>2488.6</ele>
        <time>2020-08-11T08:09:57Z</time>
      </trkpt>
      <trkpt lat="45.15315" lon="5.95525">
        <ele>2488.6</ele>
        <time>2020-08-11T08:09:58Z</time>
      </trkpt>
      <trkpt lat="45.15315" lon="5.95525">
        <ele>2488.8</ele>
        <time>2020-08-11T08:09:59Z</time>
      </trkpt>
      <trkpt lat="45.15317" lon="5.95527">
        <ele>2488.8</ele>
        <time>2020-08-11T08:10:00Z</time>
      </trkpt>
      <trkpt lat="45.15318" lon="5.95529">
        <ele>2489</ele>
        <time>2020-08-11T08:10:01Z</time>
      </trkpt>
      <trkpt lat="45.15318" lon="5.95529">
        <ele>2489</ele>
        <time>2020-08-11T08:10:02Z</time>
      </trkpt>
      <trkpt lat="45.15318" lon="5.95529">
        <ele>2489.2</ele>
        <time>2020-08-11T08:10:03Z</time>
      </trkpt>
      <trkpt lat="45.15319" lon="5.95532">
        <ele>2489.2</ele>
        <time>2020-08-11T08:10:04Z</time>
      </trkpt>
      <trkpt lat="45.15319" lon="5.95532">
        <ele>2489.2</ele>
        <time>2020-08-11T08:10:05Z</time>
      </trkpt>
      <trkpt lat="45.15319" lon="5.95532">
        <ele>2489.4</ele>
        <time>2020-08-11T08:10:06Z</time>
      </trkpt>
      <trkpt lat="45.15319" lon="5.95532">
        <ele>2489.6</ele>
        <time>2020-08-11T08:10:07Z</time>
      </trkpt>
      <trkpt lat="45.15321" lon="5.95533">
        <ele>2489.8</ele>
        <time>2020-08-11T08:10:08Z</time>
      </trkpt>
      <trkpt lat="45.15321" lon="5.95533">
        <ele>2489.8</ele>
        <time>2020-08-11T08:10:09Z</time>
      </trkpt>
      <trkpt lat="45.15321" lon="5.95533">
        <ele>2489.8</ele>
        <time>2020-08-11T08:10:10Z</time>
      </trkpt>
      <trkpt lat="45.15321" lon="5.95533">
        <ele>2490.2</ele>
        <time>2020-08-11T08:10:11Z</time>
      </trkpt>
      <trkpt lat="45.15321" lon="5.95533">
        <ele>2490.2</ele>
        <time>2020-08-11T08:10:12Z</time>
      </trkpt>
      <trkpt lat="45.15321" lon="5.95533">
        <ele>2490.8</ele>
        <time>2020-08-11T08:10:13Z</time>
      </trkpt>
      <trkpt lat="45.15323" lon="5.95535">
        <ele>2491</ele>
        <time>2020-08-11T08:10:14Z</time>
      </trkpt>
      <trkpt lat="45.15323" lon="5.95535">
        <ele>2491.2</ele>
        <time>2020-08-11T08:10:15Z</time>
      </trkpt>
      <trkpt lat="45.15325" lon="5.95537">
        <ele>2491.6</ele>
        <time>2020-08-11T08:10:16Z</time>
      </trkpt>
      <trkpt lat="45.15325" lon="5.95537">
        <ele>2491.8</ele>
        <time>2020-08-11T08:10:17Z</time>
      </trkpt>
      <trkpt lat="45.15327" lon="5.95539">
        <ele>2492</ele>
        <time>2020-08-11T08:10:18Z</time>
      </trkpt>
      <trkpt lat="45.15327" lon="5.95539">
        <ele>2492.4</ele>
        <time>2020-08-11T08:10:19Z</time>
      </trkpt>
      <trkpt lat="45.15327" lon="5.95539">
        <ele>2492.6</ele>
        <time>2020-08-11T08:10:20Z</time>
      </trkpt>
      <trkpt lat="45.15327" lon="5.95539">
        <ele>2492.8</ele>
        <time>2020-08-11T08:10:21Z</time>
      </trkpt>
      <trkpt lat="45.15328" lon="5.95542">
        <ele>2493</ele>
        <time>2020-08-11T08:10:22Z</time>
      </trkpt>
      <trkpt lat="45.15328" lon="5.95542">
        <ele>2493.6</ele>
        <time>2020-08-11T08:10:24Z</time>
      </trkpt>
      <trkpt lat="45.1533" lon="5.95544">
        <ele>2494</ele>
        <time>2020-08-11T08:10:25Z</time>
      </trkpt>
      <trkpt lat="45.1533" lon="5.95544">
        <ele>2494</ele>
        <time>2020-08-11T08:10:26Z</time>
      </trkpt>
      <trkpt lat="45.15332" lon="5.95546">
        <ele>2494.2</ele>
        <time>2020-08-11T08:10:27Z</time>
      </trkpt>
      <trkpt lat="45.15332" lon="5.95546">
        <ele>2494.4</ele>
        <time>2020-08-11T08:10:28Z</time>
      </trkpt>
      <trkpt lat="45.15332" lon="5.95546">
        <ele>2494.6</ele>
        <time>2020-08-11T08:10:29Z</time>
      </trkpt>
      <trkpt lat="45.15332" lon="5.95546">
        <ele>2494.6</ele>
        <time>2020-08-11T08:10:30Z</time>
      </trkpt>
      <trkpt lat="45.15333" lon="5.95548">
        <ele>2494.6</ele>
        <time>2020-08-11T08:10:31Z</time>
      </trkpt>
      <trkpt lat="45.15333" lon="5.95548">
        <ele>2495</ele>
        <time>2020-08-11T08:10:32Z</time>
      </trkpt>
      <trkpt lat="45.15333" lon="5.95548">
        <ele>2495.2</ele>
        <time>2020-08-11T08:10:33Z</time>
      </trkpt>
      <trkpt lat="45.15335" lon="5.9555">
        <ele>2495.4</ele>
        <time>2020-08-11T08:10:34Z</time>
      </trkpt>
      <trkpt lat="45.15335" lon="5.9555">
        <ele>2495.6</ele>
        <time>2020-08-11T08:10:35Z</time>
      </trkpt>
      <trkpt lat="45.15334" lon="5.95549">
        <ele>2495.8</ele>
        <time>2020-08-11T08:10:36Z</time>
      </trkpt>
      <trkpt lat="45.15332" lon="5.95548">
        <ele>2496.2</ele>
        <time>2020-08-11T08:10:37Z</time>
      </trkpt>
      <trkpt lat="45.15331" lon="5.95547">
        <ele>2496.4</ele>
        <time>2020-08-11T08:10:38Z</time>
      </trkpt>
      <trkpt lat="45.15329" lon="5.95546">
        <ele>2496.8</ele>
        <time>2020-08-11T08:10:39Z</time>
      </trkpt>
      <trkpt lat="45.15328" lon="5.95545">
        <ele>2497.2</ele>
        <time>2020-08-11T08:10:40Z</time>
      </trkpt>
      <trkpt lat="45.15326" lon="5.95544">
        <ele>2497.4</ele>
        <time>2020-08-11T08:10:41Z</time>
      </trkpt>
      <trkpt lat="45.15328" lon="5.95544">
        <ele>2497.6</ele>
        <time>2020-08-11T08:10:42Z</time>
      </trkpt>
      <trkpt lat="45.15329" lon="5.95545">
        <ele>2497.6</ele>
        <time>2020-08-11T08:10:43Z</time>
      </trkpt>
      <trkpt lat="45.1533" lon="5.95546">
        <ele>2497.8</ele>
        <time>2020-08-11T08:10:44Z</time>
      </trkpt>
      <trkpt lat="45.15331" lon="5.95547">
        <ele>2497.8</ele>
        <time>2020-08-11T08:10:45Z</time>
      </trkpt>
      <trkpt lat="45.15332" lon="5.95547">
        <ele>2498.2</ele>
        <time>2020-08-11T08:10:46Z</time>
      </trkpt>
      <trkpt lat="45.15333" lon="5.95548">
        <ele>2498.4</ele>
        <time>2020-08-11T08:10:47Z</time>
      </trkpt>
      <trkpt lat="45.15334" lon="5.95549">
        <ele>2498.4</ele>
        <time>2020-08-11T08:10:48Z</time>
      </trkpt>
      <trkpt lat="45.15336" lon="5.95549">
        <ele>2498.8</ele>
        <time>2020-08-11T08:10:49Z</time>
      </trkpt>
      <trkpt lat="45.15338" lon="5.9555">
        <ele>2499</ele>
        <time>2020-08-11T08:10:50Z</time>
      </trkpt>
      <trkpt lat="45.1534" lon="5.95551">
        <ele>2499.4</ele>
        <time>2020-08-11T08:10:51Z</time>
      </trkpt>
      <trkpt lat="45.15342" lon="5.95552">
        <ele>2499.6</ele>
        <time>2020-08-11T08:10:52Z</time>
      </trkpt>
      <trkpt lat="45.15344" lon="5.95553">
        <ele>2500</ele>
        <time>2020-08-11T08:10:53Z</time>
      </trkpt>
      <trkpt lat="45.15346" lon="5.95554">
        <ele>2500.4</ele>
        <time>2020-08-11T08:10:54Z</time>
      </trkpt>
      <trkpt lat="45.15349" lon="5.95555">
        <ele>2500.6</ele>
        <time>2020-08-11T08:10:55Z</time>
      </trkpt>
      <trkpt lat="45.15351" lon="5.95556">
        <ele>2501</ele>
        <time>2020-08-11T08:10:56Z</time>
      </trkpt>
      <trkpt lat="45.15353" lon="5.95557">
        <ele>2501</ele>
        <time>2020-08-11T08:10:57Z</time>
      </trkpt>
      <trkpt lat="45.15355" lon="5.95558">
        <ele>2501</ele>
        <time>2020-08-11T08:10:58Z</time>
      </trkpt>
      <trkpt lat="45.1536" lon="5.9556">
        <ele>2501.2</ele>
        <time>2020-08-11T08:10:59Z</time>
      </trkpt>
      <trkpt lat="45.1536" lon="5.95561">
        <ele>2501.4</ele>
        <time>2020-08-11T08:11:00Z</time>
      </trkpt>
      <trkpt lat="45.1536" lon="5.95561">
        <ele>2501.8</ele>
        <time>2020-08-11T08:11:01Z</time>
      </trkpt>
      <trkpt lat="45.15361" lon="5.95562">
        <ele>2502.2</ele>
        <time>2020-08-11T08:11:02Z</time>
      </trkpt>
      <trkpt lat="45.15361" lon="5.95563">
        <ele>2502</ele>
        <time>2020-08-11T08:11:03Z</time>
      </trkpt>
      <trkpt lat="45.15361" lon="5.95564">
        <ele>2502.4</ele>
        <time>2020-08-11T08:11:04Z</time>
      </trkpt>
      <trkpt lat="45.15361" lon="5.95564">
        <ele>2502.6</ele>
        <time>2020-08-11T08:11:05Z</time>
      </trkpt>
      <trkpt lat="45.15361" lon="5.95565">
        <ele>2502.8</ele>
        <time>2020-08-11T08:11:06Z</time>
      </trkpt>
      <trkpt lat="45.15361" lon="5.95566">
        <ele>2503</ele>
        <time>2020-08-11T08:11:07Z</time>
      </trkpt>
      <trkpt lat="45.15362" lon="5.95567">
        <ele>2503.4</ele>
        <time>2020-08-11T08:11:08Z</time>
      </trkpt>
      <trkpt lat="45.15362" lon="5.95568">
        <ele>2503.6</ele>
        <time>2020-08-11T08:11:09Z</time>
      </trkpt>
      <trkpt lat="45.15362" lon="5.95568">
        <ele>2504.2</ele>
        <time>2020-08-11T08:11:10Z</time>
      </trkpt>
      <trkpt lat="45.15362" lon="5.95569">
        <ele>2504.4</ele>
        <time>2020-08-11T08:11:11Z</time>
      </trkpt>
      <trkpt lat="45.15362" lon="5.95569">
        <ele>2504.6</ele>
        <time>2020-08-11T08:11:12Z</time>
      </trkpt>
      <trkpt lat="45.15362" lon="5.95569">
        <ele>2504.8</ele>
        <time>2020-08-11T08:11:13Z</time>
      </trkpt>
      <trkpt lat="45.15362" lon="5.95569">
        <ele>2505</ele>
        <time>2020-08-11T08:11:14Z</time>
      </trkpt>
      <trkpt lat="45.15363" lon="5.95572">
        <ele>2505</ele>
        <time>2020-08-11T08:11:15Z</time>
      </trkpt>
      <trkpt lat="45.15363" lon="5.95572">
        <ele>2505.2</ele>
        <time>2020-08-11T08:11:16Z</time>
      </trkpt>
      <trkpt lat="45.15363" lon="5.95572">
        <ele>2505.4</ele>
        <time>2020-08-11T08:11:17Z</time>
      </trkpt>
      <trkpt lat="45.15363" lon="5.95572">
        <ele>2505.4</ele>
        <time>2020-08-11T08:11:18Z</time>
      </trkpt>
      <trkpt lat="45.15363" lon="5.95572">
        <ele>2505.6</ele>
        <time>2020-08-11T08:11:19Z</time>
      </trkpt>
      <trkpt lat="45.15363" lon="5.95572">
        <ele>2506</ele>
        <time>2020-08-11T08:11:20Z</time>
      </trkpt>
      <trkpt lat="45.15364" lon="5.95574">
        <ele>2506.2</ele>
        <time>2020-08-11T08:11:21Z</time>
      </trkpt>
      <trkpt lat="45.15364" lon="5.95574">
        <ele>2506.6</ele>
        <time>2020-08-11T08:11:22Z</time>
      </trkpt>
      <trkpt lat="45.15364" lon="5.95574">
        <ele>2506.8</ele>
        <time>2020-08-11T08:11:23Z</time>
      </trkpt>
      <trkpt lat="45.15364" lon="5.95574">
        <ele>2507</ele>
        <time>2020-08-11T08:11:24Z</time>
      </trkpt>
      <trkpt lat="45.15364" lon="5.95574">
        <ele>2507.2</ele>
        <time>2020-08-11T08:11:25Z</time>
      </trkpt>
      <trkpt lat="45.15366" lon="5.95575">
        <ele>2507.4</ele>
        <time>2020-08-11T08:11:26Z</time>
      </trkpt>
      <trkpt lat="45.15366" lon="5.95575">
        <ele>2507.8</ele>
        <time>2020-08-11T08:11:27Z</time>
      </trkpt>
      <trkpt lat="45.15368" lon="5.95576">
        <ele>2508</ele>
        <time>2020-08-11T08:11:28Z</time>
      </trkpt>
      <trkpt lat="45.15368" lon="5.95576">
        <ele>2508.4</ele>
        <time>2020-08-11T08:11:29Z</time>
      </trkpt>
      <trkpt lat="45.15368" lon="5.95576">
        <ele>2508.6</ele>
        <time>2020-08-11T08:11:30Z</time>
      </trkpt>
      <trkpt lat="45.1537" lon="5.95578">
        <ele>2508.8</ele>
        <time>2020-08-11T08:11:31Z</time>
      </trkpt>
      <trkpt lat="45.1537" lon="5.95578">
        <ele>2509</ele>
        <time>2020-08-11T08:11:32Z</time>
      </trkpt>
      <trkpt lat="45.1537" lon="5.95578">
        <ele>2509.4</ele>
        <time>2020-08-11T08:11:33Z</time>
      </trkpt>
      <trkpt lat="45.15371" lon="5.95581">
        <ele>2509.4</ele>
        <time>2020-08-11T08:11:34Z</time>
      </trkpt>
      <trkpt lat="45.15371" lon="5.95581">
        <ele>2509.6</ele>
        <time>2020-08-11T08:11:35Z</time>
      </trkpt>
      <trkpt lat="45.15371" lon="5.95581">
        <ele>2509.8</ele>
        <time>2020-08-11T08:11:36Z</time>
      </trkpt>
      <trkpt lat="45.15372" lon="5.95583">
        <ele>2510</ele>
        <time>2020-08-11T08:11:37Z</time>
      </trkpt>
      <trkpt lat="45.15372" lon="5.95583">
        <ele>2510.2</ele>
        <time>2020-08-11T08:11:38Z</time>
      </trkpt>
      <trkpt lat="45.15372" lon="5.95583">
        <ele>2510.2</ele>
        <time>2020-08-11T08:11:39Z</time>
      </trkpt>
      <trkpt lat="45.15373" lon="5.95585">
        <ele>2510.2</ele>
        <time>2020-08-11T08:11:40Z</time>
      </trkpt>
      <trkpt lat="45.15373" lon="5.95585">
        <ele>2510.4</ele>
        <time>2020-08-11T08:11:41Z</time>
      </trkpt>
      <trkpt lat="45.15373" lon="5.95585">
        <ele>2510.6</ele>
        <time>2020-08-11T08:11:42Z</time>
      </trkpt>
      <trkpt lat="45.15373" lon="5.95585">
        <ele>2510.8</ele>
        <time>2020-08-11T08:11:43Z</time>
      </trkpt>
      <trkpt lat="45.15376" lon="5.95586">
        <ele>2511.2</ele>
        <time>2020-08-11T08:11:44Z</time>
      </trkpt>
      <trkpt lat="45.15376" lon="5.95586">
        <ele>2511.2</ele>
        <time>2020-08-11T08:11:45Z</time>
      </trkpt>
      <trkpt lat="45.15376" lon="5.95586">
        <ele>2511.4</ele>
        <time>2020-08-11T08:11:46Z</time>
      </trkpt>
      <trkpt lat="45.15378" lon="5.95588">
        <ele>2511.6</ele>
        <time>2020-08-11T08:11:47Z</time>
      </trkpt>
      <trkpt lat="45.15378" lon="5.95588">
        <ele>2512</ele>
        <time>2020-08-11T08:11:48Z</time>
      </trkpt>
      <trkpt lat="45.15378" lon="5.95588">
        <ele>2512.2</ele>
        <time>2020-08-11T08:11:49Z</time>
      </trkpt>
      <trkpt lat="45.15381" lon="5.9559">
        <ele>2512.4</ele>
        <time>2020-08-11T08:11:50Z</time>
      </trkpt>
      <trkpt lat="45.15381" lon="5.9559">
        <ele>2512.6</ele>
        <time>2020-08-11T08:11:51Z</time>
      </trkpt>
      <trkpt lat="45.15381" lon="5.9559">
        <ele>2512.8</ele>
        <time>2020-08-11T08:11:52Z</time>
      </trkpt>
      <trkpt lat="45.15382" lon="5.95591">
        <ele>2513</ele>
        <time>2020-08-11T08:11:53Z</time>
      </trkpt>
      <trkpt lat="45.15382" lon="5.95591">
        <ele>2512.8</ele>
        <time>2020-08-11T08:11:54Z</time>
      </trkpt>
      <trkpt lat="45.15384" lon="5.95592">
        <ele>2513</ele>
        <time>2020-08-11T08:11:55Z</time>
      </trkpt>
      <trkpt lat="45.15384" lon="5.95592">
        <ele>2513.4</ele>
        <time>2020-08-11T08:11:56Z</time>
      </trkpt>
      <trkpt lat="45.15384" lon="5.95592">
        <ele>2513.4</ele>
        <time>2020-08-11T08:11:57Z</time>
      </trkpt>
      <trkpt lat="45.15384" lon="5.95592">
        <ele>2513.4</ele>
        <time>2020-08-11T08:11:58Z</time>
      </trkpt>
      <trkpt lat="45.15384" lon="5.95592">
        <ele>2513.6</ele>
        <time>2020-08-11T08:11:59Z</time>
      </trkpt>
      <trkpt lat="45.15386" lon="5.95592">
        <ele>2513.8</ele>
        <time>2020-08-11T08:12:00Z</time>
      </trkpt>
      <trkpt lat="45.15386" lon="5.95592">
        <ele>2514</ele>
        <time>2020-08-11T08:12:01Z</time>
      </trkpt>
      <trkpt lat="45.15386" lon="5.95592">
        <ele>2514.2</ele>
        <time>2020-08-11T08:12:02Z</time>
      </trkpt>
      <trkpt lat="45.15388" lon="5.95594">
        <ele>2514.4</ele>
        <time>2020-08-11T08:12:03Z</time>
      </trkpt>
      <trkpt lat="45.15388" lon="5.95594">
        <ele>2514.4</ele>
        <time>2020-08-11T08:12:04Z</time>
      </trkpt>
      <trkpt lat="45.15388" lon="5.95594">
        <ele>2514.4</ele>
        <time>2020-08-11T08:12:05Z</time>
      </trkpt>
      <trkpt lat="45.15388" lon="5.95594">
        <ele>2514.6</ele>
        <time>2020-08-11T08:12:06Z</time>
      </trkpt>
      <trkpt lat="45.1539" lon="5.95596">
        <ele>2514.6</ele>
        <time>2020-08-11T08:12:07Z</time>
      </trkpt>
      <trkpt lat="45.1539" lon="5.95596">
        <ele>2514.8</ele>
        <time>2020-08-11T08:12:08Z</time>
      </trkpt>
      <trkpt lat="45.15392" lon="5.95597">
        <ele>2514.8</ele>
        <time>2020-08-11T08:12:09Z</time>
      </trkpt>
      <trkpt lat="45.15392" lon="5.95597">
        <ele>2515</ele>
        <time>2020-08-11T08:12:10Z</time>
      </trkpt>
      <trkpt lat="45.15394" lon="5.95597">
        <ele>2515</ele>
        <time>2020-08-11T08:12:11Z</time>
      </trkpt>
      <trkpt lat="45.15394" lon="5.95597">
        <ele>2515.2</ele>
        <time>2020-08-11T08:12:12Z</time>
      </trkpt>
      <trkpt lat="45.15395" lon="5.95598">
        <ele>2515.4</ele>
        <time>2020-08-11T08:12:13Z</time>
      </trkpt>
      <trkpt lat="45.15397" lon="5.95598">
        <ele>2515.6</ele>
        <time>2020-08-11T08:12:14Z</time>
      </trkpt>
      <trkpt lat="45.15398" lon="5.95598">
        <ele>2516.2</ele>
        <time>2020-08-11T08:12:15Z</time>
      </trkpt>
      <trkpt lat="45.15399" lon="5.95599">
        <ele>2516.6</ele>
        <time>2020-08-11T08:12:16Z</time>
      </trkpt>
      <trkpt lat="45.15399" lon="5.95599">
        <ele>2517</ele>
        <time>2020-08-11T08:12:17Z</time>
      </trkpt>
      <trkpt lat="45.15401" lon="5.95598">
        <ele>2517</ele>
        <time>2020-08-11T08:12:18Z</time>
      </trkpt>
      <trkpt lat="45.15401" lon="5.95598">
        <ele>2517.2</ele>
        <time>2020-08-11T08:12:19Z</time>
      </trkpt>
      <trkpt lat="45.15401" lon="5.95598">
        <ele>2517.4</ele>
        <time>2020-08-11T08:12:20Z</time>
      </trkpt>
      <trkpt lat="45.15403" lon="5.95599">
        <ele>2517.6</ele>
        <time>2020-08-11T08:12:21Z</time>
      </trkpt>
      <trkpt lat="45.15405" lon="5.95599">
        <ele>2517.8</ele>
        <time>2020-08-11T08:12:22Z</time>
      </trkpt>
      <trkpt lat="45.15405" lon="5.95599">
        <ele>2518</ele>
        <time>2020-08-11T08:12:23Z</time>
      </trkpt>
      <trkpt lat="45.15405" lon="5.95599">
        <ele>2518.4</ele>
        <time>2020-08-11T08:12:24Z</time>
      </trkpt>
      <trkpt lat="45.15407" lon="5.956">
        <ele>2518.8</ele>
        <time>2020-08-11T08:12:25Z</time>
      </trkpt>
      <trkpt lat="45.15407" lon="5.956">
        <ele>2519</ele>
        <time>2020-08-11T08:12:26Z</time>
      </trkpt>
      <trkpt lat="45.15409" lon="5.95601">
        <ele>2518.8</ele>
        <time>2020-08-11T08:12:27Z</time>
      </trkpt>
      <trkpt lat="45.15409" lon="5.95601">
        <ele>2519</ele>
        <time>2020-08-11T08:12:28Z</time>
      </trkpt>
      <trkpt lat="45.15411" lon="5.95603">
        <ele>2519.2</ele>
        <time>2020-08-11T08:12:29Z</time>
      </trkpt>
      <trkpt lat="45.15411" lon="5.95603">
        <ele>2519.4</ele>
        <time>2020-08-11T08:12:30Z</time>
      </trkpt>
      <trkpt lat="45.15414" lon="5.95605">
        <ele>2519.4</ele>
        <time>2020-08-11T08:12:31Z</time>
      </trkpt>
      <trkpt lat="45.15415" lon="5.95606">
        <ele>2519.6</ele>
        <time>2020-08-11T08:12:32Z</time>
      </trkpt>
      <trkpt lat="45.15415" lon="5.95606">
        <ele>2519.6</ele>
        <time>2020-08-11T08:12:33Z</time>
      </trkpt>
      <trkpt lat="45.15417" lon="5.95606">
        <ele>2519.6</ele>
        <time>2020-08-11T08:12:34Z</time>
      </trkpt>
      <trkpt lat="45.15418" lon="5.95606">
        <ele>2519.6</ele>
        <time>2020-08-11T08:12:35Z</time>
      </trkpt>
      <trkpt lat="45.15419" lon="5.95606">
        <ele>2519.8</ele>
        <time>2020-08-11T08:12:36Z</time>
      </trkpt>
      <trkpt lat="45.1542" lon="5.95606">
        <ele>2519.8</ele>
        <time>2020-08-11T08:12:37Z</time>
      </trkpt>
      <trkpt lat="45.1542" lon="5.95606">
        <ele>2520.2</ele>
        <time>2020-08-11T08:12:38Z</time>
      </trkpt>
      <trkpt lat="45.1542" lon="5.95606">
        <ele>2520.4</ele>
        <time>2020-08-11T08:12:39Z</time>
      </trkpt>
      <trkpt lat="45.15422" lon="5.95606">
        <ele>2520.6</ele>
        <time>2020-08-11T08:12:40Z</time>
      </trkpt>
      <trkpt lat="45.15422" lon="5.95606">
        <ele>2520.6</ele>
        <time>2020-08-11T08:12:41Z</time>
      </trkpt>
      <trkpt lat="45.15422" lon="5.95606">
        <ele>2520.6</ele>
        <time>2020-08-11T08:12:42Z</time>
      </trkpt>
      <trkpt lat="45.15425" lon="5.95607">
        <ele>2520.8</ele>
        <time>2020-08-11T08:12:43Z</time>
      </trkpt>
      <trkpt lat="45.15425" lon="5.95607">
        <ele>2520.8</ele>
        <time>2020-08-11T08:12:44Z</time>
      </trkpt>
      <trkpt lat="45.15427" lon="5.95609">
        <ele>2520.8</ele>
        <time>2020-08-11T08:12:45Z</time>
      </trkpt>
      <trkpt lat="45.15427" lon="5.95609">
        <ele>2520.8</ele>
        <time>2020-08-11T08:12:46Z</time>
      </trkpt>
      <trkpt lat="45.1543" lon="5.9561">
        <ele>2520.8</ele>
        <time>2020-08-11T08:12:47Z</time>
      </trkpt>
      <trkpt lat="45.1543" lon="5.9561">
        <ele>2520.8</ele>
        <time>2020-08-11T08:12:48Z</time>
      </trkpt>
      <trkpt lat="45.15433" lon="5.95612">
        <ele>2520.8</ele>
        <time>2020-08-11T08:12:49Z</time>
      </trkpt>
      <trkpt lat="45.15433" lon="5.95612">
        <ele>2521.2</ele>
        <time>2020-08-11T08:12:50Z</time>
      </trkpt>
      <trkpt lat="45.15433" lon="5.95612">
        <ele>2521.4</ele>
        <time>2020-08-11T08:12:51Z</time>
      </trkpt>
      <trkpt lat="45.15436" lon="5.95613">
        <ele>2521.4</ele>
        <time>2020-08-11T08:12:52Z</time>
      </trkpt>
      <trkpt lat="45.15436" lon="5.95613">
        <ele>2521.6</ele>
        <time>2020-08-11T08:12:53Z</time>
      </trkpt>
      <trkpt lat="45.15436" lon="5.95613">
        <ele>2521.8</ele>
        <time>2020-08-11T08:12:54Z</time>
      </trkpt>
      <trkpt lat="45.15436" lon="5.95613">
        <ele>2522</ele>
        <time>2020-08-11T08:12:55Z</time>
      </trkpt>
      <trkpt lat="45.15436" lon="5.95613">
        <ele>2522.2</ele>
        <time>2020-08-11T08:12:56Z</time>
      </trkpt>
      <trkpt lat="45.15436" lon="5.95613">
        <ele>2522.2</ele>
        <time>2020-08-11T08:12:57Z</time>
      </trkpt>
      <trkpt lat="45.15437" lon="5.95617">
        <ele>2522.4</ele>
        <time>2020-08-11T08:12:58Z</time>
      </trkpt>
      <trkpt lat="45.15437" lon="5.95617">
        <ele>2522.4</ele>
        <time>2020-08-11T08:12:59Z</time>
      </trkpt>
      <trkpt lat="45.15437" lon="5.95617">
        <ele>2522.4</ele>
        <time>2020-08-11T08:13:00Z</time>
      </trkpt>
      <trkpt lat="45.15437" lon="5.95617">
        <ele>2522.4</ele>
        <time>2020-08-11T08:13:01Z</time>
      </trkpt>
      <trkpt lat="45.15438" lon="5.9562">
        <ele>2522.4</ele>
        <time>2020-08-11T08:13:02Z</time>
      </trkpt>
      <trkpt lat="45.15438" lon="5.9562">
        <ele>2522.6</ele>
        <time>2020-08-11T08:13:03Z</time>
      </trkpt>
      <trkpt lat="45.15438" lon="5.9562">
        <ele>2522.6</ele>
        <time>2020-08-11T08:13:04Z</time>
      </trkpt>
      <trkpt lat="45.15438" lon="5.9562">
        <ele>2522.8</ele>
        <time>2020-08-11T08:13:05Z</time>
      </trkpt>
      <trkpt lat="45.1544" lon="5.95622">
        <ele>2522.8</ele>
        <time>2020-08-11T08:13:06Z</time>
      </trkpt>
      <trkpt lat="45.1544" lon="5.95622">
        <ele>2522.8</ele>
        <time>2020-08-11T08:13:07Z</time>
      </trkpt>
      <trkpt lat="45.1544" lon="5.95622">
        <ele>2522.8</ele>
        <time>2020-08-11T08:13:08Z</time>
      </trkpt>
      <trkpt lat="45.1544" lon="5.95623">
        <ele>2522.8</ele>
        <time>2020-08-11T08:13:09Z</time>
      </trkpt>
      <trkpt lat="45.15441" lon="5.95624">
        <ele>2523</ele>
        <time>2020-08-11T08:13:10Z</time>
      </trkpt>
      <trkpt lat="45.15441" lon="5.95625">
        <ele>2522.8</ele>
        <time>2020-08-11T08:13:11Z</time>
      </trkpt>
      <trkpt lat="45.15441" lon="5.95627">
        <ele>2522.4</ele>
        <time>2020-08-11T08:13:12Z</time>
      </trkpt>
      <trkpt lat="45.15441" lon="5.95628">
        <ele>2522.4</ele>
        <time>2020-08-11T08:13:13Z</time>
      </trkpt>
      <trkpt lat="45.15442" lon="5.95629">
        <ele>2522.2</ele>
        <time>2020-08-11T08:13:14Z</time>
      </trkpt>
      <trkpt lat="45.15443" lon="5.95632">
        <ele>2522</ele>
        <time>2020-08-11T08:13:15Z</time>
      </trkpt>
      <trkpt lat="45.15446" lon="5.95635">
        <ele>2522</ele>
        <time>2020-08-11T08:13:16Z</time>
      </trkpt>
      <trkpt lat="45.15446" lon="5.95635">
        <ele>2522</ele>
        <time>2020-08-11T08:13:17Z</time>
      </trkpt>
      <trkpt lat="45.15446" lon="5.95635">
        <ele>2521.8</ele>
        <time>2020-08-11T08:13:18Z</time>
      </trkpt>
      <trkpt lat="45.15446" lon="5.95635">
        <ele>2522</ele>
        <time>2020-08-11T08:13:19Z</time>
      </trkpt>
      <trkpt lat="45.15446" lon="5.95635">
        <ele>2522</ele>
        <time>2020-08-11T08:13:20Z</time>
      </trkpt>
      <trkpt lat="45.15449" lon="5.95637">
        <ele>2522.2</ele>
        <time>2020-08-11T08:13:21Z</time>
      </trkpt>
      <trkpt lat="45.15449" lon="5.95637">
        <ele>2522.2</ele>
        <time>2020-08-11T08:13:22Z</time>
      </trkpt>
      <trkpt lat="45.15449" lon="5.95637">
        <ele>2522.4</ele>
        <time>2020-08-11T08:13:23Z</time>
      </trkpt>
      <trkpt lat="45.15449" lon="5.95637">
        <ele>2522.6</ele>
        <time>2020-08-11T08:13:24Z</time>
      </trkpt>
      <trkpt lat="45.15449" lon="5.95637">
        <ele>2523.2</ele>
        <time>2020-08-11T08:13:25Z</time>
      </trkpt>
      <trkpt lat="45.15449" lon="5.95637">
        <ele>2523.4</ele>
        <time>2020-08-11T08:13:26Z</time>
      </trkpt>
      <trkpt lat="45.1545" lon="5.95639">
        <ele>2523.6</ele>
        <time>2020-08-11T08:13:27Z</time>
      </trkpt>
      <trkpt lat="45.1545" lon="5.95639">
        <ele>2524</ele>
        <time>2020-08-11T08:13:28Z</time>
      </trkpt>
      <trkpt lat="45.15452" lon="5.9564">
        <ele>2524.2</ele>
        <time>2020-08-11T08:13:29Z</time>
      </trkpt>
      <trkpt lat="45.15452" lon="5.9564">
        <ele>2524.6</ele>
        <time>2020-08-11T08:13:30Z</time>
      </trkpt>
      <trkpt lat="45.15452" lon="5.9564">
        <ele>2524.6</ele>
        <time>2020-08-11T08:13:31Z</time>
      </trkpt>
      <trkpt lat="45.15452" lon="5.9564">
        <ele>2524.8</ele>
        <time>2020-08-11T08:13:32Z</time>
      </trkpt>
      <trkpt lat="45.15455" lon="5.95641">
        <ele>2525</ele>
        <time>2020-08-11T08:13:33Z</time>
      </trkpt>
      <trkpt lat="45.15455" lon="5.95641">
        <ele>2525.4</ele>
        <time>2020-08-11T08:13:34Z</time>
      </trkpt>
      <trkpt lat="45.15455" lon="5.95641">
        <ele>2525.6</ele>
        <time>2020-08-11T08:13:35Z</time>
      </trkpt>
      <trkpt lat="45.15457" lon="5.95642">
        <ele>2525.8</ele>
        <time>2020-08-11T08:13:36Z</time>
      </trkpt>
      <trkpt lat="45.15458" lon="5.95643">
        <ele>2526</ele>
        <time>2020-08-11T08:13:37Z</time>
      </trkpt>
      <trkpt lat="45.15458" lon="5.95644">
        <ele>2526.2</ele>
        <time>2020-08-11T08:13:38Z</time>
      </trkpt>
      <trkpt lat="45.15459" lon="5.95645">
        <ele>2526.4</ele>
        <time>2020-08-11T08:13:39Z</time>
      </trkpt>
      <trkpt lat="45.1546" lon="5.95646">
        <ele>2526.4</ele>
        <time>2020-08-11T08:13:40Z</time>
      </trkpt>
      <trkpt lat="45.1546" lon="5.95646">
        <ele>2526.8</ele>
        <time>2020-08-11T08:13:41Z</time>
      </trkpt>
      <trkpt lat="45.1546" lon="5.95646">
        <ele>2527</ele>
        <time>2020-08-11T08:13:42Z</time>
      </trkpt>
      <trkpt lat="45.15462" lon="5.95647">
        <ele>2527.2</ele>
        <time>2020-08-11T08:13:43Z</time>
      </trkpt>
      <trkpt lat="45.15462" lon="5.95647">
        <ele>2527.4</ele>
        <time>2020-08-11T08:13:44Z</time>
      </trkpt>
      <trkpt lat="45.15463" lon="5.95648">
        <ele>2527.6</ele>
        <time>2020-08-11T08:13:45Z</time>
      </trkpt>
      <trkpt lat="45.15463" lon="5.95648">
        <ele>2527.6</ele>
        <time>2020-08-11T08:13:46Z</time>
      </trkpt>
      <trkpt lat="45.15464" lon="5.95649">
        <ele>2527.8</ele>
        <time>2020-08-11T08:13:47Z</time>
      </trkpt>
      <trkpt lat="45.15465" lon="5.9565">
        <ele>2527.8</ele>
        <time>2020-08-11T08:13:48Z</time>
      </trkpt>
      <trkpt lat="45.15465" lon="5.95652">
        <ele>2527.8</ele>
        <time>2020-08-11T08:13:49Z</time>
      </trkpt>
      <trkpt lat="45.15466" lon="5.95653">
        <ele>2528</ele>
        <time>2020-08-11T08:13:50Z</time>
      </trkpt>
      <trkpt lat="45.15468" lon="5.95656">
        <ele>2528.2</ele>
        <time>2020-08-11T08:13:51Z</time>
      </trkpt>
      <trkpt lat="45.15468" lon="5.95656">
        <ele>2528.4</ele>
        <time>2020-08-11T08:13:52Z</time>
      </trkpt>
      <trkpt lat="45.15468" lon="5.95657">
        <ele>2528.4</ele>
        <time>2020-08-11T08:13:53Z</time>
      </trkpt>
      <trkpt lat="45.15469" lon="5.95657">
        <ele>2528.4</ele>
        <time>2020-08-11T08:13:54Z</time>
      </trkpt>
      <trkpt lat="45.1547" lon="5.95658">
        <ele>2528.4</ele>
        <time>2020-08-11T08:13:55Z</time>
      </trkpt>
      <trkpt lat="45.15471" lon="5.95659">
        <ele>2528.4</ele>
        <time>2020-08-11T08:13:56Z</time>
      </trkpt>
      <trkpt lat="45.15471" lon="5.9566">
        <ele>2528.2</ele>
        <time>2020-08-11T08:13:57Z</time>
      </trkpt>
      <trkpt lat="45.15472" lon="5.95661">
        <ele>2528.4</ele>
        <time>2020-08-11T08:13:58Z</time>
      </trkpt>
      <trkpt lat="45.15473" lon="5.95662">
        <ele>2528.4</ele>
        <time>2020-08-11T08:13:59Z</time>
      </trkpt>
      <trkpt lat="45.15473" lon="5.95662">
        <ele>2528.6</ele>
        <time>2020-08-11T08:14:00Z</time>
      </trkpt>
      <trkpt lat="45.15473" lon="5.95662">
        <ele>2529</ele>
        <time>2020-08-11T08:14:01Z</time>
      </trkpt>
      <trkpt lat="45.15474" lon="5.95659">
        <ele>2529.4</ele>
        <time>2020-08-11T08:14:02Z</time>
      </trkpt>
      <trkpt lat="45.15474" lon="5.95659">
        <ele>2529.6</ele>
        <time>2020-08-11T08:14:03Z</time>
      </trkpt>
      <trkpt lat="45.15474" lon="5.95659">
        <ele>2529.8</ele>
        <time>2020-08-11T08:14:04Z</time>
      </trkpt>
      <trkpt lat="45.15477" lon="5.95658">
        <ele>2530</ele>
        <time>2020-08-11T08:14:05Z</time>
      </trkpt>
      <trkpt lat="45.15477" lon="5.95658">
        <ele>2530.2</ele>
        <time>2020-08-11T08:14:06Z</time>
      </trkpt>
      <trkpt lat="45.15477" lon="5.95658">
        <ele>2530.4</ele>
        <time>2020-08-11T08:14:07Z</time>
      </trkpt>
      <trkpt lat="45.15477" lon="5.95658">
        <ele>2530.6</ele>
        <time>2020-08-11T08:14:08Z</time>
      </trkpt>
      <trkpt lat="45.15477" lon="5.95658">
        <ele>2530.8</ele>
        <time>2020-08-11T08:14:09Z</time>
      </trkpt>
      <trkpt lat="45.15477" lon="5.95658">
        <ele>2531</ele>
        <time>2020-08-11T08:14:10Z</time>
      </trkpt>
      <trkpt lat="45.1548" lon="5.9566">
        <ele>2531.2</ele>
        <time>2020-08-11T08:14:11Z</time>
      </trkpt>
      <trkpt lat="45.1548" lon="5.9566">
        <ele>2531.6</ele>
        <time>2020-08-11T08:14:12Z</time>
      </trkpt>
      <trkpt lat="45.1548" lon="5.9566">
        <ele>2531.6</ele>
        <time>2020-08-11T08:14:13Z</time>
      </trkpt>
      <trkpt lat="45.1548" lon="5.9566">
        <ele>2531.6</ele>
        <time>2020-08-11T08:14:14Z</time>
      </trkpt>
      <trkpt lat="45.1548" lon="5.9566">
        <ele>2531.8</ele>
        <time>2020-08-11T08:14:15Z</time>
      </trkpt>
      <trkpt lat="45.15483" lon="5.95663">
        <ele>2532</ele>
        <time>2020-08-11T08:14:16Z</time>
      </trkpt>
      <trkpt lat="45.15483" lon="5.95663">
        <ele>2532.2</ele>
        <time>2020-08-11T08:14:17Z</time>
      </trkpt>
      <trkpt lat="45.15484" lon="5.95665">
        <ele>2532.4</ele>
        <time>2020-08-11T08:14:18Z</time>
      </trkpt>
      <trkpt lat="45.15484" lon="5.95665">
        <ele>2532.6</ele>
        <time>2020-08-11T08:14:19Z</time>
      </trkpt>
      <trkpt lat="45.15484" lon="5.95665">
        <ele>2532.8</ele>
        <time>2020-08-11T08:14:20Z</time>
      </trkpt>
      <trkpt lat="45.15484" lon="5.95665">
        <ele>2533</ele>
        <time>2020-08-11T08:14:21Z</time>
      </trkpt>
      <trkpt lat="45.15487" lon="5.95667">
        <ele>2533</ele>
        <time>2020-08-11T08:14:22Z</time>
      </trkpt>
      <trkpt lat="45.15487" lon="5.95667">
        <ele>2533.4</ele>
        <time>2020-08-11T08:14:23Z</time>
      </trkpt>
      <trkpt lat="45.15487" lon="5.95667">
        <ele>2533.6</ele>
        <time>2020-08-11T08:14:24Z</time>
      </trkpt>
      <trkpt lat="45.1549" lon="5.95669">
        <ele>2533.6</ele>
        <time>2020-08-11T08:14:25Z</time>
      </trkpt>
      <trkpt lat="45.1549" lon="5.95669">
        <ele>2533.6</ele>
        <time>2020-08-11T08:14:26Z</time>
      </trkpt>
      <trkpt lat="45.1549" lon="5.95669">
        <ele>2533.8</ele>
        <time>2020-08-11T08:14:27Z</time>
      </trkpt>
      <trkpt lat="45.15492" lon="5.95669">
        <ele>2534</ele>
        <time>2020-08-11T08:14:28Z</time>
      </trkpt>
      <trkpt lat="45.15492" lon="5.95669">
        <ele>2534.2</ele>
        <time>2020-08-11T08:14:29Z</time>
      </trkpt>
      <trkpt lat="45.15492" lon="5.95669">
        <ele>2534.6</ele>
        <time>2020-08-11T08:14:30Z</time>
      </trkpt>
      <trkpt lat="45.15494" lon="5.95671">
        <ele>2535</ele>
        <time>2020-08-11T08:14:31Z</time>
      </trkpt>
      <trkpt lat="45.15496" lon="5.95672">
        <ele>2535.2</ele>
        <time>2020-08-11T08:14:32Z</time>
      </trkpt>
      <trkpt lat="45.15496" lon="5.95672">
        <ele>2535.4</ele>
        <time>2020-08-11T08:14:33Z</time>
      </trkpt>
      <trkpt lat="45.15497" lon="5.95675">
        <ele>2535.4</ele>
        <time>2020-08-11T08:14:34Z</time>
      </trkpt>
      <trkpt lat="45.15497" lon="5.95675">
        <ele>2535.6</ele>
        <time>2020-08-11T08:14:35Z</time>
      </trkpt>
      <trkpt lat="45.15498" lon="5.95678">
        <ele>2535.6</ele>
        <time>2020-08-11T08:14:36Z</time>
      </trkpt>
      <trkpt lat="45.15499" lon="5.95679">
        <ele>2535.6</ele>
        <time>2020-08-11T08:14:37Z</time>
      </trkpt>
      <trkpt lat="45.15499" lon="5.95679">
        <ele>2535.6</ele>
        <time>2020-08-11T08:14:38Z</time>
      </trkpt>
      <trkpt lat="45.155" lon="5.9568">
        <ele>2535.6</ele>
        <time>2020-08-11T08:14:39Z</time>
      </trkpt>
      <trkpt lat="45.15501" lon="5.95681">
        <ele>2535.6</ele>
        <time>2020-08-11T08:14:40Z</time>
      </trkpt>
      <trkpt lat="45.15502" lon="5.95681">
        <ele>2535.8</ele>
        <time>2020-08-11T08:14:41Z</time>
      </trkpt>
      <trkpt lat="45.15502" lon="5.95681">
        <ele>2536</ele>
        <time>2020-08-11T08:14:42Z</time>
      </trkpt>
      <trkpt lat="45.15504" lon="5.95682">
        <ele>2536</ele>
        <time>2020-08-11T08:14:43Z</time>
      </trkpt>
      <trkpt lat="45.15504" lon="5.95682">
        <ele>2536.4</ele>
        <time>2020-08-11T08:14:44Z</time>
      </trkpt>
      <trkpt lat="45.15504" lon="5.95682">
        <ele>2536.4</ele>
        <time>2020-08-11T08:14:45Z</time>
      </trkpt>
      <trkpt lat="45.15506" lon="5.95683">
        <ele>2536.6</ele>
        <time>2020-08-11T08:14:46Z</time>
      </trkpt>
      <trkpt lat="45.15508" lon="5.95685">
        <ele>2536.8</ele>
        <time>2020-08-11T08:14:47Z</time>
      </trkpt>
      <trkpt lat="45.15508" lon="5.95685">
        <ele>2537</ele>
        <time>2020-08-11T08:14:48Z</time>
      </trkpt>
      <trkpt lat="45.15508" lon="5.95685">
        <ele>2537.2</ele>
        <time>2020-08-11T08:14:49Z</time>
      </trkpt>
      <trkpt lat="45.1551" lon="5.95687">
        <ele>2537.4</ele>
        <time>2020-08-11T08:14:50Z</time>
      </trkpt>
      <trkpt lat="45.15512" lon="5.95689">
        <ele>2537.4</ele>
        <time>2020-08-11T08:14:51Z</time>
      </trkpt>
      <trkpt lat="45.15512" lon="5.95689">
        <ele>2537</ele>
        <time>2020-08-11T08:14:52Z</time>
      </trkpt>
      <trkpt lat="45.15512" lon="5.95689">
        <ele>2537.4</ele>
        <time>2020-08-11T08:14:53Z</time>
      </trkpt>
      <trkpt lat="45.15514" lon="5.95691">
        <ele>2537.6</ele>
        <time>2020-08-11T08:14:54Z</time>
      </trkpt>
      <trkpt lat="45.15514" lon="5.95691">
        <ele>2537.8</ele>
        <time>2020-08-11T08:14:55Z</time>
      </trkpt>
      <trkpt lat="45.15516" lon="5.95693">
        <ele>2538</ele>
        <time>2020-08-11T08:14:56Z</time>
      </trkpt>
      <trkpt lat="45.15516" lon="5.95693">
        <ele>2538.2</ele>
        <time>2020-08-11T08:14:57Z</time>
      </trkpt>
      <trkpt lat="45.15516" lon="5.95693">
        <ele>2538.4</ele>
        <time>2020-08-11T08:14:58Z</time>
      </trkpt>
      <trkpt lat="45.15518" lon="5.95696">
        <ele>2538.4</ele>
        <time>2020-08-11T08:14:59Z</time>
      </trkpt>
      <trkpt lat="45.1552" lon="5.95699">
        <ele>2538.4</ele>
        <time>2020-08-11T08:15:00Z</time>
      </trkpt>
      <trkpt lat="45.1552" lon="5.95699">
        <ele>2538.4</ele>
        <time>2020-08-11T08:15:01Z</time>
      </trkpt>
      <trkpt lat="45.1552" lon="5.95699">
        <ele>2538.6</ele>
        <time>2020-08-11T08:15:02Z</time>
      </trkpt>
      <trkpt lat="45.15522" lon="5.95702">
        <ele>2538.6</ele>
        <time>2020-08-11T08:15:03Z</time>
      </trkpt>
      <trkpt lat="45.15522" lon="5.95702">
        <ele>2538.6</ele>
        <time>2020-08-11T08:15:04Z</time>
      </trkpt>
      <trkpt lat="45.15522" lon="5.95702">
        <ele>2538.6</ele>
        <time>2020-08-11T08:15:05Z</time>
      </trkpt>
      <trkpt lat="45.15522" lon="5.95702">
        <ele>2538.6</ele>
        <time>2020-08-11T08:15:06Z</time>
      </trkpt>
      <trkpt lat="45.15522" lon="5.95702">
        <ele>2538.6</ele>
        <time>2020-08-11T08:15:07Z</time>
      </trkpt>
      <trkpt lat="45.15522" lon="5.95702">
        <ele>2538.6</ele>
        <time>2020-08-11T08:15:08Z</time>
      </trkpt>
      <trkpt lat="45.15524" lon="5.95705">
        <ele>2539</ele>
        <time>2020-08-11T08:15:09Z</time>
      </trkpt>
      <trkpt lat="45.15524" lon="5.95705">
        <ele>2539.2</ele>
        <time>2020-08-11T08:15:10Z</time>
      </trkpt>
      <trkpt lat="45.15524" lon="5.95705">
        <ele>2539.4</ele>
        <time>2020-08-11T08:15:11Z</time>
      </trkpt>
      <trkpt lat="45.15527" lon="5.95707">
        <ele>2539.4</ele>
        <time>2020-08-11T08:15:12Z</time>
      </trkpt>
      <trkpt lat="45.15527" lon="5.95707">
        <ele>2539.8</ele>
        <time>2020-08-11T08:15:13Z</time>
      </trkpt>
      <trkpt lat="45.15527" lon="5.95707">
        <ele>2539.8</ele>
        <time>2020-08-11T08:15:14Z</time>
      </trkpt>
      <trkpt lat="45.15527" lon="5.95707">
        <ele>2540</ele>
        <time>2020-08-11T08:15:15Z</time>
      </trkpt>
      <trkpt lat="45.1553" lon="5.95707">
        <ele>2540</ele>
        <time>2020-08-11T08:15:16Z</time>
      </trkpt>
      <trkpt lat="45.1553" lon="5.95707">
        <ele>2540.2</ele>
        <time>2020-08-11T08:15:17Z</time>
      </trkpt>
      <trkpt lat="45.1553" lon="5.95707">
        <ele>2540.6</ele>
        <time>2020-08-11T08:15:18Z</time>
      </trkpt>
      <trkpt lat="45.1553" lon="5.95707">
        <ele>2540.8</ele>
        <time>2020-08-11T08:15:19Z</time>
      </trkpt>
      <trkpt lat="45.1553" lon="5.95707">
        <ele>2541</ele>
        <time>2020-08-11T08:15:20Z</time>
      </trkpt>
      <trkpt lat="45.15533" lon="5.95709">
        <ele>2541.2</ele>
        <time>2020-08-11T08:15:21Z</time>
      </trkpt>
      <trkpt lat="45.15533" lon="5.95709">
        <ele>2541.6</ele>
        <time>2020-08-11T08:15:22Z</time>
      </trkpt>
      <trkpt lat="45.15533" lon="5.95709">
        <ele>2541.8</ele>
        <time>2020-08-11T08:15:23Z</time>
      </trkpt>
      <trkpt lat="45.15535" lon="5.95711">
        <ele>2542</ele>
        <time>2020-08-11T08:15:24Z</time>
      </trkpt>
      <trkpt lat="45.15537" lon="5.95714">
        <ele>2542.2</ele>
        <time>2020-08-11T08:15:25Z</time>
      </trkpt>
      <trkpt lat="45.15537" lon="5.95714">
        <ele>2542.4</ele>
        <time>2020-08-11T08:15:26Z</time>
      </trkpt>
      <trkpt lat="45.15537" lon="5.95714">
        <ele>2542.6</ele>
        <time>2020-08-11T08:15:27Z</time>
      </trkpt>
      <trkpt lat="45.15538" lon="5.95717">
        <ele>2542.8</ele>
        <time>2020-08-11T08:15:28Z</time>
      </trkpt>
      <trkpt lat="45.15538" lon="5.95717">
        <ele>2542.8</ele>
        <time>2020-08-11T08:15:29Z</time>
      </trkpt>
      <trkpt lat="45.15538" lon="5.95718">
        <ele>2543</ele>
        <time>2020-08-11T08:15:30Z</time>
      </trkpt>
      <trkpt lat="45.15539" lon="5.95719">
        <ele>2542.8</ele>
        <time>2020-08-11T08:15:31Z</time>
      </trkpt>
      <trkpt lat="45.15539" lon="5.9572">
        <ele>2542.8</ele>
        <time>2020-08-11T08:15:32Z</time>
      </trkpt>
      <trkpt lat="45.15539" lon="5.95721">
        <ele>2542.8</ele>
        <time>2020-08-11T08:15:33Z</time>
      </trkpt>
      <trkpt lat="45.15539" lon="5.95722">
        <ele>2542.8</ele>
        <time>2020-08-11T08:15:34Z</time>
      </trkpt>
      <trkpt lat="45.15539" lon="5.95723">
        <ele>2542.6</ele>
        <time>2020-08-11T08:15:35Z</time>
      </trkpt>
      <trkpt lat="45.15541" lon="5.95727">
        <ele>2542.4</ele>
        <time>2020-08-11T08:15:36Z</time>
      </trkpt>
      <trkpt lat="45.15542" lon="5.95731">
        <ele>2542.4</ele>
        <time>2020-08-11T08:15:37Z</time>
      </trkpt>
      <trkpt lat="45.15543" lon="5.95735">
        <ele>2542.4</ele>
        <time>2020-08-11T08:15:38Z</time>
      </trkpt>
      <trkpt lat="45.15543" lon="5.95735">
        <ele>2542.6</ele>
        <time>2020-08-11T08:15:39Z</time>
      </trkpt>
      <trkpt lat="45.15543" lon="5.95735">
        <ele>2542.6</ele>
        <time>2020-08-11T08:15:40Z</time>
      </trkpt>
      <trkpt lat="45.15545" lon="5.95737">
        <ele>2542.8</ele>
        <time>2020-08-11T08:15:41Z</time>
      </trkpt>
      <trkpt lat="45.15545" lon="5.95737">
        <ele>2543.2</ele>
        <time>2020-08-11T08:15:42Z</time>
      </trkpt>
      <trkpt lat="45.15545" lon="5.95737">
        <ele>2543.6</ele>
        <time>2020-08-11T08:15:43Z</time>
      </trkpt>
      <trkpt lat="45.15548" lon="5.95739">
        <ele>2543.6</ele>
        <time>2020-08-11T08:15:44Z</time>
      </trkpt>
      <trkpt lat="45.15548" lon="5.95739">
        <ele>2543.8</ele>
        <time>2020-08-11T08:15:45Z</time>
      </trkpt>
      <trkpt lat="45.15548" lon="5.95739">
        <ele>2544.2</ele>
        <time>2020-08-11T08:15:46Z</time>
      </trkpt>
      <trkpt lat="45.1555" lon="5.95741">
        <ele>2544.4</ele>
        <time>2020-08-11T08:15:47Z</time>
      </trkpt>
      <trkpt lat="45.1555" lon="5.95741">
        <ele>2544.4</ele>
        <time>2020-08-11T08:15:48Z</time>
      </trkpt>
      <trkpt lat="45.1555" lon="5.95741">
        <ele>2544.6</ele>
        <time>2020-08-11T08:15:49Z</time>
      </trkpt>
      <trkpt lat="45.15551" lon="5.95743">
        <ele>2545</ele>
        <time>2020-08-11T08:15:50Z</time>
      </trkpt>
      <trkpt lat="45.15552" lon="5.95744">
        <ele>2545.2</ele>
        <time>2020-08-11T08:15:51Z</time>
      </trkpt>
      <trkpt lat="45.15553" lon="5.95744">
        <ele>2545.6</ele>
        <time>2020-08-11T08:15:52Z</time>
      </trkpt>
      <trkpt lat="45.15554" lon="5.95745">
        <ele>2546</ele>
        <time>2020-08-11T08:15:53Z</time>
      </trkpt>
      <trkpt lat="45.15554" lon="5.95746">
        <ele>2546.2</ele>
        <time>2020-08-11T08:15:54Z</time>
      </trkpt>
      <trkpt lat="45.15554" lon="5.95746">
        <ele>2546.6</ele>
        <time>2020-08-11T08:15:55Z</time>
      </trkpt>
      <trkpt lat="45.15556" lon="5.95749">
        <ele>2546.8</ele>
        <time>2020-08-11T08:15:56Z</time>
      </trkpt>
      <trkpt lat="45.15558" lon="5.95751">
        <ele>2547.2</ele>
        <time>2020-08-11T08:15:57Z</time>
      </trkpt>
      <trkpt lat="45.15559" lon="5.95753">
        <ele>2547.2</ele>
        <time>2020-08-11T08:15:58Z</time>
      </trkpt>
      <trkpt lat="45.15559" lon="5.95753">
        <ele>2547.2</ele>
        <time>2020-08-11T08:15:59Z</time>
      </trkpt>
      <trkpt lat="45.15559" lon="5.95753">
        <ele>2547.2</ele>
        <time>2020-08-11T08:16:00Z</time>
      </trkpt>
      <trkpt lat="45.1556" lon="5.95755">
        <ele>2547</ele>
        <time>2020-08-11T08:16:01Z</time>
      </trkpt>
      <trkpt lat="45.1556" lon="5.95755">
        <ele>2547.2</ele>
        <time>2020-08-11T08:16:02Z</time>
      </trkpt>
      <trkpt lat="45.15562" lon="5.95757">
        <ele>2547.4</ele>
        <time>2020-08-11T08:16:03Z</time>
      </trkpt>
      <trkpt lat="45.15562" lon="5.95757">
        <ele>2547.6</ele>
        <time>2020-08-11T08:16:04Z</time>
      </trkpt>
      <trkpt lat="45.15562" lon="5.95757">
        <ele>2547.8</ele>
        <time>2020-08-11T08:16:05Z</time>
      </trkpt>
      <trkpt lat="45.15562" lon="5.95757">
        <ele>2548</ele>
        <time>2020-08-11T08:16:06Z</time>
      </trkpt>
      <trkpt lat="45.15564" lon="5.95759">
        <ele>2548.4</ele>
        <time>2020-08-11T08:16:07Z</time>
      </trkpt>
      <trkpt lat="45.15564" lon="5.95759">
        <ele>2548.4</ele>
        <time>2020-08-11T08:16:08Z</time>
      </trkpt>
      <trkpt lat="45.15564" lon="5.95759">
        <ele>2548.6</ele>
        <time>2020-08-11T08:16:09Z</time>
      </trkpt>
      <trkpt lat="45.15564" lon="5.95759">
        <ele>2548.8</ele>
        <time>2020-08-11T08:16:10Z</time>
      </trkpt>
      <trkpt lat="45.15564" lon="5.95759">
        <ele>2548.8</ele>
        <time>2020-08-11T08:16:11Z</time>
      </trkpt>
      <trkpt lat="45.15565" lon="5.95761">
        <ele>2549</ele>
        <time>2020-08-11T08:16:12Z</time>
      </trkpt>
      <trkpt lat="45.15565" lon="5.95761">
        <ele>2549.2</ele>
        <time>2020-08-11T08:16:13Z</time>
      </trkpt>
      <trkpt lat="45.15565" lon="5.95761">
        <ele>2549.4</ele>
        <time>2020-08-11T08:16:14Z</time>
      </trkpt>
      <trkpt lat="45.15567" lon="5.95763">
        <ele>2549.6</ele>
        <time>2020-08-11T08:16:15Z</time>
      </trkpt>
      <trkpt lat="45.15567" lon="5.95763">
        <ele>2549.8</ele>
        <time>2020-08-11T08:16:16Z</time>
      </trkpt>
      <trkpt lat="45.15569" lon="5.95765">
        <ele>2550</ele>
        <time>2020-08-11T08:16:17Z</time>
      </trkpt>
      <trkpt lat="45.15569" lon="5.95765">
        <ele>2550.2</ele>
        <time>2020-08-11T08:16:18Z</time>
      </trkpt>
      <trkpt lat="45.15569" lon="5.95765">
        <ele>2550.4</ele>
        <time>2020-08-11T08:16:19Z</time>
      </trkpt>
      <trkpt lat="45.15571" lon="5.95767">
        <ele>2550.4</ele>
        <time>2020-08-11T08:16:20Z</time>
      </trkpt>
      <trkpt lat="45.15571" lon="5.95767">
        <ele>2550.4</ele>
        <time>2020-08-11T08:16:21Z</time>
      </trkpt>
      <trkpt lat="45.15571" lon="5.95767">
        <ele>2550.8</ele>
        <time>2020-08-11T08:16:22Z</time>
      </trkpt>
      <trkpt lat="45.15572" lon="5.95769">
        <ele>2551</ele>
        <time>2020-08-11T08:16:23Z</time>
      </trkpt>
      <trkpt lat="45.15572" lon="5.95769">
        <ele>2551.2</ele>
        <time>2020-08-11T08:16:24Z</time>
      </trkpt>
      <trkpt lat="45.15573" lon="5.95772">
        <ele>2551.2</ele>
        <time>2020-08-11T08:16:25Z</time>
      </trkpt>
      <trkpt lat="45.15573" lon="5.95772">
        <ele>2551.4</ele>
        <time>2020-08-11T08:16:26Z</time>
      </trkpt>
      <trkpt lat="45.15574" lon="5.95775">
        <ele>2551.6</ele>
        <time>2020-08-11T08:16:27Z</time>
      </trkpt>
      <trkpt lat="45.15574" lon="5.95775">
        <ele>2551.8</ele>
        <time>2020-08-11T08:16:28Z</time>
      </trkpt>
      <trkpt lat="45.15574" lon="5.95775">
        <ele>2551.8</ele>
        <time>2020-08-11T08:16:29Z</time>
      </trkpt>
      <trkpt lat="45.15575" lon="5.95777">
        <ele>2552</ele>
        <time>2020-08-11T08:16:30Z</time>
      </trkpt>
      <trkpt lat="45.15575" lon="5.95777">
        <ele>2552.4</ele>
        <time>2020-08-11T08:16:31Z</time>
      </trkpt>
      <trkpt lat="45.15575" lon="5.95777">
        <ele>2552.6</ele>
        <time>2020-08-11T08:16:32Z</time>
      </trkpt>
      <trkpt lat="45.15575" lon="5.95777">
        <ele>2552.6</ele>
        <time>2020-08-11T08:16:33Z</time>
      </trkpt>
      <trkpt lat="45.15576" lon="5.9578">
        <ele>2552.8</ele>
        <time>2020-08-11T08:16:34Z</time>
      </trkpt>
      <trkpt lat="45.15576" lon="5.9578">
        <ele>2553.2</ele>
        <time>2020-08-11T08:16:35Z</time>
      </trkpt>
      <trkpt lat="45.15576" lon="5.9578">
        <ele>2553.2</ele>
        <time>2020-08-11T08:16:36Z</time>
      </trkpt>
      <trkpt lat="45.15576" lon="5.9578">
        <ele>2553.4</ele>
        <time>2020-08-11T08:16:37Z</time>
      </trkpt>
      <trkpt lat="45.15577" lon="5.95782">
        <ele>2553.6</ele>
        <time>2020-08-11T08:16:38Z</time>
      </trkpt>
      <trkpt lat="45.15577" lon="5.95782">
        <ele>2553.8</ele>
        <time>2020-08-11T08:16:39Z</time>
      </trkpt>
      <trkpt lat="45.15578" lon="5.95786">
        <ele>2554</ele>
        <time>2020-08-11T08:16:40Z</time>
      </trkpt>
      <trkpt lat="45.15578" lon="5.95786">
        <ele>2554.2</ele>
        <time>2020-08-11T08:16:41Z</time>
      </trkpt>
      <trkpt lat="45.15579" lon="5.95789">
        <ele>2554.6</ele>
        <time>2020-08-11T08:16:42Z</time>
      </trkpt>
      <trkpt lat="45.15579" lon="5.95789">
        <ele>2554.6</ele>
        <time>2020-08-11T08:16:43Z</time>
      </trkpt>
      <trkpt lat="45.15579" lon="5.95789">
        <ele>2554.8</ele>
        <time>2020-08-11T08:16:44Z</time>
      </trkpt>
      <trkpt lat="45.15579" lon="5.95792">
        <ele>2554.8</ele>
        <time>2020-08-11T08:16:45Z</time>
      </trkpt>
      <trkpt lat="45.15579" lon="5.95792">
        <ele>2555</ele>
        <time>2020-08-11T08:16:46Z</time>
      </trkpt>
      <trkpt lat="45.15579" lon="5.95792">
        <ele>2555.2</ele>
        <time>2020-08-11T08:16:47Z</time>
      </trkpt>
      <trkpt lat="45.15579" lon="5.95795">
        <ele>2555.4</ele>
        <time>2020-08-11T08:16:48Z</time>
      </trkpt>
      <trkpt lat="45.1558" lon="5.95798">
        <ele>2555.4</ele>
        <time>2020-08-11T08:16:49Z</time>
      </trkpt>
      <trkpt lat="45.1558" lon="5.95798">
        <ele>2555.4</ele>
        <time>2020-08-11T08:16:50Z</time>
      </trkpt>
      <trkpt lat="45.1558" lon="5.95798">
        <ele>2555.4</ele>
        <time>2020-08-11T08:16:51Z</time>
      </trkpt>
      <trkpt lat="45.1558" lon="5.95802">
        <ele>2555.2</ele>
        <time>2020-08-11T08:16:52Z</time>
      </trkpt>
      <trkpt lat="45.1558" lon="5.95802">
        <ele>2555.2</ele>
        <time>2020-08-11T08:16:53Z</time>
      </trkpt>
      <trkpt lat="45.1558" lon="5.95806">
        <ele>2555</ele>
        <time>2020-08-11T08:16:54Z</time>
      </trkpt>
      <trkpt lat="45.1558" lon="5.9581">
        <ele>2555</ele>
        <time>2020-08-11T08:16:55Z</time>
      </trkpt>
      <trkpt lat="45.1558" lon="5.9581">
        <ele>2555</ele>
        <time>2020-08-11T08:16:56Z</time>
      </trkpt>
      <trkpt lat="45.1558" lon="5.95814">
        <ele>2555.2</ele>
        <time>2020-08-11T08:16:57Z</time>
      </trkpt>
      <trkpt lat="45.1558" lon="5.95814">
        <ele>2555</ele>
        <time>2020-08-11T08:16:58Z</time>
      </trkpt>
      <trkpt lat="45.1558" lon="5.95818">
        <ele>2555</ele>
        <time>2020-08-11T08:16:59Z</time>
      </trkpt>
      <trkpt lat="45.1558" lon="5.95818">
        <ele>2554.8</ele>
        <time>2020-08-11T08:17:00Z</time>
      </trkpt>
      <trkpt lat="45.1558" lon="5.95818">
        <ele>2555</ele>
        <time>2020-08-11T08:17:01Z</time>
      </trkpt>
      <trkpt lat="45.1558" lon="5.95818">
        <ele>2555</ele>
        <time>2020-08-11T08:17:02Z</time>
      </trkpt>
      <trkpt lat="45.1558" lon="5.95818">
        <ele>2555</ele>
        <time>2020-08-11T08:17:03Z</time>
      </trkpt>
      <trkpt lat="45.15581" lon="5.95821">
        <ele>2555.4</ele>
        <time>2020-08-11T08:17:04Z</time>
      </trkpt>
      <trkpt lat="45.15581" lon="5.95824">
        <ele>2555.4</ele>
        <time>2020-08-11T08:17:05Z</time>
      </trkpt>
      <trkpt lat="45.15581" lon="5.95824">
        <ele>2555.6</ele>
        <time>2020-08-11T08:17:06Z</time>
      </trkpt>
      <trkpt lat="45.15581" lon="5.95824">
        <ele>2555.6</ele>
        <time>2020-08-11T08:17:07Z</time>
      </trkpt>
      <trkpt lat="45.15581" lon="5.95827">
        <ele>2555.8</ele>
        <time>2020-08-11T08:17:08Z</time>
      </trkpt>
      <trkpt lat="45.15581" lon="5.95827">
        <ele>2555.8</ele>
        <time>2020-08-11T08:17:09Z</time>
      </trkpt>
      <trkpt lat="45.15582" lon="5.9583">
        <ele>2555.8</ele>
        <time>2020-08-11T08:17:10Z</time>
      </trkpt>
      <trkpt lat="45.15582" lon="5.9583">
        <ele>2555.8</ele>
        <time>2020-08-11T08:17:11Z</time>
      </trkpt>
      <trkpt lat="45.15582" lon="5.9583">
        <ele>2556.2</ele>
        <time>2020-08-11T08:17:12Z</time>
      </trkpt>
      <trkpt lat="45.15582" lon="5.9583">
        <ele>2556.4</ele>
        <time>2020-08-11T08:17:13Z</time>
      </trkpt>
      <trkpt lat="45.15583" lon="5.95833">
        <ele>2556.4</ele>
        <time>2020-08-11T08:17:14Z</time>
      </trkpt>
      <trkpt lat="45.15585" lon="5.95835">
        <ele>2556.4</ele>
        <time>2020-08-11T08:17:15Z</time>
      </trkpt>
      <trkpt lat="45.15585" lon="5.95835">
        <ele>2556.6</ele>
        <time>2020-08-11T08:17:16Z</time>
      </trkpt>
      <trkpt lat="45.15585" lon="5.95835">
        <ele>2557.2</ele>
        <time>2020-08-11T08:17:17Z</time>
      </trkpt>
      <trkpt lat="45.15585" lon="5.95835">
        <ele>2557.4</ele>
        <time>2020-08-11T08:17:18Z</time>
      </trkpt>
      <trkpt lat="45.15587" lon="5.95838">
        <ele>2557.4</ele>
        <time>2020-08-11T08:17:19Z</time>
      </trkpt>
      <trkpt lat="45.15588" lon="5.95841">
        <ele>2557.8</ele>
        <time>2020-08-11T08:17:20Z</time>
      </trkpt>
      <trkpt lat="45.15588" lon="5.95841">
        <ele>2557.8</ele>
        <time>2020-08-11T08:17:21Z</time>
      </trkpt>
      <trkpt lat="45.15589" lon="5.95843">
        <ele>2558.2</ele>
        <time>2020-08-11T08:17:22Z</time>
      </trkpt>
      <trkpt lat="45.15589" lon="5.95843">
        <ele>2558.4</ele>
        <time>2020-08-11T08:17:23Z</time>
      </trkpt>
      <trkpt lat="45.15589" lon="5.95843">
        <ele>2558.6</ele>
        <time>2020-08-11T08:17:24Z</time>
      </trkpt>
      <trkpt lat="45.1559" lon="5.95846">
        <ele>2558.8</ele>
        <time>2020-08-11T08:17:25Z</time>
      </trkpt>
      <trkpt lat="45.1559" lon="5.95846">
        <ele>2559</ele>
        <time>2020-08-11T08:17:26Z</time>
      </trkpt>
      <trkpt lat="45.1559" lon="5.95846">
        <ele>2559.4</ele>
        <time>2020-08-11T08:17:27Z</time>
      </trkpt>
      <trkpt lat="45.15591" lon="5.95849">
        <ele>2559.4</ele>
        <time>2020-08-11T08:17:28Z</time>
      </trkpt>
      <trkpt lat="45.15591" lon="5.95849">
        <ele>2559.4</ele>
        <time>2020-08-11T08:17:29Z</time>
      </trkpt>
      <trkpt lat="45.15592" lon="5.95853">
        <ele>2559.4</ele>
        <time>2020-08-11T08:17:30Z</time>
      </trkpt>
      <trkpt lat="45.15592" lon="5.95853">
        <ele>2559.8</ele>
        <time>2020-08-11T08:17:31Z</time>
      </trkpt>
      <trkpt lat="45.15593" lon="5.95857">
        <ele>2560.2</ele>
        <time>2020-08-11T08:17:32Z</time>
      </trkpt>
      <trkpt lat="45.15593" lon="5.95857">
        <ele>2560.2</ele>
        <time>2020-08-11T08:17:33Z</time>
      </trkpt>
      <trkpt lat="45.15593" lon="5.95857">
        <ele>2560.4</ele>
        <time>2020-08-11T08:17:34Z</time>
      </trkpt>
      <trkpt lat="45.15593" lon="5.95857">
        <ele>2560.6</ele>
        <time>2020-08-11T08:17:35Z</time>
      </trkpt>
      <trkpt lat="45.15593" lon="5.95859">
        <ele>2560.8</ele>
        <time>2020-08-11T08:17:36Z</time>
      </trkpt>
      <trkpt lat="45.15594" lon="5.95862">
        <ele>2560.8</ele>
        <time>2020-08-11T08:17:37Z</time>
      </trkpt>
      <trkpt lat="45.15594" lon="5.95862">
        <ele>2561.2</ele>
        <time>2020-08-11T08:17:38Z</time>
      </trkpt>
      <trkpt lat="45.15594" lon="5.95862">
        <ele>2561.8</ele>
        <time>2020-08-11T08:17:39Z</time>
      </trkpt>
      <trkpt lat="45.15595" lon="5.95866">
        <ele>2561.8</ele>
        <time>2020-08-11T08:17:40Z</time>
      </trkpt>
      <trkpt lat="45.15596" lon="5.95869">
        <ele>2562</ele>
        <time>2020-08-11T08:17:41Z</time>
      </trkpt>
      <trkpt lat="45.15596" lon="5.95869">
        <ele>2561.8</ele>
        <time>2020-08-11T08:17:42Z</time>
      </trkpt>
      <trkpt lat="45.15596" lon="5.95869">
        <ele>2562.4</ele>
        <time>2020-08-11T08:17:43Z</time>
      </trkpt>
      <trkpt lat="45.15598" lon="5.95871">
        <ele>2562.4</ele>
        <time>2020-08-11T08:17:44Z</time>
      </trkpt>
      <trkpt lat="45.15598" lon="5.95871">
        <ele>2562.4</ele>
        <time>2020-08-11T08:17:45Z</time>
      </trkpt>
      <trkpt lat="45.15598" lon="5.95871">
        <ele>2562.4</ele>
        <time>2020-08-11T08:17:46Z</time>
      </trkpt>
      <trkpt lat="45.156" lon="5.95874">
        <ele>2562.4</ele>
        <time>2020-08-11T08:17:47Z</time>
      </trkpt>
      <trkpt lat="45.15601" lon="5.95876">
        <ele>2562.4</ele>
        <time>2020-08-11T08:17:48Z</time>
      </trkpt>
      <trkpt lat="45.15601" lon="5.95876">
        <ele>2562.6</ele>
        <time>2020-08-11T08:17:49Z</time>
      </trkpt>
      <trkpt lat="45.15601" lon="5.95876">
        <ele>2562.8</ele>
        <time>2020-08-11T08:17:50Z</time>
      </trkpt>
      <trkpt lat="45.15601" lon="5.95876">
        <ele>2563</ele>
        <time>2020-08-11T08:17:51Z</time>
      </trkpt>
      <trkpt lat="45.15603" lon="5.95879">
        <ele>2563.2</ele>
        <time>2020-08-11T08:17:52Z</time>
      </trkpt>
      <trkpt lat="45.15604" lon="5.95881">
        <ele>2563.4</ele>
        <time>2020-08-11T08:17:53Z</time>
      </trkpt>
      <trkpt lat="45.15604" lon="5.95881">
        <ele>2563.6</ele>
        <time>2020-08-11T08:17:54Z</time>
      </trkpt>
      <trkpt lat="45.15604" lon="5.95881">
        <ele>2564</ele>
        <time>2020-08-11T08:17:55Z</time>
      </trkpt>
      <trkpt lat="45.15606" lon="5.95883">
        <ele>2564</ele>
        <time>2020-08-11T08:17:56Z</time>
      </trkpt>
      <trkpt lat="45.15606" lon="5.95883">
        <ele>2564</ele>
        <time>2020-08-11T08:17:57Z</time>
      </trkpt>
      <trkpt lat="45.15607" lon="5.95886">
        <ele>2564.2</ele>
        <time>2020-08-11T08:17:58Z</time>
      </trkpt>
      <trkpt lat="45.15607" lon="5.95886">
        <ele>2564.6</ele>
        <time>2020-08-11T08:17:59Z</time>
      </trkpt>
      <trkpt lat="45.15607" lon="5.95886">
        <ele>2564.8</ele>
        <time>2020-08-11T08:18:00Z</time>
      </trkpt>
      <trkpt lat="45.15607" lon="5.95888">
        <ele>2565</ele>
        <time>2020-08-11T08:18:01Z</time>
      </trkpt>
      <trkpt lat="45.15607" lon="5.95888">
        <ele>2565.2</ele>
        <time>2020-08-11T08:18:02Z</time>
      </trkpt>
      <trkpt lat="45.15607" lon="5.95888">
        <ele>2565.4</ele>
        <time>2020-08-11T08:18:03Z</time>
      </trkpt>
      <trkpt lat="45.15607" lon="5.95888">
        <ele>2565.6</ele>
        <time>2020-08-11T08:18:04Z</time>
      </trkpt>
      <trkpt lat="45.15608" lon="5.95891">
        <ele>2565.8</ele>
        <time>2020-08-11T08:18:05Z</time>
      </trkpt>
      <trkpt lat="45.15608" lon="5.95891">
        <ele>2566.2</ele>
        <time>2020-08-11T08:18:06Z</time>
      </trkpt>
      <trkpt lat="45.15608" lon="5.95891">
        <ele>2566.2</ele>
        <time>2020-08-11T08:18:07Z</time>
      </trkpt>
      <trkpt lat="45.15608" lon="5.95891">
        <ele>2566.4</ele>
        <time>2020-08-11T08:18:08Z</time>
      </trkpt>
      <trkpt lat="45.15608" lon="5.95891">
        <ele>2566.8</ele>
        <time>2020-08-11T08:18:09Z</time>
      </trkpt>
      <trkpt lat="45.15609" lon="5.95894">
        <ele>2566.8</ele>
        <time>2020-08-11T08:18:10Z</time>
      </trkpt>
      <trkpt lat="45.15609" lon="5.95894">
        <ele>2567</ele>
        <time>2020-08-11T08:18:11Z</time>
      </trkpt>
      <trkpt lat="45.15609" lon="5.95894">
        <ele>2567.2</ele>
        <time>2020-08-11T08:18:12Z</time>
      </trkpt>
      <trkpt lat="45.15611" lon="5.95896">
        <ele>2567.6</ele>
        <time>2020-08-11T08:18:13Z</time>
      </trkpt>
      <trkpt lat="45.15611" lon="5.95896">
        <ele>2567.6</ele>
        <time>2020-08-11T08:18:14Z</time>
      </trkpt>
      <trkpt lat="45.15611" lon="5.95896">
        <ele>2568.2</ele>
        <time>2020-08-11T08:18:15Z</time>
      </trkpt>
      <trkpt lat="45.15612" lon="5.95899">
        <ele>2568.6</ele>
        <time>2020-08-11T08:18:16Z</time>
      </trkpt>
      <trkpt lat="45.15612" lon="5.95899">
        <ele>2568.6</ele>
        <time>2020-08-11T08:18:17Z</time>
      </trkpt>
      <trkpt lat="45.15612" lon="5.95899">
        <ele>2568.6</ele>
        <time>2020-08-11T08:18:18Z</time>
      </trkpt>
      <trkpt lat="45.15612" lon="5.95899">
        <ele>2568.8</ele>
        <time>2020-08-11T08:18:19Z</time>
      </trkpt>
      <trkpt lat="45.15612" lon="5.95899">
        <ele>2569</ele>
        <time>2020-08-11T08:18:20Z</time>
      </trkpt>
      <trkpt lat="45.15613" lon="5.95902">
        <ele>2569.4</ele>
        <time>2020-08-11T08:18:21Z</time>
      </trkpt>
      <trkpt lat="45.15613" lon="5.95902">
        <ele>2569.6</ele>
        <time>2020-08-11T08:18:22Z</time>
      </trkpt>
      <trkpt lat="45.15613" lon="5.95902">
        <ele>2569.8</ele>
        <time>2020-08-11T08:18:23Z</time>
      </trkpt>
      <trkpt lat="45.15613" lon="5.95902">
        <ele>2570</ele>
        <time>2020-08-11T08:18:24Z</time>
      </trkpt>
      <trkpt lat="45.15614" lon="5.95904">
        <ele>2570</ele>
        <time>2020-08-11T08:18:25Z</time>
      </trkpt>
      <trkpt lat="45.15616" lon="5.95906">
        <ele>2570.4</ele>
        <time>2020-08-11T08:18:26Z</time>
      </trkpt>
      <trkpt lat="45.15616" lon="5.95906">
        <ele>2570.4</ele>
        <time>2020-08-11T08:18:27Z</time>
      </trkpt>
      <trkpt lat="45.15616" lon="5.95906">
        <ele>2570.6</ele>
        <time>2020-08-11T08:18:28Z</time>
      </trkpt>
      <trkpt lat="45.15616" lon="5.95906">
        <ele>2571</ele>
        <time>2020-08-11T08:18:29Z</time>
      </trkpt>
      <trkpt lat="45.15618" lon="5.95908">
        <ele>2571.2</ele>
        <time>2020-08-11T08:18:30Z</time>
      </trkpt>
      <trkpt lat="45.15618" lon="5.95908">
        <ele>2571.4</ele>
        <time>2020-08-11T08:18:31Z</time>
      </trkpt>
      <trkpt lat="45.15618" lon="5.95908">
        <ele>2571.6</ele>
        <time>2020-08-11T08:18:32Z</time>
      </trkpt>
      <trkpt lat="45.1562" lon="5.9591">
        <ele>2571.8</ele>
        <time>2020-08-11T08:18:33Z</time>
      </trkpt>
      <trkpt lat="45.1562" lon="5.9591">
        <ele>2572</ele>
        <time>2020-08-11T08:18:34Z</time>
      </trkpt>
      <trkpt lat="45.15622" lon="5.95913">
        <ele>2572.2</ele>
        <time>2020-08-11T08:18:35Z</time>
      </trkpt>
      <trkpt lat="45.15622" lon="5.95913">
        <ele>2572.4</ele>
        <time>2020-08-11T08:18:36Z</time>
      </trkpt>
      <trkpt lat="45.15623" lon="5.95915">
        <ele>2572.6</ele>
        <time>2020-08-11T08:18:37Z</time>
      </trkpt>
      <trkpt lat="45.15625" lon="5.95917">
        <ele>2573.2</ele>
        <time>2020-08-11T08:18:38Z</time>
      </trkpt>
      <trkpt lat="45.15625" lon="5.95917">
        <ele>2573.2</ele>
        <time>2020-08-11T08:18:39Z</time>
      </trkpt>
      <trkpt lat="45.15625" lon="5.95917">
        <ele>2573.2</ele>
        <time>2020-08-11T08:18:40Z</time>
      </trkpt>
      <trkpt lat="45.15625" lon="5.95917">
        <ele>2573.4</ele>
        <time>2020-08-11T08:18:41Z</time>
      </trkpt>
      <trkpt lat="45.15627" lon="5.9592">
        <ele>2573.4</ele>
        <time>2020-08-11T08:18:42Z</time>
      </trkpt>
      <trkpt lat="45.15627" lon="5.9592">
        <ele>2573.8</ele>
        <time>2020-08-11T08:18:43Z</time>
      </trkpt>
      <trkpt lat="45.15627" lon="5.9592">
        <ele>2574</ele>
        <time>2020-08-11T08:18:44Z</time>
      </trkpt>
      <trkpt lat="45.15627" lon="5.9592">
        <ele>2573.8</ele>
        <time>2020-08-11T08:18:45Z</time>
      </trkpt>
      <trkpt lat="45.15629" lon="5.95923">
        <ele>2574</ele>
        <time>2020-08-11T08:18:46Z</time>
      </trkpt>
      <trkpt lat="45.15629" lon="5.95923">
        <ele>2574.2</ele>
        <time>2020-08-11T08:18:47Z</time>
      </trkpt>
      <trkpt lat="45.15629" lon="5.95923">
        <ele>2574.4</ele>
        <time>2020-08-11T08:18:48Z</time>
      </trkpt>
      <trkpt lat="45.1563" lon="5.95925">
        <ele>2574.8</ele>
        <time>2020-08-11T08:18:49Z</time>
      </trkpt>
      <trkpt lat="45.1563" lon="5.95925">
        <ele>2574.8</ele>
        <time>2020-08-11T08:18:50Z</time>
      </trkpt>
      <trkpt lat="45.1563" lon="5.95925">
        <ele>2575</ele>
        <time>2020-08-11T08:18:51Z</time>
      </trkpt>
      <trkpt lat="45.1563" lon="5.95925">
        <ele>2575</ele>
        <time>2020-08-11T08:18:52Z</time>
      </trkpt>
      <trkpt lat="45.15631" lon="5.95927">
        <ele>2575.2</ele>
        <time>2020-08-11T08:18:53Z</time>
      </trkpt>
      <trkpt lat="45.15631" lon="5.95929">
        <ele>2575.4</ele>
        <time>2020-08-11T08:18:54Z</time>
      </trkpt>
      <trkpt lat="45.15632" lon="5.9593">
        <ele>2575.8</ele>
        <time>2020-08-11T08:18:55Z</time>
      </trkpt>
      <trkpt lat="45.15633" lon="5.95932">
        <ele>2575.8</ele>
        <time>2020-08-11T08:18:56Z</time>
      </trkpt>
      <trkpt lat="45.15633" lon="5.95932">
        <ele>2576</ele>
        <time>2020-08-11T08:18:57Z</time>
      </trkpt>
      <trkpt lat="45.15633" lon="5.95932">
        <ele>2576.4</ele>
        <time>2020-08-11T08:18:58Z</time>
      </trkpt>
      <trkpt lat="45.15633" lon="5.95932">
        <ele>2576.4</ele>
        <time>2020-08-11T08:18:59Z</time>
      </trkpt>
      <trkpt lat="45.15633" lon="5.95935">
        <ele>2576.4</ele>
        <time>2020-08-11T08:19:00Z</time>
      </trkpt>
      <trkpt lat="45.15633" lon="5.95935">
        <ele>2576.8</ele>
        <time>2020-08-11T08:19:01Z</time>
      </trkpt>
      <trkpt lat="45.15633" lon="5.95935">
        <ele>2577</ele>
        <time>2020-08-11T08:19:02Z</time>
      </trkpt>
      <trkpt lat="45.15633" lon="5.95935">
        <ele>2577.2</ele>
        <time>2020-08-11T08:19:03Z</time>
      </trkpt>
      <trkpt lat="45.15635" lon="5.95938">
        <ele>2577.4</ele>
        <time>2020-08-11T08:19:04Z</time>
      </trkpt>
      <trkpt lat="45.15635" lon="5.95938">
        <ele>2577.4</ele>
        <time>2020-08-11T08:19:05Z</time>
      </trkpt>
      <trkpt lat="45.15637" lon="5.9594">
        <ele>2577.8</ele>
        <time>2020-08-11T08:19:06Z</time>
      </trkpt>
      <trkpt lat="45.15637" lon="5.9594">
        <ele>2578</ele>
        <time>2020-08-11T08:19:07Z</time>
      </trkpt>
      <trkpt lat="45.15638" lon="5.95943">
        <ele>2578.2</ele>
        <time>2020-08-11T08:19:08Z</time>
      </trkpt>
      <trkpt lat="45.15639" lon="5.95945">
        <ele>2578.4</ele>
        <time>2020-08-11T08:19:09Z</time>
      </trkpt>
      <trkpt lat="45.15639" lon="5.95945">
        <ele>2578.6</ele>
        <time>2020-08-11T08:19:10Z</time>
      </trkpt>
      <trkpt lat="45.15639" lon="5.95945">
        <ele>2578.6</ele>
        <time>2020-08-11T08:19:11Z</time>
      </trkpt>
      <trkpt lat="45.15639" lon="5.95945">
        <ele>2579</ele>
        <time>2020-08-11T08:19:12Z</time>
      </trkpt>
      <trkpt lat="45.15641" lon="5.95947">
        <ele>2579</ele>
        <time>2020-08-11T08:19:13Z</time>
      </trkpt>
      <trkpt lat="45.15644" lon="5.9595">
        <ele>2578.8</ele>
        <time>2020-08-11T08:19:14Z</time>
      </trkpt>
      <trkpt lat="45.15644" lon="5.9595">
        <ele>2579</ele>
        <time>2020-08-11T08:19:15Z</time>
      </trkpt>
      <trkpt lat="45.15644" lon="5.9595">
        <ele>2579.2</ele>
        <time>2020-08-11T08:19:16Z</time>
      </trkpt>
      <trkpt lat="45.15645" lon="5.95951">
        <ele>2579.2</ele>
        <time>2020-08-11T08:19:17Z</time>
      </trkpt>
      <trkpt lat="45.15646" lon="5.95952">
        <ele>2579.4</ele>
        <time>2020-08-11T08:19:18Z</time>
      </trkpt>
      <trkpt lat="45.15647" lon="5.95953">
        <ele>2579.8</ele>
        <time>2020-08-11T08:19:19Z</time>
      </trkpt>
      <trkpt lat="45.15648" lon="5.95953">
        <ele>2580.2</ele>
        <time>2020-08-11T08:19:20Z</time>
      </trkpt>
      <trkpt lat="45.15648" lon="5.95953">
        <ele>2580.2</ele>
        <time>2020-08-11T08:19:21Z</time>
      </trkpt>
      <trkpt lat="45.15649" lon="5.95955">
        <ele>2580.2</ele>
        <time>2020-08-11T08:19:22Z</time>
      </trkpt>
      <trkpt lat="45.15649" lon="5.95955">
        <ele>2580.4</ele>
        <time>2020-08-11T08:19:23Z</time>
      </trkpt>
      <trkpt lat="45.15649" lon="5.95955">
        <ele>2580.2</ele>
        <time>2020-08-11T08:19:24Z</time>
      </trkpt>
      <trkpt lat="45.15649" lon="5.95955">
        <ele>2580.2</ele>
        <time>2020-08-11T08:19:25Z</time>
      </trkpt>
      <trkpt lat="45.15651" lon="5.95959">
        <ele>2580.2</ele>
        <time>2020-08-11T08:19:26Z</time>
      </trkpt>
      <trkpt lat="45.15652" lon="5.95962">
        <ele>2580.2</ele>
        <time>2020-08-11T08:19:27Z</time>
      </trkpt>
      <trkpt lat="45.15652" lon="5.95962">
        <ele>2580.6</ele>
        <time>2020-08-11T08:19:28Z</time>
      </trkpt>
      <trkpt lat="45.15652" lon="5.95962">
        <ele>2580.6</ele>
        <time>2020-08-11T08:19:29Z</time>
      </trkpt>
      <trkpt lat="45.15654" lon="5.95965">
        <ele>2580.6</ele>
        <time>2020-08-11T08:19:30Z</time>
      </trkpt>
      <trkpt lat="45.15656" lon="5.95967">
        <ele>2580.6</ele>
        <time>2020-08-11T08:19:31Z</time>
      </trkpt>
      <trkpt lat="45.15658" lon="5.95969">
        <ele>2580.6</ele>
        <time>2020-08-11T08:19:32Z</time>
      </trkpt>
      <trkpt lat="45.1566" lon="5.95971">
        <ele>2580.8</ele>
        <time>2020-08-11T08:19:33Z</time>
      </trkpt>
      <trkpt lat="45.15661" lon="5.95972">
        <ele>2580.8</ele>
        <time>2020-08-11T08:19:34Z</time>
      </trkpt>
      <trkpt lat="45.15663" lon="5.95973">
        <ele>2580.8</ele>
        <time>2020-08-11T08:19:35Z</time>
      </trkpt>
      <trkpt lat="45.15665" lon="5.95975">
        <ele>2581.2</ele>
        <time>2020-08-11T08:19:36Z</time>
      </trkpt>
      <trkpt lat="45.15665" lon="5.95975">
        <ele>2581.2</ele>
        <time>2020-08-11T08:19:37Z</time>
      </trkpt>
      <trkpt lat="45.15665" lon="5.95975">
        <ele>2581.4</ele>
        <time>2020-08-11T08:19:38Z</time>
      </trkpt>
      <trkpt lat="45.15667" lon="5.95975">
        <ele>2581.8</ele>
        <time>2020-08-11T08:19:39Z</time>
      </trkpt>
      <trkpt lat="45.15667" lon="5.95975">
        <ele>2581.8</ele>
        <time>2020-08-11T08:19:40Z</time>
      </trkpt>
      <trkpt lat="45.15667" lon="5.95975">
        <ele>2582.2</ele>
        <time>2020-08-11T08:19:41Z</time>
      </trkpt>
      <trkpt lat="45.1567" lon="5.95976">
        <ele>2582.4</ele>
        <time>2020-08-11T08:19:42Z</time>
      </trkpt>
      <trkpt lat="45.1567" lon="5.95976">
        <ele>2582.6</ele>
        <time>2020-08-11T08:19:43Z</time>
      </trkpt>
      <trkpt lat="45.1567" lon="5.95976">
        <ele>2582.8</ele>
        <time>2020-08-11T08:19:44Z</time>
      </trkpt>
      <trkpt lat="45.15672" lon="5.95977">
        <ele>2583</ele>
        <time>2020-08-11T08:19:45Z</time>
      </trkpt>
      <trkpt lat="45.15672" lon="5.95977">
        <ele>2583.4</ele>
        <time>2020-08-11T08:19:46Z</time>
      </trkpt>
      <trkpt lat="45.15674" lon="5.95978">
        <ele>2583.6</ele>
        <time>2020-08-11T08:19:47Z</time>
      </trkpt>
      <trkpt lat="45.15674" lon="5.95978">
        <ele>2583.6</ele>
        <time>2020-08-11T08:19:48Z</time>
      </trkpt>
      <trkpt lat="45.15677" lon="5.95979">
        <ele>2584.2</ele>
        <time>2020-08-11T08:19:49Z</time>
      </trkpt>
      <trkpt lat="45.15677" lon="5.95979">
        <ele>2584.4</ele>
        <time>2020-08-11T08:19:50Z</time>
      </trkpt>
      <trkpt lat="45.15678" lon="5.95979">
        <ele>2584.6</ele>
        <time>2020-08-11T08:19:51Z</time>
      </trkpt>
      <trkpt lat="45.15679" lon="5.95979">
        <ele>2584.8</ele>
        <time>2020-08-11T08:19:52Z</time>
      </trkpt>
      <trkpt lat="45.15679" lon="5.95979">
        <ele>2585</ele>
        <time>2020-08-11T08:19:53Z</time>
      </trkpt>
      <trkpt lat="45.1568" lon="5.95979">
        <ele>2585.2</ele>
        <time>2020-08-11T08:19:54Z</time>
      </trkpt>
      <trkpt lat="45.15681" lon="5.95979">
        <ele>2585.6</ele>
        <time>2020-08-11T08:19:55Z</time>
      </trkpt>
      <trkpt lat="45.15681" lon="5.95979">
        <ele>2585.8</ele>
        <time>2020-08-11T08:19:56Z</time>
      </trkpt>
      <trkpt lat="45.15683" lon="5.95981">
        <ele>2585.8</ele>
        <time>2020-08-11T08:19:57Z</time>
      </trkpt>
      <trkpt lat="45.15683" lon="5.95981">
        <ele>2586.2</ele>
        <time>2020-08-11T08:19:58Z</time>
      </trkpt>
      <trkpt lat="45.15685" lon="5.95983">
        <ele>2586.2</ele>
        <time>2020-08-11T08:19:59Z</time>
      </trkpt>
      <trkpt lat="45.15685" lon="5.95983">
        <ele>2586.8</ele>
        <time>2020-08-11T08:20:01Z</time>
      </trkpt>
      <trkpt lat="45.15685" lon="5.95983">
        <ele>2586.8</ele>
        <time>2020-08-11T08:20:02Z</time>
      </trkpt>
      <trkpt lat="45.15687" lon="5.95984">
        <ele>2587.2</ele>
        <time>2020-08-11T08:20:03Z</time>
      </trkpt>
      <trkpt lat="45.15687" lon="5.95984">
        <ele>2587.4</ele>
        <time>2020-08-11T08:20:04Z</time>
      </trkpt>
      <trkpt lat="45.15688" lon="5.95984">
        <ele>2587.8</ele>
        <time>2020-08-11T08:20:05Z</time>
      </trkpt>
      <trkpt lat="45.15689" lon="5.95984">
        <ele>2588</ele>
        <time>2020-08-11T08:20:06Z</time>
      </trkpt>
      <trkpt lat="45.15689" lon="5.95985">
        <ele>2588</ele>
        <time>2020-08-11T08:20:07Z</time>
      </trkpt>
      <trkpt lat="45.1569" lon="5.95985">
        <ele>2588.4</ele>
        <time>2020-08-11T08:20:08Z</time>
      </trkpt>
      <trkpt lat="45.15691" lon="5.95985">
        <ele>2588.6</ele>
        <time>2020-08-11T08:20:09Z</time>
      </trkpt>
      <trkpt lat="45.15691" lon="5.95985">
        <ele>2588.8</ele>
        <time>2020-08-11T08:20:10Z</time>
      </trkpt>
      <trkpt lat="45.15694" lon="5.95987">
        <ele>2589.2</ele>
        <time>2020-08-11T08:20:11Z</time>
      </trkpt>
      <trkpt lat="45.15694" lon="5.95987">
        <ele>2589.4</ele>
        <time>2020-08-11T08:20:12Z</time>
      </trkpt>
      <trkpt lat="45.15694" lon="5.95987">
        <ele>2589.8</ele>
        <time>2020-08-11T08:20:13Z</time>
      </trkpt>
      <trkpt lat="45.15695" lon="5.95988">
        <ele>2590</ele>
        <time>2020-08-11T08:20:14Z</time>
      </trkpt>
      <trkpt lat="45.15695" lon="5.95988">
        <ele>2590.4</ele>
        <time>2020-08-11T08:20:15Z</time>
      </trkpt>
      <trkpt lat="45.15696" lon="5.95988">
        <ele>2590.6</ele>
        <time>2020-08-11T08:20:16Z</time>
      </trkpt>
      <trkpt lat="45.15697" lon="5.95989">
        <ele>2590.8</ele>
        <time>2020-08-11T08:20:17Z</time>
      </trkpt>
      <trkpt lat="45.15697" lon="5.95989">
        <ele>2590.8</ele>
        <time>2020-08-11T08:20:18Z</time>
      </trkpt>
      <trkpt lat="45.15698" lon="5.9599">
        <ele>2591</ele>
        <time>2020-08-11T08:20:19Z</time>
      </trkpt>
      <trkpt lat="45.15699" lon="5.95991">
        <ele>2591.2</ele>
        <time>2020-08-11T08:20:20Z</time>
      </trkpt>
      <trkpt lat="45.157" lon="5.95991">
        <ele>2591.6</ele>
        <time>2020-08-11T08:20:21Z</time>
      </trkpt>
      <trkpt lat="45.157" lon="5.95992">
        <ele>2591.8</ele>
        <time>2020-08-11T08:20:22Z</time>
      </trkpt>
      <trkpt lat="45.15701" lon="5.95993">
        <ele>2592</ele>
        <time>2020-08-11T08:20:23Z</time>
      </trkpt>
      <trkpt lat="45.15702" lon="5.95993">
        <ele>2592.2</ele>
        <time>2020-08-11T08:20:24Z</time>
      </trkpt>
      <trkpt lat="45.15702" lon="5.95994">
        <ele>2592.4</ele>
        <time>2020-08-11T08:20:25Z</time>
      </trkpt>
      <trkpt lat="45.15703" lon="5.95994">
        <ele>2592.6</ele>
        <time>2020-08-11T08:20:26Z</time>
      </trkpt>
      <trkpt lat="45.15704" lon="5.95995">
        <ele>2593</ele>
        <time>2020-08-11T08:20:27Z</time>
      </trkpt>
      <trkpt lat="45.15705" lon="5.95995">
        <ele>2593.2</ele>
        <time>2020-08-11T08:20:28Z</time>
      </trkpt>
      <trkpt lat="45.15706" lon="5.95994">
        <ele>2593.2</ele>
        <time>2020-08-11T08:20:29Z</time>
      </trkpt>
      <trkpt lat="45.15708" lon="5.95994">
        <ele>2593.4</ele>
        <time>2020-08-11T08:20:30Z</time>
      </trkpt>
      <trkpt lat="45.15709" lon="5.95994">
        <ele>2593.4</ele>
        <time>2020-08-11T08:20:31Z</time>
      </trkpt>
      <trkpt lat="45.1571" lon="5.95993">
        <ele>2593.8</ele>
        <time>2020-08-11T08:20:32Z</time>
      </trkpt>
      <trkpt lat="45.15712" lon="5.95993">
        <ele>2593.8</ele>
        <time>2020-08-11T08:20:33Z</time>
      </trkpt>
      <trkpt lat="45.15713" lon="5.95993">
        <ele>2594</ele>
        <time>2020-08-11T08:20:34Z</time>
      </trkpt>
      <trkpt lat="45.15713" lon="5.95993">
        <ele>2594.2</ele>
        <time>2020-08-11T08:20:35Z</time>
      </trkpt>
      <trkpt lat="45.15714" lon="5.95994">
        <ele>2594.4</ele>
        <time>2020-08-11T08:20:36Z</time>
      </trkpt>
      <trkpt lat="45.15714" lon="5.95995">
        <ele>2594.6</ele>
        <time>2020-08-11T08:20:37Z</time>
      </trkpt>
      <trkpt lat="45.15714" lon="5.95996">
        <ele>2594.8</ele>
        <time>2020-08-11T08:20:38Z</time>
      </trkpt>
      <trkpt lat="45.15715" lon="5.95997">
        <ele>2594.8</ele>
        <time>2020-08-11T08:20:39Z</time>
      </trkpt>
      <trkpt lat="45.15715" lon="5.95998">
        <ele>2595.2</ele>
        <time>2020-08-11T08:20:40Z</time>
      </trkpt>
      <trkpt lat="45.15716" lon="5.95999">
        <ele>2595.4</ele>
        <time>2020-08-11T08:20:41Z</time>
      </trkpt>
      <trkpt lat="45.15716" lon="5.95999">
        <ele>2595.8</ele>
        <time>2020-08-11T08:20:42Z</time>
      </trkpt>
      <trkpt lat="45.15717" lon="5.96">
        <ele>2596</ele>
        <time>2020-08-11T08:20:43Z</time>
      </trkpt>
      <trkpt lat="45.15717" lon="5.96001">
        <ele>2596.4</ele>
        <time>2020-08-11T08:20:44Z</time>
      </trkpt>
      <trkpt lat="45.15717" lon="5.96002">
        <ele>2596.4</ele>
        <time>2020-08-11T08:20:45Z</time>
      </trkpt>
      <trkpt lat="45.15718" lon="5.96003">
        <ele>2596.4</ele>
        <time>2020-08-11T08:20:46Z</time>
      </trkpt>
      <trkpt lat="45.15718" lon="5.96004">
        <ele>2597.4</ele>
        <time>2020-08-11T08:20:47Z</time>
      </trkpt>
      <trkpt lat="45.15719" lon="5.96004">
        <ele>2597.6</ele>
        <time>2020-08-11T08:20:48Z</time>
      </trkpt>
      <trkpt lat="45.1572" lon="5.96004">
        <ele>2598</ele>
        <time>2020-08-11T08:20:49Z</time>
      </trkpt>
      <trkpt lat="45.15721" lon="5.96005">
        <ele>2598.2</ele>
        <time>2020-08-11T08:20:50Z</time>
      </trkpt>
      <trkpt lat="45.15722" lon="5.96005">
        <ele>2598.4</ele>
        <time>2020-08-11T08:20:51Z</time>
      </trkpt>
      <trkpt lat="45.15723" lon="5.96006">
        <ele>2598.6</ele>
        <time>2020-08-11T08:20:52Z</time>
      </trkpt>
      <trkpt lat="45.15723" lon="5.96006">
        <ele>2598.8</ele>
        <time>2020-08-11T08:20:53Z</time>
      </trkpt>
      <trkpt lat="45.15724" lon="5.96006">
        <ele>2599</ele>
        <time>2020-08-11T08:20:54Z</time>
      </trkpt>
      <trkpt lat="45.15725" lon="5.96007">
        <ele>2599.4</ele>
        <time>2020-08-11T08:20:55Z</time>
      </trkpt>
      <trkpt lat="45.15726" lon="5.96007">
        <ele>2599.4</ele>
        <time>2020-08-11T08:20:56Z</time>
      </trkpt>
      <trkpt lat="45.15727" lon="5.96008">
        <ele>2599.8</ele>
        <time>2020-08-11T08:20:57Z</time>
      </trkpt>
      <trkpt lat="45.15728" lon="5.96008">
        <ele>2599.8</ele>
        <time>2020-08-11T08:20:58Z</time>
      </trkpt>
      <trkpt lat="45.15729" lon="5.96009">
        <ele>2600</ele>
        <time>2020-08-11T08:20:59Z</time>
      </trkpt>
      <trkpt lat="45.1573" lon="5.9601">
        <ele>2600.2</ele>
        <time>2020-08-11T08:21:00Z</time>
      </trkpt>
      <trkpt lat="45.15731" lon="5.96011">
        <ele>2600.4</ele>
        <time>2020-08-11T08:21:01Z</time>
      </trkpt>
      <trkpt lat="45.15732" lon="5.96011">
        <ele>2600.6</ele>
        <time>2020-08-11T08:21:02Z</time>
      </trkpt>
      <trkpt lat="45.15733" lon="5.96012">
        <ele>2600.8</ele>
        <time>2020-08-11T08:21:03Z</time>
      </trkpt>
      <trkpt lat="45.15734" lon="5.96013">
        <ele>2600.8</ele>
        <time>2020-08-11T08:21:04Z</time>
      </trkpt>
      <trkpt lat="45.15735" lon="5.96014">
        <ele>2600.6</ele>
        <time>2020-08-11T08:21:05Z</time>
      </trkpt>
      <trkpt lat="45.15736" lon="5.96014">
        <ele>2600.8</ele>
        <time>2020-08-11T08:21:06Z</time>
      </trkpt>
      <trkpt lat="45.15736" lon="5.96015">
        <ele>2600.8</ele>
        <time>2020-08-11T08:21:07Z</time>
      </trkpt>
      <trkpt lat="45.15737" lon="5.96016">
        <ele>2601.2</ele>
        <time>2020-08-11T08:21:08Z</time>
      </trkpt>
      <trkpt lat="45.15737" lon="5.96015">
        <ele>2601.2</ele>
        <time>2020-08-11T08:21:09Z</time>
      </trkpt>
      <trkpt lat="45.15737" lon="5.96014">
        <ele>2601.4</ele>
        <time>2020-08-11T08:21:10Z</time>
      </trkpt>
      <trkpt lat="45.15737" lon="5.96013">
        <ele>2601.6</ele>
        <time>2020-08-11T08:21:11Z</time>
      </trkpt>
      <trkpt lat="45.15736" lon="5.96012">
        <ele>2601.6</ele>
        <time>2020-08-11T08:21:12Z</time>
      </trkpt>
      <trkpt lat="45.15736" lon="5.96012">
        <ele>2601.8</ele>
        <time>2020-08-11T08:21:13Z</time>
      </trkpt>
      <trkpt lat="45.15736" lon="5.96011">
        <ele>2602.2</ele>
        <time>2020-08-11T08:21:14Z</time>
      </trkpt>
      <trkpt lat="45.15735" lon="5.9601">
        <ele>2602</ele>
        <time>2020-08-11T08:21:15Z</time>
      </trkpt>
      <trkpt lat="45.15735" lon="5.96009">
        <ele>2602.2</ele>
        <time>2020-08-11T08:21:16Z</time>
      </trkpt>
      <trkpt lat="45.15735" lon="5.96008">
        <ele>2602.4</ele>
        <time>2020-08-11T08:21:17Z</time>
      </trkpt>
      <trkpt lat="45.15734" lon="5.96007">
        <ele>2602.6</ele>
        <time>2020-08-11T08:21:18Z</time>
      </trkpt>
      <trkpt lat="45.15734" lon="5.96006">
        <ele>2602.8</ele>
        <time>2020-08-11T08:21:19Z</time>
      </trkpt>
      <trkpt lat="45.15734" lon="5.96006">
        <ele>2603</ele>
        <time>2020-08-11T08:21:20Z</time>
      </trkpt>
      <trkpt lat="45.15734" lon="5.96005">
        <ele>2602.8</ele>
        <time>2020-08-11T08:21:21Z</time>
      </trkpt>
      <trkpt lat="45.15733" lon="5.96004">
        <ele>2603.2</ele>
        <time>2020-08-11T08:21:22Z</time>
      </trkpt>
      <trkpt lat="45.15733" lon="5.96003">
        <ele>2603.4</ele>
        <time>2020-08-11T08:21:23Z</time>
      </trkpt>
      <trkpt lat="45.15733" lon="5.96002">
        <ele>2603.6</ele>
        <time>2020-08-11T08:21:24Z</time>
      </trkpt>
      <trkpt lat="45.15733" lon="5.96002">
        <ele>2604</ele>
        <time>2020-08-11T08:21:25Z</time>
      </trkpt>
      <trkpt lat="45.15733" lon="5.95999">
        <ele>2604.2</ele>
        <time>2020-08-11T08:21:26Z</time>
      </trkpt>
      <trkpt lat="45.15733" lon="5.95999">
        <ele>2604.4</ele>
        <time>2020-08-11T08:21:27Z</time>
      </trkpt>
      <trkpt lat="45.15734" lon="5.95997">
        <ele>2604.4</ele>
        <time>2020-08-11T08:21:28Z</time>
      </trkpt>
      <trkpt lat="45.15734" lon="5.95997">
        <ele>2605</ele>
        <time>2020-08-11T08:21:29Z</time>
      </trkpt>
      <trkpt lat="45.15734" lon="5.95997">
        <ele>2605.2</ele>
        <time>2020-08-11T08:21:30Z</time>
      </trkpt>
      <trkpt lat="45.15736" lon="5.95994">
        <ele>2605.2</ele>
        <time>2020-08-11T08:21:31Z</time>
      </trkpt>
      <trkpt lat="45.15736" lon="5.95994">
        <ele>2605.4</ele>
        <time>2020-08-11T08:21:32Z</time>
      </trkpt>
      <trkpt lat="45.15737" lon="5.95992">
        <ele>2606</ele>
        <time>2020-08-11T08:21:33Z</time>
      </trkpt>
      <trkpt lat="45.15737" lon="5.95992">
        <ele>2606.2</ele>
        <time>2020-08-11T08:21:34Z</time>
      </trkpt>
      <trkpt lat="45.15737" lon="5.95989">
        <ele>2606.2</ele>
        <time>2020-08-11T08:21:35Z</time>
      </trkpt>
      <trkpt lat="45.15737" lon="5.95989">
        <ele>2606.4</ele>
        <time>2020-08-11T08:21:36Z</time>
      </trkpt>
      <trkpt lat="45.15737" lon="5.95989">
        <ele>2606.6</ele>
        <time>2020-08-11T08:21:37Z</time>
      </trkpt>
      <trkpt lat="45.15738" lon="5.95985">
        <ele>2607</ele>
        <time>2020-08-11T08:21:38Z</time>
      </trkpt>
      <trkpt lat="45.15738" lon="5.95985">
        <ele>2606.8</ele>
        <time>2020-08-11T08:21:39Z</time>
      </trkpt>
      <trkpt lat="45.15739" lon="5.95983">
        <ele>2607</ele>
        <time>2020-08-11T08:21:40Z</time>
      </trkpt>
      <trkpt lat="45.15739" lon="5.95983">
        <ele>2607.4</ele>
        <time>2020-08-11T08:21:41Z</time>
      </trkpt>
      <trkpt lat="45.15739" lon="5.95983">
        <ele>2607.6</ele>
        <time>2020-08-11T08:21:42Z</time>
      </trkpt>
      <trkpt lat="45.15739" lon="5.95983">
        <ele>2608.2</ele>
        <time>2020-08-11T08:21:43Z</time>
      </trkpt>
      <trkpt lat="45.1574" lon="5.9598">
        <ele>2608.4</ele>
        <time>2020-08-11T08:21:44Z</time>
      </trkpt>
      <trkpt lat="45.1574" lon="5.9598">
        <ele>2608.4</ele>
        <time>2020-08-11T08:21:45Z</time>
      </trkpt>
      <trkpt lat="45.1574" lon="5.9598">
        <ele>2609</ele>
        <time>2020-08-11T08:21:46Z</time>
      </trkpt>
      <trkpt lat="45.1574" lon="5.9598">
        <ele>2609.4</ele>
        <time>2020-08-11T08:21:47Z</time>
      </trkpt>
      <trkpt lat="45.15741" lon="5.95977">
        <ele>2609.6</ele>
        <time>2020-08-11T08:21:48Z</time>
      </trkpt>
      <trkpt lat="45.15741" lon="5.95977">
        <ele>2609.6</ele>
        <time>2020-08-11T08:21:49Z</time>
      </trkpt>
      <trkpt lat="45.15741" lon="5.95976">
        <ele>2609.6</ele>
        <time>2020-08-11T08:21:50Z</time>
      </trkpt>
      <trkpt lat="45.15741" lon="5.95975">
        <ele>2610</ele>
        <time>2020-08-11T08:21:51Z</time>
      </trkpt>
      <trkpt lat="45.15741" lon="5.95974">
        <ele>2610.2</ele>
        <time>2020-08-11T08:21:52Z</time>
      </trkpt>
      <trkpt lat="45.15741" lon="5.95973">
        <ele>2610.4</ele>
        <time>2020-08-11T08:21:53Z</time>
      </trkpt>
      <trkpt lat="45.15742" lon="5.95972">
        <ele>2610.6</ele>
        <time>2020-08-11T08:21:54Z</time>
      </trkpt>
      <trkpt lat="45.15742" lon="5.95971">
        <ele>2610.8</ele>
        <time>2020-08-11T08:21:55Z</time>
      </trkpt>
      <trkpt lat="45.15742" lon="5.9597">
        <ele>2611</ele>
        <time>2020-08-11T08:21:56Z</time>
      </trkpt>
      <trkpt lat="45.15742" lon="5.95969">
        <ele>2611.2</ele>
        <time>2020-08-11T08:21:57Z</time>
      </trkpt>
      <trkpt lat="45.15742" lon="5.95968">
        <ele>2611.6</ele>
        <time>2020-08-11T08:21:58Z</time>
      </trkpt>
      <trkpt lat="45.15742" lon="5.95967">
        <ele>2612</ele>
        <time>2020-08-11T08:21:59Z</time>
      </trkpt>
      <trkpt lat="45.15742" lon="5.95966">
        <ele>2612</ele>
        <time>2020-08-11T08:22:00Z</time>
      </trkpt>
      <trkpt lat="45.15742" lon="5.95965">
        <ele>2612.2</ele>
        <time>2020-08-11T08:22:01Z</time>
      </trkpt>
      <trkpt lat="45.15742" lon="5.95964">
        <ele>2612.6</ele>
        <time>2020-08-11T08:22:02Z</time>
      </trkpt>
      <trkpt lat="45.15743" lon="5.95963">
        <ele>2612.6</ele>
        <time>2020-08-11T08:22:03Z</time>
      </trkpt>
      <trkpt lat="45.15744" lon="5.95961">
        <ele>2613</ele>
        <time>2020-08-11T08:22:04Z</time>
      </trkpt>
      <trkpt lat="45.15744" lon="5.9596">
        <ele>2613.2</ele>
        <time>2020-08-11T08:22:05Z</time>
      </trkpt>
      <trkpt lat="45.15745" lon="5.95958">
        <ele>2613.4</ele>
        <time>2020-08-11T08:22:06Z</time>
      </trkpt>
      <trkpt lat="45.15745" lon="5.95957">
        <ele>2613.4</ele>
        <time>2020-08-11T08:22:07Z</time>
      </trkpt>
      <trkpt lat="45.15746" lon="5.95955">
        <ele>2613.6</ele>
        <time>2020-08-11T08:22:08Z</time>
      </trkpt>
      <trkpt lat="45.15746" lon="5.95954">
        <ele>2613.8</ele>
        <time>2020-08-11T08:22:09Z</time>
      </trkpt>
      <trkpt lat="45.15747" lon="5.95952">
        <ele>2614</ele>
        <time>2020-08-11T08:22:10Z</time>
      </trkpt>
      <trkpt lat="45.15748" lon="5.95951">
        <ele>2614</ele>
        <time>2020-08-11T08:22:11Z</time>
      </trkpt>
      <trkpt lat="45.15748" lon="5.95949">
        <ele>2614.2</ele>
        <time>2020-08-11T08:22:12Z</time>
      </trkpt>
      <trkpt lat="45.15749" lon="5.95948">
        <ele>2614.6</ele>
        <time>2020-08-11T08:22:13Z</time>
      </trkpt>
      <trkpt lat="45.1575" lon="5.95946">
        <ele>2614.6</ele>
        <time>2020-08-11T08:22:14Z</time>
      </trkpt>
      <trkpt lat="45.1575" lon="5.95945">
        <ele>2614.8</ele>
        <time>2020-08-11T08:22:15Z</time>
      </trkpt>
      <trkpt lat="45.15751" lon="5.95943">
        <ele>2615</ele>
        <time>2020-08-11T08:22:16Z</time>
      </trkpt>
      <trkpt lat="45.15752" lon="5.95941">
        <ele>2615</ele>
        <time>2020-08-11T08:22:17Z</time>
      </trkpt>
      <trkpt lat="45.15753" lon="5.9594">
        <ele>2615.2</ele>
        <time>2020-08-11T08:22:18Z</time>
      </trkpt>
      <trkpt lat="45.15753" lon="5.95939">
        <ele>2615.2</ele>
        <time>2020-08-11T08:22:19Z</time>
      </trkpt>
      <trkpt lat="45.15754" lon="5.95937">
        <ele>2615.4</ele>
        <time>2020-08-11T08:22:20Z</time>
      </trkpt>
      <trkpt lat="45.15754" lon="5.95936">
        <ele>2615.6</ele>
        <time>2020-08-11T08:22:21Z</time>
      </trkpt>
      <trkpt lat="45.15755" lon="5.95935">
        <ele>2615.8</ele>
        <time>2020-08-11T08:22:22Z</time>
      </trkpt>
      <trkpt lat="45.15755" lon="5.95933">
        <ele>2616</ele>
        <time>2020-08-11T08:22:23Z</time>
      </trkpt>
      <trkpt lat="45.15756" lon="5.95932">
        <ele>2616.2</ele>
        <time>2020-08-11T08:22:24Z</time>
      </trkpt>
      <trkpt lat="45.15756" lon="5.95931">
        <ele>2616.2</ele>
        <time>2020-08-11T08:22:25Z</time>
      </trkpt>
      <trkpt lat="45.15757" lon="5.95929">
        <ele>2616.4</ele>
        <time>2020-08-11T08:22:26Z</time>
      </trkpt>
      <trkpt lat="45.15758" lon="5.95928">
        <ele>2616.4</ele>
        <time>2020-08-11T08:22:27Z</time>
      </trkpt>
      <trkpt lat="45.15758" lon="5.95926">
        <ele>2616.6</ele>
        <time>2020-08-11T08:22:28Z</time>
      </trkpt>
      <trkpt lat="45.15759" lon="5.95924">
        <ele>2616.8</ele>
        <time>2020-08-11T08:22:29Z</time>
      </trkpt>
      <trkpt lat="45.1576" lon="5.95922">
        <ele>2617.2</ele>
        <time>2020-08-11T08:22:30Z</time>
      </trkpt>
      <trkpt lat="45.15761" lon="5.9592">
        <ele>2617.2</ele>
        <time>2020-08-11T08:22:31Z</time>
      </trkpt>
      <trkpt lat="45.15762" lon="5.95919">
        <ele>2617.4</ele>
        <time>2020-08-11T08:22:32Z</time>
      </trkpt>
      <trkpt lat="45.15763" lon="5.95917">
        <ele>2617.2</ele>
        <time>2020-08-11T08:22:33Z</time>
      </trkpt>
      <trkpt lat="45.15763" lon="5.95916">
        <ele>2616.8</ele>
        <time>2020-08-11T08:22:34Z</time>
      </trkpt>
      <trkpt lat="45.15764" lon="5.95915">
        <ele>2616.8</ele>
        <time>2020-08-11T08:22:35Z</time>
      </trkpt>
      <trkpt lat="45.15764" lon="5.95914">
        <ele>2616.8</ele>
        <time>2020-08-11T08:22:36Z</time>
      </trkpt>
      <trkpt lat="45.15765" lon="5.95914">
        <ele>2617</ele>
        <time>2020-08-11T08:22:37Z</time>
      </trkpt>
      <trkpt lat="45.15765" lon="5.95913">
        <ele>2617</ele>
        <time>2020-08-11T08:22:38Z</time>
      </trkpt>
      <trkpt lat="45.15766" lon="5.95912">
        <ele>2617</ele>
        <time>2020-08-11T08:22:39Z</time>
      </trkpt>
      <trkpt lat="45.15766" lon="5.95911">
        <ele>2617.2</ele>
        <time>2020-08-11T08:22:40Z</time>
      </trkpt>
      <trkpt lat="45.15767" lon="5.95911">
        <ele>2617.4</ele>
        <time>2020-08-11T08:22:41Z</time>
      </trkpt>
      <trkpt lat="45.15767" lon="5.9591">
        <ele>2617.4</ele>
        <time>2020-08-11T08:22:42Z</time>
      </trkpt>
      <trkpt lat="45.15768" lon="5.95909">
        <ele>2617.8</ele>
        <time>2020-08-11T08:22:43Z</time>
      </trkpt>
      <trkpt lat="45.15768" lon="5.95908">
        <ele>2618.2</ele>
        <time>2020-08-11T08:22:44Z</time>
      </trkpt>
      <trkpt lat="45.15769" lon="5.95907">
        <ele>2618</ele>
        <time>2020-08-11T08:22:45Z</time>
      </trkpt>
      <trkpt lat="45.15769" lon="5.95906">
        <ele>2618.2</ele>
        <time>2020-08-11T08:22:46Z</time>
      </trkpt>
      <trkpt lat="45.15769" lon="5.95905">
        <ele>2618.4</ele>
        <time>2020-08-11T08:22:47Z</time>
      </trkpt>
      <trkpt lat="45.1577" lon="5.95903">
        <ele>2618.6</ele>
        <time>2020-08-11T08:22:48Z</time>
      </trkpt>
      <trkpt lat="45.1577" lon="5.95902">
        <ele>2618.8</ele>
        <time>2020-08-11T08:22:49Z</time>
      </trkpt>
      <trkpt lat="45.15771" lon="5.95901">
        <ele>2619</ele>
        <time>2020-08-11T08:22:50Z</time>
      </trkpt>
      <trkpt lat="45.15771" lon="5.95899">
        <ele>2619.2</ele>
        <time>2020-08-11T08:22:51Z</time>
      </trkpt>
      <trkpt lat="45.15771" lon="5.95898">
        <ele>2619.4</ele>
        <time>2020-08-11T08:22:52Z</time>
      </trkpt>
      <trkpt lat="45.15772" lon="5.95897">
        <ele>2619.6</ele>
        <time>2020-08-11T08:22:53Z</time>
      </trkpt>
      <trkpt lat="45.15772" lon="5.95895">
        <ele>2619.8</ele>
        <time>2020-08-11T08:22:54Z</time>
      </trkpt>
      <trkpt lat="45.15772" lon="5.95895">
        <ele>2620</ele>
        <time>2020-08-11T08:22:55Z</time>
      </trkpt>
      <trkpt lat="45.15772" lon="5.95895">
        <ele>2620</ele>
        <time>2020-08-11T08:22:56Z</time>
      </trkpt>
      <trkpt lat="45.15771" lon="5.95891">
        <ele>2620.6</ele>
        <time>2020-08-11T08:22:57Z</time>
      </trkpt>
      <trkpt lat="45.15771" lon="5.95891">
        <ele>2621</ele>
        <time>2020-08-11T08:22:58Z</time>
      </trkpt>
      <trkpt lat="45.15771" lon="5.9589">
        <ele>2621.2</ele>
        <time>2020-08-11T08:22:59Z</time>
      </trkpt>
      <trkpt lat="45.15771" lon="5.95889">
        <ele>2621.6</ele>
        <time>2020-08-11T08:23:00Z</time>
      </trkpt>
      <trkpt lat="45.15771" lon="5.95887">
        <ele>2622</ele>
        <time>2020-08-11T08:23:01Z</time>
      </trkpt>
      <trkpt lat="45.15771" lon="5.95886">
        <ele>2622.2</ele>
        <time>2020-08-11T08:23:02Z</time>
      </trkpt>
      <trkpt lat="45.15771" lon="5.95885">
        <ele>2622.4</ele>
        <time>2020-08-11T08:23:03Z</time>
      </trkpt>
      <trkpt lat="45.15771" lon="5.95884">
        <ele>2622.4</ele>
        <time>2020-08-11T08:23:04Z</time>
      </trkpt>
      <trkpt lat="45.15771" lon="5.95883">
        <ele>2622.8</ele>
        <time>2020-08-11T08:23:05Z</time>
      </trkpt>
      <trkpt lat="45.15771" lon="5.95882">
        <ele>2623.2</ele>
        <time>2020-08-11T08:23:06Z</time>
      </trkpt>
      <trkpt lat="45.15771" lon="5.9588">
        <ele>2623.4</ele>
        <time>2020-08-11T08:23:07Z</time>
      </trkpt>
      <trkpt lat="45.15771" lon="5.95879">
        <ele>2623.6</ele>
        <time>2020-08-11T08:23:08Z</time>
      </trkpt>
      <trkpt lat="45.1577" lon="5.95878">
        <ele>2624</ele>
        <time>2020-08-11T08:23:09Z</time>
      </trkpt>
      <trkpt lat="45.1577" lon="5.95877">
        <ele>2624</ele>
        <time>2020-08-11T08:23:10Z</time>
      </trkpt>
      <trkpt lat="45.1577" lon="5.95876">
        <ele>2624.2</ele>
        <time>2020-08-11T08:23:11Z</time>
      </trkpt>
      <trkpt lat="45.15769" lon="5.95875">
        <ele>2624.4</ele>
        <time>2020-08-11T08:23:12Z</time>
      </trkpt>
      <trkpt lat="45.15769" lon="5.95874">
        <ele>2624.6</ele>
        <time>2020-08-11T08:23:13Z</time>
      </trkpt>
      <trkpt lat="45.15768" lon="5.95873">
        <ele>2625</ele>
        <time>2020-08-11T08:23:14Z</time>
      </trkpt>
      <trkpt lat="45.15768" lon="5.95872">
        <ele>2625</ele>
        <time>2020-08-11T08:23:15Z</time>
      </trkpt>
      <trkpt lat="45.15767" lon="5.95871">
        <ele>2625.4</ele>
        <time>2020-08-11T08:23:16Z</time>
      </trkpt>
      <trkpt lat="45.15766" lon="5.9587">
        <ele>2625.4</ele>
        <time>2020-08-11T08:23:17Z</time>
      </trkpt>
      <trkpt lat="45.15766" lon="5.95869">
        <ele>2625.6</ele>
        <time>2020-08-11T08:23:18Z</time>
      </trkpt>
      <trkpt lat="45.15765" lon="5.95868">
        <ele>2626</ele>
        <time>2020-08-11T08:23:19Z</time>
      </trkpt>
      <trkpt lat="45.15765" lon="5.95868">
        <ele>2626</ele>
        <time>2020-08-11T08:23:20Z</time>
      </trkpt>
      <trkpt lat="45.15763" lon="5.95865">
        <ele>2626</ele>
        <time>2020-08-11T08:23:21Z</time>
      </trkpt>
      <trkpt lat="45.15762" lon="5.95864">
        <ele>2626.2</ele>
        <time>2020-08-11T08:23:22Z</time>
      </trkpt>
      <trkpt lat="45.15762" lon="5.95864">
        <ele>2626.4</ele>
        <time>2020-08-11T08:23:23Z</time>
      </trkpt>
      <trkpt lat="45.15762" lon="5.95864">
        <ele>2626.4</ele>
        <time>2020-08-11T08:23:24Z</time>
      </trkpt>
      <trkpt lat="45.15761" lon="5.95862">
        <ele>2626.6</ele>
        <time>2020-08-11T08:23:25Z</time>
      </trkpt>
      <trkpt lat="45.1576" lon="5.95859">
        <ele>2626.8</ele>
        <time>2020-08-11T08:23:26Z</time>
      </trkpt>
      <trkpt lat="45.15759" lon="5.95857">
        <ele>2627</ele>
        <time>2020-08-11T08:23:27Z</time>
      </trkpt>
      <trkpt lat="45.15758" lon="5.95854">
        <ele>2627.4</ele>
        <time>2020-08-11T08:23:28Z</time>
      </trkpt>
      <trkpt lat="45.15757" lon="5.95851">
        <ele>2627.4</ele>
        <time>2020-08-11T08:23:29Z</time>
      </trkpt>
      <trkpt lat="45.15757" lon="5.95851">
        <ele>2627.6</ele>
        <time>2020-08-11T08:23:30Z</time>
      </trkpt>
      <trkpt lat="45.15756" lon="5.95851">
        <ele>2627.6</ele>
        <time>2020-08-11T08:23:31Z</time>
      </trkpt>
      <trkpt lat="45.15756" lon="5.95851">
        <ele>2627.8</ele>
        <time>2020-08-11T08:23:32Z</time>
      </trkpt>
      <trkpt lat="45.15755" lon="5.95851">
        <ele>2628</ele>
        <time>2020-08-11T08:23:33Z</time>
      </trkpt>
      <trkpt lat="45.15754" lon="5.95851">
        <ele>2628.2</ele>
        <time>2020-08-11T08:23:34Z</time>
      </trkpt>
      <trkpt lat="45.15754" lon="5.95851">
        <ele>2628.6</ele>
        <time>2020-08-11T08:23:35Z</time>
      </trkpt>
      <trkpt lat="45.15753" lon="5.9585">
        <ele>2628.8</ele>
        <time>2020-08-11T08:23:36Z</time>
      </trkpt>
      <trkpt lat="45.15753" lon="5.9585">
        <ele>2628.8</ele>
        <time>2020-08-11T08:23:37Z</time>
      </trkpt>
      <trkpt lat="45.15752" lon="5.9585">
        <ele>2629.2</ele>
        <time>2020-08-11T08:23:38Z</time>
      </trkpt>
      <trkpt lat="45.15751" lon="5.9585">
        <ele>2629.4</ele>
        <time>2020-08-11T08:23:39Z</time>
      </trkpt>
      <trkpt lat="45.15751" lon="5.9585">
        <ele>2629.6</ele>
        <time>2020-08-11T08:23:40Z</time>
      </trkpt>
      <trkpt lat="45.1575" lon="5.9585">
        <ele>2629.8</ele>
        <time>2020-08-11T08:23:41Z</time>
      </trkpt>
      <trkpt lat="45.1575" lon="5.95851">
        <ele>2629.8</ele>
        <time>2020-08-11T08:23:42Z</time>
      </trkpt>
      <trkpt lat="45.15749" lon="5.95853">
        <ele>2630.2</ele>
        <time>2020-08-11T08:23:43Z</time>
      </trkpt>
      <trkpt lat="45.15749" lon="5.95854">
        <ele>2630.4</ele>
        <time>2020-08-11T08:23:44Z</time>
      </trkpt>
      <trkpt lat="45.15748" lon="5.95856">
        <ele>2630.6</ele>
        <time>2020-08-11T08:23:45Z</time>
      </trkpt>
      <trkpt lat="45.15748" lon="5.95857">
        <ele>2631</ele>
        <time>2020-08-11T08:23:46Z</time>
      </trkpt>
      <trkpt lat="45.15748" lon="5.95859">
        <ele>2631</ele>
        <time>2020-08-11T08:23:47Z</time>
      </trkpt>
      <trkpt lat="45.15747" lon="5.9586">
        <ele>2631.2</ele>
        <time>2020-08-11T08:23:48Z</time>
      </trkpt>
      <trkpt lat="45.15746" lon="5.95861">
        <ele>2631.4</ele>
        <time>2020-08-11T08:23:49Z</time>
      </trkpt>
      <trkpt lat="45.15745" lon="5.95861">
        <ele>2631.6</ele>
        <time>2020-08-11T08:23:50Z</time>
      </trkpt>
      <trkpt lat="45.15744" lon="5.95862">
        <ele>2632</ele>
        <time>2020-08-11T08:23:51Z</time>
      </trkpt>
      <trkpt lat="45.15743" lon="5.95862">
        <ele>2632.4</ele>
        <time>2020-08-11T08:23:52Z</time>
      </trkpt>
      <trkpt lat="45.15742" lon="5.95862">
        <ele>2632.4</ele>
        <time>2020-08-11T08:23:53Z</time>
      </trkpt>
      <trkpt lat="45.1574" lon="5.95864">
        <ele>2632.6</ele>
        <time>2020-08-11T08:23:54Z</time>
      </trkpt>
      <trkpt lat="45.1574" lon="5.95864">
        <ele>2633</ele>
        <time>2020-08-11T08:23:55Z</time>
      </trkpt>
      <trkpt lat="45.15738" lon="5.95866">
        <ele>2633</ele>
        <time>2020-08-11T08:23:56Z</time>
      </trkpt>
      <trkpt lat="45.15738" lon="5.95866">
        <ele>2633.2</ele>
        <time>2020-08-11T08:23:57Z</time>
      </trkpt>
      <trkpt lat="45.15737" lon="5.95869">
        <ele>2633.6</ele>
        <time>2020-08-11T08:23:58Z</time>
      </trkpt>
      <trkpt lat="45.15737" lon="5.95869">
        <ele>2633.6</ele>
        <time>2020-08-11T08:23:59Z</time>
      </trkpt>
      <trkpt lat="45.15735" lon="5.9587">
        <ele>2634</ele>
        <time>2020-08-11T08:24:00Z</time>
      </trkpt>
      <trkpt lat="45.15733" lon="5.95872">
        <ele>2634.2</ele>
        <time>2020-08-11T08:24:01Z</time>
      </trkpt>
      <trkpt lat="45.15733" lon="5.95872">
        <ele>2634.4</ele>
        <time>2020-08-11T08:24:02Z</time>
      </trkpt>
      <trkpt lat="45.15733" lon="5.95872">
        <ele>2634.8</ele>
        <time>2020-08-11T08:24:03Z</time>
      </trkpt>
      <trkpt lat="45.15733" lon="5.95872">
        <ele>2634.8</ele>
        <time>2020-08-11T08:24:04Z</time>
      </trkpt>
      <trkpt lat="45.15733" lon="5.95872">
        <ele>2635.2</ele>
        <time>2020-08-11T08:24:05Z</time>
      </trkpt>
      <trkpt lat="45.15731" lon="5.95874">
        <ele>2635.2</ele>
        <time>2020-08-11T08:24:06Z</time>
      </trkpt>
      <trkpt lat="45.15731" lon="5.95874">
        <ele>2635.6</ele>
        <time>2020-08-11T08:24:07Z</time>
      </trkpt>
      <trkpt lat="45.15731" lon="5.95874">
        <ele>2636</ele>
        <time>2020-08-11T08:24:08Z</time>
      </trkpt>
      <trkpt lat="45.15729" lon="5.95875">
        <ele>2636.2</ele>
        <time>2020-08-11T08:24:09Z</time>
      </trkpt>
      <trkpt lat="45.15729" lon="5.95875">
        <ele>2636.2</ele>
        <time>2020-08-11T08:24:10Z</time>
      </trkpt>
      <trkpt lat="45.15729" lon="5.95875">
        <ele>2636.4</ele>
        <time>2020-08-11T08:24:11Z</time>
      </trkpt>
      <trkpt lat="45.15729" lon="5.95875">
        <ele>2636.4</ele>
        <time>2020-08-11T08:24:12Z</time>
      </trkpt>
      <trkpt lat="45.15729" lon="5.95875">
        <ele>2636.8</ele>
        <time>2020-08-11T08:24:13Z</time>
      </trkpt>
      <trkpt lat="45.15727" lon="5.95875">
        <ele>2636.8</ele>
        <time>2020-08-11T08:24:14Z</time>
      </trkpt>
      <trkpt lat="45.15727" lon="5.95875">
        <ele>2637</ele>
        <time>2020-08-11T08:24:15Z</time>
      </trkpt>
      <trkpt lat="45.15727" lon="5.95875">
        <ele>2637.2</ele>
        <time>2020-08-11T08:24:16Z</time>
      </trkpt>
      <trkpt lat="45.15725" lon="5.95877">
        <ele>2637.6</ele>
        <time>2020-08-11T08:24:17Z</time>
      </trkpt>
      <trkpt lat="45.15725" lon="5.95877">
        <ele>2637.6</ele>
        <time>2020-08-11T08:24:18Z</time>
      </trkpt>
      <trkpt lat="45.15723" lon="5.95879">
        <ele>2637.6</ele>
        <time>2020-08-11T08:24:19Z</time>
      </trkpt>
      <trkpt lat="45.15723" lon="5.95879">
        <ele>2637.8</ele>
        <time>2020-08-11T08:24:20Z</time>
      </trkpt>
      <trkpt lat="45.15721" lon="5.95881">
        <ele>2638</ele>
        <time>2020-08-11T08:24:21Z</time>
      </trkpt>
      <trkpt lat="45.15721" lon="5.95881">
        <ele>2638</ele>
        <time>2020-08-11T08:24:22Z</time>
      </trkpt>
      <trkpt lat="45.15721" lon="5.95881">
        <ele>2638.4</ele>
        <time>2020-08-11T08:24:23Z</time>
      </trkpt>
      <trkpt lat="45.15721" lon="5.95881">
        <ele>2638.6</ele>
        <time>2020-08-11T08:24:24Z</time>
      </trkpt>
      <trkpt lat="45.15719" lon="5.95881">
        <ele>2639</ele>
        <time>2020-08-11T08:24:25Z</time>
      </trkpt>
      <trkpt lat="45.15719" lon="5.95881">
        <ele>2639.4</ele>
        <time>2020-08-11T08:24:26Z</time>
      </trkpt>
      <trkpt lat="45.15719" lon="5.95881">
        <ele>2639.8</ele>
        <time>2020-08-11T08:24:27Z</time>
      </trkpt>
      <trkpt lat="45.15719" lon="5.95882">
        <ele>2640</ele>
        <time>2020-08-11T08:24:28Z</time>
      </trkpt>
      <trkpt lat="45.1572" lon="5.95883">
        <ele>2640.2</ele>
        <time>2020-08-11T08:24:29Z</time>
      </trkpt>
      <trkpt lat="45.1572" lon="5.95883">
        <ele>2640.4</ele>
        <time>2020-08-11T08:24:30Z</time>
      </trkpt>
      <trkpt lat="45.1572" lon="5.95884">
        <ele>2640.4</ele>
        <time>2020-08-11T08:24:31Z</time>
      </trkpt>
      <trkpt lat="45.1572" lon="5.95885">
        <ele>2640.4</ele>
        <time>2020-08-11T08:24:32Z</time>
      </trkpt>
      <trkpt lat="45.1572" lon="5.95885">
        <ele>2640.6</ele>
        <time>2020-08-11T08:24:33Z</time>
      </trkpt>
      <trkpt lat="45.1572" lon="5.95886">
        <ele>2640.6</ele>
        <time>2020-08-11T08:24:34Z</time>
      </trkpt>
      <trkpt lat="45.15721" lon="5.95887">
        <ele>2640.4</ele>
        <time>2020-08-11T08:24:35Z</time>
      </trkpt>
      <trkpt lat="45.15721" lon="5.95887">
        <ele>2640.2</ele>
        <time>2020-08-11T08:24:36Z</time>
      </trkpt>
      <trkpt lat="45.15721" lon="5.95888">
        <ele>2639.8</ele>
        <time>2020-08-11T08:24:37Z</time>
      </trkpt>
      <trkpt lat="45.15721" lon="5.95888">
        <ele>2639.8</ele>
        <time>2020-08-11T08:24:38Z</time>
      </trkpt>
      <trkpt lat="45.15721" lon="5.95889">
        <ele>2639.8</ele>
        <time>2020-08-11T08:24:39Z</time>
      </trkpt>
      <trkpt lat="45.15722" lon="5.9589">
        <ele>2640</ele>
        <time>2020-08-11T08:24:40Z</time>
      </trkpt>
      <trkpt lat="45.15722" lon="5.9589">
        <ele>2640.2</ele>
        <time>2020-08-11T08:24:41Z</time>
      </trkpt>
      <trkpt lat="45.15722" lon="5.95891">
        <ele>2640.2</ele>
        <time>2020-08-11T08:24:42Z</time>
      </trkpt>
      <trkpt lat="45.15722" lon="5.95892">
        <ele>2640</ele>
        <time>2020-08-11T08:24:43Z</time>
      </trkpt>
      <trkpt lat="45.15722" lon="5.95892">
        <ele>2639.8</ele>
        <time>2020-08-11T08:24:44Z</time>
      </trkpt>
      <trkpt lat="45.15722" lon="5.95893">
        <ele>2639.6</ele>
        <time>2020-08-11T08:24:45Z</time>
      </trkpt>
      <trkpt lat="45.15723" lon="5.95894">
        <ele>2639.4</ele>
        <time>2020-08-11T08:24:46Z</time>
      </trkpt>
      <trkpt lat="45.15723" lon="5.95894">
        <ele>2639.6</ele>
        <time>2020-08-11T08:24:47Z</time>
      </trkpt>
      <trkpt lat="45.15723" lon="5.95894">
        <ele>2639.4</ele>
        <time>2020-08-11T08:24:48Z</time>
      </trkpt>
      <trkpt lat="45.15723" lon="5.95894">
        <ele>2639.6</ele>
        <time>2020-08-11T08:24:49Z</time>
      </trkpt>
      <trkpt lat="45.15723" lon="5.95894">
        <ele>2639.4</ele>
        <time>2020-08-11T08:24:50Z</time>
      </trkpt>
      <trkpt lat="45.15723" lon="5.95894">
        <ele>2639.4</ele>
        <time>2020-08-11T08:24:51Z</time>
      </trkpt>
      <trkpt lat="45.15723" lon="5.95894">
        <ele>2639.2</ele>
        <time>2020-08-11T08:24:52Z</time>
      </trkpt>
      <trkpt lat="45.15723" lon="5.95894">
        <ele>2639</ele>
        <time>2020-08-11T08:24:53Z</time>
      </trkpt>
      <trkpt lat="45.15723" lon="5.95894">
        <ele>2639</ele>
        <time>2020-08-11T08:24:54Z</time>
      </trkpt>
      <trkpt lat="45.15723" lon="5.95894">
        <ele>2639.2</ele>
        <time>2020-08-11T08:24:55Z</time>
      </trkpt>
      <trkpt lat="45.15723" lon="5.95894">
        <ele>2639.4</ele>
        <time>2020-08-11T08:24:56Z</time>
      </trkpt>
      <trkpt lat="45.15723" lon="5.95894">
        <ele>2639.2</ele>
        <time>2020-08-11T08:24:57Z</time>
      </trkpt>
      <trkpt lat="45.15723" lon="5.95894">
        <ele>2639.6</ele>
        <time>2020-08-11T08:24:58Z</time>
      </trkpt>
      <trkpt lat="45.15723" lon="5.95894">
        <ele>2639.6</ele>
        <time>2020-08-11T08:24:59Z</time>
      </trkpt>
      <trkpt lat="45.15723" lon="5.95894">
        <ele>2639.6</ele>
        <time>2020-08-11T08:25:00Z</time>
      </trkpt>
      <trkpt lat="45.15723" lon="5.95894">
        <ele>2639.6</ele>
        <time>2020-08-11T08:25:01Z</time>
      </trkpt>
      <trkpt lat="45.15723" lon="5.95894">
        <ele>2639.6</ele>
        <time>2020-08-11T08:25:02Z</time>
      </trkpt>
      <trkpt lat="45.15723" lon="5.95894">
        <ele>2639.4</ele>
        <time>2020-08-11T08:25:03Z</time>
      </trkpt>
      <trkpt lat="45.15723" lon="5.95894">
        <ele>2639.6</ele>
        <time>2020-08-11T08:25:04Z</time>
      </trkpt>
      <trkpt lat="45.15723" lon="5.95894">
        <ele>2640.2</ele>
        <time>2020-08-11T08:25:05Z</time>
      </trkpt>
      <trkpt lat="45.15723" lon="5.95894">
        <ele>2640.4</ele>
        <time>2020-08-11T08:25:06Z</time>
      </trkpt>
      <trkpt lat="45.15723" lon="5.95894">
        <ele>2640</ele>
        <time>2020-08-11T08:25:07Z</time>
      </trkpt>
      <trkpt lat="45.15723" lon="5.95894">
        <ele>2640</ele>
        <time>2020-08-11T08:25:08Z</time>
      </trkpt>
      <trkpt lat="45.15721" lon="5.95896">
        <ele>2639.8</ele>
        <time>2020-08-11T08:25:09Z</time>
      </trkpt>
      <trkpt lat="45.15721" lon="5.95896">
        <ele>2639.8</ele>
        <time>2020-08-11T08:25:10Z</time>
      </trkpt>
      <trkpt lat="45.15721" lon="5.95896">
        <ele>2639.6</ele>
        <time>2020-08-11T08:25:11Z</time>
      </trkpt>
      <trkpt lat="45.15721" lon="5.95896">
        <ele>2639.6</ele>
        <time>2020-08-11T08:25:12Z</time>
      </trkpt>
      <trkpt lat="45.15722" lon="5.95896">
        <ele>2639.6</ele>
        <time>2020-08-11T08:25:13Z</time>
      </trkpt>
      <trkpt lat="45.15722" lon="5.95896">
        <ele>2639.4</ele>
        <time>2020-08-11T08:25:14Z</time>
      </trkpt>
      <trkpt lat="45.15722" lon="5.95896">
        <ele>2639.4</ele>
        <time>2020-08-11T08:25:15Z</time>
      </trkpt>
      <trkpt lat="45.15722" lon="5.95896">
        <ele>2639.4</ele>
        <time>2020-08-11T08:25:16Z</time>
      </trkpt>
      <trkpt lat="45.15722" lon="5.95896">
        <ele>2639.4</ele>
        <time>2020-08-11T08:25:17Z</time>
      </trkpt>
      <trkpt lat="45.15722" lon="5.95896">
        <ele>2639.2</ele>
        <time>2020-08-11T08:25:18Z</time>
      </trkpt>
      <trkpt lat="45.15723" lon="5.95896">
        <ele>2639.2</ele>
        <time>2020-08-11T08:25:19Z</time>
      </trkpt>
      <trkpt lat="45.15723" lon="5.95896">
        <ele>2639.4</ele>
        <time>2020-08-11T08:25:20Z</time>
      </trkpt>
      <trkpt lat="45.15723" lon="5.95896">
        <ele>2639.6</ele>
        <time>2020-08-11T08:25:21Z</time>
      </trkpt>
      <trkpt lat="45.15723" lon="5.95896">
        <ele>2639.6</ele>
        <time>2020-08-11T08:25:22Z</time>
      </trkpt>
      <trkpt lat="45.15723" lon="5.95896">
        <ele>2639.8</ele>
        <time>2020-08-11T08:25:23Z</time>
      </trkpt>
      <trkpt lat="45.15724" lon="5.95896">
        <ele>2640</ele>
        <time>2020-08-11T08:25:24Z</time>
      </trkpt>
      <trkpt lat="45.15724" lon="5.95896">
        <ele>2639.8</ele>
        <time>2020-08-11T08:25:25Z</time>
      </trkpt>
      <trkpt lat="45.15724" lon="5.95896">
        <ele>2639.6</ele>
        <time>2020-08-11T08:25:26Z</time>
      </trkpt>
      <trkpt lat="45.15724" lon="5.95896">
        <ele>2639.8</ele>
        <time>2020-08-11T08:25:27Z</time>
      </trkpt>
      <trkpt lat="45.15724" lon="5.95896">
        <ele>2640</ele>
        <time>2020-08-11T08:25:28Z</time>
      </trkpt>
      <trkpt lat="45.15724" lon="5.95896">
        <ele>2640</ele>
        <time>2020-08-11T08:25:29Z</time>
      </trkpt>
      <trkpt lat="45.15725" lon="5.95896">
        <ele>2640</ele>
        <time>2020-08-11T08:25:30Z</time>
      </trkpt>
      <trkpt lat="45.15725" lon="5.95896">
        <ele>2640</ele>
        <time>2020-08-11T08:25:31Z</time>
      </trkpt>
      <trkpt lat="45.15725" lon="5.95896">
        <ele>2640</ele>
        <time>2020-08-11T08:25:32Z</time>
      </trkpt>
      <trkpt lat="45.15725" lon="5.95896">
        <ele>2640</ele>
        <time>2020-08-11T08:25:33Z</time>
      </trkpt>
      <trkpt lat="45.15725" lon="5.95896">
        <ele>2640</ele>
        <time>2020-08-11T08:25:34Z</time>
      </trkpt>
      <trkpt lat="45.15725" lon="5.95896">
        <ele>2640</ele>
        <time>2020-08-11T08:25:35Z</time>
      </trkpt>
      <trkpt lat="45.15726" lon="5.95896">
        <ele>2640.2</ele>
        <time>2020-08-11T08:25:36Z</time>
      </trkpt>
      <trkpt lat="45.15726" lon="5.95896">
        <ele>2640.4</ele>
        <time>2020-08-11T08:25:37Z</time>
      </trkpt>
      <trkpt lat="45.15726" lon="5.95896">
        <ele>2640.2</ele>
        <time>2020-08-11T08:25:38Z</time>
      </trkpt>
      <trkpt lat="45.15726" lon="5.95896">
        <ele>2640</ele>
        <time>2020-08-11T08:25:39Z</time>
      </trkpt>
      <trkpt lat="45.15726" lon="5.95896">
        <ele>2640</ele>
        <time>2020-08-11T08:25:40Z</time>
      </trkpt>
      <trkpt lat="45.15726" lon="5.95896">
        <ele>2640.2</ele>
        <time>2020-08-11T08:25:41Z</time>
      </trkpt>
      <trkpt lat="45.15726" lon="5.95896">
        <ele>2640.2</ele>
        <time>2020-08-11T08:25:42Z</time>
      </trkpt>
      <trkpt lat="45.15724" lon="5.95896">
        <ele>2640</ele>
        <time>2020-08-11T08:25:43Z</time>
      </trkpt>
      <trkpt lat="45.15724" lon="5.95896">
        <ele>2640</ele>
        <time>2020-08-11T08:25:44Z</time>
      </trkpt>
      <trkpt lat="45.15724" lon="5.95896">
        <ele>2640</ele>
        <time>2020-08-11T08:25:45Z</time>
      </trkpt>
      <trkpt lat="45.15724" lon="5.95896">
        <ele>2640</ele>
        <time>2020-08-11T08:25:46Z</time>
      </trkpt>
      <trkpt lat="45.15724" lon="5.95896">
        <ele>2640</ele>
        <time>2020-08-11T08:25:47Z</time>
      </trkpt>
      <trkpt lat="45.15724" lon="5.95896">
        <ele>2639.8</ele>
        <time>2020-08-11T08:25:48Z</time>
      </trkpt>
      <trkpt lat="45.15724" lon="5.95896">
        <ele>2640</ele>
        <time>2020-08-11T08:25:49Z</time>
      </trkpt>
      <trkpt lat="45.15724" lon="5.95896">
        <ele>2640</ele>
        <time>2020-08-11T08:25:50Z</time>
      </trkpt>
      <trkpt lat="45.15724" lon="5.95896">
        <ele>2640</ele>
        <time>2020-08-11T08:25:51Z</time>
      </trkpt>
      <trkpt lat="45.15724" lon="5.95896">
        <ele>2640</ele>
        <time>2020-08-11T08:25:52Z</time>
      </trkpt>
      <trkpt lat="45.15724" lon="5.95896">
        <ele>2640</ele>
        <time>2020-08-11T08:25:53Z</time>
      </trkpt>
      <trkpt lat="45.15724" lon="5.95896">
        <ele>2640</ele>
        <time>2020-08-11T08:25:54Z</time>
      </trkpt>
      <trkpt lat="45.15724" lon="5.95896">
        <ele>2640.2</ele>
        <time>2020-08-11T08:25:55Z</time>
      </trkpt>
      <trkpt lat="45.15724" lon="5.95896">
        <ele>2640.2</ele>
        <time>2020-08-11T08:25:56Z</time>
      </trkpt>
      <trkpt lat="45.15724" lon="5.95896">
        <ele>2640</ele>
        <time>2020-08-11T08:25:57Z</time>
      </trkpt>
      <trkpt lat="45.15724" lon="5.95896">
        <ele>2640</ele>
        <time>2020-08-11T08:25:58Z</time>
      </trkpt>
      <trkpt lat="45.15724" lon="5.95896">
        <ele>2640</ele>
        <time>2020-08-11T08:25:59Z</time>
      </trkpt>
      <trkpt lat="45.15724" lon="5.95896">
        <ele>2640</ele>
        <time>2020-08-11T08:26:00Z</time>
      </trkpt>
      <trkpt lat="45.15724" lon="5.95896">
        <ele>2640</ele>
        <time>2020-08-11T08:26:01Z</time>
      </trkpt>
      <trkpt lat="45.15724" lon="5.95896">
        <ele>2640</ele>
        <time>2020-08-11T08:26:02Z</time>
      </trkpt>
      <trkpt lat="45.15724" lon="5.95896">
        <ele>2640</ele>
        <time>2020-08-11T08:26:03Z</time>
      </trkpt>
      <trkpt lat="45.15724" lon="5.95896">
        <ele>2639.8</ele>
        <time>2020-08-11T08:26:04Z</time>
      </trkpt>
      <trkpt lat="45.15724" lon="5.95896">
        <ele>2640</ele>
        <time>2020-08-11T08:26:05Z</time>
      </trkpt>
      <trkpt lat="45.15724" lon="5.95896">
        <ele>2640</ele>
        <time>2020-08-11T08:26:06Z</time>
      </trkpt>
      <trkpt lat="45.15724" lon="5.95896">
        <ele>2640</ele>
        <time>2020-08-11T08:26:07Z</time>
      </trkpt>
      <trkpt lat="45.15724" lon="5.95896">
        <ele>2640</ele>
        <time>2020-08-11T08:26:08Z</time>
      </trkpt>
      <trkpt lat="45.15724" lon="5.95896">
        <ele>2640</ele>
        <time>2020-08-11T08:26:09Z</time>
      </trkpt>
      <trkpt lat="45.15724" lon="5.95896">
        <ele>2639.8</ele>
        <time>2020-08-11T08:26:10Z</time>
      </trkpt>
      <trkpt lat="45.15724" lon="5.95896">
        <ele>2639.8</ele>
        <time>2020-08-11T08:26:11Z</time>
      </trkpt>
      <trkpt lat="45.15724" lon="5.95896">
        <ele>2639.8</ele>
        <time>2020-08-11T08:26:12Z</time>
      </trkpt>
      <trkpt lat="45.15724" lon="5.95896">
        <ele>2639.8</ele>
        <time>2020-08-11T08:26:13Z</time>
      </trkpt>
      <trkpt lat="45.15724" lon="5.95896">
        <ele>2640</ele>
        <time>2020-08-11T08:26:14Z</time>
      </trkpt>
      <trkpt lat="45.15724" lon="5.95896">
        <ele>2640</ele>
        <time>2020-08-11T08:26:15Z</time>
      </trkpt>
      <trkpt lat="45.15724" lon="5.95896">
        <ele>2640.2</ele>
        <time>2020-08-11T08:26:16Z</time>
      </trkpt>
      <trkpt lat="45.15724" lon="5.95896">
        <ele>2640.2</ele>
        <time>2020-08-11T08:26:17Z</time>
      </trkpt>
      <trkpt lat="45.15724" lon="5.95896">
        <ele>2640.2</ele>
        <time>2020-08-11T08:26:18Z</time>
      </trkpt>
      <trkpt lat="45.15724" lon="5.95896">
        <ele>2640.4</ele>
        <time>2020-08-11T08:26:19Z</time>
      </trkpt>
      <trkpt lat="45.15724" lon="5.95896">
        <ele>2640.4</ele>
        <time>2020-08-11T08:26:20Z</time>
      </trkpt>
      <trkpt lat="45.15724" lon="5.95896">
        <ele>2640.6</ele>
        <time>2020-08-11T08:26:21Z</time>
      </trkpt>
      <trkpt lat="45.15724" lon="5.95896">
        <ele>2640.6</ele>
        <time>2020-08-11T08:26:22Z</time>
      </trkpt>
      <trkpt lat="45.15724" lon="5.95896">
        <ele>2640.8</ele>
        <time>2020-08-11T08:26:23Z</time>
      </trkpt>
      <trkpt lat="45.15724" lon="5.95896">
        <ele>2640.6</ele>
        <time>2020-08-11T08:26:24Z</time>
      </trkpt>
      <trkpt lat="45.15724" lon="5.95896">
        <ele>2640.6</ele>
        <time>2020-08-11T08:26:25Z</time>
      </trkpt>
      <trkpt lat="45.15724" lon="5.95896">
        <ele>2640.4</ele>
        <time>2020-08-11T08:26:26Z</time>
      </trkpt>
      <trkpt lat="45.15724" lon="5.95896">
        <ele>2640.2</ele>
        <time>2020-08-11T08:26:27Z</time>
      </trkpt>
      <trkpt lat="45.15724" lon="5.95896">
        <ele>2640.2</ele>
        <time>2020-08-11T08:26:28Z</time>
      </trkpt>
      <trkpt lat="45.15724" lon="5.95896">
        <ele>2640.2</ele>
        <time>2020-08-11T08:26:29Z</time>
      </trkpt>
      <trkpt lat="45.15724" lon="5.95896">
        <ele>2640.2</ele>
        <time>2020-08-11T08:26:30Z</time>
      </trkpt>
      <trkpt lat="45.15724" lon="5.95896">
        <ele>2640.2</ele>
        <time>2020-08-11T08:26:31Z</time>
      </trkpt>
      <trkpt lat="45.15724" lon="5.95896">
        <ele>2640.2</ele>
        <time>2020-08-11T08:26:32Z</time>
      </trkpt>
      <trkpt lat="45.15724" lon="5.95896">
        <ele>2640.2</ele>
        <time>2020-08-11T08:26:33Z</time>
      </trkpt>
      <trkpt lat="45.15724" lon="5.95896">
        <ele>2640.2</ele>
        <time>2020-08-11T08:26:34Z</time>
      </trkpt>
      <trkpt lat="45.15726" lon="5.95896">
        <ele>2640.2</ele>
        <time>2020-08-11T08:26:35Z</time>
      </trkpt>
      <trkpt lat="45.15726" lon="5.95896">
        <ele>2640.2</ele>
        <time>2020-08-11T08:26:36Z</time>
      </trkpt>
      <trkpt lat="45.15726" lon="5.95896">
        <ele>2640.4</ele>
        <time>2020-08-11T08:26:37Z</time>
      </trkpt>
      <trkpt lat="45.15726" lon="5.95896">
        <ele>2640.2</ele>
        <time>2020-08-11T08:26:38Z</time>
      </trkpt>
      <trkpt lat="45.15726" lon="5.95896">
        <ele>2640.2</ele>
        <time>2020-08-11T08:26:39Z</time>
      </trkpt>
      <trkpt lat="45.15726" lon="5.95896">
        <ele>2640.2</ele>
        <time>2020-08-11T08:26:40Z</time>
      </trkpt>
      <trkpt lat="45.15726" lon="5.95896">
        <ele>2640.2</ele>
        <time>2020-08-11T08:26:41Z</time>
      </trkpt>
      <trkpt lat="45.15726" lon="5.95896">
        <ele>2640.2</ele>
        <time>2020-08-11T08:26:42Z</time>
      </trkpt>
      <trkpt lat="45.15726" lon="5.95896">
        <ele>2640.2</ele>
        <time>2020-08-11T08:26:43Z</time>
      </trkpt>
      <trkpt lat="45.15726" lon="5.95896">
        <ele>2640.2</ele>
        <time>2020-08-11T08:26:44Z</time>
      </trkpt>
      <trkpt lat="45.15726" lon="5.95896">
        <ele>2640</ele>
        <time>2020-08-11T08:26:45Z</time>
      </trkpt>
      <trkpt lat="45.15726" lon="5.95896">
        <ele>2640.2</ele>
        <time>2020-08-11T08:26:46Z</time>
      </trkpt>
      <trkpt lat="45.15726" lon="5.95896">
        <ele>2640</ele>
        <time>2020-08-11T08:26:47Z</time>
      </trkpt>
      <trkpt lat="45.15726" lon="5.95896">
        <ele>2640.2</ele>
        <time>2020-08-11T08:26:48Z</time>
      </trkpt>
      <trkpt lat="45.15726" lon="5.95896">
        <ele>2640.4</ele>
        <time>2020-08-11T08:26:49Z</time>
      </trkpt>
      <trkpt lat="45.15726" lon="5.95896">
        <ele>2640.2</ele>
        <time>2020-08-11T08:26:50Z</time>
      </trkpt>
      <trkpt lat="45.15726" lon="5.95896">
        <ele>2640.2</ele>
        <time>2020-08-11T08:26:51Z</time>
      </trkpt>
      <trkpt lat="45.15726" lon="5.95896">
        <ele>2640.2</ele>
        <time>2020-08-11T08:26:52Z</time>
      </trkpt>
      <trkpt lat="45.15726" lon="5.95896">
        <ele>2640</ele>
        <time>2020-08-11T08:26:53Z</time>
      </trkpt>
      <trkpt lat="45.15726" lon="5.95896">
        <ele>2639.8</ele>
        <time>2020-08-11T08:26:54Z</time>
      </trkpt>
      <trkpt lat="45.15726" lon="5.95896">
        <ele>2639.8</ele>
        <time>2020-08-11T08:26:55Z</time>
      </trkpt>
      <trkpt lat="45.15726" lon="5.95896">
        <ele>2639.8</ele>
        <time>2020-08-11T08:26:56Z</time>
      </trkpt>
      <trkpt lat="45.15726" lon="5.95896">
        <ele>2639.8</ele>
        <time>2020-08-11T08:26:57Z</time>
      </trkpt>
      <trkpt lat="45.15726" lon="5.95896">
        <ele>2639.8</ele>
        <time>2020-08-11T08:26:58Z</time>
      </trkpt>
      <trkpt lat="45.15726" lon="5.95896">
        <ele>2639.6</ele>
        <time>2020-08-11T08:26:59Z</time>
      </trkpt>
      <trkpt lat="45.15726" lon="5.95896">
        <ele>2639.6</ele>
        <time>2020-08-11T08:27:00Z</time>
      </trkpt>
      <trkpt lat="45.15726" lon="5.95896">
        <ele>2639.8</ele>
        <time>2020-08-11T08:27:01Z</time>
      </trkpt>
      <trkpt lat="45.15726" lon="5.95896">
        <ele>2639.8</ele>
        <time>2020-08-11T08:27:02Z</time>
      </trkpt>
      <trkpt lat="45.15726" lon="5.95896">
        <ele>2639.6</ele>
        <time>2020-08-11T08:27:03Z</time>
      </trkpt>
      <trkpt lat="45.15726" lon="5.95896">
        <ele>2640</ele>
        <time>2020-08-11T08:27:04Z</time>
      </trkpt>
      <trkpt lat="45.15726" lon="5.95896">
        <ele>2640</ele>
        <time>2020-08-11T08:27:05Z</time>
      </trkpt>
      <trkpt lat="45.15726" lon="5.95896">
        <ele>2640</ele>
        <time>2020-08-11T08:27:06Z</time>
      </trkpt>
      <trkpt lat="45.15726" lon="5.95896">
        <ele>2639.8</ele>
        <time>2020-08-11T08:27:07Z</time>
      </trkpt>
      <trkpt lat="45.15726" lon="5.95896">
        <ele>2640</ele>
        <time>2020-08-11T08:27:08Z</time>
      </trkpt>
      <trkpt lat="45.15726" lon="5.95896">
        <ele>2640</ele>
        <time>2020-08-11T08:27:09Z</time>
      </trkpt>
      <trkpt lat="45.15726" lon="5.95896">
        <ele>2639.8</ele>
        <time>2020-08-11T08:27:10Z</time>
      </trkpt>
      <trkpt lat="45.15726" lon="5.95896">
        <ele>2640</ele>
        <time>2020-08-11T08:27:11Z</time>
      </trkpt>
      <trkpt lat="45.15726" lon="5.95896">
        <ele>2640</ele>
        <time>2020-08-11T08:27:12Z</time>
      </trkpt>
      <trkpt lat="45.15726" lon="5.95896">
        <ele>2640</ele>
        <time>2020-08-11T08:27:13Z</time>
      </trkpt>
      <trkpt lat="45.15726" lon="5.95896">
        <ele>2640</ele>
        <time>2020-08-11T08:27:14Z</time>
      </trkpt>
      <trkpt lat="45.15726" lon="5.95896">
        <ele>2640.2</ele>
        <time>2020-08-11T08:27:15Z</time>
      </trkpt>
      <trkpt lat="45.15726" lon="5.95896">
        <ele>2640.4</ele>
        <time>2020-08-11T08:27:16Z</time>
      </trkpt>
      <trkpt lat="45.15726" lon="5.95896">
        <ele>2640.4</ele>
        <time>2020-08-11T08:27:17Z</time>
      </trkpt>
      <trkpt lat="45.15726" lon="5.95896">
        <ele>2640.4</ele>
        <time>2020-08-11T08:27:18Z</time>
      </trkpt>
      <trkpt lat="45.15726" lon="5.95896">
        <ele>2640.4</ele>
        <time>2020-08-11T08:27:19Z</time>
      </trkpt>
      <trkpt lat="45.15726" lon="5.95896">
        <ele>2640.4</ele>
        <time>2020-08-11T08:27:20Z</time>
      </trkpt>
      <trkpt lat="45.15726" lon="5.95896">
        <ele>2640</ele>
        <time>2020-08-11T08:27:21Z</time>
      </trkpt>
      <trkpt lat="45.15726" lon="5.95896">
        <ele>2640.2</ele>
        <time>2020-08-11T08:27:22Z</time>
      </trkpt>
      <trkpt lat="45.15726" lon="5.95896">
        <ele>2640.2</ele>
        <time>2020-08-11T08:27:23Z</time>
      </trkpt>
      <trkpt lat="45.15726" lon="5.95896">
        <ele>2640.4</ele>
        <time>2020-08-11T08:27:24Z</time>
      </trkpt>
      <trkpt lat="45.15726" lon="5.95896">
        <ele>2640.4</ele>
        <time>2020-08-11T08:27:25Z</time>
      </trkpt>
      <trkpt lat="45.15726" lon="5.95896">
        <ele>2640.4</ele>
        <time>2020-08-11T08:27:26Z</time>
      </trkpt>
      <trkpt lat="45.15726" lon="5.95896">
        <ele>2640.2</ele>
        <time>2020-08-11T08:27:27Z</time>
      </trkpt>
      <trkpt lat="45.15726" lon="5.95896">
        <ele>2640</ele>
        <time>2020-08-11T08:27:28Z</time>
      </trkpt>
      <trkpt lat="45.15726" lon="5.95896">
        <ele>2640</ele>
        <time>2020-08-11T08:27:29Z</time>
      </trkpt>
      <trkpt lat="45.15726" lon="5.95896">
        <ele>2640</ele>
        <time>2020-08-11T08:27:30Z</time>
      </trkpt>
      <trkpt lat="45.15726" lon="5.95896">
        <ele>2640</ele>
        <time>2020-08-11T08:27:31Z</time>
      </trkpt>
      <trkpt lat="45.15726" lon="5.95896">
        <ele>2640.2</ele>
        <time>2020-08-11T08:27:32Z</time>
      </trkpt>
      <trkpt lat="45.15726" lon="5.95896">
        <ele>2640.2</ele>
        <time>2020-08-11T08:27:33Z</time>
      </trkpt>
      <trkpt lat="45.15726" lon="5.95896">
        <ele>2640.2</ele>
        <time>2020-08-11T08:27:34Z</time>
      </trkpt>
      <trkpt lat="45.15726" lon="5.95896">
        <ele>2640.4</ele>
        <time>2020-08-11T08:27:35Z</time>
      </trkpt>
      <trkpt lat="45.15726" lon="5.95896">
        <ele>2640.2</ele>
        <time>2020-08-11T08:27:36Z</time>
      </trkpt>
      <trkpt lat="45.15726" lon="5.95896">
        <ele>2640.2</ele>
        <time>2020-08-11T08:27:37Z</time>
      </trkpt>
      <trkpt lat="45.15726" lon="5.95896">
        <ele>2640.2</ele>
        <time>2020-08-11T08:27:38Z</time>
      </trkpt>
      <trkpt lat="45.15726" lon="5.95896">
        <ele>2640.2</ele>
        <time>2020-08-11T08:27:39Z</time>
      </trkpt>
      <trkpt lat="45.15726" lon="5.95896">
        <ele>2640</ele>
        <time>2020-08-11T08:27:40Z</time>
      </trkpt>
      <trkpt lat="45.15726" lon="5.95896">
        <ele>2640</ele>
        <time>2020-08-11T08:27:41Z</time>
      </trkpt>
      <trkpt lat="45.15726" lon="5.95896">
        <ele>2639.8</ele>
        <time>2020-08-11T08:27:42Z</time>
      </trkpt>
      <trkpt lat="45.15726" lon="5.95896">
        <ele>2640</ele>
        <time>2020-08-11T08:27:43Z</time>
      </trkpt>
      <trkpt lat="45.15726" lon="5.95896">
        <ele>2640</ele>
        <time>2020-08-11T08:27:44Z</time>
      </trkpt>
      <trkpt lat="45.15726" lon="5.95896">
        <ele>2640</ele>
        <time>2020-08-11T08:27:45Z</time>
      </trkpt>
      <trkpt lat="45.15726" lon="5.95896">
        <ele>2640</ele>
        <time>2020-08-11T08:27:46Z</time>
      </trkpt>
      <trkpt lat="45.15726" lon="5.95896">
        <ele>2640</ele>
        <time>2020-08-11T08:27:47Z</time>
      </trkpt>
      <trkpt lat="45.15726" lon="5.95896">
        <ele>2640</ele>
        <time>2020-08-11T08:27:48Z</time>
      </trkpt>
      <trkpt lat="45.15726" lon="5.95896">
        <ele>2640</ele>
        <time>2020-08-11T08:27:49Z</time>
      </trkpt>
      <trkpt lat="45.15726" lon="5.95896">
        <ele>2640</ele>
        <time>2020-08-11T08:27:50Z</time>
      </trkpt>
      <trkpt lat="45.15726" lon="5.95896">
        <ele>2640</ele>
        <time>2020-08-11T08:27:51Z</time>
      </trkpt>
      <trkpt lat="45.15726" lon="5.95896">
        <ele>2640.2</ele>
        <time>2020-08-11T08:27:52Z</time>
      </trkpt>
      <trkpt lat="45.15726" lon="5.95896">
        <ele>2640.2</ele>
        <time>2020-08-11T08:27:53Z</time>
      </trkpt>
      <trkpt lat="45.15726" lon="5.95896">
        <ele>2640.2</ele>
        <time>2020-08-11T08:27:54Z</time>
      </trkpt>
      <trkpt lat="45.15726" lon="5.95896">
        <ele>2640.2</ele>
        <time>2020-08-11T08:27:55Z</time>
      </trkpt>
      <trkpt lat="45.15726" lon="5.95896">
        <ele>2640.2</ele>
        <time>2020-08-11T08:27:56Z</time>
      </trkpt>
      <trkpt lat="45.15726" lon="5.95896">
        <ele>2640</ele>
        <time>2020-08-11T08:27:57Z</time>
      </trkpt>
      <trkpt lat="45.15726" lon="5.95896">
        <ele>2640</ele>
        <time>2020-08-11T08:27:58Z</time>
      </trkpt>
      <trkpt lat="45.15726" lon="5.95896">
        <ele>2640</ele>
        <time>2020-08-11T08:27:59Z</time>
      </trkpt>
      <trkpt lat="45.15726" lon="5.95896">
        <ele>2640</ele>
        <time>2020-08-11T08:28:00Z</time>
      </trkpt>
      <trkpt lat="45.15726" lon="5.95896">
        <ele>2640.2</ele>
        <time>2020-08-11T08:28:01Z</time>
      </trkpt>
      <trkpt lat="45.15725" lon="5.95897">
        <ele>2640.4</ele>
        <time>2020-08-11T08:28:02Z</time>
      </trkpt>
      <trkpt lat="45.15725" lon="5.95897">
        <ele>2640.2</ele>
        <time>2020-08-11T08:28:03Z</time>
      </trkpt>
      <trkpt lat="45.15725" lon="5.95897">
        <ele>2639.8</ele>
        <time>2020-08-11T08:28:04Z</time>
      </trkpt>
      <trkpt lat="45.15725" lon="5.95897">
        <ele>2639.8</ele>
        <time>2020-08-11T08:28:05Z</time>
      </trkpt>
      <trkpt lat="45.15725" lon="5.95897">
        <ele>2640</ele>
        <time>2020-08-11T08:28:06Z</time>
      </trkpt>
      <trkpt lat="45.15725" lon="5.95897">
        <ele>2640</ele>
        <time>2020-08-11T08:28:07Z</time>
      </trkpt>
      <trkpt lat="45.15725" lon="5.95897">
        <ele>2640</ele>
        <time>2020-08-11T08:28:08Z</time>
      </trkpt>
      <trkpt lat="45.15725" lon="5.95897">
        <ele>2640</ele>
        <time>2020-08-11T08:28:09Z</time>
      </trkpt>
      <trkpt lat="45.15725" lon="5.95897">
        <ele>2640.2</ele>
        <time>2020-08-11T08:28:10Z</time>
      </trkpt>
      <trkpt lat="45.15725" lon="5.95897">
        <ele>2640.2</ele>
        <time>2020-08-11T08:28:11Z</time>
      </trkpt>
      <trkpt lat="45.15725" lon="5.95897">
        <ele>2640.2</ele>
        <time>2020-08-11T08:28:12Z</time>
      </trkpt>
      <trkpt lat="45.15725" lon="5.95897">
        <ele>2640.4</ele>
        <time>2020-08-11T08:28:13Z</time>
      </trkpt>
      <trkpt lat="45.15725" lon="5.95897">
        <ele>2640.2</ele>
        <time>2020-08-11T08:28:14Z</time>
      </trkpt>
      <trkpt lat="45.15725" lon="5.95897">
        <ele>2640.4</ele>
        <time>2020-08-11T08:28:15Z</time>
      </trkpt>
      <trkpt lat="45.15725" lon="5.95897">
        <ele>2640.6</ele>
        <time>2020-08-11T08:28:16Z</time>
      </trkpt>
      <trkpt lat="45.15725" lon="5.95897">
        <ele>2640.4</ele>
        <time>2020-08-11T08:28:17Z</time>
      </trkpt>
      <trkpt lat="45.15725" lon="5.95897">
        <ele>2640.6</ele>
        <time>2020-08-11T08:28:18Z</time>
      </trkpt>
      <trkpt lat="45.15725" lon="5.95897">
        <ele>2640.4</ele>
        <time>2020-08-11T08:28:19Z</time>
      </trkpt>
      <trkpt lat="45.15725" lon="5.95897">
        <ele>2640.4</ele>
        <time>2020-08-11T08:28:20Z</time>
      </trkpt>
      <trkpt lat="45.15725" lon="5.95897">
        <ele>2640.4</ele>
        <time>2020-08-11T08:28:21Z</time>
      </trkpt>
      <trkpt lat="45.15725" lon="5.95897">
        <ele>2640.4</ele>
        <time>2020-08-11T08:28:22Z</time>
      </trkpt>
      <trkpt lat="45.15725" lon="5.95897">
        <ele>2640.2</ele>
        <time>2020-08-11T08:28:23Z</time>
      </trkpt>
      <trkpt lat="45.15725" lon="5.95897">
        <ele>2640.4</ele>
        <time>2020-08-11T08:28:24Z</time>
      </trkpt>
      <trkpt lat="45.15725" lon="5.95897">
        <ele>2640.4</ele>
        <time>2020-08-11T08:28:25Z</time>
      </trkpt>
      <trkpt lat="45.15725" lon="5.95897">
        <ele>2640.4</ele>
        <time>2020-08-11T08:28:26Z</time>
      </trkpt>
      <trkpt lat="45.15725" lon="5.95897">
        <ele>2640.6</ele>
        <time>2020-08-11T08:28:27Z</time>
      </trkpt>
      <trkpt lat="45.15725" lon="5.95897">
        <ele>2640.6</ele>
        <time>2020-08-11T08:28:28Z</time>
      </trkpt>
      <trkpt lat="45.15725" lon="5.95897">
        <ele>2640.4</ele>
        <time>2020-08-11T08:28:29Z</time>
      </trkpt>
      <trkpt lat="45.15725" lon="5.95897">
        <ele>2640.4</ele>
        <time>2020-08-11T08:28:30Z</time>
      </trkpt>
      <trkpt lat="45.15725" lon="5.95897">
        <ele>2640.4</ele>
        <time>2020-08-11T08:28:31Z</time>
      </trkpt>
      <trkpt lat="45.15725" lon="5.95897">
        <ele>2640.2</ele>
        <time>2020-08-11T08:28:32Z</time>
      </trkpt>
      <trkpt lat="45.15725" lon="5.95897">
        <ele>2640</ele>
        <time>2020-08-11T08:28:33Z</time>
      </trkpt>
      <trkpt lat="45.15725" lon="5.95897">
        <ele>2640</ele>
        <time>2020-08-11T08:28:34Z</time>
      </trkpt>
      <trkpt lat="45.15725" lon="5.95897">
        <ele>2640</ele>
        <time>2020-08-11T08:28:35Z</time>
      </trkpt>
      <trkpt lat="45.15725" lon="5.95897">
        <ele>2640.2</ele>
        <time>2020-08-11T08:28:36Z</time>
      </trkpt>
      <trkpt lat="45.15725" lon="5.95897">
        <ele>2640</ele>
        <time>2020-08-11T08:28:37Z</time>
      </trkpt>
      <trkpt lat="45.15725" lon="5.95897">
        <ele>2640.2</ele>
        <time>2020-08-11T08:28:38Z</time>
      </trkpt>
      <trkpt lat="45.15725" lon="5.95897">
        <ele>2640.4</ele>
        <time>2020-08-11T08:28:39Z</time>
      </trkpt>
      <trkpt lat="45.15726" lon="5.95895">
        <ele>2640.4</ele>
        <time>2020-08-11T08:28:40Z</time>
      </trkpt>
      <trkpt lat="45.15726" lon="5.95895">
        <ele>2640.2</ele>
        <time>2020-08-11T08:28:41Z</time>
      </trkpt>
      <trkpt lat="45.15726" lon="5.95895">
        <ele>2640</ele>
        <time>2020-08-11T08:28:42Z</time>
      </trkpt>
      <trkpt lat="45.15726" lon="5.95895">
        <ele>2640</ele>
        <time>2020-08-11T08:28:43Z</time>
      </trkpt>
      <trkpt lat="45.15726" lon="5.95895">
        <ele>2639.8</ele>
        <time>2020-08-11T08:28:44Z</time>
      </trkpt>
      <trkpt lat="45.15726" lon="5.95895">
        <ele>2639.8</ele>
        <time>2020-08-11T08:28:45Z</time>
      </trkpt>
      <trkpt lat="45.15726" lon="5.95895">
        <ele>2639.6</ele>
        <time>2020-08-11T08:28:46Z</time>
      </trkpt>
      <trkpt lat="45.15726" lon="5.95895">
        <ele>2639.4</ele>
        <time>2020-08-11T08:28:47Z</time>
      </trkpt>
      <trkpt lat="45.15727" lon="5.95897">
        <ele>2639</ele>
        <time>2020-08-11T08:28:48Z</time>
      </trkpt>
      <trkpt lat="45.15727" lon="5.95897">
        <ele>2639.2</ele>
        <time>2020-08-11T08:28:49Z</time>
      </trkpt>
      <trkpt lat="45.15727" lon="5.95897">
        <ele>2639</ele>
        <time>2020-08-11T08:28:50Z</time>
      </trkpt>
      <trkpt lat="45.15727" lon="5.95897">
        <ele>2638.8</ele>
        <time>2020-08-11T08:28:51Z</time>
      </trkpt>
      <trkpt lat="45.15727" lon="5.95897">
        <ele>2639</ele>
        <time>2020-08-11T08:28:52Z</time>
      </trkpt>
      <trkpt lat="45.15727" lon="5.95897">
        <ele>2639</ele>
        <time>2020-08-11T08:28:53Z</time>
      </trkpt>
      <trkpt lat="45.15727" lon="5.95897">
        <ele>2639</ele>
        <time>2020-08-11T08:28:54Z</time>
      </trkpt>
      <trkpt lat="45.15727" lon="5.95897">
        <ele>2639.2</ele>
        <time>2020-08-11T08:28:55Z</time>
      </trkpt>
      <trkpt lat="45.15727" lon="5.95897">
        <ele>2639.2</ele>
        <time>2020-08-11T08:28:56Z</time>
      </trkpt>
      <trkpt lat="45.15727" lon="5.95897">
        <ele>2639.2</ele>
        <time>2020-08-11T08:28:57Z</time>
      </trkpt>
      <trkpt lat="45.15727" lon="5.95897">
        <ele>2639.2</ele>
        <time>2020-08-11T08:28:58Z</time>
      </trkpt>
      <trkpt lat="45.15727" lon="5.95897">
        <ele>2639.2</ele>
        <time>2020-08-11T08:28:59Z</time>
      </trkpt>
      <trkpt lat="45.15727" lon="5.95897">
        <ele>2639</ele>
        <time>2020-08-11T08:29:00Z</time>
      </trkpt>
      <trkpt lat="45.15727" lon="5.95897">
        <ele>2638.8</ele>
        <time>2020-08-11T08:29:01Z</time>
      </trkpt>
      <trkpt lat="45.15727" lon="5.95897">
        <ele>2638.8</ele>
        <time>2020-08-11T08:29:02Z</time>
      </trkpt>
      <trkpt lat="45.15727" lon="5.95897">
        <ele>2639</ele>
        <time>2020-08-11T08:29:03Z</time>
      </trkpt>
      <trkpt lat="45.15727" lon="5.95897">
        <ele>2639</ele>
        <time>2020-08-11T08:29:04Z</time>
      </trkpt>
      <trkpt lat="45.15727" lon="5.95897">
        <ele>2639</ele>
        <time>2020-08-11T08:29:05Z</time>
      </trkpt>
      <trkpt lat="45.15727" lon="5.95897">
        <ele>2639.2</ele>
        <time>2020-08-11T08:29:06Z</time>
      </trkpt>
      <trkpt lat="45.15727" lon="5.95897">
        <ele>2639.4</ele>
        <time>2020-08-11T08:29:07Z</time>
      </trkpt>
      <trkpt lat="45.15727" lon="5.95897">
        <ele>2639</ele>
        <time>2020-08-11T08:29:08Z</time>
      </trkpt>
      <trkpt lat="45.15727" lon="5.95897">
        <ele>2639</ele>
        <time>2020-08-11T08:29:09Z</time>
      </trkpt>
      <trkpt lat="45.15727" lon="5.95897">
        <ele>2639</ele>
        <time>2020-08-11T08:29:10Z</time>
      </trkpt>
      <trkpt lat="45.15727" lon="5.95897">
        <ele>2638.8</ele>
        <time>2020-08-11T08:29:11Z</time>
      </trkpt>
      <trkpt lat="45.15727" lon="5.95897">
        <ele>2638.8</ele>
        <time>2020-08-11T08:29:12Z</time>
      </trkpt>
      <trkpt lat="45.15727" lon="5.95897">
        <ele>2638.8</ele>
        <time>2020-08-11T08:29:13Z</time>
      </trkpt>
      <trkpt lat="45.15727" lon="5.95897">
        <ele>2638.6</ele>
        <time>2020-08-11T08:29:14Z</time>
      </trkpt>
      <trkpt lat="45.15727" lon="5.95897">
        <ele>2638.8</ele>
        <time>2020-08-11T08:29:15Z</time>
      </trkpt>
      <trkpt lat="45.15727" lon="5.95897">
        <ele>2638.8</ele>
        <time>2020-08-11T08:29:16Z</time>
      </trkpt>
      <trkpt lat="45.15727" lon="5.95897">
        <ele>2638.8</ele>
        <time>2020-08-11T08:29:17Z</time>
      </trkpt>
      <trkpt lat="45.15727" lon="5.95897">
        <ele>2638.6</ele>
        <time>2020-08-11T08:29:18Z</time>
      </trkpt>
      <trkpt lat="45.15727" lon="5.95897">
        <ele>2638.6</ele>
        <time>2020-08-11T08:29:19Z</time>
      </trkpt>
      <trkpt lat="45.15727" lon="5.95897">
        <ele>2638.8</ele>
        <time>2020-08-11T08:29:20Z</time>
      </trkpt>
      <trkpt lat="45.15727" lon="5.95897">
        <ele>2638.6</ele>
        <time>2020-08-11T08:29:21Z</time>
      </trkpt>
      <trkpt lat="45.15727" lon="5.95897">
        <ele>2638.8</ele>
        <time>2020-08-11T08:29:22Z</time>
      </trkpt>
      <trkpt lat="45.15727" lon="5.95897">
        <ele>2638.8</ele>
        <time>2020-08-11T08:29:23Z</time>
      </trkpt>
      <trkpt lat="45.15727" lon="5.95897">
        <ele>2638.8</ele>
        <time>2020-08-11T08:29:24Z</time>
      </trkpt>
      <trkpt lat="45.15727" lon="5.95897">
        <ele>2638.6</ele>
        <time>2020-08-11T08:29:25Z</time>
      </trkpt>
      <trkpt lat="45.15727" lon="5.95897">
        <ele>2638.6</ele>
        <time>2020-08-11T08:29:26Z</time>
      </trkpt>
      <trkpt lat="45.15727" lon="5.95897">
        <ele>2638.8</ele>
        <time>2020-08-11T08:29:27Z</time>
      </trkpt>
      <trkpt lat="45.15727" lon="5.95897">
        <ele>2638.8</ele>
        <time>2020-08-11T08:29:28Z</time>
      </trkpt>
      <trkpt lat="45.15727" lon="5.95897">
        <ele>2638.8</ele>
        <time>2020-08-11T08:29:29Z</time>
      </trkpt>
      <trkpt lat="45.15727" lon="5.95897">
        <ele>2638.6</ele>
        <time>2020-08-11T08:29:30Z</time>
      </trkpt>
      <trkpt lat="45.15727" lon="5.95897">
        <ele>2638.6</ele>
        <time>2020-08-11T08:29:31Z</time>
      </trkpt>
      <trkpt lat="45.15727" lon="5.95897">
        <ele>2638.8</ele>
        <time>2020-08-11T08:29:32Z</time>
      </trkpt>
      <trkpt lat="45.15727" lon="5.95897">
        <ele>2639</ele>
        <time>2020-08-11T08:29:33Z</time>
      </trkpt>
      <trkpt lat="45.15727" lon="5.95897">
        <ele>2639</ele>
        <time>2020-08-11T08:29:34Z</time>
      </trkpt>
      <trkpt lat="45.15727" lon="5.95897">
        <ele>2639.2</ele>
        <time>2020-08-11T08:29:35Z</time>
      </trkpt>
      <trkpt lat="45.15727" lon="5.95897">
        <ele>2639.4</ele>
        <time>2020-08-11T08:29:36Z</time>
      </trkpt>
      <trkpt lat="45.15727" lon="5.95897">
        <ele>2639.2</ele>
        <time>2020-08-11T08:29:37Z</time>
      </trkpt>
      <trkpt lat="45.15727" lon="5.95897">
        <ele>2639</ele>
        <time>2020-08-11T08:29:38Z</time>
      </trkpt>
      <trkpt lat="45.15727" lon="5.95897">
        <ele>2639</ele>
        <time>2020-08-11T08:29:39Z</time>
      </trkpt>
      <trkpt lat="45.15727" lon="5.95897">
        <ele>2639</ele>
        <time>2020-08-11T08:29:40Z</time>
      </trkpt>
      <trkpt lat="45.15727" lon="5.95897">
        <ele>2639</ele>
        <time>2020-08-11T08:29:41Z</time>
      </trkpt>
      <trkpt lat="45.15727" lon="5.95897">
        <ele>2639.2</ele>
        <time>2020-08-11T08:29:42Z</time>
      </trkpt>
      <trkpt lat="45.15727" lon="5.95897">
        <ele>2639</ele>
        <time>2020-08-11T08:29:43Z</time>
      </trkpt>
      <trkpt lat="45.15727" lon="5.95897">
        <ele>2639</ele>
        <time>2020-08-11T08:29:44Z</time>
      </trkpt>
      <trkpt lat="45.15727" lon="5.95897">
        <ele>2638.8</ele>
        <time>2020-08-11T08:29:45Z</time>
      </trkpt>
      <trkpt lat="45.15727" lon="5.95897">
        <ele>2638.8</ele>
        <time>2020-08-11T08:29:46Z</time>
      </trkpt>
      <trkpt lat="45.15727" lon="5.95897">
        <ele>2638.8</ele>
        <time>2020-08-11T08:29:47Z</time>
      </trkpt>
      <trkpt lat="45.15729" lon="5.95896">
        <ele>2638.6</ele>
        <time>2020-08-11T08:29:48Z</time>
      </trkpt>
      <trkpt lat="45.15729" lon="5.95896">
        <ele>2638.6</ele>
        <time>2020-08-11T08:29:49Z</time>
      </trkpt>
      <trkpt lat="45.15729" lon="5.95896">
        <ele>2638.6</ele>
        <time>2020-08-11T08:29:50Z</time>
      </trkpt>
      <trkpt lat="45.15729" lon="5.95896">
        <ele>2638.6</ele>
        <time>2020-08-11T08:29:51Z</time>
      </trkpt>
      <trkpt lat="45.15729" lon="5.95896">
        <ele>2638.6</ele>
        <time>2020-08-11T08:29:52Z</time>
      </trkpt>
      <trkpt lat="45.15729" lon="5.95896">
        <ele>2638.6</ele>
        <time>2020-08-11T08:29:53Z</time>
      </trkpt>
      <trkpt lat="45.15729" lon="5.95896">
        <ele>2638.8</ele>
        <time>2020-08-11T08:29:54Z</time>
      </trkpt>
      <trkpt lat="45.15729" lon="5.95896">
        <ele>2638.8</ele>
        <time>2020-08-11T08:29:55Z</time>
      </trkpt>
      <trkpt lat="45.15729" lon="5.95896">
        <ele>2639</ele>
        <time>2020-08-11T08:29:56Z</time>
      </trkpt>
      <trkpt lat="45.15729" lon="5.95896">
        <ele>2639</ele>
        <time>2020-08-11T08:29:57Z</time>
      </trkpt>
      <trkpt lat="45.15729" lon="5.95896">
        <ele>2639</ele>
        <time>2020-08-11T08:29:58Z</time>
      </trkpt>
      <trkpt lat="45.15729" lon="5.95896">
        <ele>2639</ele>
        <time>2020-08-11T08:29:59Z</time>
      </trkpt>
      <trkpt lat="45.15727" lon="5.95895">
        <ele>2639.2</ele>
        <time>2020-08-11T08:30:01Z</time>
      </trkpt>
      <trkpt lat="45.15727" lon="5.95895">
        <ele>2639.2</ele>
        <time>2020-08-11T08:30:02Z</time>
      </trkpt>
      <trkpt lat="45.15727" lon="5.95895">
        <ele>2639.2</ele>
        <time>2020-08-11T08:30:03Z</time>
      </trkpt>
      <trkpt lat="45.15727" lon="5.95895">
        <ele>2639</ele>
        <time>2020-08-11T08:30:04Z</time>
      </trkpt>
      <trkpt lat="45.15727" lon="5.95895">
        <ele>2639</ele>
        <time>2020-08-11T08:30:05Z</time>
      </trkpt>
      <trkpt lat="45.15727" lon="5.95895">
        <ele>2638.8</ele>
        <time>2020-08-11T08:30:06Z</time>
      </trkpt>
      <trkpt lat="45.15727" lon="5.95895">
        <ele>2639.4</ele>
        <time>2020-08-11T08:30:07Z</time>
      </trkpt>
      <trkpt lat="45.15727" lon="5.95895">
        <ele>2639.4</ele>
        <time>2020-08-11T08:30:08Z</time>
      </trkpt>
      <trkpt lat="45.15727" lon="5.95895">
        <ele>2639.6</ele>
        <time>2020-08-11T08:30:09Z</time>
      </trkpt>
      <trkpt lat="45.15727" lon="5.95895">
        <ele>2639.6</ele>
        <time>2020-08-11T08:30:10Z</time>
      </trkpt>
      <trkpt lat="45.15727" lon="5.95895">
        <ele>2639.8</ele>
        <time>2020-08-11T08:30:11Z</time>
      </trkpt>
      <trkpt lat="45.15727" lon="5.95895">
        <ele>2639.8</ele>
        <time>2020-08-11T08:30:12Z</time>
      </trkpt>
      <trkpt lat="45.15727" lon="5.95895">
        <ele>2640</ele>
        <time>2020-08-11T08:30:13Z</time>
      </trkpt>
      <trkpt lat="45.15727" lon="5.95895">
        <ele>2640</ele>
        <time>2020-08-11T08:30:14Z</time>
      </trkpt>
      <trkpt lat="45.15727" lon="5.95895">
        <ele>2640</ele>
        <time>2020-08-11T08:30:15Z</time>
      </trkpt>
      <trkpt lat="45.15727" lon="5.95895">
        <ele>2639.8</ele>
        <time>2020-08-11T08:30:16Z</time>
      </trkpt>
      <trkpt lat="45.15727" lon="5.95895">
        <ele>2639.8</ele>
        <time>2020-08-11T08:30:18Z</time>
      </trkpt>
      <trkpt lat="45.15727" lon="5.95895">
        <ele>2639.8</ele>
        <time>2020-08-11T08:30:19Z</time>
      </trkpt>
      <trkpt lat="45.15727" lon="5.95895">
        <ele>2639.8</ele>
        <time>2020-08-11T08:30:20Z</time>
      </trkpt>
      <trkpt lat="45.15727" lon="5.95895">
        <ele>2639.6</ele>
        <time>2020-08-11T08:30:21Z</time>
      </trkpt>
      <trkpt lat="45.15728" lon="5.95895">
        <ele>2639.6</ele>
        <time>2020-08-11T08:30:22Z</time>
      </trkpt>
      <trkpt lat="45.15728" lon="5.95895">
        <ele>2639.6</ele>
        <time>2020-08-11T08:30:23Z</time>
      </trkpt>
      <trkpt lat="45.15728" lon="5.95895">
        <ele>2639.6</ele>
        <time>2020-08-11T08:30:24Z</time>
      </trkpt>
      <trkpt lat="45.15728" lon="5.95895">
        <ele>2639.6</ele>
        <time>2020-08-11T08:30:25Z</time>
      </trkpt>
      <trkpt lat="45.15728" lon="5.95895">
        <ele>2639.6</ele>
        <time>2020-08-11T08:30:26Z</time>
      </trkpt>
      <trkpt lat="45.15728" lon="5.95895">
        <ele>2639.8</ele>
        <time>2020-08-11T08:30:27Z</time>
      </trkpt>
      <trkpt lat="45.15728" lon="5.95895">
        <ele>2639.8</ele>
        <time>2020-08-11T08:30:28Z</time>
      </trkpt>
      <trkpt lat="45.15728" lon="5.95895">
        <ele>2639.8</ele>
        <time>2020-08-11T08:30:29Z</time>
      </trkpt>
      <trkpt lat="45.15728" lon="5.95895">
        <ele>2639.6</ele>
        <time>2020-08-11T08:30:30Z</time>
      </trkpt>
      <trkpt lat="45.15728" lon="5.95895">
        <ele>2639.8</ele>
        <time>2020-08-11T08:30:31Z</time>
      </trkpt>
      <trkpt lat="45.15728" lon="5.95895">
        <ele>2639.8</ele>
        <time>2020-08-11T08:30:32Z</time>
      </trkpt>
      <trkpt lat="45.15728" lon="5.95895">
        <ele>2639.8</ele>
        <time>2020-08-11T08:30:33Z</time>
      </trkpt>
      <trkpt lat="45.15728" lon="5.95895">
        <ele>2639.8</ele>
        <time>2020-08-11T08:30:34Z</time>
      </trkpt>
      <trkpt lat="45.15728" lon="5.95895">
        <ele>2639.8</ele>
        <time>2020-08-11T08:30:35Z</time>
      </trkpt>
      <trkpt lat="45.15728" lon="5.95895">
        <ele>2639.8</ele>
        <time>2020-08-11T08:30:36Z</time>
      </trkpt>
      <trkpt lat="45.15728" lon="5.95895">
        <ele>2639.8</ele>
        <time>2020-08-11T08:30:37Z</time>
      </trkpt>
      <trkpt lat="45.1573" lon="5.95897">
        <ele>2639.8</ele>
        <time>2020-08-11T08:30:38Z</time>
      </trkpt>
      <trkpt lat="45.1573" lon="5.95897">
        <ele>2639.8</ele>
        <time>2020-08-11T08:30:39Z</time>
      </trkpt>
      <trkpt lat="45.1573" lon="5.95897">
        <ele>2640</ele>
        <time>2020-08-11T08:30:40Z</time>
      </trkpt>
      <trkpt lat="45.1573" lon="5.95897">
        <ele>2640</ele>
        <time>2020-08-11T08:30:41Z</time>
      </trkpt>
      <trkpt lat="45.1573" lon="5.95897">
        <ele>2639.8</ele>
        <time>2020-08-11T08:30:42Z</time>
      </trkpt>
      <trkpt lat="45.1573" lon="5.95897">
        <ele>2639.8</ele>
        <time>2020-08-11T08:30:43Z</time>
      </trkpt>
      <trkpt lat="45.1573" lon="5.95897">
        <ele>2639.8</ele>
        <time>2020-08-11T08:30:44Z</time>
      </trkpt>
      <trkpt lat="45.1573" lon="5.95897">
        <ele>2639.8</ele>
        <time>2020-08-11T08:30:45Z</time>
      </trkpt>
      <trkpt lat="45.1573" lon="5.95897">
        <ele>2639.6</ele>
        <time>2020-08-11T08:30:46Z</time>
      </trkpt>
      <trkpt lat="45.1573" lon="5.95897">
        <ele>2639.6</ele>
        <time>2020-08-11T08:30:47Z</time>
      </trkpt>
      <trkpt lat="45.1573" lon="5.95897">
        <ele>2639.8</ele>
        <time>2020-08-11T08:30:48Z</time>
      </trkpt>
      <trkpt lat="45.1573" lon="5.95897">
        <ele>2639.8</ele>
        <time>2020-08-11T08:30:49Z</time>
      </trkpt>
      <trkpt lat="45.1573" lon="5.95897">
        <ele>2639.8</ele>
        <time>2020-08-11T08:30:50Z</time>
      </trkpt>
      <trkpt lat="45.1573" lon="5.95897">
        <ele>2639.6</ele>
        <time>2020-08-11T08:30:51Z</time>
      </trkpt>
      <trkpt lat="45.15729" lon="5.959">
        <ele>2639.6</ele>
        <time>2020-08-11T08:30:52Z</time>
      </trkpt>
      <trkpt lat="45.15729" lon="5.959">
        <ele>2639.6</ele>
        <time>2020-08-11T08:30:53Z</time>
      </trkpt>
      <trkpt lat="45.15729" lon="5.95898">
        <ele>2639.6</ele>
        <time>2020-08-11T08:30:54Z</time>
      </trkpt>
      <trkpt lat="45.15728" lon="5.95897">
        <ele>2639.6</ele>
        <time>2020-08-11T08:30:55Z</time>
      </trkpt>
      <trkpt lat="45.15727" lon="5.95895">
        <ele>2639.6</ele>
        <time>2020-08-11T08:30:56Z</time>
      </trkpt>
      <trkpt lat="45.15726" lon="5.95894">
        <ele>2639.6</ele>
        <time>2020-08-11T08:30:57Z</time>
      </trkpt>
      <trkpt lat="45.15726" lon="5.95892">
        <ele>2639.6</ele>
        <time>2020-08-11T08:30:58Z</time>
      </trkpt>
      <trkpt lat="45.15725" lon="5.95891">
        <ele>2639.4</ele>
        <time>2020-08-11T08:30:59Z</time>
      </trkpt>
      <trkpt lat="45.15724" lon="5.95889">
        <ele>2639.6</ele>
        <time>2020-08-11T08:31:00Z</time>
      </trkpt>
      <trkpt lat="45.15723" lon="5.95888">
        <ele>2639.6</ele>
        <time>2020-08-11T08:31:01Z</time>
      </trkpt>
      <trkpt lat="45.15723" lon="5.95886">
        <ele>2639.8</ele>
        <time>2020-08-11T08:31:02Z</time>
      </trkpt>
      <trkpt lat="45.15722" lon="5.95887">
        <ele>2639.6</ele>
        <time>2020-08-11T08:31:03Z</time>
      </trkpt>
      <trkpt lat="45.15722" lon="5.95887">
        <ele>2639.8</ele>
        <time>2020-08-11T08:31:04Z</time>
      </trkpt>
      <trkpt lat="45.15722" lon="5.95887">
        <ele>2639.8</ele>
        <time>2020-08-11T08:31:05Z</time>
      </trkpt>
      <trkpt lat="45.15721" lon="5.95887">
        <ele>2639.8</ele>
        <time>2020-08-11T08:31:06Z</time>
      </trkpt>
      <trkpt lat="45.15721" lon="5.95887">
        <ele>2639.8</ele>
        <time>2020-08-11T08:31:07Z</time>
      </trkpt>
      <trkpt lat="45.15721" lon="5.95887">
        <ele>2639.8</ele>
        <time>2020-08-11T08:31:08Z</time>
      </trkpt>
      <trkpt lat="45.15721" lon="5.95887">
        <ele>2639.6</ele>
        <time>2020-08-11T08:31:09Z</time>
      </trkpt>
      <trkpt lat="45.1572" lon="5.95888">
        <ele>2639.8</ele>
        <time>2020-08-11T08:31:10Z</time>
      </trkpt>
      <trkpt lat="45.1572" lon="5.95888">
        <ele>2639.8</ele>
        <time>2020-08-11T08:31:11Z</time>
      </trkpt>
      <trkpt lat="45.1572" lon="5.95888">
        <ele>2639.8</ele>
        <time>2020-08-11T08:31:12Z</time>
      </trkpt>
      <trkpt lat="45.15719" lon="5.95888">
        <ele>2639.6</ele>
        <time>2020-08-11T08:31:13Z</time>
      </trkpt>
      <trkpt lat="45.15719" lon="5.95888">
        <ele>2639.6</ele>
        <time>2020-08-11T08:31:14Z</time>
      </trkpt>
      <trkpt lat="45.15719" lon="5.95888">
        <ele>2639.8</ele>
        <time>2020-08-11T08:31:15Z</time>
      </trkpt>
      <trkpt lat="45.15718" lon="5.95888">
        <ele>2639.6</ele>
        <time>2020-08-11T08:31:16Z</time>
      </trkpt>
      <trkpt lat="45.15718" lon="5.95889">
        <ele>2639.8</ele>
        <time>2020-08-11T08:31:17Z</time>
      </trkpt>
      <trkpt lat="45.15718" lon="5.95889">
        <ele>2639.8</ele>
        <time>2020-08-11T08:31:18Z</time>
      </trkpt>
      <trkpt lat="45.15718" lon="5.95889">
        <ele>2639.8</ele>
        <time>2020-08-11T08:31:19Z</time>
      </trkpt>
      <trkpt lat="45.15717" lon="5.95889">
        <ele>2639.8</ele>
        <time>2020-08-11T08:31:20Z</time>
      </trkpt>
      <trkpt lat="45.15717" lon="5.95889">
        <ele>2639.6</ele>
        <time>2020-08-11T08:31:21Z</time>
      </trkpt>
      <trkpt lat="45.15717" lon="5.95889">
        <ele>2639.8</ele>
        <time>2020-08-11T08:31:22Z</time>
      </trkpt>
      <trkpt lat="45.15716" lon="5.95889">
        <ele>2639.6</ele>
        <time>2020-08-11T08:31:23Z</time>
      </trkpt>
      <trkpt lat="45.15716" lon="5.9589">
        <ele>2639.8</ele>
        <time>2020-08-11T08:31:24Z</time>
      </trkpt>
      <trkpt lat="45.15716" lon="5.9589">
        <ele>2639.6</ele>
        <time>2020-08-11T08:31:25Z</time>
      </trkpt>
      <trkpt lat="45.15716" lon="5.9589">
        <ele>2639.6</ele>
        <time>2020-08-11T08:31:26Z</time>
      </trkpt>
      <trkpt lat="45.15715" lon="5.9589">
        <ele>2639.6</ele>
        <time>2020-08-11T08:31:27Z</time>
      </trkpt>
      <trkpt lat="45.15715" lon="5.9589">
        <ele>2639.4</ele>
        <time>2020-08-11T08:31:28Z</time>
      </trkpt>
      <trkpt lat="45.15715" lon="5.9589">
        <ele>2639.4</ele>
        <time>2020-08-11T08:31:29Z</time>
      </trkpt>
      <trkpt lat="45.15714" lon="5.9589">
        <ele>2639.4</ele>
        <time>2020-08-11T08:31:30Z</time>
      </trkpt>
      <trkpt lat="45.15714" lon="5.95891">
        <ele>2639.4</ele>
        <time>2020-08-11T08:31:31Z</time>
      </trkpt>
      <trkpt lat="45.15714" lon="5.95891">
        <ele>2639.2</ele>
        <time>2020-08-11T08:31:32Z</time>
      </trkpt>
      <trkpt lat="45.15714" lon="5.95891">
        <ele>2639.2</ele>
        <time>2020-08-11T08:31:33Z</time>
      </trkpt>
      <trkpt lat="45.15714" lon="5.9589">
        <ele>2639.4</ele>
        <time>2020-08-11T08:31:34Z</time>
      </trkpt>
      <trkpt lat="45.15714" lon="5.9589">
        <ele>2639.4</ele>
        <time>2020-08-11T08:31:35Z</time>
      </trkpt>
      <trkpt lat="45.15714" lon="5.9589">
        <ele>2639.2</ele>
        <time>2020-08-11T08:31:36Z</time>
      </trkpt>
      <trkpt lat="45.15714" lon="5.9589">
        <ele>2639.4</ele>
        <time>2020-08-11T08:31:37Z</time>
      </trkpt>
      <trkpt lat="45.15714" lon="5.9589">
        <ele>2639.4</ele>
        <time>2020-08-11T08:31:38Z</time>
      </trkpt>
      <trkpt lat="45.15714" lon="5.95889">
        <ele>2639.4</ele>
        <time>2020-08-11T08:31:39Z</time>
      </trkpt>
      <trkpt lat="45.15715" lon="5.95889">
        <ele>2639.4</ele>
        <time>2020-08-11T08:31:40Z</time>
      </trkpt>
      <trkpt lat="45.15715" lon="5.95889">
        <ele>2639.4</ele>
        <time>2020-08-11T08:31:41Z</time>
      </trkpt>
      <trkpt lat="45.15715" lon="5.95889">
        <ele>2639.2</ele>
        <time>2020-08-11T08:31:42Z</time>
      </trkpt>
      <trkpt lat="45.15715" lon="5.95889">
        <ele>2639.4</ele>
        <time>2020-08-11T08:31:43Z</time>
      </trkpt>
      <trkpt lat="45.15715" lon="5.95888">
        <ele>2639.4</ele>
        <time>2020-08-11T08:31:44Z</time>
      </trkpt>
      <trkpt lat="45.15715" lon="5.95888">
        <ele>2639.4</ele>
        <time>2020-08-11T08:31:45Z</time>
      </trkpt>
      <trkpt lat="45.15715" lon="5.95888">
        <ele>2639.4</ele>
        <time>2020-08-11T08:31:46Z</time>
      </trkpt>
      <trkpt lat="45.15715" lon="5.95888">
        <ele>2639.2</ele>
        <time>2020-08-11T08:31:47Z</time>
      </trkpt>
      <trkpt lat="45.15715" lon="5.95888">
        <ele>2639.2</ele>
        <time>2020-08-11T08:31:48Z</time>
      </trkpt>
      <trkpt lat="45.15715" lon="5.95888">
        <ele>2639.2</ele>
        <time>2020-08-11T08:31:49Z</time>
      </trkpt>
      <trkpt lat="45.15715" lon="5.95887">
        <ele>2639.4</ele>
        <time>2020-08-11T08:31:50Z</time>
      </trkpt>
      <trkpt lat="45.15716" lon="5.95887">
        <ele>2639.6</ele>
        <time>2020-08-11T08:31:51Z</time>
      </trkpt>
      <trkpt lat="45.15716" lon="5.95887">
        <ele>2639.6</ele>
        <time>2020-08-11T08:31:52Z</time>
      </trkpt>
      <trkpt lat="45.15716" lon="5.95887">
        <ele>2639.6</ele>
        <time>2020-08-11T08:31:53Z</time>
      </trkpt>
      <trkpt lat="45.15716" lon="5.95887">
        <ele>2639.6</ele>
        <time>2020-08-11T08:31:54Z</time>
      </trkpt>
      <trkpt lat="45.15716" lon="5.95886">
        <ele>2639.6</ele>
        <time>2020-08-11T08:31:55Z</time>
      </trkpt>
      <trkpt lat="45.15716" lon="5.95886">
        <ele>2639.8</ele>
        <time>2020-08-11T08:31:56Z</time>
      </trkpt>
      <trkpt lat="45.15716" lon="5.95886">
        <ele>2639.6</ele>
        <time>2020-08-11T08:31:57Z</time>
      </trkpt>
      <trkpt lat="45.15716" lon="5.95886">
        <ele>2639.8</ele>
        <time>2020-08-11T08:31:58Z</time>
      </trkpt>
      <trkpt lat="45.15716" lon="5.95886">
        <ele>2639.6</ele>
        <time>2020-08-11T08:31:59Z</time>
      </trkpt>
      <trkpt lat="45.15716" lon="5.95885">
        <ele>2639.4</ele>
        <time>2020-08-11T08:32:00Z</time>
      </trkpt>
      <trkpt lat="45.15716" lon="5.95885">
        <ele>2639.6</ele>
        <time>2020-08-11T08:32:01Z</time>
      </trkpt>
      <trkpt lat="45.15717" lon="5.95885">
        <ele>2639.8</ele>
        <time>2020-08-11T08:32:02Z</time>
      </trkpt>
      <trkpt lat="45.15717" lon="5.95885">
        <ele>2639.8</ele>
        <time>2020-08-11T08:32:03Z</time>
      </trkpt>
      <trkpt lat="45.15717" lon="5.95885">
        <ele>2639.6</ele>
        <time>2020-08-11T08:32:04Z</time>
      </trkpt>
      <trkpt lat="45.15717" lon="5.95885">
        <ele>2639.4</ele>
        <time>2020-08-11T08:32:05Z</time>
      </trkpt>
      <trkpt lat="45.15717" lon="5.95885">
        <ele>2639.4</ele>
        <time>2020-08-11T08:32:06Z</time>
      </trkpt>
      <trkpt lat="45.15717" lon="5.95885">
        <ele>2639.2</ele>
        <time>2020-08-11T08:32:07Z</time>
      </trkpt>
      <trkpt lat="45.15718" lon="5.95887">
        <ele>2639.2</ele>
        <time>2020-08-11T08:32:08Z</time>
      </trkpt>
      <trkpt lat="45.15718" lon="5.95887">
        <ele>2639.2</ele>
        <time>2020-08-11T08:32:09Z</time>
      </trkpt>
      <trkpt lat="45.15718" lon="5.95887">
        <ele>2639</ele>
        <time>2020-08-11T08:32:10Z</time>
      </trkpt>
      <trkpt lat="45.15718" lon="5.95887">
        <ele>2639.2</ele>
        <time>2020-08-11T08:32:11Z</time>
      </trkpt>
      <trkpt lat="45.15718" lon="5.95887">
        <ele>2639.2</ele>
        <time>2020-08-11T08:32:12Z</time>
      </trkpt>
      <trkpt lat="45.15718" lon="5.95887">
        <ele>2639.2</ele>
        <time>2020-08-11T08:32:13Z</time>
      </trkpt>
      <trkpt lat="45.15718" lon="5.95887">
        <ele>2639.2</ele>
        <time>2020-08-11T08:32:14Z</time>
      </trkpt>
      <trkpt lat="45.15718" lon="5.95887">
        <ele>2639</ele>
        <time>2020-08-11T08:32:15Z</time>
      </trkpt>
      <trkpt lat="45.15718" lon="5.95887">
        <ele>2639</ele>
        <time>2020-08-11T08:32:16Z</time>
      </trkpt>
      <trkpt lat="45.15718" lon="5.95887">
        <ele>2639</ele>
        <time>2020-08-11T08:32:17Z</time>
      </trkpt>
      <trkpt lat="45.15718" lon="5.95887">
        <ele>2639.2</ele>
        <time>2020-08-11T08:32:18Z</time>
      </trkpt>
      <trkpt lat="45.15718" lon="5.95887">
        <ele>2639.4</ele>
        <time>2020-08-11T08:32:19Z</time>
      </trkpt>
      <trkpt lat="45.15718" lon="5.95887">
        <ele>2639.6</ele>
        <time>2020-08-11T08:32:20Z</time>
      </trkpt>
      <trkpt lat="45.15718" lon="5.95887">
        <ele>2639.6</ele>
        <time>2020-08-11T08:32:21Z</time>
      </trkpt>
      <trkpt lat="45.15718" lon="5.95887">
        <ele>2639.8</ele>
        <time>2020-08-11T08:32:22Z</time>
      </trkpt>
      <trkpt lat="45.15718" lon="5.95887">
        <ele>2639.8</ele>
        <time>2020-08-11T08:32:23Z</time>
      </trkpt>
      <trkpt lat="45.15718" lon="5.95887">
        <ele>2639.6</ele>
        <time>2020-08-11T08:32:24Z</time>
      </trkpt>
      <trkpt lat="45.15718" lon="5.95887">
        <ele>2639.8</ele>
        <time>2020-08-11T08:32:25Z</time>
      </trkpt>
      <trkpt lat="45.15718" lon="5.95887">
        <ele>2640</ele>
        <time>2020-08-11T08:32:26Z</time>
      </trkpt>
      <trkpt lat="45.15718" lon="5.95887">
        <ele>2640</ele>
        <time>2020-08-11T08:32:27Z</time>
      </trkpt>
      <trkpt lat="45.15718" lon="5.95887">
        <ele>2639.8</ele>
        <time>2020-08-11T08:32:28Z</time>
      </trkpt>
      <trkpt lat="45.1572" lon="5.95889">
        <ele>2640</ele>
        <time>2020-08-11T08:32:29Z</time>
      </trkpt>
      <trkpt lat="45.1572" lon="5.95889">
        <ele>2640</ele>
        <time>2020-08-11T08:32:30Z</time>
      </trkpt>
      <trkpt lat="45.1572" lon="5.95889">
        <ele>2639.8</ele>
        <time>2020-08-11T08:32:31Z</time>
      </trkpt>
      <trkpt lat="45.1572" lon="5.95889">
        <ele>2639.6</ele>
        <time>2020-08-11T08:32:32Z</time>
      </trkpt>
      <trkpt lat="45.1572" lon="5.95889">
        <ele>2639.6</ele>
        <time>2020-08-11T08:32:33Z</time>
      </trkpt>
      <trkpt lat="45.1572" lon="5.95889">
        <ele>2640</ele>
        <time>2020-08-11T08:32:34Z</time>
      </trkpt>
      <trkpt lat="45.1572" lon="5.95889">
        <ele>2640.2</ele>
        <time>2020-08-11T08:32:35Z</time>
      </trkpt>
      <trkpt lat="45.1572" lon="5.95889">
        <ele>2640.4</ele>
        <time>2020-08-11T08:32:36Z</time>
      </trkpt>
      <trkpt lat="45.15722" lon="5.95889">
        <ele>2640.6</ele>
        <time>2020-08-11T08:32:37Z</time>
      </trkpt>
      <trkpt lat="45.15722" lon="5.95889">
        <ele>2640.2</ele>
        <time>2020-08-11T08:32:38Z</time>
      </trkpt>
      <trkpt lat="45.15722" lon="5.95889">
        <ele>2640</ele>
        <time>2020-08-11T08:32:39Z</time>
      </trkpt>
      <trkpt lat="45.15722" lon="5.95889">
        <ele>2639.8</ele>
        <time>2020-08-11T08:32:40Z</time>
      </trkpt>
      <trkpt lat="45.15722" lon="5.95889">
        <ele>2639.8</ele>
        <time>2020-08-11T08:32:41Z</time>
      </trkpt>
      <trkpt lat="45.15722" lon="5.95889">
        <ele>2639.6</ele>
        <time>2020-08-11T08:32:42Z</time>
      </trkpt>
      <trkpt lat="45.15722" lon="5.95889">
        <ele>2639.6</ele>
        <time>2020-08-11T08:32:43Z</time>
      </trkpt>
      <trkpt lat="45.15722" lon="5.95889">
        <ele>2639.8</ele>
        <time>2020-08-11T08:32:44Z</time>
      </trkpt>
      <trkpt lat="45.15722" lon="5.95889">
        <ele>2639.6</ele>
        <time>2020-08-11T08:32:45Z</time>
      </trkpt>
      <trkpt lat="45.15722" lon="5.95889">
        <ele>2639.6</ele>
        <time>2020-08-11T08:32:46Z</time>
      </trkpt>
      <trkpt lat="45.15722" lon="5.95889">
        <ele>2639.6</ele>
        <time>2020-08-11T08:32:47Z</time>
      </trkpt>
      <trkpt lat="45.15722" lon="5.95889">
        <ele>2639.6</ele>
        <time>2020-08-11T08:32:48Z</time>
      </trkpt>
      <trkpt lat="45.15722" lon="5.95889">
        <ele>2639.6</ele>
        <time>2020-08-11T08:32:49Z</time>
      </trkpt>
      <trkpt lat="45.1572" lon="5.95889">
        <ele>2639.8</ele>
        <time>2020-08-11T08:32:50Z</time>
      </trkpt>
      <trkpt lat="45.1572" lon="5.95889">
        <ele>2639.6</ele>
        <time>2020-08-11T08:32:51Z</time>
      </trkpt>
      <trkpt lat="45.1572" lon="5.95889">
        <ele>2639.2</ele>
        <time>2020-08-11T08:32:52Z</time>
      </trkpt>
      <trkpt lat="45.1572" lon="5.95889">
        <ele>2639.4</ele>
        <time>2020-08-11T08:32:53Z</time>
      </trkpt>
      <trkpt lat="45.1572" lon="5.95889">
        <ele>2639</ele>
        <time>2020-08-11T08:32:54Z</time>
      </trkpt>
      <trkpt lat="45.1572" lon="5.95889">
        <ele>2639.2</ele>
        <time>2020-08-11T08:32:55Z</time>
      </trkpt>
      <trkpt lat="45.15718" lon="5.95889">
        <ele>2639.2</ele>
        <time>2020-08-11T08:32:56Z</time>
      </trkpt>
      <trkpt lat="45.15718" lon="5.95889">
        <ele>2639.2</ele>
        <time>2020-08-11T08:32:57Z</time>
      </trkpt>
      <trkpt lat="45.15718" lon="5.95889">
        <ele>2639.2</ele>
        <time>2020-08-11T08:32:58Z</time>
      </trkpt>
      <trkpt lat="45.15718" lon="5.95889">
        <ele>2639.2</ele>
        <time>2020-08-11T08:32:59Z</time>
      </trkpt>
      <trkpt lat="45.15718" lon="5.95889">
        <ele>2639.4</ele>
        <time>2020-08-11T08:33:00Z</time>
      </trkpt>
      <trkpt lat="45.15718" lon="5.95889">
        <ele>2639.4</ele>
        <time>2020-08-11T08:33:01Z</time>
      </trkpt>
      <trkpt lat="45.15717" lon="5.95889">
        <ele>2639.6</ele>
        <time>2020-08-11T08:33:02Z</time>
      </trkpt>
      <trkpt lat="45.15717" lon="5.95889">
        <ele>2639.8</ele>
        <time>2020-08-11T08:33:03Z</time>
      </trkpt>
      <trkpt lat="45.15717" lon="5.95889">
        <ele>2639.6</ele>
        <time>2020-08-11T08:33:04Z</time>
      </trkpt>
      <trkpt lat="45.15717" lon="5.95889">
        <ele>2640</ele>
        <time>2020-08-11T08:33:05Z</time>
      </trkpt>
      <trkpt lat="45.15717" lon="5.95889">
        <ele>2640.2</ele>
        <time>2020-08-11T08:33:06Z</time>
      </trkpt>
      <trkpt lat="45.15717" lon="5.95889">
        <ele>2640.4</ele>
        <time>2020-08-11T08:33:07Z</time>
      </trkpt>
      <trkpt lat="45.15717" lon="5.95889">
        <ele>2640.6</ele>
        <time>2020-08-11T08:33:08Z</time>
      </trkpt>
      <trkpt lat="45.15717" lon="5.95889">
        <ele>2640.4</ele>
        <time>2020-08-11T08:33:09Z</time>
      </trkpt>
      <trkpt lat="45.15717" lon="5.95889">
        <ele>2640.2</ele>
        <time>2020-08-11T08:33:10Z</time>
      </trkpt>
      <trkpt lat="45.15717" lon="5.95889">
        <ele>2640</ele>
        <time>2020-08-11T08:33:11Z</time>
      </trkpt>
      <trkpt lat="45.15717" lon="5.95889">
        <ele>2640</ele>
        <time>2020-08-11T08:33:12Z</time>
      </trkpt>
      <trkpt lat="45.15717" lon="5.95889">
        <ele>2639.8</ele>
        <time>2020-08-11T08:33:13Z</time>
      </trkpt>
      <trkpt lat="45.15717" lon="5.95889">
        <ele>2640</ele>
        <time>2020-08-11T08:33:14Z</time>
      </trkpt>
      <trkpt lat="45.15716" lon="5.95889">
        <ele>2640</ele>
        <time>2020-08-11T08:33:15Z</time>
      </trkpt>
      <trkpt lat="45.15716" lon="5.95889">
        <ele>2639.8</ele>
        <time>2020-08-11T08:33:16Z</time>
      </trkpt>
      <trkpt lat="45.15716" lon="5.95889">
        <ele>2639.8</ele>
        <time>2020-08-11T08:33:17Z</time>
      </trkpt>
      <trkpt lat="45.15716" lon="5.95889">
        <ele>2640</ele>
        <time>2020-08-11T08:33:18Z</time>
      </trkpt>
      <trkpt lat="45.15716" lon="5.95889">
        <ele>2640.2</ele>
        <time>2020-08-11T08:33:19Z</time>
      </trkpt>
      <trkpt lat="45.15716" lon="5.95889">
        <ele>2640</ele>
        <time>2020-08-11T08:33:20Z</time>
      </trkpt>
      <trkpt lat="45.15716" lon="5.95889">
        <ele>2640</ele>
        <time>2020-08-11T08:33:21Z</time>
      </trkpt>
      <trkpt lat="45.15716" lon="5.95889">
        <ele>2640</ele>
        <time>2020-08-11T08:33:22Z</time>
      </trkpt>
      <trkpt lat="45.15716" lon="5.95889">
        <ele>2640</ele>
        <time>2020-08-11T08:33:23Z</time>
      </trkpt>
      <trkpt lat="45.15716" lon="5.95889">
        <ele>2640</ele>
        <time>2020-08-11T08:33:24Z</time>
      </trkpt>
      <trkpt lat="45.15716" lon="5.95889">
        <ele>2640.2</ele>
        <time>2020-08-11T08:33:25Z</time>
      </trkpt>
      <trkpt lat="45.15716" lon="5.95889">
        <ele>2640.2</ele>
        <time>2020-08-11T08:33:26Z</time>
      </trkpt>
      <trkpt lat="45.15716" lon="5.95889">
        <ele>2640.2</ele>
        <time>2020-08-11T08:33:27Z</time>
      </trkpt>
      <trkpt lat="45.15715" lon="5.95889">
        <ele>2640</ele>
        <time>2020-08-11T08:33:28Z</time>
      </trkpt>
      <trkpt lat="45.15715" lon="5.95889">
        <ele>2640</ele>
        <time>2020-08-11T08:33:29Z</time>
      </trkpt>
      <trkpt lat="45.15715" lon="5.95889">
        <ele>2640</ele>
        <time>2020-08-11T08:33:30Z</time>
      </trkpt>
      <trkpt lat="45.15715" lon="5.95889">
        <ele>2640</ele>
        <time>2020-08-11T08:33:31Z</time>
      </trkpt>
      <trkpt lat="45.15715" lon="5.95889">
        <ele>2640.2</ele>
        <time>2020-08-11T08:33:32Z</time>
      </trkpt>
      <trkpt lat="45.15715" lon="5.95889">
        <ele>2640.4</ele>
        <time>2020-08-11T08:33:33Z</time>
      </trkpt>
      <trkpt lat="45.15715" lon="5.95889">
        <ele>2640.2</ele>
        <time>2020-08-11T08:33:34Z</time>
      </trkpt>
      <trkpt lat="45.15715" lon="5.95889">
        <ele>2640.4</ele>
        <time>2020-08-11T08:33:35Z</time>
      </trkpt>
      <trkpt lat="45.15715" lon="5.95889">
        <ele>2640.4</ele>
        <time>2020-08-11T08:33:36Z</time>
      </trkpt>
      <trkpt lat="45.15715" lon="5.95889">
        <ele>2640.4</ele>
        <time>2020-08-11T08:33:37Z</time>
      </trkpt>
      <trkpt lat="45.15715" lon="5.95889">
        <ele>2640.4</ele>
        <time>2020-08-11T08:33:38Z</time>
      </trkpt>
      <trkpt lat="45.15715" lon="5.95889">
        <ele>2640.4</ele>
        <time>2020-08-11T08:33:39Z</time>
      </trkpt>
      <trkpt lat="45.15715" lon="5.95889">
        <ele>2640.4</ele>
        <time>2020-08-11T08:33:40Z</time>
      </trkpt>
      <trkpt lat="45.15714" lon="5.95889">
        <ele>2640.4</ele>
        <time>2020-08-11T08:33:41Z</time>
      </trkpt>
      <trkpt lat="45.15714" lon="5.95889">
        <ele>2640.4</ele>
        <time>2020-08-11T08:33:42Z</time>
      </trkpt>
      <trkpt lat="45.15714" lon="5.95889">
        <ele>2640.4</ele>
        <time>2020-08-11T08:33:43Z</time>
      </trkpt>
      <trkpt lat="45.15714" lon="5.95889">
        <ele>2640.4</ele>
        <time>2020-08-11T08:33:44Z</time>
      </trkpt>
      <trkpt lat="45.15714" lon="5.95889">
        <ele>2640.2</ele>
        <time>2020-08-11T08:33:45Z</time>
      </trkpt>
      <trkpt lat="45.15714" lon="5.95889">
        <ele>2640.2</ele>
        <time>2020-08-11T08:33:46Z</time>
      </trkpt>
      <trkpt lat="45.15714" lon="5.95889">
        <ele>2640.2</ele>
        <time>2020-08-11T08:33:47Z</time>
      </trkpt>
      <trkpt lat="45.15714" lon="5.95889">
        <ele>2640.4</ele>
        <time>2020-08-11T08:33:48Z</time>
      </trkpt>
      <trkpt lat="45.15714" lon="5.95889">
        <ele>2640.4</ele>
        <time>2020-08-11T08:33:49Z</time>
      </trkpt>
      <trkpt lat="45.15714" lon="5.95889">
        <ele>2640.4</ele>
        <time>2020-08-11T08:33:50Z</time>
      </trkpt>
      <trkpt lat="45.15714" lon="5.95889">
        <ele>2640</ele>
        <time>2020-08-11T08:33:51Z</time>
      </trkpt>
      <trkpt lat="45.15714" lon="5.95889">
        <ele>2640</ele>
        <time>2020-08-11T08:33:52Z</time>
      </trkpt>
      <trkpt lat="45.15714" lon="5.95889">
        <ele>2640</ele>
        <time>2020-08-11T08:33:53Z</time>
      </trkpt>
      <trkpt lat="45.15713" lon="5.95889">
        <ele>2640.2</ele>
        <time>2020-08-11T08:33:54Z</time>
      </trkpt>
      <trkpt lat="45.15713" lon="5.95889">
        <ele>2640.2</ele>
        <time>2020-08-11T08:33:55Z</time>
      </trkpt>
      <trkpt lat="45.15713" lon="5.95889">
        <ele>2640.2</ele>
        <time>2020-08-11T08:33:56Z</time>
      </trkpt>
      <trkpt lat="45.15713" lon="5.95889">
        <ele>2640.2</ele>
        <time>2020-08-11T08:33:57Z</time>
      </trkpt>
      <trkpt lat="45.15713" lon="5.95889">
        <ele>2640</ele>
        <time>2020-08-11T08:33:58Z</time>
      </trkpt>
      <trkpt lat="45.15713" lon="5.95889">
        <ele>2640</ele>
        <time>2020-08-11T08:33:59Z</time>
      </trkpt>
      <trkpt lat="45.15713" lon="5.95889">
        <ele>2640</ele>
        <time>2020-08-11T08:34:00Z</time>
      </trkpt>
      <trkpt lat="45.15713" lon="5.95889">
        <ele>2640</ele>
        <time>2020-08-11T08:34:01Z</time>
      </trkpt>
      <trkpt lat="45.15713" lon="5.95889">
        <ele>2640</ele>
        <time>2020-08-11T08:34:02Z</time>
      </trkpt>
      <trkpt lat="45.15713" lon="5.95889">
        <ele>2640</ele>
        <time>2020-08-11T08:34:03Z</time>
      </trkpt>
      <trkpt lat="45.15713" lon="5.95889">
        <ele>2640</ele>
        <time>2020-08-11T08:34:04Z</time>
      </trkpt>
      <trkpt lat="45.15713" lon="5.95889">
        <ele>2640</ele>
        <time>2020-08-11T08:34:05Z</time>
      </trkpt>
      <trkpt lat="45.15713" lon="5.95889">
        <ele>2640.2</ele>
        <time>2020-08-11T08:34:06Z</time>
      </trkpt>
      <trkpt lat="45.15712" lon="5.95889">
        <ele>2640.2</ele>
        <time>2020-08-11T08:34:07Z</time>
      </trkpt>
      <trkpt lat="45.15712" lon="5.95889">
        <ele>2640.2</ele>
        <time>2020-08-11T08:34:08Z</time>
      </trkpt>
      <trkpt lat="45.15712" lon="5.95889">
        <ele>2640.4</ele>
        <time>2020-08-11T08:34:09Z</time>
      </trkpt>
      <trkpt lat="45.15712" lon="5.95889">
        <ele>2640.4</ele>
        <time>2020-08-11T08:34:10Z</time>
      </trkpt>
      <trkpt lat="45.15712" lon="5.95889">
        <ele>2640.6</ele>
        <time>2020-08-11T08:34:11Z</time>
      </trkpt>
      <trkpt lat="45.15712" lon="5.95889">
        <ele>2640.4</ele>
        <time>2020-08-11T08:34:12Z</time>
      </trkpt>
      <trkpt lat="45.15712" lon="5.95889">
        <ele>2640.2</ele>
        <time>2020-08-11T08:34:13Z</time>
      </trkpt>
      <trkpt lat="45.15712" lon="5.95889">
        <ele>2640.2</ele>
        <time>2020-08-11T08:34:14Z</time>
      </trkpt>
      <trkpt lat="45.15712" lon="5.95889">
        <ele>2639.8</ele>
        <time>2020-08-11T08:34:15Z</time>
      </trkpt>
      <trkpt lat="45.15712" lon="5.95889">
        <ele>2639.6</ele>
        <time>2020-08-11T08:34:16Z</time>
      </trkpt>
      <trkpt lat="45.15712" lon="5.95889">
        <ele>2639.8</ele>
        <time>2020-08-11T08:34:17Z</time>
      </trkpt>
      <trkpt lat="45.15712" lon="5.95889">
        <ele>2639.6</ele>
        <time>2020-08-11T08:34:18Z</time>
      </trkpt>
      <trkpt lat="45.15712" lon="5.95889">
        <ele>2639.4</ele>
        <time>2020-08-11T08:34:19Z</time>
      </trkpt>
      <trkpt lat="45.15711" lon="5.95889">
        <ele>2639.4</ele>
        <time>2020-08-11T08:34:20Z</time>
      </trkpt>
      <trkpt lat="45.15711" lon="5.9589">
        <ele>2640</ele>
        <time>2020-08-11T08:34:21Z</time>
      </trkpt>
      <trkpt lat="45.15711" lon="5.9589">
        <ele>2640.2</ele>
        <time>2020-08-11T08:34:22Z</time>
      </trkpt>
      <trkpt lat="45.15711" lon="5.9589">
        <ele>2640.6</ele>
        <time>2020-08-11T08:34:23Z</time>
      </trkpt>
      <trkpt lat="45.15711" lon="5.9589">
        <ele>2640.8</ele>
        <time>2020-08-11T08:34:24Z</time>
      </trkpt>
      <trkpt lat="45.15711" lon="5.9589">
        <ele>2640.6</ele>
        <time>2020-08-11T08:34:25Z</time>
      </trkpt>
      <trkpt lat="45.15711" lon="5.9589">
        <ele>2640.2</ele>
        <time>2020-08-11T08:34:26Z</time>
      </trkpt>
      <trkpt lat="45.15711" lon="5.9589">
        <ele>2640</ele>
        <time>2020-08-11T08:34:27Z</time>
      </trkpt>
      <trkpt lat="45.15711" lon="5.9589">
        <ele>2640</ele>
        <time>2020-08-11T08:34:28Z</time>
      </trkpt>
      <trkpt lat="45.15711" lon="5.9589">
        <ele>2640</ele>
        <time>2020-08-11T08:34:29Z</time>
      </trkpt>
      <trkpt lat="45.15711" lon="5.9589">
        <ele>2640</ele>
        <time>2020-08-11T08:34:30Z</time>
      </trkpt>
      <trkpt lat="45.15711" lon="5.9589">
        <ele>2639.6</ele>
        <time>2020-08-11T08:34:31Z</time>
      </trkpt>
      <trkpt lat="45.15711" lon="5.9589">
        <ele>2639.6</ele>
        <time>2020-08-11T08:34:32Z</time>
      </trkpt>
      <trkpt lat="45.15711" lon="5.9589">
        <ele>2639.6</ele>
        <time>2020-08-11T08:34:33Z</time>
      </trkpt>
      <trkpt lat="45.15711" lon="5.9589">
        <ele>2639.6</ele>
        <time>2020-08-11T08:34:34Z</time>
      </trkpt>
      <trkpt lat="45.15711" lon="5.9589">
        <ele>2639.4</ele>
        <time>2020-08-11T08:34:35Z</time>
      </trkpt>
      <trkpt lat="45.15711" lon="5.9589">
        <ele>2639.4</ele>
        <time>2020-08-11T08:34:36Z</time>
      </trkpt>
      <trkpt lat="45.15711" lon="5.9589">
        <ele>2639.2</ele>
        <time>2020-08-11T08:34:37Z</time>
      </trkpt>
      <trkpt lat="45.15711" lon="5.9589">
        <ele>2639.4</ele>
        <time>2020-08-11T08:34:38Z</time>
      </trkpt>
      <trkpt lat="45.15711" lon="5.9589">
        <ele>2639.4</ele>
        <time>2020-08-11T08:34:39Z</time>
      </trkpt>
      <trkpt lat="45.15711" lon="5.9589">
        <ele>2639.4</ele>
        <time>2020-08-11T08:34:40Z</time>
      </trkpt>
      <trkpt lat="45.15711" lon="5.9589">
        <ele>2639.4</ele>
        <time>2020-08-11T08:34:41Z</time>
      </trkpt>
      <trkpt lat="45.15711" lon="5.9589">
        <ele>2639.4</ele>
        <time>2020-08-11T08:34:42Z</time>
      </trkpt>
      <trkpt lat="45.15711" lon="5.9589">
        <ele>2639.4</ele>
        <time>2020-08-11T08:34:43Z</time>
      </trkpt>
      <trkpt lat="45.15711" lon="5.9589">
        <ele>2639.4</ele>
        <time>2020-08-11T08:34:44Z</time>
      </trkpt>
      <trkpt lat="45.15713" lon="5.95889">
        <ele>2639.4</ele>
        <time>2020-08-11T08:34:45Z</time>
      </trkpt>
      <trkpt lat="45.15713" lon="5.95889">
        <ele>2639.4</ele>
        <time>2020-08-11T08:34:46Z</time>
      </trkpt>
      <trkpt lat="45.15713" lon="5.95889">
        <ele>2639.4</ele>
        <time>2020-08-11T08:34:47Z</time>
      </trkpt>
      <trkpt lat="45.15713" lon="5.95889">
        <ele>2639.4</ele>
        <time>2020-08-11T08:34:48Z</time>
      </trkpt>
      <trkpt lat="45.15713" lon="5.95889">
        <ele>2639.4</ele>
        <time>2020-08-11T08:34:49Z</time>
      </trkpt>
      <trkpt lat="45.15713" lon="5.95889">
        <ele>2639.6</ele>
        <time>2020-08-11T08:34:50Z</time>
      </trkpt>
      <trkpt lat="45.15713" lon="5.95889">
        <ele>2639.6</ele>
        <time>2020-08-11T08:34:51Z</time>
      </trkpt>
      <trkpt lat="45.15713" lon="5.95889">
        <ele>2639.6</ele>
        <time>2020-08-11T08:34:52Z</time>
      </trkpt>
      <trkpt lat="45.15713" lon="5.95889">
        <ele>2639.6</ele>
        <time>2020-08-11T08:34:53Z</time>
      </trkpt>
      <trkpt lat="45.15713" lon="5.95889">
        <ele>2639.6</ele>
        <time>2020-08-11T08:34:54Z</time>
      </trkpt>
      <trkpt lat="45.15713" lon="5.95889">
        <ele>2639.4</ele>
        <time>2020-08-11T08:34:55Z</time>
      </trkpt>
      <trkpt lat="45.15713" lon="5.95889">
        <ele>2639.6</ele>
        <time>2020-08-11T08:34:56Z</time>
      </trkpt>
      <trkpt lat="45.15713" lon="5.95889">
        <ele>2639.4</ele>
        <time>2020-08-11T08:34:57Z</time>
      </trkpt>
      <trkpt lat="45.15715" lon="5.95889">
        <ele>2639.2</ele>
        <time>2020-08-11T08:34:58Z</time>
      </trkpt>
      <trkpt lat="45.15715" lon="5.95889">
        <ele>2639</ele>
        <time>2020-08-11T08:34:59Z</time>
      </trkpt>
      <trkpt lat="45.15715" lon="5.95889">
        <ele>2639</ele>
        <time>2020-08-11T08:35:00Z</time>
      </trkpt>
      <trkpt lat="45.15715" lon="5.95889">
        <ele>2639</ele>
        <time>2020-08-11T08:35:01Z</time>
      </trkpt>
      <trkpt lat="45.15717" lon="5.95891">
        <ele>2639.2</ele>
        <time>2020-08-11T08:35:02Z</time>
      </trkpt>
      <trkpt lat="45.15717" lon="5.95891">
        <ele>2639.4</ele>
        <time>2020-08-11T08:35:03Z</time>
      </trkpt>
      <trkpt lat="45.15717" lon="5.95891">
        <ele>2639.6</ele>
        <time>2020-08-11T08:35:04Z</time>
      </trkpt>
      <trkpt lat="45.15719" lon="5.95892">
        <ele>2639.8</ele>
        <time>2020-08-11T08:35:05Z</time>
      </trkpt>
      <trkpt lat="45.15719" lon="5.95892">
        <ele>2640</ele>
        <time>2020-08-11T08:35:06Z</time>
      </trkpt>
      <trkpt lat="45.15721" lon="5.95893">
        <ele>2639.8</ele>
        <time>2020-08-11T08:35:07Z</time>
      </trkpt>
      <trkpt lat="45.15721" lon="5.95893">
        <ele>2639.6</ele>
        <time>2020-08-11T08:35:08Z</time>
      </trkpt>
      <trkpt lat="45.15721" lon="5.95893">
        <ele>2639.6</ele>
        <time>2020-08-11T08:35:09Z</time>
      </trkpt>
      <trkpt lat="45.15722" lon="5.9589">
        <ele>2639.4</ele>
        <time>2020-08-11T08:35:10Z</time>
      </trkpt>
      <trkpt lat="45.15722" lon="5.9589">
        <ele>2639.4</ele>
        <time>2020-08-11T08:35:11Z</time>
      </trkpt>
      <trkpt lat="45.15722" lon="5.9589">
        <ele>2639.2</ele>
        <time>2020-08-11T08:35:12Z</time>
      </trkpt>
      <trkpt lat="45.15722" lon="5.95887">
        <ele>2638.8</ele>
        <time>2020-08-11T08:35:13Z</time>
      </trkpt>
      <trkpt lat="45.15722" lon="5.95887">
        <ele>2638.6</ele>
        <time>2020-08-11T08:35:14Z</time>
      </trkpt>
      <trkpt lat="45.15722" lon="5.95887">
        <ele>2638.2</ele>
        <time>2020-08-11T08:35:15Z</time>
      </trkpt>
      <trkpt lat="45.15725" lon="5.95885">
        <ele>2638</ele>
        <time>2020-08-11T08:35:16Z</time>
      </trkpt>
      <trkpt lat="45.15725" lon="5.95885">
        <ele>2638</ele>
        <time>2020-08-11T08:35:17Z</time>
      </trkpt>
      <trkpt lat="45.15725" lon="5.95885">
        <ele>2637.6</ele>
        <time>2020-08-11T08:35:18Z</time>
      </trkpt>
      <trkpt lat="45.15727" lon="5.95883">
        <ele>2637.2</ele>
        <time>2020-08-11T08:35:19Z</time>
      </trkpt>
      <trkpt lat="45.15728" lon="5.95882">
        <ele>2637</ele>
        <time>2020-08-11T08:35:20Z</time>
      </trkpt>
      <trkpt lat="45.15728" lon="5.95882">
        <ele>2636.6</ele>
        <time>2020-08-11T08:35:21Z</time>
      </trkpt>
      <trkpt lat="45.15731" lon="5.9588">
        <ele>2636.2</ele>
        <time>2020-08-11T08:35:22Z</time>
      </trkpt>
      <trkpt lat="45.15731" lon="5.9588">
        <ele>2635.8</ele>
        <time>2020-08-11T08:35:23Z</time>
      </trkpt>
      <trkpt lat="45.15734" lon="5.9588">
        <ele>2635.2</ele>
        <time>2020-08-11T08:35:24Z</time>
      </trkpt>
      <trkpt lat="45.15734" lon="5.9588">
        <ele>2634.2</ele>
        <time>2020-08-11T08:35:25Z</time>
      </trkpt>
      <trkpt lat="45.15737" lon="5.95878">
        <ele>2634</ele>
        <time>2020-08-11T08:35:26Z</time>
      </trkpt>
      <trkpt lat="45.15737" lon="5.95878">
        <ele>2633.6</ele>
        <time>2020-08-11T08:35:27Z</time>
      </trkpt>
      <trkpt lat="45.1574" lon="5.95877">
        <ele>2633.4</ele>
        <time>2020-08-11T08:35:28Z</time>
      </trkpt>
      <trkpt lat="45.1574" lon="5.95877">
        <ele>2633.2</ele>
        <time>2020-08-11T08:35:29Z</time>
      </trkpt>
      <trkpt lat="45.15742" lon="5.95876">
        <ele>2633</ele>
        <time>2020-08-11T08:35:30Z</time>
      </trkpt>
      <trkpt lat="45.15742" lon="5.95876">
        <ele>2632</ele>
        <time>2020-08-11T08:35:31Z</time>
      </trkpt>
      <trkpt lat="45.15745" lon="5.95875">
        <ele>2632</ele>
        <time>2020-08-11T08:35:32Z</time>
      </trkpt>
      <trkpt lat="45.15747" lon="5.95876">
        <ele>2631.8</ele>
        <time>2020-08-11T08:35:33Z</time>
      </trkpt>
      <trkpt lat="45.1575" lon="5.95875">
        <ele>2631.4</ele>
        <time>2020-08-11T08:35:34Z</time>
      </trkpt>
      <trkpt lat="45.1575" lon="5.95875">
        <ele>2629.8</ele>
        <time>2020-08-11T08:35:35Z</time>
      </trkpt>
      <trkpt lat="45.15752" lon="5.95874">
        <ele>2629.8</ele>
        <time>2020-08-11T08:35:36Z</time>
      </trkpt>
      <trkpt lat="45.15752" lon="5.95874">
        <ele>2629.4</ele>
        <time>2020-08-11T08:35:37Z</time>
      </trkpt>
      <trkpt lat="45.15755" lon="5.95874">
        <ele>2629</ele>
        <time>2020-08-11T08:35:38Z</time>
      </trkpt>
      <trkpt lat="45.15757" lon="5.95873">
        <ele>2628.6</ele>
        <time>2020-08-11T08:35:39Z</time>
      </trkpt>
      <trkpt lat="45.15759" lon="5.95871">
        <ele>2628.6</ele>
        <time>2020-08-11T08:35:40Z</time>
      </trkpt>
      <trkpt lat="45.1576" lon="5.9587">
        <ele>2628.2</ele>
        <time>2020-08-11T08:35:41Z</time>
      </trkpt>
      <trkpt lat="45.15762" lon="5.95868">
        <ele>2627.6</ele>
        <time>2020-08-11T08:35:42Z</time>
      </trkpt>
      <trkpt lat="45.15764" lon="5.95868">
        <ele>2627.6</ele>
        <time>2020-08-11T08:35:43Z</time>
      </trkpt>
      <trkpt lat="45.15766" lon="5.95868">
        <ele>2627.2</ele>
        <time>2020-08-11T08:35:44Z</time>
      </trkpt>
      <trkpt lat="45.15768" lon="5.95868">
        <ele>2626.8</ele>
        <time>2020-08-11T08:35:45Z</time>
      </trkpt>
      <trkpt lat="45.15768" lon="5.95868">
        <ele>2626.6</ele>
        <time>2020-08-11T08:35:46Z</time>
      </trkpt>
      <trkpt lat="45.15769" lon="5.95871">
        <ele>2626.2</ele>
        <time>2020-08-11T08:35:47Z</time>
      </trkpt>
      <trkpt lat="45.15772" lon="5.95873">
        <ele>2625.6</ele>
        <time>2020-08-11T08:35:48Z</time>
      </trkpt>
      <trkpt lat="45.15772" lon="5.95873">
        <ele>2625.6</ele>
        <time>2020-08-11T08:35:49Z</time>
      </trkpt>
      <trkpt lat="45.15772" lon="5.95873">
        <ele>2625</ele>
        <time>2020-08-11T08:35:50Z</time>
      </trkpt>
      <trkpt lat="45.15774" lon="5.95876">
        <ele>2624.8</ele>
        <time>2020-08-11T08:35:51Z</time>
      </trkpt>
      <trkpt lat="45.15774" lon="5.95879">
        <ele>2624.6</ele>
        <time>2020-08-11T08:35:52Z</time>
      </trkpt>
      <trkpt lat="45.15774" lon="5.95879">
        <ele>2624</ele>
        <time>2020-08-11T08:35:53Z</time>
      </trkpt>
      <trkpt lat="45.15775" lon="5.95883">
        <ele>2623.4</ele>
        <time>2020-08-11T08:35:54Z</time>
      </trkpt>
      <trkpt lat="45.15775" lon="5.95883">
        <ele>2622.8</ele>
        <time>2020-08-11T08:35:55Z</time>
      </trkpt>
      <trkpt lat="45.15774" lon="5.95886">
        <ele>2622.2</ele>
        <time>2020-08-11T08:35:56Z</time>
      </trkpt>
      <trkpt lat="45.15774" lon="5.9589">
        <ele>2621.6</ele>
        <time>2020-08-11T08:35:57Z</time>
      </trkpt>
      <trkpt lat="45.15773" lon="5.95893">
        <ele>2621</ele>
        <time>2020-08-11T08:35:58Z</time>
      </trkpt>
      <trkpt lat="45.15773" lon="5.95897">
        <ele>2620.6</ele>
        <time>2020-08-11T08:35:59Z</time>
      </trkpt>
      <trkpt lat="45.15772" lon="5.959">
        <ele>2620.6</ele>
        <time>2020-08-11T08:36:00Z</time>
      </trkpt>
      <trkpt lat="45.15771" lon="5.95904">
        <ele>2620</ele>
        <time>2020-08-11T08:36:01Z</time>
      </trkpt>
      <trkpt lat="45.1577" lon="5.95908">
        <ele>2620.4</ele>
        <time>2020-08-11T08:36:02Z</time>
      </trkpt>
      <trkpt lat="45.15769" lon="5.95911">
        <ele>2619</ele>
        <time>2020-08-11T08:36:03Z</time>
      </trkpt>
      <trkpt lat="45.15768" lon="5.95915">
        <ele>2619</ele>
        <time>2020-08-11T08:36:04Z</time>
      </trkpt>
      <trkpt lat="45.15767" lon="5.95918">
        <ele>2618.6</ele>
        <time>2020-08-11T08:36:05Z</time>
      </trkpt>
      <trkpt lat="45.15765" lon="5.95921">
        <ele>2618.8</ele>
        <time>2020-08-11T08:36:06Z</time>
      </trkpt>
      <trkpt lat="45.15763" lon="5.95924">
        <ele>2618.2</ele>
        <time>2020-08-11T08:36:07Z</time>
      </trkpt>
      <trkpt lat="45.15763" lon="5.95929">
        <ele>2618.2</ele>
        <time>2020-08-11T08:36:08Z</time>
      </trkpt>
      <trkpt lat="45.15763" lon="5.95929">
        <ele>2617.8</ele>
        <time>2020-08-11T08:36:09Z</time>
      </trkpt>
      <trkpt lat="45.15762" lon="5.95932">
        <ele>2616.8</ele>
        <time>2020-08-11T08:36:10Z</time>
      </trkpt>
      <trkpt lat="45.15761" lon="5.95935">
        <ele>2617.2</ele>
        <time>2020-08-11T08:36:11Z</time>
      </trkpt>
      <trkpt lat="45.15759" lon="5.95938">
        <ele>2617</ele>
        <time>2020-08-11T08:36:12Z</time>
      </trkpt>
      <trkpt lat="45.15758" lon="5.95941">
        <ele>2617</ele>
        <time>2020-08-11T08:36:13Z</time>
      </trkpt>
      <trkpt lat="45.15757" lon="5.95945">
        <ele>2616.2</ele>
        <time>2020-08-11T08:36:14Z</time>
      </trkpt>
      <trkpt lat="45.15755" lon="5.95948">
        <ele>2615.2</ele>
        <time>2020-08-11T08:36:15Z</time>
      </trkpt>
      <trkpt lat="45.15753" lon="5.95951">
        <ele>2615.6</ele>
        <time>2020-08-11T08:36:16Z</time>
      </trkpt>
      <trkpt lat="45.15753" lon="5.95951">
        <ele>2615.2</ele>
        <time>2020-08-11T08:36:17Z</time>
      </trkpt>
      <trkpt lat="45.15752" lon="5.95953">
        <ele>2615</ele>
        <time>2020-08-11T08:36:18Z</time>
      </trkpt>
      <trkpt lat="45.15751" lon="5.95955">
        <ele>2614.2</ele>
        <time>2020-08-11T08:36:19Z</time>
      </trkpt>
      <trkpt lat="45.15748" lon="5.9596">
        <ele>2613.8</ele>
        <time>2020-08-11T08:36:20Z</time>
      </trkpt>
      <trkpt lat="45.15748" lon="5.9596">
        <ele>2614.2</ele>
        <time>2020-08-11T08:36:21Z</time>
      </trkpt>
      <trkpt lat="45.15747" lon="5.95963">
        <ele>2613.8</ele>
        <time>2020-08-11T08:36:22Z</time>
      </trkpt>
      <trkpt lat="45.15747" lon="5.95967">
        <ele>2613.6</ele>
        <time>2020-08-11T08:36:23Z</time>
      </trkpt>
      <trkpt lat="45.15747" lon="5.95971">
        <ele>2611.6</ele>
        <time>2020-08-11T08:36:24Z</time>
      </trkpt>
      <trkpt lat="45.15747" lon="5.95971">
        <ele>2611</ele>
        <time>2020-08-11T08:36:25Z</time>
      </trkpt>
      <trkpt lat="45.15747" lon="5.95971">
        <ele>2610.2</ele>
        <time>2020-08-11T08:36:26Z</time>
      </trkpt>
      <trkpt lat="45.15747" lon="5.95975">
        <ele>2610.4</ele>
        <time>2020-08-11T08:36:27Z</time>
      </trkpt>
      <trkpt lat="45.15747" lon="5.95979">
        <ele>2610</ele>
        <time>2020-08-11T08:36:28Z</time>
      </trkpt>
      <trkpt lat="45.15747" lon="5.95982">
        <ele>2609.6</ele>
        <time>2020-08-11T08:36:29Z</time>
      </trkpt>
      <trkpt lat="45.15747" lon="5.95985">
        <ele>2609.2</ele>
        <time>2020-08-11T08:36:30Z</time>
      </trkpt>
      <trkpt lat="45.15746" lon="5.95987">
        <ele>2608.4</ele>
        <time>2020-08-11T08:36:31Z</time>
      </trkpt>
      <trkpt lat="45.15746" lon="5.9599">
        <ele>2607.6</ele>
        <time>2020-08-11T08:36:32Z</time>
      </trkpt>
      <trkpt lat="45.15746" lon="5.95993">
        <ele>2606.6</ele>
        <time>2020-08-11T08:36:33Z</time>
      </trkpt>
      <trkpt lat="45.15746" lon="5.95995">
        <ele>2606.6</ele>
        <time>2020-08-11T08:36:34Z</time>
      </trkpt>
      <trkpt lat="45.15746" lon="5.95999">
        <ele>2606.4</ele>
        <time>2020-08-11T08:36:35Z</time>
      </trkpt>
      <trkpt lat="45.15745" lon="5.96002">
        <ele>2606.2</ele>
        <time>2020-08-11T08:36:36Z</time>
      </trkpt>
      <trkpt lat="45.15744" lon="5.96006">
        <ele>2605.6</ele>
        <time>2020-08-11T08:36:37Z</time>
      </trkpt>
      <trkpt lat="45.15744" lon="5.9601">
        <ele>2605</ele>
        <time>2020-08-11T08:36:38Z</time>
      </trkpt>
      <trkpt lat="45.15744" lon="5.96014">
        <ele>2603.4</ele>
        <time>2020-08-11T08:36:39Z</time>
      </trkpt>
      <trkpt lat="45.15744" lon="5.96014">
        <ele>2602.6</ele>
        <time>2020-08-11T08:36:40Z</time>
      </trkpt>
      <trkpt lat="45.15743" lon="5.96017">
        <ele>2602.6</ele>
        <time>2020-08-11T08:36:41Z</time>
      </trkpt>
      <trkpt lat="45.15743" lon="5.96021">
        <ele>2602.2</ele>
        <time>2020-08-11T08:36:42Z</time>
      </trkpt>
      <trkpt lat="45.15743" lon="5.96024">
        <ele>2601.8</ele>
        <time>2020-08-11T08:36:43Z</time>
      </trkpt>
      <trkpt lat="45.15743" lon="5.96027">
        <ele>2601</ele>
        <time>2020-08-11T08:36:44Z</time>
      </trkpt>
      <trkpt lat="45.15743" lon="5.96031">
        <ele>2600.4</ele>
        <time>2020-08-11T08:36:45Z</time>
      </trkpt>
      <trkpt lat="45.15743" lon="5.96034">
        <ele>2600.6</ele>
        <time>2020-08-11T08:36:46Z</time>
      </trkpt>
      <trkpt lat="45.15743" lon="5.96037">
        <ele>2600.4</ele>
        <time>2020-08-11T08:36:47Z</time>
      </trkpt>
      <trkpt lat="45.15743" lon="5.96037">
        <ele>2600.2</ele>
        <time>2020-08-11T08:36:48Z</time>
      </trkpt>
      <trkpt lat="45.15742" lon="5.96041">
        <ele>2600.2</ele>
        <time>2020-08-11T08:36:49Z</time>
      </trkpt>
      <trkpt lat="45.15741" lon="5.96046">
        <ele>2599.8</ele>
        <time>2020-08-11T08:36:50Z</time>
      </trkpt>
      <trkpt lat="45.15741" lon="5.96046">
        <ele>2599.8</ele>
        <time>2020-08-11T08:36:51Z</time>
      </trkpt>
      <trkpt lat="45.15741" lon="5.96049">
        <ele>2599.6</ele>
        <time>2020-08-11T08:36:52Z</time>
      </trkpt>
      <trkpt lat="45.1574" lon="5.96052">
        <ele>2599.4</ele>
        <time>2020-08-11T08:36:53Z</time>
      </trkpt>
      <trkpt lat="45.1574" lon="5.96055">
        <ele>2599.2</ele>
        <time>2020-08-11T08:36:54Z</time>
      </trkpt>
      <trkpt lat="45.15739" lon="5.96058">
        <ele>2599.2</ele>
        <time>2020-08-11T08:36:55Z</time>
      </trkpt>
      <trkpt lat="45.15739" lon="5.96058">
        <ele>2599.2</ele>
        <time>2020-08-11T08:36:56Z</time>
      </trkpt>
      <trkpt lat="45.15739" lon="5.96063">
        <ele>2599</ele>
        <time>2020-08-11T08:36:57Z</time>
      </trkpt>
      <trkpt lat="45.15739" lon="5.96063">
        <ele>2599</ele>
        <time>2020-08-11T08:36:58Z</time>
      </trkpt>
      <trkpt lat="45.15738" lon="5.96067">
        <ele>2599</ele>
        <time>2020-08-11T08:36:59Z</time>
      </trkpt>
      <trkpt lat="45.15738" lon="5.96067">
        <ele>2599</ele>
        <time>2020-08-11T08:37:00Z</time>
      </trkpt>
      <trkpt lat="45.15738" lon="5.96072">
        <ele>2599.2</ele>
        <time>2020-08-11T08:37:01Z</time>
      </trkpt>
      <trkpt lat="45.15738" lon="5.96072">
        <ele>2599.2</ele>
        <time>2020-08-11T08:37:02Z</time>
      </trkpt>
      <trkpt lat="45.15737" lon="5.96076">
        <ele>2599.2</ele>
        <time>2020-08-11T08:37:03Z</time>
      </trkpt>
      <trkpt lat="45.15737" lon="5.96076">
        <ele>2599.2</ele>
        <time>2020-08-11T08:37:04Z</time>
      </trkpt>
      <trkpt lat="45.15736" lon="5.96079">
        <ele>2599.2</ele>
        <time>2020-08-11T08:37:05Z</time>
      </trkpt>
      <trkpt lat="45.15736" lon="5.96079">
        <ele>2599.4</ele>
        <time>2020-08-11T08:37:06Z</time>
      </trkpt>
      <trkpt lat="45.15736" lon="5.96081">
        <ele>2599.8</ele>
        <time>2020-08-11T08:37:07Z</time>
      </trkpt>
      <trkpt lat="45.15736" lon="5.96081">
        <ele>2600</ele>
        <time>2020-08-11T08:37:08Z</time>
      </trkpt>
      <trkpt lat="45.15736" lon="5.96081">
        <ele>2600.2</ele>
        <time>2020-08-11T08:37:09Z</time>
      </trkpt>
      <trkpt lat="45.15736" lon="5.96081">
        <ele>2600.6</ele>
        <time>2020-08-11T08:37:10Z</time>
      </trkpt>
      <trkpt lat="45.15736" lon="5.96081">
        <ele>2600.6</ele>
        <time>2020-08-11T08:37:11Z</time>
      </trkpt>
      <trkpt lat="45.15736" lon="5.96084">
        <ele>2600.4</ele>
        <time>2020-08-11T08:37:12Z</time>
      </trkpt>
      <trkpt lat="45.15736" lon="5.96084">
        <ele>2600.2</ele>
        <time>2020-08-11T08:37:13Z</time>
      </trkpt>
      <trkpt lat="45.15736" lon="5.96084">
        <ele>2600</ele>
        <time>2020-08-11T08:37:14Z</time>
      </trkpt>
      <trkpt lat="45.15735" lon="5.96087">
        <ele>2599.8</ele>
        <time>2020-08-11T08:37:15Z</time>
      </trkpt>
      <trkpt lat="45.15735" lon="5.96087">
        <ele>2599.8</ele>
        <time>2020-08-11T08:37:16Z</time>
      </trkpt>
      <trkpt lat="45.15735" lon="5.96087">
        <ele>2600</ele>
        <time>2020-08-11T08:37:17Z</time>
      </trkpt>
      <trkpt lat="45.15735" lon="5.96087">
        <ele>2599.8</ele>
        <time>2020-08-11T08:37:18Z</time>
      </trkpt>
      <trkpt lat="45.15735" lon="5.96087">
        <ele>2599.6</ele>
        <time>2020-08-11T08:37:19Z</time>
      </trkpt>
      <trkpt lat="45.15735" lon="5.96087">
        <ele>2599.6</ele>
        <time>2020-08-11T08:37:20Z</time>
      </trkpt>
      <trkpt lat="45.15735" lon="5.96087">
        <ele>2599.6</ele>
        <time>2020-08-11T08:37:21Z</time>
      </trkpt>
      <trkpt lat="45.15737" lon="5.96089">
        <ele>2599.6</ele>
        <time>2020-08-11T08:37:22Z</time>
      </trkpt>
      <trkpt lat="45.15737" lon="5.96089">
        <ele>2599.6</ele>
        <time>2020-08-11T08:37:23Z</time>
      </trkpt>
      <trkpt lat="45.15737" lon="5.96089">
        <ele>2599.8</ele>
        <time>2020-08-11T08:37:24Z</time>
      </trkpt>
      <trkpt lat="45.15737" lon="5.96089">
        <ele>2599.6</ele>
        <time>2020-08-11T08:37:25Z</time>
      </trkpt>
      <trkpt lat="45.15737" lon="5.96089">
        <ele>2599.6</ele>
        <time>2020-08-11T08:37:26Z</time>
      </trkpt>
      <trkpt lat="45.15737" lon="5.96089">
        <ele>2599.6</ele>
        <time>2020-08-11T08:37:27Z</time>
      </trkpt>
      <trkpt lat="45.15737" lon="5.96089">
        <ele>2599.8</ele>
        <time>2020-08-11T08:37:28Z</time>
      </trkpt>
      <trkpt lat="45.15737" lon="5.96092">
        <ele>2600</ele>
        <time>2020-08-11T08:37:29Z</time>
      </trkpt>
      <trkpt lat="45.15737" lon="5.96092">
        <ele>2600</ele>
        <time>2020-08-11T08:37:30Z</time>
      </trkpt>
      <trkpt lat="45.15737" lon="5.96095">
        <ele>2600</ele>
        <time>2020-08-11T08:37:31Z</time>
      </trkpt>
      <trkpt lat="45.15737" lon="5.96095">
        <ele>2600</ele>
        <time>2020-08-11T08:37:32Z</time>
      </trkpt>
      <trkpt lat="45.15737" lon="5.96098">
        <ele>2600</ele>
        <time>2020-08-11T08:37:33Z</time>
      </trkpt>
      <trkpt lat="45.15737" lon="5.96098">
        <ele>2600</ele>
        <time>2020-08-11T08:37:34Z</time>
      </trkpt>
      <trkpt lat="45.15736" lon="5.96102">
        <ele>2600.2</ele>
        <time>2020-08-11T08:37:35Z</time>
      </trkpt>
      <trkpt lat="45.15736" lon="5.96107">
        <ele>2600.2</ele>
        <time>2020-08-11T08:37:36Z</time>
      </trkpt>
      <trkpt lat="45.15736" lon="5.96107">
        <ele>2600.2</ele>
        <time>2020-08-11T08:37:37Z</time>
      </trkpt>
      <trkpt lat="45.15736" lon="5.96107">
        <ele>2600.4</ele>
        <time>2020-08-11T08:37:38Z</time>
      </trkpt>
      <trkpt lat="45.15735" lon="5.96111">
        <ele>2600.6</ele>
        <time>2020-08-11T08:37:39Z</time>
      </trkpt>
      <trkpt lat="45.15735" lon="5.96111">
        <ele>2600.8</ele>
        <time>2020-08-11T08:37:40Z</time>
      </trkpt>
      <trkpt lat="45.15734" lon="5.96113">
        <ele>2601.4</ele>
        <time>2020-08-11T08:37:41Z</time>
      </trkpt>
      <trkpt lat="45.15734" lon="5.96113">
        <ele>2601.8</ele>
        <time>2020-08-11T08:37:42Z</time>
      </trkpt>
      <trkpt lat="45.15734" lon="5.96113">
        <ele>2601.6</ele>
        <time>2020-08-11T08:37:43Z</time>
      </trkpt>
      <trkpt lat="45.15733" lon="5.96116">
        <ele>2601.8</ele>
        <time>2020-08-11T08:37:44Z</time>
      </trkpt>
      <trkpt lat="45.15733" lon="5.96116">
        <ele>2601.6</ele>
        <time>2020-08-11T08:37:45Z</time>
      </trkpt>
      <trkpt lat="45.15733" lon="5.96116">
        <ele>2601.8</ele>
        <time>2020-08-11T08:37:46Z</time>
      </trkpt>
      <trkpt lat="45.15733" lon="5.96119">
        <ele>2601.8</ele>
        <time>2020-08-11T08:37:47Z</time>
      </trkpt>
      <trkpt lat="45.15733" lon="5.96119">
        <ele>2602</ele>
        <time>2020-08-11T08:37:48Z</time>
      </trkpt>
      <trkpt lat="45.15733" lon="5.96119">
        <ele>2602</ele>
        <time>2020-08-11T08:37:49Z</time>
      </trkpt>
      <trkpt lat="45.15732" lon="5.96122">
        <ele>2602.2</ele>
        <time>2020-08-11T08:37:50Z</time>
      </trkpt>
      <trkpt lat="45.15732" lon="5.96122">
        <ele>2602.4</ele>
        <time>2020-08-11T08:37:51Z</time>
      </trkpt>
      <trkpt lat="45.1573" lon="5.96125">
        <ele>2602.6</ele>
        <time>2020-08-11T08:37:52Z</time>
      </trkpt>
      <trkpt lat="45.1573" lon="5.96125">
        <ele>2602.6</ele>
        <time>2020-08-11T08:37:53Z</time>
      </trkpt>
      <trkpt lat="45.1573" lon="5.96125">
        <ele>2602.6</ele>
        <time>2020-08-11T08:37:54Z</time>
      </trkpt>
      <trkpt lat="45.15729" lon="5.96127">
        <ele>2603</ele>
        <time>2020-08-11T08:37:55Z</time>
      </trkpt>
      <trkpt lat="45.15729" lon="5.96127">
        <ele>2603.2</ele>
        <time>2020-08-11T08:37:56Z</time>
      </trkpt>
      <trkpt lat="45.15729" lon="5.96127">
        <ele>2603.2</ele>
        <time>2020-08-11T08:37:57Z</time>
      </trkpt>
      <trkpt lat="45.15729" lon="5.96127">
        <ele>2603.2</ele>
        <time>2020-08-11T08:37:58Z</time>
      </trkpt>
      <trkpt lat="45.15729" lon="5.96127">
        <ele>2603.2</ele>
        <time>2020-08-11T08:37:59Z</time>
      </trkpt>
      <trkpt lat="45.15729" lon="5.96127">
        <ele>2603.4</ele>
        <time>2020-08-11T08:38:00Z</time>
      </trkpt>
      <trkpt lat="45.15729" lon="5.96127">
        <ele>2603.4</ele>
        <time>2020-08-11T08:38:01Z</time>
      </trkpt>
      <trkpt lat="45.15729" lon="5.96127">
        <ele>2603.6</ele>
        <time>2020-08-11T08:38:02Z</time>
      </trkpt>
      <trkpt lat="45.15729" lon="5.96127">
        <ele>2603.8</ele>
        <time>2020-08-11T08:38:03Z</time>
      </trkpt>
      <trkpt lat="45.15727" lon="5.96127">
        <ele>2603.4</ele>
        <time>2020-08-11T08:38:04Z</time>
      </trkpt>
      <trkpt lat="45.15727" lon="5.96127">
        <ele>2603.4</ele>
        <time>2020-08-11T08:38:05Z</time>
      </trkpt>
      <trkpt lat="45.15727" lon="5.96127">
        <ele>2603.4</ele>
        <time>2020-08-11T08:38:06Z</time>
      </trkpt>
      <trkpt lat="45.15725" lon="5.96127">
        <ele>2603.2</ele>
        <time>2020-08-11T08:38:07Z</time>
      </trkpt>
      <trkpt lat="45.15725" lon="5.96127">
        <ele>2603.2</ele>
        <time>2020-08-11T08:38:08Z</time>
      </trkpt>
      <trkpt lat="45.15723" lon="5.96126">
        <ele>2603.2</ele>
        <time>2020-08-11T08:38:09Z</time>
      </trkpt>
      <trkpt lat="45.15723" lon="5.96126">
        <ele>2602.8</ele>
        <time>2020-08-11T08:38:10Z</time>
      </trkpt>
      <trkpt lat="45.15723" lon="5.96126">
        <ele>2602.6</ele>
        <time>2020-08-11T08:38:11Z</time>
      </trkpt>
      <trkpt lat="45.15719" lon="5.96125">
        <ele>2602.6</ele>
        <time>2020-08-11T08:38:12Z</time>
      </trkpt>
      <trkpt lat="45.15719" lon="5.96125">
        <ele>2602</ele>
        <time>2020-08-11T08:38:13Z</time>
      </trkpt>
      <trkpt lat="45.15719" lon="5.96125">
        <ele>2601.6</ele>
        <time>2020-08-11T08:38:14Z</time>
      </trkpt>
      <trkpt lat="45.15717" lon="5.96126">
        <ele>2601.2</ele>
        <time>2020-08-11T08:38:15Z</time>
      </trkpt>
      <trkpt lat="45.15717" lon="5.96126">
        <ele>2600.4</ele>
        <time>2020-08-11T08:38:16Z</time>
      </trkpt>
      <trkpt lat="45.15714" lon="5.96129">
        <ele>2599.4</ele>
        <time>2020-08-11T08:38:17Z</time>
      </trkpt>
      <trkpt lat="45.15712" lon="5.96131">
        <ele>2599.6</ele>
        <time>2020-08-11T08:38:18Z</time>
      </trkpt>
      <trkpt lat="45.15711" lon="5.96133">
        <ele>2599.4</ele>
        <time>2020-08-11T08:38:19Z</time>
      </trkpt>
      <trkpt lat="45.15707" lon="5.96137">
        <ele>2599.4</ele>
        <time>2020-08-11T08:38:20Z</time>
      </trkpt>
      <trkpt lat="45.15707" lon="5.96137">
        <ele>2599.4</ele>
        <time>2020-08-11T08:38:21Z</time>
      </trkpt>
      <trkpt lat="45.15706" lon="5.9614">
        <ele>2599.6</ele>
        <time>2020-08-11T08:38:22Z</time>
      </trkpt>
      <trkpt lat="45.15704" lon="5.96142">
        <ele>2599.6</ele>
        <time>2020-08-11T08:38:23Z</time>
      </trkpt>
      <trkpt lat="45.15702" lon="5.96144">
        <ele>2599.8</ele>
        <time>2020-08-11T08:38:24Z</time>
      </trkpt>
      <trkpt lat="45.15701" lon="5.96146">
        <ele>2599.6</ele>
        <time>2020-08-11T08:38:25Z</time>
      </trkpt>
      <trkpt lat="45.15701" lon="5.96146">
        <ele>2599.2</ele>
        <time>2020-08-11T08:38:26Z</time>
      </trkpt>
      <trkpt lat="45.15698" lon="5.96148">
        <ele>2598.8</ele>
        <time>2020-08-11T08:38:27Z</time>
      </trkpt>
      <trkpt lat="45.15694" lon="5.9615">
        <ele>2598.6</ele>
        <time>2020-08-11T08:38:28Z</time>
      </trkpt>
      <trkpt lat="45.15693" lon="5.96151">
        <ele>2598.2</ele>
        <time>2020-08-11T08:38:29Z</time>
      </trkpt>
      <trkpt lat="45.15691" lon="5.96152">
        <ele>2597.6</ele>
        <time>2020-08-11T08:38:30Z</time>
      </trkpt>
      <trkpt lat="45.15689" lon="5.96153">
        <ele>2597.2</ele>
        <time>2020-08-11T08:38:31Z</time>
      </trkpt>
      <trkpt lat="45.15689" lon="5.96153">
        <ele>2597</ele>
        <time>2020-08-11T08:38:32Z</time>
      </trkpt>
      <trkpt lat="45.15687" lon="5.96154">
        <ele>2597.6</ele>
        <time>2020-08-11T08:38:33Z</time>
      </trkpt>
      <trkpt lat="45.15685" lon="5.96155">
        <ele>2597.8</ele>
        <time>2020-08-11T08:38:34Z</time>
      </trkpt>
      <trkpt lat="45.15682" lon="5.96157">
        <ele>2598.2</ele>
        <time>2020-08-11T08:38:35Z</time>
      </trkpt>
      <trkpt lat="45.15682" lon="5.96157">
        <ele>2598.4</ele>
        <time>2020-08-11T08:38:36Z</time>
      </trkpt>
      <trkpt lat="45.1568" lon="5.96159">
        <ele>2598.4</ele>
        <time>2020-08-11T08:38:37Z</time>
      </trkpt>
      <trkpt lat="45.15677" lon="5.9616">
        <ele>2598.4</ele>
        <time>2020-08-11T08:38:38Z</time>
      </trkpt>
      <trkpt lat="45.15677" lon="5.9616">
        <ele>2598.8</ele>
        <time>2020-08-11T08:38:39Z</time>
      </trkpt>
      <trkpt lat="45.15677" lon="5.9616">
        <ele>2598.6</ele>
        <time>2020-08-11T08:38:40Z</time>
      </trkpt>
      <trkpt lat="45.15674" lon="5.96161">
        <ele>2598.6</ele>
        <time>2020-08-11T08:38:41Z</time>
      </trkpt>
      <trkpt lat="45.15672" lon="5.96161">
        <ele>2598.6</ele>
        <time>2020-08-11T08:38:42Z</time>
      </trkpt>
      <trkpt lat="45.1567" lon="5.96162">
        <ele>2598.6</ele>
        <time>2020-08-11T08:38:43Z</time>
      </trkpt>
      <trkpt lat="45.15667" lon="5.96162">
        <ele>2598.8</ele>
        <time>2020-08-11T08:38:44Z</time>
      </trkpt>
      <trkpt lat="45.15664" lon="5.96163">
        <ele>2599.2</ele>
        <time>2020-08-11T08:38:45Z</time>
      </trkpt>
      <trkpt lat="45.15664" lon="5.96163">
        <ele>2599.2</ele>
        <time>2020-08-11T08:38:46Z</time>
      </trkpt>
      <trkpt lat="45.15664" lon="5.96163">
        <ele>2599.4</ele>
        <time>2020-08-11T08:38:47Z</time>
      </trkpt>
      <trkpt lat="45.15661" lon="5.96164">
        <ele>2599.4</ele>
        <time>2020-08-11T08:38:48Z</time>
      </trkpt>
      <trkpt lat="45.15661" lon="5.96164">
        <ele>2599.8</ele>
        <time>2020-08-11T08:38:49Z</time>
      </trkpt>
      <trkpt lat="45.15659" lon="5.96165">
        <ele>2599.8</ele>
        <time>2020-08-11T08:38:50Z</time>
      </trkpt>
      <trkpt lat="45.15659" lon="5.96165">
        <ele>2600</ele>
        <time>2020-08-11T08:38:51Z</time>
      </trkpt>
      <trkpt lat="45.15657" lon="5.96168">
        <ele>2600.2</ele>
        <time>2020-08-11T08:38:52Z</time>
      </trkpt>
      <trkpt lat="45.15657" lon="5.96168">
        <ele>2600.4</ele>
        <time>2020-08-11T08:38:53Z</time>
      </trkpt>
      <trkpt lat="45.15654" lon="5.96172">
        <ele>2600.6</ele>
        <time>2020-08-11T08:38:54Z</time>
      </trkpt>
      <trkpt lat="45.15654" lon="5.96172">
        <ele>2600.8</ele>
        <time>2020-08-11T08:38:55Z</time>
      </trkpt>
      <trkpt lat="45.15652" lon="5.96175">
        <ele>2601</ele>
        <time>2020-08-11T08:38:56Z</time>
      </trkpt>
      <trkpt lat="45.15652" lon="5.96175">
        <ele>2601.4</ele>
        <time>2020-08-11T08:38:57Z</time>
      </trkpt>
      <trkpt lat="45.1565" lon="5.96179">
        <ele>2601.4</ele>
        <time>2020-08-11T08:38:58Z</time>
      </trkpt>
      <trkpt lat="45.1565" lon="5.96179">
        <ele>2601.4</ele>
        <time>2020-08-11T08:38:59Z</time>
      </trkpt>
      <trkpt lat="45.15649" lon="5.96181">
        <ele>2601.2</ele>
        <time>2020-08-11T08:39:00Z</time>
      </trkpt>
      <trkpt lat="45.15649" lon="5.96181">
        <ele>2601.4</ele>
        <time>2020-08-11T08:39:01Z</time>
      </trkpt>
      <trkpt lat="45.15647" lon="5.96183">
        <ele>2601.6</ele>
        <time>2020-08-11T08:39:02Z</time>
      </trkpt>
      <trkpt lat="45.15647" lon="5.96183">
        <ele>2601.6</ele>
        <time>2020-08-11T08:39:03Z</time>
      </trkpt>
      <trkpt lat="45.15647" lon="5.96183">
        <ele>2601.6</ele>
        <time>2020-08-11T08:39:04Z</time>
      </trkpt>
      <trkpt lat="45.15646" lon="5.96185">
        <ele>2601.6</ele>
        <time>2020-08-11T08:39:05Z</time>
      </trkpt>
      <trkpt lat="45.15645" lon="5.96188">
        <ele>2601.6</ele>
        <time>2020-08-11T08:39:06Z</time>
      </trkpt>
      <trkpt lat="45.15644" lon="5.96191">
        <ele>2601.8</ele>
        <time>2020-08-11T08:39:07Z</time>
      </trkpt>
      <trkpt lat="45.15644" lon="5.96191">
        <ele>2601.8</ele>
        <time>2020-08-11T08:39:08Z</time>
      </trkpt>
      <trkpt lat="45.15643" lon="5.96194">
        <ele>2601.8</ele>
        <time>2020-08-11T08:39:09Z</time>
      </trkpt>
      <trkpt lat="45.15642" lon="5.96198">
        <ele>2601.8</ele>
        <time>2020-08-11T08:39:10Z</time>
      </trkpt>
      <trkpt lat="45.15642" lon="5.96198">
        <ele>2601.8</ele>
        <time>2020-08-11T08:39:11Z</time>
      </trkpt>
      <trkpt lat="45.1564" lon="5.96202">
        <ele>2601.8</ele>
        <time>2020-08-11T08:39:12Z</time>
      </trkpt>
      <trkpt lat="45.1564" lon="5.96202">
        <ele>2601.6</ele>
        <time>2020-08-11T08:39:13Z</time>
      </trkpt>
      <trkpt lat="45.1564" lon="5.96202">
        <ele>2601.8</ele>
        <time>2020-08-11T08:39:14Z</time>
      </trkpt>
      <trkpt lat="45.15638" lon="5.96206">
        <ele>2601.6</ele>
        <time>2020-08-11T08:39:15Z</time>
      </trkpt>
      <trkpt lat="45.15638" lon="5.96206">
        <ele>2601.6</ele>
        <time>2020-08-11T08:39:16Z</time>
      </trkpt>
      <trkpt lat="45.15637" lon="5.96211">
        <ele>2601.8</ele>
        <time>2020-08-11T08:39:17Z</time>
      </trkpt>
      <trkpt lat="45.15637" lon="5.96211">
        <ele>2602</ele>
        <time>2020-08-11T08:39:18Z</time>
      </trkpt>
      <trkpt lat="45.15635" lon="5.96214">
        <ele>2602</ele>
        <time>2020-08-11T08:39:19Z</time>
      </trkpt>
      <trkpt lat="45.15635" lon="5.96214">
        <ele>2602</ele>
        <time>2020-08-11T08:39:20Z</time>
      </trkpt>
      <trkpt lat="45.15635" lon="5.96214">
        <ele>2602</ele>
        <time>2020-08-11T08:39:21Z</time>
      </trkpt>
      <trkpt lat="45.15635" lon="5.96218">
        <ele>2602.2</ele>
        <time>2020-08-11T08:39:22Z</time>
      </trkpt>
      <trkpt lat="45.15635" lon="5.96218">
        <ele>2602.2</ele>
        <time>2020-08-11T08:39:23Z</time>
      </trkpt>
      <trkpt lat="45.15635" lon="5.96218">
        <ele>2602.6</ele>
        <time>2020-08-11T08:39:24Z</time>
      </trkpt>
      <trkpt lat="45.15634" lon="5.9622">
        <ele>2602.6</ele>
        <time>2020-08-11T08:39:25Z</time>
      </trkpt>
      <trkpt lat="45.15634" lon="5.9622">
        <ele>2602.8</ele>
        <time>2020-08-11T08:39:26Z</time>
      </trkpt>
      <trkpt lat="45.15634" lon="5.9622">
        <ele>2603</ele>
        <time>2020-08-11T08:39:27Z</time>
      </trkpt>
      <trkpt lat="45.15634" lon="5.9622">
        <ele>2603.4</ele>
        <time>2020-08-11T08:39:28Z</time>
      </trkpt>
      <trkpt lat="45.15633" lon="5.96224">
        <ele>2603.6</ele>
        <time>2020-08-11T08:39:29Z</time>
      </trkpt>
      <trkpt lat="45.15633" lon="5.96224">
        <ele>2603.6</ele>
        <time>2020-08-11T08:39:30Z</time>
      </trkpt>
      <trkpt lat="45.15632" lon="5.96226">
        <ele>2603.8</ele>
        <time>2020-08-11T08:39:31Z</time>
      </trkpt>
      <trkpt lat="45.15632" lon="5.96226">
        <ele>2604</ele>
        <time>2020-08-11T08:39:32Z</time>
      </trkpt>
      <trkpt lat="45.15632" lon="5.96226">
        <ele>2604.6</ele>
        <time>2020-08-11T08:39:33Z</time>
      </trkpt>
      <trkpt lat="45.1563" lon="5.96229">
        <ele>2604.8</ele>
        <time>2020-08-11T08:39:34Z</time>
      </trkpt>
      <trkpt lat="45.1563" lon="5.96229">
        <ele>2605.4</ele>
        <time>2020-08-11T08:39:35Z</time>
      </trkpt>
      <trkpt lat="45.1563" lon="5.96231">
        <ele>2605.8</ele>
        <time>2020-08-11T08:39:36Z</time>
      </trkpt>
      <trkpt lat="45.1563" lon="5.96231">
        <ele>2606.4</ele>
        <time>2020-08-11T08:39:37Z</time>
      </trkpt>
      <trkpt lat="45.15629" lon="5.96234">
        <ele>2606.2</ele>
        <time>2020-08-11T08:39:38Z</time>
      </trkpt>
      <trkpt lat="45.15629" lon="5.96234">
        <ele>2606</ele>
        <time>2020-08-11T08:39:39Z</time>
      </trkpt>
      <trkpt lat="45.15628" lon="5.96236">
        <ele>2606</ele>
        <time>2020-08-11T08:39:40Z</time>
      </trkpt>
      <trkpt lat="45.15627" lon="5.9624">
        <ele>2606</ele>
        <time>2020-08-11T08:39:41Z</time>
      </trkpt>
      <trkpt lat="45.15627" lon="5.96243">
        <ele>2606</ele>
        <time>2020-08-11T08:39:42Z</time>
      </trkpt>
      <trkpt lat="45.15627" lon="5.96243">
        <ele>2606.6</ele>
        <time>2020-08-11T08:39:43Z</time>
      </trkpt>
      <trkpt lat="45.15627" lon="5.96243">
        <ele>2606.8</ele>
        <time>2020-08-11T08:39:44Z</time>
      </trkpt>
      <trkpt lat="45.15627" lon="5.96248">
        <ele>2607</ele>
        <time>2020-08-11T08:39:45Z</time>
      </trkpt>
      <trkpt lat="45.15626" lon="5.96253">
        <ele>2607</ele>
        <time>2020-08-11T08:39:46Z</time>
      </trkpt>
      <trkpt lat="45.15626" lon="5.96253">
        <ele>2607</ele>
        <time>2020-08-11T08:39:47Z</time>
      </trkpt>
      <trkpt lat="45.15626" lon="5.96256">
        <ele>2607.2</ele>
        <time>2020-08-11T08:39:48Z</time>
      </trkpt>
      <trkpt lat="45.15625" lon="5.96258">
        <ele>2607.2</ele>
        <time>2020-08-11T08:39:49Z</time>
      </trkpt>
      <trkpt lat="45.15625" lon="5.96261">
        <ele>2607.4</ele>
        <time>2020-08-11T08:39:50Z</time>
      </trkpt>
      <trkpt lat="45.15624" lon="5.96265">
        <ele>2607.2</ele>
        <time>2020-08-11T08:39:51Z</time>
      </trkpt>
      <trkpt lat="45.15624" lon="5.96265">
        <ele>2607.2</ele>
        <time>2020-08-11T08:39:52Z</time>
      </trkpt>
      <trkpt lat="45.15624" lon="5.96265">
        <ele>2607.2</ele>
        <time>2020-08-11T08:39:53Z</time>
      </trkpt>
      <trkpt lat="45.15624" lon="5.96269">
        <ele>2607.2</ele>
        <time>2020-08-11T08:39:54Z</time>
      </trkpt>
      <trkpt lat="45.15624" lon="5.96269">
        <ele>2607.2</ele>
        <time>2020-08-11T08:39:55Z</time>
      </trkpt>
      <trkpt lat="45.15624" lon="5.96272">
        <ele>2607.2</ele>
        <time>2020-08-11T08:39:56Z</time>
      </trkpt>
      <trkpt lat="45.15624" lon="5.96272">
        <ele>2607.2</ele>
        <time>2020-08-11T08:39:57Z</time>
      </trkpt>
      <trkpt lat="45.15624" lon="5.96272">
        <ele>2607.4</ele>
        <time>2020-08-11T08:39:58Z</time>
      </trkpt>
      <trkpt lat="45.15624" lon="5.96275">
        <ele>2607.8</ele>
        <time>2020-08-11T08:39:59Z</time>
      </trkpt>
      <trkpt lat="45.15624" lon="5.96275">
        <ele>2607.8</ele>
        <time>2020-08-11T08:40:01Z</time>
      </trkpt>
      <trkpt lat="45.15624" lon="5.96279">
        <ele>2608</ele>
        <time>2020-08-11T08:40:02Z</time>
      </trkpt>
      <trkpt lat="45.15624" lon="5.96279">
        <ele>2608.2</ele>
        <time>2020-08-11T08:40:03Z</time>
      </trkpt>
      <trkpt lat="45.15622" lon="5.96283">
        <ele>2608.6</ele>
        <time>2020-08-11T08:40:04Z</time>
      </trkpt>
      <trkpt lat="45.15622" lon="5.96283">
        <ele>2608.8</ele>
        <time>2020-08-11T08:40:05Z</time>
      </trkpt>
      <trkpt lat="45.1562" lon="5.96286">
        <ele>2608.8</ele>
        <time>2020-08-11T08:40:06Z</time>
      </trkpt>
      <trkpt lat="45.15619" lon="5.96288">
        <ele>2608.8</ele>
        <time>2020-08-11T08:40:07Z</time>
      </trkpt>
      <trkpt lat="45.15619" lon="5.96288">
        <ele>2609</ele>
        <time>2020-08-11T08:40:08Z</time>
      </trkpt>
      <trkpt lat="45.15619" lon="5.96288">
        <ele>2609.2</ele>
        <time>2020-08-11T08:40:09Z</time>
      </trkpt>
      <trkpt lat="45.15617" lon="5.9629">
        <ele>2609.2</ele>
        <time>2020-08-11T08:40:10Z</time>
      </trkpt>
      <trkpt lat="45.15617" lon="5.9629">
        <ele>2609.2</ele>
        <time>2020-08-11T08:40:11Z</time>
      </trkpt>
      <trkpt lat="45.15617" lon="5.9629">
        <ele>2609.2</ele>
        <time>2020-08-11T08:40:12Z</time>
      </trkpt>
      <trkpt lat="45.15617" lon="5.9629">
        <ele>2609.2</ele>
        <time>2020-08-11T08:40:13Z</time>
      </trkpt>
      <trkpt lat="45.15615" lon="5.96291">
        <ele>2609.4</ele>
        <time>2020-08-11T08:40:14Z</time>
      </trkpt>
      <trkpt lat="45.15615" lon="5.96291">
        <ele>2609.8</ele>
        <time>2020-08-11T08:40:15Z</time>
      </trkpt>
      <trkpt lat="45.15613" lon="5.96292">
        <ele>2609.8</ele>
        <time>2020-08-11T08:40:16Z</time>
      </trkpt>
      <trkpt lat="45.15613" lon="5.96292">
        <ele>2609.6</ele>
        <time>2020-08-11T08:40:17Z</time>
      </trkpt>
      <trkpt lat="45.15613" lon="5.96292">
        <ele>2609.6</ele>
        <time>2020-08-11T08:40:18Z</time>
      </trkpt>
      <trkpt lat="45.15613" lon="5.96292">
        <ele>2609.8</ele>
        <time>2020-08-11T08:40:19Z</time>
      </trkpt>
      <trkpt lat="45.15613" lon="5.96292">
        <ele>2610</ele>
        <time>2020-08-11T08:40:20Z</time>
      </trkpt>
      <trkpt lat="45.15613" lon="5.96292">
        <ele>2610.4</ele>
        <time>2020-08-11T08:40:21Z</time>
      </trkpt>
      <trkpt lat="45.15613" lon="5.96292">
        <ele>2610.6</ele>
        <time>2020-08-11T08:40:22Z</time>
      </trkpt>
      <trkpt lat="45.15611" lon="5.96293">
        <ele>2610.8</ele>
        <time>2020-08-11T08:40:23Z</time>
      </trkpt>
      <trkpt lat="45.15611" lon="5.96293">
        <ele>2610.8</ele>
        <time>2020-08-11T08:40:24Z</time>
      </trkpt>
      <trkpt lat="45.15611" lon="5.96293">
        <ele>2611</ele>
        <time>2020-08-11T08:40:25Z</time>
      </trkpt>
      <trkpt lat="45.15611" lon="5.96293">
        <ele>2610.8</ele>
        <time>2020-08-11T08:40:26Z</time>
      </trkpt>
      <trkpt lat="45.15611" lon="5.96293">
        <ele>2610.8</ele>
        <time>2020-08-11T08:40:27Z</time>
      </trkpt>
      <trkpt lat="45.15611" lon="5.96293">
        <ele>2611</ele>
        <time>2020-08-11T08:40:28Z</time>
      </trkpt>
      <trkpt lat="45.15611" lon="5.96293">
        <ele>2611</ele>
        <time>2020-08-11T08:40:29Z</time>
      </trkpt>
      <trkpt lat="45.15611" lon="5.96293">
        <ele>2611</ele>
        <time>2020-08-11T08:40:30Z</time>
      </trkpt>
      <trkpt lat="45.15611" lon="5.96293">
        <ele>2611.2</ele>
        <time>2020-08-11T08:40:31Z</time>
      </trkpt>
      <trkpt lat="45.15611" lon="5.96293">
        <ele>2611.2</ele>
        <time>2020-08-11T08:40:32Z</time>
      </trkpt>
      <trkpt lat="45.15611" lon="5.96293">
        <ele>2611.2</ele>
        <time>2020-08-11T08:40:33Z</time>
      </trkpt>
      <trkpt lat="45.15611" lon="5.96293">
        <ele>2610.6</ele>
        <time>2020-08-11T08:40:34Z</time>
      </trkpt>
      <trkpt lat="45.15611" lon="5.96293">
        <ele>2610.6</ele>
        <time>2020-08-11T08:40:35Z</time>
      </trkpt>
      <trkpt lat="45.15611" lon="5.96293">
        <ele>2610.6</ele>
        <time>2020-08-11T08:40:36Z</time>
      </trkpt>
      <trkpt lat="45.15611" lon="5.96293">
        <ele>2610.6</ele>
        <time>2020-08-11T08:40:37Z</time>
      </trkpt>
      <trkpt lat="45.15611" lon="5.96293">
        <ele>2610.8</ele>
        <time>2020-08-11T08:40:39Z</time>
      </trkpt>
      <trkpt lat="45.15611" lon="5.96293">
        <ele>2610.4</ele>
        <time>2020-08-11T08:40:40Z</time>
      </trkpt>
      <trkpt lat="45.15611" lon="5.96293">
        <ele>2610.2</ele>
        <time>2020-08-11T08:40:41Z</time>
      </trkpt>
      <trkpt lat="45.15611" lon="5.96293">
        <ele>2609.8</ele>
        <time>2020-08-11T08:40:42Z</time>
      </trkpt>
      <trkpt lat="45.15611" lon="5.96293">
        <ele>2609.8</ele>
        <time>2020-08-11T08:40:43Z</time>
      </trkpt>
      <trkpt lat="45.15611" lon="5.96293">
        <ele>2609.6</ele>
        <time>2020-08-11T08:40:44Z</time>
      </trkpt>
      <trkpt lat="45.15611" lon="5.96293">
        <ele>2610</ele>
        <time>2020-08-11T08:40:45Z</time>
      </trkpt>
      <trkpt lat="45.15611" lon="5.96293">
        <ele>2610.2</ele>
        <time>2020-08-11T08:40:46Z</time>
      </trkpt>
      <trkpt lat="45.15611" lon="5.96293">
        <ele>2610.2</ele>
        <time>2020-08-11T08:40:47Z</time>
      </trkpt>
      <trkpt lat="45.15611" lon="5.96293">
        <ele>2610.4</ele>
        <time>2020-08-11T08:40:48Z</time>
      </trkpt>
      <trkpt lat="45.15611" lon="5.96293">
        <ele>2610.2</ele>
        <time>2020-08-11T08:40:49Z</time>
      </trkpt>
      <trkpt lat="45.15611" lon="5.96293">
        <ele>2610</ele>
        <time>2020-08-11T08:40:50Z</time>
      </trkpt>
      <trkpt lat="45.15611" lon="5.96293">
        <ele>2610</ele>
        <time>2020-08-11T08:40:51Z</time>
      </trkpt>
      <trkpt lat="45.15611" lon="5.96293">
        <ele>2610.2</ele>
        <time>2020-08-11T08:40:52Z</time>
      </trkpt>
      <trkpt lat="45.15611" lon="5.96293">
        <ele>2610.6</ele>
        <time>2020-08-11T08:40:53Z</time>
      </trkpt>
      <trkpt lat="45.15611" lon="5.96293">
        <ele>2610.6</ele>
        <time>2020-08-11T08:40:54Z</time>
      </trkpt>
      <trkpt lat="45.15611" lon="5.96293">
        <ele>2610.8</ele>
        <time>2020-08-11T08:40:55Z</time>
      </trkpt>
      <trkpt lat="45.15611" lon="5.96293">
        <ele>2611</ele>
        <time>2020-08-11T08:40:56Z</time>
      </trkpt>
      <trkpt lat="45.1561" lon="5.96295">
        <ele>2611</ele>
        <time>2020-08-11T08:40:57Z</time>
      </trkpt>
      <trkpt lat="45.1561" lon="5.96295">
        <ele>2610.8</ele>
        <time>2020-08-11T08:40:58Z</time>
      </trkpt>
      <trkpt lat="45.1561" lon="5.96295">
        <ele>2610.2</ele>
        <time>2020-08-11T08:40:59Z</time>
      </trkpt>
      <trkpt lat="45.1561" lon="5.96295">
        <ele>2610</ele>
        <time>2020-08-11T08:41:00Z</time>
      </trkpt>
      <trkpt lat="45.1561" lon="5.96295">
        <ele>2610.2</ele>
        <time>2020-08-11T08:41:01Z</time>
      </trkpt>
      <trkpt lat="45.1561" lon="5.96295">
        <ele>2610.6</ele>
        <time>2020-08-11T08:41:02Z</time>
      </trkpt>
      <trkpt lat="45.15608" lon="5.96297">
        <ele>2610.6</ele>
        <time>2020-08-11T08:41:03Z</time>
      </trkpt>
      <trkpt lat="45.15606" lon="5.96299">
        <ele>2610.4</ele>
        <time>2020-08-11T08:41:04Z</time>
      </trkpt>
      <trkpt lat="45.15606" lon="5.96299">
        <ele>2610.2</ele>
        <time>2020-08-11T08:41:05Z</time>
      </trkpt>
      <trkpt lat="45.15606" lon="5.96299">
        <ele>2610.2</ele>
        <time>2020-08-11T08:41:06Z</time>
      </trkpt>
      <trkpt lat="45.15604" lon="5.963">
        <ele>2610.4</ele>
        <time>2020-08-11T08:41:07Z</time>
      </trkpt>
      <trkpt lat="45.15604" lon="5.963">
        <ele>2610.4</ele>
        <time>2020-08-11T08:41:08Z</time>
      </trkpt>
      <trkpt lat="45.15602" lon="5.963">
        <ele>2610.4</ele>
        <time>2020-08-11T08:41:09Z</time>
      </trkpt>
      <trkpt lat="45.15602" lon="5.963">
        <ele>2610.6</ele>
        <time>2020-08-11T08:41:10Z</time>
      </trkpt>
      <trkpt lat="45.15602" lon="5.963">
        <ele>2610.8</ele>
        <time>2020-08-11T08:41:11Z</time>
      </trkpt>
      <trkpt lat="45.156" lon="5.96301">
        <ele>2611</ele>
        <time>2020-08-11T08:41:12Z</time>
      </trkpt>
      <trkpt lat="45.15599" lon="5.96303">
        <ele>2611.2</ele>
        <time>2020-08-11T08:41:13Z</time>
      </trkpt>
      <trkpt lat="45.15599" lon="5.96303">
        <ele>2611.4</ele>
        <time>2020-08-11T08:41:14Z</time>
      </trkpt>
      <trkpt lat="45.15599" lon="5.96307">
        <ele>2611.6</ele>
        <time>2020-08-11T08:41:15Z</time>
      </trkpt>
      <trkpt lat="45.15599" lon="5.96307">
        <ele>2611.6</ele>
        <time>2020-08-11T08:41:16Z</time>
      </trkpt>
      <trkpt lat="45.15599" lon="5.96307">
        <ele>2611.8</ele>
        <time>2020-08-11T08:41:17Z</time>
      </trkpt>
      <trkpt lat="45.15599" lon="5.96307">
        <ele>2612</ele>
        <time>2020-08-11T08:41:18Z</time>
      </trkpt>
      <trkpt lat="45.15599" lon="5.96307">
        <ele>2612.2</ele>
        <time>2020-08-11T08:41:19Z</time>
      </trkpt>
      <trkpt lat="45.15597" lon="5.96309">
        <ele>2612.2</ele>
        <time>2020-08-11T08:41:20Z</time>
      </trkpt>
      <trkpt lat="45.15597" lon="5.96309">
        <ele>2612.2</ele>
        <time>2020-08-11T08:41:21Z</time>
      </trkpt>
      <trkpt lat="45.15597" lon="5.96309">
        <ele>2612</ele>
        <time>2020-08-11T08:41:22Z</time>
      </trkpt>
      <trkpt lat="45.15595" lon="5.9631">
        <ele>2612.4</ele>
        <time>2020-08-11T08:41:23Z</time>
      </trkpt>
      <trkpt lat="45.15595" lon="5.9631">
        <ele>2612.4</ele>
        <time>2020-08-11T08:41:24Z</time>
      </trkpt>
      <trkpt lat="45.15593" lon="5.96311">
        <ele>2612.2</ele>
        <time>2020-08-11T08:41:25Z</time>
      </trkpt>
      <trkpt lat="45.15593" lon="5.96311">
        <ele>2612</ele>
        <time>2020-08-11T08:41:26Z</time>
      </trkpt>
      <trkpt lat="45.1559" lon="5.96311">
        <ele>2612</ele>
        <time>2020-08-11T08:41:27Z</time>
      </trkpt>
      <trkpt lat="45.1559" lon="5.96311">
        <ele>2612</ele>
        <time>2020-08-11T08:41:28Z</time>
      </trkpt>
      <trkpt lat="45.15587" lon="5.96312">
        <ele>2612</ele>
        <time>2020-08-11T08:41:29Z</time>
      </trkpt>
      <trkpt lat="45.15584" lon="5.96314">
        <ele>2611.8</ele>
        <time>2020-08-11T08:41:30Z</time>
      </trkpt>
      <trkpt lat="45.15584" lon="5.96314">
        <ele>2611.6</ele>
        <time>2020-08-11T08:41:31Z</time>
      </trkpt>
      <trkpt lat="45.15583" lon="5.96315">
        <ele>2611.6</ele>
        <time>2020-08-11T08:41:32Z</time>
      </trkpt>
      <trkpt lat="45.15581" lon="5.96317">
        <ele>2611.4</ele>
        <time>2020-08-11T08:41:33Z</time>
      </trkpt>
      <trkpt lat="45.1558" lon="5.96318">
        <ele>2611.6</ele>
        <time>2020-08-11T08:41:34Z</time>
      </trkpt>
      <trkpt lat="45.15578" lon="5.9632">
        <ele>2611.6</ele>
        <time>2020-08-11T08:41:35Z</time>
      </trkpt>
      <trkpt lat="45.15575" lon="5.96324">
        <ele>2611.4</ele>
        <time>2020-08-11T08:41:36Z</time>
      </trkpt>
      <trkpt lat="45.15575" lon="5.96324">
        <ele>2611.2</ele>
        <time>2020-08-11T08:41:37Z</time>
      </trkpt>
      <trkpt lat="45.15573" lon="5.96326">
        <ele>2611</ele>
        <time>2020-08-11T08:41:38Z</time>
      </trkpt>
      <trkpt lat="45.1557" lon="5.96329">
        <ele>2610.8</ele>
        <time>2020-08-11T08:41:39Z</time>
      </trkpt>
      <trkpt lat="45.1557" lon="5.96329">
        <ele>2610.8</ele>
        <time>2020-08-11T08:41:40Z</time>
      </trkpt>
      <trkpt lat="45.1557" lon="5.96329">
        <ele>2610.8</ele>
        <time>2020-08-11T08:41:41Z</time>
      </trkpt>
      <trkpt lat="45.15567" lon="5.9633">
        <ele>2610.6</ele>
        <time>2020-08-11T08:41:42Z</time>
      </trkpt>
      <trkpt lat="45.15565" lon="5.96331">
        <ele>2610.4</ele>
        <time>2020-08-11T08:41:43Z</time>
      </trkpt>
      <trkpt lat="45.15565" lon="5.96331">
        <ele>2610.2</ele>
        <time>2020-08-11T08:41:44Z</time>
      </trkpt>
      <trkpt lat="45.15565" lon="5.96331">
        <ele>2610.2</ele>
        <time>2020-08-11T08:41:45Z</time>
      </trkpt>
      <trkpt lat="45.15563" lon="5.96333">
        <ele>2610.2</ele>
        <time>2020-08-11T08:41:46Z</time>
      </trkpt>
      <trkpt lat="45.15563" lon="5.96333">
        <ele>2610.4</ele>
        <time>2020-08-11T08:41:47Z</time>
      </trkpt>
      <trkpt lat="45.15563" lon="5.96333">
        <ele>2610</ele>
        <time>2020-08-11T08:41:48Z</time>
      </trkpt>
      <trkpt lat="45.15563" lon="5.96333">
        <ele>2610</ele>
        <time>2020-08-11T08:41:49Z</time>
      </trkpt>
      <trkpt lat="45.15561" lon="5.96333">
        <ele>2609.8</ele>
        <time>2020-08-11T08:41:50Z</time>
      </trkpt>
      <trkpt lat="45.15561" lon="5.96333">
        <ele>2610</ele>
        <time>2020-08-11T08:41:51Z</time>
      </trkpt>
      <trkpt lat="45.15561" lon="5.96333">
        <ele>2610</ele>
        <time>2020-08-11T08:41:52Z</time>
      </trkpt>
      <trkpt lat="45.15559" lon="5.96333">
        <ele>2610</ele>
        <time>2020-08-11T08:41:53Z</time>
      </trkpt>
      <trkpt lat="45.15559" lon="5.96333">
        <ele>2609.8</ele>
        <time>2020-08-11T08:41:54Z</time>
      </trkpt>
      <trkpt lat="45.15559" lon="5.96333">
        <ele>2609.4</ele>
        <time>2020-08-11T08:41:55Z</time>
      </trkpt>
      <trkpt lat="45.15557" lon="5.96334">
        <ele>2609.2</ele>
        <time>2020-08-11T08:41:56Z</time>
      </trkpt>
      <trkpt lat="45.15557" lon="5.96334">
        <ele>2609.2</ele>
        <time>2020-08-11T08:41:57Z</time>
      </trkpt>
      <trkpt lat="45.15554" lon="5.96335">
        <ele>2609.2</ele>
        <time>2020-08-11T08:41:58Z</time>
      </trkpt>
      <trkpt lat="45.15551" lon="5.96338">
        <ele>2609.4</ele>
        <time>2020-08-11T08:41:59Z</time>
      </trkpt>
      <trkpt lat="45.15551" lon="5.96338">
        <ele>2609.4</ele>
        <time>2020-08-11T08:42:00Z</time>
      </trkpt>
      <trkpt lat="45.15551" lon="5.96338">
        <ele>2609.4</ele>
        <time>2020-08-11T08:42:01Z</time>
      </trkpt>
      <trkpt lat="45.15549" lon="5.96339">
        <ele>2609.4</ele>
        <time>2020-08-11T08:42:02Z</time>
      </trkpt>
      <trkpt lat="45.15547" lon="5.96341">
        <ele>2609.6</ele>
        <time>2020-08-11T08:42:03Z</time>
      </trkpt>
      <trkpt lat="45.15547" lon="5.96341">
        <ele>2609.8</ele>
        <time>2020-08-11T08:42:04Z</time>
      </trkpt>
      <trkpt lat="45.15547" lon="5.96341">
        <ele>2610</ele>
        <time>2020-08-11T08:42:05Z</time>
      </trkpt>
      <trkpt lat="45.15545" lon="5.96341">
        <ele>2610</ele>
        <time>2020-08-11T08:42:06Z</time>
      </trkpt>
      <trkpt lat="45.15545" lon="5.96341">
        <ele>2610.2</ele>
        <time>2020-08-11T08:42:07Z</time>
      </trkpt>
      <trkpt lat="45.15543" lon="5.9634">
        <ele>2610.4</ele>
        <time>2020-08-11T08:42:08Z</time>
      </trkpt>
      <trkpt lat="45.15543" lon="5.9634">
        <ele>2610.6</ele>
        <time>2020-08-11T08:42:09Z</time>
      </trkpt>
      <trkpt lat="45.15543" lon="5.9634">
        <ele>2611.2</ele>
        <time>2020-08-11T08:42:10Z</time>
      </trkpt>
      <trkpt lat="45.15543" lon="5.9634">
        <ele>2611.4</ele>
        <time>2020-08-11T08:42:11Z</time>
      </trkpt>
      <trkpt lat="45.15541" lon="5.96342">
        <ele>2611.6</ele>
        <time>2020-08-11T08:42:12Z</time>
      </trkpt>
      <trkpt lat="45.15541" lon="5.96342">
        <ele>2611.8</ele>
        <time>2020-08-11T08:42:13Z</time>
      </trkpt>
      <trkpt lat="45.15541" lon="5.96342">
        <ele>2612.2</ele>
        <time>2020-08-11T08:42:14Z</time>
      </trkpt>
      <trkpt lat="45.15541" lon="5.96342">
        <ele>2612.2</ele>
        <time>2020-08-11T08:42:15Z</time>
      </trkpt>
      <trkpt lat="45.15541" lon="5.96342">
        <ele>2612.4</ele>
        <time>2020-08-11T08:42:16Z</time>
      </trkpt>
      <trkpt lat="45.15539" lon="5.96344">
        <ele>2612.4</ele>
        <time>2020-08-11T08:42:17Z</time>
      </trkpt>
      <trkpt lat="45.15539" lon="5.96344">
        <ele>2612.6</ele>
        <time>2020-08-11T08:42:18Z</time>
      </trkpt>
      <trkpt lat="45.15537" lon="5.96345">
        <ele>2613</ele>
        <time>2020-08-11T08:42:19Z</time>
      </trkpt>
      <trkpt lat="45.15537" lon="5.96345">
        <ele>2613.2</ele>
        <time>2020-08-11T08:42:20Z</time>
      </trkpt>
      <trkpt lat="45.15535" lon="5.96346">
        <ele>2613.2</ele>
        <time>2020-08-11T08:42:21Z</time>
      </trkpt>
      <trkpt lat="45.15535" lon="5.96346">
        <ele>2613.4</ele>
        <time>2020-08-11T08:42:22Z</time>
      </trkpt>
      <trkpt lat="45.15535" lon="5.96346">
        <ele>2613.4</ele>
        <time>2020-08-11T08:42:23Z</time>
      </trkpt>
      <trkpt lat="45.15533" lon="5.96347">
        <ele>2614</ele>
        <time>2020-08-11T08:42:24Z</time>
      </trkpt>
      <trkpt lat="45.15533" lon="5.96347">
        <ele>2614</ele>
        <time>2020-08-11T08:42:25Z</time>
      </trkpt>
      <trkpt lat="45.15533" lon="5.96347">
        <ele>2614.2</ele>
        <time>2020-08-11T08:42:26Z</time>
      </trkpt>
      <trkpt lat="45.15531" lon="5.96348">
        <ele>2614.4</ele>
        <time>2020-08-11T08:42:27Z</time>
      </trkpt>
      <trkpt lat="45.15531" lon="5.96348">
        <ele>2614.8</ele>
        <time>2020-08-11T08:42:28Z</time>
      </trkpt>
      <trkpt lat="45.15531" lon="5.96348">
        <ele>2615.2</ele>
        <time>2020-08-11T08:42:29Z</time>
      </trkpt>
      <trkpt lat="45.15531" lon="5.96348">
        <ele>2615.6</ele>
        <time>2020-08-11T08:42:30Z</time>
      </trkpt>
      <trkpt lat="45.15529" lon="5.96349">
        <ele>2615.6</ele>
        <time>2020-08-11T08:42:31Z</time>
      </trkpt>
      <trkpt lat="45.15529" lon="5.96349">
        <ele>2616</ele>
        <time>2020-08-11T08:42:32Z</time>
      </trkpt>
      <trkpt lat="45.15529" lon="5.96349">
        <ele>2616</ele>
        <time>2020-08-11T08:42:33Z</time>
      </trkpt>
      <trkpt lat="45.15527" lon="5.9635">
        <ele>2616.2</ele>
        <time>2020-08-11T08:42:34Z</time>
      </trkpt>
      <trkpt lat="45.15527" lon="5.9635">
        <ele>2616.2</ele>
        <time>2020-08-11T08:42:35Z</time>
      </trkpt>
      <trkpt lat="45.15525" lon="5.9635">
        <ele>2616.4</ele>
        <time>2020-08-11T08:42:36Z</time>
      </trkpt>
      <trkpt lat="45.15525" lon="5.9635">
        <ele>2616.8</ele>
        <time>2020-08-11T08:42:37Z</time>
      </trkpt>
      <trkpt lat="45.15525" lon="5.9635">
        <ele>2617</ele>
        <time>2020-08-11T08:42:38Z</time>
      </trkpt>
      <trkpt lat="45.15522" lon="5.96349">
        <ele>2617</ele>
        <time>2020-08-11T08:42:39Z</time>
      </trkpt>
      <trkpt lat="45.15522" lon="5.96349">
        <ele>2617</ele>
        <time>2020-08-11T08:42:40Z</time>
      </trkpt>
      <trkpt lat="45.1552" lon="5.96347">
        <ele>2617.2</ele>
        <time>2020-08-11T08:42:41Z</time>
      </trkpt>
      <trkpt lat="45.1552" lon="5.96347">
        <ele>2617.4</ele>
        <time>2020-08-11T08:42:42Z</time>
      </trkpt>
      <trkpt lat="45.15518" lon="5.96346">
        <ele>2617.4</ele>
        <time>2020-08-11T08:42:43Z</time>
      </trkpt>
      <trkpt lat="45.15518" lon="5.96346">
        <ele>2617.6</ele>
        <time>2020-08-11T08:42:44Z</time>
      </trkpt>
      <trkpt lat="45.15518" lon="5.96346">
        <ele>2617.8</ele>
        <time>2020-08-11T08:42:45Z</time>
      </trkpt>
      <trkpt lat="45.15516" lon="5.96344">
        <ele>2617.8</ele>
        <time>2020-08-11T08:42:46Z</time>
      </trkpt>
      <trkpt lat="45.15516" lon="5.96344">
        <ele>2618</ele>
        <time>2020-08-11T08:42:47Z</time>
      </trkpt>
      <trkpt lat="45.15516" lon="5.96344">
        <ele>2618</ele>
        <time>2020-08-11T08:42:48Z</time>
      </trkpt>
      <trkpt lat="45.15514" lon="5.96344">
        <ele>2618</ele>
        <time>2020-08-11T08:42:49Z</time>
      </trkpt>
      <trkpt lat="45.15514" lon="5.96344">
        <ele>2618.2</ele>
        <time>2020-08-11T08:42:50Z</time>
      </trkpt>
      <trkpt lat="45.15514" lon="5.96344">
        <ele>2618.4</ele>
        <time>2020-08-11T08:42:51Z</time>
      </trkpt>
      <trkpt lat="45.15514" lon="5.96344">
        <ele>2618.6</ele>
        <time>2020-08-11T08:42:52Z</time>
      </trkpt>
      <trkpt lat="45.15514" lon="5.96344">
        <ele>2619</ele>
        <time>2020-08-11T08:42:53Z</time>
      </trkpt>
      <trkpt lat="45.15513" lon="5.96346">
        <ele>2619</ele>
        <time>2020-08-11T08:42:54Z</time>
      </trkpt>
      <trkpt lat="45.15513" lon="5.96346">
        <ele>2619.4</ele>
        <time>2020-08-11T08:42:55Z</time>
      </trkpt>
      <trkpt lat="45.15513" lon="5.96346">
        <ele>2619.6</ele>
        <time>2020-08-11T08:42:56Z</time>
      </trkpt>
      <trkpt lat="45.1551" lon="5.96346">
        <ele>2619.8</ele>
        <time>2020-08-11T08:42:57Z</time>
      </trkpt>
      <trkpt lat="45.1551" lon="5.96346">
        <ele>2620</ele>
        <time>2020-08-11T08:42:58Z</time>
      </trkpt>
      <trkpt lat="45.1551" lon="5.96346">
        <ele>2620</ele>
        <time>2020-08-11T08:42:59Z</time>
      </trkpt>
      <trkpt lat="45.1551" lon="5.96346">
        <ele>2620.2</ele>
        <time>2020-08-11T08:43:00Z</time>
      </trkpt>
      <trkpt lat="45.1551" lon="5.96346">
        <ele>2620.4</ele>
        <time>2020-08-11T08:43:01Z</time>
      </trkpt>
      <trkpt lat="45.15508" lon="5.96347">
        <ele>2620.6</ele>
        <time>2020-08-11T08:43:02Z</time>
      </trkpt>
      <trkpt lat="45.15508" lon="5.96347">
        <ele>2621</ele>
        <time>2020-08-11T08:43:03Z</time>
      </trkpt>
      <trkpt lat="45.15508" lon="5.96347">
        <ele>2621.2</ele>
        <time>2020-08-11T08:43:04Z</time>
      </trkpt>
      <trkpt lat="45.15508" lon="5.96347">
        <ele>2621.4</ele>
        <time>2020-08-11T08:43:05Z</time>
      </trkpt>
      <trkpt lat="45.15506" lon="5.96349">
        <ele>2621.4</ele>
        <time>2020-08-11T08:43:06Z</time>
      </trkpt>
      <trkpt lat="45.15506" lon="5.96349">
        <ele>2621.6</ele>
        <time>2020-08-11T08:43:07Z</time>
      </trkpt>
      <trkpt lat="45.15506" lon="5.96349">
        <ele>2621.8</ele>
        <time>2020-08-11T08:43:08Z</time>
      </trkpt>
      <trkpt lat="45.15504" lon="5.96348">
        <ele>2621.8</ele>
        <time>2020-08-11T08:43:09Z</time>
      </trkpt>
      <trkpt lat="45.15504" lon="5.96348">
        <ele>2622</ele>
        <time>2020-08-11T08:43:10Z</time>
      </trkpt>
      <trkpt lat="45.15504" lon="5.96348">
        <ele>2622.2</ele>
        <time>2020-08-11T08:43:11Z</time>
      </trkpt>
      <trkpt lat="45.15502" lon="5.96347">
        <ele>2622.6</ele>
        <time>2020-08-11T08:43:12Z</time>
      </trkpt>
      <trkpt lat="45.15502" lon="5.96347">
        <ele>2622.8</ele>
        <time>2020-08-11T08:43:13Z</time>
      </trkpt>
      <trkpt lat="45.15502" lon="5.96347">
        <ele>2623</ele>
        <time>2020-08-11T08:43:14Z</time>
      </trkpt>
      <trkpt lat="45.15502" lon="5.96347">
        <ele>2623.2</ele>
        <time>2020-08-11T08:43:15Z</time>
      </trkpt>
      <trkpt lat="45.15501" lon="5.96348">
        <ele>2623.4</ele>
        <time>2020-08-11T08:43:16Z</time>
      </trkpt>
      <trkpt lat="45.15501" lon="5.96348">
        <ele>2623.8</ele>
        <time>2020-08-11T08:43:17Z</time>
      </trkpt>
      <trkpt lat="45.15501" lon="5.96348">
        <ele>2624</ele>
        <time>2020-08-11T08:43:18Z</time>
      </trkpt>
      <trkpt lat="45.15501" lon="5.96348">
        <ele>2624.2</ele>
        <time>2020-08-11T08:43:19Z</time>
      </trkpt>
      <trkpt lat="45.15498" lon="5.96348">
        <ele>2624.4</ele>
        <time>2020-08-11T08:43:20Z</time>
      </trkpt>
      <trkpt lat="45.15498" lon="5.96348">
        <ele>2624.8</ele>
        <time>2020-08-11T08:43:21Z</time>
      </trkpt>
      <trkpt lat="45.15498" lon="5.96348">
        <ele>2625</ele>
        <time>2020-08-11T08:43:22Z</time>
      </trkpt>
      <trkpt lat="45.15496" lon="5.96349">
        <ele>2625</ele>
        <time>2020-08-11T08:43:23Z</time>
      </trkpt>
      <trkpt lat="45.15496" lon="5.96349">
        <ele>2625</ele>
        <time>2020-08-11T08:43:24Z</time>
      </trkpt>
      <trkpt lat="45.15496" lon="5.96349">
        <ele>2625.2</ele>
        <time>2020-08-11T08:43:25Z</time>
      </trkpt>
      <trkpt lat="45.15496" lon="5.96349">
        <ele>2625.4</ele>
        <time>2020-08-11T08:43:26Z</time>
      </trkpt>
      <trkpt lat="45.15496" lon="5.96349">
        <ele>2625.6</ele>
        <time>2020-08-11T08:43:27Z</time>
      </trkpt>
      <trkpt lat="45.15494" lon="5.9635">
        <ele>2625.6</ele>
        <time>2020-08-11T08:43:28Z</time>
      </trkpt>
      <trkpt lat="45.15494" lon="5.9635">
        <ele>2625.6</ele>
        <time>2020-08-11T08:43:29Z</time>
      </trkpt>
      <trkpt lat="45.15494" lon="5.9635">
        <ele>2625.8</ele>
        <time>2020-08-11T08:43:30Z</time>
      </trkpt>
      <trkpt lat="45.15494" lon="5.96354">
        <ele>2626</ele>
        <time>2020-08-11T08:43:31Z</time>
      </trkpt>
      <trkpt lat="45.15494" lon="5.96354">
        <ele>2626.2</ele>
        <time>2020-08-11T08:43:32Z</time>
      </trkpt>
      <trkpt lat="45.15494" lon="5.96354">
        <ele>2626.4</ele>
        <time>2020-08-11T08:43:33Z</time>
      </trkpt>
      <trkpt lat="45.15494" lon="5.96354">
        <ele>2626.6</ele>
        <time>2020-08-11T08:43:34Z</time>
      </trkpt>
      <trkpt lat="45.15494" lon="5.96354">
        <ele>2626.6</ele>
        <time>2020-08-11T08:43:35Z</time>
      </trkpt>
      <trkpt lat="45.15494" lon="5.96354">
        <ele>2626.6</ele>
        <time>2020-08-11T08:43:36Z</time>
      </trkpt>
      <trkpt lat="45.15495" lon="5.96357">
        <ele>2626.6</ele>
        <time>2020-08-11T08:43:37Z</time>
      </trkpt>
      <trkpt lat="45.15495" lon="5.96357">
        <ele>2627</ele>
        <time>2020-08-11T08:43:38Z</time>
      </trkpt>
      <trkpt lat="45.15495" lon="5.96357">
        <ele>2627</ele>
        <time>2020-08-11T08:43:39Z</time>
      </trkpt>
      <trkpt lat="45.15495" lon="5.96357">
        <ele>2627</ele>
        <time>2020-08-11T08:43:40Z</time>
      </trkpt>
      <trkpt lat="45.15496" lon="5.96359">
        <ele>2627.2</ele>
        <time>2020-08-11T08:43:41Z</time>
      </trkpt>
      <trkpt lat="45.15496" lon="5.96359">
        <ele>2627.4</ele>
        <time>2020-08-11T08:43:42Z</time>
      </trkpt>
      <trkpt lat="45.15496" lon="5.96359">
        <ele>2627.4</ele>
        <time>2020-08-11T08:43:43Z</time>
      </trkpt>
      <trkpt lat="45.15498" lon="5.96361">
        <ele>2627.4</ele>
        <time>2020-08-11T08:43:44Z</time>
      </trkpt>
      <trkpt lat="45.15498" lon="5.96361">
        <ele>2627.4</ele>
        <time>2020-08-11T08:43:45Z</time>
      </trkpt>
      <trkpt lat="45.15498" lon="5.96361">
        <ele>2627.6</ele>
        <time>2020-08-11T08:43:46Z</time>
      </trkpt>
      <trkpt lat="45.15498" lon="5.96361">
        <ele>2627.8</ele>
        <time>2020-08-11T08:43:47Z</time>
      </trkpt>
      <trkpt lat="45.15498" lon="5.96361">
        <ele>2627.8</ele>
        <time>2020-08-11T08:43:48Z</time>
      </trkpt>
      <trkpt lat="45.15498" lon="5.96361">
        <ele>2628</ele>
        <time>2020-08-11T08:43:49Z</time>
      </trkpt>
      <trkpt lat="45.15498" lon="5.96361">
        <ele>2628.2</ele>
        <time>2020-08-11T08:43:50Z</time>
      </trkpt>
      <trkpt lat="45.15498" lon="5.96361">
        <ele>2628.2</ele>
        <time>2020-08-11T08:43:51Z</time>
      </trkpt>
      <trkpt lat="45.15498" lon="5.96361">
        <ele>2628</ele>
        <time>2020-08-11T08:43:52Z</time>
      </trkpt>
      <trkpt lat="45.155" lon="5.96361">
        <ele>2627.8</ele>
        <time>2020-08-11T08:43:53Z</time>
      </trkpt>
      <trkpt lat="45.155" lon="5.96361">
        <ele>2627.6</ele>
        <time>2020-08-11T08:43:54Z</time>
      </trkpt>
      <trkpt lat="45.155" lon="5.96361">
        <ele>2627.4</ele>
        <time>2020-08-11T08:43:55Z</time>
      </trkpt>
      <trkpt lat="45.155" lon="5.96361">
        <ele>2627.2</ele>
        <time>2020-08-11T08:43:56Z</time>
      </trkpt>
      <trkpt lat="45.155" lon="5.96361">
        <ele>2627.2</ele>
        <time>2020-08-11T08:43:57Z</time>
      </trkpt>
      <trkpt lat="45.155" lon="5.96361">
        <ele>2627</ele>
        <time>2020-08-11T08:43:58Z</time>
      </trkpt>
      <trkpt lat="45.155" lon="5.96361">
        <ele>2627</ele>
        <time>2020-08-11T08:43:59Z</time>
      </trkpt>
      <trkpt lat="45.155" lon="5.96361">
        <ele>2627</ele>
        <time>2020-08-11T08:44:00Z</time>
      </trkpt>
      <trkpt lat="45.155" lon="5.96361">
        <ele>2626.8</ele>
        <time>2020-08-11T08:44:01Z</time>
      </trkpt>
      <trkpt lat="45.155" lon="5.96361">
        <ele>2627</ele>
        <time>2020-08-11T08:44:02Z</time>
      </trkpt>
      <trkpt lat="45.155" lon="5.96361">
        <ele>2627</ele>
        <time>2020-08-11T08:44:03Z</time>
      </trkpt>
      <trkpt lat="45.155" lon="5.96361">
        <ele>2627.6</ele>
        <time>2020-08-11T08:44:04Z</time>
      </trkpt>
      <trkpt lat="45.155" lon="5.96361">
        <ele>2628</ele>
        <time>2020-08-11T08:44:05Z</time>
      </trkpt>
      <trkpt lat="45.155" lon="5.96361">
        <ele>2628</ele>
        <time>2020-08-11T08:44:06Z</time>
      </trkpt>
      <trkpt lat="45.155" lon="5.96361">
        <ele>2627.8</ele>
        <time>2020-08-11T08:44:07Z</time>
      </trkpt>
      <trkpt lat="45.155" lon="5.96361">
        <ele>2627.4</ele>
        <time>2020-08-11T08:44:08Z</time>
      </trkpt>
      <trkpt lat="45.155" lon="5.96361">
        <ele>2627.4</ele>
        <time>2020-08-11T08:44:09Z</time>
      </trkpt>
      <trkpt lat="45.155" lon="5.96361">
        <ele>2627.2</ele>
        <time>2020-08-11T08:44:10Z</time>
      </trkpt>
      <trkpt lat="45.155" lon="5.96361">
        <ele>2627</ele>
        <time>2020-08-11T08:44:11Z</time>
      </trkpt>
      <trkpt lat="45.155" lon="5.96361">
        <ele>2627</ele>
        <time>2020-08-11T08:44:12Z</time>
      </trkpt>
      <trkpt lat="45.155" lon="5.96358">
        <ele>2627.2</ele>
        <time>2020-08-11T08:44:13Z</time>
      </trkpt>
      <trkpt lat="45.155" lon="5.96358">
        <ele>2627</ele>
        <time>2020-08-11T08:44:14Z</time>
      </trkpt>
      <trkpt lat="45.155" lon="5.96358">
        <ele>2627</ele>
        <time>2020-08-11T08:44:15Z</time>
      </trkpt>
      <trkpt lat="45.155" lon="5.96358">
        <ele>2627</ele>
        <time>2020-08-11T08:44:16Z</time>
      </trkpt>
      <trkpt lat="45.155" lon="5.96358">
        <ele>2627</ele>
        <time>2020-08-11T08:44:17Z</time>
      </trkpt>
      <trkpt lat="45.155" lon="5.96358">
        <ele>2627.2</ele>
        <time>2020-08-11T08:44:18Z</time>
      </trkpt>
      <trkpt lat="45.155" lon="5.96358">
        <ele>2627</ele>
        <time>2020-08-11T08:44:19Z</time>
      </trkpt>
      <trkpt lat="45.155" lon="5.96358">
        <ele>2627</ele>
        <time>2020-08-11T08:44:20Z</time>
      </trkpt>
      <trkpt lat="45.15498" lon="5.96358">
        <ele>2627</ele>
        <time>2020-08-11T08:44:21Z</time>
      </trkpt>
      <trkpt lat="45.15498" lon="5.96358">
        <ele>2627</ele>
        <time>2020-08-11T08:44:22Z</time>
      </trkpt>
      <trkpt lat="45.15498" lon="5.96358">
        <ele>2627</ele>
        <time>2020-08-11T08:44:23Z</time>
      </trkpt>
      <trkpt lat="45.15497" lon="5.96358">
        <ele>2627</ele>
        <time>2020-08-11T08:44:24Z</time>
      </trkpt>
      <trkpt lat="45.15497" lon="5.96358">
        <ele>2627</ele>
        <time>2020-08-11T08:44:25Z</time>
      </trkpt>
      <trkpt lat="45.15496" lon="5.96358">
        <ele>2627</ele>
        <time>2020-08-11T08:44:26Z</time>
      </trkpt>
      <trkpt lat="45.15496" lon="5.96358">
        <ele>2627</ele>
        <time>2020-08-11T08:44:27Z</time>
      </trkpt>
      <trkpt lat="45.15495" lon="5.96358">
        <ele>2627</ele>
        <time>2020-08-11T08:44:28Z</time>
      </trkpt>
      <trkpt lat="45.15495" lon="5.96358">
        <ele>2627</ele>
        <time>2020-08-11T08:44:29Z</time>
      </trkpt>
      <trkpt lat="45.15494" lon="5.96359">
        <ele>2627</ele>
        <time>2020-08-11T08:44:30Z</time>
      </trkpt>
      <trkpt lat="45.15494" lon="5.96359">
        <ele>2627</ele>
        <time>2020-08-11T08:44:31Z</time>
      </trkpt>
      <trkpt lat="45.15494" lon="5.96359">
        <ele>2627</ele>
        <time>2020-08-11T08:44:32Z</time>
      </trkpt>
      <trkpt lat="45.15493" lon="5.96359">
        <ele>2626.8</ele>
        <time>2020-08-11T08:44:33Z</time>
      </trkpt>
      <trkpt lat="45.15493" lon="5.96359">
        <ele>2627</ele>
        <time>2020-08-11T08:44:34Z</time>
      </trkpt>
      <trkpt lat="45.15492" lon="5.96359">
        <ele>2627</ele>
        <time>2020-08-11T08:44:35Z</time>
      </trkpt>
      <trkpt lat="45.15492" lon="5.96359">
        <ele>2626.8</ele>
        <time>2020-08-11T08:44:36Z</time>
      </trkpt>
      <trkpt lat="45.15491" lon="5.96359">
        <ele>2626.8</ele>
        <time>2020-08-11T08:44:37Z</time>
      </trkpt>
      <trkpt lat="45.15491" lon="5.96359">
        <ele>2626.8</ele>
        <time>2020-08-11T08:44:38Z</time>
      </trkpt>
      <trkpt lat="45.1549" lon="5.96359">
        <ele>2627</ele>
        <time>2020-08-11T08:44:39Z</time>
      </trkpt>
      <trkpt lat="45.1549" lon="5.96359">
        <ele>2626.8</ele>
        <time>2020-08-11T08:44:40Z</time>
      </trkpt>
      <trkpt lat="45.15489" lon="5.96359">
        <ele>2627</ele>
        <time>2020-08-11T08:44:41Z</time>
      </trkpt>
      <trkpt lat="45.15489" lon="5.9636">
        <ele>2626.8</ele>
        <time>2020-08-11T08:44:42Z</time>
      </trkpt>
      <trkpt lat="45.15488" lon="5.9636">
        <ele>2627</ele>
        <time>2020-08-11T08:44:43Z</time>
      </trkpt>
      <trkpt lat="45.15488" lon="5.9636">
        <ele>2626.8</ele>
        <time>2020-08-11T08:44:44Z</time>
      </trkpt>
      <trkpt lat="45.15488" lon="5.9636">
        <ele>2626.8</ele>
        <time>2020-08-11T08:44:45Z</time>
      </trkpt>
      <trkpt lat="45.15488" lon="5.9636">
        <ele>2627</ele>
        <time>2020-08-11T08:44:46Z</time>
      </trkpt>
      <trkpt lat="45.15488" lon="5.9636">
        <ele>2627</ele>
        <time>2020-08-11T08:44:47Z</time>
      </trkpt>
      <trkpt lat="45.15488" lon="5.9636">
        <ele>2626.8</ele>
        <time>2020-08-11T08:44:48Z</time>
      </trkpt>
      <trkpt lat="45.15486" lon="5.96359">
        <ele>2626.8</ele>
        <time>2020-08-11T08:44:49Z</time>
      </trkpt>
      <trkpt lat="45.15486" lon="5.96359">
        <ele>2626.6</ele>
        <time>2020-08-11T08:44:50Z</time>
      </trkpt>
      <trkpt lat="45.15486" lon="5.96359">
        <ele>2626.6</ele>
        <time>2020-08-11T08:44:51Z</time>
      </trkpt>
      <trkpt lat="45.15486" lon="5.96359">
        <ele>2626.6</ele>
        <time>2020-08-11T08:44:52Z</time>
      </trkpt>
      <trkpt lat="45.15486" lon="5.96359">
        <ele>2626.8</ele>
        <time>2020-08-11T08:44:53Z</time>
      </trkpt>
      <trkpt lat="45.15486" lon="5.96359">
        <ele>2627</ele>
        <time>2020-08-11T08:44:54Z</time>
      </trkpt>
      <trkpt lat="45.15486" lon="5.96359">
        <ele>2627</ele>
        <time>2020-08-11T08:44:55Z</time>
      </trkpt>
      <trkpt lat="45.15486" lon="5.96359">
        <ele>2627.2</ele>
        <time>2020-08-11T08:44:56Z</time>
      </trkpt>
      <trkpt lat="45.15486" lon="5.96359">
        <ele>2627.2</ele>
        <time>2020-08-11T08:44:57Z</time>
      </trkpt>
      <trkpt lat="45.15486" lon="5.96359">
        <ele>2627.4</ele>
        <time>2020-08-11T08:44:58Z</time>
      </trkpt>
      <trkpt lat="45.15486" lon="5.96359">
        <ele>2627.6</ele>
        <time>2020-08-11T08:44:59Z</time>
      </trkpt>
      <trkpt lat="45.15486" lon="5.96359">
        <ele>2627.8</ele>
        <time>2020-08-11T08:45:00Z</time>
      </trkpt>
      <trkpt lat="45.15486" lon="5.96359">
        <ele>2627.8</ele>
        <time>2020-08-11T08:45:01Z</time>
      </trkpt>
      <trkpt lat="45.15486" lon="5.96359">
        <ele>2627.8</ele>
        <time>2020-08-11T08:45:02Z</time>
      </trkpt>
      <trkpt lat="45.15486" lon="5.96359">
        <ele>2627.8</ele>
        <time>2020-08-11T08:45:03Z</time>
      </trkpt>
      <trkpt lat="45.15486" lon="5.96359">
        <ele>2628.2</ele>
        <time>2020-08-11T08:45:04Z</time>
      </trkpt>
      <trkpt lat="45.15485" lon="5.96357">
        <ele>2628.4</ele>
        <time>2020-08-11T08:45:05Z</time>
      </trkpt>
      <trkpt lat="45.15485" lon="5.96357">
        <ele>2628.4</ele>
        <time>2020-08-11T08:45:06Z</time>
      </trkpt>
      <trkpt lat="45.15485" lon="5.96357">
        <ele>2628.2</ele>
        <time>2020-08-11T08:45:07Z</time>
      </trkpt>
      <trkpt lat="45.15485" lon="5.96357">
        <ele>2628.4</ele>
        <time>2020-08-11T08:45:08Z</time>
      </trkpt>
      <trkpt lat="45.15485" lon="5.96357">
        <ele>2628.6</ele>
        <time>2020-08-11T08:45:09Z</time>
      </trkpt>
      <trkpt lat="45.15485" lon="5.96357">
        <ele>2628.6</ele>
        <time>2020-08-11T08:45:10Z</time>
      </trkpt>
      <trkpt lat="45.15485" lon="5.96357">
        <ele>2628</ele>
        <time>2020-08-11T08:45:11Z</time>
      </trkpt>
      <trkpt lat="45.15485" lon="5.96357">
        <ele>2627.8</ele>
        <time>2020-08-11T08:45:12Z</time>
      </trkpt>
      <trkpt lat="45.15485" lon="5.96357">
        <ele>2627.6</ele>
        <time>2020-08-11T08:45:13Z</time>
      </trkpt>
      <trkpt lat="45.15485" lon="5.96357">
        <ele>2627.2</ele>
        <time>2020-08-11T08:45:14Z</time>
      </trkpt>
      <trkpt lat="45.15485" lon="5.96357">
        <ele>2627.2</ele>
        <time>2020-08-11T08:45:15Z</time>
      </trkpt>
      <trkpt lat="45.15485" lon="5.96357">
        <ele>2627</ele>
        <time>2020-08-11T08:45:16Z</time>
      </trkpt>
      <trkpt lat="45.15485" lon="5.96357">
        <ele>2627</ele>
        <time>2020-08-11T08:45:17Z</time>
      </trkpt>
      <trkpt lat="45.15485" lon="5.96357">
        <ele>2626.8</ele>
        <time>2020-08-11T08:45:18Z</time>
      </trkpt>
      <trkpt lat="45.15485" lon="5.96357">
        <ele>2626.8</ele>
        <time>2020-08-11T08:45:19Z</time>
      </trkpt>
      <trkpt lat="45.15485" lon="5.96357">
        <ele>2626.8</ele>
        <time>2020-08-11T08:45:20Z</time>
      </trkpt>
      <trkpt lat="45.15485" lon="5.96357">
        <ele>2626.8</ele>
        <time>2020-08-11T08:45:21Z</time>
      </trkpt>
      <trkpt lat="45.15485" lon="5.96357">
        <ele>2626.6</ele>
        <time>2020-08-11T08:45:22Z</time>
      </trkpt>
      <trkpt lat="45.15485" lon="5.96357">
        <ele>2626.4</ele>
        <time>2020-08-11T08:45:23Z</time>
      </trkpt>
      <trkpt lat="45.15485" lon="5.96357">
        <ele>2626.6</ele>
        <time>2020-08-11T08:45:24Z</time>
      </trkpt>
      <trkpt lat="45.15485" lon="5.96357">
        <ele>2626.4</ele>
        <time>2020-08-11T08:45:25Z</time>
      </trkpt>
      <trkpt lat="45.15485" lon="5.96357">
        <ele>2626.6</ele>
        <time>2020-08-11T08:45:26Z</time>
      </trkpt>
      <trkpt lat="45.15485" lon="5.96357">
        <ele>2626.4</ele>
        <time>2020-08-11T08:45:27Z</time>
      </trkpt>
      <trkpt lat="45.15485" lon="5.96357">
        <ele>2626.6</ele>
        <time>2020-08-11T08:45:28Z</time>
      </trkpt>
      <trkpt lat="45.15485" lon="5.96357">
        <ele>2626.6</ele>
        <time>2020-08-11T08:45:29Z</time>
      </trkpt>
      <trkpt lat="45.15485" lon="5.96357">
        <ele>2626.6</ele>
        <time>2020-08-11T08:45:30Z</time>
      </trkpt>
      <trkpt lat="45.15485" lon="5.96357">
        <ele>2626.8</ele>
        <time>2020-08-11T08:45:31Z</time>
      </trkpt>
      <trkpt lat="45.15485" lon="5.96357">
        <ele>2627</ele>
        <time>2020-08-11T08:45:32Z</time>
      </trkpt>
      <trkpt lat="45.15485" lon="5.96357">
        <ele>2626.8</ele>
        <time>2020-08-11T08:45:33Z</time>
      </trkpt>
      <trkpt lat="45.15485" lon="5.96357">
        <ele>2626.8</ele>
        <time>2020-08-11T08:45:34Z</time>
      </trkpt>
      <trkpt lat="45.15485" lon="5.96357">
        <ele>2627</ele>
        <time>2020-08-11T08:45:35Z</time>
      </trkpt>
      <trkpt lat="45.15486" lon="5.9636">
        <ele>2627</ele>
        <time>2020-08-11T08:45:36Z</time>
      </trkpt>
      <trkpt lat="45.15486" lon="5.9636">
        <ele>2627</ele>
        <time>2020-08-11T08:45:37Z</time>
      </trkpt>
      <trkpt lat="45.15486" lon="5.9636">
        <ele>2627</ele>
        <time>2020-08-11T08:45:38Z</time>
      </trkpt>
      <trkpt lat="45.15486" lon="5.9636">
        <ele>2627</ele>
        <time>2020-08-11T08:45:39Z</time>
      </trkpt>
      <trkpt lat="45.15486" lon="5.9636">
        <ele>2626.8</ele>
        <time>2020-08-11T08:45:40Z</time>
      </trkpt>
      <trkpt lat="45.15486" lon="5.9636">
        <ele>2626.8</ele>
        <time>2020-08-11T08:45:41Z</time>
      </trkpt>
      <trkpt lat="45.15487" lon="5.96363">
        <ele>2626.8</ele>
        <time>2020-08-11T08:45:42Z</time>
      </trkpt>
      <trkpt lat="45.15489" lon="5.96366">
        <ele>2626.8</ele>
        <time>2020-08-11T08:45:43Z</time>
      </trkpt>
      <trkpt lat="45.15489" lon="5.96366">
        <ele>2626.6</ele>
        <time>2020-08-11T08:45:44Z</time>
      </trkpt>
      <trkpt lat="45.15489" lon="5.96366">
        <ele>2626.8</ele>
        <time>2020-08-11T08:45:45Z</time>
      </trkpt>
      <trkpt lat="45.15491" lon="5.96368">
        <ele>2626.6</ele>
        <time>2020-08-11T08:45:46Z</time>
      </trkpt>
      <trkpt lat="45.15491" lon="5.96368">
        <ele>2626.2</ele>
        <time>2020-08-11T08:45:47Z</time>
      </trkpt>
      <trkpt lat="45.15491" lon="5.96368">
        <ele>2626</ele>
        <time>2020-08-11T08:45:48Z</time>
      </trkpt>
      <trkpt lat="45.15493" lon="5.9637">
        <ele>2626</ele>
        <time>2020-08-11T08:45:49Z</time>
      </trkpt>
      <trkpt lat="45.15493" lon="5.9637">
        <ele>2625.8</ele>
        <time>2020-08-11T08:45:50Z</time>
      </trkpt>
      <trkpt lat="45.15493" lon="5.9637">
        <ele>2625.8</ele>
        <time>2020-08-11T08:45:51Z</time>
      </trkpt>
      <trkpt lat="45.15493" lon="5.9637">
        <ele>2625.4</ele>
        <time>2020-08-11T08:45:52Z</time>
      </trkpt>
      <trkpt lat="45.15494" lon="5.96372">
        <ele>2625.4</ele>
        <time>2020-08-11T08:45:53Z</time>
      </trkpt>
      <trkpt lat="45.15494" lon="5.96372">
        <ele>2625.2</ele>
        <time>2020-08-11T08:45:54Z</time>
      </trkpt>
      <trkpt lat="45.15495" lon="5.96374">
        <ele>2625.2</ele>
        <time>2020-08-11T08:45:55Z</time>
      </trkpt>
      <trkpt lat="45.15495" lon="5.96374">
        <ele>2625.2</ele>
        <time>2020-08-11T08:45:56Z</time>
      </trkpt>
      <trkpt lat="45.15495" lon="5.96374">
        <ele>2625.2</ele>
        <time>2020-08-11T08:45:57Z</time>
      </trkpt>
      <trkpt lat="45.15495" lon="5.96374">
        <ele>2625.2</ele>
        <time>2020-08-11T08:45:58Z</time>
      </trkpt>
      <trkpt lat="45.15495" lon="5.96374">
        <ele>2625</ele>
        <time>2020-08-11T08:45:59Z</time>
      </trkpt>
      <trkpt lat="45.15496" lon="5.96377">
        <ele>2625</ele>
        <time>2020-08-11T08:46:00Z</time>
      </trkpt>
      <trkpt lat="45.15496" lon="5.96377">
        <ele>2625</ele>
        <time>2020-08-11T08:46:01Z</time>
      </trkpt>
      <trkpt lat="45.15496" lon="5.96377">
        <ele>2625</ele>
        <time>2020-08-11T08:46:02Z</time>
      </trkpt>
      <trkpt lat="45.15496" lon="5.96377">
        <ele>2625.2</ele>
        <time>2020-08-11T08:46:03Z</time>
      </trkpt>
      <trkpt lat="45.15496" lon="5.96377">
        <ele>2625.2</ele>
        <time>2020-08-11T08:46:04Z</time>
      </trkpt>
      <trkpt lat="45.15496" lon="5.96377">
        <ele>2625.2</ele>
        <time>2020-08-11T08:46:05Z</time>
      </trkpt>
      <trkpt lat="45.15496" lon="5.96377">
        <ele>2625.2</ele>
        <time>2020-08-11T08:46:06Z</time>
      </trkpt>
      <trkpt lat="45.15496" lon="5.96377">
        <ele>2625.2</ele>
        <time>2020-08-11T08:46:07Z</time>
      </trkpt>
      <trkpt lat="45.15497" lon="5.9638">
        <ele>2625.2</ele>
        <time>2020-08-11T08:46:08Z</time>
      </trkpt>
      <trkpt lat="45.15497" lon="5.9638">
        <ele>2625.2</ele>
        <time>2020-08-11T08:46:09Z</time>
      </trkpt>
      <trkpt lat="45.15497" lon="5.9638">
        <ele>2625.2</ele>
        <time>2020-08-11T08:46:10Z</time>
      </trkpt>
      <trkpt lat="45.15497" lon="5.9638">
        <ele>2625.2</ele>
        <time>2020-08-11T08:46:11Z</time>
      </trkpt>
      <trkpt lat="45.15498" lon="5.96382">
        <ele>2625.2</ele>
        <time>2020-08-11T08:46:12Z</time>
      </trkpt>
      <trkpt lat="45.15498" lon="5.96382">
        <ele>2625.2</ele>
        <time>2020-08-11T08:46:13Z</time>
      </trkpt>
      <trkpt lat="45.15498" lon="5.96382">
        <ele>2625.2</ele>
        <time>2020-08-11T08:46:14Z</time>
      </trkpt>
      <trkpt lat="45.15498" lon="5.96382">
        <ele>2625</ele>
        <time>2020-08-11T08:46:15Z</time>
      </trkpt>
      <trkpt lat="45.15498" lon="5.96382">
        <ele>2625</ele>
        <time>2020-08-11T08:46:16Z</time>
      </trkpt>
      <trkpt lat="45.15498" lon="5.96385">
        <ele>2625</ele>
        <time>2020-08-11T08:46:17Z</time>
      </trkpt>
      <trkpt lat="45.15498" lon="5.96385">
        <ele>2625</ele>
        <time>2020-08-11T08:46:18Z</time>
      </trkpt>
      <trkpt lat="45.15498" lon="5.96385">
        <ele>2624.8</ele>
        <time>2020-08-11T08:46:19Z</time>
      </trkpt>
      <trkpt lat="45.15498" lon="5.96385">
        <ele>2624.8</ele>
        <time>2020-08-11T08:46:20Z</time>
      </trkpt>
      <trkpt lat="45.15498" lon="5.96385">
        <ele>2624.6</ele>
        <time>2020-08-11T08:46:21Z</time>
      </trkpt>
      <trkpt lat="45.15498" lon="5.96385">
        <ele>2624.6</ele>
        <time>2020-08-11T08:46:22Z</time>
      </trkpt>
      <trkpt lat="45.15498" lon="5.96385">
        <ele>2624.6</ele>
        <time>2020-08-11T08:46:23Z</time>
      </trkpt>
      <trkpt lat="45.15498" lon="5.96385">
        <ele>2624.8</ele>
        <time>2020-08-11T08:46:24Z</time>
      </trkpt>
      <trkpt lat="45.15498" lon="5.96388">
        <ele>2624.6</ele>
        <time>2020-08-11T08:46:25Z</time>
      </trkpt>
      <trkpt lat="45.15498" lon="5.96388">
        <ele>2624.6</ele>
        <time>2020-08-11T08:46:26Z</time>
      </trkpt>
      <trkpt lat="45.15498" lon="5.96388">
        <ele>2624.4</ele>
        <time>2020-08-11T08:46:27Z</time>
      </trkpt>
      <trkpt lat="45.15498" lon="5.96388">
        <ele>2624.6</ele>
        <time>2020-08-11T08:46:28Z</time>
      </trkpt>
      <trkpt lat="45.15498" lon="5.96388">
        <ele>2624.6</ele>
        <time>2020-08-11T08:46:29Z</time>
      </trkpt>
      <trkpt lat="45.15498" lon="5.96388">
        <ele>2624.6</ele>
        <time>2020-08-11T08:46:30Z</time>
      </trkpt>
      <trkpt lat="45.15498" lon="5.96388">
        <ele>2624.4</ele>
        <time>2020-08-11T08:46:31Z</time>
      </trkpt>
      <trkpt lat="45.15498" lon="5.96388">
        <ele>2624.8</ele>
        <time>2020-08-11T08:46:32Z</time>
      </trkpt>
      <trkpt lat="45.15498" lon="5.96388">
        <ele>2625.2</ele>
        <time>2020-08-11T08:46:33Z</time>
      </trkpt>
      <trkpt lat="45.15498" lon="5.96388">
        <ele>2625</ele>
        <time>2020-08-11T08:46:34Z</time>
      </trkpt>
      <trkpt lat="45.15498" lon="5.96388">
        <ele>2624.8</ele>
        <time>2020-08-11T08:46:35Z</time>
      </trkpt>
      <trkpt lat="45.15498" lon="5.96388">
        <ele>2624.6</ele>
        <time>2020-08-11T08:46:36Z</time>
      </trkpt>
      <trkpt lat="45.15498" lon="5.96388">
        <ele>2624.6</ele>
        <time>2020-08-11T08:46:37Z</time>
      </trkpt>
      <trkpt lat="45.15498" lon="5.96388">
        <ele>2624.6</ele>
        <time>2020-08-11T08:46:38Z</time>
      </trkpt>
      <trkpt lat="45.15498" lon="5.96388">
        <ele>2624.6</ele>
        <time>2020-08-11T08:46:39Z</time>
      </trkpt>
      <trkpt lat="45.15498" lon="5.96388">
        <ele>2624.4</ele>
        <time>2020-08-11T08:46:40Z</time>
      </trkpt>
      <trkpt lat="45.15498" lon="5.96388">
        <ele>2624.4</ele>
        <time>2020-08-11T08:46:41Z</time>
      </trkpt>
      <trkpt lat="45.15498" lon="5.96388">
        <ele>2624.2</ele>
        <time>2020-08-11T08:46:42Z</time>
      </trkpt>
      <trkpt lat="45.15498" lon="5.96388">
        <ele>2624</ele>
        <time>2020-08-11T08:46:43Z</time>
      </trkpt>
      <trkpt lat="45.15498" lon="5.96388">
        <ele>2624.2</ele>
        <time>2020-08-11T08:46:44Z</time>
      </trkpt>
      <trkpt lat="45.15498" lon="5.96388">
        <ele>2624.4</ele>
        <time>2020-08-11T08:46:45Z</time>
      </trkpt>
      <trkpt lat="45.15498" lon="5.96388">
        <ele>2624.2</ele>
        <time>2020-08-11T08:46:46Z</time>
      </trkpt>
      <trkpt lat="45.15498" lon="5.96388">
        <ele>2624.2</ele>
        <time>2020-08-11T08:46:47Z</time>
      </trkpt>
      <trkpt lat="45.15498" lon="5.96388">
        <ele>2624</ele>
        <time>2020-08-11T08:46:48Z</time>
      </trkpt>
      <trkpt lat="45.15498" lon="5.96388">
        <ele>2624</ele>
        <time>2020-08-11T08:46:49Z</time>
      </trkpt>
      <trkpt lat="45.15498" lon="5.96388">
        <ele>2624</ele>
        <time>2020-08-11T08:46:50Z</time>
      </trkpt>
      <trkpt lat="45.15498" lon="5.96388">
        <ele>2624</ele>
        <time>2020-08-11T08:46:51Z</time>
      </trkpt>
      <trkpt lat="45.155" lon="5.96389">
        <ele>2624</ele>
        <time>2020-08-11T08:46:52Z</time>
      </trkpt>
      <trkpt lat="45.155" lon="5.96389">
        <ele>2624</ele>
        <time>2020-08-11T08:46:53Z</time>
      </trkpt>
      <trkpt lat="45.155" lon="5.96389">
        <ele>2624</ele>
        <time>2020-08-11T08:46:54Z</time>
      </trkpt>
      <trkpt lat="45.155" lon="5.96389">
        <ele>2624</ele>
        <time>2020-08-11T08:46:55Z</time>
      </trkpt>
      <trkpt lat="45.15501" lon="5.96391">
        <ele>2623.8</ele>
        <time>2020-08-11T08:46:56Z</time>
      </trkpt>
      <trkpt lat="45.15501" lon="5.96391">
        <ele>2623.8</ele>
        <time>2020-08-11T08:46:57Z</time>
      </trkpt>
      <trkpt lat="45.15501" lon="5.96391">
        <ele>2623.6</ele>
        <time>2020-08-11T08:46:58Z</time>
      </trkpt>
      <trkpt lat="45.15501" lon="5.96391">
        <ele>2623.4</ele>
        <time>2020-08-11T08:46:59Z</time>
      </trkpt>
      <trkpt lat="45.15501" lon="5.96391">
        <ele>2623.2</ele>
        <time>2020-08-11T08:47:00Z</time>
      </trkpt>
      <trkpt lat="45.15501" lon="5.96394">
        <ele>2622.8</ele>
        <time>2020-08-11T08:47:01Z</time>
      </trkpt>
      <trkpt lat="45.15501" lon="5.96394">
        <ele>2622.8</ele>
        <time>2020-08-11T08:47:02Z</time>
      </trkpt>
      <trkpt lat="45.15501" lon="5.96394">
        <ele>2622.6</ele>
        <time>2020-08-11T08:47:03Z</time>
      </trkpt>
      <trkpt lat="45.15503" lon="5.96394">
        <ele>2622.8</ele>
        <time>2020-08-11T08:47:04Z</time>
      </trkpt>
      <trkpt lat="45.15503" lon="5.96394">
        <ele>2623</ele>
        <time>2020-08-11T08:47:05Z</time>
      </trkpt>
      <trkpt lat="45.15503" lon="5.96394">
        <ele>2622.6</ele>
        <time>2020-08-11T08:47:06Z</time>
      </trkpt>
      <trkpt lat="45.15505" lon="5.96395">
        <ele>2622.2</ele>
        <time>2020-08-11T08:47:07Z</time>
      </trkpt>
      <trkpt lat="45.15505" lon="5.96395">
        <ele>2622</ele>
        <time>2020-08-11T08:47:08Z</time>
      </trkpt>
      <trkpt lat="45.15505" lon="5.96395">
        <ele>2621.8</ele>
        <time>2020-08-11T08:47:09Z</time>
      </trkpt>
      <trkpt lat="45.15507" lon="5.96398">
        <ele>2621</ele>
        <time>2020-08-11T08:47:10Z</time>
      </trkpt>
      <trkpt lat="45.15509" lon="5.964">
        <ele>2620.8</ele>
        <time>2020-08-11T08:47:11Z</time>
      </trkpt>
      <trkpt lat="45.15509" lon="5.964">
        <ele>2620.6</ele>
        <time>2020-08-11T08:47:12Z</time>
      </trkpt>
      <trkpt lat="45.15509" lon="5.964">
        <ele>2620.2</ele>
        <time>2020-08-11T08:47:13Z</time>
      </trkpt>
      <trkpt lat="45.15509" lon="5.964">
        <ele>2620.2</ele>
        <time>2020-08-11T08:47:14Z</time>
      </trkpt>
      <trkpt lat="45.1551" lon="5.96402">
        <ele>2619.8</ele>
        <time>2020-08-11T08:47:15Z</time>
      </trkpt>
      <trkpt lat="45.1551" lon="5.96402">
        <ele>2620</ele>
        <time>2020-08-11T08:47:16Z</time>
      </trkpt>
      <trkpt lat="45.15512" lon="5.96406">
        <ele>2619.8</ele>
        <time>2020-08-11T08:47:17Z</time>
      </trkpt>
      <trkpt lat="45.15512" lon="5.96406">
        <ele>2619.2</ele>
        <time>2020-08-11T08:47:18Z</time>
      </trkpt>
      <trkpt lat="45.15512" lon="5.96406">
        <ele>2619</ele>
        <time>2020-08-11T08:47:19Z</time>
      </trkpt>
      <trkpt lat="45.15514" lon="5.96409">
        <ele>2619</ele>
        <time>2020-08-11T08:47:20Z</time>
      </trkpt>
      <trkpt lat="45.15514" lon="5.96409">
        <ele>2618.6</ele>
        <time>2020-08-11T08:47:21Z</time>
      </trkpt>
      <trkpt lat="45.15514" lon="5.96409">
        <ele>2618.4</ele>
        <time>2020-08-11T08:47:22Z</time>
      </trkpt>
      <trkpt lat="45.15515" lon="5.96412">
        <ele>2617.8</ele>
        <time>2020-08-11T08:47:23Z</time>
      </trkpt>
      <trkpt lat="45.15515" lon="5.96412">
        <ele>2617.4</ele>
        <time>2020-08-11T08:47:24Z</time>
      </trkpt>
      <trkpt lat="45.15514" lon="5.96415">
        <ele>2617</ele>
        <time>2020-08-11T08:47:25Z</time>
      </trkpt>
      <trkpt lat="45.15514" lon="5.96415">
        <ele>2616.4</ele>
        <time>2020-08-11T08:47:26Z</time>
      </trkpt>
      <trkpt lat="45.15514" lon="5.96415">
        <ele>2616.6</ele>
        <time>2020-08-11T08:47:27Z</time>
      </trkpt>
      <trkpt lat="45.15514" lon="5.96415">
        <ele>2616.4</ele>
        <time>2020-08-11T08:47:28Z</time>
      </trkpt>
      <trkpt lat="45.15515" lon="5.96418">
        <ele>2615.8</ele>
        <time>2020-08-11T08:47:29Z</time>
      </trkpt>
      <trkpt lat="45.15515" lon="5.96418">
        <ele>2615.6</ele>
        <time>2020-08-11T08:47:30Z</time>
      </trkpt>
      <trkpt lat="45.15515" lon="5.96418">
        <ele>2615.2</ele>
        <time>2020-08-11T08:47:31Z</time>
      </trkpt>
      <trkpt lat="45.15515" lon="5.96418">
        <ele>2615</ele>
        <time>2020-08-11T08:47:32Z</time>
      </trkpt>
      <trkpt lat="45.15515" lon="5.96421">
        <ele>2614.6</ele>
        <time>2020-08-11T08:47:33Z</time>
      </trkpt>
      <trkpt lat="45.15515" lon="5.96421">
        <ele>2614.6</ele>
        <time>2020-08-11T08:47:34Z</time>
      </trkpt>
      <trkpt lat="45.15515" lon="5.96421">
        <ele>2614.2</ele>
        <time>2020-08-11T08:47:35Z</time>
      </trkpt>
      <trkpt lat="45.15517" lon="5.96423">
        <ele>2613.8</ele>
        <time>2020-08-11T08:47:36Z</time>
      </trkpt>
      <trkpt lat="45.15517" lon="5.96423">
        <ele>2613.4</ele>
        <time>2020-08-11T08:47:37Z</time>
      </trkpt>
      <trkpt lat="45.15517" lon="5.96423">
        <ele>2613.2</ele>
        <time>2020-08-11T08:47:38Z</time>
      </trkpt>
      <trkpt lat="45.15518" lon="5.96425">
        <ele>2612.8</ele>
        <time>2020-08-11T08:47:39Z</time>
      </trkpt>
      <trkpt lat="45.15518" lon="5.96425">
        <ele>2612.6</ele>
        <time>2020-08-11T08:47:40Z</time>
      </trkpt>
      <trkpt lat="45.15518" lon="5.96425">
        <ele>2612.6</ele>
        <time>2020-08-11T08:47:41Z</time>
      </trkpt>
      <trkpt lat="45.15518" lon="5.96425">
        <ele>2612.4</ele>
        <time>2020-08-11T08:47:42Z</time>
      </trkpt>
      <trkpt lat="45.15518" lon="5.96425">
        <ele>2612.2</ele>
        <time>2020-08-11T08:47:43Z</time>
      </trkpt>
      <trkpt lat="45.15518" lon="5.96428">
        <ele>2611.2</ele>
        <time>2020-08-11T08:47:44Z</time>
      </trkpt>
      <trkpt lat="45.15518" lon="5.96428">
        <ele>2610.8</ele>
        <time>2020-08-11T08:47:45Z</time>
      </trkpt>
      <trkpt lat="45.15518" lon="5.96428">
        <ele>2610.4</ele>
        <time>2020-08-11T08:47:46Z</time>
      </trkpt>
      <trkpt lat="45.15517" lon="5.96431">
        <ele>2610.2</ele>
        <time>2020-08-11T08:47:47Z</time>
      </trkpt>
      <trkpt lat="45.15517" lon="5.96431">
        <ele>2610.2</ele>
        <time>2020-08-11T08:47:48Z</time>
      </trkpt>
      <trkpt lat="45.15514" lon="5.96433">
        <ele>2610.2</ele>
        <time>2020-08-11T08:47:49Z</time>
      </trkpt>
      <trkpt lat="45.15514" lon="5.96433">
        <ele>2610</ele>
        <time>2020-08-11T08:47:50Z</time>
      </trkpt>
      <trkpt lat="45.15514" lon="5.96433">
        <ele>2610</ele>
        <time>2020-08-11T08:47:51Z</time>
      </trkpt>
      <trkpt lat="45.15511" lon="5.96435">
        <ele>2609.6</ele>
        <time>2020-08-11T08:47:52Z</time>
      </trkpt>
      <trkpt lat="45.15511" lon="5.96435">
        <ele>2609.4</ele>
        <time>2020-08-11T08:47:53Z</time>
      </trkpt>
      <trkpt lat="45.15509" lon="5.96437">
        <ele>2609.2</ele>
        <time>2020-08-11T08:47:54Z</time>
      </trkpt>
      <trkpt lat="45.15506" lon="5.96439">
        <ele>2609</ele>
        <time>2020-08-11T08:47:55Z</time>
      </trkpt>
      <trkpt lat="45.15506" lon="5.96439">
        <ele>2608.8</ele>
        <time>2020-08-11T08:47:56Z</time>
      </trkpt>
      <trkpt lat="45.15504" lon="5.96441">
        <ele>2608.6</ele>
        <time>2020-08-11T08:47:57Z</time>
      </trkpt>
      <trkpt lat="45.15504" lon="5.96441">
        <ele>2608.4</ele>
        <time>2020-08-11T08:47:58Z</time>
      </trkpt>
      <trkpt lat="45.15504" lon="5.96441">
        <ele>2608.4</ele>
        <time>2020-08-11T08:47:59Z</time>
      </trkpt>
      <trkpt lat="45.15504" lon="5.96441">
        <ele>2608</ele>
        <time>2020-08-11T08:48:00Z</time>
      </trkpt>
      <trkpt lat="45.15504" lon="5.96444">
        <ele>2607.8</ele>
        <time>2020-08-11T08:48:01Z</time>
      </trkpt>
      <trkpt lat="45.15504" lon="5.96444">
        <ele>2607.4</ele>
        <time>2020-08-11T08:48:02Z</time>
      </trkpt>
      <trkpt lat="45.15504" lon="5.96444">
        <ele>2607.2</ele>
        <time>2020-08-11T08:48:03Z</time>
      </trkpt>
      <trkpt lat="45.15503" lon="5.96447">
        <ele>2606.6</ele>
        <time>2020-08-11T08:48:04Z</time>
      </trkpt>
      <trkpt lat="45.15503" lon="5.96447">
        <ele>2606.2</ele>
        <time>2020-08-11T08:48:05Z</time>
      </trkpt>
      <trkpt lat="45.15503" lon="5.96447">
        <ele>2606</ele>
        <time>2020-08-11T08:48:06Z</time>
      </trkpt>
      <trkpt lat="45.15503" lon="5.96447">
        <ele>2606</ele>
        <time>2020-08-11T08:48:07Z</time>
      </trkpt>
      <trkpt lat="45.15503" lon="5.96447">
        <ele>2606</ele>
        <time>2020-08-11T08:48:08Z</time>
      </trkpt>
      <trkpt lat="45.15503" lon="5.96447">
        <ele>2606</ele>
        <time>2020-08-11T08:48:09Z</time>
      </trkpt>
      <trkpt lat="45.15503" lon="5.96447">
        <ele>2605.8</ele>
        <time>2020-08-11T08:48:10Z</time>
      </trkpt>
      <trkpt lat="45.15503" lon="5.96447">
        <ele>2605.8</ele>
        <time>2020-08-11T08:48:11Z</time>
      </trkpt>
      <trkpt lat="45.15504" lon="5.9645">
        <ele>2605.8</ele>
        <time>2020-08-11T08:48:12Z</time>
      </trkpt>
      <trkpt lat="45.15504" lon="5.9645">
        <ele>2605.6</ele>
        <time>2020-08-11T08:48:13Z</time>
      </trkpt>
      <trkpt lat="45.15504" lon="5.9645">
        <ele>2605.6</ele>
        <time>2020-08-11T08:48:14Z</time>
      </trkpt>
      <trkpt lat="45.15505" lon="5.96452">
        <ele>2605.4</ele>
        <time>2020-08-11T08:48:15Z</time>
      </trkpt>
      <trkpt lat="45.15505" lon="5.96452">
        <ele>2605.2</ele>
        <time>2020-08-11T08:48:16Z</time>
      </trkpt>
      <trkpt lat="45.15506" lon="5.96455">
        <ele>2605</ele>
        <time>2020-08-11T08:48:17Z</time>
      </trkpt>
      <trkpt lat="45.15506" lon="5.96455">
        <ele>2605.2</ele>
        <time>2020-08-11T08:48:18Z</time>
      </trkpt>
      <trkpt lat="45.15507" lon="5.96458">
        <ele>2604.8</ele>
        <time>2020-08-11T08:48:19Z</time>
      </trkpt>
      <trkpt lat="45.15507" lon="5.96458">
        <ele>2604.4</ele>
        <time>2020-08-11T08:48:20Z</time>
      </trkpt>
      <trkpt lat="45.15507" lon="5.96458">
        <ele>2604</ele>
        <time>2020-08-11T08:48:21Z</time>
      </trkpt>
      <trkpt lat="45.15508" lon="5.96461">
        <ele>2603.6</ele>
        <time>2020-08-11T08:48:22Z</time>
      </trkpt>
      <trkpt lat="45.15508" lon="5.96461">
        <ele>2603.4</ele>
        <time>2020-08-11T08:48:23Z</time>
      </trkpt>
      <trkpt lat="45.15509" lon="5.96463">
        <ele>2603</ele>
        <time>2020-08-11T08:48:24Z</time>
      </trkpt>
      <trkpt lat="45.15509" lon="5.96463">
        <ele>2603</ele>
        <time>2020-08-11T08:48:25Z</time>
      </trkpt>
      <trkpt lat="45.15509" lon="5.96463">
        <ele>2602.8</ele>
        <time>2020-08-11T08:48:26Z</time>
      </trkpt>
      <trkpt lat="45.15509" lon="5.96463">
        <ele>2602.8</ele>
        <time>2020-08-11T08:48:27Z</time>
      </trkpt>
      <trkpt lat="45.15509" lon="5.96463">
        <ele>2602.4</ele>
        <time>2020-08-11T08:48:28Z</time>
      </trkpt>
      <trkpt lat="45.15509" lon="5.96463">
        <ele>2602.6</ele>
        <time>2020-08-11T08:48:29Z</time>
      </trkpt>
      <trkpt lat="45.15508" lon="5.96465">
        <ele>2602.2</ele>
        <time>2020-08-11T08:48:30Z</time>
      </trkpt>
      <trkpt lat="45.15508" lon="5.96465">
        <ele>2601.8</ele>
        <time>2020-08-11T08:48:31Z</time>
      </trkpt>
      <trkpt lat="45.15508" lon="5.96465">
        <ele>2601.2</ele>
        <time>2020-08-11T08:48:32Z</time>
      </trkpt>
      <trkpt lat="45.15506" lon="5.96467">
        <ele>2600.8</ele>
        <time>2020-08-11T08:48:33Z</time>
      </trkpt>
      <trkpt lat="45.15506" lon="5.96467">
        <ele>2600.4</ele>
        <time>2020-08-11T08:48:34Z</time>
      </trkpt>
      <trkpt lat="45.15506" lon="5.96467">
        <ele>2599.8</ele>
        <time>2020-08-11T08:48:35Z</time>
      </trkpt>
      <trkpt lat="45.15505" lon="5.96469">
        <ele>2599.4</ele>
        <time>2020-08-11T08:48:36Z</time>
      </trkpt>
      <trkpt lat="45.15505" lon="5.96469">
        <ele>2599</ele>
        <time>2020-08-11T08:48:37Z</time>
      </trkpt>
      <trkpt lat="45.15505" lon="5.96469">
        <ele>2598.6</ele>
        <time>2020-08-11T08:48:38Z</time>
      </trkpt>
      <trkpt lat="45.15505" lon="5.96469">
        <ele>2598.2</ele>
        <time>2020-08-11T08:48:39Z</time>
      </trkpt>
      <trkpt lat="45.15503" lon="5.96468">
        <ele>2597.6</ele>
        <time>2020-08-11T08:48:40Z</time>
      </trkpt>
      <trkpt lat="45.15503" lon="5.96468">
        <ele>2597</ele>
        <time>2020-08-11T08:48:41Z</time>
      </trkpt>
      <trkpt lat="45.15503" lon="5.96468">
        <ele>2596.6</ele>
        <time>2020-08-11T08:48:42Z</time>
      </trkpt>
      <trkpt lat="45.15503" lon="5.96468">
        <ele>2596</ele>
        <time>2020-08-11T08:48:43Z</time>
      </trkpt>
      <trkpt lat="45.15503" lon="5.96468">
        <ele>2595.2</ele>
        <time>2020-08-11T08:48:44Z</time>
      </trkpt>
      <trkpt lat="45.15501" lon="5.96467">
        <ele>2594.8</ele>
        <time>2020-08-11T08:48:45Z</time>
      </trkpt>
      <trkpt lat="45.15501" lon="5.96467">
        <ele>2594.6</ele>
        <time>2020-08-11T08:48:46Z</time>
      </trkpt>
      <trkpt lat="45.15499" lon="5.96468">
        <ele>2594.2</ele>
        <time>2020-08-11T08:48:47Z</time>
      </trkpt>
      <trkpt lat="45.15499" lon="5.96468">
        <ele>2593.6</ele>
        <time>2020-08-11T08:48:48Z</time>
      </trkpt>
      <trkpt lat="45.15499" lon="5.96468">
        <ele>2593.2</ele>
        <time>2020-08-11T08:48:49Z</time>
      </trkpt>
      <trkpt lat="45.15499" lon="5.96468">
        <ele>2592.8</ele>
        <time>2020-08-11T08:48:50Z</time>
      </trkpt>
      <trkpt lat="45.15497" lon="5.9647">
        <ele>2592.4</ele>
        <time>2020-08-11T08:48:51Z</time>
      </trkpt>
      <trkpt lat="45.15497" lon="5.9647">
        <ele>2592.2</ele>
        <time>2020-08-11T08:48:52Z</time>
      </trkpt>
      <trkpt lat="45.15497" lon="5.9647">
        <ele>2591.6</ele>
        <time>2020-08-11T08:48:53Z</time>
      </trkpt>
      <trkpt lat="45.15495" lon="5.96473">
        <ele>2591.4</ele>
        <time>2020-08-11T08:48:54Z</time>
      </trkpt>
      <trkpt lat="45.15495" lon="5.96473">
        <ele>2591.2</ele>
        <time>2020-08-11T08:48:55Z</time>
      </trkpt>
      <trkpt lat="45.15495" lon="5.96473">
        <ele>2591</ele>
        <time>2020-08-11T08:48:56Z</time>
      </trkpt>
      <trkpt lat="45.15497" lon="5.96474">
        <ele>2591</ele>
        <time>2020-08-11T08:48:57Z</time>
      </trkpt>
      <trkpt lat="45.15497" lon="5.96474">
        <ele>2590.6</ele>
        <time>2020-08-11T08:48:58Z</time>
      </trkpt>
      <trkpt lat="45.15497" lon="5.96474">
        <ele>2590.4</ele>
        <time>2020-08-11T08:48:59Z</time>
      </trkpt>
      <trkpt lat="45.15498" lon="5.96477">
        <ele>2590</ele>
        <time>2020-08-11T08:49:00Z</time>
      </trkpt>
      <trkpt lat="45.15498" lon="5.96477">
        <ele>2589.4</ele>
        <time>2020-08-11T08:49:01Z</time>
      </trkpt>
      <trkpt lat="45.15498" lon="5.96477">
        <ele>2589</ele>
        <time>2020-08-11T08:49:02Z</time>
      </trkpt>
      <trkpt lat="45.15498" lon="5.96477">
        <ele>2588.6</ele>
        <time>2020-08-11T08:49:03Z</time>
      </trkpt>
      <trkpt lat="45.15499" lon="5.96482">
        <ele>2588.4</ele>
        <time>2020-08-11T08:49:04Z</time>
      </trkpt>
      <trkpt lat="45.15499" lon="5.96482">
        <ele>2588</ele>
        <time>2020-08-11T08:49:05Z</time>
      </trkpt>
      <trkpt lat="45.15498" lon="5.96485">
        <ele>2587.8</ele>
        <time>2020-08-11T08:49:06Z</time>
      </trkpt>
      <trkpt lat="45.15498" lon="5.96488">
        <ele>2587</ele>
        <time>2020-08-11T08:49:07Z</time>
      </trkpt>
      <trkpt lat="45.15498" lon="5.96488">
        <ele>2586.8</ele>
        <time>2020-08-11T08:49:08Z</time>
      </trkpt>
      <trkpt lat="45.15498" lon="5.96488">
        <ele>2586.4</ele>
        <time>2020-08-11T08:49:09Z</time>
      </trkpt>
      <trkpt lat="45.15497" lon="5.96491">
        <ele>2586</ele>
        <time>2020-08-11T08:49:10Z</time>
      </trkpt>
      <trkpt lat="45.15497" lon="5.96491">
        <ele>2585.8</ele>
        <time>2020-08-11T08:49:11Z</time>
      </trkpt>
      <trkpt lat="45.15497" lon="5.96491">
        <ele>2585.2</ele>
        <time>2020-08-11T08:49:12Z</time>
      </trkpt>
      <trkpt lat="45.15497" lon="5.96491">
        <ele>2585</ele>
        <time>2020-08-11T08:49:13Z</time>
      </trkpt>
      <trkpt lat="45.15495" lon="5.96493">
        <ele>2584.8</ele>
        <time>2020-08-11T08:49:14Z</time>
      </trkpt>
      <trkpt lat="45.15495" lon="5.96493">
        <ele>2584.2</ele>
        <time>2020-08-11T08:49:15Z</time>
      </trkpt>
      <trkpt lat="45.15495" lon="5.96493">
        <ele>2583.8</ele>
        <time>2020-08-11T08:49:16Z</time>
      </trkpt>
      <trkpt lat="45.15494" lon="5.96495">
        <ele>2583.4</ele>
        <time>2020-08-11T08:49:17Z</time>
      </trkpt>
      <trkpt lat="45.15494" lon="5.96495">
        <ele>2583</ele>
        <time>2020-08-11T08:49:18Z</time>
      </trkpt>
      <trkpt lat="45.15493" lon="5.96498">
        <ele>2582.6</ele>
        <time>2020-08-11T08:49:19Z</time>
      </trkpt>
      <trkpt lat="45.15493" lon="5.96498">
        <ele>2582.4</ele>
        <time>2020-08-11T08:49:20Z</time>
      </trkpt>
      <trkpt lat="45.15493" lon="5.96498">
        <ele>2582.2</ele>
        <time>2020-08-11T08:49:21Z</time>
      </trkpt>
      <trkpt lat="45.15491" lon="5.96497">
        <ele>2581.8</ele>
        <time>2020-08-11T08:49:22Z</time>
      </trkpt>
      <trkpt lat="45.15491" lon="5.96497">
        <ele>2581.8</ele>
        <time>2020-08-11T08:49:23Z</time>
      </trkpt>
      <trkpt lat="45.15488" lon="5.96495">
        <ele>2581.4</ele>
        <time>2020-08-11T08:49:24Z</time>
      </trkpt>
      <trkpt lat="45.15488" lon="5.96495">
        <ele>2580.8</ele>
        <time>2020-08-11T08:49:25Z</time>
      </trkpt>
      <trkpt lat="45.15488" lon="5.96495">
        <ele>2580.6</ele>
        <time>2020-08-11T08:49:26Z</time>
      </trkpt>
      <trkpt lat="45.15486" lon="5.96497">
        <ele>2580.2</ele>
        <time>2020-08-11T08:49:27Z</time>
      </trkpt>
      <trkpt lat="45.15486" lon="5.96497">
        <ele>2580.2</ele>
        <time>2020-08-11T08:49:28Z</time>
      </trkpt>
      <trkpt lat="45.15486" lon="5.96497">
        <ele>2579.8</ele>
        <time>2020-08-11T08:49:29Z</time>
      </trkpt>
      <trkpt lat="45.15486" lon="5.96497">
        <ele>2579.6</ele>
        <time>2020-08-11T08:49:30Z</time>
      </trkpt>
      <trkpt lat="45.15486" lon="5.96497">
        <ele>2579.4</ele>
        <time>2020-08-11T08:49:31Z</time>
      </trkpt>
      <trkpt lat="45.15485" lon="5.96501">
        <ele>2579.2</ele>
        <time>2020-08-11T08:49:32Z</time>
      </trkpt>
      <trkpt lat="45.15485" lon="5.96501">
        <ele>2579</ele>
        <time>2020-08-11T08:49:33Z</time>
      </trkpt>
      <trkpt lat="45.15485" lon="5.96501">
        <ele>2578.8</ele>
        <time>2020-08-11T08:49:34Z</time>
      </trkpt>
      <trkpt lat="45.15485" lon="5.96501">
        <ele>2578.6</ele>
        <time>2020-08-11T08:49:35Z</time>
      </trkpt>
      <trkpt lat="45.15485" lon="5.96501">
        <ele>2578.2</ele>
        <time>2020-08-11T08:49:36Z</time>
      </trkpt>
      <trkpt lat="45.15485" lon="5.96504">
        <ele>2578</ele>
        <time>2020-08-11T08:49:37Z</time>
      </trkpt>
      <trkpt lat="45.15485" lon="5.96504">
        <ele>2577.6</ele>
        <time>2020-08-11T08:49:38Z</time>
      </trkpt>
      <trkpt lat="45.15485" lon="5.96504">
        <ele>2577.4</ele>
        <time>2020-08-11T08:49:39Z</time>
      </trkpt>
      <trkpt lat="45.15485" lon="5.96504">
        <ele>2577.2</ele>
        <time>2020-08-11T08:49:40Z</time>
      </trkpt>
      <trkpt lat="45.15484" lon="5.96506">
        <ele>2577.4</ele>
        <time>2020-08-11T08:49:41Z</time>
      </trkpt>
      <trkpt lat="45.15484" lon="5.96506">
        <ele>2577.4</ele>
        <time>2020-08-11T08:49:42Z</time>
      </trkpt>
      <trkpt lat="45.15483" lon="5.96509">
        <ele>2577.2</ele>
        <time>2020-08-11T08:49:43Z</time>
      </trkpt>
      <trkpt lat="45.15483" lon="5.96509">
        <ele>2577.2</ele>
        <time>2020-08-11T08:49:44Z</time>
      </trkpt>
      <trkpt lat="45.15483" lon="5.96512">
        <ele>2577.2</ele>
        <time>2020-08-11T08:49:45Z</time>
      </trkpt>
      <trkpt lat="45.15483" lon="5.96512">
        <ele>2577.2</ele>
        <time>2020-08-11T08:49:46Z</time>
      </trkpt>
      <trkpt lat="45.15483" lon="5.96512">
        <ele>2577</ele>
        <time>2020-08-11T08:49:47Z</time>
      </trkpt>
      <trkpt lat="45.15483" lon="5.96512">
        <ele>2576.8</ele>
        <time>2020-08-11T08:49:48Z</time>
      </trkpt>
      <trkpt lat="45.15482" lon="5.96515">
        <ele>2576.4</ele>
        <time>2020-08-11T08:49:49Z</time>
      </trkpt>
      <trkpt lat="45.15482" lon="5.96515">
        <ele>2576.4</ele>
        <time>2020-08-11T08:49:50Z</time>
      </trkpt>
      <trkpt lat="45.15482" lon="5.96515">
        <ele>2576</ele>
        <time>2020-08-11T08:49:51Z</time>
      </trkpt>
      <trkpt lat="45.1548" lon="5.96517">
        <ele>2576</ele>
        <time>2020-08-11T08:49:52Z</time>
      </trkpt>
      <trkpt lat="45.1548" lon="5.96517">
        <ele>2575.8</ele>
        <time>2020-08-11T08:49:53Z</time>
      </trkpt>
      <trkpt lat="45.1548" lon="5.9652">
        <ele>2575.8</ele>
        <time>2020-08-11T08:49:54Z</time>
      </trkpt>
      <trkpt lat="45.1548" lon="5.9652">
        <ele>2576</ele>
        <time>2020-08-11T08:49:55Z</time>
      </trkpt>
      <trkpt lat="45.1548" lon="5.9652">
        <ele>2575.6</ele>
        <time>2020-08-11T08:49:56Z</time>
      </trkpt>
      <trkpt lat="45.1548" lon="5.9652">
        <ele>2575.6</ele>
        <time>2020-08-11T08:49:57Z</time>
      </trkpt>
      <trkpt lat="45.1548" lon="5.9652">
        <ele>2575.4</ele>
        <time>2020-08-11T08:49:58Z</time>
      </trkpt>
      <trkpt lat="45.1548" lon="5.9652">
        <ele>2575.4</ele>
        <time>2020-08-11T08:49:59Z</time>
      </trkpt>
      <trkpt lat="45.15477" lon="5.96522">
        <ele>2575.4</ele>
        <time>2020-08-11T08:50:00Z</time>
      </trkpt>
      <trkpt lat="45.15477" lon="5.96522">
        <ele>2575</ele>
        <time>2020-08-11T08:50:01Z</time>
      </trkpt>
      <trkpt lat="45.15477" lon="5.96522">
        <ele>2575</ele>
        <time>2020-08-11T08:50:02Z</time>
      </trkpt>
      <trkpt lat="45.15476" lon="5.96525">
        <ele>2575</ele>
        <time>2020-08-11T08:50:03Z</time>
      </trkpt>
      <trkpt lat="45.15476" lon="5.96525">
        <ele>2575</ele>
        <time>2020-08-11T08:50:04Z</time>
      </trkpt>
      <trkpt lat="45.15477" lon="5.96529">
        <ele>2574.8</ele>
        <time>2020-08-11T08:50:05Z</time>
      </trkpt>
      <trkpt lat="45.15477" lon="5.96529">
        <ele>2575</ele>
        <time>2020-08-11T08:50:06Z</time>
      </trkpt>
      <trkpt lat="45.15477" lon="5.96529">
        <ele>2574.8</ele>
        <time>2020-08-11T08:50:07Z</time>
      </trkpt>
      <trkpt lat="45.15478" lon="5.96532">
        <ele>2575</ele>
        <time>2020-08-11T08:50:08Z</time>
      </trkpt>
      <trkpt lat="45.15478" lon="5.96532">
        <ele>2575</ele>
        <time>2020-08-11T08:50:09Z</time>
      </trkpt>
      <trkpt lat="45.15478" lon="5.96532">
        <ele>2574.8</ele>
        <time>2020-08-11T08:50:10Z</time>
      </trkpt>
      <trkpt lat="45.15478" lon="5.96532">
        <ele>2574.6</ele>
        <time>2020-08-11T08:50:11Z</time>
      </trkpt>
      <trkpt lat="45.15478" lon="5.96532">
        <ele>2574.6</ele>
        <time>2020-08-11T08:50:12Z</time>
      </trkpt>
      <trkpt lat="45.1548" lon="5.96533">
        <ele>2574.4</ele>
        <time>2020-08-11T08:50:13Z</time>
      </trkpt>
      <trkpt lat="45.1548" lon="5.96533">
        <ele>2574</ele>
        <time>2020-08-11T08:50:14Z</time>
      </trkpt>
      <trkpt lat="45.1548" lon="5.96533">
        <ele>2573.8</ele>
        <time>2020-08-11T08:50:15Z</time>
      </trkpt>
      <trkpt lat="45.1548" lon="5.96533">
        <ele>2573.6</ele>
        <time>2020-08-11T08:50:16Z</time>
      </trkpt>
      <trkpt lat="45.1548" lon="5.96533">
        <ele>2573.6</ele>
        <time>2020-08-11T08:50:17Z</time>
      </trkpt>
      <trkpt lat="45.15482" lon="5.96534">
        <ele>2573.6</ele>
        <time>2020-08-11T08:50:18Z</time>
      </trkpt>
      <trkpt lat="45.15482" lon="5.96534">
        <ele>2573.8</ele>
        <time>2020-08-11T08:50:19Z</time>
      </trkpt>
      <trkpt lat="45.15482" lon="5.96534">
        <ele>2573.8</ele>
        <time>2020-08-11T08:50:20Z</time>
      </trkpt>
      <trkpt lat="45.15482" lon="5.96534">
        <ele>2573.4</ele>
        <time>2020-08-11T08:50:21Z</time>
      </trkpt>
      <trkpt lat="45.15482" lon="5.96534">
        <ele>2573.6</ele>
        <time>2020-08-11T08:50:22Z</time>
      </trkpt>
      <trkpt lat="45.15482" lon="5.96534">
        <ele>2573.6</ele>
        <time>2020-08-11T08:50:23Z</time>
      </trkpt>
      <trkpt lat="45.15482" lon="5.96534">
        <ele>2573.6</ele>
        <time>2020-08-11T08:50:24Z</time>
      </trkpt>
      <trkpt lat="45.15482" lon="5.96534">
        <ele>2573.6</ele>
        <time>2020-08-11T08:50:25Z</time>
      </trkpt>
      <trkpt lat="45.15482" lon="5.96534">
        <ele>2573.6</ele>
        <time>2020-08-11T08:50:26Z</time>
      </trkpt>
      <trkpt lat="45.15482" lon="5.96534">
        <ele>2573.8</ele>
        <time>2020-08-11T08:50:27Z</time>
      </trkpt>
      <trkpt lat="45.15482" lon="5.96534">
        <ele>2573.8</ele>
        <time>2020-08-11T08:50:28Z</time>
      </trkpt>
      <trkpt lat="45.15481" lon="5.96537">
        <ele>2573.8</ele>
        <time>2020-08-11T08:50:29Z</time>
      </trkpt>
      <trkpt lat="45.15481" lon="5.96537">
        <ele>2573.8</ele>
        <time>2020-08-11T08:50:30Z</time>
      </trkpt>
      <trkpt lat="45.15481" lon="5.96537">
        <ele>2573.8</ele>
        <time>2020-08-11T08:50:32Z</time>
      </trkpt>
      <trkpt lat="45.15481" lon="5.96537">
        <ele>2573.8</ele>
        <time>2020-08-11T08:50:33Z</time>
      </trkpt>
      <trkpt lat="45.15481" lon="5.96537">
        <ele>2573.8</ele>
        <time>2020-08-11T08:50:34Z</time>
      </trkpt>
      <trkpt lat="45.15481" lon="5.96537">
        <ele>2573.8</ele>
        <time>2020-08-11T08:50:35Z</time>
      </trkpt>
      <trkpt lat="45.15481" lon="5.96537">
        <ele>2573.8</ele>
        <time>2020-08-11T08:50:36Z</time>
      </trkpt>
      <trkpt lat="45.15481" lon="5.96537">
        <ele>2573.6</ele>
        <time>2020-08-11T08:50:37Z</time>
      </trkpt>
      <trkpt lat="45.15481" lon="5.96537">
        <ele>2573.8</ele>
        <time>2020-08-11T08:50:38Z</time>
      </trkpt>
      <trkpt lat="45.15481" lon="5.96537">
        <ele>2573.8</ele>
        <time>2020-08-11T08:50:39Z</time>
      </trkpt>
      <trkpt lat="45.15481" lon="5.96537">
        <ele>2573.8</ele>
        <time>2020-08-11T08:50:40Z</time>
      </trkpt>
      <trkpt lat="45.15481" lon="5.96537">
        <ele>2573.8</ele>
        <time>2020-08-11T08:50:41Z</time>
      </trkpt>
      <trkpt lat="45.15481" lon="5.96537">
        <ele>2573.8</ele>
        <time>2020-08-11T08:50:42Z</time>
      </trkpt>
      <trkpt lat="45.15481" lon="5.96537">
        <ele>2573.6</ele>
        <time>2020-08-11T08:50:43Z</time>
      </trkpt>
      <trkpt lat="45.15481" lon="5.96537">
        <ele>2573.6</ele>
        <time>2020-08-11T08:50:44Z</time>
      </trkpt>
      <trkpt lat="45.15481" lon="5.96537">
        <ele>2573.2</ele>
        <time>2020-08-11T08:50:45Z</time>
      </trkpt>
      <trkpt lat="45.15481" lon="5.96537">
        <ele>2573.2</ele>
        <time>2020-08-11T08:50:46Z</time>
      </trkpt>
      <trkpt lat="45.15481" lon="5.96537">
        <ele>2573.4</ele>
        <time>2020-08-11T08:50:47Z</time>
      </trkpt>
      <trkpt lat="45.15481" lon="5.96537">
        <ele>2573.8</ele>
        <time>2020-08-11T08:50:48Z</time>
      </trkpt>
      <trkpt lat="45.15479" lon="5.96538">
        <ele>2574</ele>
        <time>2020-08-11T08:50:49Z</time>
      </trkpt>
      <trkpt lat="45.15479" lon="5.96538">
        <ele>2573.8</ele>
        <time>2020-08-11T08:50:50Z</time>
      </trkpt>
      <trkpt lat="45.15479" lon="5.96538">
        <ele>2573.8</ele>
        <time>2020-08-11T08:50:51Z</time>
      </trkpt>
      <trkpt lat="45.15479" lon="5.96538">
        <ele>2573.6</ele>
        <time>2020-08-11T08:50:52Z</time>
      </trkpt>
      <trkpt lat="45.15479" lon="5.96538">
        <ele>2573.8</ele>
        <time>2020-08-11T08:50:53Z</time>
      </trkpt>
      <trkpt lat="45.15479" lon="5.96538">
        <ele>2574</ele>
        <time>2020-08-11T08:50:54Z</time>
      </trkpt>
      <trkpt lat="45.15479" lon="5.96538">
        <ele>2574</ele>
        <time>2020-08-11T08:50:55Z</time>
      </trkpt>
      <trkpt lat="45.15479" lon="5.96538">
        <ele>2574</ele>
        <time>2020-08-11T08:50:56Z</time>
      </trkpt>
      <trkpt lat="45.15479" lon="5.96538">
        <ele>2574.2</ele>
        <time>2020-08-11T08:50:57Z</time>
      </trkpt>
      <trkpt lat="45.15479" lon="5.96538">
        <ele>2574</ele>
        <time>2020-08-11T08:50:58Z</time>
      </trkpt>
      <trkpt lat="45.15479" lon="5.96538">
        <ele>2574.2</ele>
        <time>2020-08-11T08:50:59Z</time>
      </trkpt>
      <trkpt lat="45.15479" lon="5.96538">
        <ele>2574.4</ele>
        <time>2020-08-11T08:51:00Z</time>
      </trkpt>
      <trkpt lat="45.15479" lon="5.96538">
        <ele>2574.6</ele>
        <time>2020-08-11T08:51:01Z</time>
      </trkpt>
      <trkpt lat="45.15479" lon="5.96538">
        <ele>2574.6</ele>
        <time>2020-08-11T08:51:02Z</time>
      </trkpt>
      <trkpt lat="45.15479" lon="5.96538">
        <ele>2574.6</ele>
        <time>2020-08-11T08:51:03Z</time>
      </trkpt>
      <trkpt lat="45.15479" lon="5.96538">
        <ele>2574.6</ele>
        <time>2020-08-11T08:51:04Z</time>
      </trkpt>
      <trkpt lat="45.15479" lon="5.96538">
        <ele>2574.6</ele>
        <time>2020-08-11T08:51:05Z</time>
      </trkpt>
      <trkpt lat="45.15479" lon="5.96538">
        <ele>2574.6</ele>
        <time>2020-08-11T08:51:06Z</time>
      </trkpt>
      <trkpt lat="45.15479" lon="5.96538">
        <ele>2574.4</ele>
        <time>2020-08-11T08:51:07Z</time>
      </trkpt>
      <trkpt lat="45.15479" lon="5.96538">
        <ele>2574.6</ele>
        <time>2020-08-11T08:51:08Z</time>
      </trkpt>
      <trkpt lat="45.15479" lon="5.96538">
        <ele>2574.6</ele>
        <time>2020-08-11T08:51:09Z</time>
      </trkpt>
      <trkpt lat="45.15479" lon="5.96538">
        <ele>2574.4</ele>
        <time>2020-08-11T08:51:10Z</time>
      </trkpt>
      <trkpt lat="45.15479" lon="5.96538">
        <ele>2574.6</ele>
        <time>2020-08-11T08:51:11Z</time>
      </trkpt>
      <trkpt lat="45.15478" lon="5.9654">
        <ele>2574.6</ele>
        <time>2020-08-11T08:51:12Z</time>
      </trkpt>
      <trkpt lat="45.15478" lon="5.9654">
        <ele>2574.6</ele>
        <time>2020-08-11T08:51:13Z</time>
      </trkpt>
      <trkpt lat="45.15478" lon="5.9654">
        <ele>2574.6</ele>
        <time>2020-08-11T08:51:14Z</time>
      </trkpt>
      <trkpt lat="45.15478" lon="5.9654">
        <ele>2574.6</ele>
        <time>2020-08-11T08:51:15Z</time>
      </trkpt>
      <trkpt lat="45.15478" lon="5.9654">
        <ele>2574.6</ele>
        <time>2020-08-11T08:51:16Z</time>
      </trkpt>
      <trkpt lat="45.15478" lon="5.9654">
        <ele>2574.4</ele>
        <time>2020-08-11T08:51:17Z</time>
      </trkpt>
      <trkpt lat="45.15478" lon="5.9654">
        <ele>2574.4</ele>
        <time>2020-08-11T08:51:18Z</time>
      </trkpt>
      <trkpt lat="45.15478" lon="5.9654">
        <ele>2574.4</ele>
        <time>2020-08-11T08:51:19Z</time>
      </trkpt>
      <trkpt lat="45.15478" lon="5.9654">
        <ele>2574.4</ele>
        <time>2020-08-11T08:51:20Z</time>
      </trkpt>
      <trkpt lat="45.15478" lon="5.9654">
        <ele>2574.4</ele>
        <time>2020-08-11T08:51:21Z</time>
      </trkpt>
      <trkpt lat="45.15478" lon="5.9654">
        <ele>2574.4</ele>
        <time>2020-08-11T08:51:22Z</time>
      </trkpt>
      <trkpt lat="45.15478" lon="5.9654">
        <ele>2574</ele>
        <time>2020-08-11T08:51:23Z</time>
      </trkpt>
      <trkpt lat="45.15478" lon="5.9654">
        <ele>2573.6</ele>
        <time>2020-08-11T08:51:24Z</time>
      </trkpt>
      <trkpt lat="45.15478" lon="5.9654">
        <ele>2573.4</ele>
        <time>2020-08-11T08:51:25Z</time>
      </trkpt>
      <trkpt lat="45.15478" lon="5.9654">
        <ele>2573.2</ele>
        <time>2020-08-11T08:51:26Z</time>
      </trkpt>
      <trkpt lat="45.15478" lon="5.9654">
        <ele>2573.2</ele>
        <time>2020-08-11T08:51:27Z</time>
      </trkpt>
      <trkpt lat="45.15478" lon="5.9654">
        <ele>2573.2</ele>
        <time>2020-08-11T08:51:28Z</time>
      </trkpt>
      <trkpt lat="45.15478" lon="5.9654">
        <ele>2573.4</ele>
        <time>2020-08-11T08:51:29Z</time>
      </trkpt>
      <trkpt lat="45.15478" lon="5.9654">
        <ele>2573.2</ele>
        <time>2020-08-11T08:51:30Z</time>
      </trkpt>
      <trkpt lat="45.15476" lon="5.96538">
        <ele>2573</ele>
        <time>2020-08-11T08:51:31Z</time>
      </trkpt>
      <trkpt lat="45.15476" lon="5.96538">
        <ele>2573.2</ele>
        <time>2020-08-11T08:51:32Z</time>
      </trkpt>
      <trkpt lat="45.15476" lon="5.96538">
        <ele>2573</ele>
        <time>2020-08-11T08:51:33Z</time>
      </trkpt>
      <trkpt lat="45.15476" lon="5.96538">
        <ele>2572.8</ele>
        <time>2020-08-11T08:51:34Z</time>
      </trkpt>
      <trkpt lat="45.15476" lon="5.96538">
        <ele>2572.8</ele>
        <time>2020-08-11T08:51:35Z</time>
      </trkpt>
      <trkpt lat="45.15476" lon="5.96538">
        <ele>2572.8</ele>
        <time>2020-08-11T08:51:36Z</time>
      </trkpt>
      <trkpt lat="45.15476" lon="5.96538">
        <ele>2572.8</ele>
        <time>2020-08-11T08:51:37Z</time>
      </trkpt>
      <trkpt lat="45.15476" lon="5.96538">
        <ele>2572.8</ele>
        <time>2020-08-11T08:51:38Z</time>
      </trkpt>
      <trkpt lat="45.15476" lon="5.96538">
        <ele>2573</ele>
        <time>2020-08-11T08:51:39Z</time>
      </trkpt>
      <trkpt lat="45.15476" lon="5.96538">
        <ele>2573</ele>
        <time>2020-08-11T08:51:40Z</time>
      </trkpt>
      <trkpt lat="45.15475" lon="5.9654">
        <ele>2573.2</ele>
        <time>2020-08-11T08:51:41Z</time>
      </trkpt>
      <trkpt lat="45.15475" lon="5.9654">
        <ele>2573.2</ele>
        <time>2020-08-11T08:51:42Z</time>
      </trkpt>
      <trkpt lat="45.15475" lon="5.9654">
        <ele>2573</ele>
        <time>2020-08-11T08:51:43Z</time>
      </trkpt>
      <trkpt lat="45.15475" lon="5.9654">
        <ele>2572.8</ele>
        <time>2020-08-11T08:51:44Z</time>
      </trkpt>
      <trkpt lat="45.15475" lon="5.9654">
        <ele>2572.6</ele>
        <time>2020-08-11T08:51:45Z</time>
      </trkpt>
      <trkpt lat="45.15472" lon="5.9654">
        <ele>2572.6</ele>
        <time>2020-08-11T08:51:46Z</time>
      </trkpt>
      <trkpt lat="45.15472" lon="5.9654">
        <ele>2572.4</ele>
        <time>2020-08-11T08:51:47Z</time>
      </trkpt>
      <trkpt lat="45.15469" lon="5.96539">
        <ele>2572.4</ele>
        <time>2020-08-11T08:51:48Z</time>
      </trkpt>
      <trkpt lat="45.15469" lon="5.96539">
        <ele>2572.2</ele>
        <time>2020-08-11T08:51:49Z</time>
      </trkpt>
      <trkpt lat="45.15467" lon="5.96538">
        <ele>2571.8</ele>
        <time>2020-08-11T08:51:50Z</time>
      </trkpt>
      <trkpt lat="45.15467" lon="5.96538">
        <ele>2571.4</ele>
        <time>2020-08-11T08:51:51Z</time>
      </trkpt>
      <trkpt lat="45.15467" lon="5.96538">
        <ele>2571.4</ele>
        <time>2020-08-11T08:51:52Z</time>
      </trkpt>
      <trkpt lat="45.15464" lon="5.96536">
        <ele>2571.2</ele>
        <time>2020-08-11T08:51:53Z</time>
      </trkpt>
      <trkpt lat="45.15464" lon="5.96536">
        <ele>2571</ele>
        <time>2020-08-11T08:51:54Z</time>
      </trkpt>
      <trkpt lat="45.15464" lon="5.96536">
        <ele>2570.8</ele>
        <time>2020-08-11T08:51:55Z</time>
      </trkpt>
      <trkpt lat="45.15462" lon="5.96536">
        <ele>2570.4</ele>
        <time>2020-08-11T08:51:56Z</time>
      </trkpt>
      <trkpt lat="45.15462" lon="5.96536">
        <ele>2569.8</ele>
        <time>2020-08-11T08:51:57Z</time>
      </trkpt>
      <trkpt lat="45.15462" lon="5.96536">
        <ele>2569.2</ele>
        <time>2020-08-11T08:51:58Z</time>
      </trkpt>
      <trkpt lat="45.1546" lon="5.96537">
        <ele>2568.6</ele>
        <time>2020-08-11T08:51:59Z</time>
      </trkpt>
      <trkpt lat="45.1546" lon="5.96537">
        <ele>2568.6</ele>
        <time>2020-08-11T08:52:00Z</time>
      </trkpt>
      <trkpt lat="45.1546" lon="5.96537">
        <ele>2568.6</ele>
        <time>2020-08-11T08:52:01Z</time>
      </trkpt>
      <trkpt lat="45.1546" lon="5.9654">
        <ele>2567.8</ele>
        <time>2020-08-11T08:52:02Z</time>
      </trkpt>
      <trkpt lat="45.15458" lon="5.96541">
        <ele>2567.8</ele>
        <time>2020-08-11T08:52:03Z</time>
      </trkpt>
      <trkpt lat="45.15458" lon="5.96541">
        <ele>2566.6</ele>
        <time>2020-08-11T08:52:04Z</time>
      </trkpt>
      <trkpt lat="45.15458" lon="5.96541">
        <ele>2566.2</ele>
        <time>2020-08-11T08:52:05Z</time>
      </trkpt>
      <trkpt lat="45.15455" lon="5.96542">
        <ele>2566</ele>
        <time>2020-08-11T08:52:06Z</time>
      </trkpt>
      <trkpt lat="45.15455" lon="5.96542">
        <ele>2565.6</ele>
        <time>2020-08-11T08:52:07Z</time>
      </trkpt>
      <trkpt lat="45.15453" lon="5.96543">
        <ele>2565</ele>
        <time>2020-08-11T08:52:08Z</time>
      </trkpt>
      <trkpt lat="45.15453" lon="5.96543">
        <ele>2564.4</ele>
        <time>2020-08-11T08:52:09Z</time>
      </trkpt>
      <trkpt lat="45.15451" lon="5.96546">
        <ele>2564.6</ele>
        <time>2020-08-11T08:52:10Z</time>
      </trkpt>
      <trkpt lat="45.15451" lon="5.96546">
        <ele>2564.2</ele>
        <time>2020-08-11T08:52:11Z</time>
      </trkpt>
      <trkpt lat="45.15449" lon="5.96547">
        <ele>2563.8</ele>
        <time>2020-08-11T08:52:12Z</time>
      </trkpt>
      <trkpt lat="45.15449" lon="5.96547">
        <ele>2563.4</ele>
        <time>2020-08-11T08:52:13Z</time>
      </trkpt>
      <trkpt lat="45.15449" lon="5.96547">
        <ele>2563</ele>
        <time>2020-08-11T08:52:14Z</time>
      </trkpt>
      <trkpt lat="45.15448" lon="5.96551">
        <ele>2562.6</ele>
        <time>2020-08-11T08:52:15Z</time>
      </trkpt>
      <trkpt lat="45.15446" lon="5.96553">
        <ele>2562.2</ele>
        <time>2020-08-11T08:52:16Z</time>
      </trkpt>
      <trkpt lat="45.15446" lon="5.96553">
        <ele>2561.4</ele>
        <time>2020-08-11T08:52:17Z</time>
      </trkpt>
      <trkpt lat="45.15446" lon="5.96553">
        <ele>2561</ele>
        <time>2020-08-11T08:52:18Z</time>
      </trkpt>
      <trkpt lat="45.15444" lon="5.96555">
        <ele>2561</ele>
        <time>2020-08-11T08:52:19Z</time>
      </trkpt>
      <trkpt lat="45.15444" lon="5.96555">
        <ele>2560</ele>
        <time>2020-08-11T08:52:20Z</time>
      </trkpt>
      <trkpt lat="45.15442" lon="5.96556">
        <ele>2559.8</ele>
        <time>2020-08-11T08:52:21Z</time>
      </trkpt>
      <trkpt lat="45.1544" lon="5.96557">
        <ele>2559.2</ele>
        <time>2020-08-11T08:52:22Z</time>
      </trkpt>
      <trkpt lat="45.15439" lon="5.96559">
        <ele>2559.2</ele>
        <time>2020-08-11T08:52:23Z</time>
      </trkpt>
      <trkpt lat="45.15437" lon="5.96559">
        <ele>2559</ele>
        <time>2020-08-11T08:52:24Z</time>
      </trkpt>
      <trkpt lat="45.15437" lon="5.96559">
        <ele>2558.8</ele>
        <time>2020-08-11T08:52:25Z</time>
      </trkpt>
      <trkpt lat="45.15435" lon="5.9656">
        <ele>2558.6</ele>
        <time>2020-08-11T08:52:26Z</time>
      </trkpt>
      <trkpt lat="45.15433" lon="5.96561">
        <ele>2558.6</ele>
        <time>2020-08-11T08:52:27Z</time>
      </trkpt>
      <trkpt lat="45.15433" lon="5.96561">
        <ele>2558.4</ele>
        <time>2020-08-11T08:52:28Z</time>
      </trkpt>
      <trkpt lat="45.15432" lon="5.96562">
        <ele>2557.8</ele>
        <time>2020-08-11T08:52:29Z</time>
      </trkpt>
      <trkpt lat="45.15432" lon="5.96562">
        <ele>2557.2</ele>
        <time>2020-08-11T08:52:30Z</time>
      </trkpt>
      <trkpt lat="45.1543" lon="5.96565">
        <ele>2557.2</ele>
        <time>2020-08-11T08:52:31Z</time>
      </trkpt>
      <trkpt lat="45.1543" lon="5.96568">
        <ele>2556.8</ele>
        <time>2020-08-11T08:52:32Z</time>
      </trkpt>
      <trkpt lat="45.1543" lon="5.9657">
        <ele>2556.8</ele>
        <time>2020-08-11T08:52:33Z</time>
      </trkpt>
      <trkpt lat="45.15429" lon="5.96572">
        <ele>2556.4</ele>
        <time>2020-08-11T08:52:34Z</time>
      </trkpt>
      <trkpt lat="45.15429" lon="5.96572">
        <ele>2556</ele>
        <time>2020-08-11T08:52:35Z</time>
      </trkpt>
      <trkpt lat="45.15429" lon="5.96575">
        <ele>2555.8</ele>
        <time>2020-08-11T08:52:36Z</time>
      </trkpt>
      <trkpt lat="45.15429" lon="5.96578">
        <ele>2555.4</ele>
        <time>2020-08-11T08:52:37Z</time>
      </trkpt>
      <trkpt lat="45.15429" lon="5.96582">
        <ele>2554.6</ele>
        <time>2020-08-11T08:52:38Z</time>
      </trkpt>
      <trkpt lat="45.15429" lon="5.96582">
        <ele>2554.4</ele>
        <time>2020-08-11T08:52:39Z</time>
      </trkpt>
      <trkpt lat="45.15429" lon="5.96584">
        <ele>2554</ele>
        <time>2020-08-11T08:52:40Z</time>
      </trkpt>
      <trkpt lat="45.15429" lon="5.96584">
        <ele>2553.8</ele>
        <time>2020-08-11T08:52:41Z</time>
      </trkpt>
      <trkpt lat="45.15429" lon="5.96588">
        <ele>2553.2</ele>
        <time>2020-08-11T08:52:42Z</time>
      </trkpt>
      <trkpt lat="45.15429" lon="5.96588">
        <ele>2553</ele>
        <time>2020-08-11T08:52:43Z</time>
      </trkpt>
      <trkpt lat="45.15429" lon="5.96588">
        <ele>2553</ele>
        <time>2020-08-11T08:52:44Z</time>
      </trkpt>
      <trkpt lat="45.15429" lon="5.96588">
        <ele>2552.8</ele>
        <time>2020-08-11T08:52:45Z</time>
      </trkpt>
      <trkpt lat="45.15431" lon="5.9659">
        <ele>2552.6</ele>
        <time>2020-08-11T08:52:46Z</time>
      </trkpt>
      <trkpt lat="45.15431" lon="5.9659">
        <ele>2552.4</ele>
        <time>2020-08-11T08:52:47Z</time>
      </trkpt>
      <trkpt lat="45.15433" lon="5.9659">
        <ele>2552.2</ele>
        <time>2020-08-11T08:52:48Z</time>
      </trkpt>
      <trkpt lat="45.15433" lon="5.9659">
        <ele>2552.2</ele>
        <time>2020-08-11T08:52:49Z</time>
      </trkpt>
      <trkpt lat="45.15433" lon="5.9659">
        <ele>2551.6</ele>
        <time>2020-08-11T08:52:50Z</time>
      </trkpt>
      <trkpt lat="45.15435" lon="5.96591">
        <ele>2551.4</ele>
        <time>2020-08-11T08:52:51Z</time>
      </trkpt>
      <trkpt lat="45.15435" lon="5.96591">
        <ele>2551.2</ele>
        <time>2020-08-11T08:52:52Z</time>
      </trkpt>
      <trkpt lat="45.15435" lon="5.96591">
        <ele>2551</ele>
        <time>2020-08-11T08:52:53Z</time>
      </trkpt>
      <trkpt lat="45.15436" lon="5.9659">
        <ele>2550.8</ele>
        <time>2020-08-11T08:52:54Z</time>
      </trkpt>
      <trkpt lat="45.15436" lon="5.9659">
        <ele>2550.2</ele>
        <time>2020-08-11T08:52:55Z</time>
      </trkpt>
      <trkpt lat="45.15436" lon="5.9659">
        <ele>2549.4</ele>
        <time>2020-08-11T08:52:56Z</time>
      </trkpt>
      <trkpt lat="45.15437" lon="5.96593">
        <ele>2549.2</ele>
        <time>2020-08-11T08:52:57Z</time>
      </trkpt>
      <trkpt lat="45.15437" lon="5.96593">
        <ele>2549</ele>
        <time>2020-08-11T08:52:58Z</time>
      </trkpt>
      <trkpt lat="45.15437" lon="5.96596">
        <ele>2548.8</ele>
        <time>2020-08-11T08:52:59Z</time>
      </trkpt>
      <trkpt lat="45.15437" lon="5.96596">
        <ele>2548.2</ele>
        <time>2020-08-11T08:53:00Z</time>
      </trkpt>
      <trkpt lat="45.15437" lon="5.96596">
        <ele>2547.6</ele>
        <time>2020-08-11T08:53:01Z</time>
      </trkpt>
      <trkpt lat="45.15436" lon="5.966">
        <ele>2546.8</ele>
        <time>2020-08-11T08:53:02Z</time>
      </trkpt>
      <trkpt lat="45.15436" lon="5.966">
        <ele>2546.4</ele>
        <time>2020-08-11T08:53:03Z</time>
      </trkpt>
      <trkpt lat="45.15436" lon="5.966">
        <ele>2546.2</ele>
        <time>2020-08-11T08:53:04Z</time>
      </trkpt>
      <trkpt lat="45.15436" lon="5.966">
        <ele>2545.8</ele>
        <time>2020-08-11T08:53:05Z</time>
      </trkpt>
      <trkpt lat="45.15436" lon="5.96603">
        <ele>2545.6</ele>
        <time>2020-08-11T08:53:06Z</time>
      </trkpt>
      <trkpt lat="45.15436" lon="5.96603">
        <ele>2545</ele>
        <time>2020-08-11T08:53:07Z</time>
      </trkpt>
      <trkpt lat="45.15436" lon="5.96603">
        <ele>2545</ele>
        <time>2020-08-11T08:53:08Z</time>
      </trkpt>
      <trkpt lat="45.15436" lon="5.96607">
        <ele>2544.2</ele>
        <time>2020-08-11T08:53:09Z</time>
      </trkpt>
      <trkpt lat="45.15436" lon="5.96607">
        <ele>2544</ele>
        <time>2020-08-11T08:53:10Z</time>
      </trkpt>
      <trkpt lat="45.15434" lon="5.96608">
        <ele>2543.6</ele>
        <time>2020-08-11T08:53:11Z</time>
      </trkpt>
      <trkpt lat="45.15434" lon="5.96608">
        <ele>2542.8</ele>
        <time>2020-08-11T08:53:12Z</time>
      </trkpt>
      <trkpt lat="45.15432" lon="5.96609">
        <ele>2542.6</ele>
        <time>2020-08-11T08:53:13Z</time>
      </trkpt>
      <trkpt lat="45.15432" lon="5.96609">
        <ele>2542.2</ele>
        <time>2020-08-11T08:53:14Z</time>
      </trkpt>
      <trkpt lat="45.15431" lon="5.96612">
        <ele>2541.6</ele>
        <time>2020-08-11T08:53:15Z</time>
      </trkpt>
      <trkpt lat="45.15431" lon="5.96612">
        <ele>2541.8</ele>
        <time>2020-08-11T08:53:16Z</time>
      </trkpt>
      <trkpt lat="45.15431" lon="5.96612">
        <ele>2541</ele>
        <time>2020-08-11T08:53:17Z</time>
      </trkpt>
      <trkpt lat="45.1543" lon="5.96616">
        <ele>2540.6</ele>
        <time>2020-08-11T08:53:18Z</time>
      </trkpt>
      <trkpt lat="45.15428" lon="5.96617">
        <ele>2540.2</ele>
        <time>2020-08-11T08:53:19Z</time>
      </trkpt>
      <trkpt lat="45.15427" lon="5.96619">
        <ele>2539.8</ele>
        <time>2020-08-11T08:53:20Z</time>
      </trkpt>
      <trkpt lat="45.15427" lon="5.9662">
        <ele>2539.4</ele>
        <time>2020-08-11T08:53:21Z</time>
      </trkpt>
      <trkpt lat="45.15426" lon="5.96622">
        <ele>2539.4</ele>
        <time>2020-08-11T08:53:22Z</time>
      </trkpt>
      <trkpt lat="45.15426" lon="5.96622">
        <ele>2539.2</ele>
        <time>2020-08-11T08:53:23Z</time>
      </trkpt>
      <trkpt lat="45.15426" lon="5.96622">
        <ele>2538.6</ele>
        <time>2020-08-11T08:53:24Z</time>
      </trkpt>
      <trkpt lat="45.15424" lon="5.96623">
        <ele>2538.2</ele>
        <time>2020-08-11T08:53:25Z</time>
      </trkpt>
      <trkpt lat="45.15423" lon="5.96626">
        <ele>2537.8</ele>
        <time>2020-08-11T08:53:26Z</time>
      </trkpt>
      <trkpt lat="45.15422" lon="5.96628">
        <ele>2537.4</ele>
        <time>2020-08-11T08:53:27Z</time>
      </trkpt>
      <trkpt lat="45.15422" lon="5.96628">
        <ele>2537.2</ele>
        <time>2020-08-11T08:53:28Z</time>
      </trkpt>
      <trkpt lat="45.15422" lon="5.96628">
        <ele>2536.6</ele>
        <time>2020-08-11T08:53:29Z</time>
      </trkpt>
      <trkpt lat="45.15421" lon="5.96632">
        <ele>2536.2</ele>
        <time>2020-08-11T08:53:30Z</time>
      </trkpt>
      <trkpt lat="45.15422" lon="5.96637">
        <ele>2535.8</ele>
        <time>2020-08-11T08:53:31Z</time>
      </trkpt>
      <trkpt lat="45.15423" lon="5.96642">
        <ele>2535.6</ele>
        <time>2020-08-11T08:53:32Z</time>
      </trkpt>
      <trkpt lat="45.15423" lon="5.96645">
        <ele>2535.6</ele>
        <time>2020-08-11T08:53:33Z</time>
      </trkpt>
      <trkpt lat="45.15422" lon="5.96647">
        <ele>2535.6</ele>
        <time>2020-08-11T08:53:34Z</time>
      </trkpt>
      <trkpt lat="45.15422" lon="5.96647">
        <ele>2535.4</ele>
        <time>2020-08-11T08:53:35Z</time>
      </trkpt>
      <trkpt lat="45.15422" lon="5.96647">
        <ele>2534.8</ele>
        <time>2020-08-11T08:53:36Z</time>
      </trkpt>
      <trkpt lat="45.15422" lon="5.96651">
        <ele>2535</ele>
        <time>2020-08-11T08:53:37Z</time>
      </trkpt>
      <trkpt lat="45.15422" lon="5.96655">
        <ele>2534.6</ele>
        <time>2020-08-11T08:53:38Z</time>
      </trkpt>
      <trkpt lat="45.15422" lon="5.96659">
        <ele>2534.2</ele>
        <time>2020-08-11T08:53:39Z</time>
      </trkpt>
      <trkpt lat="45.15422" lon="5.96659">
        <ele>2534</ele>
        <time>2020-08-11T08:53:40Z</time>
      </trkpt>
      <trkpt lat="45.15423" lon="5.96664">
        <ele>2533.4</ele>
        <time>2020-08-11T08:53:41Z</time>
      </trkpt>
      <trkpt lat="45.15422" lon="5.96668">
        <ele>2533</ele>
        <time>2020-08-11T08:53:42Z</time>
      </trkpt>
      <trkpt lat="45.15422" lon="5.96668">
        <ele>2533</ele>
        <time>2020-08-11T08:53:43Z</time>
      </trkpt>
      <trkpt lat="45.15422" lon="5.96668">
        <ele>2532.8</ele>
        <time>2020-08-11T08:53:44Z</time>
      </trkpt>
      <trkpt lat="45.1542" lon="5.96672">
        <ele>2532.8</ele>
        <time>2020-08-11T08:53:45Z</time>
      </trkpt>
      <trkpt lat="45.1542" lon="5.96672">
        <ele>2532.6</ele>
        <time>2020-08-11T08:53:46Z</time>
      </trkpt>
      <trkpt lat="45.15419" lon="5.96674">
        <ele>2532.8</ele>
        <time>2020-08-11T08:53:47Z</time>
      </trkpt>
      <trkpt lat="45.15419" lon="5.96674">
        <ele>2533</ele>
        <time>2020-08-11T08:53:48Z</time>
      </trkpt>
      <trkpt lat="45.15419" lon="5.96674">
        <ele>2532.6</ele>
        <time>2020-08-11T08:53:49Z</time>
      </trkpt>
      <trkpt lat="45.15419" lon="5.96674">
        <ele>2532.4</ele>
        <time>2020-08-11T08:53:50Z</time>
      </trkpt>
      <trkpt lat="45.1542" lon="5.96677">
        <ele>2532</ele>
        <time>2020-08-11T08:53:51Z</time>
      </trkpt>
      <trkpt lat="45.15419" lon="5.96679">
        <ele>2531.8</ele>
        <time>2020-08-11T08:53:52Z</time>
      </trkpt>
      <trkpt lat="45.15418" lon="5.96681">
        <ele>2531</ele>
        <time>2020-08-11T08:53:53Z</time>
      </trkpt>
      <trkpt lat="45.15417" lon="5.96683">
        <ele>2530.8</ele>
        <time>2020-08-11T08:53:54Z</time>
      </trkpt>
      <trkpt lat="45.15417" lon="5.96683">
        <ele>2530.6</ele>
        <time>2020-08-11T08:53:55Z</time>
      </trkpt>
      <trkpt lat="45.15417" lon="5.96683">
        <ele>2530.6</ele>
        <time>2020-08-11T08:53:56Z</time>
      </trkpt>
      <trkpt lat="45.15416" lon="5.96686">
        <ele>2529.6</ele>
        <time>2020-08-11T08:53:57Z</time>
      </trkpt>
      <trkpt lat="45.15415" lon="5.96691">
        <ele>2528.8</ele>
        <time>2020-08-11T08:53:58Z</time>
      </trkpt>
      <trkpt lat="45.15415" lon="5.96691">
        <ele>2528.6</ele>
        <time>2020-08-11T08:53:59Z</time>
      </trkpt>
      <trkpt lat="45.15414" lon="5.96694">
        <ele>2528.4</ele>
        <time>2020-08-11T08:54:00Z</time>
      </trkpt>
      <trkpt lat="45.15414" lon="5.96694">
        <ele>2527.6</ele>
        <time>2020-08-11T08:54:01Z</time>
      </trkpt>
      <trkpt lat="45.15415" lon="5.96697">
        <ele>2526.8</ele>
        <time>2020-08-11T08:54:02Z</time>
      </trkpt>
      <trkpt lat="45.15416" lon="5.96699">
        <ele>2526.4</ele>
        <time>2020-08-11T08:54:03Z</time>
      </trkpt>
      <trkpt lat="45.15416" lon="5.967">
        <ele>2526.2</ele>
        <time>2020-08-11T08:54:04Z</time>
      </trkpt>
      <trkpt lat="45.15417" lon="5.96702">
        <ele>2526</ele>
        <time>2020-08-11T08:54:05Z</time>
      </trkpt>
      <trkpt lat="45.15417" lon="5.96702">
        <ele>2526</ele>
        <time>2020-08-11T08:54:06Z</time>
      </trkpt>
      <trkpt lat="45.15417" lon="5.96702">
        <ele>2525.8</ele>
        <time>2020-08-11T08:54:07Z</time>
      </trkpt>
      <trkpt lat="45.15418" lon="5.96706">
        <ele>2525.8</ele>
        <time>2020-08-11T08:54:08Z</time>
      </trkpt>
      <trkpt lat="45.15418" lon="5.96706">
        <ele>2525.6</ele>
        <time>2020-08-11T08:54:09Z</time>
      </trkpt>
      <trkpt lat="45.15417" lon="5.96708">
        <ele>2525</ele>
        <time>2020-08-11T08:54:10Z</time>
      </trkpt>
      <trkpt lat="45.15417" lon="5.96708">
        <ele>2524.6</ele>
        <time>2020-08-11T08:54:11Z</time>
      </trkpt>
      <trkpt lat="45.15417" lon="5.96708">
        <ele>2524.2</ele>
        <time>2020-08-11T08:54:12Z</time>
      </trkpt>
      <trkpt lat="45.15417" lon="5.96708">
        <ele>2524</ele>
        <time>2020-08-11T08:54:13Z</time>
      </trkpt>
      <trkpt lat="45.15416" lon="5.96711">
        <ele>2523.8</ele>
        <time>2020-08-11T08:54:14Z</time>
      </trkpt>
      <trkpt lat="45.15416" lon="5.96711">
        <ele>2523.6</ele>
        <time>2020-08-11T08:54:15Z</time>
      </trkpt>
      <trkpt lat="45.15416" lon="5.96711">
        <ele>2523.2</ele>
        <time>2020-08-11T08:54:16Z</time>
      </trkpt>
      <trkpt lat="45.15416" lon="5.96711">
        <ele>2523</ele>
        <time>2020-08-11T08:54:17Z</time>
      </trkpt>
      <trkpt lat="45.15416" lon="5.96711">
        <ele>2522.6</ele>
        <time>2020-08-11T08:54:18Z</time>
      </trkpt>
      <trkpt lat="45.15416" lon="5.96711">
        <ele>2522.2</ele>
        <time>2020-08-11T08:54:19Z</time>
      </trkpt>
      <trkpt lat="45.15415" lon="5.96713">
        <ele>2521.4</ele>
        <time>2020-08-11T08:54:20Z</time>
      </trkpt>
      <trkpt lat="45.15415" lon="5.96713">
        <ele>2521</ele>
        <time>2020-08-11T08:54:21Z</time>
      </trkpt>
      <trkpt lat="45.15415" lon="5.96713">
        <ele>2520</ele>
        <time>2020-08-11T08:54:22Z</time>
      </trkpt>
      <trkpt lat="45.15413" lon="5.96714">
        <ele>2519.6</ele>
        <time>2020-08-11T08:54:23Z</time>
      </trkpt>
      <trkpt lat="45.15413" lon="5.96714">
        <ele>2519.4</ele>
        <time>2020-08-11T08:54:24Z</time>
      </trkpt>
      <trkpt lat="45.15413" lon="5.96714">
        <ele>2519</ele>
        <time>2020-08-11T08:54:25Z</time>
      </trkpt>
      <trkpt lat="45.1541" lon="5.96715">
        <ele>2518.8</ele>
        <time>2020-08-11T08:54:26Z</time>
      </trkpt>
      <trkpt lat="45.15407" lon="5.96715">
        <ele>2518.8</ele>
        <time>2020-08-11T08:54:27Z</time>
      </trkpt>
      <trkpt lat="45.15407" lon="5.96715">
        <ele>2518.6</ele>
        <time>2020-08-11T08:54:28Z</time>
      </trkpt>
      <trkpt lat="45.15407" lon="5.96715">
        <ele>2518</ele>
        <time>2020-08-11T08:54:29Z</time>
      </trkpt>
      <trkpt lat="45.15406" lon="5.96717">
        <ele>2517.6</ele>
        <time>2020-08-11T08:54:30Z</time>
      </trkpt>
      <trkpt lat="45.15406" lon="5.96717">
        <ele>2516.8</ele>
        <time>2020-08-11T08:54:31Z</time>
      </trkpt>
      <trkpt lat="45.15406" lon="5.96717">
        <ele>2516.4</ele>
        <time>2020-08-11T08:54:32Z</time>
      </trkpt>
      <trkpt lat="45.15406" lon="5.96717">
        <ele>2516</ele>
        <time>2020-08-11T08:54:33Z</time>
      </trkpt>
      <trkpt lat="45.15405" lon="5.96719">
        <ele>2515.6</ele>
        <time>2020-08-11T08:54:34Z</time>
      </trkpt>
      <trkpt lat="45.15405" lon="5.96719">
        <ele>2515.2</ele>
        <time>2020-08-11T08:54:35Z</time>
      </trkpt>
      <trkpt lat="45.15405" lon="5.96719">
        <ele>2514.6</ele>
        <time>2020-08-11T08:54:36Z</time>
      </trkpt>
      <trkpt lat="45.15405" lon="5.96719">
        <ele>2514.2</ele>
        <time>2020-08-11T08:54:37Z</time>
      </trkpt>
      <trkpt lat="45.15405" lon="5.96719">
        <ele>2513.6</ele>
        <time>2020-08-11T08:54:38Z</time>
      </trkpt>
      <trkpt lat="45.15405" lon="5.96719">
        <ele>2513</ele>
        <time>2020-08-11T08:54:39Z</time>
      </trkpt>
      <trkpt lat="45.15405" lon="5.96719">
        <ele>2512.6</ele>
        <time>2020-08-11T08:54:40Z</time>
      </trkpt>
      <trkpt lat="45.15405" lon="5.96719">
        <ele>2512.2</ele>
        <time>2020-08-11T08:54:41Z</time>
      </trkpt>
      <trkpt lat="45.15405" lon="5.96719">
        <ele>2512.2</ele>
        <time>2020-08-11T08:54:42Z</time>
      </trkpt>
      <trkpt lat="45.15406" lon="5.96723">
        <ele>2512.2</ele>
        <time>2020-08-11T08:54:43Z</time>
      </trkpt>
      <trkpt lat="45.15406" lon="5.96724">
        <ele>2511.8</ele>
        <time>2020-08-11T08:54:44Z</time>
      </trkpt>
      <trkpt lat="45.15406" lon="5.96724">
        <ele>2511.4</ele>
        <time>2020-08-11T08:54:45Z</time>
      </trkpt>
      <trkpt lat="45.15406" lon="5.96725">
        <ele>2511.4</ele>
        <time>2020-08-11T08:54:46Z</time>
      </trkpt>
      <trkpt lat="45.15406" lon="5.96726">
        <ele>2511</ele>
        <time>2020-08-11T08:54:47Z</time>
      </trkpt>
      <trkpt lat="45.15406" lon="5.96726">
        <ele>2510.8</ele>
        <time>2020-08-11T08:54:48Z</time>
      </trkpt>
      <trkpt lat="45.15406" lon="5.96727">
        <ele>2510.6</ele>
        <time>2020-08-11T08:54:49Z</time>
      </trkpt>
      <trkpt lat="45.15406" lon="5.96727">
        <ele>2510.2</ele>
        <time>2020-08-11T08:54:50Z</time>
      </trkpt>
      <trkpt lat="45.15406" lon="5.96728">
        <ele>2510</ele>
        <time>2020-08-11T08:54:51Z</time>
      </trkpt>
      <trkpt lat="45.15406" lon="5.96728">
        <ele>2510.4</ele>
        <time>2020-08-11T08:54:52Z</time>
      </trkpt>
      <trkpt lat="45.15406" lon="5.96729">
        <ele>2509.8</ele>
        <time>2020-08-11T08:54:53Z</time>
      </trkpt>
      <trkpt lat="45.15406" lon="5.9673">
        <ele>2509.8</ele>
        <time>2020-08-11T08:54:54Z</time>
      </trkpt>
      <trkpt lat="45.15406" lon="5.9673">
        <ele>2509.8</ele>
        <time>2020-08-11T08:54:55Z</time>
      </trkpt>
      <trkpt lat="45.15406" lon="5.96731">
        <ele>2509.8</ele>
        <time>2020-08-11T08:54:56Z</time>
      </trkpt>
      <trkpt lat="45.15406" lon="5.96732">
        <ele>2509.6</ele>
        <time>2020-08-11T08:54:57Z</time>
      </trkpt>
      <trkpt lat="45.15407" lon="5.96733">
        <ele>2509.2</ele>
        <time>2020-08-11T08:54:58Z</time>
      </trkpt>
      <trkpt lat="45.15408" lon="5.96734">
        <ele>2508.8</ele>
        <time>2020-08-11T08:54:59Z</time>
      </trkpt>
      <trkpt lat="45.15408" lon="5.96735">
        <ele>2508.4</ele>
        <time>2020-08-11T08:55:00Z</time>
      </trkpt>
      <trkpt lat="45.15408" lon="5.96735">
        <ele>2508.4</ele>
        <time>2020-08-11T08:55:01Z</time>
      </trkpt>
      <trkpt lat="45.15408" lon="5.96735">
        <ele>2508</ele>
        <time>2020-08-11T08:55:02Z</time>
      </trkpt>
      <trkpt lat="45.15408" lon="5.96735">
        <ele>2507.6</ele>
        <time>2020-08-11T08:55:03Z</time>
      </trkpt>
      <trkpt lat="45.15408" lon="5.96736">
        <ele>2507.6</ele>
        <time>2020-08-11T08:55:04Z</time>
      </trkpt>
      <trkpt lat="45.15408" lon="5.96737">
        <ele>2507.2</ele>
        <time>2020-08-11T08:55:05Z</time>
      </trkpt>
      <trkpt lat="45.15408" lon="5.96738">
        <ele>2507.2</ele>
        <time>2020-08-11T08:55:06Z</time>
      </trkpt>
      <trkpt lat="45.15408" lon="5.96738">
        <ele>2507.4</ele>
        <time>2020-08-11T08:55:07Z</time>
      </trkpt>
      <trkpt lat="45.15407" lon="5.96739">
        <ele>2506.6</ele>
        <time>2020-08-11T08:55:08Z</time>
      </trkpt>
      <trkpt lat="45.15407" lon="5.9674">
        <ele>2506.4</ele>
        <time>2020-08-11T08:55:09Z</time>
      </trkpt>
      <trkpt lat="45.15407" lon="5.9674">
        <ele>2506.2</ele>
        <time>2020-08-11T08:55:10Z</time>
      </trkpt>
      <trkpt lat="45.15407" lon="5.96741">
        <ele>2506</ele>
        <time>2020-08-11T08:55:11Z</time>
      </trkpt>
      <trkpt lat="45.15407" lon="5.96742">
        <ele>2505.8</ele>
        <time>2020-08-11T08:55:12Z</time>
      </trkpt>
      <trkpt lat="45.15407" lon="5.96742">
        <ele>2505.4</ele>
        <time>2020-08-11T08:55:13Z</time>
      </trkpt>
      <trkpt lat="45.15407" lon="5.96743">
        <ele>2505.2</ele>
        <time>2020-08-11T08:55:14Z</time>
      </trkpt>
      <trkpt lat="45.15406" lon="5.96744">
        <ele>2505</ele>
        <time>2020-08-11T08:55:15Z</time>
      </trkpt>
      <trkpt lat="45.15406" lon="5.96744">
        <ele>2505.2</ele>
        <time>2020-08-11T08:55:16Z</time>
      </trkpt>
      <trkpt lat="45.15406" lon="5.96745">
        <ele>2504.8</ele>
        <time>2020-08-11T08:55:17Z</time>
      </trkpt>
      <trkpt lat="45.15406" lon="5.96746">
        <ele>2504.4</ele>
        <time>2020-08-11T08:55:18Z</time>
      </trkpt>
      <trkpt lat="45.15406" lon="5.96746">
        <ele>2504.6</ele>
        <time>2020-08-11T08:55:19Z</time>
      </trkpt>
      <trkpt lat="45.15406" lon="5.96747">
        <ele>2504.6</ele>
        <time>2020-08-11T08:55:20Z</time>
      </trkpt>
      <trkpt lat="45.15406" lon="5.96748">
        <ele>2504.2</ele>
        <time>2020-08-11T08:55:21Z</time>
      </trkpt>
      <trkpt lat="45.15405" lon="5.96749">
        <ele>2503.8</ele>
        <time>2020-08-11T08:55:22Z</time>
      </trkpt>
      <trkpt lat="45.15405" lon="5.96749">
        <ele>2503.6</ele>
        <time>2020-08-11T08:55:23Z</time>
      </trkpt>
      <trkpt lat="45.15405" lon="5.96749">
        <ele>2503.4</ele>
        <time>2020-08-11T08:55:24Z</time>
      </trkpt>
      <trkpt lat="45.15405" lon="5.96751">
        <ele>2503.4</ele>
        <time>2020-08-11T08:55:25Z</time>
      </trkpt>
      <trkpt lat="45.15405" lon="5.96752">
        <ele>2503</ele>
        <time>2020-08-11T08:55:26Z</time>
      </trkpt>
      <trkpt lat="45.15404" lon="5.96752">
        <ele>2502.8</ele>
        <time>2020-08-11T08:55:27Z</time>
      </trkpt>
      <trkpt lat="45.15403" lon="5.96752">
        <ele>2503</ele>
        <time>2020-08-11T08:55:28Z</time>
      </trkpt>
      <trkpt lat="45.15403" lon="5.96753">
        <ele>2502.8</ele>
        <time>2020-08-11T08:55:29Z</time>
      </trkpt>
      <trkpt lat="45.15402" lon="5.96753">
        <ele>2502.6</ele>
        <time>2020-08-11T08:55:30Z</time>
      </trkpt>
      <trkpt lat="45.15402" lon="5.96753">
        <ele>2502.4</ele>
        <time>2020-08-11T08:55:31Z</time>
      </trkpt>
      <trkpt lat="45.15401" lon="5.96754">
        <ele>2502.4</ele>
        <time>2020-08-11T08:55:32Z</time>
      </trkpt>
      <trkpt lat="45.15401" lon="5.96754">
        <ele>2502.2</ele>
        <time>2020-08-11T08:55:33Z</time>
      </trkpt>
      <trkpt lat="45.15401" lon="5.96754">
        <ele>2501.8</ele>
        <time>2020-08-11T08:55:34Z</time>
      </trkpt>
      <trkpt lat="45.15401" lon="5.96754">
        <ele>2501.4</ele>
        <time>2020-08-11T08:55:35Z</time>
      </trkpt>
      <trkpt lat="45.15401" lon="5.96754">
        <ele>2501.2</ele>
        <time>2020-08-11T08:55:36Z</time>
      </trkpt>
      <trkpt lat="45.15401" lon="5.96755">
        <ele>2501</ele>
        <time>2020-08-11T08:55:37Z</time>
      </trkpt>
      <trkpt lat="45.15401" lon="5.96755">
        <ele>2501</ele>
        <time>2020-08-11T08:55:38Z</time>
      </trkpt>
      <trkpt lat="45.15401" lon="5.96755">
        <ele>2500.8</ele>
        <time>2020-08-11T08:55:39Z</time>
      </trkpt>
      <trkpt lat="45.15401" lon="5.96756">
        <ele>2500.6</ele>
        <time>2020-08-11T08:55:40Z</time>
      </trkpt>
      <trkpt lat="45.15401" lon="5.96756">
        <ele>2500.4</ele>
        <time>2020-08-11T08:55:41Z</time>
      </trkpt>
      <trkpt lat="45.15401" lon="5.96756">
        <ele>2500.2</ele>
        <time>2020-08-11T08:55:42Z</time>
      </trkpt>
      <trkpt lat="45.15401" lon="5.96757">
        <ele>2500</ele>
        <time>2020-08-11T08:55:43Z</time>
      </trkpt>
      <trkpt lat="45.15401" lon="5.96757">
        <ele>2500</ele>
        <time>2020-08-11T08:55:44Z</time>
      </trkpt>
      <trkpt lat="45.15401" lon="5.96757">
        <ele>2499.6</ele>
        <time>2020-08-11T08:55:45Z</time>
      </trkpt>
      <trkpt lat="45.15401" lon="5.96758">
        <ele>2499.6</ele>
        <time>2020-08-11T08:55:46Z</time>
      </trkpt>
      <trkpt lat="45.15401" lon="5.96758">
        <ele>2499.4</ele>
        <time>2020-08-11T08:55:47Z</time>
      </trkpt>
      <trkpt lat="45.15401" lon="5.96758">
        <ele>2499</ele>
        <time>2020-08-11T08:55:48Z</time>
      </trkpt>
      <trkpt lat="45.15401" lon="5.96759">
        <ele>2498.6</ele>
        <time>2020-08-11T08:55:49Z</time>
      </trkpt>
      <trkpt lat="45.15401" lon="5.96759">
        <ele>2498.6</ele>
        <time>2020-08-11T08:55:50Z</time>
      </trkpt>
      <trkpt lat="45.15401" lon="5.96759">
        <ele>2498.4</ele>
        <time>2020-08-11T08:55:51Z</time>
      </trkpt>
      <trkpt lat="45.15402" lon="5.9676">
        <ele>2498.4</ele>
        <time>2020-08-11T08:55:52Z</time>
      </trkpt>
      <trkpt lat="45.15402" lon="5.9676">
        <ele>2498.2</ele>
        <time>2020-08-11T08:55:53Z</time>
      </trkpt>
      <trkpt lat="45.15402" lon="5.96761">
        <ele>2498</ele>
        <time>2020-08-11T08:55:54Z</time>
      </trkpt>
      <trkpt lat="45.15402" lon="5.96761">
        <ele>2497.8</ele>
        <time>2020-08-11T08:55:55Z</time>
      </trkpt>
      <trkpt lat="45.15402" lon="5.96761">
        <ele>2497.8</ele>
        <time>2020-08-11T08:55:56Z</time>
      </trkpt>
      <trkpt lat="45.15402" lon="5.96762">
        <ele>2497.4</ele>
        <time>2020-08-11T08:55:57Z</time>
      </trkpt>
      <trkpt lat="45.15402" lon="5.96762">
        <ele>2497.2</ele>
        <time>2020-08-11T08:55:58Z</time>
      </trkpt>
      <trkpt lat="45.15402" lon="5.96762">
        <ele>2497.2</ele>
        <time>2020-08-11T08:55:59Z</time>
      </trkpt>
      <trkpt lat="45.15402" lon="5.96762">
        <ele>2497</ele>
        <time>2020-08-11T08:56:00Z</time>
      </trkpt>
      <trkpt lat="45.15402" lon="5.96762">
        <ele>2496.6</ele>
        <time>2020-08-11T08:56:01Z</time>
      </trkpt>
      <trkpt lat="45.15402" lon="5.96766">
        <ele>2496.2</ele>
        <time>2020-08-11T08:56:02Z</time>
      </trkpt>
      <trkpt lat="45.15402" lon="5.96766">
        <ele>2495.6</ele>
        <time>2020-08-11T08:56:03Z</time>
      </trkpt>
      <trkpt lat="45.15402" lon="5.96766">
        <ele>2495.2</ele>
        <time>2020-08-11T08:56:04Z</time>
      </trkpt>
      <trkpt lat="45.15402" lon="5.96766">
        <ele>2495</ele>
        <time>2020-08-11T08:56:05Z</time>
      </trkpt>
      <trkpt lat="45.15402" lon="5.96766">
        <ele>2495</ele>
        <time>2020-08-11T08:56:06Z</time>
      </trkpt>
      <trkpt lat="45.15402" lon="5.96766">
        <ele>2494.6</ele>
        <time>2020-08-11T08:56:07Z</time>
      </trkpt>
      <trkpt lat="45.15402" lon="5.96766">
        <ele>2494.4</ele>
        <time>2020-08-11T08:56:08Z</time>
      </trkpt>
      <trkpt lat="45.15404" lon="5.96768">
        <ele>2494</ele>
        <time>2020-08-11T08:56:09Z</time>
      </trkpt>
      <trkpt lat="45.15404" lon="5.96768">
        <ele>2493.8</ele>
        <time>2020-08-11T08:56:10Z</time>
      </trkpt>
      <trkpt lat="45.15404" lon="5.96768">
        <ele>2493.8</ele>
        <time>2020-08-11T08:56:11Z</time>
      </trkpt>
      <trkpt lat="45.15404" lon="5.96768">
        <ele>2493.6</ele>
        <time>2020-08-11T08:56:12Z</time>
      </trkpt>
      <trkpt lat="45.15404" lon="5.96768">
        <ele>2493.6</ele>
        <time>2020-08-11T08:56:13Z</time>
      </trkpt>
      <trkpt lat="45.15406" lon="5.9677">
        <ele>2493.4</ele>
        <time>2020-08-11T08:56:14Z</time>
      </trkpt>
      <trkpt lat="45.15406" lon="5.9677">
        <ele>2493</ele>
        <time>2020-08-11T08:56:15Z</time>
      </trkpt>
      <trkpt lat="45.15408" lon="5.96773">
        <ele>2492.8</ele>
        <time>2020-08-11T08:56:16Z</time>
      </trkpt>
      <trkpt lat="45.15408" lon="5.96773">
        <ele>2492.4</ele>
        <time>2020-08-11T08:56:17Z</time>
      </trkpt>
      <trkpt lat="45.15408" lon="5.96773">
        <ele>2492</ele>
        <time>2020-08-11T08:56:18Z</time>
      </trkpt>
      <trkpt lat="45.1541" lon="5.96775">
        <ele>2491.8</ele>
        <time>2020-08-11T08:56:19Z</time>
      </trkpt>
      <trkpt lat="45.1541" lon="5.96775">
        <ele>2491.6</ele>
        <time>2020-08-11T08:56:20Z</time>
      </trkpt>
      <trkpt lat="45.1541" lon="5.96775">
        <ele>2491.2</ele>
        <time>2020-08-11T08:56:21Z</time>
      </trkpt>
      <trkpt lat="45.1541" lon="5.96775">
        <ele>2491</ele>
        <time>2020-08-11T08:56:22Z</time>
      </trkpt>
      <trkpt lat="45.1541" lon="5.96776">
        <ele>2490.6</ele>
        <time>2020-08-11T08:56:23Z</time>
      </trkpt>
      <trkpt lat="45.15411" lon="5.96776">
        <ele>2490.2</ele>
        <time>2020-08-11T08:56:24Z</time>
      </trkpt>
      <trkpt lat="45.15411" lon="5.96777">
        <ele>2489.8</ele>
        <time>2020-08-11T08:56:25Z</time>
      </trkpt>
      <trkpt lat="45.15411" lon="5.96778">
        <ele>2489.6</ele>
        <time>2020-08-11T08:56:26Z</time>
      </trkpt>
      <trkpt lat="45.15412" lon="5.96778">
        <ele>2489.2</ele>
        <time>2020-08-11T08:56:27Z</time>
      </trkpt>
      <trkpt lat="45.15412" lon="5.96779">
        <ele>2488.8</ele>
        <time>2020-08-11T08:56:28Z</time>
      </trkpt>
      <trkpt lat="45.15413" lon="5.96779">
        <ele>2488.6</ele>
        <time>2020-08-11T08:56:29Z</time>
      </trkpt>
      <trkpt lat="45.15413" lon="5.9678">
        <ele>2488.4</ele>
        <time>2020-08-11T08:56:30Z</time>
      </trkpt>
      <trkpt lat="45.15413" lon="5.96781">
        <ele>2488</ele>
        <time>2020-08-11T08:56:31Z</time>
      </trkpt>
      <trkpt lat="45.15414" lon="5.96781">
        <ele>2487.6</ele>
        <time>2020-08-11T08:56:32Z</time>
      </trkpt>
      <trkpt lat="45.15414" lon="5.96781">
        <ele>2487.2</ele>
        <time>2020-08-11T08:56:33Z</time>
      </trkpt>
      <trkpt lat="45.15414" lon="5.96781">
        <ele>2487</ele>
        <time>2020-08-11T08:56:34Z</time>
      </trkpt>
      <trkpt lat="45.15414" lon="5.96781">
        <ele>2487</ele>
        <time>2020-08-11T08:56:35Z</time>
      </trkpt>
      <trkpt lat="45.15414" lon="5.96781">
        <ele>2486.8</ele>
        <time>2020-08-11T08:56:36Z</time>
      </trkpt>
      <trkpt lat="45.15413" lon="5.96785">
        <ele>2486.4</ele>
        <time>2020-08-11T08:56:37Z</time>
      </trkpt>
      <trkpt lat="45.15413" lon="5.96785">
        <ele>2486.2</ele>
        <time>2020-08-11T08:56:38Z</time>
      </trkpt>
      <trkpt lat="45.15413" lon="5.96785">
        <ele>2485.8</ele>
        <time>2020-08-11T08:56:39Z</time>
      </trkpt>
      <trkpt lat="45.15413" lon="5.96785">
        <ele>2485.8</ele>
        <time>2020-08-11T08:56:40Z</time>
      </trkpt>
      <trkpt lat="45.15413" lon="5.96785">
        <ele>2485.8</ele>
        <time>2020-08-11T08:56:41Z</time>
      </trkpt>
      <trkpt lat="45.15413" lon="5.96785">
        <ele>2485.8</ele>
        <time>2020-08-11T08:56:42Z</time>
      </trkpt>
      <trkpt lat="45.15413" lon="5.96785">
        <ele>2485.4</ele>
        <time>2020-08-11T08:56:43Z</time>
      </trkpt>
      <trkpt lat="45.15416" lon="5.96788">
        <ele>2485.4</ele>
        <time>2020-08-11T08:56:44Z</time>
      </trkpt>
      <trkpt lat="45.15416" lon="5.96788">
        <ele>2485.4</ele>
        <time>2020-08-11T08:56:45Z</time>
      </trkpt>
      <trkpt lat="45.15416" lon="5.96788">
        <ele>2485.4</ele>
        <time>2020-08-11T08:56:46Z</time>
      </trkpt>
      <trkpt lat="45.15417" lon="5.96789">
        <ele>2484.6</ele>
        <time>2020-08-11T08:56:47Z</time>
      </trkpt>
      <trkpt lat="45.15418" lon="5.9679">
        <ele>2484.6</ele>
        <time>2020-08-11T08:56:48Z</time>
      </trkpt>
      <trkpt lat="45.15419" lon="5.96791">
        <ele>2484.4</ele>
        <time>2020-08-11T08:56:49Z</time>
      </trkpt>
      <trkpt lat="45.15421" lon="5.96791">
        <ele>2483.8</ele>
        <time>2020-08-11T08:56:50Z</time>
      </trkpt>
      <trkpt lat="45.15422" lon="5.96792">
        <ele>2483.4</ele>
        <time>2020-08-11T08:56:51Z</time>
      </trkpt>
      <trkpt lat="45.15423" lon="5.96793">
        <ele>2483.4</ele>
        <time>2020-08-11T08:56:52Z</time>
      </trkpt>
      <trkpt lat="45.15424" lon="5.96794">
        <ele>2482.8</ele>
        <time>2020-08-11T08:56:53Z</time>
      </trkpt>
      <trkpt lat="45.15426" lon="5.96794">
        <ele>2482.8</ele>
        <time>2020-08-11T08:56:54Z</time>
      </trkpt>
      <trkpt lat="45.15427" lon="5.96795">
        <ele>2482.6</ele>
        <time>2020-08-11T08:56:55Z</time>
      </trkpt>
      <trkpt lat="45.15428" lon="5.96795">
        <ele>2482.4</ele>
        <time>2020-08-11T08:56:56Z</time>
      </trkpt>
      <trkpt lat="45.15429" lon="5.96796">
        <ele>2481.8</ele>
        <time>2020-08-11T08:56:57Z</time>
      </trkpt>
      <trkpt lat="45.1543" lon="5.96796">
        <ele>2481.2</ele>
        <time>2020-08-11T08:56:58Z</time>
      </trkpt>
      <trkpt lat="45.15431" lon="5.96797">
        <ele>2480.8</ele>
        <time>2020-08-11T08:56:59Z</time>
      </trkpt>
      <trkpt lat="45.15433" lon="5.96797">
        <ele>2479.4</ele>
        <time>2020-08-11T08:57:00Z</time>
      </trkpt>
      <trkpt lat="45.15434" lon="5.96798">
        <ele>2479.4</ele>
        <time>2020-08-11T08:57:01Z</time>
      </trkpt>
      <trkpt lat="45.15435" lon="5.96799">
        <ele>2479.2</ele>
        <time>2020-08-11T08:57:02Z</time>
      </trkpt>
      <trkpt lat="45.15436" lon="5.96799">
        <ele>2479</ele>
        <time>2020-08-11T08:57:03Z</time>
      </trkpt>
      <trkpt lat="45.15438" lon="5.96799">
        <ele>2478.6</ele>
        <time>2020-08-11T08:57:04Z</time>
      </trkpt>
      <trkpt lat="45.1544" lon="5.96799">
        <ele>2478.2</ele>
        <time>2020-08-11T08:57:05Z</time>
      </trkpt>
      <trkpt lat="45.15441" lon="5.96799">
        <ele>2478</ele>
        <time>2020-08-11T08:57:06Z</time>
      </trkpt>
      <trkpt lat="45.15443" lon="5.96799">
        <ele>2477.6</ele>
        <time>2020-08-11T08:57:07Z</time>
      </trkpt>
      <trkpt lat="45.15443" lon="5.968">
        <ele>2477</ele>
        <time>2020-08-11T08:57:08Z</time>
      </trkpt>
      <trkpt lat="45.15444" lon="5.96801">
        <ele>2476.6</ele>
        <time>2020-08-11T08:57:09Z</time>
      </trkpt>
      <trkpt lat="45.15445" lon="5.96802">
        <ele>2476.4</ele>
        <time>2020-08-11T08:57:10Z</time>
      </trkpt>
      <trkpt lat="45.15446" lon="5.96803">
        <ele>2476</ele>
        <time>2020-08-11T08:57:11Z</time>
      </trkpt>
      <trkpt lat="45.15446" lon="5.96804">
        <ele>2476</ele>
        <time>2020-08-11T08:57:12Z</time>
      </trkpt>
      <trkpt lat="45.15447" lon="5.96805">
        <ele>2475.8</ele>
        <time>2020-08-11T08:57:13Z</time>
      </trkpt>
      <trkpt lat="45.15448" lon="5.96806">
        <ele>2475.2</ele>
        <time>2020-08-11T08:57:14Z</time>
      </trkpt>
      <trkpt lat="45.15448" lon="5.96807">
        <ele>2475.2</ele>
        <time>2020-08-11T08:57:15Z</time>
      </trkpt>
      <trkpt lat="45.15449" lon="5.96808">
        <ele>2474.8</ele>
        <time>2020-08-11T08:57:16Z</time>
      </trkpt>
      <trkpt lat="45.1545" lon="5.96809">
        <ele>2474.6</ele>
        <time>2020-08-11T08:57:17Z</time>
      </trkpt>
      <trkpt lat="45.15451" lon="5.96809">
        <ele>2474</ele>
        <time>2020-08-11T08:57:18Z</time>
      </trkpt>
      <trkpt lat="45.15452" lon="5.96809">
        <ele>2473.6</ele>
        <time>2020-08-11T08:57:19Z</time>
      </trkpt>
      <trkpt lat="45.15453" lon="5.9681">
        <ele>2472.8</ele>
        <time>2020-08-11T08:57:20Z</time>
      </trkpt>
      <trkpt lat="45.15454" lon="5.9681">
        <ele>2472.2</ele>
        <time>2020-08-11T08:57:21Z</time>
      </trkpt>
      <trkpt lat="45.15456" lon="5.9681">
        <ele>2472.2</ele>
        <time>2020-08-11T08:57:22Z</time>
      </trkpt>
      <trkpt lat="45.15457" lon="5.96811">
        <ele>2471.4</ele>
        <time>2020-08-11T08:57:23Z</time>
      </trkpt>
      <trkpt lat="45.15458" lon="5.96811">
        <ele>2471</ele>
        <time>2020-08-11T08:57:24Z</time>
      </trkpt>
      <trkpt lat="45.15459" lon="5.96812">
        <ele>2470.6</ele>
        <time>2020-08-11T08:57:25Z</time>
      </trkpt>
      <trkpt lat="45.15462" lon="5.96812">
        <ele>2470</ele>
        <time>2020-08-11T08:57:26Z</time>
      </trkpt>
      <trkpt lat="45.15462" lon="5.96812">
        <ele>2469</ele>
        <time>2020-08-11T08:57:27Z</time>
      </trkpt>
      <trkpt lat="45.15462" lon="5.96812">
        <ele>2468.8</ele>
        <time>2020-08-11T08:57:28Z</time>
      </trkpt>
      <trkpt lat="45.15465" lon="5.96814">
        <ele>2468</ele>
        <time>2020-08-11T08:57:29Z</time>
      </trkpt>
      <trkpt lat="45.15466" lon="5.96815">
        <ele>2467.4</ele>
        <time>2020-08-11T08:57:30Z</time>
      </trkpt>
      <trkpt lat="45.15466" lon="5.96816">
        <ele>2467</ele>
        <time>2020-08-11T08:57:31Z</time>
      </trkpt>
      <trkpt lat="45.15467" lon="5.96817">
        <ele>2466.4</ele>
        <time>2020-08-11T08:57:32Z</time>
      </trkpt>
      <trkpt lat="45.15467" lon="5.96818">
        <ele>2466</ele>
        <time>2020-08-11T08:57:33Z</time>
      </trkpt>
      <trkpt lat="45.15468" lon="5.96819">
        <ele>2465.2</ele>
        <time>2020-08-11T08:57:34Z</time>
      </trkpt>
      <trkpt lat="45.15468" lon="5.96819">
        <ele>2465.2</ele>
        <time>2020-08-11T08:57:35Z</time>
      </trkpt>
      <trkpt lat="45.15468" lon="5.96819">
        <ele>2464.8</ele>
        <time>2020-08-11T08:57:36Z</time>
      </trkpt>
      <trkpt lat="45.1547" lon="5.96819">
        <ele>2465.2</ele>
        <time>2020-08-11T08:57:37Z</time>
      </trkpt>
      <trkpt lat="45.1547" lon="5.96819">
        <ele>2464.6</ele>
        <time>2020-08-11T08:57:38Z</time>
      </trkpt>
      <trkpt lat="45.1547" lon="5.96819">
        <ele>2464</ele>
        <time>2020-08-11T08:57:39Z</time>
      </trkpt>
      <trkpt lat="45.1547" lon="5.96819">
        <ele>2463.4</ele>
        <time>2020-08-11T08:57:40Z</time>
      </trkpt>
      <trkpt lat="45.15473" lon="5.96819">
        <ele>2463</ele>
        <time>2020-08-11T08:57:41Z</time>
      </trkpt>
      <trkpt lat="45.15473" lon="5.96819">
        <ele>2462.8</ele>
        <time>2020-08-11T08:57:42Z</time>
      </trkpt>
      <trkpt lat="45.15473" lon="5.96819">
        <ele>2462.2</ele>
        <time>2020-08-11T08:57:43Z</time>
      </trkpt>
      <trkpt lat="45.15473" lon="5.96819">
        <ele>2462</ele>
        <time>2020-08-11T08:57:44Z</time>
      </trkpt>
      <trkpt lat="45.15474" lon="5.9682">
        <ele>2461.6</ele>
        <time>2020-08-11T08:57:45Z</time>
      </trkpt>
      <trkpt lat="45.15474" lon="5.9682">
        <ele>2461.6</ele>
        <time>2020-08-11T08:57:46Z</time>
      </trkpt>
      <trkpt lat="45.15475" lon="5.96821">
        <ele>2461.6</ele>
        <time>2020-08-11T08:57:47Z</time>
      </trkpt>
      <trkpt lat="45.15475" lon="5.96821">
        <ele>2461.6</ele>
        <time>2020-08-11T08:57:48Z</time>
      </trkpt>
      <trkpt lat="45.15475" lon="5.96821">
        <ele>2462</ele>
        <time>2020-08-11T08:57:49Z</time>
      </trkpt>
      <trkpt lat="45.15476" lon="5.96822">
        <ele>2461.8</ele>
        <time>2020-08-11T08:57:50Z</time>
      </trkpt>
      <trkpt lat="45.15476" lon="5.96822">
        <ele>2461.4</ele>
        <time>2020-08-11T08:57:51Z</time>
      </trkpt>
      <trkpt lat="45.15477" lon="5.96822">
        <ele>2461.6</ele>
        <time>2020-08-11T08:57:52Z</time>
      </trkpt>
      <trkpt lat="45.15477" lon="5.96823">
        <ele>2461.4</ele>
        <time>2020-08-11T08:57:53Z</time>
      </trkpt>
      <trkpt lat="45.15478" lon="5.96823">
        <ele>2461.2</ele>
        <time>2020-08-11T08:57:54Z</time>
      </trkpt>
      <trkpt lat="45.15478" lon="5.96824">
        <ele>2460.2</ele>
        <time>2020-08-11T08:57:55Z</time>
      </trkpt>
      <trkpt lat="45.15478" lon="5.96824">
        <ele>2459.8</ele>
        <time>2020-08-11T08:57:56Z</time>
      </trkpt>
      <trkpt lat="45.15479" lon="5.96825">
        <ele>2459</ele>
        <time>2020-08-11T08:57:57Z</time>
      </trkpt>
      <trkpt lat="45.1548" lon="5.96825">
        <ele>2458.6</ele>
        <time>2020-08-11T08:57:58Z</time>
      </trkpt>
      <trkpt lat="45.15481" lon="5.96826">
        <ele>2458.8</ele>
        <time>2020-08-11T08:57:59Z</time>
      </trkpt>
      <trkpt lat="45.15482" lon="5.96826">
        <ele>2457.8</ele>
        <time>2020-08-11T08:58:00Z</time>
      </trkpt>
      <trkpt lat="45.15483" lon="5.96827">
        <ele>2457.2</ele>
        <time>2020-08-11T08:58:01Z</time>
      </trkpt>
      <trkpt lat="45.15484" lon="5.96827">
        <ele>2456.6</ele>
        <time>2020-08-11T08:58:02Z</time>
      </trkpt>
      <trkpt lat="45.15485" lon="5.96828">
        <ele>2456</ele>
        <time>2020-08-11T08:58:03Z</time>
      </trkpt>
      <trkpt lat="45.15486" lon="5.96828">
        <ele>2455.4</ele>
        <time>2020-08-11T08:58:04Z</time>
      </trkpt>
      <trkpt lat="45.15487" lon="5.96829">
        <ele>2454.6</ele>
        <time>2020-08-11T08:58:05Z</time>
      </trkpt>
      <trkpt lat="45.15488" lon="5.9683">
        <ele>2453.6</ele>
        <time>2020-08-11T08:58:06Z</time>
      </trkpt>
      <trkpt lat="45.15489" lon="5.9683">
        <ele>2452.4</ele>
        <time>2020-08-11T08:58:07Z</time>
      </trkpt>
      <trkpt lat="45.1549" lon="5.96831">
        <ele>2452</ele>
        <time>2020-08-11T08:58:08Z</time>
      </trkpt>
      <trkpt lat="45.15491" lon="5.96832">
        <ele>2451.2</ele>
        <time>2020-08-11T08:58:09Z</time>
      </trkpt>
      <trkpt lat="45.15492" lon="5.96833">
        <ele>2451.2</ele>
        <time>2020-08-11T08:58:10Z</time>
      </trkpt>
      <trkpt lat="45.15493" lon="5.96833">
        <ele>2450.6</ele>
        <time>2020-08-11T08:58:11Z</time>
      </trkpt>
      <trkpt lat="45.15495" lon="5.96835">
        <ele>2450.2</ele>
        <time>2020-08-11T08:58:12Z</time>
      </trkpt>
      <trkpt lat="45.15495" lon="5.96835">
        <ele>2449.8</ele>
        <time>2020-08-11T08:58:13Z</time>
      </trkpt>
      <trkpt lat="45.15495" lon="5.96835">
        <ele>2449.6</ele>
        <time>2020-08-11T08:58:14Z</time>
      </trkpt>
      <trkpt lat="45.15495" lon="5.96835">
        <ele>2449.2</ele>
        <time>2020-08-11T08:58:15Z</time>
      </trkpt>
      <trkpt lat="45.15495" lon="5.96835">
        <ele>2449</ele>
        <time>2020-08-11T08:58:16Z</time>
      </trkpt>
      <trkpt lat="45.15495" lon="5.96835">
        <ele>2448.8</ele>
        <time>2020-08-11T08:58:17Z</time>
      </trkpt>
      <trkpt lat="45.15495" lon="5.96835">
        <ele>2448.8</ele>
        <time>2020-08-11T08:58:18Z</time>
      </trkpt>
      <trkpt lat="45.15495" lon="5.96835">
        <ele>2448.6</ele>
        <time>2020-08-11T08:58:19Z</time>
      </trkpt>
      <trkpt lat="45.15495" lon="5.96835">
        <ele>2448.6</ele>
        <time>2020-08-11T08:58:20Z</time>
      </trkpt>
      <trkpt lat="45.15495" lon="5.96835">
        <ele>2448</ele>
        <time>2020-08-11T08:58:21Z</time>
      </trkpt>
      <trkpt lat="45.15497" lon="5.96836">
        <ele>2447.8</ele>
        <time>2020-08-11T08:58:22Z</time>
      </trkpt>
      <trkpt lat="45.15497" lon="5.96836">
        <ele>2447.2</ele>
        <time>2020-08-11T08:58:23Z</time>
      </trkpt>
      <trkpt lat="45.15499" lon="5.96837">
        <ele>2446.6</ele>
        <time>2020-08-11T08:58:24Z</time>
      </trkpt>
      <trkpt lat="45.155" lon="5.96838">
        <ele>2446.2</ele>
        <time>2020-08-11T08:58:25Z</time>
      </trkpt>
      <trkpt lat="45.15502" lon="5.96838">
        <ele>2446</ele>
        <time>2020-08-11T08:58:26Z</time>
      </trkpt>
      <trkpt lat="45.15503" lon="5.96838">
        <ele>2446</ele>
        <time>2020-08-11T08:58:27Z</time>
      </trkpt>
      <trkpt lat="45.15503" lon="5.96838">
        <ele>2445.4</ele>
        <time>2020-08-11T08:58:28Z</time>
      </trkpt>
      <trkpt lat="45.15503" lon="5.96838">
        <ele>2445.2</ele>
        <time>2020-08-11T08:58:29Z</time>
      </trkpt>
      <trkpt lat="45.15504" lon="5.96839">
        <ele>2444.6</ele>
        <time>2020-08-11T08:58:30Z</time>
      </trkpt>
      <trkpt lat="45.15506" lon="5.96839">
        <ele>2444.2</ele>
        <time>2020-08-11T08:58:31Z</time>
      </trkpt>
      <trkpt lat="45.15507" lon="5.9684">
        <ele>2443.8</ele>
        <time>2020-08-11T08:58:32Z</time>
      </trkpt>
      <trkpt lat="45.15508" lon="5.9684">
        <ele>2443.8</ele>
        <time>2020-08-11T08:58:33Z</time>
      </trkpt>
      <trkpt lat="45.1551" lon="5.96841">
        <ele>2443.2</ele>
        <time>2020-08-11T08:58:34Z</time>
      </trkpt>
      <trkpt lat="45.15511" lon="5.96841">
        <ele>2442.8</ele>
        <time>2020-08-11T08:58:35Z</time>
      </trkpt>
      <trkpt lat="45.15512" lon="5.96842">
        <ele>2442.4</ele>
        <time>2020-08-11T08:58:36Z</time>
      </trkpt>
      <trkpt lat="45.15512" lon="5.96842">
        <ele>2441.8</ele>
        <time>2020-08-11T08:58:37Z</time>
      </trkpt>
      <trkpt lat="45.15512" lon="5.96842">
        <ele>2441.2</ele>
        <time>2020-08-11T08:58:38Z</time>
      </trkpt>
      <trkpt lat="45.15513" lon="5.96842">
        <ele>2440.8</ele>
        <time>2020-08-11T08:58:39Z</time>
      </trkpt>
      <trkpt lat="45.15515" lon="5.96842">
        <ele>2440.2</ele>
        <time>2020-08-11T08:58:40Z</time>
      </trkpt>
      <trkpt lat="45.15516" lon="5.96843">
        <ele>2439.4</ele>
        <time>2020-08-11T08:58:41Z</time>
      </trkpt>
      <trkpt lat="45.15517" lon="5.96843">
        <ele>2439</ele>
        <time>2020-08-11T08:58:42Z</time>
      </trkpt>
      <trkpt lat="45.15518" lon="5.96844">
        <ele>2438.4</ele>
        <time>2020-08-11T08:58:43Z</time>
      </trkpt>
      <trkpt lat="45.15518" lon="5.96844">
        <ele>2437.8</ele>
        <time>2020-08-11T08:58:44Z</time>
      </trkpt>
      <trkpt lat="45.15521" lon="5.96845">
        <ele>2437.2</ele>
        <time>2020-08-11T08:58:45Z</time>
      </trkpt>
      <trkpt lat="45.15521" lon="5.96845">
        <ele>2436.6</ele>
        <time>2020-08-11T08:58:46Z</time>
      </trkpt>
      <trkpt lat="45.15521" lon="5.96845">
        <ele>2436.4</ele>
        <time>2020-08-11T08:58:47Z</time>
      </trkpt>
      <trkpt lat="45.15521" lon="5.96846">
        <ele>2435.8</ele>
        <time>2020-08-11T08:58:48Z</time>
      </trkpt>
      <trkpt lat="45.15522" lon="5.96846">
        <ele>2435.6</ele>
        <time>2020-08-11T08:58:49Z</time>
      </trkpt>
      <trkpt lat="45.15522" lon="5.96847">
        <ele>2435.6</ele>
        <time>2020-08-11T08:58:50Z</time>
      </trkpt>
      <trkpt lat="45.15523" lon="5.96847">
        <ele>2435.2</ele>
        <time>2020-08-11T08:58:51Z</time>
      </trkpt>
      <trkpt lat="45.15524" lon="5.96848">
        <ele>2435</ele>
        <time>2020-08-11T08:58:52Z</time>
      </trkpt>
      <trkpt lat="45.15524" lon="5.96848">
        <ele>2434.8</ele>
        <time>2020-08-11T08:58:53Z</time>
      </trkpt>
      <trkpt lat="45.15525" lon="5.96849">
        <ele>2434.8</ele>
        <time>2020-08-11T08:58:54Z</time>
      </trkpt>
      <trkpt lat="45.15525" lon="5.96849">
        <ele>2434.4</ele>
        <time>2020-08-11T08:58:55Z</time>
      </trkpt>
      <trkpt lat="45.15526" lon="5.9685">
        <ele>2433.6</ele>
        <time>2020-08-11T08:58:56Z</time>
      </trkpt>
      <trkpt lat="45.15527" lon="5.9685">
        <ele>2433.4</ele>
        <time>2020-08-11T08:58:57Z</time>
      </trkpt>
      <trkpt lat="45.15527" lon="5.96851">
        <ele>2433</ele>
        <time>2020-08-11T08:58:58Z</time>
      </trkpt>
      <trkpt lat="45.15528" lon="5.96851">
        <ele>2432.8</ele>
        <time>2020-08-11T08:58:59Z</time>
      </trkpt>
      <trkpt lat="45.15528" lon="5.96852">
        <ele>2432.4</ele>
        <time>2020-08-11T08:59:00Z</time>
      </trkpt>
      <trkpt lat="45.15529" lon="5.96852">
        <ele>2431.4</ele>
        <time>2020-08-11T08:59:01Z</time>
      </trkpt>
      <trkpt lat="45.1553" lon="5.96853">
        <ele>2431</ele>
        <time>2020-08-11T08:59:02Z</time>
      </trkpt>
      <trkpt lat="45.15531" lon="5.96853">
        <ele>2430.6</ele>
        <time>2020-08-11T08:59:03Z</time>
      </trkpt>
      <trkpt lat="45.15532" lon="5.96853">
        <ele>2430.4</ele>
        <time>2020-08-11T08:59:04Z</time>
      </trkpt>
      <trkpt lat="45.15533" lon="5.96854">
        <ele>2429.8</ele>
        <time>2020-08-11T08:59:05Z</time>
      </trkpt>
      <trkpt lat="45.15534" lon="5.96854">
        <ele>2429.2</ele>
        <time>2020-08-11T08:59:06Z</time>
      </trkpt>
      <trkpt lat="45.15535" lon="5.96855">
        <ele>2429.2</ele>
        <time>2020-08-11T08:59:07Z</time>
      </trkpt>
      <trkpt lat="45.15536" lon="5.96855">
        <ele>2428.2</ele>
        <time>2020-08-11T08:59:08Z</time>
      </trkpt>
      <trkpt lat="45.15537" lon="5.96855">
        <ele>2427.4</ele>
        <time>2020-08-11T08:59:09Z</time>
      </trkpt>
      <trkpt lat="45.15539" lon="5.96855">
        <ele>2427</ele>
        <time>2020-08-11T08:59:10Z</time>
      </trkpt>
      <trkpt lat="45.15541" lon="5.96855">
        <ele>2426.4</ele>
        <time>2020-08-11T08:59:11Z</time>
      </trkpt>
      <trkpt lat="45.15543" lon="5.96855">
        <ele>2426.2</ele>
        <time>2020-08-11T08:59:12Z</time>
      </trkpt>
      <trkpt lat="45.15543" lon="5.96855">
        <ele>2425.8</ele>
        <time>2020-08-11T08:59:13Z</time>
      </trkpt>
      <trkpt lat="45.15544" lon="5.96856">
        <ele>2425.6</ele>
        <time>2020-08-11T08:59:14Z</time>
      </trkpt>
      <trkpt lat="45.15546" lon="5.96856">
        <ele>2424.8</ele>
        <time>2020-08-11T08:59:15Z</time>
      </trkpt>
      <trkpt lat="45.15547" lon="5.96856">
        <ele>2424.6</ele>
        <time>2020-08-11T08:59:16Z</time>
      </trkpt>
      <trkpt lat="45.15548" lon="5.96857">
        <ele>2424.2</ele>
        <time>2020-08-11T08:59:17Z</time>
      </trkpt>
      <trkpt lat="45.1555" lon="5.96857">
        <ele>2424</ele>
        <time>2020-08-11T08:59:18Z</time>
      </trkpt>
      <trkpt lat="45.15551" lon="5.96857">
        <ele>2423.8</ele>
        <time>2020-08-11T08:59:19Z</time>
      </trkpt>
      <trkpt lat="45.15552" lon="5.96857">
        <ele>2423.8</ele>
        <time>2020-08-11T08:59:20Z</time>
      </trkpt>
      <trkpt lat="45.15553" lon="5.96857">
        <ele>2423.6</ele>
        <time>2020-08-11T08:59:21Z</time>
      </trkpt>
      <trkpt lat="45.15554" lon="5.96856">
        <ele>2423.4</ele>
        <time>2020-08-11T08:59:22Z</time>
      </trkpt>
      <trkpt lat="45.15555" lon="5.96856">
        <ele>2423</ele>
        <time>2020-08-11T08:59:23Z</time>
      </trkpt>
      <trkpt lat="45.15557" lon="5.96856">
        <ele>2422.2</ele>
        <time>2020-08-11T08:59:24Z</time>
      </trkpt>
      <trkpt lat="45.15558" lon="5.96856">
        <ele>2422</ele>
        <time>2020-08-11T08:59:25Z</time>
      </trkpt>
      <trkpt lat="45.15558" lon="5.96856">
        <ele>2421.6</ele>
        <time>2020-08-11T08:59:26Z</time>
      </trkpt>
      <trkpt lat="45.15559" lon="5.96856">
        <ele>2421.2</ele>
        <time>2020-08-11T08:59:27Z</time>
      </trkpt>
      <trkpt lat="45.1556" lon="5.96856">
        <ele>2420.8</ele>
        <time>2020-08-11T08:59:28Z</time>
      </trkpt>
      <trkpt lat="45.15561" lon="5.96856">
        <ele>2420.4</ele>
        <time>2020-08-11T08:59:29Z</time>
      </trkpt>
      <trkpt lat="45.15562" lon="5.96856">
        <ele>2419.8</ele>
        <time>2020-08-11T08:59:30Z</time>
      </trkpt>
      <trkpt lat="45.15563" lon="5.96856">
        <ele>2419.6</ele>
        <time>2020-08-11T08:59:31Z</time>
      </trkpt>
      <trkpt lat="45.15564" lon="5.96856">
        <ele>2419.2</ele>
        <time>2020-08-11T08:59:32Z</time>
      </trkpt>
      <trkpt lat="45.15565" lon="5.96856">
        <ele>2418.6</ele>
        <time>2020-08-11T08:59:33Z</time>
      </trkpt>
      <trkpt lat="45.15566" lon="5.96856">
        <ele>2417.8</ele>
        <time>2020-08-11T08:59:34Z</time>
      </trkpt>
      <trkpt lat="45.15567" lon="5.96856">
        <ele>2416.8</ele>
        <time>2020-08-11T08:59:35Z</time>
      </trkpt>
      <trkpt lat="45.15567" lon="5.96856">
        <ele>2416.4</ele>
        <time>2020-08-11T08:59:36Z</time>
      </trkpt>
      <trkpt lat="45.15567" lon="5.96857">
        <ele>2415.6</ele>
        <time>2020-08-11T08:59:37Z</time>
      </trkpt>
      <trkpt lat="45.15568" lon="5.96857">
        <ele>2415</ele>
        <time>2020-08-11T08:59:38Z</time>
      </trkpt>
      <trkpt lat="45.15568" lon="5.96857">
        <ele>2415</ele>
        <time>2020-08-11T08:59:39Z</time>
      </trkpt>
      <trkpt lat="45.15569" lon="5.96858">
        <ele>2414.6</ele>
        <time>2020-08-11T08:59:40Z</time>
      </trkpt>
      <trkpt lat="45.15569" lon="5.96858">
        <ele>2414.2</ele>
        <time>2020-08-11T08:59:41Z</time>
      </trkpt>
      <trkpt lat="45.15569" lon="5.96858">
        <ele>2414</ele>
        <time>2020-08-11T08:59:42Z</time>
      </trkpt>
      <trkpt lat="45.1557" lon="5.96859">
        <ele>2413.8</ele>
        <time>2020-08-11T08:59:43Z</time>
      </trkpt>
      <trkpt lat="45.1557" lon="5.96859">
        <ele>2413.8</ele>
        <time>2020-08-11T08:59:44Z</time>
      </trkpt>
      <trkpt lat="45.1557" lon="5.96859">
        <ele>2413.4</ele>
        <time>2020-08-11T08:59:45Z</time>
      </trkpt>
      <trkpt lat="45.15571" lon="5.9686">
        <ele>2412.8</ele>
        <time>2020-08-11T08:59:46Z</time>
      </trkpt>
      <trkpt lat="45.15571" lon="5.9686">
        <ele>2412</ele>
        <time>2020-08-11T08:59:47Z</time>
      </trkpt>
      <trkpt lat="45.15571" lon="5.9686">
        <ele>2410.8</ele>
        <time>2020-08-11T08:59:48Z</time>
      </trkpt>
      <trkpt lat="45.15572" lon="5.96861">
        <ele>2410.6</ele>
        <time>2020-08-11T08:59:49Z</time>
      </trkpt>
      <trkpt lat="45.15572" lon="5.96861">
        <ele>2410.2</ele>
        <time>2020-08-11T08:59:50Z</time>
      </trkpt>
      <trkpt lat="45.15573" lon="5.96862">
        <ele>2409.8</ele>
        <time>2020-08-11T08:59:51Z</time>
      </trkpt>
      <trkpt lat="45.15573" lon="5.96862">
        <ele>2409</ele>
        <time>2020-08-11T08:59:52Z</time>
      </trkpt>
      <trkpt lat="45.15573" lon="5.96862">
        <ele>2408.6</ele>
        <time>2020-08-11T08:59:53Z</time>
      </trkpt>
      <trkpt lat="45.15574" lon="5.96863">
        <ele>2408.2</ele>
        <time>2020-08-11T08:59:54Z</time>
      </trkpt>
      <trkpt lat="45.15574" lon="5.96863">
        <ele>2407.8</ele>
        <time>2020-08-11T08:59:55Z</time>
      </trkpt>
      <trkpt lat="45.15574" lon="5.96863">
        <ele>2407</ele>
        <time>2020-08-11T08:59:56Z</time>
      </trkpt>
      <trkpt lat="45.15575" lon="5.96864">
        <ele>2406.8</ele>
        <time>2020-08-11T08:59:57Z</time>
      </trkpt>
      <trkpt lat="45.15575" lon="5.96865">
        <ele>2406.6</ele>
        <time>2020-08-11T08:59:58Z</time>
      </trkpt>
      <trkpt lat="45.15575" lon="5.96866">
        <ele>2405.8</ele>
        <time>2020-08-11T08:59:59Z</time>
      </trkpt>
      <trkpt lat="45.15576" lon="5.96867">
        <ele>2404.6</ele>
        <time>2020-08-11T09:00:01Z</time>
      </trkpt>
      <trkpt lat="45.15576" lon="5.96869">
        <ele>2404.4</ele>
        <time>2020-08-11T09:00:02Z</time>
      </trkpt>
      <trkpt lat="45.15576" lon="5.9687">
        <ele>2403.8</ele>
        <time>2020-08-11T09:00:03Z</time>
      </trkpt>
      <trkpt lat="45.15577" lon="5.96871">
        <ele>2404</ele>
        <time>2020-08-11T09:00:04Z</time>
      </trkpt>
      <trkpt lat="45.15577" lon="5.96871">
        <ele>2403.6</ele>
        <time>2020-08-11T09:00:05Z</time>
      </trkpt>
      <trkpt lat="45.15577" lon="5.96871">
        <ele>2403.4</ele>
        <time>2020-08-11T09:00:06Z</time>
      </trkpt>
      <trkpt lat="45.15577" lon="5.96871">
        <ele>2402.6</ele>
        <time>2020-08-11T09:00:07Z</time>
      </trkpt>
      <trkpt lat="45.15577" lon="5.96871">
        <ele>2402.6</ele>
        <time>2020-08-11T09:00:08Z</time>
      </trkpt>
      <trkpt lat="45.15577" lon="5.96871">
        <ele>2402.4</ele>
        <time>2020-08-11T09:00:09Z</time>
      </trkpt>
      <trkpt lat="45.15577" lon="5.96871">
        <ele>2402</ele>
        <time>2020-08-11T09:00:10Z</time>
      </trkpt>
      <trkpt lat="45.15577" lon="5.96871">
        <ele>2401.8</ele>
        <time>2020-08-11T09:00:11Z</time>
      </trkpt>
      <trkpt lat="45.15577" lon="5.96871">
        <ele>2401.4</ele>
        <time>2020-08-11T09:00:12Z</time>
      </trkpt>
      <trkpt lat="45.15577" lon="5.96871">
        <ele>2401.2</ele>
        <time>2020-08-11T09:00:13Z</time>
      </trkpt>
      <trkpt lat="45.15577" lon="5.96871">
        <ele>2401.2</ele>
        <time>2020-08-11T09:00:14Z</time>
      </trkpt>
      <trkpt lat="45.15577" lon="5.96871">
        <ele>2400.8</ele>
        <time>2020-08-11T09:00:15Z</time>
      </trkpt>
      <trkpt lat="45.15577" lon="5.96871">
        <ele>2400.2</ele>
        <time>2020-08-11T09:00:16Z</time>
      </trkpt>
      <trkpt lat="45.15577" lon="5.96871">
        <ele>2399.8</ele>
        <time>2020-08-11T09:00:17Z</time>
      </trkpt>
      <trkpt lat="45.15577" lon="5.96871">
        <ele>2399.4</ele>
        <time>2020-08-11T09:00:18Z</time>
      </trkpt>
      <trkpt lat="45.15577" lon="5.96871">
        <ele>2398.8</ele>
        <time>2020-08-11T09:00:19Z</time>
      </trkpt>
      <trkpt lat="45.15579" lon="5.96871">
        <ele>2398.4</ele>
        <time>2020-08-11T09:00:20Z</time>
      </trkpt>
      <trkpt lat="45.15579" lon="5.96871">
        <ele>2398</ele>
        <time>2020-08-11T09:00:21Z</time>
      </trkpt>
      <trkpt lat="45.15579" lon="5.96871">
        <ele>2397.8</ele>
        <time>2020-08-11T09:00:22Z</time>
      </trkpt>
      <trkpt lat="45.15579" lon="5.96871">
        <ele>2397.4</ele>
        <time>2020-08-11T09:00:23Z</time>
      </trkpt>
      <trkpt lat="45.15577" lon="5.96873">
        <ele>2397.4</ele>
        <time>2020-08-11T09:00:24Z</time>
      </trkpt>
      <trkpt lat="45.15577" lon="5.96873">
        <ele>2397</ele>
        <time>2020-08-11T09:00:25Z</time>
      </trkpt>
      <trkpt lat="45.15577" lon="5.96873">
        <ele>2396.8</ele>
        <time>2020-08-11T09:00:26Z</time>
      </trkpt>
      <trkpt lat="45.15577" lon="5.96874">
        <ele>2396.4</ele>
        <time>2020-08-11T09:00:27Z</time>
      </trkpt>
      <trkpt lat="45.15577" lon="5.96875">
        <ele>2396</ele>
        <time>2020-08-11T09:00:28Z</time>
      </trkpt>
      <trkpt lat="45.15577" lon="5.96877">
        <ele>2395.8</ele>
        <time>2020-08-11T09:00:29Z</time>
      </trkpt>
      <trkpt lat="45.15577" lon="5.96878">
        <ele>2395.4</ele>
        <time>2020-08-11T09:00:30Z</time>
      </trkpt>
      <trkpt lat="45.15578" lon="5.96879">
        <ele>2395</ele>
        <time>2020-08-11T09:00:31Z</time>
      </trkpt>
      <trkpt lat="45.15578" lon="5.9688">
        <ele>2394.2</ele>
        <time>2020-08-11T09:00:32Z</time>
      </trkpt>
      <trkpt lat="45.15578" lon="5.96882">
        <ele>2394</ele>
        <time>2020-08-11T09:00:33Z</time>
      </trkpt>
      <trkpt lat="45.15578" lon="5.96883">
        <ele>2393.6</ele>
        <time>2020-08-11T09:00:34Z</time>
      </trkpt>
      <trkpt lat="45.15578" lon="5.96884">
        <ele>2393.6</ele>
        <time>2020-08-11T09:00:36Z</time>
      </trkpt>
      <trkpt lat="45.15578" lon="5.96885">
        <ele>2393.2</ele>
        <time>2020-08-11T09:00:37Z</time>
      </trkpt>
      <trkpt lat="45.15578" lon="5.96886">
        <ele>2392.4</ele>
        <time>2020-08-11T09:00:38Z</time>
      </trkpt>
      <trkpt lat="45.15578" lon="5.96888">
        <ele>2391.8</ele>
        <time>2020-08-11T09:00:39Z</time>
      </trkpt>
      <trkpt lat="45.15579" lon="5.96889">
        <ele>2391.4</ele>
        <time>2020-08-11T09:00:40Z</time>
      </trkpt>
      <trkpt lat="45.15579" lon="5.96891">
        <ele>2391.4</ele>
        <time>2020-08-11T09:00:41Z</time>
      </trkpt>
      <trkpt lat="45.1558" lon="5.96892">
        <ele>2391</ele>
        <time>2020-08-11T09:00:42Z</time>
      </trkpt>
      <trkpt lat="45.1558" lon="5.96893">
        <ele>2390.2</ele>
        <time>2020-08-11T09:00:43Z</time>
      </trkpt>
      <trkpt lat="45.15581" lon="5.96895">
        <ele>2389.8</ele>
        <time>2020-08-11T09:00:44Z</time>
      </trkpt>
      <trkpt lat="45.15581" lon="5.96896">
        <ele>2389.6</ele>
        <time>2020-08-11T09:00:45Z</time>
      </trkpt>
      <trkpt lat="45.15582" lon="5.96898">
        <ele>2388.8</ele>
        <time>2020-08-11T09:00:46Z</time>
      </trkpt>
      <trkpt lat="45.15582" lon="5.96899">
        <ele>2388.6</ele>
        <time>2020-08-11T09:00:47Z</time>
      </trkpt>
      <trkpt lat="45.15583" lon="5.969">
        <ele>2388</ele>
        <time>2020-08-11T09:00:48Z</time>
      </trkpt>
      <trkpt lat="45.15583" lon="5.96901">
        <ele>2387.4</ele>
        <time>2020-08-11T09:00:49Z</time>
      </trkpt>
      <trkpt lat="45.15584" lon="5.96902">
        <ele>2387</ele>
        <time>2020-08-11T09:00:50Z</time>
      </trkpt>
      <trkpt lat="45.15584" lon="5.96904">
        <ele>2386.6</ele>
        <time>2020-08-11T09:00:51Z</time>
      </trkpt>
      <trkpt lat="45.15585" lon="5.96905">
        <ele>2385.8</ele>
        <time>2020-08-11T09:00:52Z</time>
      </trkpt>
      <trkpt lat="45.15585" lon="5.96906">
        <ele>2385</ele>
        <time>2020-08-11T09:00:53Z</time>
      </trkpt>
      <trkpt lat="45.15586" lon="5.96907">
        <ele>2384.8</ele>
        <time>2020-08-11T09:00:54Z</time>
      </trkpt>
      <trkpt lat="45.15587" lon="5.96908">
        <ele>2384.2</ele>
        <time>2020-08-11T09:00:55Z</time>
      </trkpt>
      <trkpt lat="45.15587" lon="5.9691">
        <ele>2383.8</ele>
        <time>2020-08-11T09:00:56Z</time>
      </trkpt>
      <trkpt lat="45.15587" lon="5.96911">
        <ele>2383.6</ele>
        <time>2020-08-11T09:00:57Z</time>
      </trkpt>
      <trkpt lat="45.15588" lon="5.96912">
        <ele>2383.2</ele>
        <time>2020-08-11T09:00:58Z</time>
      </trkpt>
      <trkpt lat="45.15588" lon="5.96913">
        <ele>2383</ele>
        <time>2020-08-11T09:00:59Z</time>
      </trkpt>
      <trkpt lat="45.15589" lon="5.96915">
        <ele>2382.6</ele>
        <time>2020-08-11T09:01:00Z</time>
      </trkpt>
      <trkpt lat="45.15589" lon="5.96916">
        <ele>2382.2</ele>
        <time>2020-08-11T09:01:01Z</time>
      </trkpt>
      <trkpt lat="45.15589" lon="5.96917">
        <ele>2381.6</ele>
        <time>2020-08-11T09:01:02Z</time>
      </trkpt>
      <trkpt lat="45.15589" lon="5.96918">
        <ele>2381.4</ele>
        <time>2020-08-11T09:01:03Z</time>
      </trkpt>
      <trkpt lat="45.15589" lon="5.9692">
        <ele>2381.2</ele>
        <time>2020-08-11T09:01:04Z</time>
      </trkpt>
      <trkpt lat="45.15589" lon="5.96921">
        <ele>2381</ele>
        <time>2020-08-11T09:01:05Z</time>
      </trkpt>
      <trkpt lat="45.15589" lon="5.96922">
        <ele>2381</ele>
        <time>2020-08-11T09:01:06Z</time>
      </trkpt>
      <trkpt lat="45.15589" lon="5.96923">
        <ele>2380.8</ele>
        <time>2020-08-11T09:01:07Z</time>
      </trkpt>
      <trkpt lat="45.1559" lon="5.96925">
        <ele>2380.2</ele>
        <time>2020-08-11T09:01:08Z</time>
      </trkpt>
      <trkpt lat="45.1559" lon="5.96927">
        <ele>2379.8</ele>
        <time>2020-08-11T09:01:09Z</time>
      </trkpt>
      <trkpt lat="45.1559" lon="5.96929">
        <ele>2379.4</ele>
        <time>2020-08-11T09:01:10Z</time>
      </trkpt>
      <trkpt lat="45.1559" lon="5.9693">
        <ele>2379.4</ele>
        <time>2020-08-11T09:01:11Z</time>
      </trkpt>
      <trkpt lat="45.15591" lon="5.96932">
        <ele>2379.2</ele>
        <time>2020-08-11T09:01:12Z</time>
      </trkpt>
      <trkpt lat="45.15591" lon="5.96933">
        <ele>2378.8</ele>
        <time>2020-08-11T09:01:13Z</time>
      </trkpt>
      <trkpt lat="45.15591" lon="5.96934">
        <ele>2378.6</ele>
        <time>2020-08-11T09:01:14Z</time>
      </trkpt>
      <trkpt lat="45.15591" lon="5.96935">
        <ele>2378.4</ele>
        <time>2020-08-11T09:01:15Z</time>
      </trkpt>
      <trkpt lat="45.15591" lon="5.96936">
        <ele>2377.6</ele>
        <time>2020-08-11T09:01:16Z</time>
      </trkpt>
      <trkpt lat="45.15591" lon="5.96937">
        <ele>2377</ele>
        <time>2020-08-11T09:01:17Z</time>
      </trkpt>
      <trkpt lat="45.15591" lon="5.96937">
        <ele>2376.4</ele>
        <time>2020-08-11T09:01:18Z</time>
      </trkpt>
      <trkpt lat="45.15591" lon="5.9694">
        <ele>2375.6</ele>
        <time>2020-08-11T09:01:19Z</time>
      </trkpt>
      <trkpt lat="45.15591" lon="5.96941">
        <ele>2375.6</ele>
        <time>2020-08-11T09:01:20Z</time>
      </trkpt>
      <trkpt lat="45.15591" lon="5.96942">
        <ele>2375.6</ele>
        <time>2020-08-11T09:01:21Z</time>
      </trkpt>
      <trkpt lat="45.15591" lon="5.96943">
        <ele>2374.8</ele>
        <time>2020-08-11T09:01:22Z</time>
      </trkpt>
      <trkpt lat="45.15591" lon="5.96944">
        <ele>2374.6</ele>
        <time>2020-08-11T09:01:23Z</time>
      </trkpt>
      <trkpt lat="45.15592" lon="5.96945">
        <ele>2374.4</ele>
        <time>2020-08-11T09:01:24Z</time>
      </trkpt>
      <trkpt lat="45.15592" lon="5.96946">
        <ele>2373.8</ele>
        <time>2020-08-11T09:01:25Z</time>
      </trkpt>
      <trkpt lat="45.15591" lon="5.96947">
        <ele>2373.6</ele>
        <time>2020-08-11T09:01:26Z</time>
      </trkpt>
      <trkpt lat="45.15591" lon="5.96948">
        <ele>2373.6</ele>
        <time>2020-08-11T09:01:27Z</time>
      </trkpt>
      <trkpt lat="45.1559" lon="5.96949">
        <ele>2373.2</ele>
        <time>2020-08-11T09:01:28Z</time>
      </trkpt>
      <trkpt lat="45.1559" lon="5.96951">
        <ele>2372.4</ele>
        <time>2020-08-11T09:01:29Z</time>
      </trkpt>
      <trkpt lat="45.1559" lon="5.96951">
        <ele>2372</ele>
        <time>2020-08-11T09:01:30Z</time>
      </trkpt>
      <trkpt lat="45.1559" lon="5.96951">
        <ele>2371.6</ele>
        <time>2020-08-11T09:01:31Z</time>
      </trkpt>
      <trkpt lat="45.15592" lon="5.96952">
        <ele>2370.4</ele>
        <time>2020-08-11T09:01:32Z</time>
      </trkpt>
      <trkpt lat="45.15592" lon="5.96952">
        <ele>2369.6</ele>
        <time>2020-08-11T09:01:33Z</time>
      </trkpt>
      <trkpt lat="45.15595" lon="5.96954">
        <ele>2368.8</ele>
        <time>2020-08-11T09:01:34Z</time>
      </trkpt>
      <trkpt lat="45.15595" lon="5.96954">
        <ele>2368.4</ele>
        <time>2020-08-11T09:01:35Z</time>
      </trkpt>
      <trkpt lat="45.15595" lon="5.96954">
        <ele>2367.8</ele>
        <time>2020-08-11T09:01:36Z</time>
      </trkpt>
      <trkpt lat="45.15597" lon="5.96956">
        <ele>2366.8</ele>
        <time>2020-08-11T09:01:37Z</time>
      </trkpt>
      <trkpt lat="45.15597" lon="5.96956">
        <ele>2366.2</ele>
        <time>2020-08-11T09:01:38Z</time>
      </trkpt>
      <trkpt lat="45.15597" lon="5.96956">
        <ele>2365.6</ele>
        <time>2020-08-11T09:01:39Z</time>
      </trkpt>
      <trkpt lat="45.15597" lon="5.96956">
        <ele>2365.2</ele>
        <time>2020-08-11T09:01:40Z</time>
      </trkpt>
      <trkpt lat="45.15597" lon="5.96956">
        <ele>2365.2</ele>
        <time>2020-08-11T09:01:41Z</time>
      </trkpt>
      <trkpt lat="45.15597" lon="5.96956">
        <ele>2364.6</ele>
        <time>2020-08-11T09:01:42Z</time>
      </trkpt>
      <trkpt lat="45.15597" lon="5.96956">
        <ele>2364</ele>
        <time>2020-08-11T09:01:43Z</time>
      </trkpt>
      <trkpt lat="45.15597" lon="5.96956">
        <ele>2363.4</ele>
        <time>2020-08-11T09:01:44Z</time>
      </trkpt>
      <trkpt lat="45.15597" lon="5.96956">
        <ele>2362.8</ele>
        <time>2020-08-11T09:01:45Z</time>
      </trkpt>
      <trkpt lat="45.15599" lon="5.96955">
        <ele>2362.6</ele>
        <time>2020-08-11T09:01:46Z</time>
      </trkpt>
      <trkpt lat="45.15599" lon="5.96955">
        <ele>2362.2</ele>
        <time>2020-08-11T09:01:47Z</time>
      </trkpt>
      <trkpt lat="45.15599" lon="5.96955">
        <ele>2362</ele>
        <time>2020-08-11T09:01:48Z</time>
      </trkpt>
      <trkpt lat="45.15599" lon="5.96955">
        <ele>2361.6</ele>
        <time>2020-08-11T09:01:49Z</time>
      </trkpt>
      <trkpt lat="45.15602" lon="5.96958">
        <ele>2361.2</ele>
        <time>2020-08-11T09:01:50Z</time>
      </trkpt>
      <trkpt lat="45.15602" lon="5.96958">
        <ele>2360.8</ele>
        <time>2020-08-11T09:01:51Z</time>
      </trkpt>
      <trkpt lat="45.15602" lon="5.9696">
        <ele>2359.8</ele>
        <time>2020-08-11T09:01:52Z</time>
      </trkpt>
      <trkpt lat="45.15603" lon="5.96961">
        <ele>2359</ele>
        <time>2020-08-11T09:01:53Z</time>
      </trkpt>
      <trkpt lat="45.15604" lon="5.96963">
        <ele>2358.6</ele>
        <time>2020-08-11T09:01:54Z</time>
      </trkpt>
      <trkpt lat="45.15605" lon="5.96964">
        <ele>2358.2</ele>
        <time>2020-08-11T09:01:55Z</time>
      </trkpt>
      <trkpt lat="45.15606" lon="5.96966">
        <ele>2358.2</ele>
        <time>2020-08-11T09:01:56Z</time>
      </trkpt>
      <trkpt lat="45.15607" lon="5.96967">
        <ele>2357.2</ele>
        <time>2020-08-11T09:01:57Z</time>
      </trkpt>
      <trkpt lat="45.15608" lon="5.96969">
        <ele>2357</ele>
        <time>2020-08-11T09:01:58Z</time>
      </trkpt>
      <trkpt lat="45.15608" lon="5.96969">
        <ele>2356.6</ele>
        <time>2020-08-11T09:01:59Z</time>
      </trkpt>
      <trkpt lat="45.15609" lon="5.96973">
        <ele>2356.4</ele>
        <time>2020-08-11T09:02:00Z</time>
      </trkpt>
      <trkpt lat="45.15609" lon="5.96973">
        <ele>2355.8</ele>
        <time>2020-08-11T09:02:01Z</time>
      </trkpt>
      <trkpt lat="45.15609" lon="5.96973">
        <ele>2355.6</ele>
        <time>2020-08-11T09:02:02Z</time>
      </trkpt>
      <trkpt lat="45.15609" lon="5.96974">
        <ele>2355.4</ele>
        <time>2020-08-11T09:02:03Z</time>
      </trkpt>
      <trkpt lat="45.1561" lon="5.96975">
        <ele>2355</ele>
        <time>2020-08-11T09:02:04Z</time>
      </trkpt>
      <trkpt lat="45.15611" lon="5.96976">
        <ele>2354.8</ele>
        <time>2020-08-11T09:02:05Z</time>
      </trkpt>
      <trkpt lat="45.15611" lon="5.96977">
        <ele>2354.6</ele>
        <time>2020-08-11T09:02:06Z</time>
      </trkpt>
      <trkpt lat="45.15612" lon="5.96977">
        <ele>2354.4</ele>
        <time>2020-08-11T09:02:07Z</time>
      </trkpt>
      <trkpt lat="45.15612" lon="5.96977">
        <ele>2354.2</ele>
        <time>2020-08-11T09:02:08Z</time>
      </trkpt>
      <trkpt lat="45.15614" lon="5.9698">
        <ele>2354</ele>
        <time>2020-08-11T09:02:09Z</time>
      </trkpt>
      <trkpt lat="45.15614" lon="5.9698">
        <ele>2353.8</ele>
        <time>2020-08-11T09:02:10Z</time>
      </trkpt>
      <trkpt lat="45.15614" lon="5.9698">
        <ele>2353.4</ele>
        <time>2020-08-11T09:02:11Z</time>
      </trkpt>
      <trkpt lat="45.15614" lon="5.9698">
        <ele>2353</ele>
        <time>2020-08-11T09:02:12Z</time>
      </trkpt>
      <trkpt lat="45.15617" lon="5.96983">
        <ele>2352.8</ele>
        <time>2020-08-11T09:02:13Z</time>
      </trkpt>
      <trkpt lat="45.15618" lon="5.96986">
        <ele>2352.4</ele>
        <time>2020-08-11T09:02:14Z</time>
      </trkpt>
      <trkpt lat="45.15618" lon="5.96986">
        <ele>2352.2</ele>
        <time>2020-08-11T09:02:15Z</time>
      </trkpt>
      <trkpt lat="45.15618" lon="5.96986">
        <ele>2352.2</ele>
        <time>2020-08-11T09:02:16Z</time>
      </trkpt>
      <trkpt lat="45.1562" lon="5.96989">
        <ele>2352</ele>
        <time>2020-08-11T09:02:17Z</time>
      </trkpt>
      <trkpt lat="45.1562" lon="5.96991">
        <ele>2351.4</ele>
        <time>2020-08-11T09:02:18Z</time>
      </trkpt>
      <trkpt lat="45.15621" lon="5.96994">
        <ele>2351</ele>
        <time>2020-08-11T09:02:19Z</time>
      </trkpt>
      <trkpt lat="45.15621" lon="5.96994">
        <ele>2350.8</ele>
        <time>2020-08-11T09:02:20Z</time>
      </trkpt>
      <trkpt lat="45.15621" lon="5.96997">
        <ele>2350.4</ele>
        <time>2020-08-11T09:02:21Z</time>
      </trkpt>
      <trkpt lat="45.15621" lon="5.96997">
        <ele>2350</ele>
        <time>2020-08-11T09:02:22Z</time>
      </trkpt>
      <trkpt lat="45.15623" lon="5.97001">
        <ele>2350</ele>
        <time>2020-08-11T09:02:23Z</time>
      </trkpt>
      <trkpt lat="45.15623" lon="5.97001">
        <ele>2349.8</ele>
        <time>2020-08-11T09:02:24Z</time>
      </trkpt>
      <trkpt lat="45.15623" lon="5.97001">
        <ele>2349.2</ele>
        <time>2020-08-11T09:02:25Z</time>
      </trkpt>
      <trkpt lat="45.15623" lon="5.97001">
        <ele>2349.2</ele>
        <time>2020-08-11T09:02:26Z</time>
      </trkpt>
      <trkpt lat="45.15623" lon="5.97001">
        <ele>2349</ele>
        <time>2020-08-11T09:02:27Z</time>
      </trkpt>
      <trkpt lat="45.15626" lon="5.97004">
        <ele>2348.6</ele>
        <time>2020-08-11T09:02:28Z</time>
      </trkpt>
      <trkpt lat="45.15626" lon="5.97004">
        <ele>2348.2</ele>
        <time>2020-08-11T09:02:29Z</time>
      </trkpt>
      <trkpt lat="45.15626" lon="5.97005">
        <ele>2347.2</ele>
        <time>2020-08-11T09:02:30Z</time>
      </trkpt>
      <trkpt lat="45.15626" lon="5.97006">
        <ele>2347</ele>
        <time>2020-08-11T09:02:31Z</time>
      </trkpt>
      <trkpt lat="45.15626" lon="5.97007">
        <ele>2346.6</ele>
        <time>2020-08-11T09:02:32Z</time>
      </trkpt>
      <trkpt lat="45.15626" lon="5.97007">
        <ele>2346.4</ele>
        <time>2020-08-11T09:02:33Z</time>
      </trkpt>
      <trkpt lat="45.15626" lon="5.97008">
        <ele>2346.4</ele>
        <time>2020-08-11T09:02:34Z</time>
      </trkpt>
      <trkpt lat="45.15626" lon="5.97009">
        <ele>2346.2</ele>
        <time>2020-08-11T09:02:35Z</time>
      </trkpt>
      <trkpt lat="45.15626" lon="5.9701">
        <ele>2345.8</ele>
        <time>2020-08-11T09:02:36Z</time>
      </trkpt>
      <trkpt lat="45.15626" lon="5.97011">
        <ele>2345.6</ele>
        <time>2020-08-11T09:02:37Z</time>
      </trkpt>
      <trkpt lat="45.15626" lon="5.97012">
        <ele>2345.6</ele>
        <time>2020-08-11T09:02:38Z</time>
      </trkpt>
      <trkpt lat="45.15626" lon="5.97013">
        <ele>2345.4</ele>
        <time>2020-08-11T09:02:39Z</time>
      </trkpt>
      <trkpt lat="45.15626" lon="5.97013">
        <ele>2345</ele>
        <time>2020-08-11T09:02:40Z</time>
      </trkpt>
      <trkpt lat="45.15626" lon="5.97013">
        <ele>2344.8</ele>
        <time>2020-08-11T09:02:41Z</time>
      </trkpt>
      <trkpt lat="45.15626" lon="5.97013">
        <ele>2344.8</ele>
        <time>2020-08-11T09:02:42Z</time>
      </trkpt>
      <trkpt lat="45.15626" lon="5.97013">
        <ele>2344.6</ele>
        <time>2020-08-11T09:02:43Z</time>
      </trkpt>
      <trkpt lat="45.15626" lon="5.97013">
        <ele>2344.6</ele>
        <time>2020-08-11T09:02:44Z</time>
      </trkpt>
      <trkpt lat="45.15626" lon="5.97013">
        <ele>2344.6</ele>
        <time>2020-08-11T09:02:45Z</time>
      </trkpt>
      <trkpt lat="45.15628" lon="5.97015">
        <ele>2344.6</ele>
        <time>2020-08-11T09:02:46Z</time>
      </trkpt>
      <trkpt lat="45.15628" lon="5.97015">
        <ele>2344.4</ele>
        <time>2020-08-11T09:02:47Z</time>
      </trkpt>
      <trkpt lat="45.15628" lon="5.97015">
        <ele>2344.4</ele>
        <time>2020-08-11T09:02:48Z</time>
      </trkpt>
      <trkpt lat="45.1563" lon="5.97016">
        <ele>2344.2</ele>
        <time>2020-08-11T09:02:49Z</time>
      </trkpt>
      <trkpt lat="45.1563" lon="5.97016">
        <ele>2344</ele>
        <time>2020-08-11T09:02:50Z</time>
      </trkpt>
      <trkpt lat="45.1563" lon="5.97016">
        <ele>2343.8</ele>
        <time>2020-08-11T09:02:51Z</time>
      </trkpt>
      <trkpt lat="45.1563" lon="5.97016">
        <ele>2343.6</ele>
        <time>2020-08-11T09:02:52Z</time>
      </trkpt>
      <trkpt lat="45.15631" lon="5.97018">
        <ele>2343.4</ele>
        <time>2020-08-11T09:02:53Z</time>
      </trkpt>
      <trkpt lat="45.15631" lon="5.97018">
        <ele>2343.2</ele>
        <time>2020-08-11T09:02:54Z</time>
      </trkpt>
      <trkpt lat="45.15631" lon="5.97018">
        <ele>2343</ele>
        <time>2020-08-11T09:02:55Z</time>
      </trkpt>
      <trkpt lat="45.15632" lon="5.9702">
        <ele>2343.2</ele>
        <time>2020-08-11T09:02:56Z</time>
      </trkpt>
      <trkpt lat="45.15633" lon="5.97022">
        <ele>2342.8</ele>
        <time>2020-08-11T09:02:57Z</time>
      </trkpt>
      <trkpt lat="45.15634" lon="5.97024">
        <ele>2342.4</ele>
        <time>2020-08-11T09:02:58Z</time>
      </trkpt>
      <trkpt lat="45.15636" lon="5.97027">
        <ele>2342.4</ele>
        <time>2020-08-11T09:02:59Z</time>
      </trkpt>
      <trkpt lat="45.15637" lon="5.97029">
        <ele>2342.2</ele>
        <time>2020-08-11T09:03:00Z</time>
      </trkpt>
      <trkpt lat="45.15638" lon="5.9703">
        <ele>2341.6</ele>
        <time>2020-08-11T09:03:01Z</time>
      </trkpt>
      <trkpt lat="45.15639" lon="5.97032">
        <ele>2341.2</ele>
        <time>2020-08-11T09:03:02Z</time>
      </trkpt>
      <trkpt lat="45.1564" lon="5.97034">
        <ele>2340.6</ele>
        <time>2020-08-11T09:03:03Z</time>
      </trkpt>
      <trkpt lat="45.15641" lon="5.97036">
        <ele>2340.6</ele>
        <time>2020-08-11T09:03:04Z</time>
      </trkpt>
      <trkpt lat="45.15643" lon="5.97039">
        <ele>2339.6</ele>
        <time>2020-08-11T09:03:05Z</time>
      </trkpt>
      <trkpt lat="45.15644" lon="5.97041">
        <ele>2339.6</ele>
        <time>2020-08-11T09:03:06Z</time>
      </trkpt>
      <trkpt lat="45.15644" lon="5.97043">
        <ele>2338.8</ele>
        <time>2020-08-11T09:03:07Z</time>
      </trkpt>
      <trkpt lat="45.15644" lon="5.97045">
        <ele>2338.8</ele>
        <time>2020-08-11T09:03:08Z</time>
      </trkpt>
      <trkpt lat="45.15645" lon="5.97047">
        <ele>2338.2</ele>
        <time>2020-08-11T09:03:09Z</time>
      </trkpt>
      <trkpt lat="45.15646" lon="5.97052">
        <ele>2337.6</ele>
        <time>2020-08-11T09:03:10Z</time>
      </trkpt>
      <trkpt lat="45.15647" lon="5.97057">
        <ele>2337.4</ele>
        <time>2020-08-11T09:03:11Z</time>
      </trkpt>
      <trkpt lat="45.15647" lon="5.97059">
        <ele>2336.6</ele>
        <time>2020-08-11T09:03:12Z</time>
      </trkpt>
      <trkpt lat="45.15648" lon="5.97061">
        <ele>2336</ele>
        <time>2020-08-11T09:03:13Z</time>
      </trkpt>
      <trkpt lat="45.15649" lon="5.97063">
        <ele>2335.4</ele>
        <time>2020-08-11T09:03:14Z</time>
      </trkpt>
      <trkpt lat="45.15649" lon="5.97063">
        <ele>2334.8</ele>
        <time>2020-08-11T09:03:15Z</time>
      </trkpt>
      <trkpt lat="45.15649" lon="5.97063">
        <ele>2334.6</ele>
        <time>2020-08-11T09:03:16Z</time>
      </trkpt>
      <trkpt lat="45.1565" lon="5.97068">
        <ele>2334</ele>
        <time>2020-08-11T09:03:17Z</time>
      </trkpt>
      <trkpt lat="45.1565" lon="5.97068">
        <ele>2334</ele>
        <time>2020-08-11T09:03:18Z</time>
      </trkpt>
      <trkpt lat="45.15651" lon="5.9707">
        <ele>2333.8</ele>
        <time>2020-08-11T09:03:19Z</time>
      </trkpt>
      <trkpt lat="45.15651" lon="5.97073">
        <ele>2333.8</ele>
        <time>2020-08-11T09:03:20Z</time>
      </trkpt>
      <trkpt lat="45.15652" lon="5.97075">
        <ele>2333.6</ele>
        <time>2020-08-11T09:03:21Z</time>
      </trkpt>
      <trkpt lat="45.15653" lon="5.97077">
        <ele>2333.6</ele>
        <time>2020-08-11T09:03:22Z</time>
      </trkpt>
      <trkpt lat="45.15653" lon="5.9708">
        <ele>2333.8</ele>
        <time>2020-08-11T09:03:23Z</time>
      </trkpt>
      <trkpt lat="45.15654" lon="5.97082">
        <ele>2333.6</ele>
        <time>2020-08-11T09:03:24Z</time>
      </trkpt>
      <trkpt lat="45.15654" lon="5.97085">
        <ele>2333.6</ele>
        <time>2020-08-11T09:03:25Z</time>
      </trkpt>
      <trkpt lat="45.15654" lon="5.97085">
        <ele>2333.6</ele>
        <time>2020-08-11T09:03:26Z</time>
      </trkpt>
      <trkpt lat="45.15655" lon="5.97088">
        <ele>2333.8</ele>
        <time>2020-08-11T09:03:27Z</time>
      </trkpt>
      <trkpt lat="45.15655" lon="5.97088">
        <ele>2333.6</ele>
        <time>2020-08-11T09:03:28Z</time>
      </trkpt>
      <trkpt lat="45.15655" lon="5.97088">
        <ele>2333.2</ele>
        <time>2020-08-11T09:03:29Z</time>
      </trkpt>
      <trkpt lat="45.15655" lon="5.97091">
        <ele>2333.4</ele>
        <time>2020-08-11T09:03:30Z</time>
      </trkpt>
      <trkpt lat="45.15655" lon="5.97091">
        <ele>2333</ele>
        <time>2020-08-11T09:03:31Z</time>
      </trkpt>
      <trkpt lat="45.15655" lon="5.97091">
        <ele>2332.8</ele>
        <time>2020-08-11T09:03:32Z</time>
      </trkpt>
      <trkpt lat="45.15655" lon="5.97091">
        <ele>2332.8</ele>
        <time>2020-08-11T09:03:33Z</time>
      </trkpt>
      <trkpt lat="45.15656" lon="5.97094">
        <ele>2332.8</ele>
        <time>2020-08-11T09:03:34Z</time>
      </trkpt>
      <trkpt lat="45.15657" lon="5.97099">
        <ele>2332.6</ele>
        <time>2020-08-11T09:03:35Z</time>
      </trkpt>
      <trkpt lat="45.15658" lon="5.97101">
        <ele>2332.4</ele>
        <time>2020-08-11T09:03:36Z</time>
      </trkpt>
      <trkpt lat="45.15659" lon="5.97103">
        <ele>2332.2</ele>
        <time>2020-08-11T09:03:37Z</time>
      </trkpt>
      <trkpt lat="45.15659" lon="5.97105">
        <ele>2331.8</ele>
        <time>2020-08-11T09:03:38Z</time>
      </trkpt>
      <trkpt lat="45.15659" lon="5.97105">
        <ele>2331.6</ele>
        <time>2020-08-11T09:03:39Z</time>
      </trkpt>
      <trkpt lat="45.15659" lon="5.97105">
        <ele>2331.6</ele>
        <time>2020-08-11T09:03:40Z</time>
      </trkpt>
      <trkpt lat="45.1566" lon="5.97109">
        <ele>2331.2</ele>
        <time>2020-08-11T09:03:41Z</time>
      </trkpt>
      <trkpt lat="45.1566" lon="5.97109">
        <ele>2331</ele>
        <time>2020-08-11T09:03:42Z</time>
      </trkpt>
      <trkpt lat="45.1566" lon="5.97109">
        <ele>2331.2</ele>
        <time>2020-08-11T09:03:43Z</time>
      </trkpt>
      <trkpt lat="45.1566" lon="5.97109">
        <ele>2330.6</ele>
        <time>2020-08-11T09:03:44Z</time>
      </trkpt>
      <trkpt lat="45.1566" lon="5.97114">
        <ele>2330.4</ele>
        <time>2020-08-11T09:03:45Z</time>
      </trkpt>
      <trkpt lat="45.1566" lon="5.97119">
        <ele>2330.4</ele>
        <time>2020-08-11T09:03:46Z</time>
      </trkpt>
      <trkpt lat="45.1566" lon="5.97119">
        <ele>2330</ele>
        <time>2020-08-11T09:03:47Z</time>
      </trkpt>
      <trkpt lat="45.15659" lon="5.97124">
        <ele>2329.6</ele>
        <time>2020-08-11T09:03:48Z</time>
      </trkpt>
      <trkpt lat="45.15659" lon="5.97124">
        <ele>2329.4</ele>
        <time>2020-08-11T09:03:49Z</time>
      </trkpt>
      <trkpt lat="45.15659" lon="5.97124">
        <ele>2329.4</ele>
        <time>2020-08-11T09:03:50Z</time>
      </trkpt>
      <trkpt lat="45.15659" lon="5.97124">
        <ele>2329.2</ele>
        <time>2020-08-11T09:03:51Z</time>
      </trkpt>
      <trkpt lat="45.15658" lon="5.97128">
        <ele>2329.2</ele>
        <time>2020-08-11T09:03:52Z</time>
      </trkpt>
      <trkpt lat="45.15658" lon="5.97128">
        <ele>2329.2</ele>
        <time>2020-08-11T09:03:53Z</time>
      </trkpt>
      <trkpt lat="45.15658" lon="5.97128">
        <ele>2329.6</ele>
        <time>2020-08-11T09:03:54Z</time>
      </trkpt>
      <trkpt lat="45.15656" lon="5.97126">
        <ele>2329.6</ele>
        <time>2020-08-11T09:03:55Z</time>
      </trkpt>
      <trkpt lat="45.15657" lon="5.97124">
        <ele>2329.8</ele>
        <time>2020-08-11T09:03:56Z</time>
      </trkpt>
      <trkpt lat="45.15657" lon="5.97122">
        <ele>2329.8</ele>
        <time>2020-08-11T09:03:57Z</time>
      </trkpt>
      <trkpt lat="45.15657" lon="5.9712">
        <ele>2329.4</ele>
        <time>2020-08-11T09:03:58Z</time>
      </trkpt>
      <trkpt lat="45.15657" lon="5.9712">
        <ele>2329.4</ele>
        <time>2020-08-11T09:03:59Z</time>
      </trkpt>
      <trkpt lat="45.15657" lon="5.9712">
        <ele>2329</ele>
        <time>2020-08-11T09:04:00Z</time>
      </trkpt>
      <trkpt lat="45.15657" lon="5.97117">
        <ele>2328.8</ele>
        <time>2020-08-11T09:04:01Z</time>
      </trkpt>
      <trkpt lat="45.15657" lon="5.97117">
        <ele>2328.6</ele>
        <time>2020-08-11T09:04:02Z</time>
      </trkpt>
      <trkpt lat="45.15657" lon="5.97117">
        <ele>2328.8</ele>
        <time>2020-08-11T09:04:03Z</time>
      </trkpt>
      <trkpt lat="45.15657" lon="5.97117">
        <ele>2328.6</ele>
        <time>2020-08-11T09:04:04Z</time>
      </trkpt>
      <trkpt lat="45.15657" lon="5.97117">
        <ele>2328.6</ele>
        <time>2020-08-11T09:04:05Z</time>
      </trkpt>
      <trkpt lat="45.15657" lon="5.97117">
        <ele>2328.8</ele>
        <time>2020-08-11T09:04:06Z</time>
      </trkpt>
      <trkpt lat="45.15658" lon="5.97113">
        <ele>2328.8</ele>
        <time>2020-08-11T09:04:07Z</time>
      </trkpt>
      <trkpt lat="45.15658" lon="5.97113">
        <ele>2328.8</ele>
        <time>2020-08-11T09:04:08Z</time>
      </trkpt>
      <trkpt lat="45.15658" lon="5.97113">
        <ele>2328.6</ele>
        <time>2020-08-11T09:04:09Z</time>
      </trkpt>
      <trkpt lat="45.15658" lon="5.97113">
        <ele>2328.8</ele>
        <time>2020-08-11T09:04:10Z</time>
      </trkpt>
      <trkpt lat="45.15657" lon="5.97111">
        <ele>2328.8</ele>
        <time>2020-08-11T09:04:11Z</time>
      </trkpt>
      <trkpt lat="45.15657" lon="5.97111">
        <ele>2329</ele>
        <time>2020-08-11T09:04:12Z</time>
      </trkpt>
      <trkpt lat="45.15657" lon="5.97111">
        <ele>2329</ele>
        <time>2020-08-11T09:04:13Z</time>
      </trkpt>
      <trkpt lat="45.15657" lon="5.97111">
        <ele>2329.2</ele>
        <time>2020-08-11T09:04:14Z</time>
      </trkpt>
      <trkpt lat="45.15657" lon="5.97111">
        <ele>2329.4</ele>
        <time>2020-08-11T09:04:15Z</time>
      </trkpt>
      <trkpt lat="45.15657" lon="5.97111">
        <ele>2329.6</ele>
        <time>2020-08-11T09:04:16Z</time>
      </trkpt>
      <trkpt lat="45.15657" lon="5.97111">
        <ele>2329.6</ele>
        <time>2020-08-11T09:04:17Z</time>
      </trkpt>
      <trkpt lat="45.15657" lon="5.97111">
        <ele>2329.8</ele>
        <time>2020-08-11T09:04:18Z</time>
      </trkpt>
      <trkpt lat="45.15657" lon="5.97111">
        <ele>2329.8</ele>
        <time>2020-08-11T09:04:19Z</time>
      </trkpt>
      <trkpt lat="45.15657" lon="5.97111">
        <ele>2329.8</ele>
        <time>2020-08-11T09:04:20Z</time>
      </trkpt>
      <trkpt lat="45.15657" lon="5.97111">
        <ele>2329.8</ele>
        <time>2020-08-11T09:04:21Z</time>
      </trkpt>
      <trkpt lat="45.15657" lon="5.97111">
        <ele>2329.8</ele>
        <time>2020-08-11T09:04:22Z</time>
      </trkpt>
      <trkpt lat="45.15657" lon="5.97108">
        <ele>2329.8</ele>
        <time>2020-08-11T09:04:23Z</time>
      </trkpt>
      <trkpt lat="45.15657" lon="5.97108">
        <ele>2329.8</ele>
        <time>2020-08-11T09:04:24Z</time>
      </trkpt>
      <trkpt lat="45.15657" lon="5.97105">
        <ele>2329.8</ele>
        <time>2020-08-11T09:04:25Z</time>
      </trkpt>
      <trkpt lat="45.15657" lon="5.97105">
        <ele>2329.8</ele>
        <time>2020-08-11T09:04:26Z</time>
      </trkpt>
      <trkpt lat="45.15657" lon="5.97105">
        <ele>2329.4</ele>
        <time>2020-08-11T09:04:27Z</time>
      </trkpt>
      <trkpt lat="45.15657" lon="5.97105">
        <ele>2329</ele>
        <time>2020-08-11T09:04:28Z</time>
      </trkpt>
      <trkpt lat="45.15657" lon="5.97105">
        <ele>2328.8</ele>
        <time>2020-08-11T09:04:29Z</time>
      </trkpt>
      <trkpt lat="45.15657" lon="5.97105">
        <ele>2328.8</ele>
        <time>2020-08-11T09:04:30Z</time>
      </trkpt>
      <trkpt lat="45.15657" lon="5.97105">
        <ele>2328.8</ele>
        <time>2020-08-11T09:04:31Z</time>
      </trkpt>
      <trkpt lat="45.15657" lon="5.97105">
        <ele>2328.8</ele>
        <time>2020-08-11T09:04:32Z</time>
      </trkpt>
      <trkpt lat="45.15657" lon="5.97101">
        <ele>2328.8</ele>
        <time>2020-08-11T09:04:33Z</time>
      </trkpt>
      <trkpt lat="45.15657" lon="5.97099">
        <ele>2329.2</ele>
        <time>2020-08-11T09:04:34Z</time>
      </trkpt>
      <trkpt lat="45.15658" lon="5.97097">
        <ele>2329.2</ele>
        <time>2020-08-11T09:04:35Z</time>
      </trkpt>
      <trkpt lat="45.15658" lon="5.97094">
        <ele>2329.2</ele>
        <time>2020-08-11T09:04:36Z</time>
      </trkpt>
      <trkpt lat="45.15658" lon="5.97092">
        <ele>2329.2</ele>
        <time>2020-08-11T09:04:37Z</time>
      </trkpt>
      <trkpt lat="45.15659" lon="5.97089">
        <ele>2329.4</ele>
        <time>2020-08-11T09:04:38Z</time>
      </trkpt>
      <trkpt lat="45.15659" lon="5.97087">
        <ele>2329.2</ele>
        <time>2020-08-11T09:04:39Z</time>
      </trkpt>
      <trkpt lat="45.1566" lon="5.97084">
        <ele>2329.4</ele>
        <time>2020-08-11T09:04:40Z</time>
      </trkpt>
      <trkpt lat="45.1566" lon="5.97082">
        <ele>2329.4</ele>
        <time>2020-08-11T09:04:41Z</time>
      </trkpt>
      <trkpt lat="45.1566" lon="5.9708">
        <ele>2329.2</ele>
        <time>2020-08-11T09:04:42Z</time>
      </trkpt>
      <trkpt lat="45.15661" lon="5.97077">
        <ele>2329</ele>
        <time>2020-08-11T09:04:43Z</time>
      </trkpt>
      <trkpt lat="45.15661" lon="5.97075">
        <ele>2328.8</ele>
        <time>2020-08-11T09:04:44Z</time>
      </trkpt>
      <trkpt lat="45.15662" lon="5.97072">
        <ele>2328.8</ele>
        <time>2020-08-11T09:04:45Z</time>
      </trkpt>
      <trkpt lat="45.15662" lon="5.9707">
        <ele>2328.6</ele>
        <time>2020-08-11T09:04:46Z</time>
      </trkpt>
      <trkpt lat="45.15662" lon="5.97067">
        <ele>2328.6</ele>
        <time>2020-08-11T09:04:47Z</time>
      </trkpt>
      <trkpt lat="45.15663" lon="5.97065">
        <ele>2328.6</ele>
        <time>2020-08-11T09:04:48Z</time>
      </trkpt>
      <trkpt lat="45.15663" lon="5.97063">
        <ele>2328.4</ele>
        <time>2020-08-11T09:04:49Z</time>
      </trkpt>
      <trkpt lat="45.15663" lon="5.9706">
        <ele>2328.4</ele>
        <time>2020-08-11T09:04:50Z</time>
      </trkpt>
      <trkpt lat="45.15664" lon="5.97058">
        <ele>2328.6</ele>
        <time>2020-08-11T09:04:51Z</time>
      </trkpt>
      <trkpt lat="45.15664" lon="5.97055">
        <ele>2328.6</ele>
        <time>2020-08-11T09:04:52Z</time>
      </trkpt>
      <trkpt lat="45.15665" lon="5.97053">
        <ele>2328.4</ele>
        <time>2020-08-11T09:04:53Z</time>
      </trkpt>
      <trkpt lat="45.15665" lon="5.9705">
        <ele>2328.4</ele>
        <time>2020-08-11T09:04:54Z</time>
      </trkpt>
      <trkpt lat="45.15665" lon="5.97048">
        <ele>2328.2</ele>
        <time>2020-08-11T09:04:55Z</time>
      </trkpt>
      <trkpt lat="45.15666" lon="5.97046">
        <ele>2328.4</ele>
        <time>2020-08-11T09:04:56Z</time>
      </trkpt>
      <trkpt lat="45.15666" lon="5.97043">
        <ele>2328.4</ele>
        <time>2020-08-11T09:04:57Z</time>
      </trkpt>
      <trkpt lat="45.15667" lon="5.97041">
        <ele>2328.4</ele>
        <time>2020-08-11T09:04:58Z</time>
      </trkpt>
      <trkpt lat="45.15667" lon="5.97038">
        <ele>2328.4</ele>
        <time>2020-08-11T09:04:59Z</time>
      </trkpt>
      <trkpt lat="45.15667" lon="5.97036">
        <ele>2328.4</ele>
        <time>2020-08-11T09:05:00Z</time>
      </trkpt>
      <trkpt lat="45.15668" lon="5.97033">
        <ele>2328.2</ele>
        <time>2020-08-11T09:05:01Z</time>
      </trkpt>
      <trkpt lat="45.15668" lon="5.97031">
        <ele>2328.2</ele>
        <time>2020-08-11T09:05:02Z</time>
      </trkpt>
      <trkpt lat="45.15669" lon="5.97029">
        <ele>2328</ele>
        <time>2020-08-11T09:05:03Z</time>
      </trkpt>
      <trkpt lat="45.15669" lon="5.97026">
        <ele>2328</ele>
        <time>2020-08-11T09:05:04Z</time>
      </trkpt>
      <trkpt lat="45.15669" lon="5.97024">
        <ele>2327.8</ele>
        <time>2020-08-11T09:05:05Z</time>
      </trkpt>
      <trkpt lat="45.1567" lon="5.97021">
        <ele>2327.8</ele>
        <time>2020-08-11T09:05:06Z</time>
      </trkpt>
      <trkpt lat="45.1567" lon="5.97021">
        <ele>2328</ele>
        <time>2020-08-11T09:05:07Z</time>
      </trkpt>
      <trkpt lat="45.1567" lon="5.97021">
        <ele>2328</ele>
        <time>2020-08-11T09:05:08Z</time>
      </trkpt>
      <trkpt lat="45.1567" lon="5.97022">
        <ele>2328</ele>
        <time>2020-08-11T09:05:09Z</time>
      </trkpt>
      <trkpt lat="45.1567" lon="5.97022">
        <ele>2328.2</ele>
        <time>2020-08-11T09:05:10Z</time>
      </trkpt>
      <trkpt lat="45.15669" lon="5.97022">
        <ele>2328.2</ele>
        <time>2020-08-11T09:05:11Z</time>
      </trkpt>
      <trkpt lat="45.15669" lon="5.97022">
        <ele>2328.2</ele>
        <time>2020-08-11T09:05:12Z</time>
      </trkpt>
      <trkpt lat="45.15669" lon="5.97022">
        <ele>2328.2</ele>
        <time>2020-08-11T09:05:13Z</time>
      </trkpt>
      <trkpt lat="45.15669" lon="5.97023">
        <ele>2328.2</ele>
        <time>2020-08-11T09:05:14Z</time>
      </trkpt>
      <trkpt lat="45.15669" lon="5.97023">
        <ele>2328</ele>
        <time>2020-08-11T09:05:15Z</time>
      </trkpt>
      <trkpt lat="45.15669" lon="5.97023">
        <ele>2327.8</ele>
        <time>2020-08-11T09:05:16Z</time>
      </trkpt>
      <trkpt lat="45.15669" lon="5.97023">
        <ele>2327.8</ele>
        <time>2020-08-11T09:05:17Z</time>
      </trkpt>
      <trkpt lat="45.15669" lon="5.97023">
        <ele>2327.8</ele>
        <time>2020-08-11T09:05:18Z</time>
      </trkpt>
      <trkpt lat="45.15669" lon="5.97023">
        <ele>2328</ele>
        <time>2020-08-11T09:05:19Z</time>
      </trkpt>
      <trkpt lat="45.15669" lon="5.97024">
        <ele>2327.8</ele>
        <time>2020-08-11T09:05:20Z</time>
      </trkpt>
      <trkpt lat="45.15669" lon="5.97024">
        <ele>2327.8</ele>
        <time>2020-08-11T09:05:21Z</time>
      </trkpt>
      <trkpt lat="45.15668" lon="5.97024">
        <ele>2327.8</ele>
        <time>2020-08-11T09:05:22Z</time>
      </trkpt>
      <trkpt lat="45.15668" lon="5.97024">
        <ele>2327.8</ele>
        <time>2020-08-11T09:05:23Z</time>
      </trkpt>
      <trkpt lat="45.15668" lon="5.97024">
        <ele>2327.8</ele>
        <time>2020-08-11T09:05:24Z</time>
      </trkpt>
      <trkpt lat="45.15668" lon="5.97024">
        <ele>2327.8</ele>
        <time>2020-08-11T09:05:25Z</time>
      </trkpt>
      <trkpt lat="45.15668" lon="5.97025">
        <ele>2327.8</ele>
        <time>2020-08-11T09:05:26Z</time>
      </trkpt>
      <trkpt lat="45.15668" lon="5.97025">
        <ele>2327.8</ele>
        <time>2020-08-11T09:05:27Z</time>
      </trkpt>
      <trkpt lat="45.15668" lon="5.97025">
        <ele>2327.8</ele>
        <time>2020-08-11T09:05:28Z</time>
      </trkpt>
      <trkpt lat="45.15668" lon="5.97025">
        <ele>2327.8</ele>
        <time>2020-08-11T09:05:29Z</time>
      </trkpt>
      <trkpt lat="45.15668" lon="5.97025">
        <ele>2327.8</ele>
        <time>2020-08-11T09:05:30Z</time>
      </trkpt>
      <trkpt lat="45.15668" lon="5.97026">
        <ele>2327.8</ele>
        <time>2020-08-11T09:05:31Z</time>
      </trkpt>
      <trkpt lat="45.15667" lon="5.97026">
        <ele>2327.8</ele>
        <time>2020-08-11T09:05:32Z</time>
      </trkpt>
      <trkpt lat="45.15667" lon="5.97026">
        <ele>2327.8</ele>
        <time>2020-08-11T09:05:33Z</time>
      </trkpt>
      <trkpt lat="45.15667" lon="5.97026">
        <ele>2327.8</ele>
        <time>2020-08-11T09:05:34Z</time>
      </trkpt>
      <trkpt lat="45.15667" lon="5.97026">
        <ele>2327.8</ele>
        <time>2020-08-11T09:05:35Z</time>
      </trkpt>
      <trkpt lat="45.15667" lon="5.97026">
        <ele>2327.6</ele>
        <time>2020-08-11T09:05:36Z</time>
      </trkpt>
      <trkpt lat="45.15667" lon="5.97027">
        <ele>2327.8</ele>
        <time>2020-08-11T09:05:37Z</time>
      </trkpt>
      <trkpt lat="45.15667" lon="5.97027">
        <ele>2327.8</ele>
        <time>2020-08-11T09:05:38Z</time>
      </trkpt>
      <trkpt lat="45.15667" lon="5.97027">
        <ele>2327.8</ele>
        <time>2020-08-11T09:05:39Z</time>
      </trkpt>
      <trkpt lat="45.15667" lon="5.97027">
        <ele>2328</ele>
        <time>2020-08-11T09:05:40Z</time>
      </trkpt>
      <trkpt lat="45.15667" lon="5.97027">
        <ele>2327.8</ele>
        <time>2020-08-11T09:05:41Z</time>
      </trkpt>
      <trkpt lat="45.15667" lon="5.97028">
        <ele>2327.6</ele>
        <time>2020-08-11T09:05:42Z</time>
      </trkpt>
      <trkpt lat="45.15666" lon="5.97028">
        <ele>2327.8</ele>
        <time>2020-08-11T09:05:43Z</time>
      </trkpt>
      <trkpt lat="45.15666" lon="5.97028">
        <ele>2327.8</ele>
        <time>2020-08-11T09:05:44Z</time>
      </trkpt>
      <trkpt lat="45.15666" lon="5.97028">
        <ele>2327.8</ele>
        <time>2020-08-11T09:05:45Z</time>
      </trkpt>
      <trkpt lat="45.15666" lon="5.97028">
        <ele>2327.8</ele>
        <time>2020-08-11T09:05:46Z</time>
      </trkpt>
      <trkpt lat="45.15666" lon="5.97028">
        <ele>2327.8</ele>
        <time>2020-08-11T09:05:47Z</time>
      </trkpt>
      <trkpt lat="45.15666" lon="5.97029">
        <ele>2328.2</ele>
        <time>2020-08-11T09:05:48Z</time>
      </trkpt>
      <trkpt lat="45.15666" lon="5.97029">
        <ele>2328.2</ele>
        <time>2020-08-11T09:05:49Z</time>
      </trkpt>
      <trkpt lat="45.15666" lon="5.97029">
        <ele>2328.6</ele>
        <time>2020-08-11T09:05:50Z</time>
      </trkpt>
      <trkpt lat="45.15666" lon="5.97029">
        <ele>2329</ele>
        <time>2020-08-11T09:05:51Z</time>
      </trkpt>
      <trkpt lat="45.15666" lon="5.97029">
        <ele>2329.2</ele>
        <time>2020-08-11T09:05:52Z</time>
      </trkpt>
      <trkpt lat="45.15665" lon="5.97029">
        <ele>2329.4</ele>
        <time>2020-08-11T09:05:53Z</time>
      </trkpt>
      <trkpt lat="45.15665" lon="5.9703">
        <ele>2329.4</ele>
        <time>2020-08-11T09:05:54Z</time>
      </trkpt>
      <trkpt lat="45.15665" lon="5.9703">
        <ele>2329.6</ele>
        <time>2020-08-11T09:05:55Z</time>
      </trkpt>
      <trkpt lat="45.15665" lon="5.9703">
        <ele>2329.6</ele>
        <time>2020-08-11T09:05:56Z</time>
      </trkpt>
      <trkpt lat="45.15665" lon="5.9703">
        <ele>2329.6</ele>
        <time>2020-08-11T09:05:57Z</time>
      </trkpt>
      <trkpt lat="45.15665" lon="5.9703">
        <ele>2329.4</ele>
        <time>2020-08-11T09:05:58Z</time>
      </trkpt>
      <trkpt lat="45.15665" lon="5.97031">
        <ele>2329.6</ele>
        <time>2020-08-11T09:05:59Z</time>
      </trkpt>
      <trkpt lat="45.15665" lon="5.97031">
        <ele>2329.6</ele>
        <time>2020-08-11T09:06:00Z</time>
      </trkpt>
      <trkpt lat="45.15665" lon="5.97031">
        <ele>2329.6</ele>
        <time>2020-08-11T09:06:01Z</time>
      </trkpt>
      <trkpt lat="45.15665" lon="5.97031">
        <ele>2329.6</ele>
        <time>2020-08-11T09:06:02Z</time>
      </trkpt>
      <trkpt lat="45.15665" lon="5.97031">
        <ele>2329.8</ele>
        <time>2020-08-11T09:06:03Z</time>
      </trkpt>
      <trkpt lat="45.15664" lon="5.97031">
        <ele>2329.8</ele>
        <time>2020-08-11T09:06:04Z</time>
      </trkpt>
      <trkpt lat="45.15664" lon="5.97032">
        <ele>2329.8</ele>
        <time>2020-08-11T09:06:05Z</time>
      </trkpt>
      <trkpt lat="45.15664" lon="5.97032">
        <ele>2329.8</ele>
        <time>2020-08-11T09:06:06Z</time>
      </trkpt>
      <trkpt lat="45.15664" lon="5.97032">
        <ele>2329.8</ele>
        <time>2020-08-11T09:06:07Z</time>
      </trkpt>
      <trkpt lat="45.15664" lon="5.97032">
        <ele>2329.8</ele>
        <time>2020-08-11T09:06:08Z</time>
      </trkpt>
      <trkpt lat="45.15664" lon="5.97032">
        <ele>2329.4</ele>
        <time>2020-08-11T09:06:09Z</time>
      </trkpt>
      <trkpt lat="45.15663" lon="5.97035">
        <ele>2329</ele>
        <time>2020-08-11T09:06:10Z</time>
      </trkpt>
      <trkpt lat="45.15663" lon="5.97035">
        <ele>2328.8</ele>
        <time>2020-08-11T09:06:11Z</time>
      </trkpt>
      <trkpt lat="45.15663" lon="5.97035">
        <ele>2328.6</ele>
        <time>2020-08-11T09:06:12Z</time>
      </trkpt>
      <trkpt lat="45.15663" lon="5.97035">
        <ele>2328.6</ele>
        <time>2020-08-11T09:06:13Z</time>
      </trkpt>
      <trkpt lat="45.15661" lon="5.97035">
        <ele>2328.6</ele>
        <time>2020-08-11T09:06:14Z</time>
      </trkpt>
      <trkpt lat="45.15661" lon="5.97035">
        <ele>2328.8</ele>
        <time>2020-08-11T09:06:15Z</time>
      </trkpt>
      <trkpt lat="45.15661" lon="5.97035">
        <ele>2328.8</ele>
        <time>2020-08-11T09:06:16Z</time>
      </trkpt>
      <trkpt lat="45.15661" lon="5.97035">
        <ele>2329</ele>
        <time>2020-08-11T09:06:17Z</time>
      </trkpt>
      <trkpt lat="45.15661" lon="5.97035">
        <ele>2328.8</ele>
        <time>2020-08-11T09:06:18Z</time>
      </trkpt>
      <trkpt lat="45.15661" lon="5.97035">
        <ele>2329</ele>
        <time>2020-08-11T09:06:19Z</time>
      </trkpt>
      <trkpt lat="45.15661" lon="5.97035">
        <ele>2329</ele>
        <time>2020-08-11T09:06:20Z</time>
      </trkpt>
      <trkpt lat="45.15661" lon="5.97035">
        <ele>2329</ele>
        <time>2020-08-11T09:06:21Z</time>
      </trkpt>
      <trkpt lat="45.15661" lon="5.97035">
        <ele>2329</ele>
        <time>2020-08-11T09:06:22Z</time>
      </trkpt>
      <trkpt lat="45.15661" lon="5.97035">
        <ele>2328.8</ele>
        <time>2020-08-11T09:06:23Z</time>
      </trkpt>
      <trkpt lat="45.15661" lon="5.97035">
        <ele>2328.8</ele>
        <time>2020-08-11T09:06:24Z</time>
      </trkpt>
      <trkpt lat="45.15661" lon="5.97035">
        <ele>2328.8</ele>
        <time>2020-08-11T09:06:25Z</time>
      </trkpt>
      <trkpt lat="45.15661" lon="5.97038">
        <ele>2328.6</ele>
        <time>2020-08-11T09:06:26Z</time>
      </trkpt>
      <trkpt lat="45.15661" lon="5.97038">
        <ele>2328.6</ele>
        <time>2020-08-11T09:06:27Z</time>
      </trkpt>
      <trkpt lat="45.15661" lon="5.97038">
        <ele>2328.6</ele>
        <time>2020-08-11T09:06:28Z</time>
      </trkpt>
      <trkpt lat="45.15661" lon="5.97038">
        <ele>2328.4</ele>
        <time>2020-08-11T09:06:29Z</time>
      </trkpt>
      <trkpt lat="45.15661" lon="5.97038">
        <ele>2328.8</ele>
        <time>2020-08-11T09:06:30Z</time>
      </trkpt>
      <trkpt lat="45.15661" lon="5.97038">
        <ele>2329.2</ele>
        <time>2020-08-11T09:06:31Z</time>
      </trkpt>
      <trkpt lat="45.15661" lon="5.97038">
        <ele>2329.2</ele>
        <time>2020-08-11T09:06:32Z</time>
      </trkpt>
      <trkpt lat="45.15662" lon="5.9704">
        <ele>2329.4</ele>
        <time>2020-08-11T09:06:33Z</time>
      </trkpt>
      <trkpt lat="45.15662" lon="5.9704">
        <ele>2329.4</ele>
        <time>2020-08-11T09:06:34Z</time>
      </trkpt>
      <trkpt lat="45.15662" lon="5.9704">
        <ele>2329.6</ele>
        <time>2020-08-11T09:06:35Z</time>
      </trkpt>
      <trkpt lat="45.15662" lon="5.9704">
        <ele>2329.6</ele>
        <time>2020-08-11T09:06:36Z</time>
      </trkpt>
      <trkpt lat="45.15662" lon="5.9704">
        <ele>2329.8</ele>
        <time>2020-08-11T09:06:37Z</time>
      </trkpt>
      <trkpt lat="45.15662" lon="5.9704">
        <ele>2329.8</ele>
        <time>2020-08-11T09:06:38Z</time>
      </trkpt>
      <trkpt lat="45.15662" lon="5.9704">
        <ele>2329.6</ele>
        <time>2020-08-11T09:06:39Z</time>
      </trkpt>
      <trkpt lat="45.15662" lon="5.9704">
        <ele>2329.6</ele>
        <time>2020-08-11T09:06:40Z</time>
      </trkpt>
      <trkpt lat="45.15662" lon="5.9704">
        <ele>2329.6</ele>
        <time>2020-08-11T09:06:41Z</time>
      </trkpt>
      <trkpt lat="45.15662" lon="5.9704">
        <ele>2329.4</ele>
        <time>2020-08-11T09:06:42Z</time>
      </trkpt>
      <trkpt lat="45.15662" lon="5.9704">
        <ele>2329.4</ele>
        <time>2020-08-11T09:06:43Z</time>
      </trkpt>
      <trkpt lat="45.15662" lon="5.9704">
        <ele>2329.6</ele>
        <time>2020-08-11T09:06:44Z</time>
      </trkpt>
      <trkpt lat="45.15662" lon="5.9704">
        <ele>2329.4</ele>
        <time>2020-08-11T09:06:45Z</time>
      </trkpt>
      <trkpt lat="45.15662" lon="5.9704">
        <ele>2328.8</ele>
        <time>2020-08-11T09:06:46Z</time>
      </trkpt>
      <trkpt lat="45.15662" lon="5.9704">
        <ele>2328.6</ele>
        <time>2020-08-11T09:06:47Z</time>
      </trkpt>
      <trkpt lat="45.15661" lon="5.97042">
        <ele>2328.4</ele>
        <time>2020-08-11T09:06:48Z</time>
      </trkpt>
      <trkpt lat="45.15661" lon="5.97042">
        <ele>2328.2</ele>
        <time>2020-08-11T09:06:49Z</time>
      </trkpt>
      <trkpt lat="45.15661" lon="5.97042">
        <ele>2328.2</ele>
        <time>2020-08-11T09:06:50Z</time>
      </trkpt>
      <trkpt lat="45.15661" lon="5.97042">
        <ele>2328.8</ele>
        <time>2020-08-11T09:06:51Z</time>
      </trkpt>
      <trkpt lat="45.15661" lon="5.97042">
        <ele>2329</ele>
        <time>2020-08-11T09:06:52Z</time>
      </trkpt>
      <trkpt lat="45.15661" lon="5.97042">
        <ele>2328.8</ele>
        <time>2020-08-11T09:06:53Z</time>
      </trkpt>
      <trkpt lat="45.15661" lon="5.97042">
        <ele>2329</ele>
        <time>2020-08-11T09:06:54Z</time>
      </trkpt>
      <trkpt lat="45.15661" lon="5.97042">
        <ele>2329</ele>
        <time>2020-08-11T09:06:55Z</time>
      </trkpt>
      <trkpt lat="45.15661" lon="5.97042">
        <ele>2329.2</ele>
        <time>2020-08-11T09:06:56Z</time>
      </trkpt>
      <trkpt lat="45.15661" lon="5.97042">
        <ele>2329.2</ele>
        <time>2020-08-11T09:06:57Z</time>
      </trkpt>
      <trkpt lat="45.15661" lon="5.97042">
        <ele>2329.2</ele>
        <time>2020-08-11T09:06:58Z</time>
      </trkpt>
      <trkpt lat="45.15661" lon="5.97042">
        <ele>2329</ele>
        <time>2020-08-11T09:06:59Z</time>
      </trkpt>
      <trkpt lat="45.15661" lon="5.97045">
        <ele>2329</ele>
        <time>2020-08-11T09:07:00Z</time>
      </trkpt>
      <trkpt lat="45.15661" lon="5.97045">
        <ele>2328.8</ele>
        <time>2020-08-11T09:07:01Z</time>
      </trkpt>
      <trkpt lat="45.15661" lon="5.97045">
        <ele>2328.8</ele>
        <time>2020-08-11T09:07:02Z</time>
      </trkpt>
      <trkpt lat="45.1566" lon="5.97048">
        <ele>2329.2</ele>
        <time>2020-08-11T09:07:03Z</time>
      </trkpt>
      <trkpt lat="45.1566" lon="5.97048">
        <ele>2329</ele>
        <time>2020-08-11T09:07:04Z</time>
      </trkpt>
      <trkpt lat="45.1566" lon="5.9705">
        <ele>2328.6</ele>
        <time>2020-08-11T09:07:05Z</time>
      </trkpt>
      <trkpt lat="45.1566" lon="5.9705">
        <ele>2328.4</ele>
        <time>2020-08-11T09:07:06Z</time>
      </trkpt>
      <trkpt lat="45.1566" lon="5.9705">
        <ele>2328.2</ele>
        <time>2020-08-11T09:07:07Z</time>
      </trkpt>
      <trkpt lat="45.1566" lon="5.97054">
        <ele>2328</ele>
        <time>2020-08-11T09:07:08Z</time>
      </trkpt>
      <trkpt lat="45.15661" lon="5.97056">
        <ele>2328</ele>
        <time>2020-08-11T09:07:09Z</time>
      </trkpt>
      <trkpt lat="45.15661" lon="5.97056">
        <ele>2327.8</ele>
        <time>2020-08-11T09:07:10Z</time>
      </trkpt>
      <trkpt lat="45.15661" lon="5.97056">
        <ele>2327.8</ele>
        <time>2020-08-11T09:07:11Z</time>
      </trkpt>
      <trkpt lat="45.15661" lon="5.97056">
        <ele>2327.8</ele>
        <time>2020-08-11T09:07:12Z</time>
      </trkpt>
      <trkpt lat="45.15661" lon="5.97059">
        <ele>2327.8</ele>
        <time>2020-08-11T09:07:13Z</time>
      </trkpt>
      <trkpt lat="45.15661" lon="5.97059">
        <ele>2328</ele>
        <time>2020-08-11T09:07:14Z</time>
      </trkpt>
      <trkpt lat="45.15661" lon="5.97059">
        <ele>2328</ele>
        <time>2020-08-11T09:07:15Z</time>
      </trkpt>
      <trkpt lat="45.15662" lon="5.97063">
        <ele>2328</ele>
        <time>2020-08-11T09:07:16Z</time>
      </trkpt>
      <trkpt lat="45.15662" lon="5.97063">
        <ele>2328.2</ele>
        <time>2020-08-11T09:07:17Z</time>
      </trkpt>
      <trkpt lat="45.15663" lon="5.97065">
        <ele>2328.2</ele>
        <time>2020-08-11T09:07:18Z</time>
      </trkpt>
      <trkpt lat="45.15662" lon="5.97068">
        <ele>2328.4</ele>
        <time>2020-08-11T09:07:19Z</time>
      </trkpt>
      <trkpt lat="45.15662" lon="5.97068">
        <ele>2328.6</ele>
        <time>2020-08-11T09:07:20Z</time>
      </trkpt>
      <trkpt lat="45.15662" lon="5.97068">
        <ele>2329</ele>
        <time>2020-08-11T09:07:21Z</time>
      </trkpt>
      <trkpt lat="45.15662" lon="5.97068">
        <ele>2329.4</ele>
        <time>2020-08-11T09:07:22Z</time>
      </trkpt>
      <trkpt lat="45.15662" lon="5.97068">
        <ele>2329.2</ele>
        <time>2020-08-11T09:07:23Z</time>
      </trkpt>
      <trkpt lat="45.15662" lon="5.97068">
        <ele>2329.4</ele>
        <time>2020-08-11T09:07:24Z</time>
      </trkpt>
      <trkpt lat="45.15662" lon="5.97068">
        <ele>2329.8</ele>
        <time>2020-08-11T09:07:25Z</time>
      </trkpt>
      <trkpt lat="45.15662" lon="5.97068">
        <ele>2330</ele>
        <time>2020-08-11T09:07:26Z</time>
      </trkpt>
      <trkpt lat="45.15662" lon="5.97068">
        <ele>2330.2</ele>
        <time>2020-08-11T09:07:27Z</time>
      </trkpt>
      <trkpt lat="45.15662" lon="5.97068">
        <ele>2330.4</ele>
        <time>2020-08-11T09:07:28Z</time>
      </trkpt>
      <trkpt lat="45.15662" lon="5.97068">
        <ele>2330.6</ele>
        <time>2020-08-11T09:07:29Z</time>
      </trkpt>
      <trkpt lat="45.15662" lon="5.97068">
        <ele>2330.2</ele>
        <time>2020-08-11T09:07:30Z</time>
      </trkpt>
      <trkpt lat="45.15662" lon="5.97068">
        <ele>2329.8</ele>
        <time>2020-08-11T09:07:31Z</time>
      </trkpt>
      <trkpt lat="45.15661" lon="5.9707">
        <ele>2329.6</ele>
        <time>2020-08-11T09:07:32Z</time>
      </trkpt>
      <trkpt lat="45.15661" lon="5.9707">
        <ele>2329.2</ele>
        <time>2020-08-11T09:07:33Z</time>
      </trkpt>
      <trkpt lat="45.15661" lon="5.9707">
        <ele>2329.2</ele>
        <time>2020-08-11T09:07:34Z</time>
      </trkpt>
      <trkpt lat="45.15661" lon="5.9707">
        <ele>2329</ele>
        <time>2020-08-11T09:07:35Z</time>
      </trkpt>
      <trkpt lat="45.15661" lon="5.9707">
        <ele>2328.8</ele>
        <time>2020-08-11T09:07:36Z</time>
      </trkpt>
      <trkpt lat="45.15661" lon="5.9707">
        <ele>2329</ele>
        <time>2020-08-11T09:07:37Z</time>
      </trkpt>
      <trkpt lat="45.15661" lon="5.9707">
        <ele>2329</ele>
        <time>2020-08-11T09:07:38Z</time>
      </trkpt>
      <trkpt lat="45.15661" lon="5.9707">
        <ele>2329</ele>
        <time>2020-08-11T09:07:39Z</time>
      </trkpt>
      <trkpt lat="45.15662" lon="5.97073">
        <ele>2329</ele>
        <time>2020-08-11T09:07:40Z</time>
      </trkpt>
      <trkpt lat="45.15662" lon="5.97073">
        <ele>2328.8</ele>
        <time>2020-08-11T09:07:41Z</time>
      </trkpt>
      <trkpt lat="45.15662" lon="5.97073">
        <ele>2329</ele>
        <time>2020-08-11T09:07:42Z</time>
      </trkpt>
      <trkpt lat="45.15662" lon="5.97073">
        <ele>2329</ele>
        <time>2020-08-11T09:07:43Z</time>
      </trkpt>
      <trkpt lat="45.15662" lon="5.97073">
        <ele>2329.2</ele>
        <time>2020-08-11T09:07:44Z</time>
      </trkpt>
      <trkpt lat="45.15662" lon="5.97073">
        <ele>2329.4</ele>
        <time>2020-08-11T09:07:45Z</time>
      </trkpt>
      <trkpt lat="45.15662" lon="5.97073">
        <ele>2329.6</ele>
        <time>2020-08-11T09:07:46Z</time>
      </trkpt>
      <trkpt lat="45.15662" lon="5.97073">
        <ele>2329.6</ele>
        <time>2020-08-11T09:07:47Z</time>
      </trkpt>
      <trkpt lat="45.15662" lon="5.97073">
        <ele>2329.8</ele>
        <time>2020-08-11T09:07:48Z</time>
      </trkpt>
      <trkpt lat="45.15662" lon="5.97073">
        <ele>2330</ele>
        <time>2020-08-11T09:07:49Z</time>
      </trkpt>
      <trkpt lat="45.15663" lon="5.97075">
        <ele>2329.8</ele>
        <time>2020-08-11T09:07:50Z</time>
      </trkpt>
      <trkpt lat="45.15663" lon="5.97075">
        <ele>2330.6</ele>
        <time>2020-08-11T09:07:51Z</time>
      </trkpt>
      <trkpt lat="45.15663" lon="5.97075">
        <ele>2331</ele>
        <time>2020-08-11T09:07:52Z</time>
      </trkpt>
      <trkpt lat="45.15663" lon="5.97075">
        <ele>2331.4</ele>
        <time>2020-08-11T09:07:53Z</time>
      </trkpt>
      <trkpt lat="45.15663" lon="5.97075">
        <ele>2331.4</ele>
        <time>2020-08-11T09:07:54Z</time>
      </trkpt>
      <trkpt lat="45.15663" lon="5.97075">
        <ele>2331.4</ele>
        <time>2020-08-11T09:07:55Z</time>
      </trkpt>
      <trkpt lat="45.15663" lon="5.97075">
        <ele>2331</ele>
        <time>2020-08-11T09:07:56Z</time>
      </trkpt>
      <trkpt lat="45.15663" lon="5.97078">
        <ele>2330.6</ele>
        <time>2020-08-11T09:07:57Z</time>
      </trkpt>
      <trkpt lat="45.15663" lon="5.97078">
        <ele>2330.8</ele>
        <time>2020-08-11T09:07:58Z</time>
      </trkpt>
      <trkpt lat="45.15663" lon="5.97078">
        <ele>2330.4</ele>
        <time>2020-08-11T09:07:59Z</time>
      </trkpt>
      <trkpt lat="45.15662" lon="5.97081">
        <ele>2330.4</ele>
        <time>2020-08-11T09:08:00Z</time>
      </trkpt>
      <trkpt lat="45.15662" lon="5.97081">
        <ele>2330.4</ele>
        <time>2020-08-11T09:08:01Z</time>
      </trkpt>
      <trkpt lat="45.15662" lon="5.97081">
        <ele>2330.4</ele>
        <time>2020-08-11T09:08:02Z</time>
      </trkpt>
      <trkpt lat="45.15662" lon="5.97084">
        <ele>2330.2</ele>
        <time>2020-08-11T09:08:03Z</time>
      </trkpt>
      <trkpt lat="45.15662" lon="5.97087">
        <ele>2330</ele>
        <time>2020-08-11T09:08:04Z</time>
      </trkpt>
      <trkpt lat="45.15662" lon="5.97087">
        <ele>2330</ele>
        <time>2020-08-11T09:08:05Z</time>
      </trkpt>
      <trkpt lat="45.15662" lon="5.97087">
        <ele>2329.8</ele>
        <time>2020-08-11T09:08:06Z</time>
      </trkpt>
      <trkpt lat="45.15662" lon="5.97087">
        <ele>2330</ele>
        <time>2020-08-11T09:08:07Z</time>
      </trkpt>
      <trkpt lat="45.15662" lon="5.9709">
        <ele>2330.2</ele>
        <time>2020-08-11T09:08:08Z</time>
      </trkpt>
      <trkpt lat="45.15662" lon="5.9709">
        <ele>2330.2</ele>
        <time>2020-08-11T09:08:09Z</time>
      </trkpt>
      <trkpt lat="45.15662" lon="5.9709">
        <ele>2330</ele>
        <time>2020-08-11T09:08:10Z</time>
      </trkpt>
      <trkpt lat="45.15662" lon="5.97094">
        <ele>2329.8</ele>
        <time>2020-08-11T09:08:11Z</time>
      </trkpt>
      <trkpt lat="45.15662" lon="5.97094">
        <ele>2329.2</ele>
        <time>2020-08-11T09:08:12Z</time>
      </trkpt>
      <trkpt lat="45.15662" lon="5.97094">
        <ele>2328.8</ele>
        <time>2020-08-11T09:08:13Z</time>
      </trkpt>
      <trkpt lat="45.15661" lon="5.97097">
        <ele>2328.6</ele>
        <time>2020-08-11T09:08:14Z</time>
      </trkpt>
      <trkpt lat="45.15661" lon="5.97097">
        <ele>2328.6</ele>
        <time>2020-08-11T09:08:15Z</time>
      </trkpt>
      <trkpt lat="45.15661" lon="5.971">
        <ele>2328.8</ele>
        <time>2020-08-11T09:08:16Z</time>
      </trkpt>
      <trkpt lat="45.15661" lon="5.971">
        <ele>2328.4</ele>
        <time>2020-08-11T09:08:17Z</time>
      </trkpt>
      <trkpt lat="45.15659" lon="5.97101">
        <ele>2328.4</ele>
        <time>2020-08-11T09:08:18Z</time>
      </trkpt>
      <trkpt lat="45.15659" lon="5.97101">
        <ele>2328.2</ele>
        <time>2020-08-11T09:08:19Z</time>
      </trkpt>
      <trkpt lat="45.15659" lon="5.97101">
        <ele>2328</ele>
        <time>2020-08-11T09:08:20Z</time>
      </trkpt>
      <trkpt lat="45.15659" lon="5.97101">
        <ele>2328</ele>
        <time>2020-08-11T09:08:21Z</time>
      </trkpt>
      <trkpt lat="45.15658" lon="5.97104">
        <ele>2328</ele>
        <time>2020-08-11T09:08:22Z</time>
      </trkpt>
      <trkpt lat="45.15657" lon="5.97106">
        <ele>2327.8</ele>
        <time>2020-08-11T09:08:23Z</time>
      </trkpt>
      <trkpt lat="45.15657" lon="5.97106">
        <ele>2328</ele>
        <time>2020-08-11T09:08:24Z</time>
      </trkpt>
      <trkpt lat="45.15656" lon="5.97109">
        <ele>2328</ele>
        <time>2020-08-11T09:08:25Z</time>
      </trkpt>
      <trkpt lat="45.15656" lon="5.97109">
        <ele>2328.2</ele>
        <time>2020-08-11T09:08:26Z</time>
      </trkpt>
      <trkpt lat="45.15655" lon="5.97113">
        <ele>2328.2</ele>
        <time>2020-08-11T09:08:27Z</time>
      </trkpt>
      <trkpt lat="45.15655" lon="5.97113">
        <ele>2327.8</ele>
        <time>2020-08-11T09:08:28Z</time>
      </trkpt>
      <trkpt lat="45.15652" lon="5.97116">
        <ele>2328</ele>
        <time>2020-08-11T09:08:29Z</time>
      </trkpt>
      <trkpt lat="45.15652" lon="5.97116">
        <ele>2327.8</ele>
        <time>2020-08-11T09:08:30Z</time>
      </trkpt>
      <trkpt lat="45.15652" lon="5.97116">
        <ele>2327.6</ele>
        <time>2020-08-11T09:08:31Z</time>
      </trkpt>
      <trkpt lat="45.15651" lon="5.97119">
        <ele>2327</ele>
        <time>2020-08-11T09:08:32Z</time>
      </trkpt>
      <trkpt lat="45.15651" lon="5.97119">
        <ele>2327</ele>
        <time>2020-08-11T09:08:33Z</time>
      </trkpt>
      <trkpt lat="45.1565" lon="5.97124">
        <ele>2326.8</ele>
        <time>2020-08-11T09:08:34Z</time>
      </trkpt>
      <trkpt lat="45.1565" lon="5.97124">
        <ele>2326.8</ele>
        <time>2020-08-11T09:08:35Z</time>
      </trkpt>
      <trkpt lat="45.15651" lon="5.97128">
        <ele>2326.8</ele>
        <time>2020-08-11T09:08:36Z</time>
      </trkpt>
      <trkpt lat="45.1565" lon="5.97132">
        <ele>2326.8</ele>
        <time>2020-08-11T09:08:37Z</time>
      </trkpt>
      <trkpt lat="45.1565" lon="5.97132">
        <ele>2326.4</ele>
        <time>2020-08-11T09:08:38Z</time>
      </trkpt>
      <trkpt lat="45.1565" lon="5.97132">
        <ele>2326.4</ele>
        <time>2020-08-11T09:08:39Z</time>
      </trkpt>
      <trkpt lat="45.15652" lon="5.97135">
        <ele>2326.2</ele>
        <time>2020-08-11T09:08:40Z</time>
      </trkpt>
      <trkpt lat="45.15652" lon="5.9714">
        <ele>2326.2</ele>
        <time>2020-08-11T09:08:41Z</time>
      </trkpt>
      <trkpt lat="45.15652" lon="5.9714">
        <ele>2326.2</ele>
        <time>2020-08-11T09:08:42Z</time>
      </trkpt>
      <trkpt lat="45.15653" lon="5.97145">
        <ele>2326</ele>
        <time>2020-08-11T09:08:43Z</time>
      </trkpt>
      <trkpt lat="45.15653" lon="5.97145">
        <ele>2325.8</ele>
        <time>2020-08-11T09:08:44Z</time>
      </trkpt>
      <trkpt lat="45.15653" lon="5.97145">
        <ele>2325.6</ele>
        <time>2020-08-11T09:08:45Z</time>
      </trkpt>
      <trkpt lat="45.15653" lon="5.97149">
        <ele>2325.6</ele>
        <time>2020-08-11T09:08:46Z</time>
      </trkpt>
      <trkpt lat="45.15653" lon="5.97154">
        <ele>2325.4</ele>
        <time>2020-08-11T09:08:47Z</time>
      </trkpt>
      <trkpt lat="45.15653" lon="5.97154">
        <ele>2325</ele>
        <time>2020-08-11T09:08:48Z</time>
      </trkpt>
      <trkpt lat="45.15653" lon="5.97157">
        <ele>2325.2</ele>
        <time>2020-08-11T09:08:49Z</time>
      </trkpt>
      <trkpt lat="45.15653" lon="5.97157">
        <ele>2325</ele>
        <time>2020-08-11T09:08:50Z</time>
      </trkpt>
      <trkpt lat="45.15654" lon="5.97161">
        <ele>2325</ele>
        <time>2020-08-11T09:08:51Z</time>
      </trkpt>
      <trkpt lat="45.15654" lon="5.97161">
        <ele>2325</ele>
        <time>2020-08-11T09:08:52Z</time>
      </trkpt>
      <trkpt lat="45.15654" lon="5.97161">
        <ele>2324.8</ele>
        <time>2020-08-11T09:08:53Z</time>
      </trkpt>
      <trkpt lat="45.15654" lon="5.97164">
        <ele>2324.6</ele>
        <time>2020-08-11T09:08:54Z</time>
      </trkpt>
      <trkpt lat="45.15654" lon="5.97164">
        <ele>2324.4</ele>
        <time>2020-08-11T09:08:55Z</time>
      </trkpt>
      <trkpt lat="45.15655" lon="5.97167">
        <ele>2324</ele>
        <time>2020-08-11T09:08:56Z</time>
      </trkpt>
      <trkpt lat="45.15655" lon="5.97167">
        <ele>2324</ele>
        <time>2020-08-11T09:08:57Z</time>
      </trkpt>
      <trkpt lat="45.15655" lon="5.97167">
        <ele>2323.8</ele>
        <time>2020-08-11T09:08:58Z</time>
      </trkpt>
      <trkpt lat="45.15655" lon="5.97167">
        <ele>2323.8</ele>
        <time>2020-08-11T09:08:59Z</time>
      </trkpt>
      <trkpt lat="45.15655" lon="5.97167">
        <ele>2323.6</ele>
        <time>2020-08-11T09:09:00Z</time>
      </trkpt>
      <trkpt lat="45.15655" lon="5.97167">
        <ele>2323.8</ele>
        <time>2020-08-11T09:09:01Z</time>
      </trkpt>
      <trkpt lat="45.15655" lon="5.97167">
        <ele>2323.8</ele>
        <time>2020-08-11T09:09:02Z</time>
      </trkpt>
      <trkpt lat="45.15655" lon="5.97167">
        <ele>2323.8</ele>
        <time>2020-08-11T09:09:03Z</time>
      </trkpt>
      <trkpt lat="45.15653" lon="5.97168">
        <ele>2323.8</ele>
        <time>2020-08-11T09:09:04Z</time>
      </trkpt>
      <trkpt lat="45.15653" lon="5.97168">
        <ele>2323.6</ele>
        <time>2020-08-11T09:09:05Z</time>
      </trkpt>
      <trkpt lat="45.15653" lon="5.97168">
        <ele>2323.6</ele>
        <time>2020-08-11T09:09:06Z</time>
      </trkpt>
      <trkpt lat="45.15653" lon="5.97168">
        <ele>2323.4</ele>
        <time>2020-08-11T09:09:07Z</time>
      </trkpt>
      <trkpt lat="45.15653" lon="5.97168">
        <ele>2323.4</ele>
        <time>2020-08-11T09:09:08Z</time>
      </trkpt>
      <trkpt lat="45.15653" lon="5.97168">
        <ele>2323.6</ele>
        <time>2020-08-11T09:09:09Z</time>
      </trkpt>
      <trkpt lat="45.15653" lon="5.97168">
        <ele>2323.4</ele>
        <time>2020-08-11T09:09:10Z</time>
      </trkpt>
      <trkpt lat="45.15653" lon="5.97168">
        <ele>2323.4</ele>
        <time>2020-08-11T09:09:11Z</time>
      </trkpt>
      <trkpt lat="45.15653" lon="5.97168">
        <ele>2323.4</ele>
        <time>2020-08-11T09:09:12Z</time>
      </trkpt>
      <trkpt lat="45.15651" lon="5.97169">
        <ele>2323.2</ele>
        <time>2020-08-11T09:09:13Z</time>
      </trkpt>
      <trkpt lat="45.15651" lon="5.97169">
        <ele>2323.4</ele>
        <time>2020-08-11T09:09:14Z</time>
      </trkpt>
      <trkpt lat="45.15651" lon="5.97169">
        <ele>2323.4</ele>
        <time>2020-08-11T09:09:15Z</time>
      </trkpt>
      <trkpt lat="45.15651" lon="5.97169">
        <ele>2323.4</ele>
        <time>2020-08-11T09:09:16Z</time>
      </trkpt>
      <trkpt lat="45.15651" lon="5.97169">
        <ele>2323.8</ele>
        <time>2020-08-11T09:09:17Z</time>
      </trkpt>
      <trkpt lat="45.15651" lon="5.97169">
        <ele>2323.8</ele>
        <time>2020-08-11T09:09:18Z</time>
      </trkpt>
      <trkpt lat="45.15651" lon="5.97169">
        <ele>2323.8</ele>
        <time>2020-08-11T09:09:19Z</time>
      </trkpt>
      <trkpt lat="45.15651" lon="5.97172">
        <ele>2323.6</ele>
        <time>2020-08-11T09:09:20Z</time>
      </trkpt>
      <trkpt lat="45.15651" lon="5.97172">
        <ele>2323.4</ele>
        <time>2020-08-11T09:09:21Z</time>
      </trkpt>
      <trkpt lat="45.15651" lon="5.97172">
        <ele>2323</ele>
        <time>2020-08-11T09:09:22Z</time>
      </trkpt>
      <trkpt lat="45.1565" lon="5.97175">
        <ele>2322.8</ele>
        <time>2020-08-11T09:09:23Z</time>
      </trkpt>
      <trkpt lat="45.1565" lon="5.97175">
        <ele>2322.6</ele>
        <time>2020-08-11T09:09:24Z</time>
      </trkpt>
      <trkpt lat="45.1565" lon="5.97178">
        <ele>2322.6</ele>
        <time>2020-08-11T09:09:25Z</time>
      </trkpt>
      <trkpt lat="45.1565" lon="5.97178">
        <ele>2322.6</ele>
        <time>2020-08-11T09:09:26Z</time>
      </trkpt>
      <trkpt lat="45.1565" lon="5.97178">
        <ele>2322.6</ele>
        <time>2020-08-11T09:09:27Z</time>
      </trkpt>
      <trkpt lat="45.1565" lon="5.97178">
        <ele>2322.4</ele>
        <time>2020-08-11T09:09:28Z</time>
      </trkpt>
      <trkpt lat="45.1565" lon="5.97178">
        <ele>2322.4</ele>
        <time>2020-08-11T09:09:29Z</time>
      </trkpt>
      <trkpt lat="45.1565" lon="5.97178">
        <ele>2322.2</ele>
        <time>2020-08-11T09:09:30Z</time>
      </trkpt>
      <trkpt lat="45.15651" lon="5.97182">
        <ele>2322.2</ele>
        <time>2020-08-11T09:09:31Z</time>
      </trkpt>
      <trkpt lat="45.1565" lon="5.97185">
        <ele>2322.2</ele>
        <time>2020-08-11T09:09:32Z</time>
      </trkpt>
      <trkpt lat="45.1565" lon="5.97185">
        <ele>2322.2</ele>
        <time>2020-08-11T09:09:33Z</time>
      </trkpt>
      <trkpt lat="45.1565" lon="5.97185">
        <ele>2322</ele>
        <time>2020-08-11T09:09:34Z</time>
      </trkpt>
      <trkpt lat="45.1565" lon="5.97185">
        <ele>2322</ele>
        <time>2020-08-11T09:09:35Z</time>
      </trkpt>
      <trkpt lat="45.15651" lon="5.97188">
        <ele>2321.8</ele>
        <time>2020-08-11T09:09:36Z</time>
      </trkpt>
      <trkpt lat="45.15651" lon="5.97188">
        <ele>2322</ele>
        <time>2020-08-11T09:09:37Z</time>
      </trkpt>
      <trkpt lat="45.15652" lon="5.97191">
        <ele>2321.8</ele>
        <time>2020-08-11T09:09:38Z</time>
      </trkpt>
      <trkpt lat="45.15652" lon="5.97191">
        <ele>2321.8</ele>
        <time>2020-08-11T09:09:39Z</time>
      </trkpt>
      <trkpt lat="45.15652" lon="5.97191">
        <ele>2321.8</ele>
        <time>2020-08-11T09:09:40Z</time>
      </trkpt>
      <trkpt lat="45.15653" lon="5.97193">
        <ele>2321.6</ele>
        <time>2020-08-11T09:09:41Z</time>
      </trkpt>
      <trkpt lat="45.15653" lon="5.97195">
        <ele>2321.4</ele>
        <time>2020-08-11T09:09:42Z</time>
      </trkpt>
      <trkpt lat="45.15653" lon="5.97195">
        <ele>2321.4</ele>
        <time>2020-08-11T09:09:43Z</time>
      </trkpt>
      <trkpt lat="45.15654" lon="5.97198">
        <ele>2321</ele>
        <time>2020-08-11T09:09:44Z</time>
      </trkpt>
      <trkpt lat="45.15654" lon="5.97198">
        <ele>2320.8</ele>
        <time>2020-08-11T09:09:45Z</time>
      </trkpt>
      <trkpt lat="45.15654" lon="5.97198">
        <ele>2320.6</ele>
        <time>2020-08-11T09:09:46Z</time>
      </trkpt>
      <trkpt lat="45.15655" lon="5.97201">
        <ele>2320.4</ele>
        <time>2020-08-11T09:09:47Z</time>
      </trkpt>
      <trkpt lat="45.15656" lon="5.97204">
        <ele>2320.4</ele>
        <time>2020-08-11T09:09:48Z</time>
      </trkpt>
      <trkpt lat="45.15656" lon="5.97204">
        <ele>2320.4</ele>
        <time>2020-08-11T09:09:49Z</time>
      </trkpt>
      <trkpt lat="45.15656" lon="5.97204">
        <ele>2320.4</ele>
        <time>2020-08-11T09:09:50Z</time>
      </trkpt>
      <trkpt lat="45.15656" lon="5.97208">
        <ele>2320.2</ele>
        <time>2020-08-11T09:09:51Z</time>
      </trkpt>
      <trkpt lat="45.15656" lon="5.97208">
        <ele>2320.2</ele>
        <time>2020-08-11T09:09:52Z</time>
      </trkpt>
      <trkpt lat="45.15656" lon="5.97208">
        <ele>2320.2</ele>
        <time>2020-08-11T09:09:53Z</time>
      </trkpt>
      <trkpt lat="45.15657" lon="5.97211">
        <ele>2320.2</ele>
        <time>2020-08-11T09:09:54Z</time>
      </trkpt>
      <trkpt lat="45.15657" lon="5.97211">
        <ele>2320.2</ele>
        <time>2020-08-11T09:09:55Z</time>
      </trkpt>
      <trkpt lat="45.15658" lon="5.97214">
        <ele>2320</ele>
        <time>2020-08-11T09:09:56Z</time>
      </trkpt>
      <trkpt lat="45.15658" lon="5.97214">
        <ele>2320</ele>
        <time>2020-08-11T09:09:57Z</time>
      </trkpt>
      <trkpt lat="45.15658" lon="5.97217">
        <ele>2320</ele>
        <time>2020-08-11T09:09:58Z</time>
      </trkpt>
      <trkpt lat="45.15658" lon="5.97217">
        <ele>2320</ele>
        <time>2020-08-11T09:09:59Z</time>
      </trkpt>
      <trkpt lat="45.15659" lon="5.97221">
        <ele>2320</ele>
        <time>2020-08-11T09:10:00Z</time>
      </trkpt>
      <trkpt lat="45.15659" lon="5.97221">
        <ele>2320</ele>
        <time>2020-08-11T09:10:01Z</time>
      </trkpt>
      <trkpt lat="45.15659" lon="5.97221">
        <ele>2320.4</ele>
        <time>2020-08-11T09:10:02Z</time>
      </trkpt>
      <trkpt lat="45.15659" lon="5.97221">
        <ele>2320.6</ele>
        <time>2020-08-11T09:10:03Z</time>
      </trkpt>
      <trkpt lat="45.1566" lon="5.97223">
        <ele>2320.6</ele>
        <time>2020-08-11T09:10:04Z</time>
      </trkpt>
      <trkpt lat="45.1566" lon="5.97223">
        <ele>2320.8</ele>
        <time>2020-08-11T09:10:05Z</time>
      </trkpt>
      <trkpt lat="45.1566" lon="5.97223">
        <ele>2321</ele>
        <time>2020-08-11T09:10:06Z</time>
      </trkpt>
      <trkpt lat="45.15661" lon="5.97223">
        <ele>2321.2</ele>
        <time>2020-08-11T09:10:07Z</time>
      </trkpt>
      <trkpt lat="45.15661" lon="5.97224">
        <ele>2321.4</ele>
        <time>2020-08-11T09:10:08Z</time>
      </trkpt>
      <trkpt lat="45.15661" lon="5.97225">
        <ele>2321.4</ele>
        <time>2020-08-11T09:10:09Z</time>
      </trkpt>
      <trkpt lat="45.15662" lon="5.97226">
        <ele>2321.4</ele>
        <time>2020-08-11T09:10:10Z</time>
      </trkpt>
      <trkpt lat="45.15662" lon="5.97226">
        <ele>2321.6</ele>
        <time>2020-08-11T09:10:11Z</time>
      </trkpt>
      <trkpt lat="45.15662" lon="5.97227">
        <ele>2321.6</ele>
        <time>2020-08-11T09:10:12Z</time>
      </trkpt>
      <trkpt lat="45.15662" lon="5.97228">
        <ele>2322</ele>
        <time>2020-08-11T09:10:13Z</time>
      </trkpt>
      <trkpt lat="45.15663" lon="5.97228">
        <ele>2322.4</ele>
        <time>2020-08-11T09:10:14Z</time>
      </trkpt>
      <trkpt lat="45.15663" lon="5.97229">
        <ele>2322.4</ele>
        <time>2020-08-11T09:10:15Z</time>
      </trkpt>
      <trkpt lat="45.15663" lon="5.9723">
        <ele>2322.6</ele>
        <time>2020-08-11T09:10:16Z</time>
      </trkpt>
      <trkpt lat="45.15664" lon="5.97231">
        <ele>2322.6</ele>
        <time>2020-08-11T09:10:17Z</time>
      </trkpt>
      <trkpt lat="45.15664" lon="5.97231">
        <ele>2322.6</ele>
        <time>2020-08-11T09:10:18Z</time>
      </trkpt>
      <trkpt lat="45.15664" lon="5.97232">
        <ele>2323.4</ele>
        <time>2020-08-11T09:10:19Z</time>
      </trkpt>
      <trkpt lat="45.15664" lon="5.97233">
        <ele>2323.6</ele>
        <time>2020-08-11T09:10:20Z</time>
      </trkpt>
      <trkpt lat="45.15665" lon="5.97233">
        <ele>2323.8</ele>
        <time>2020-08-11T09:10:21Z</time>
      </trkpt>
      <trkpt lat="45.15665" lon="5.97233">
        <ele>2324</ele>
        <time>2020-08-11T09:10:22Z</time>
      </trkpt>
      <trkpt lat="45.15665" lon="5.97233">
        <ele>2324.2</ele>
        <time>2020-08-11T09:10:23Z</time>
      </trkpt>
      <trkpt lat="45.15666" lon="5.97236">
        <ele>2324.4</ele>
        <time>2020-08-11T09:10:24Z</time>
      </trkpt>
      <trkpt lat="45.15666" lon="5.97236">
        <ele>2324.2</ele>
        <time>2020-08-11T09:10:25Z</time>
      </trkpt>
      <trkpt lat="45.15666" lon="5.97236">
        <ele>2324.4</ele>
        <time>2020-08-11T09:10:26Z</time>
      </trkpt>
      <trkpt lat="45.15668" lon="5.9724">
        <ele>2324.2</ele>
        <time>2020-08-11T09:10:27Z</time>
      </trkpt>
      <trkpt lat="45.15668" lon="5.9724">
        <ele>2324.4</ele>
        <time>2020-08-11T09:10:28Z</time>
      </trkpt>
      <trkpt lat="45.15668" lon="5.9724">
        <ele>2324.4</ele>
        <time>2020-08-11T09:10:29Z</time>
      </trkpt>
      <trkpt lat="45.15669" lon="5.97244">
        <ele>2324.6</ele>
        <time>2020-08-11T09:10:30Z</time>
      </trkpt>
      <trkpt lat="45.15669" lon="5.97244">
        <ele>2324.6</ele>
        <time>2020-08-11T09:10:31Z</time>
      </trkpt>
      <trkpt lat="45.15669" lon="5.97244">
        <ele>2324.2</ele>
        <time>2020-08-11T09:10:32Z</time>
      </trkpt>
      <trkpt lat="45.15668" lon="5.97246">
        <ele>2324</ele>
        <time>2020-08-11T09:10:33Z</time>
      </trkpt>
      <trkpt lat="45.15668" lon="5.97246">
        <ele>2323.8</ele>
        <time>2020-08-11T09:10:34Z</time>
      </trkpt>
      <trkpt lat="45.15668" lon="5.97246">
        <ele>2323.4</ele>
        <time>2020-08-11T09:10:35Z</time>
      </trkpt>
      <trkpt lat="45.15668" lon="5.97246">
        <ele>2323.4</ele>
        <time>2020-08-11T09:10:36Z</time>
      </trkpt>
      <trkpt lat="45.15667" lon="5.97249">
        <ele>2323</ele>
        <time>2020-08-11T09:10:37Z</time>
      </trkpt>
      <trkpt lat="45.15667" lon="5.97249">
        <ele>2322.8</ele>
        <time>2020-08-11T09:10:38Z</time>
      </trkpt>
      <trkpt lat="45.15667" lon="5.97249">
        <ele>2322.6</ele>
        <time>2020-08-11T09:10:39Z</time>
      </trkpt>
      <trkpt lat="45.15667" lon="5.97249">
        <ele>2322.4</ele>
        <time>2020-08-11T09:10:40Z</time>
      </trkpt>
      <trkpt lat="45.15667" lon="5.97249">
        <ele>2322</ele>
        <time>2020-08-11T09:10:41Z</time>
      </trkpt>
      <trkpt lat="45.15667" lon="5.97251">
        <ele>2321.8</ele>
        <time>2020-08-11T09:10:42Z</time>
      </trkpt>
      <trkpt lat="45.15667" lon="5.97251">
        <ele>2321.6</ele>
        <time>2020-08-11T09:10:43Z</time>
      </trkpt>
      <trkpt lat="45.15667" lon="5.97251">
        <ele>2321.4</ele>
        <time>2020-08-11T09:10:44Z</time>
      </trkpt>
      <trkpt lat="45.15668" lon="5.97254">
        <ele>2321</ele>
        <time>2020-08-11T09:10:45Z</time>
      </trkpt>
      <trkpt lat="45.15668" lon="5.97254">
        <ele>2320.8</ele>
        <time>2020-08-11T09:10:46Z</time>
      </trkpt>
      <trkpt lat="45.15668" lon="5.97254">
        <ele>2320.4</ele>
        <time>2020-08-11T09:10:47Z</time>
      </trkpt>
      <trkpt lat="45.15667" lon="5.97257">
        <ele>2320</ele>
        <time>2020-08-11T09:10:48Z</time>
      </trkpt>
      <trkpt lat="45.15667" lon="5.97257">
        <ele>2319.6</ele>
        <time>2020-08-11T09:10:49Z</time>
      </trkpt>
      <trkpt lat="45.15667" lon="5.97261">
        <ele>2319.4</ele>
        <time>2020-08-11T09:10:50Z</time>
      </trkpt>
      <trkpt lat="45.15667" lon="5.97261">
        <ele>2319</ele>
        <time>2020-08-11T09:10:51Z</time>
      </trkpt>
      <trkpt lat="45.15667" lon="5.97261">
        <ele>2318.6</ele>
        <time>2020-08-11T09:10:52Z</time>
      </trkpt>
      <trkpt lat="45.15667" lon="5.97265">
        <ele>2318.4</ele>
        <time>2020-08-11T09:10:53Z</time>
      </trkpt>
      <trkpt lat="45.15667" lon="5.97265">
        <ele>2317.6</ele>
        <time>2020-08-11T09:10:54Z</time>
      </trkpt>
      <trkpt lat="45.15668" lon="5.97268">
        <ele>2317.2</ele>
        <time>2020-08-11T09:10:55Z</time>
      </trkpt>
      <trkpt lat="45.15668" lon="5.9727">
        <ele>2317.2</ele>
        <time>2020-08-11T09:10:56Z</time>
      </trkpt>
      <trkpt lat="45.15668" lon="5.9727">
        <ele>2317</ele>
        <time>2020-08-11T09:10:57Z</time>
      </trkpt>
      <trkpt lat="45.15668" lon="5.9727">
        <ele>2316.8</ele>
        <time>2020-08-11T09:10:58Z</time>
      </trkpt>
      <trkpt lat="45.15668" lon="5.9727">
        <ele>2316.6</ele>
        <time>2020-08-11T09:10:59Z</time>
      </trkpt>
      <trkpt lat="45.15667" lon="5.97274">
        <ele>2316</ele>
        <time>2020-08-11T09:11:00Z</time>
      </trkpt>
      <trkpt lat="45.15667" lon="5.97277">
        <ele>2315.6</ele>
        <time>2020-08-11T09:11:01Z</time>
      </trkpt>
      <trkpt lat="45.15667" lon="5.97277">
        <ele>2315.4</ele>
        <time>2020-08-11T09:11:02Z</time>
      </trkpt>
      <trkpt lat="45.15666" lon="5.97281">
        <ele>2315.2</ele>
        <time>2020-08-11T09:11:03Z</time>
      </trkpt>
      <trkpt lat="45.15666" lon="5.97281">
        <ele>2315.2</ele>
        <time>2020-08-11T09:11:04Z</time>
      </trkpt>
      <trkpt lat="45.15665" lon="5.97284">
        <ele>2314.8</ele>
        <time>2020-08-11T09:11:05Z</time>
      </trkpt>
      <trkpt lat="45.15665" lon="5.97284">
        <ele>2314.6</ele>
        <time>2020-08-11T09:11:06Z</time>
      </trkpt>
      <trkpt lat="45.15665" lon="5.97284">
        <ele>2314.6</ele>
        <time>2020-08-11T09:11:07Z</time>
      </trkpt>
      <trkpt lat="45.15664" lon="5.97287">
        <ele>2314.2</ele>
        <time>2020-08-11T09:11:08Z</time>
      </trkpt>
      <trkpt lat="45.15664" lon="5.97287">
        <ele>2313.8</ele>
        <time>2020-08-11T09:11:09Z</time>
      </trkpt>
      <trkpt lat="45.15664" lon="5.9729">
        <ele>2313.6</ele>
        <time>2020-08-11T09:11:10Z</time>
      </trkpt>
      <trkpt lat="45.15664" lon="5.9729">
        <ele>2313</ele>
        <time>2020-08-11T09:11:11Z</time>
      </trkpt>
      <trkpt lat="45.15664" lon="5.97293">
        <ele>2312.8</ele>
        <time>2020-08-11T09:11:12Z</time>
      </trkpt>
      <trkpt lat="45.15664" lon="5.97293">
        <ele>2312.6</ele>
        <time>2020-08-11T09:11:13Z</time>
      </trkpt>
      <trkpt lat="45.15664" lon="5.97293">
        <ele>2312.2</ele>
        <time>2020-08-11T09:11:14Z</time>
      </trkpt>
      <trkpt lat="45.15663" lon="5.97296">
        <ele>2312.2</ele>
        <time>2020-08-11T09:11:15Z</time>
      </trkpt>
      <trkpt lat="45.15663" lon="5.97299">
        <ele>2311.8</ele>
        <time>2020-08-11T09:11:16Z</time>
      </trkpt>
      <trkpt lat="45.15663" lon="5.97301">
        <ele>2311.2</ele>
        <time>2020-08-11T09:11:17Z</time>
      </trkpt>
      <trkpt lat="45.15663" lon="5.97303">
        <ele>2310.8</ele>
        <time>2020-08-11T09:11:18Z</time>
      </trkpt>
      <trkpt lat="45.15663" lon="5.97303">
        <ele>2310.4</ele>
        <time>2020-08-11T09:11:19Z</time>
      </trkpt>
      <trkpt lat="45.15663" lon="5.97303">
        <ele>2310.4</ele>
        <time>2020-08-11T09:11:20Z</time>
      </trkpt>
      <trkpt lat="45.15663" lon="5.97307">
        <ele>2310</ele>
        <time>2020-08-11T09:11:21Z</time>
      </trkpt>
      <trkpt lat="45.15663" lon="5.97307">
        <ele>2309.8</ele>
        <time>2020-08-11T09:11:22Z</time>
      </trkpt>
      <trkpt lat="45.15663" lon="5.97311">
        <ele>2309.8</ele>
        <time>2020-08-11T09:11:23Z</time>
      </trkpt>
      <trkpt lat="45.15663" lon="5.97311">
        <ele>2309.8</ele>
        <time>2020-08-11T09:11:24Z</time>
      </trkpt>
      <trkpt lat="45.15663" lon="5.97314">
        <ele>2309.8</ele>
        <time>2020-08-11T09:11:25Z</time>
      </trkpt>
      <trkpt lat="45.15663" lon="5.97314">
        <ele>2309.6</ele>
        <time>2020-08-11T09:11:26Z</time>
      </trkpt>
      <trkpt lat="45.15664" lon="5.97317">
        <ele>2309.2</ele>
        <time>2020-08-11T09:11:27Z</time>
      </trkpt>
      <trkpt lat="45.15664" lon="5.97317">
        <ele>2309.2</ele>
        <time>2020-08-11T09:11:28Z</time>
      </trkpt>
      <trkpt lat="45.15664" lon="5.97317">
        <ele>2309</ele>
        <time>2020-08-11T09:11:29Z</time>
      </trkpt>
      <trkpt lat="45.15664" lon="5.9732">
        <ele>2309</ele>
        <time>2020-08-11T09:11:30Z</time>
      </trkpt>
      <trkpt lat="45.15664" lon="5.9732">
        <ele>2308.8</ele>
        <time>2020-08-11T09:11:31Z</time>
      </trkpt>
      <trkpt lat="45.15664" lon="5.9732">
        <ele>2308.8</ele>
        <time>2020-08-11T09:11:32Z</time>
      </trkpt>
      <trkpt lat="45.15664" lon="5.9732">
        <ele>2309</ele>
        <time>2020-08-11T09:11:33Z</time>
      </trkpt>
      <trkpt lat="45.15664" lon="5.9732">
        <ele>2309</ele>
        <time>2020-08-11T09:11:34Z</time>
      </trkpt>
      <trkpt lat="45.15664" lon="5.9732">
        <ele>2309</ele>
        <time>2020-08-11T09:11:35Z</time>
      </trkpt>
      <trkpt lat="45.15664" lon="5.9732">
        <ele>2308.8</ele>
        <time>2020-08-11T09:11:36Z</time>
      </trkpt>
      <trkpt lat="45.15664" lon="5.9732">
        <ele>2308.6</ele>
        <time>2020-08-11T09:11:37Z</time>
      </trkpt>
      <trkpt lat="45.15664" lon="5.9732">
        <ele>2308.8</ele>
        <time>2020-08-11T09:11:38Z</time>
      </trkpt>
      <trkpt lat="45.15664" lon="5.9732">
        <ele>2308.8</ele>
        <time>2020-08-11T09:11:39Z</time>
      </trkpt>
      <trkpt lat="45.15666" lon="5.97322">
        <ele>2308.8</ele>
        <time>2020-08-11T09:11:40Z</time>
      </trkpt>
      <trkpt lat="45.15666" lon="5.97322">
        <ele>2309</ele>
        <time>2020-08-11T09:11:41Z</time>
      </trkpt>
      <trkpt lat="45.15666" lon="5.97322">
        <ele>2308.8</ele>
        <time>2020-08-11T09:11:42Z</time>
      </trkpt>
      <trkpt lat="45.15667" lon="5.97327">
        <ele>2308.8</ele>
        <time>2020-08-11T09:11:43Z</time>
      </trkpt>
      <trkpt lat="45.15667" lon="5.97327">
        <ele>2308.2</ele>
        <time>2020-08-11T09:11:44Z</time>
      </trkpt>
      <trkpt lat="45.15667" lon="5.97327">
        <ele>2308</ele>
        <time>2020-08-11T09:11:45Z</time>
      </trkpt>
      <trkpt lat="45.15668" lon="5.97329">
        <ele>2308</ele>
        <time>2020-08-11T09:11:46Z</time>
      </trkpt>
      <trkpt lat="45.15668" lon="5.97329">
        <ele>2307.6</ele>
        <time>2020-08-11T09:11:47Z</time>
      </trkpt>
      <trkpt lat="45.15668" lon="5.97329">
        <ele>2307.6</ele>
        <time>2020-08-11T09:11:48Z</time>
      </trkpt>
      <trkpt lat="45.15669" lon="5.97332">
        <ele>2307.8</ele>
        <time>2020-08-11T09:11:49Z</time>
      </trkpt>
      <trkpt lat="45.1567" lon="5.97335">
        <ele>2307.6</ele>
        <time>2020-08-11T09:11:50Z</time>
      </trkpt>
      <trkpt lat="45.1567" lon="5.97335">
        <ele>2307.8</ele>
        <time>2020-08-11T09:11:51Z</time>
      </trkpt>
      <trkpt lat="45.1567" lon="5.97335">
        <ele>2307.6</ele>
        <time>2020-08-11T09:11:52Z</time>
      </trkpt>
      <trkpt lat="45.15671" lon="5.97337">
        <ele>2307.6</ele>
        <time>2020-08-11T09:11:53Z</time>
      </trkpt>
      <trkpt lat="45.15671" lon="5.97337">
        <ele>2307.8</ele>
        <time>2020-08-11T09:11:54Z</time>
      </trkpt>
      <trkpt lat="45.15671" lon="5.97337">
        <ele>2307.6</ele>
        <time>2020-08-11T09:11:55Z</time>
      </trkpt>
      <trkpt lat="45.15671" lon="5.97337">
        <ele>2307.8</ele>
        <time>2020-08-11T09:11:56Z</time>
      </trkpt>
      <trkpt lat="45.15672" lon="5.9734">
        <ele>2307.8</ele>
        <time>2020-08-11T09:11:57Z</time>
      </trkpt>
      <trkpt lat="45.15672" lon="5.9734">
        <ele>2308</ele>
        <time>2020-08-11T09:11:58Z</time>
      </trkpt>
      <trkpt lat="45.15672" lon="5.9734">
        <ele>2308</ele>
        <time>2020-08-11T09:11:59Z</time>
      </trkpt>
      <trkpt lat="45.15673" lon="5.97342">
        <ele>2308</ele>
        <time>2020-08-11T09:12:00Z</time>
      </trkpt>
      <trkpt lat="45.15673" lon="5.97342">
        <ele>2307.6</ele>
        <time>2020-08-11T09:12:01Z</time>
      </trkpt>
      <trkpt lat="45.15673" lon="5.97342">
        <ele>2307.6</ele>
        <time>2020-08-11T09:12:02Z</time>
      </trkpt>
      <trkpt lat="45.15673" lon="5.97342">
        <ele>2307.2</ele>
        <time>2020-08-11T09:12:03Z</time>
      </trkpt>
      <trkpt lat="45.15673" lon="5.97342">
        <ele>2307</ele>
        <time>2020-08-11T09:12:04Z</time>
      </trkpt>
      <trkpt lat="45.15673" lon="5.97342">
        <ele>2307</ele>
        <time>2020-08-11T09:12:05Z</time>
      </trkpt>
      <trkpt lat="45.15673" lon="5.97342">
        <ele>2306.6</ele>
        <time>2020-08-11T09:12:06Z</time>
      </trkpt>
      <trkpt lat="45.15672" lon="5.97347">
        <ele>2306.4</ele>
        <time>2020-08-11T09:12:07Z</time>
      </trkpt>
      <trkpt lat="45.15672" lon="5.97349">
        <ele>2306</ele>
        <time>2020-08-11T09:12:08Z</time>
      </trkpt>
      <trkpt lat="45.15672" lon="5.97349">
        <ele>2305.4</ele>
        <time>2020-08-11T09:12:09Z</time>
      </trkpt>
      <trkpt lat="45.15672" lon="5.97349">
        <ele>2305.2</ele>
        <time>2020-08-11T09:12:10Z</time>
      </trkpt>
      <trkpt lat="45.15672" lon="5.97349">
        <ele>2305</ele>
        <time>2020-08-11T09:12:11Z</time>
      </trkpt>
      <trkpt lat="45.15672" lon="5.97352">
        <ele>2304.6</ele>
        <time>2020-08-11T09:12:12Z</time>
      </trkpt>
      <trkpt lat="45.15672" lon="5.97352">
        <ele>2304.4</ele>
        <time>2020-08-11T09:12:13Z</time>
      </trkpt>
      <trkpt lat="45.15672" lon="5.97352">
        <ele>2304</ele>
        <time>2020-08-11T09:12:14Z</time>
      </trkpt>
      <trkpt lat="45.15672" lon="5.97356">
        <ele>2303.6</ele>
        <time>2020-08-11T09:12:15Z</time>
      </trkpt>
      <trkpt lat="45.15672" lon="5.97356">
        <ele>2302.6</ele>
        <time>2020-08-11T09:12:16Z</time>
      </trkpt>
      <trkpt lat="45.15672" lon="5.97356">
        <ele>2302</ele>
        <time>2020-08-11T09:12:17Z</time>
      </trkpt>
      <trkpt lat="45.15673" lon="5.9736">
        <ele>2302</ele>
        <time>2020-08-11T09:12:18Z</time>
      </trkpt>
      <trkpt lat="45.15675" lon="5.97364">
        <ele>2302</ele>
        <time>2020-08-11T09:12:19Z</time>
      </trkpt>
      <trkpt lat="45.15675" lon="5.97364">
        <ele>2302</ele>
        <time>2020-08-11T09:12:20Z</time>
      </trkpt>
      <trkpt lat="45.15676" lon="5.97367">
        <ele>2301.8</ele>
        <time>2020-08-11T09:12:21Z</time>
      </trkpt>
      <trkpt lat="45.15677" lon="5.97372">
        <ele>2301.6</ele>
        <time>2020-08-11T09:12:22Z</time>
      </trkpt>
      <trkpt lat="45.15677" lon="5.97372">
        <ele>2301.4</ele>
        <time>2020-08-11T09:12:23Z</time>
      </trkpt>
      <trkpt lat="45.15677" lon="5.97372">
        <ele>2300.8</ele>
        <time>2020-08-11T09:12:24Z</time>
      </trkpt>
      <trkpt lat="45.15677" lon="5.97375">
        <ele>2301</ele>
        <time>2020-08-11T09:12:25Z</time>
      </trkpt>
      <trkpt lat="45.15677" lon="5.97377">
        <ele>2300.8</ele>
        <time>2020-08-11T09:12:26Z</time>
      </trkpt>
      <trkpt lat="45.15677" lon="5.97379">
        <ele>2300.8</ele>
        <time>2020-08-11T09:12:27Z</time>
      </trkpt>
      <trkpt lat="45.15677" lon="5.97381">
        <ele>2300.8</ele>
        <time>2020-08-11T09:12:28Z</time>
      </trkpt>
      <trkpt lat="45.15677" lon="5.97384">
        <ele>2300.8</ele>
        <time>2020-08-11T09:12:29Z</time>
      </trkpt>
      <trkpt lat="45.15677" lon="5.97384">
        <ele>2301</ele>
        <time>2020-08-11T09:12:30Z</time>
      </trkpt>
      <trkpt lat="45.15677" lon="5.97384">
        <ele>2301</ele>
        <time>2020-08-11T09:12:31Z</time>
      </trkpt>
      <trkpt lat="45.15678" lon="5.97387">
        <ele>2301.4</ele>
        <time>2020-08-11T09:12:32Z</time>
      </trkpt>
      <trkpt lat="45.15678" lon="5.97387">
        <ele>2301.6</ele>
        <time>2020-08-11T09:12:33Z</time>
      </trkpt>
      <trkpt lat="45.15678" lon="5.97387">
        <ele>2301.4</ele>
        <time>2020-08-11T09:12:34Z</time>
      </trkpt>
      <trkpt lat="45.15679" lon="5.9739">
        <ele>2301.4</ele>
        <time>2020-08-11T09:12:35Z</time>
      </trkpt>
      <trkpt lat="45.15679" lon="5.9739">
        <ele>2301.8</ele>
        <time>2020-08-11T09:12:36Z</time>
      </trkpt>
      <trkpt lat="45.15679" lon="5.9739">
        <ele>2302</ele>
        <time>2020-08-11T09:12:37Z</time>
      </trkpt>
      <trkpt lat="45.15681" lon="5.97391">
        <ele>2302.4</ele>
        <time>2020-08-11T09:12:38Z</time>
      </trkpt>
      <trkpt lat="45.15681" lon="5.97391">
        <ele>2303</ele>
        <time>2020-08-11T09:12:39Z</time>
      </trkpt>
      <trkpt lat="45.15681" lon="5.97391">
        <ele>2303.4</ele>
        <time>2020-08-11T09:12:40Z</time>
      </trkpt>
      <trkpt lat="45.15683" lon="5.97393">
        <ele>2303.6</ele>
        <time>2020-08-11T09:12:41Z</time>
      </trkpt>
      <trkpt lat="45.15683" lon="5.97393">
        <ele>2303</ele>
        <time>2020-08-11T09:12:42Z</time>
      </trkpt>
      <trkpt lat="45.15683" lon="5.97393">
        <ele>2303.2</ele>
        <time>2020-08-11T09:12:43Z</time>
      </trkpt>
      <trkpt lat="45.15683" lon="5.97393">
        <ele>2303.2</ele>
        <time>2020-08-11T09:12:44Z</time>
      </trkpt>
      <trkpt lat="45.15684" lon="5.97395">
        <ele>2303.4</ele>
        <time>2020-08-11T09:12:45Z</time>
      </trkpt>
      <trkpt lat="45.15684" lon="5.97395">
        <ele>2303.6</ele>
        <time>2020-08-11T09:12:46Z</time>
      </trkpt>
      <trkpt lat="45.15684" lon="5.97395">
        <ele>2303.8</ele>
        <time>2020-08-11T09:12:47Z</time>
      </trkpt>
      <trkpt lat="45.15686" lon="5.97397">
        <ele>2303.8</ele>
        <time>2020-08-11T09:12:48Z</time>
      </trkpt>
      <trkpt lat="45.15686" lon="5.97396">
        <ele>2304</ele>
        <time>2020-08-11T09:12:49Z</time>
      </trkpt>
      <trkpt lat="45.15686" lon="5.97396">
        <ele>2304.4</ele>
        <time>2020-08-11T09:12:50Z</time>
      </trkpt>
      <trkpt lat="45.15686" lon="5.97396">
        <ele>2304.6</ele>
        <time>2020-08-11T09:12:51Z</time>
      </trkpt>
      <trkpt lat="45.15686" lon="5.97396">
        <ele>2305.2</ele>
        <time>2020-08-11T09:12:52Z</time>
      </trkpt>
      <trkpt lat="45.15687" lon="5.97395">
        <ele>2305.2</ele>
        <time>2020-08-11T09:12:53Z</time>
      </trkpt>
      <trkpt lat="45.15687" lon="5.97395">
        <ele>2305.4</ele>
        <time>2020-08-11T09:12:54Z</time>
      </trkpt>
      <trkpt lat="45.15687" lon="5.97395">
        <ele>2305.6</ele>
        <time>2020-08-11T09:12:55Z</time>
      </trkpt>
      <trkpt lat="45.15687" lon="5.97395">
        <ele>2305.6</ele>
        <time>2020-08-11T09:12:56Z</time>
      </trkpt>
      <trkpt lat="45.15687" lon="5.97395">
        <ele>2306</ele>
        <time>2020-08-11T09:12:57Z</time>
      </trkpt>
      <trkpt lat="45.15687" lon="5.97394">
        <ele>2306.4</ele>
        <time>2020-08-11T09:12:58Z</time>
      </trkpt>
      <trkpt lat="45.15687" lon="5.97394">
        <ele>2306.4</ele>
        <time>2020-08-11T09:12:59Z</time>
      </trkpt>
      <trkpt lat="45.15687" lon="5.97394">
        <ele>2306.6</ele>
        <time>2020-08-11T09:13:00Z</time>
      </trkpt>
      <trkpt lat="45.15687" lon="5.97394">
        <ele>2306.8</ele>
        <time>2020-08-11T09:13:01Z</time>
      </trkpt>
      <trkpt lat="45.15688" lon="5.97393">
        <ele>2307</ele>
        <time>2020-08-11T09:13:02Z</time>
      </trkpt>
      <trkpt lat="45.15688" lon="5.97393">
        <ele>2307.2</ele>
        <time>2020-08-11T09:13:03Z</time>
      </trkpt>
      <trkpt lat="45.15688" lon="5.97393">
        <ele>2307.4</ele>
        <time>2020-08-11T09:13:04Z</time>
      </trkpt>
      <trkpt lat="45.15688" lon="5.97393">
        <ele>2307.6</ele>
        <time>2020-08-11T09:13:05Z</time>
      </trkpt>
      <trkpt lat="45.15688" lon="5.97392">
        <ele>2307.8</ele>
        <time>2020-08-11T09:13:06Z</time>
      </trkpt>
      <trkpt lat="45.15688" lon="5.97392">
        <ele>2307.8</ele>
        <time>2020-08-11T09:13:07Z</time>
      </trkpt>
      <trkpt lat="45.15688" lon="5.97392">
        <ele>2308</ele>
        <time>2020-08-11T09:13:08Z</time>
      </trkpt>
      <trkpt lat="45.15688" lon="5.97392">
        <ele>2308.2</ele>
        <time>2020-08-11T09:13:09Z</time>
      </trkpt>
      <trkpt lat="45.15688" lon="5.97392">
        <ele>2308.4</ele>
        <time>2020-08-11T09:13:10Z</time>
      </trkpt>
      <trkpt lat="45.15688" lon="5.97391">
        <ele>2308.4</ele>
        <time>2020-08-11T09:13:11Z</time>
      </trkpt>
      <trkpt lat="45.15689" lon="5.97391">
        <ele>2308.6</ele>
        <time>2020-08-11T09:13:12Z</time>
      </trkpt>
      <trkpt lat="45.15689" lon="5.97391">
        <ele>2308.4</ele>
        <time>2020-08-11T09:13:13Z</time>
      </trkpt>
      <trkpt lat="45.15689" lon="5.97391">
        <ele>2308.6</ele>
        <time>2020-08-11T09:13:14Z</time>
      </trkpt>
      <trkpt lat="45.15689" lon="5.9739">
        <ele>2308.8</ele>
        <time>2020-08-11T09:13:15Z</time>
      </trkpt>
      <trkpt lat="45.15689" lon="5.9739">
        <ele>2308.8</ele>
        <time>2020-08-11T09:13:16Z</time>
      </trkpt>
      <trkpt lat="45.15689" lon="5.9739">
        <ele>2308.8</ele>
        <time>2020-08-11T09:13:17Z</time>
      </trkpt>
      <trkpt lat="45.15689" lon="5.9739">
        <ele>2309.2</ele>
        <time>2020-08-11T09:13:18Z</time>
      </trkpt>
      <trkpt lat="45.15689" lon="5.97389">
        <ele>2309.2</ele>
        <time>2020-08-11T09:13:19Z</time>
      </trkpt>
      <trkpt lat="45.15689" lon="5.97389">
        <ele>2309.2</ele>
        <time>2020-08-11T09:13:20Z</time>
      </trkpt>
      <trkpt lat="45.15689" lon="5.97389">
        <ele>2309.4</ele>
        <time>2020-08-11T09:13:21Z</time>
      </trkpt>
      <trkpt lat="45.1569" lon="5.97389">
        <ele>2309.4</ele>
        <time>2020-08-11T09:13:22Z</time>
      </trkpt>
      <trkpt lat="45.1569" lon="5.97389">
        <ele>2309.6</ele>
        <time>2020-08-11T09:13:23Z</time>
      </trkpt>
      <trkpt lat="45.1569" lon="5.97388">
        <ele>2309.6</ele>
        <time>2020-08-11T09:13:24Z</time>
      </trkpt>
      <trkpt lat="45.1569" lon="5.97388">
        <ele>2309.6</ele>
        <time>2020-08-11T09:13:25Z</time>
      </trkpt>
      <trkpt lat="45.1569" lon="5.97388">
        <ele>2309.4</ele>
        <time>2020-08-11T09:13:26Z</time>
      </trkpt>
      <trkpt lat="45.1569" lon="5.97388">
        <ele>2309.6</ele>
        <time>2020-08-11T09:13:27Z</time>
      </trkpt>
      <trkpt lat="45.1569" lon="5.97387">
        <ele>2309.6</ele>
        <time>2020-08-11T09:13:28Z</time>
      </trkpt>
      <trkpt lat="45.1569" lon="5.97387">
        <ele>2309.6</ele>
        <time>2020-08-11T09:13:29Z</time>
      </trkpt>
      <trkpt lat="45.1569" lon="5.97387">
        <ele>2309.4</ele>
        <time>2020-08-11T09:13:30Z</time>
      </trkpt>
      <trkpt lat="45.15691" lon="5.97387">
        <ele>2309.2</ele>
        <time>2020-08-11T09:13:31Z</time>
      </trkpt>
      <trkpt lat="45.15691" lon="5.97386">
        <ele>2309.2</ele>
        <time>2020-08-11T09:13:32Z</time>
      </trkpt>
      <trkpt lat="45.15691" lon="5.97386">
        <ele>2309.2</ele>
        <time>2020-08-11T09:13:33Z</time>
      </trkpt>
      <trkpt lat="45.15691" lon="5.97386">
        <ele>2309.6</ele>
        <time>2020-08-11T09:13:34Z</time>
      </trkpt>
      <trkpt lat="45.15691" lon="5.97386">
        <ele>2309.8</ele>
        <time>2020-08-11T09:13:35Z</time>
      </trkpt>
      <trkpt lat="45.15691" lon="5.97386">
        <ele>2309.8</ele>
        <time>2020-08-11T09:13:36Z</time>
      </trkpt>
      <trkpt lat="45.15691" lon="5.97385">
        <ele>2309.8</ele>
        <time>2020-08-11T09:13:37Z</time>
      </trkpt>
      <trkpt lat="45.15691" lon="5.97385">
        <ele>2309.6</ele>
        <time>2020-08-11T09:13:38Z</time>
      </trkpt>
      <trkpt lat="45.15691" lon="5.97385">
        <ele>2309.6</ele>
        <time>2020-08-11T09:13:39Z</time>
      </trkpt>
      <trkpt lat="45.15691" lon="5.97385">
        <ele>2310</ele>
        <time>2020-08-11T09:13:40Z</time>
      </trkpt>
      <trkpt lat="45.15692" lon="5.97384">
        <ele>2310</ele>
        <time>2020-08-11T09:13:41Z</time>
      </trkpt>
      <trkpt lat="45.15692" lon="5.97384">
        <ele>2310.2</ele>
        <time>2020-08-11T09:13:42Z</time>
      </trkpt>
      <trkpt lat="45.15692" lon="5.97384">
        <ele>2310</ele>
        <time>2020-08-11T09:13:43Z</time>
      </trkpt>
      <trkpt lat="45.15692" lon="5.97384">
        <ele>2310.2</ele>
        <time>2020-08-11T09:13:44Z</time>
      </trkpt>
      <trkpt lat="45.15692" lon="5.97383">
        <ele>2310.4</ele>
        <time>2020-08-11T09:13:45Z</time>
      </trkpt>
      <trkpt lat="45.15692" lon="5.97383">
        <ele>2310.6</ele>
        <time>2020-08-11T09:13:46Z</time>
      </trkpt>
      <trkpt lat="45.15692" lon="5.97383">
        <ele>2310.6</ele>
        <time>2020-08-11T09:13:47Z</time>
      </trkpt>
      <trkpt lat="45.15692" lon="5.97383">
        <ele>2311</ele>
        <time>2020-08-11T09:13:48Z</time>
      </trkpt>
      <trkpt lat="45.15692" lon="5.97383">
        <ele>2311.4</ele>
        <time>2020-08-11T09:13:49Z</time>
      </trkpt>
      <trkpt lat="45.15693" lon="5.97382">
        <ele>2312</ele>
        <time>2020-08-11T09:13:50Z</time>
      </trkpt>
      <trkpt lat="45.15693" lon="5.97382">
        <ele>2312</ele>
        <time>2020-08-11T09:13:51Z</time>
      </trkpt>
      <trkpt lat="45.15693" lon="5.97382">
        <ele>2312.2</ele>
        <time>2020-08-11T09:13:52Z</time>
      </trkpt>
      <trkpt lat="45.15693" lon="5.97382">
        <ele>2312.4</ele>
        <time>2020-08-11T09:13:53Z</time>
      </trkpt>
      <trkpt lat="45.15693" lon="5.97381">
        <ele>2312.6</ele>
        <time>2020-08-11T09:13:54Z</time>
      </trkpt>
      <trkpt lat="45.15693" lon="5.97381">
        <ele>2312.8</ele>
        <time>2020-08-11T09:13:55Z</time>
      </trkpt>
      <trkpt lat="45.15693" lon="5.97381">
        <ele>2313</ele>
        <time>2020-08-11T09:13:56Z</time>
      </trkpt>
      <trkpt lat="45.15693" lon="5.97381">
        <ele>2313.2</ele>
        <time>2020-08-11T09:13:57Z</time>
      </trkpt>
      <trkpt lat="45.15693" lon="5.9738">
        <ele>2313.6</ele>
        <time>2020-08-11T09:13:58Z</time>
      </trkpt>
      <trkpt lat="45.15693" lon="5.9738">
        <ele>2313.8</ele>
        <time>2020-08-11T09:13:59Z</time>
      </trkpt>
      <trkpt lat="45.15694" lon="5.9738">
        <ele>2314</ele>
        <time>2020-08-11T09:14:00Z</time>
      </trkpt>
      <trkpt lat="45.15694" lon="5.9738">
        <ele>2314</ele>
        <time>2020-08-11T09:14:01Z</time>
      </trkpt>
      <trkpt lat="45.15694" lon="5.9738">
        <ele>2314.2</ele>
        <time>2020-08-11T09:14:02Z</time>
      </trkpt>
      <trkpt lat="45.15694" lon="5.97379">
        <ele>2314.4</ele>
        <time>2020-08-11T09:14:03Z</time>
      </trkpt>
      <trkpt lat="45.15694" lon="5.97379">
        <ele>2314.8</ele>
        <time>2020-08-11T09:14:04Z</time>
      </trkpt>
      <trkpt lat="45.15694" lon="5.97379">
        <ele>2315</ele>
        <time>2020-08-11T09:14:05Z</time>
      </trkpt>
      <trkpt lat="45.15694" lon="5.97379">
        <ele>2315.4</ele>
        <time>2020-08-11T09:14:06Z</time>
      </trkpt>
      <trkpt lat="45.15694" lon="5.97378">
        <ele>2315.6</ele>
        <time>2020-08-11T09:14:07Z</time>
      </trkpt>
      <trkpt lat="45.15694" lon="5.97378">
        <ele>2315.6</ele>
        <time>2020-08-11T09:14:08Z</time>
      </trkpt>
      <trkpt lat="45.15694" lon="5.97378">
        <ele>2315.8</ele>
        <time>2020-08-11T09:14:09Z</time>
      </trkpt>
      <trkpt lat="45.15695" lon="5.97378">
        <ele>2316</ele>
        <time>2020-08-11T09:14:10Z</time>
      </trkpt>
      <trkpt lat="45.15695" lon="5.97377">
        <ele>2316.6</ele>
        <time>2020-08-11T09:14:11Z</time>
      </trkpt>
      <trkpt lat="45.15695" lon="5.97377">
        <ele>2316.8</ele>
        <time>2020-08-11T09:14:12Z</time>
      </trkpt>
      <trkpt lat="45.15695" lon="5.97377">
        <ele>2317.2</ele>
        <time>2020-08-11T09:14:13Z</time>
      </trkpt>
      <trkpt lat="45.15695" lon="5.97377">
        <ele>2317.4</ele>
        <time>2020-08-11T09:14:14Z</time>
      </trkpt>
      <trkpt lat="45.15695" lon="5.97377">
        <ele>2317.8</ele>
        <time>2020-08-11T09:14:15Z</time>
      </trkpt>
      <trkpt lat="45.15695" lon="5.97376">
        <ele>2317.8</ele>
        <time>2020-08-11T09:14:16Z</time>
      </trkpt>
      <trkpt lat="45.15695" lon="5.97376">
        <ele>2318</ele>
        <time>2020-08-11T09:14:17Z</time>
      </trkpt>
      <trkpt lat="45.15695" lon="5.97376">
        <ele>2318.2</ele>
        <time>2020-08-11T09:14:18Z</time>
      </trkpt>
      <trkpt lat="45.15696" lon="5.97376">
        <ele>2318.4</ele>
        <time>2020-08-11T09:14:19Z</time>
      </trkpt>
      <trkpt lat="45.15696" lon="5.97375">
        <ele>2318.6</ele>
        <time>2020-08-11T09:14:20Z</time>
      </trkpt>
      <trkpt lat="45.15696" lon="5.97375">
        <ele>2318.8</ele>
        <time>2020-08-11T09:14:21Z</time>
      </trkpt>
      <trkpt lat="45.15696" lon="5.97375">
        <ele>2319.2</ele>
        <time>2020-08-11T09:14:22Z</time>
      </trkpt>
      <trkpt lat="45.15696" lon="5.97375">
        <ele>2319.4</ele>
        <time>2020-08-11T09:14:23Z</time>
      </trkpt>
      <trkpt lat="45.15696" lon="5.97374">
        <ele>2319.8</ele>
        <time>2020-08-11T09:14:24Z</time>
      </trkpt>
      <trkpt lat="45.15696" lon="5.97374">
        <ele>2320</ele>
        <time>2020-08-11T09:14:25Z</time>
      </trkpt>
      <trkpt lat="45.15696" lon="5.97374">
        <ele>2320</ele>
        <time>2020-08-11T09:14:26Z</time>
      </trkpt>
      <trkpt lat="45.15696" lon="5.97374">
        <ele>2320.2</ele>
        <time>2020-08-11T09:14:27Z</time>
      </trkpt>
      <trkpt lat="45.15696" lon="5.97374">
        <ele>2320.4</ele>
        <time>2020-08-11T09:14:28Z</time>
      </trkpt>
      <trkpt lat="45.15696" lon="5.97374">
        <ele>2320.6</ele>
        <time>2020-08-11T09:14:29Z</time>
      </trkpt>
      <trkpt lat="45.15696" lon="5.97374">
        <ele>2320.6</ele>
        <time>2020-08-11T09:14:30Z</time>
      </trkpt>
      <trkpt lat="45.15696" lon="5.97374">
        <ele>2320.8</ele>
        <time>2020-08-11T09:14:31Z</time>
      </trkpt>
      <trkpt lat="45.15694" lon="5.97374">
        <ele>2320.8</ele>
        <time>2020-08-11T09:14:32Z</time>
      </trkpt>
      <trkpt lat="45.15694" lon="5.97374">
        <ele>2321</ele>
        <time>2020-08-11T09:14:33Z</time>
      </trkpt>
      <trkpt lat="45.15694" lon="5.97374">
        <ele>2321.2</ele>
        <time>2020-08-11T09:14:34Z</time>
      </trkpt>
      <trkpt lat="45.15693" lon="5.97373">
        <ele>2321.4</ele>
        <time>2020-08-11T09:14:35Z</time>
      </trkpt>
      <trkpt lat="45.15693" lon="5.97372">
        <ele>2321.8</ele>
        <time>2020-08-11T09:14:36Z</time>
      </trkpt>
      <trkpt lat="45.15693" lon="5.97371">
        <ele>2321.8</ele>
        <time>2020-08-11T09:14:37Z</time>
      </trkpt>
      <trkpt lat="45.15692" lon="5.9737">
        <ele>2322</ele>
        <time>2020-08-11T09:14:38Z</time>
      </trkpt>
      <trkpt lat="45.15692" lon="5.97369">
        <ele>2322</ele>
        <time>2020-08-11T09:14:39Z</time>
      </trkpt>
      <trkpt lat="45.15691" lon="5.97368">
        <ele>2322.4</ele>
        <time>2020-08-11T09:14:40Z</time>
      </trkpt>
      <trkpt lat="45.15691" lon="5.97367">
        <ele>2322.8</ele>
        <time>2020-08-11T09:14:41Z</time>
      </trkpt>
      <trkpt lat="45.15691" lon="5.97366">
        <ele>2323.2</ele>
        <time>2020-08-11T09:14:42Z</time>
      </trkpt>
      <trkpt lat="45.1569" lon="5.97365">
        <ele>2323.4</ele>
        <time>2020-08-11T09:14:43Z</time>
      </trkpt>
      <trkpt lat="45.1569" lon="5.97365">
        <ele>2323.6</ele>
        <time>2020-08-11T09:14:44Z</time>
      </trkpt>
      <trkpt lat="45.15689" lon="5.97364">
        <ele>2323.6</ele>
        <time>2020-08-11T09:14:45Z</time>
      </trkpt>
      <trkpt lat="45.15689" lon="5.97363">
        <ele>2323.8</ele>
        <time>2020-08-11T09:14:46Z</time>
      </trkpt>
      <trkpt lat="45.15688" lon="5.97361">
        <ele>2324</ele>
        <time>2020-08-11T09:14:47Z</time>
      </trkpt>
      <trkpt lat="45.15687" lon="5.97359">
        <ele>2324.4</ele>
        <time>2020-08-11T09:14:48Z</time>
      </trkpt>
      <trkpt lat="45.15686" lon="5.97357">
        <ele>2324.6</ele>
        <time>2020-08-11T09:14:49Z</time>
      </trkpt>
      <trkpt lat="45.15685" lon="5.97355">
        <ele>2325</ele>
        <time>2020-08-11T09:14:50Z</time>
      </trkpt>
      <trkpt lat="45.15685" lon="5.97353">
        <ele>2325</ele>
        <time>2020-08-11T09:14:51Z</time>
      </trkpt>
      <trkpt lat="45.15684" lon="5.97351">
        <ele>2325.2</ele>
        <time>2020-08-11T09:14:52Z</time>
      </trkpt>
      <trkpt lat="45.15684" lon="5.97351">
        <ele>2325.4</ele>
        <time>2020-08-11T09:14:53Z</time>
      </trkpt>
      <trkpt lat="45.15684" lon="5.97351">
        <ele>2325.6</ele>
        <time>2020-08-11T09:14:54Z</time>
      </trkpt>
      <trkpt lat="45.15685" lon="5.97351">
        <ele>2326</ele>
        <time>2020-08-11T09:14:55Z</time>
      </trkpt>
      <trkpt lat="45.15685" lon="5.97351">
        <ele>2326.2</ele>
        <time>2020-08-11T09:14:56Z</time>
      </trkpt>
      <trkpt lat="45.15686" lon="5.97351">
        <ele>2326.4</ele>
        <time>2020-08-11T09:14:57Z</time>
      </trkpt>
      <trkpt lat="45.15686" lon="5.97351">
        <ele>2326.4</ele>
        <time>2020-08-11T09:14:58Z</time>
      </trkpt>
      <trkpt lat="45.15686" lon="5.97351">
        <ele>2326.6</ele>
        <time>2020-08-11T09:14:59Z</time>
      </trkpt>
      <trkpt lat="45.15687" lon="5.97351">
        <ele>2327</ele>
        <time>2020-08-11T09:15:00Z</time>
      </trkpt>
      <trkpt lat="45.15687" lon="5.97351">
        <ele>2327</ele>
        <time>2020-08-11T09:15:01Z</time>
      </trkpt>
      <trkpt lat="45.15687" lon="5.97351">
        <ele>2327.2</ele>
        <time>2020-08-11T09:15:02Z</time>
      </trkpt>
      <trkpt lat="45.15688" lon="5.97351">
        <ele>2327.4</ele>
        <time>2020-08-11T09:15:03Z</time>
      </trkpt>
      <trkpt lat="45.15688" lon="5.97351">
        <ele>2327.6</ele>
        <time>2020-08-11T09:15:04Z</time>
      </trkpt>
      <trkpt lat="45.15689" lon="5.97351">
        <ele>2327.6</ele>
        <time>2020-08-11T09:15:05Z</time>
      </trkpt>
      <trkpt lat="45.15689" lon="5.97351">
        <ele>2327.8</ele>
        <time>2020-08-11T09:15:06Z</time>
      </trkpt>
      <trkpt lat="45.15689" lon="5.97351">
        <ele>2328</ele>
        <time>2020-08-11T09:15:07Z</time>
      </trkpt>
      <trkpt lat="45.1569" lon="5.97351">
        <ele>2328.2</ele>
        <time>2020-08-11T09:15:08Z</time>
      </trkpt>
      <trkpt lat="45.1569" lon="5.97351">
        <ele>2328.4</ele>
        <time>2020-08-11T09:15:09Z</time>
      </trkpt>
      <trkpt lat="45.15691" lon="5.97351">
        <ele>2328.6</ele>
        <time>2020-08-11T09:15:10Z</time>
      </trkpt>
      <trkpt lat="45.15691" lon="5.97351">
        <ele>2328.8</ele>
        <time>2020-08-11T09:15:11Z</time>
      </trkpt>
      <trkpt lat="45.15691" lon="5.97351">
        <ele>2328.8</ele>
        <time>2020-08-11T09:15:12Z</time>
      </trkpt>
      <trkpt lat="45.15692" lon="5.97352">
        <ele>2328.8</ele>
        <time>2020-08-11T09:15:13Z</time>
      </trkpt>
      <trkpt lat="45.15692" lon="5.97352">
        <ele>2329.2</ele>
        <time>2020-08-11T09:15:14Z</time>
      </trkpt>
      <trkpt lat="45.15692" lon="5.97352">
        <ele>2329.4</ele>
        <time>2020-08-11T09:15:15Z</time>
      </trkpt>
      <trkpt lat="45.15693" lon="5.97352">
        <ele>2329.6</ele>
        <time>2020-08-11T09:15:16Z</time>
      </trkpt>
      <trkpt lat="45.15693" lon="5.97352">
        <ele>2329.8</ele>
        <time>2020-08-11T09:15:17Z</time>
      </trkpt>
      <trkpt lat="45.15694" lon="5.97352">
        <ele>2330</ele>
        <time>2020-08-11T09:15:18Z</time>
      </trkpt>
      <trkpt lat="45.15694" lon="5.97352">
        <ele>2330.4</ele>
        <time>2020-08-11T09:15:19Z</time>
      </trkpt>
      <trkpt lat="45.15695" lon="5.97353">
        <ele>2330.6</ele>
        <time>2020-08-11T09:15:20Z</time>
      </trkpt>
      <trkpt lat="45.15695" lon="5.97353">
        <ele>2330.8</ele>
        <time>2020-08-11T09:15:21Z</time>
      </trkpt>
      <trkpt lat="45.15696" lon="5.97353">
        <ele>2331</ele>
        <time>2020-08-11T09:15:22Z</time>
      </trkpt>
      <trkpt lat="45.15696" lon="5.97353">
        <ele>2331</ele>
        <time>2020-08-11T09:15:23Z</time>
      </trkpt>
      <trkpt lat="45.15697" lon="5.97354">
        <ele>2331.2</ele>
        <time>2020-08-11T09:15:24Z</time>
      </trkpt>
      <trkpt lat="45.15697" lon="5.97354">
        <ele>2331.4</ele>
        <time>2020-08-11T09:15:25Z</time>
      </trkpt>
      <trkpt lat="45.15698" lon="5.97354">
        <ele>2331.4</ele>
        <time>2020-08-11T09:15:26Z</time>
      </trkpt>
      <trkpt lat="45.15698" lon="5.97355">
        <ele>2331.6</ele>
        <time>2020-08-11T09:15:27Z</time>
      </trkpt>
      <trkpt lat="45.15699" lon="5.97355">
        <ele>2331.8</ele>
        <time>2020-08-11T09:15:28Z</time>
      </trkpt>
      <trkpt lat="45.15699" lon="5.97355">
        <ele>2331.8</ele>
        <time>2020-08-11T09:15:29Z</time>
      </trkpt>
      <trkpt lat="45.157" lon="5.97355">
        <ele>2332.2</ele>
        <time>2020-08-11T09:15:30Z</time>
      </trkpt>
      <trkpt lat="45.157" lon="5.97356">
        <ele>2332.4</ele>
        <time>2020-08-11T09:15:31Z</time>
      </trkpt>
      <trkpt lat="45.15701" lon="5.97356">
        <ele>2332.8</ele>
        <time>2020-08-11T09:15:32Z</time>
      </trkpt>
      <trkpt lat="45.15701" lon="5.97356">
        <ele>2332.8</ele>
        <time>2020-08-11T09:15:33Z</time>
      </trkpt>
      <trkpt lat="45.15702" lon="5.97357">
        <ele>2333</ele>
        <time>2020-08-11T09:15:34Z</time>
      </trkpt>
      <trkpt lat="45.15702" lon="5.97356">
        <ele>2333</ele>
        <time>2020-08-11T09:15:35Z</time>
      </trkpt>
      <trkpt lat="45.15702" lon="5.97355">
        <ele>2333.4</ele>
        <time>2020-08-11T09:15:36Z</time>
      </trkpt>
      <trkpt lat="45.15702" lon="5.97355">
        <ele>2333.8</ele>
        <time>2020-08-11T09:15:37Z</time>
      </trkpt>
      <trkpt lat="45.15703" lon="5.97354">
        <ele>2333.8</ele>
        <time>2020-08-11T09:15:38Z</time>
      </trkpt>
      <trkpt lat="45.15703" lon="5.97354">
        <ele>2334.2</ele>
        <time>2020-08-11T09:15:39Z</time>
      </trkpt>
      <trkpt lat="45.15703" lon="5.97353">
        <ele>2334.4</ele>
        <time>2020-08-11T09:15:40Z</time>
      </trkpt>
      <trkpt lat="45.15704" lon="5.97353">
        <ele>2334.6</ele>
        <time>2020-08-11T09:15:41Z</time>
      </trkpt>
      <trkpt lat="45.15704" lon="5.97352">
        <ele>2334.6</ele>
        <time>2020-08-11T09:15:42Z</time>
      </trkpt>
      <trkpt lat="45.15704" lon="5.97352">
        <ele>2335</ele>
        <time>2020-08-11T09:15:43Z</time>
      </trkpt>
      <trkpt lat="45.15705" lon="5.97351">
        <ele>2335</ele>
        <time>2020-08-11T09:15:44Z</time>
      </trkpt>
      <trkpt lat="45.15705" lon="5.97351">
        <ele>2335.4</ele>
        <time>2020-08-11T09:15:45Z</time>
      </trkpt>
      <trkpt lat="45.15705" lon="5.9735">
        <ele>2335.6</ele>
        <time>2020-08-11T09:15:46Z</time>
      </trkpt>
      <trkpt lat="45.15705" lon="5.9735">
        <ele>2335.8</ele>
        <time>2020-08-11T09:15:47Z</time>
      </trkpt>
      <trkpt lat="45.15706" lon="5.97349">
        <ele>2336.2</ele>
        <time>2020-08-11T09:15:48Z</time>
      </trkpt>
      <trkpt lat="45.15706" lon="5.97349">
        <ele>2336.2</ele>
        <time>2020-08-11T09:15:49Z</time>
      </trkpt>
      <trkpt lat="45.15706" lon="5.97348">
        <ele>2336.6</ele>
        <time>2020-08-11T09:15:50Z</time>
      </trkpt>
      <trkpt lat="45.15707" lon="5.97347">
        <ele>2336.8</ele>
        <time>2020-08-11T09:15:51Z</time>
      </trkpt>
      <trkpt lat="45.15707" lon="5.97347">
        <ele>2337</ele>
        <time>2020-08-11T09:15:52Z</time>
      </trkpt>
      <trkpt lat="45.15707" lon="5.97346">
        <ele>2337.4</ele>
        <time>2020-08-11T09:15:53Z</time>
      </trkpt>
      <trkpt lat="45.15707" lon="5.97346">
        <ele>2337.6</ele>
        <time>2020-08-11T09:15:54Z</time>
      </trkpt>
      <trkpt lat="45.15708" lon="5.97345">
        <ele>2337.8</ele>
        <time>2020-08-11T09:15:55Z</time>
      </trkpt>
      <trkpt lat="45.15708" lon="5.97344">
        <ele>2337.8</ele>
        <time>2020-08-11T09:15:56Z</time>
      </trkpt>
      <trkpt lat="45.15708" lon="5.97344">
        <ele>2338</ele>
        <time>2020-08-11T09:15:57Z</time>
      </trkpt>
      <trkpt lat="45.15708" lon="5.97343">
        <ele>2338</ele>
        <time>2020-08-11T09:15:58Z</time>
      </trkpt>
      <trkpt lat="45.15708" lon="5.97342">
        <ele>2338.2</ele>
        <time>2020-08-11T09:15:59Z</time>
      </trkpt>
      <trkpt lat="45.15708" lon="5.97342">
        <ele>2338.6</ele>
        <time>2020-08-11T09:16:00Z</time>
      </trkpt>
      <trkpt lat="45.15708" lon="5.97341">
        <ele>2338.8</ele>
        <time>2020-08-11T09:16:01Z</time>
      </trkpt>
      <trkpt lat="45.15708" lon="5.9734">
        <ele>2339.2</ele>
        <time>2020-08-11T09:16:02Z</time>
      </trkpt>
      <trkpt lat="45.15708" lon="5.9734">
        <ele>2339.2</ele>
        <time>2020-08-11T09:16:03Z</time>
      </trkpt>
      <trkpt lat="45.15708" lon="5.97339">
        <ele>2339.4</ele>
        <time>2020-08-11T09:16:04Z</time>
      </trkpt>
      <trkpt lat="45.15708" lon="5.97338">
        <ele>2339.4</ele>
        <time>2020-08-11T09:16:05Z</time>
      </trkpt>
      <trkpt lat="45.15708" lon="5.97337">
        <ele>2339.8</ele>
        <time>2020-08-11T09:16:06Z</time>
      </trkpt>
      <trkpt lat="45.15708" lon="5.97337">
        <ele>2340</ele>
        <time>2020-08-11T09:16:07Z</time>
      </trkpt>
      <trkpt lat="45.15709" lon="5.97336">
        <ele>2340.2</ele>
        <time>2020-08-11T09:16:08Z</time>
      </trkpt>
      <trkpt lat="45.15709" lon="5.97335">
        <ele>2340.4</ele>
        <time>2020-08-11T09:16:09Z</time>
      </trkpt>
      <trkpt lat="45.15709" lon="5.97335">
        <ele>2340.4</ele>
        <time>2020-08-11T09:16:10Z</time>
      </trkpt>
      <trkpt lat="45.15709" lon="5.97334">
        <ele>2340.8</ele>
        <time>2020-08-11T09:16:11Z</time>
      </trkpt>
      <trkpt lat="45.15709" lon="5.97333">
        <ele>2341</ele>
        <time>2020-08-11T09:16:12Z</time>
      </trkpt>
      <trkpt lat="45.15709" lon="5.97332">
        <ele>2341.2</ele>
        <time>2020-08-11T09:16:13Z</time>
      </trkpt>
      <trkpt lat="45.15709" lon="5.97331">
        <ele>2341.6</ele>
        <time>2020-08-11T09:16:14Z</time>
      </trkpt>
      <trkpt lat="45.15709" lon="5.97329">
        <ele>2341.8</ele>
        <time>2020-08-11T09:16:15Z</time>
      </trkpt>
      <trkpt lat="45.15708" lon="5.97328">
        <ele>2342.2</ele>
        <time>2020-08-11T09:16:16Z</time>
      </trkpt>
      <trkpt lat="45.15708" lon="5.97327">
        <ele>2342.4</ele>
        <time>2020-08-11T09:16:17Z</time>
      </trkpt>
      <trkpt lat="45.15708" lon="5.97325">
        <ele>2342.4</ele>
        <time>2020-08-11T09:16:18Z</time>
      </trkpt>
      <trkpt lat="45.15708" lon="5.97324">
        <ele>2342.6</ele>
        <time>2020-08-11T09:16:19Z</time>
      </trkpt>
      <trkpt lat="45.15708" lon="5.97323">
        <ele>2342.6</ele>
        <time>2020-08-11T09:16:20Z</time>
      </trkpt>
      <trkpt lat="45.15708" lon="5.97321">
        <ele>2342.6</ele>
        <time>2020-08-11T09:16:21Z</time>
      </trkpt>
      <trkpt lat="45.15708" lon="5.9732">
        <ele>2343</ele>
        <time>2020-08-11T09:16:22Z</time>
      </trkpt>
      <trkpt lat="45.15708" lon="5.97319">
        <ele>2343.4</ele>
        <time>2020-08-11T09:16:23Z</time>
      </trkpt>
      <trkpt lat="45.15708" lon="5.97318">
        <ele>2343.4</ele>
        <time>2020-08-11T09:16:24Z</time>
      </trkpt>
      <trkpt lat="45.15708" lon="5.97317">
        <ele>2343.4</ele>
        <time>2020-08-11T09:16:25Z</time>
      </trkpt>
      <trkpt lat="45.15708" lon="5.97316">
        <ele>2343.6</ele>
        <time>2020-08-11T09:16:26Z</time>
      </trkpt>
      <trkpt lat="45.15708" lon="5.97314">
        <ele>2343.8</ele>
        <time>2020-08-11T09:16:27Z</time>
      </trkpt>
      <trkpt lat="45.15708" lon="5.97313">
        <ele>2344.2</ele>
        <time>2020-08-11T09:16:28Z</time>
      </trkpt>
      <trkpt lat="45.15708" lon="5.97312">
        <ele>2344.2</ele>
        <time>2020-08-11T09:16:29Z</time>
      </trkpt>
      <trkpt lat="45.15707" lon="5.97311">
        <ele>2344.4</ele>
        <time>2020-08-11T09:16:30Z</time>
      </trkpt>
      <trkpt lat="45.15707" lon="5.9731">
        <ele>2344.6</ele>
        <time>2020-08-11T09:16:31Z</time>
      </trkpt>
      <trkpt lat="45.15707" lon="5.97309">
        <ele>2344.8</ele>
        <time>2020-08-11T09:16:32Z</time>
      </trkpt>
      <trkpt lat="45.15707" lon="5.97308">
        <ele>2344.8</ele>
        <time>2020-08-11T09:16:33Z</time>
      </trkpt>
      <trkpt lat="45.15707" lon="5.97307">
        <ele>2345.4</ele>
        <time>2020-08-11T09:16:34Z</time>
      </trkpt>
      <trkpt lat="45.15709" lon="5.97307">
        <ele>2346</ele>
        <time>2020-08-11T09:16:35Z</time>
      </trkpt>
      <trkpt lat="45.15711" lon="5.97307">
        <ele>2346.2</ele>
        <time>2020-08-11T09:16:36Z</time>
      </trkpt>
      <trkpt lat="45.15712" lon="5.97307">
        <ele>2346.4</ele>
        <time>2020-08-11T09:16:37Z</time>
      </trkpt>
      <trkpt lat="45.15714" lon="5.97308">
        <ele>2346.6</ele>
        <time>2020-08-11T09:16:38Z</time>
      </trkpt>
      <trkpt lat="45.15715" lon="5.97308">
        <ele>2346.6</ele>
        <time>2020-08-11T09:16:39Z</time>
      </trkpt>
      <trkpt lat="45.15717" lon="5.97308">
        <ele>2346.8</ele>
        <time>2020-08-11T09:16:40Z</time>
      </trkpt>
      <trkpt lat="45.15718" lon="5.97308">
        <ele>2347</ele>
        <time>2020-08-11T09:16:41Z</time>
      </trkpt>
      <trkpt lat="45.15718" lon="5.97308">
        <ele>2347.2</ele>
        <time>2020-08-11T09:16:42Z</time>
      </trkpt>
      <trkpt lat="45.15719" lon="5.97307">
        <ele>2347.4</ele>
        <time>2020-08-11T09:16:43Z</time>
      </trkpt>
      <trkpt lat="45.1572" lon="5.97307">
        <ele>2347.6</ele>
        <time>2020-08-11T09:16:44Z</time>
      </trkpt>
      <trkpt lat="45.15721" lon="5.97306">
        <ele>2347.8</ele>
        <time>2020-08-11T09:16:45Z</time>
      </trkpt>
      <trkpt lat="45.15721" lon="5.97306">
        <ele>2347.8</ele>
        <time>2020-08-11T09:16:46Z</time>
      </trkpt>
      <trkpt lat="45.15721" lon="5.97306">
        <ele>2348.2</ele>
        <time>2020-08-11T09:16:47Z</time>
      </trkpt>
      <trkpt lat="45.15721" lon="5.97306">
        <ele>2348.4</ele>
        <time>2020-08-11T09:16:48Z</time>
      </trkpt>
      <trkpt lat="45.15722" lon="5.97304">
        <ele>2348.6</ele>
        <time>2020-08-11T09:16:49Z</time>
      </trkpt>
      <trkpt lat="45.15722" lon="5.97304">
        <ele>2349</ele>
        <time>2020-08-11T09:16:50Z</time>
      </trkpt>
      <trkpt lat="45.15722" lon="5.97304">
        <ele>2349</ele>
        <time>2020-08-11T09:16:51Z</time>
      </trkpt>
      <trkpt lat="45.15723" lon="5.97301">
        <ele>2349.6</ele>
        <time>2020-08-11T09:16:52Z</time>
      </trkpt>
      <trkpt lat="45.15723" lon="5.97301">
        <ele>2349.6</ele>
        <time>2020-08-11T09:16:53Z</time>
      </trkpt>
      <trkpt lat="45.15723" lon="5.97301">
        <ele>2349.8</ele>
        <time>2020-08-11T09:16:54Z</time>
      </trkpt>
      <trkpt lat="45.15723" lon="5.97298">
        <ele>2350</ele>
        <time>2020-08-11T09:16:55Z</time>
      </trkpt>
      <trkpt lat="45.15723" lon="5.97298">
        <ele>2350</ele>
        <time>2020-08-11T09:16:56Z</time>
      </trkpt>
      <trkpt lat="45.15723" lon="5.97298">
        <ele>2350.2</ele>
        <time>2020-08-11T09:16:57Z</time>
      </trkpt>
      <trkpt lat="45.15723" lon="5.97296">
        <ele>2350.6</ele>
        <time>2020-08-11T09:16:58Z</time>
      </trkpt>
      <trkpt lat="45.15723" lon="5.97296">
        <ele>2350.6</ele>
        <time>2020-08-11T09:16:59Z</time>
      </trkpt>
      <trkpt lat="45.15723" lon="5.97296">
        <ele>2350.6</ele>
        <time>2020-08-11T09:17:00Z</time>
      </trkpt>
      <trkpt lat="45.15723" lon="5.97293">
        <ele>2350.4</ele>
        <time>2020-08-11T09:17:01Z</time>
      </trkpt>
      <trkpt lat="45.15723" lon="5.97293">
        <ele>2350.8</ele>
        <time>2020-08-11T09:17:02Z</time>
      </trkpt>
      <trkpt lat="45.15723" lon="5.97293">
        <ele>2351.2</ele>
        <time>2020-08-11T09:17:03Z</time>
      </trkpt>
      <trkpt lat="45.15724" lon="5.9729">
        <ele>2351.4</ele>
        <time>2020-08-11T09:17:04Z</time>
      </trkpt>
      <trkpt lat="45.15724" lon="5.9729">
        <ele>2351.6</ele>
        <time>2020-08-11T09:17:05Z</time>
      </trkpt>
      <trkpt lat="45.15724" lon="5.9729">
        <ele>2351.8</ele>
        <time>2020-08-11T09:17:06Z</time>
      </trkpt>
      <trkpt lat="45.15724" lon="5.9729">
        <ele>2352.2</ele>
        <time>2020-08-11T09:17:07Z</time>
      </trkpt>
      <trkpt lat="45.15725" lon="5.97287">
        <ele>2352.6</ele>
        <time>2020-08-11T09:17:08Z</time>
      </trkpt>
      <trkpt lat="45.15725" lon="5.97287">
        <ele>2352.8</ele>
        <time>2020-08-11T09:17:09Z</time>
      </trkpt>
      <trkpt lat="45.15725" lon="5.97287">
        <ele>2353</ele>
        <time>2020-08-11T09:17:10Z</time>
      </trkpt>
      <trkpt lat="45.15725" lon="5.97287">
        <ele>2353</ele>
        <time>2020-08-11T09:17:11Z</time>
      </trkpt>
      <trkpt lat="45.15725" lon="5.97287">
        <ele>2353.2</ele>
        <time>2020-08-11T09:17:12Z</time>
      </trkpt>
      <trkpt lat="45.15726" lon="5.97285">
        <ele>2353.6</ele>
        <time>2020-08-11T09:17:13Z</time>
      </trkpt>
      <trkpt lat="45.15726" lon="5.97285">
        <ele>2354.2</ele>
        <time>2020-08-11T09:17:14Z</time>
      </trkpt>
      <trkpt lat="45.15726" lon="5.97285">
        <ele>2354.2</ele>
        <time>2020-08-11T09:17:15Z</time>
      </trkpt>
      <trkpt lat="45.15726" lon="5.97285">
        <ele>2354.6</ele>
        <time>2020-08-11T09:17:16Z</time>
      </trkpt>
      <trkpt lat="45.15726" lon="5.97285">
        <ele>2354.6</ele>
        <time>2020-08-11T09:17:17Z</time>
      </trkpt>
      <trkpt lat="45.15726" lon="5.97285">
        <ele>2354.8</ele>
        <time>2020-08-11T09:17:18Z</time>
      </trkpt>
      <trkpt lat="45.15726" lon="5.97285">
        <ele>2355</ele>
        <time>2020-08-11T09:17:19Z</time>
      </trkpt>
      <trkpt lat="45.15728" lon="5.97284">
        <ele>2355.2</ele>
        <time>2020-08-11T09:17:20Z</time>
      </trkpt>
      <trkpt lat="45.15728" lon="5.97284">
        <ele>2355.4</ele>
        <time>2020-08-11T09:17:21Z</time>
      </trkpt>
      <trkpt lat="45.15728" lon="5.97284">
        <ele>2355.6</ele>
        <time>2020-08-11T09:17:22Z</time>
      </trkpt>
      <trkpt lat="45.15729" lon="5.97284">
        <ele>2355.8</ele>
        <time>2020-08-11T09:17:23Z</time>
      </trkpt>
      <trkpt lat="45.15729" lon="5.97284">
        <ele>2355.8</ele>
        <time>2020-08-11T09:17:24Z</time>
      </trkpt>
      <trkpt lat="45.1573" lon="5.97284">
        <ele>2356</ele>
        <time>2020-08-11T09:17:25Z</time>
      </trkpt>
      <trkpt lat="45.1573" lon="5.97283">
        <ele>2356.2</ele>
        <time>2020-08-11T09:17:26Z</time>
      </trkpt>
      <trkpt lat="45.1573" lon="5.97283">
        <ele>2356.4</ele>
        <time>2020-08-11T09:17:27Z</time>
      </trkpt>
      <trkpt lat="45.15731" lon="5.97283">
        <ele>2356.8</ele>
        <time>2020-08-11T09:17:28Z</time>
      </trkpt>
      <trkpt lat="45.15731" lon="5.97283">
        <ele>2357</ele>
        <time>2020-08-11T09:17:29Z</time>
      </trkpt>
      <trkpt lat="45.15732" lon="5.97283">
        <ele>2357</ele>
        <time>2020-08-11T09:17:30Z</time>
      </trkpt>
      <trkpt lat="45.15732" lon="5.97283">
        <ele>2357.6</ele>
        <time>2020-08-11T09:17:31Z</time>
      </trkpt>
      <trkpt lat="45.15733" lon="5.97283">
        <ele>2357.6</ele>
        <time>2020-08-11T09:17:32Z</time>
      </trkpt>
      <trkpt lat="45.15733" lon="5.97283">
        <ele>2357.8</ele>
        <time>2020-08-11T09:17:33Z</time>
      </trkpt>
      <trkpt lat="45.15733" lon="5.97283">
        <ele>2358</ele>
        <time>2020-08-11T09:17:34Z</time>
      </trkpt>
      <trkpt lat="45.15734" lon="5.97282">
        <ele>2358.2</ele>
        <time>2020-08-11T09:17:35Z</time>
      </trkpt>
      <trkpt lat="45.15734" lon="5.97282">
        <ele>2358.4</ele>
        <time>2020-08-11T09:17:36Z</time>
      </trkpt>
      <trkpt lat="45.15735" lon="5.97282">
        <ele>2358.6</ele>
        <time>2020-08-11T09:17:37Z</time>
      </trkpt>
      <trkpt lat="45.15735" lon="5.97281">
        <ele>2358.6</ele>
        <time>2020-08-11T09:17:38Z</time>
      </trkpt>
      <trkpt lat="45.15735" lon="5.97281">
        <ele>2358.8</ele>
        <time>2020-08-11T09:17:39Z</time>
      </trkpt>
      <trkpt lat="45.15736" lon="5.97281">
        <ele>2359.2</ele>
        <time>2020-08-11T09:17:40Z</time>
      </trkpt>
      <trkpt lat="45.15736" lon="5.9728">
        <ele>2359.4</ele>
        <time>2020-08-11T09:17:41Z</time>
      </trkpt>
      <trkpt lat="45.15736" lon="5.9728">
        <ele>2359.6</ele>
        <time>2020-08-11T09:17:42Z</time>
      </trkpt>
      <trkpt lat="45.15737" lon="5.9728">
        <ele>2359.6</ele>
        <time>2020-08-11T09:17:43Z</time>
      </trkpt>
      <trkpt lat="45.15737" lon="5.97279">
        <ele>2359.8</ele>
        <time>2020-08-11T09:17:44Z</time>
      </trkpt>
      <trkpt lat="45.15738" lon="5.97279">
        <ele>2360</ele>
        <time>2020-08-11T09:17:45Z</time>
      </trkpt>
      <trkpt lat="45.15738" lon="5.97278">
        <ele>2360</ele>
        <time>2020-08-11T09:17:46Z</time>
      </trkpt>
      <trkpt lat="45.15738" lon="5.97278">
        <ele>2360.2</ele>
        <time>2020-08-11T09:17:47Z</time>
      </trkpt>
      <trkpt lat="45.15739" lon="5.97278">
        <ele>2360.4</ele>
        <time>2020-08-11T09:17:48Z</time>
      </trkpt>
      <trkpt lat="45.15739" lon="5.97277">
        <ele>2360.6</ele>
        <time>2020-08-11T09:17:49Z</time>
      </trkpt>
      <trkpt lat="45.15739" lon="5.97277">
        <ele>2360.8</ele>
        <time>2020-08-11T09:17:50Z</time>
      </trkpt>
      <trkpt lat="45.1574" lon="5.97277">
        <ele>2361</ele>
        <time>2020-08-11T09:17:51Z</time>
      </trkpt>
      <trkpt lat="45.1574" lon="5.97276">
        <ele>2361.2</ele>
        <time>2020-08-11T09:17:52Z</time>
      </trkpt>
      <trkpt lat="45.15741" lon="5.97276">
        <ele>2361.4</ele>
        <time>2020-08-11T09:17:53Z</time>
      </trkpt>
      <trkpt lat="45.15741" lon="5.97275">
        <ele>2361.6</ele>
        <time>2020-08-11T09:17:54Z</time>
      </trkpt>
      <trkpt lat="45.15741" lon="5.97275">
        <ele>2362</ele>
        <time>2020-08-11T09:17:55Z</time>
      </trkpt>
      <trkpt lat="45.15742" lon="5.97274">
        <ele>2362</ele>
        <time>2020-08-11T09:17:56Z</time>
      </trkpt>
      <trkpt lat="45.15742" lon="5.97274">
        <ele>2362</ele>
        <time>2020-08-11T09:17:57Z</time>
      </trkpt>
      <trkpt lat="45.15743" lon="5.97273">
        <ele>2362.2</ele>
        <time>2020-08-11T09:17:58Z</time>
      </trkpt>
      <trkpt lat="45.15743" lon="5.97273">
        <ele>2362.4</ele>
        <time>2020-08-11T09:17:59Z</time>
      </trkpt>
      <trkpt lat="45.15743" lon="5.97272">
        <ele>2362.6</ele>
        <time>2020-08-11T09:18:00Z</time>
      </trkpt>
      <trkpt lat="45.15744" lon="5.97272">
        <ele>2362.8</ele>
        <time>2020-08-11T09:18:01Z</time>
      </trkpt>
      <trkpt lat="45.15744" lon="5.97271">
        <ele>2363</ele>
        <time>2020-08-11T09:18:02Z</time>
      </trkpt>
      <trkpt lat="45.15744" lon="5.97271">
        <ele>2363.2</ele>
        <time>2020-08-11T09:18:03Z</time>
      </trkpt>
      <trkpt lat="45.15745" lon="5.9727">
        <ele>2363.4</ele>
        <time>2020-08-11T09:18:04Z</time>
      </trkpt>
      <trkpt lat="45.15745" lon="5.9727">
        <ele>2363.6</ele>
        <time>2020-08-11T09:18:05Z</time>
      </trkpt>
      <trkpt lat="45.15746" lon="5.97269">
        <ele>2363.8</ele>
        <time>2020-08-11T09:18:06Z</time>
      </trkpt>
      <trkpt lat="45.15746" lon="5.97269">
        <ele>2364</ele>
        <time>2020-08-11T09:18:07Z</time>
      </trkpt>
      <trkpt lat="45.15746" lon="5.97268">
        <ele>2364.4</ele>
        <time>2020-08-11T09:18:08Z</time>
      </trkpt>
      <trkpt lat="45.15747" lon="5.97268">
        <ele>2364.4</ele>
        <time>2020-08-11T09:18:09Z</time>
      </trkpt>
      <trkpt lat="45.15747" lon="5.97267">
        <ele>2364.6</ele>
        <time>2020-08-11T09:18:10Z</time>
      </trkpt>
      <trkpt lat="45.15747" lon="5.97267">
        <ele>2365</ele>
        <time>2020-08-11T09:18:11Z</time>
      </trkpt>
      <trkpt lat="45.15747" lon="5.97266">
        <ele>2365</ele>
        <time>2020-08-11T09:18:12Z</time>
      </trkpt>
      <trkpt lat="45.15747" lon="5.97266">
        <ele>2365.2</ele>
        <time>2020-08-11T09:18:13Z</time>
      </trkpt>
      <trkpt lat="45.15747" lon="5.97265">
        <ele>2365.2</ele>
        <time>2020-08-11T09:18:14Z</time>
      </trkpt>
      <trkpt lat="45.15747" lon="5.97265">
        <ele>2365.4</ele>
        <time>2020-08-11T09:18:15Z</time>
      </trkpt>
      <trkpt lat="45.15747" lon="5.97264">
        <ele>2365.8</ele>
        <time>2020-08-11T09:18:16Z</time>
      </trkpt>
      <trkpt lat="45.15748" lon="5.97264">
        <ele>2366.2</ele>
        <time>2020-08-11T09:18:17Z</time>
      </trkpt>
      <trkpt lat="45.15748" lon="5.97263">
        <ele>2366.4</ele>
        <time>2020-08-11T09:18:18Z</time>
      </trkpt>
      <trkpt lat="45.15748" lon="5.97263">
        <ele>2366.6</ele>
        <time>2020-08-11T09:18:19Z</time>
      </trkpt>
      <trkpt lat="45.15748" lon="5.97262">
        <ele>2366.8</ele>
        <time>2020-08-11T09:18:20Z</time>
      </trkpt>
      <trkpt lat="45.15748" lon="5.97262">
        <ele>2367</ele>
        <time>2020-08-11T09:18:21Z</time>
      </trkpt>
      <trkpt lat="45.15748" lon="5.97261">
        <ele>2367.4</ele>
        <time>2020-08-11T09:18:22Z</time>
      </trkpt>
      <trkpt lat="45.15748" lon="5.9726">
        <ele>2367.2</ele>
        <time>2020-08-11T09:18:23Z</time>
      </trkpt>
      <trkpt lat="45.15748" lon="5.9726">
        <ele>2367.6</ele>
        <time>2020-08-11T09:18:24Z</time>
      </trkpt>
      <trkpt lat="45.15748" lon="5.97259">
        <ele>2367.8</ele>
        <time>2020-08-11T09:18:25Z</time>
      </trkpt>
      <trkpt lat="45.15748" lon="5.97259">
        <ele>2368</ele>
        <time>2020-08-11T09:18:26Z</time>
      </trkpt>
      <trkpt lat="45.15748" lon="5.97258">
        <ele>2368.2</ele>
        <time>2020-08-11T09:18:27Z</time>
      </trkpt>
      <trkpt lat="45.15748" lon="5.97258">
        <ele>2368.4</ele>
        <time>2020-08-11T09:18:28Z</time>
      </trkpt>
      <trkpt lat="45.15748" lon="5.97257">
        <ele>2368.6</ele>
        <time>2020-08-11T09:18:29Z</time>
      </trkpt>
      <trkpt lat="45.15748" lon="5.97257">
        <ele>2368.8</ele>
        <time>2020-08-11T09:18:30Z</time>
      </trkpt>
      <trkpt lat="45.15748" lon="5.97256">
        <ele>2368.8</ele>
        <time>2020-08-11T09:18:31Z</time>
      </trkpt>
      <trkpt lat="45.15749" lon="5.97256">
        <ele>2369.2</ele>
        <time>2020-08-11T09:18:32Z</time>
      </trkpt>
      <trkpt lat="45.15749" lon="5.97255">
        <ele>2369.4</ele>
        <time>2020-08-11T09:18:33Z</time>
      </trkpt>
      <trkpt lat="45.15749" lon="5.97255">
        <ele>2369.6</ele>
        <time>2020-08-11T09:18:34Z</time>
      </trkpt>
      <trkpt lat="45.15749" lon="5.97254">
        <ele>2369.8</ele>
        <time>2020-08-11T09:18:35Z</time>
      </trkpt>
      <trkpt lat="45.1575" lon="5.97255">
        <ele>2370</ele>
        <time>2020-08-11T09:18:36Z</time>
      </trkpt>
      <trkpt lat="45.1575" lon="5.97255">
        <ele>2370.2</ele>
        <time>2020-08-11T09:18:37Z</time>
      </trkpt>
      <trkpt lat="45.15751" lon="5.97255">
        <ele>2370.4</ele>
        <time>2020-08-11T09:18:38Z</time>
      </trkpt>
      <trkpt lat="45.15752" lon="5.97256">
        <ele>2370.6</ele>
        <time>2020-08-11T09:18:39Z</time>
      </trkpt>
      <trkpt lat="45.15753" lon="5.97256">
        <ele>2370.8</ele>
        <time>2020-08-11T09:18:40Z</time>
      </trkpt>
      <trkpt lat="45.15753" lon="5.97256">
        <ele>2370.8</ele>
        <time>2020-08-11T09:18:41Z</time>
      </trkpt>
      <trkpt lat="45.15754" lon="5.97256">
        <ele>2371</ele>
        <time>2020-08-11T09:18:42Z</time>
      </trkpt>
      <trkpt lat="45.15755" lon="5.97257">
        <ele>2371.2</ele>
        <time>2020-08-11T09:18:43Z</time>
      </trkpt>
      <trkpt lat="45.15756" lon="5.97257">
        <ele>2371.4</ele>
        <time>2020-08-11T09:18:44Z</time>
      </trkpt>
      <trkpt lat="45.15756" lon="5.97257">
        <ele>2371.6</ele>
        <time>2020-08-11T09:18:45Z</time>
      </trkpt>
      <trkpt lat="45.15757" lon="5.97258">
        <ele>2371.6</ele>
        <time>2020-08-11T09:18:46Z</time>
      </trkpt>
      <trkpt lat="45.15758" lon="5.97258">
        <ele>2372.4</ele>
        <time>2020-08-11T09:18:47Z</time>
      </trkpt>
      <trkpt lat="45.15758" lon="5.97258">
        <ele>2372.8</ele>
        <time>2020-08-11T09:18:48Z</time>
      </trkpt>
      <trkpt lat="45.15759" lon="5.97258">
        <ele>2372.8</ele>
        <time>2020-08-11T09:18:49Z</time>
      </trkpt>
      <trkpt lat="45.15759" lon="5.97258">
        <ele>2372.8</ele>
        <time>2020-08-11T09:18:50Z</time>
      </trkpt>
      <trkpt lat="45.15759" lon="5.97259">
        <ele>2372.6</ele>
        <time>2020-08-11T09:18:51Z</time>
      </trkpt>
      <trkpt lat="45.1576" lon="5.97259">
        <ele>2372.8</ele>
        <time>2020-08-11T09:18:52Z</time>
      </trkpt>
      <trkpt lat="45.1576" lon="5.97259">
        <ele>2373</ele>
        <time>2020-08-11T09:18:53Z</time>
      </trkpt>
      <trkpt lat="45.1576" lon="5.97259">
        <ele>2372.8</ele>
        <time>2020-08-11T09:18:54Z</time>
      </trkpt>
      <trkpt lat="45.15761" lon="5.97259">
        <ele>2372.8</ele>
        <time>2020-08-11T09:18:55Z</time>
      </trkpt>
      <trkpt lat="45.15761" lon="5.97259">
        <ele>2373</ele>
        <time>2020-08-11T09:18:56Z</time>
      </trkpt>
      <trkpt lat="45.15762" lon="5.97259">
        <ele>2373</ele>
        <time>2020-08-11T09:18:57Z</time>
      </trkpt>
      <trkpt lat="45.15762" lon="5.97259">
        <ele>2373.2</ele>
        <time>2020-08-11T09:18:58Z</time>
      </trkpt>
      <trkpt lat="45.15762" lon="5.9726">
        <ele>2373.4</ele>
        <time>2020-08-11T09:18:59Z</time>
      </trkpt>
      <trkpt lat="45.15763" lon="5.9726">
        <ele>2373.8</ele>
        <time>2020-08-11T09:19:00Z</time>
      </trkpt>
      <trkpt lat="45.15763" lon="5.9726">
        <ele>2374.2</ele>
        <time>2020-08-11T09:19:01Z</time>
      </trkpt>
      <trkpt lat="45.15764" lon="5.9726">
        <ele>2374.4</ele>
        <time>2020-08-11T09:19:02Z</time>
      </trkpt>
      <trkpt lat="45.15764" lon="5.9726">
        <ele>2374.6</ele>
        <time>2020-08-11T09:19:03Z</time>
      </trkpt>
      <trkpt lat="45.15764" lon="5.9726">
        <ele>2374.8</ele>
        <time>2020-08-11T09:19:04Z</time>
      </trkpt>
      <trkpt lat="45.15765" lon="5.9726">
        <ele>2375</ele>
        <time>2020-08-11T09:19:05Z</time>
      </trkpt>
      <trkpt lat="45.15765" lon="5.9726">
        <ele>2375.2</ele>
        <time>2020-08-11T09:19:06Z</time>
      </trkpt>
      <trkpt lat="45.15765" lon="5.97261">
        <ele>2375.6</ele>
        <time>2020-08-11T09:19:07Z</time>
      </trkpt>
      <trkpt lat="45.15766" lon="5.97261">
        <ele>2375.6</ele>
        <time>2020-08-11T09:19:08Z</time>
      </trkpt>
      <trkpt lat="45.15766" lon="5.97261">
        <ele>2375.8</ele>
        <time>2020-08-11T09:19:09Z</time>
      </trkpt>
      <trkpt lat="45.15767" lon="5.97261">
        <ele>2376.2</ele>
        <time>2020-08-11T09:19:10Z</time>
      </trkpt>
      <trkpt lat="45.15767" lon="5.97261">
        <ele>2376.2</ele>
        <time>2020-08-11T09:19:11Z</time>
      </trkpt>
      <trkpt lat="45.15768" lon="5.97261">
        <ele>2376.4</ele>
        <time>2020-08-11T09:19:12Z</time>
      </trkpt>
      <trkpt lat="45.15768" lon="5.97261">
        <ele>2376.6</ele>
        <time>2020-08-11T09:19:13Z</time>
      </trkpt>
      <trkpt lat="45.15768" lon="5.97261">
        <ele>2376.8</ele>
        <time>2020-08-11T09:19:14Z</time>
      </trkpt>
      <trkpt lat="45.15769" lon="5.97261">
        <ele>2377</ele>
        <time>2020-08-11T09:19:15Z</time>
      </trkpt>
      <trkpt lat="45.15769" lon="5.97262">
        <ele>2377.2</ele>
        <time>2020-08-11T09:19:16Z</time>
      </trkpt>
      <trkpt lat="45.1577" lon="5.97262">
        <ele>2377.2</ele>
        <time>2020-08-11T09:19:17Z</time>
      </trkpt>
      <trkpt lat="45.1577" lon="5.97262">
        <ele>2377.6</ele>
        <time>2020-08-11T09:19:18Z</time>
      </trkpt>
      <trkpt lat="45.15771" lon="5.97262">
        <ele>2377.8</ele>
        <time>2020-08-11T09:19:19Z</time>
      </trkpt>
      <trkpt lat="45.15771" lon="5.97262">
        <ele>2377.8</ele>
        <time>2020-08-11T09:19:20Z</time>
      </trkpt>
      <trkpt lat="45.15772" lon="5.97262">
        <ele>2378.2</ele>
        <time>2020-08-11T09:19:21Z</time>
      </trkpt>
      <trkpt lat="45.15772" lon="5.97262">
        <ele>2378.4</ele>
        <time>2020-08-11T09:19:22Z</time>
      </trkpt>
      <trkpt lat="45.15773" lon="5.97262">
        <ele>2378.6</ele>
        <time>2020-08-11T09:19:23Z</time>
      </trkpt>
      <trkpt lat="45.15773" lon="5.97262">
        <ele>2378.6</ele>
        <time>2020-08-11T09:19:24Z</time>
      </trkpt>
      <trkpt lat="45.15774" lon="5.97262">
        <ele>2378.8</ele>
        <time>2020-08-11T09:19:25Z</time>
      </trkpt>
      <trkpt lat="45.15774" lon="5.97262">
        <ele>2379</ele>
        <time>2020-08-11T09:19:26Z</time>
      </trkpt>
      <trkpt lat="45.15774" lon="5.97263">
        <ele>2379.4</ele>
        <time>2020-08-11T09:19:27Z</time>
      </trkpt>
      <trkpt lat="45.15775" lon="5.97263">
        <ele>2379.6</ele>
        <time>2020-08-11T09:19:28Z</time>
      </trkpt>
      <trkpt lat="45.15775" lon="5.97263">
        <ele>2379.8</ele>
        <time>2020-08-11T09:19:29Z</time>
      </trkpt>
      <trkpt lat="45.15776" lon="5.97263">
        <ele>2379.8</ele>
        <time>2020-08-11T09:19:30Z</time>
      </trkpt>
      <trkpt lat="45.15776" lon="5.97263">
        <ele>2380.2</ele>
        <time>2020-08-11T09:19:31Z</time>
      </trkpt>
      <trkpt lat="45.15776" lon="5.97263">
        <ele>2380.2</ele>
        <time>2020-08-11T09:19:32Z</time>
      </trkpt>
      <trkpt lat="45.15777" lon="5.97262">
        <ele>2380.4</ele>
        <time>2020-08-11T09:19:33Z</time>
      </trkpt>
      <trkpt lat="45.15777" lon="5.97262">
        <ele>2380.6</ele>
        <time>2020-08-11T09:19:34Z</time>
      </trkpt>
      <trkpt lat="45.15777" lon="5.97262">
        <ele>2380.8</ele>
        <time>2020-08-11T09:19:35Z</time>
      </trkpt>
      <trkpt lat="45.15778" lon="5.97262">
        <ele>2381</ele>
        <time>2020-08-11T09:19:36Z</time>
      </trkpt>
      <trkpt lat="45.15778" lon="5.97262">
        <ele>2381.2</ele>
        <time>2020-08-11T09:19:37Z</time>
      </trkpt>
      <trkpt lat="45.15778" lon="5.97262">
        <ele>2381.6</ele>
        <time>2020-08-11T09:19:38Z</time>
      </trkpt>
      <trkpt lat="45.15778" lon="5.97262">
        <ele>2381.8</ele>
        <time>2020-08-11T09:19:39Z</time>
      </trkpt>
      <trkpt lat="45.15779" lon="5.97261">
        <ele>2382</ele>
        <time>2020-08-11T09:19:40Z</time>
      </trkpt>
      <trkpt lat="45.15779" lon="5.97261">
        <ele>2382.2</ele>
        <time>2020-08-11T09:19:41Z</time>
      </trkpt>
      <trkpt lat="45.15779" lon="5.97261">
        <ele>2382.4</ele>
        <time>2020-08-11T09:19:42Z</time>
      </trkpt>
      <trkpt lat="45.15779" lon="5.97261">
        <ele>2382.6</ele>
        <time>2020-08-11T09:19:43Z</time>
      </trkpt>
      <trkpt lat="45.1578" lon="5.97261">
        <ele>2382.8</ele>
        <time>2020-08-11T09:19:44Z</time>
      </trkpt>
      <trkpt lat="45.1578" lon="5.97261">
        <ele>2383</ele>
        <time>2020-08-11T09:19:45Z</time>
      </trkpt>
      <trkpt lat="45.15781" lon="5.97261">
        <ele>2383.2</ele>
        <time>2020-08-11T09:19:46Z</time>
      </trkpt>
      <trkpt lat="45.15781" lon="5.97262">
        <ele>2383.6</ele>
        <time>2020-08-11T09:19:47Z</time>
      </trkpt>
      <trkpt lat="45.15782" lon="5.97262">
        <ele>2383.8</ele>
        <time>2020-08-11T09:19:48Z</time>
      </trkpt>
      <trkpt lat="45.15782" lon="5.97262">
        <ele>2384</ele>
        <time>2020-08-11T09:19:49Z</time>
      </trkpt>
      <trkpt lat="45.15782" lon="5.97262">
        <ele>2384.2</ele>
        <time>2020-08-11T09:19:50Z</time>
      </trkpt>
      <trkpt lat="45.15783" lon="5.97263">
        <ele>2384.4</ele>
        <time>2020-08-11T09:19:51Z</time>
      </trkpt>
      <trkpt lat="45.15783" lon="5.97263">
        <ele>2384.8</ele>
        <time>2020-08-11T09:19:52Z</time>
      </trkpt>
      <trkpt lat="45.15784" lon="5.97263">
        <ele>2385</ele>
        <time>2020-08-11T09:19:53Z</time>
      </trkpt>
      <trkpt lat="45.15784" lon="5.97263">
        <ele>2385.2</ele>
        <time>2020-08-11T09:19:54Z</time>
      </trkpt>
      <trkpt lat="45.15785" lon="5.97264">
        <ele>2385.2</ele>
        <time>2020-08-11T09:19:55Z</time>
      </trkpt>
      <trkpt lat="45.15785" lon="5.97264">
        <ele>2385.6</ele>
        <time>2020-08-11T09:19:56Z</time>
      </trkpt>
      <trkpt lat="45.15785" lon="5.97264">
        <ele>2385.4</ele>
        <time>2020-08-11T09:19:57Z</time>
      </trkpt>
      <trkpt lat="45.15786" lon="5.97265">
        <ele>2385.6</ele>
        <time>2020-08-11T09:19:58Z</time>
      </trkpt>
      <trkpt lat="45.15786" lon="5.97265">
        <ele>2385.6</ele>
        <time>2020-08-11T09:19:59Z</time>
      </trkpt>
      <trkpt lat="45.15787" lon="5.97265">
        <ele>2385.6</ele>
        <time>2020-08-11T09:20:00Z</time>
      </trkpt>
      <trkpt lat="45.15787" lon="5.97265">
        <ele>2386</ele>
        <time>2020-08-11T09:20:01Z</time>
      </trkpt>
      <trkpt lat="45.15788" lon="5.97266">
        <ele>2386.2</ele>
        <time>2020-08-11T09:20:02Z</time>
      </trkpt>
      <trkpt lat="45.15788" lon="5.97266">
        <ele>2386.6</ele>
        <time>2020-08-11T09:20:03Z</time>
      </trkpt>
      <trkpt lat="45.15788" lon="5.97266">
        <ele>2386.8</ele>
        <time>2020-08-11T09:20:04Z</time>
      </trkpt>
      <trkpt lat="45.1579" lon="5.97269">
        <ele>2387.4</ele>
        <time>2020-08-11T09:20:05Z</time>
      </trkpt>
      <trkpt lat="45.1579" lon="5.97269">
        <ele>2387.4</ele>
        <time>2020-08-11T09:20:06Z</time>
      </trkpt>
      <trkpt lat="45.15791" lon="5.9727">
        <ele>2387.6</ele>
        <time>2020-08-11T09:20:07Z</time>
      </trkpt>
      <trkpt lat="45.15791" lon="5.9727">
        <ele>2387.8</ele>
        <time>2020-08-11T09:20:08Z</time>
      </trkpt>
      <trkpt lat="45.15792" lon="5.97271">
        <ele>2388</ele>
        <time>2020-08-11T09:20:09Z</time>
      </trkpt>
      <trkpt lat="45.15793" lon="5.97272">
        <ele>2388.2</ele>
        <time>2020-08-11T09:20:10Z</time>
      </trkpt>
      <trkpt lat="45.15793" lon="5.97272">
        <ele>2388.2</ele>
        <time>2020-08-11T09:20:11Z</time>
      </trkpt>
      <trkpt lat="45.15794" lon="5.97273">
        <ele>2388.4</ele>
        <time>2020-08-11T09:20:12Z</time>
      </trkpt>
      <trkpt lat="45.15794" lon="5.97274">
        <ele>2388.8</ele>
        <time>2020-08-11T09:20:13Z</time>
      </trkpt>
      <trkpt lat="45.15794" lon="5.97274">
        <ele>2388.8</ele>
        <time>2020-08-11T09:20:14Z</time>
      </trkpt>
      <trkpt lat="45.15795" lon="5.97274">
        <ele>2389.2</ele>
        <time>2020-08-11T09:20:15Z</time>
      </trkpt>
      <trkpt lat="45.15795" lon="5.97275">
        <ele>2389.6</ele>
        <time>2020-08-11T09:20:16Z</time>
      </trkpt>
      <trkpt lat="45.15795" lon="5.97275">
        <ele>2389.6</ele>
        <time>2020-08-11T09:20:17Z</time>
      </trkpt>
      <trkpt lat="45.15795" lon="5.97275">
        <ele>2390</ele>
        <time>2020-08-11T09:20:18Z</time>
      </trkpt>
      <trkpt lat="45.15795" lon="5.97276">
        <ele>2390</ele>
        <time>2020-08-11T09:20:19Z</time>
      </trkpt>
      <trkpt lat="45.15795" lon="5.97276">
        <ele>2390.2</ele>
        <time>2020-08-11T09:20:20Z</time>
      </trkpt>
      <trkpt lat="45.15795" lon="5.97276">
        <ele>2390.4</ele>
        <time>2020-08-11T09:20:21Z</time>
      </trkpt>
      <trkpt lat="45.15795" lon="5.97277">
        <ele>2390.6</ele>
        <time>2020-08-11T09:20:22Z</time>
      </trkpt>
      <trkpt lat="45.15795" lon="5.97277">
        <ele>2390.6</ele>
        <time>2020-08-11T09:20:23Z</time>
      </trkpt>
      <trkpt lat="45.15796" lon="5.97277">
        <ele>2391</ele>
        <time>2020-08-11T09:20:24Z</time>
      </trkpt>
      <trkpt lat="45.15796" lon="5.97278">
        <ele>2391.4</ele>
        <time>2020-08-11T09:20:25Z</time>
      </trkpt>
      <trkpt lat="45.15796" lon="5.97278">
        <ele>2391.6</ele>
        <time>2020-08-11T09:20:26Z</time>
      </trkpt>
      <trkpt lat="45.15796" lon="5.97279">
        <ele>2391.6</ele>
        <time>2020-08-11T09:20:27Z</time>
      </trkpt>
      <trkpt lat="45.15796" lon="5.97279">
        <ele>2391.8</ele>
        <time>2020-08-11T09:20:28Z</time>
      </trkpt>
      <trkpt lat="45.15796" lon="5.97279">
        <ele>2392</ele>
        <time>2020-08-11T09:20:29Z</time>
      </trkpt>
      <trkpt lat="45.15796" lon="5.9728">
        <ele>2392.2</ele>
        <time>2020-08-11T09:20:30Z</time>
      </trkpt>
      <trkpt lat="45.15796" lon="5.9728">
        <ele>2392.4</ele>
        <time>2020-08-11T09:20:31Z</time>
      </trkpt>
      <trkpt lat="45.15796" lon="5.9728">
        <ele>2392.4</ele>
        <time>2020-08-11T09:20:32Z</time>
      </trkpt>
      <trkpt lat="45.15797" lon="5.97281">
        <ele>2392.6</ele>
        <time>2020-08-11T09:20:33Z</time>
      </trkpt>
      <trkpt lat="45.15797" lon="5.97281">
        <ele>2392.6</ele>
        <time>2020-08-11T09:20:34Z</time>
      </trkpt>
      <trkpt lat="45.15797" lon="5.97281">
        <ele>2392.8</ele>
        <time>2020-08-11T09:20:35Z</time>
      </trkpt>
      <trkpt lat="45.15797" lon="5.97281">
        <ele>2393</ele>
        <time>2020-08-11T09:20:36Z</time>
      </trkpt>
      <trkpt lat="45.15797" lon="5.97281">
        <ele>2393.4</ele>
        <time>2020-08-11T09:20:37Z</time>
      </trkpt>
      <trkpt lat="45.15797" lon="5.97281">
        <ele>2393.4</ele>
        <time>2020-08-11T09:20:38Z</time>
      </trkpt>
      <trkpt lat="45.15799" lon="5.97284">
        <ele>2393.4</ele>
        <time>2020-08-11T09:20:39Z</time>
      </trkpt>
      <trkpt lat="45.15799" lon="5.97284">
        <ele>2393.8</ele>
        <time>2020-08-11T09:20:40Z</time>
      </trkpt>
      <trkpt lat="45.15799" lon="5.97284">
        <ele>2394</ele>
        <time>2020-08-11T09:20:41Z</time>
      </trkpt>
      <trkpt lat="45.158" lon="5.97286">
        <ele>2394.2</ele>
        <time>2020-08-11T09:20:42Z</time>
      </trkpt>
      <trkpt lat="45.158" lon="5.97286">
        <ele>2394.4</ele>
        <time>2020-08-11T09:20:43Z</time>
      </trkpt>
      <trkpt lat="45.158" lon="5.97286">
        <ele>2394.6</ele>
        <time>2020-08-11T09:20:44Z</time>
      </trkpt>
      <trkpt lat="45.158" lon="5.97286">
        <ele>2395</ele>
        <time>2020-08-11T09:20:45Z</time>
      </trkpt>
      <trkpt lat="45.15801" lon="5.97288">
        <ele>2395.2</ele>
        <time>2020-08-11T09:20:46Z</time>
      </trkpt>
      <trkpt lat="45.15801" lon="5.97288">
        <ele>2395.4</ele>
        <time>2020-08-11T09:20:47Z</time>
      </trkpt>
      <trkpt lat="45.15802" lon="5.97288">
        <ele>2395.6</ele>
        <time>2020-08-11T09:20:48Z</time>
      </trkpt>
      <trkpt lat="45.15802" lon="5.97288">
        <ele>2395.8</ele>
        <time>2020-08-11T09:20:49Z</time>
      </trkpt>
      <trkpt lat="45.15803" lon="5.97289">
        <ele>2396</ele>
        <time>2020-08-11T09:20:50Z</time>
      </trkpt>
      <trkpt lat="45.15803" lon="5.97289">
        <ele>2396.2</ele>
        <time>2020-08-11T09:20:51Z</time>
      </trkpt>
      <trkpt lat="45.15803" lon="5.97289">
        <ele>2396.4</ele>
        <time>2020-08-11T09:20:52Z</time>
      </trkpt>
      <trkpt lat="45.15804" lon="5.97289">
        <ele>2396.4</ele>
        <time>2020-08-11T09:20:53Z</time>
      </trkpt>
      <trkpt lat="45.15804" lon="5.97289">
        <ele>2396.6</ele>
        <time>2020-08-11T09:20:54Z</time>
      </trkpt>
      <trkpt lat="45.15805" lon="5.9729">
        <ele>2396.8</ele>
        <time>2020-08-11T09:20:55Z</time>
      </trkpt>
      <trkpt lat="45.15805" lon="5.9729">
        <ele>2397</ele>
        <time>2020-08-11T09:20:56Z</time>
      </trkpt>
      <trkpt lat="45.15805" lon="5.9729">
        <ele>2397.2</ele>
        <time>2020-08-11T09:20:57Z</time>
      </trkpt>
      <trkpt lat="45.15806" lon="5.9729">
        <ele>2397.4</ele>
        <time>2020-08-11T09:20:58Z</time>
      </trkpt>
      <trkpt lat="45.15806" lon="5.97291">
        <ele>2397.8</ele>
        <time>2020-08-11T09:20:59Z</time>
      </trkpt>
      <trkpt lat="45.15807" lon="5.97291">
        <ele>2397.8</ele>
        <time>2020-08-11T09:21:00Z</time>
      </trkpt>
      <trkpt lat="45.15807" lon="5.97291">
        <ele>2398</ele>
        <time>2020-08-11T09:21:01Z</time>
      </trkpt>
      <trkpt lat="45.15807" lon="5.97291">
        <ele>2398.4</ele>
        <time>2020-08-11T09:21:02Z</time>
      </trkpt>
      <trkpt lat="45.15808" lon="5.97291">
        <ele>2398.6</ele>
        <time>2020-08-11T09:21:03Z</time>
      </trkpt>
      <trkpt lat="45.15808" lon="5.97292">
        <ele>2398.6</ele>
        <time>2020-08-11T09:21:04Z</time>
      </trkpt>
      <trkpt lat="45.15809" lon="5.97292">
        <ele>2398.8</ele>
        <time>2020-08-11T09:21:05Z</time>
      </trkpt>
      <trkpt lat="45.15809" lon="5.97292">
        <ele>2399</ele>
        <time>2020-08-11T09:21:06Z</time>
      </trkpt>
      <trkpt lat="45.15809" lon="5.97292">
        <ele>2399.4</ele>
        <time>2020-08-11T09:21:07Z</time>
      </trkpt>
      <trkpt lat="45.15809" lon="5.97292">
        <ele>2399.6</ele>
        <time>2020-08-11T09:21:08Z</time>
      </trkpt>
      <trkpt lat="45.15812" lon="5.97292">
        <ele>2400</ele>
        <time>2020-08-11T09:21:09Z</time>
      </trkpt>
      <trkpt lat="45.15812" lon="5.97292">
        <ele>2400.2</ele>
        <time>2020-08-11T09:21:10Z</time>
      </trkpt>
      <trkpt lat="45.15812" lon="5.97293">
        <ele>2400.4</ele>
        <time>2020-08-11T09:21:11Z</time>
      </trkpt>
      <trkpt lat="45.15813" lon="5.97293">
        <ele>2400.4</ele>
        <time>2020-08-11T09:21:12Z</time>
      </trkpt>
      <trkpt lat="45.15813" lon="5.97293">
        <ele>2400.4</ele>
        <time>2020-08-11T09:21:13Z</time>
      </trkpt>
      <trkpt lat="45.15813" lon="5.97293">
        <ele>2400.8</ele>
        <time>2020-08-11T09:21:14Z</time>
      </trkpt>
      <trkpt lat="45.15814" lon="5.97293">
        <ele>2401</ele>
        <time>2020-08-11T09:21:15Z</time>
      </trkpt>
      <trkpt lat="45.15814" lon="5.97293">
        <ele>2401.2</ele>
        <time>2020-08-11T09:21:16Z</time>
      </trkpt>
      <trkpt lat="45.15814" lon="5.97293">
        <ele>2401.4</ele>
        <time>2020-08-11T09:21:17Z</time>
      </trkpt>
      <trkpt lat="45.15815" lon="5.97293">
        <ele>2401.8</ele>
        <time>2020-08-11T09:21:18Z</time>
      </trkpt>
      <trkpt lat="45.15815" lon="5.97293">
        <ele>2402</ele>
        <time>2020-08-11T09:21:19Z</time>
      </trkpt>
      <trkpt lat="45.15816" lon="5.97294">
        <ele>2402.2</ele>
        <time>2020-08-11T09:21:20Z</time>
      </trkpt>
      <trkpt lat="45.15816" lon="5.97294">
        <ele>2402.2</ele>
        <time>2020-08-11T09:21:21Z</time>
      </trkpt>
      <trkpt lat="45.15816" lon="5.97294">
        <ele>2402.4</ele>
        <time>2020-08-11T09:21:22Z</time>
      </trkpt>
      <trkpt lat="45.15817" lon="5.97294">
        <ele>2402.6</ele>
        <time>2020-08-11T09:21:23Z</time>
      </trkpt>
      <trkpt lat="45.15817" lon="5.97294">
        <ele>2402.8</ele>
        <time>2020-08-11T09:21:24Z</time>
      </trkpt>
      <trkpt lat="45.15817" lon="5.97294">
        <ele>2402.8</ele>
        <time>2020-08-11T09:21:25Z</time>
      </trkpt>
      <trkpt lat="45.15818" lon="5.97294">
        <ele>2403</ele>
        <time>2020-08-11T09:21:26Z</time>
      </trkpt>
      <trkpt lat="45.15818" lon="5.97294">
        <ele>2403.2</ele>
        <time>2020-08-11T09:21:27Z</time>
      </trkpt>
      <trkpt lat="45.15819" lon="5.97294">
        <ele>2403.4</ele>
        <time>2020-08-11T09:21:28Z</time>
      </trkpt>
      <trkpt lat="45.15819" lon="5.97294">
        <ele>2403.8</ele>
        <time>2020-08-11T09:21:29Z</time>
      </trkpt>
      <trkpt lat="45.15819" lon="5.97295">
        <ele>2403.8</ele>
        <time>2020-08-11T09:21:30Z</time>
      </trkpt>
      <trkpt lat="45.1582" lon="5.97295">
        <ele>2404</ele>
        <time>2020-08-11T09:21:31Z</time>
      </trkpt>
      <trkpt lat="45.1582" lon="5.97295">
        <ele>2404</ele>
        <time>2020-08-11T09:21:32Z</time>
      </trkpt>
      <trkpt lat="45.1582" lon="5.97295">
        <ele>2404.4</ele>
        <time>2020-08-11T09:21:33Z</time>
      </trkpt>
      <trkpt lat="45.15821" lon="5.97295">
        <ele>2404.6</ele>
        <time>2020-08-11T09:21:34Z</time>
      </trkpt>
      <trkpt lat="45.15821" lon="5.97295">
        <ele>2404.8</ele>
        <time>2020-08-11T09:21:35Z</time>
      </trkpt>
      <trkpt lat="45.15821" lon="5.97295">
        <ele>2404.8</ele>
        <time>2020-08-11T09:21:36Z</time>
      </trkpt>
      <trkpt lat="45.15822" lon="5.97295">
        <ele>2405.2</ele>
        <time>2020-08-11T09:21:37Z</time>
      </trkpt>
      <trkpt lat="45.15822" lon="5.97295">
        <ele>2405.4</ele>
        <time>2020-08-11T09:21:38Z</time>
      </trkpt>
      <trkpt lat="45.15823" lon="5.97296">
        <ele>2405.6</ele>
        <time>2020-08-11T09:21:39Z</time>
      </trkpt>
      <trkpt lat="45.15823" lon="5.97296">
        <ele>2405.8</ele>
        <time>2020-08-11T09:21:40Z</time>
      </trkpt>
      <trkpt lat="45.15823" lon="5.97296">
        <ele>2405.8</ele>
        <time>2020-08-11T09:21:41Z</time>
      </trkpt>
      <trkpt lat="45.15824" lon="5.97296">
        <ele>2405.8</ele>
        <time>2020-08-11T09:21:42Z</time>
      </trkpt>
      <trkpt lat="45.15824" lon="5.97296">
        <ele>2406.4</ele>
        <time>2020-08-11T09:21:43Z</time>
      </trkpt>
      <trkpt lat="45.15824" lon="5.97296">
        <ele>2406.4</ele>
        <time>2020-08-11T09:21:44Z</time>
      </trkpt>
      <trkpt lat="45.15824" lon="5.97296">
        <ele>2406.4</ele>
        <time>2020-08-11T09:21:45Z</time>
      </trkpt>
      <trkpt lat="45.15827" lon="5.97298">
        <ele>2406.8</ele>
        <time>2020-08-11T09:21:46Z</time>
      </trkpt>
      <trkpt lat="45.15827" lon="5.97298">
        <ele>2406.8</ele>
        <time>2020-08-11T09:21:47Z</time>
      </trkpt>
      <trkpt lat="45.15827" lon="5.97299">
        <ele>2407</ele>
        <time>2020-08-11T09:21:48Z</time>
      </trkpt>
      <trkpt lat="45.15827" lon="5.973">
        <ele>2407.2</ele>
        <time>2020-08-11T09:21:49Z</time>
      </trkpt>
      <trkpt lat="45.15827" lon="5.97301">
        <ele>2407.2</ele>
        <time>2020-08-11T09:21:50Z</time>
      </trkpt>
      <trkpt lat="45.15827" lon="5.97302">
        <ele>2407.6</ele>
        <time>2020-08-11T09:21:51Z</time>
      </trkpt>
      <trkpt lat="45.15827" lon="5.97303">
        <ele>2407.8</ele>
        <time>2020-08-11T09:21:52Z</time>
      </trkpt>
      <trkpt lat="45.15827" lon="5.97304">
        <ele>2407.8</ele>
        <time>2020-08-11T09:21:53Z</time>
      </trkpt>
      <trkpt lat="45.15827" lon="5.97305">
        <ele>2408</ele>
        <time>2020-08-11T09:21:54Z</time>
      </trkpt>
      <trkpt lat="45.15827" lon="5.97306">
        <ele>2408.2</ele>
        <time>2020-08-11T09:21:55Z</time>
      </trkpt>
      <trkpt lat="45.15827" lon="5.97307">
        <ele>2408.2</ele>
        <time>2020-08-11T09:21:56Z</time>
      </trkpt>
      <trkpt lat="45.15827" lon="5.97308">
        <ele>2408.6</ele>
        <time>2020-08-11T09:21:57Z</time>
      </trkpt>
      <trkpt lat="45.15827" lon="5.97309">
        <ele>2408.8</ele>
        <time>2020-08-11T09:21:58Z</time>
      </trkpt>
      <trkpt lat="45.15827" lon="5.9731">
        <ele>2409.2</ele>
        <time>2020-08-11T09:21:59Z</time>
      </trkpt>
      <trkpt lat="45.15827" lon="5.9731">
        <ele>2409.2</ele>
        <time>2020-08-11T09:22:00Z</time>
      </trkpt>
      <trkpt lat="45.15827" lon="5.97311">
        <ele>2409.6</ele>
        <time>2020-08-11T09:22:01Z</time>
      </trkpt>
      <trkpt lat="45.15828" lon="5.97311">
        <ele>2410</ele>
        <time>2020-08-11T09:22:02Z</time>
      </trkpt>
      <trkpt lat="45.15828" lon="5.97312">
        <ele>2410</ele>
        <time>2020-08-11T09:22:03Z</time>
      </trkpt>
      <trkpt lat="45.15828" lon="5.97312">
        <ele>2410.2</ele>
        <time>2020-08-11T09:22:04Z</time>
      </trkpt>
      <trkpt lat="45.15828" lon="5.97313">
        <ele>2410.6</ele>
        <time>2020-08-11T09:22:05Z</time>
      </trkpt>
      <trkpt lat="45.15828" lon="5.97313">
        <ele>2410.6</ele>
        <time>2020-08-11T09:22:06Z</time>
      </trkpt>
      <trkpt lat="45.15828" lon="5.97314">
        <ele>2410.8</ele>
        <time>2020-08-11T09:22:07Z</time>
      </trkpt>
      <trkpt lat="45.15829" lon="5.97314">
        <ele>2411</ele>
        <time>2020-08-11T09:22:08Z</time>
      </trkpt>
      <trkpt lat="45.15829" lon="5.97315">
        <ele>2411.4</ele>
        <time>2020-08-11T09:22:09Z</time>
      </trkpt>
      <trkpt lat="45.15829" lon="5.97315">
        <ele>2411.6</ele>
        <time>2020-08-11T09:22:10Z</time>
      </trkpt>
      <trkpt lat="45.15829" lon="5.97316">
        <ele>2412.2</ele>
        <time>2020-08-11T09:22:11Z</time>
      </trkpt>
      <trkpt lat="45.15829" lon="5.97316">
        <ele>2412.4</ele>
        <time>2020-08-11T09:22:12Z</time>
      </trkpt>
      <trkpt lat="45.15829" lon="5.97317">
        <ele>2412.6</ele>
        <time>2020-08-11T09:22:13Z</time>
      </trkpt>
      <trkpt lat="45.15829" lon="5.97317">
        <ele>2412.8</ele>
        <time>2020-08-11T09:22:14Z</time>
      </trkpt>
      <trkpt lat="45.1583" lon="5.97318">
        <ele>2412.8</ele>
        <time>2020-08-11T09:22:15Z</time>
      </trkpt>
      <trkpt lat="45.1583" lon="5.97318">
        <ele>2413.2</ele>
        <time>2020-08-11T09:22:16Z</time>
      </trkpt>
      <trkpt lat="45.1583" lon="5.97319">
        <ele>2413.6</ele>
        <time>2020-08-11T09:22:17Z</time>
      </trkpt>
      <trkpt lat="45.1583" lon="5.97319">
        <ele>2413.6</ele>
        <time>2020-08-11T09:22:18Z</time>
      </trkpt>
      <trkpt lat="45.1583" lon="5.9732">
        <ele>2413.8</ele>
        <time>2020-08-11T09:22:19Z</time>
      </trkpt>
      <trkpt lat="45.1583" lon="5.9732">
        <ele>2414</ele>
        <time>2020-08-11T09:22:20Z</time>
      </trkpt>
      <trkpt lat="45.15831" lon="5.97321">
        <ele>2414.2</ele>
        <time>2020-08-11T09:22:21Z</time>
      </trkpt>
      <trkpt lat="45.15831" lon="5.97321">
        <ele>2414.4</ele>
        <time>2020-08-11T09:22:22Z</time>
      </trkpt>
      <trkpt lat="45.15831" lon="5.97322">
        <ele>2414.6</ele>
        <time>2020-08-11T09:22:23Z</time>
      </trkpt>
      <trkpt lat="45.15831" lon="5.97322">
        <ele>2414.8</ele>
        <time>2020-08-11T09:22:24Z</time>
      </trkpt>
      <trkpt lat="45.15833" lon="5.97323">
        <ele>2415</ele>
        <time>2020-08-11T09:22:25Z</time>
      </trkpt>
      <trkpt lat="45.15834" lon="5.97324">
        <ele>2415.2</ele>
        <time>2020-08-11T09:22:26Z</time>
      </trkpt>
      <trkpt lat="45.15836" lon="5.97325">
        <ele>2415.4</ele>
        <time>2020-08-11T09:22:27Z</time>
      </trkpt>
      <trkpt lat="45.15838" lon="5.97326">
        <ele>2415.6</ele>
        <time>2020-08-11T09:22:28Z</time>
      </trkpt>
      <trkpt lat="45.15839" lon="5.97328">
        <ele>2415.6</ele>
        <time>2020-08-11T09:22:29Z</time>
      </trkpt>
      <trkpt lat="45.1584" lon="5.97328">
        <ele>2415.8</ele>
        <time>2020-08-11T09:22:30Z</time>
      </trkpt>
      <trkpt lat="45.15841" lon="5.97329">
        <ele>2416</ele>
        <time>2020-08-11T09:22:31Z</time>
      </trkpt>
      <trkpt lat="45.15842" lon="5.97329">
        <ele>2416.2</ele>
        <time>2020-08-11T09:22:32Z</time>
      </trkpt>
      <trkpt lat="45.15843" lon="5.9733">
        <ele>2416.4</ele>
        <time>2020-08-11T09:22:33Z</time>
      </trkpt>
      <trkpt lat="45.15844" lon="5.9733">
        <ele>2416.8</ele>
        <time>2020-08-11T09:22:34Z</time>
      </trkpt>
      <trkpt lat="45.15845" lon="5.97331">
        <ele>2417</ele>
        <time>2020-08-11T09:22:35Z</time>
      </trkpt>
      <trkpt lat="45.15846" lon="5.97331">
        <ele>2417.4</ele>
        <time>2020-08-11T09:22:36Z</time>
      </trkpt>
      <trkpt lat="45.15847" lon="5.97332">
        <ele>2418</ele>
        <time>2020-08-11T09:22:37Z</time>
      </trkpt>
      <trkpt lat="45.15848" lon="5.97332">
        <ele>2418.2</ele>
        <time>2020-08-11T09:22:38Z</time>
      </trkpt>
      <trkpt lat="45.15849" lon="5.97333">
        <ele>2418.6</ele>
        <time>2020-08-11T09:22:39Z</time>
      </trkpt>
      <trkpt lat="45.15849" lon="5.97333">
        <ele>2418.6</ele>
        <time>2020-08-11T09:22:40Z</time>
      </trkpt>
      <trkpt lat="45.15849" lon="5.97333">
        <ele>2418.6</ele>
        <time>2020-08-11T09:22:41Z</time>
      </trkpt>
      <trkpt lat="45.15849" lon="5.97333">
        <ele>2418.6</ele>
        <time>2020-08-11T09:22:42Z</time>
      </trkpt>
      <trkpt lat="45.1585" lon="5.97333">
        <ele>2418.8</ele>
        <time>2020-08-11T09:22:43Z</time>
      </trkpt>
      <trkpt lat="45.1585" lon="5.97333">
        <ele>2419</ele>
        <time>2020-08-11T09:22:44Z</time>
      </trkpt>
      <trkpt lat="45.1585" lon="5.97334">
        <ele>2418.8</ele>
        <time>2020-08-11T09:22:45Z</time>
      </trkpt>
      <trkpt lat="45.1585" lon="5.97334">
        <ele>2419.2</ele>
        <time>2020-08-11T09:22:46Z</time>
      </trkpt>
      <trkpt lat="45.1585" lon="5.97334">
        <ele>2419.4</ele>
        <time>2020-08-11T09:22:47Z</time>
      </trkpt>
      <trkpt lat="45.15851" lon="5.97334">
        <ele>2420</ele>
        <time>2020-08-11T09:22:48Z</time>
      </trkpt>
      <trkpt lat="45.15851" lon="5.97334">
        <ele>2420</ele>
        <time>2020-08-11T09:22:49Z</time>
      </trkpt>
      <trkpt lat="45.15851" lon="5.97334">
        <ele>2420.2</ele>
        <time>2020-08-11T09:22:50Z</time>
      </trkpt>
      <trkpt lat="45.15851" lon="5.97335">
        <ele>2420.4</ele>
        <time>2020-08-11T09:22:51Z</time>
      </trkpt>
      <trkpt lat="45.15852" lon="5.97335">
        <ele>2420.8</ele>
        <time>2020-08-11T09:22:52Z</time>
      </trkpt>
      <trkpt lat="45.15852" lon="5.97335">
        <ele>2421.2</ele>
        <time>2020-08-11T09:22:53Z</time>
      </trkpt>
      <trkpt lat="45.15852" lon="5.97335">
        <ele>2421.2</ele>
        <time>2020-08-11T09:22:54Z</time>
      </trkpt>
      <trkpt lat="45.15852" lon="5.97335">
        <ele>2421.4</ele>
        <time>2020-08-11T09:22:55Z</time>
      </trkpt>
      <trkpt lat="45.15852" lon="5.97335">
        <ele>2421.8</ele>
        <time>2020-08-11T09:22:56Z</time>
      </trkpt>
      <trkpt lat="45.15853" lon="5.97336">
        <ele>2422</ele>
        <time>2020-08-11T09:22:57Z</time>
      </trkpt>
      <trkpt lat="45.15853" lon="5.97336">
        <ele>2422.4</ele>
        <time>2020-08-11T09:22:58Z</time>
      </trkpt>
      <trkpt lat="45.15853" lon="5.97336">
        <ele>2422.4</ele>
        <time>2020-08-11T09:22:59Z</time>
      </trkpt>
      <trkpt lat="45.15853" lon="5.97336">
        <ele>2422.6</ele>
        <time>2020-08-11T09:23:00Z</time>
      </trkpt>
      <trkpt lat="45.15854" lon="5.97336">
        <ele>2422.8</ele>
        <time>2020-08-11T09:23:01Z</time>
      </trkpt>
      <trkpt lat="45.15854" lon="5.97336">
        <ele>2423.4</ele>
        <time>2020-08-11T09:23:02Z</time>
      </trkpt>
      <trkpt lat="45.15854" lon="5.97337">
        <ele>2423.4</ele>
        <time>2020-08-11T09:23:03Z</time>
      </trkpt>
      <trkpt lat="45.15854" lon="5.97337">
        <ele>2423.6</ele>
        <time>2020-08-11T09:23:04Z</time>
      </trkpt>
      <trkpt lat="45.15854" lon="5.97337">
        <ele>2423.8</ele>
        <time>2020-08-11T09:23:05Z</time>
      </trkpt>
      <trkpt lat="45.15855" lon="5.97337">
        <ele>2424</ele>
        <time>2020-08-11T09:23:06Z</time>
      </trkpt>
      <trkpt lat="45.15855" lon="5.97337">
        <ele>2424.2</ele>
        <time>2020-08-11T09:23:07Z</time>
      </trkpt>
      <trkpt lat="45.15855" lon="5.97337">
        <ele>2424.4</ele>
        <time>2020-08-11T09:23:08Z</time>
      </trkpt>
      <trkpt lat="45.15855" lon="5.97338">
        <ele>2424.4</ele>
        <time>2020-08-11T09:23:09Z</time>
      </trkpt>
      <trkpt lat="45.15856" lon="5.97338">
        <ele>2424.8</ele>
        <time>2020-08-11T09:23:10Z</time>
      </trkpt>
      <trkpt lat="45.15856" lon="5.97338">
        <ele>2424.6</ele>
        <time>2020-08-11T09:23:11Z</time>
      </trkpt>
      <trkpt lat="45.15856" lon="5.97338">
        <ele>2424.8</ele>
        <time>2020-08-11T09:23:12Z</time>
      </trkpt>
      <trkpt lat="45.15856" lon="5.97338">
        <ele>2425</ele>
        <time>2020-08-11T09:23:13Z</time>
      </trkpt>
      <trkpt lat="45.15856" lon="5.97338">
        <ele>2425.2</ele>
        <time>2020-08-11T09:23:14Z</time>
      </trkpt>
      <trkpt lat="45.15856" lon="5.97338">
        <ele>2425.2</ele>
        <time>2020-08-11T09:23:15Z</time>
      </trkpt>
      <trkpt lat="45.15856" lon="5.97341">
        <ele>2425</ele>
        <time>2020-08-11T09:23:16Z</time>
      </trkpt>
      <trkpt lat="45.15856" lon="5.97341">
        <ele>2425.4</ele>
        <time>2020-08-11T09:23:17Z</time>
      </trkpt>
      <trkpt lat="45.15856" lon="5.97341">
        <ele>2425.6</ele>
        <time>2020-08-11T09:23:18Z</time>
      </trkpt>
      <trkpt lat="45.15855" lon="5.97345">
        <ele>2425.6</ele>
        <time>2020-08-11T09:23:19Z</time>
      </trkpt>
      <trkpt lat="45.15855" lon="5.97345">
        <ele>2425.6</ele>
        <time>2020-08-11T09:23:20Z</time>
      </trkpt>
      <trkpt lat="45.15855" lon="5.97345">
        <ele>2425.8</ele>
        <time>2020-08-11T09:23:21Z</time>
      </trkpt>
      <trkpt lat="45.15856" lon="5.97348">
        <ele>2426</ele>
        <time>2020-08-11T09:23:22Z</time>
      </trkpt>
      <trkpt lat="45.15856" lon="5.97349">
        <ele>2426</ele>
        <time>2020-08-11T09:23:23Z</time>
      </trkpt>
      <trkpt lat="45.15856" lon="5.97349">
        <ele>2426</ele>
        <time>2020-08-11T09:23:24Z</time>
      </trkpt>
      <trkpt lat="45.15856" lon="5.9735">
        <ele>2426.2</ele>
        <time>2020-08-11T09:23:25Z</time>
      </trkpt>
      <trkpt lat="45.15856" lon="5.97351">
        <ele>2426.2</ele>
        <time>2020-08-11T09:23:26Z</time>
      </trkpt>
      <trkpt lat="45.15856" lon="5.97352">
        <ele>2426.6</ele>
        <time>2020-08-11T09:23:27Z</time>
      </trkpt>
      <trkpt lat="45.15857" lon="5.97352">
        <ele>2426.8</ele>
        <time>2020-08-11T09:23:28Z</time>
      </trkpt>
      <trkpt lat="45.15857" lon="5.97353">
        <ele>2427</ele>
        <time>2020-08-11T09:23:29Z</time>
      </trkpt>
      <trkpt lat="45.15857" lon="5.97353">
        <ele>2427.2</ele>
        <time>2020-08-11T09:23:30Z</time>
      </trkpt>
      <trkpt lat="45.15857" lon="5.97354">
        <ele>2427.4</ele>
        <time>2020-08-11T09:23:31Z</time>
      </trkpt>
      <trkpt lat="45.15857" lon="5.97354">
        <ele>2427.4</ele>
        <time>2020-08-11T09:23:32Z</time>
      </trkpt>
      <trkpt lat="45.15858" lon="5.97355">
        <ele>2427.6</ele>
        <time>2020-08-11T09:23:33Z</time>
      </trkpt>
      <trkpt lat="45.15858" lon="5.97355">
        <ele>2427.6</ele>
        <time>2020-08-11T09:23:34Z</time>
      </trkpt>
      <trkpt lat="45.15859" lon="5.97356">
        <ele>2428</ele>
        <time>2020-08-11T09:23:35Z</time>
      </trkpt>
      <trkpt lat="45.15859" lon="5.97356">
        <ele>2428.2</ele>
        <time>2020-08-11T09:23:36Z</time>
      </trkpt>
      <trkpt lat="45.15859" lon="5.97357">
        <ele>2428.2</ele>
        <time>2020-08-11T09:23:37Z</time>
      </trkpt>
      <trkpt lat="45.1586" lon="5.97358">
        <ele>2428.4</ele>
        <time>2020-08-11T09:23:38Z</time>
      </trkpt>
      <trkpt lat="45.1586" lon="5.97358">
        <ele>2428.6</ele>
        <time>2020-08-11T09:23:39Z</time>
      </trkpt>
      <trkpt lat="45.1586" lon="5.97359">
        <ele>2429</ele>
        <time>2020-08-11T09:23:40Z</time>
      </trkpt>
      <trkpt lat="45.15861" lon="5.97359">
        <ele>2429.2</ele>
        <time>2020-08-11T09:23:41Z</time>
      </trkpt>
      <trkpt lat="45.15861" lon="5.9736">
        <ele>2429.4</ele>
        <time>2020-08-11T09:23:42Z</time>
      </trkpt>
      <trkpt lat="45.15862" lon="5.9736">
        <ele>2429.8</ele>
        <time>2020-08-11T09:23:43Z</time>
      </trkpt>
      <trkpt lat="45.15862" lon="5.97361">
        <ele>2430.2</ele>
        <time>2020-08-11T09:23:44Z</time>
      </trkpt>
      <trkpt lat="45.15862" lon="5.97362">
        <ele>2430.4</ele>
        <time>2020-08-11T09:23:45Z</time>
      </trkpt>
      <trkpt lat="45.15863" lon="5.97362">
        <ele>2430.8</ele>
        <time>2020-08-11T09:23:46Z</time>
      </trkpt>
      <trkpt lat="45.15863" lon="5.97363">
        <ele>2430.8</ele>
        <time>2020-08-11T09:23:47Z</time>
      </trkpt>
      <trkpt lat="45.15864" lon="5.97366">
        <ele>2430.8</ele>
        <time>2020-08-11T09:23:48Z</time>
      </trkpt>
      <trkpt lat="45.15864" lon="5.97366">
        <ele>2431</ele>
        <time>2020-08-11T09:23:49Z</time>
      </trkpt>
      <trkpt lat="45.15864" lon="5.97366">
        <ele>2431.2</ele>
        <time>2020-08-11T09:23:50Z</time>
      </trkpt>
      <trkpt lat="45.15864" lon="5.97369">
        <ele>2431.6</ele>
        <time>2020-08-11T09:23:51Z</time>
      </trkpt>
      <trkpt lat="45.15864" lon="5.97369">
        <ele>2432</ele>
        <time>2020-08-11T09:23:52Z</time>
      </trkpt>
      <trkpt lat="45.15864" lon="5.97369">
        <ele>2432.2</ele>
        <time>2020-08-11T09:23:53Z</time>
      </trkpt>
      <trkpt lat="45.15865" lon="5.97371">
        <ele>2432.2</ele>
        <time>2020-08-11T09:23:54Z</time>
      </trkpt>
      <trkpt lat="45.15865" lon="5.97371">
        <ele>2432.4</ele>
        <time>2020-08-11T09:23:55Z</time>
      </trkpt>
      <trkpt lat="45.15865" lon="5.97371">
        <ele>2432.4</ele>
        <time>2020-08-11T09:23:56Z</time>
      </trkpt>
      <trkpt lat="45.15867" lon="5.97373">
        <ele>2432.6</ele>
        <time>2020-08-11T09:23:57Z</time>
      </trkpt>
      <trkpt lat="45.15867" lon="5.97373">
        <ele>2432.8</ele>
        <time>2020-08-11T09:23:58Z</time>
      </trkpt>
      <trkpt lat="45.15867" lon="5.97373">
        <ele>2433</ele>
        <time>2020-08-11T09:23:59Z</time>
      </trkpt>
      <trkpt lat="45.15867" lon="5.97373">
        <ele>2433.2</ele>
        <time>2020-08-11T09:24:00Z</time>
      </trkpt>
      <trkpt lat="45.15866" lon="5.97376">
        <ele>2433.2</ele>
        <time>2020-08-11T09:24:01Z</time>
      </trkpt>
      <trkpt lat="45.15866" lon="5.97376">
        <ele>2433.6</ele>
        <time>2020-08-11T09:24:02Z</time>
      </trkpt>
      <trkpt lat="45.15866" lon="5.97376">
        <ele>2433.6</ele>
        <time>2020-08-11T09:24:03Z</time>
      </trkpt>
      <trkpt lat="45.15866" lon="5.97376">
        <ele>2433.8</ele>
        <time>2020-08-11T09:24:04Z</time>
      </trkpt>
      <trkpt lat="45.15867" lon="5.97379">
        <ele>2434</ele>
        <time>2020-08-11T09:24:05Z</time>
      </trkpt>
      <trkpt lat="45.15867" lon="5.97379">
        <ele>2434.2</ele>
        <time>2020-08-11T09:24:06Z</time>
      </trkpt>
      <trkpt lat="45.15868" lon="5.97382">
        <ele>2434.6</ele>
        <time>2020-08-11T09:24:07Z</time>
      </trkpt>
      <trkpt lat="45.15868" lon="5.97382">
        <ele>2434.8</ele>
        <time>2020-08-11T09:24:08Z</time>
      </trkpt>
      <trkpt lat="45.15868" lon="5.97382">
        <ele>2434.8</ele>
        <time>2020-08-11T09:24:09Z</time>
      </trkpt>
      <trkpt lat="45.15868" lon="5.97382">
        <ele>2434.8</ele>
        <time>2020-08-11T09:24:10Z</time>
      </trkpt>
      <trkpt lat="45.15869" lon="5.97384">
        <ele>2435.2</ele>
        <time>2020-08-11T09:24:11Z</time>
      </trkpt>
      <trkpt lat="45.15869" lon="5.97384">
        <ele>2435.4</ele>
        <time>2020-08-11T09:24:12Z</time>
      </trkpt>
      <trkpt lat="45.15869" lon="5.97384">
        <ele>2435.6</ele>
        <time>2020-08-11T09:24:13Z</time>
      </trkpt>
      <trkpt lat="45.1587" lon="5.97386">
        <ele>2436</ele>
        <time>2020-08-11T09:24:14Z</time>
      </trkpt>
      <trkpt lat="45.1587" lon="5.97386">
        <ele>2436.2</ele>
        <time>2020-08-11T09:24:15Z</time>
      </trkpt>
      <trkpt lat="45.1587" lon="5.97386">
        <ele>2436.6</ele>
        <time>2020-08-11T09:24:16Z</time>
      </trkpt>
      <trkpt lat="45.15872" lon="5.97388">
        <ele>2436.6</ele>
        <time>2020-08-11T09:24:17Z</time>
      </trkpt>
      <trkpt lat="45.15872" lon="5.97388">
        <ele>2437</ele>
        <time>2020-08-11T09:24:18Z</time>
      </trkpt>
      <trkpt lat="45.15872" lon="5.97388">
        <ele>2437</ele>
        <time>2020-08-11T09:24:19Z</time>
      </trkpt>
      <trkpt lat="45.15872" lon="5.97388">
        <ele>2437.2</ele>
        <time>2020-08-11T09:24:20Z</time>
      </trkpt>
      <trkpt lat="45.15874" lon="5.97389">
        <ele>2437.2</ele>
        <time>2020-08-11T09:24:21Z</time>
      </trkpt>
      <trkpt lat="45.15874" lon="5.97389">
        <ele>2437.4</ele>
        <time>2020-08-11T09:24:22Z</time>
      </trkpt>
      <trkpt lat="45.15874" lon="5.97389">
        <ele>2437.8</ele>
        <time>2020-08-11T09:24:23Z</time>
      </trkpt>
      <trkpt lat="45.15875" lon="5.97392">
        <ele>2438</ele>
        <time>2020-08-11T09:24:24Z</time>
      </trkpt>
      <trkpt lat="45.15875" lon="5.97392">
        <ele>2438</ele>
        <time>2020-08-11T09:24:25Z</time>
      </trkpt>
      <trkpt lat="45.15875" lon="5.97392">
        <ele>2438.2</ele>
        <time>2020-08-11T09:24:26Z</time>
      </trkpt>
      <trkpt lat="45.15875" lon="5.97392">
        <ele>2438.4</ele>
        <time>2020-08-11T09:24:27Z</time>
      </trkpt>
      <trkpt lat="45.15875" lon="5.97392">
        <ele>2438.8</ele>
        <time>2020-08-11T09:24:28Z</time>
      </trkpt>
      <trkpt lat="45.15875" lon="5.97392">
        <ele>2438.8</ele>
        <time>2020-08-11T09:24:29Z</time>
      </trkpt>
      <trkpt lat="45.15875" lon="5.97392">
        <ele>2439.2</ele>
        <time>2020-08-11T09:24:30Z</time>
      </trkpt>
      <trkpt lat="45.15875" lon="5.97395">
        <ele>2439.4</ele>
        <time>2020-08-11T09:24:31Z</time>
      </trkpt>
      <trkpt lat="45.15875" lon="5.97395">
        <ele>2439.6</ele>
        <time>2020-08-11T09:24:32Z</time>
      </trkpt>
      <trkpt lat="45.15875" lon="5.97395">
        <ele>2439.8</ele>
        <time>2020-08-11T09:24:33Z</time>
      </trkpt>
      <trkpt lat="45.15875" lon="5.97395">
        <ele>2439.8</ele>
        <time>2020-08-11T09:24:34Z</time>
      </trkpt>
      <trkpt lat="45.15875" lon="5.97398">
        <ele>2440</ele>
        <time>2020-08-11T09:24:35Z</time>
      </trkpt>
      <trkpt lat="45.15875" lon="5.97398">
        <ele>2440.4</ele>
        <time>2020-08-11T09:24:36Z</time>
      </trkpt>
      <trkpt lat="45.15875" lon="5.97398">
        <ele>2440.8</ele>
        <time>2020-08-11T09:24:37Z</time>
      </trkpt>
      <trkpt lat="45.15875" lon="5.97398">
        <ele>2440.8</ele>
        <time>2020-08-11T09:24:38Z</time>
      </trkpt>
      <trkpt lat="45.15875" lon="5.97398">
        <ele>2440.8</ele>
        <time>2020-08-11T09:24:39Z</time>
      </trkpt>
      <trkpt lat="45.15875" lon="5.97398">
        <ele>2441</ele>
        <time>2020-08-11T09:24:40Z</time>
      </trkpt>
      <trkpt lat="45.15876" lon="5.974">
        <ele>2441.4</ele>
        <time>2020-08-11T09:24:41Z</time>
      </trkpt>
      <trkpt lat="45.15876" lon="5.974">
        <ele>2441.6</ele>
        <time>2020-08-11T09:24:42Z</time>
      </trkpt>
      <trkpt lat="45.15876" lon="5.974">
        <ele>2441.6</ele>
        <time>2020-08-11T09:24:43Z</time>
      </trkpt>
      <trkpt lat="45.15879" lon="5.97402">
        <ele>2441.6</ele>
        <time>2020-08-11T09:24:44Z</time>
      </trkpt>
      <trkpt lat="45.15879" lon="5.97402">
        <ele>2441.8</ele>
        <time>2020-08-11T09:24:45Z</time>
      </trkpt>
      <trkpt lat="45.15879" lon="5.97402">
        <ele>2442</ele>
        <time>2020-08-11T09:24:46Z</time>
      </trkpt>
      <trkpt lat="45.15881" lon="5.97405">
        <ele>2442.2</ele>
        <time>2020-08-11T09:24:47Z</time>
      </trkpt>
      <trkpt lat="45.15881" lon="5.97405">
        <ele>2442.2</ele>
        <time>2020-08-11T09:24:48Z</time>
      </trkpt>
      <trkpt lat="45.15882" lon="5.97407">
        <ele>2442.4</ele>
        <time>2020-08-11T09:24:49Z</time>
      </trkpt>
      <trkpt lat="45.15882" lon="5.97407">
        <ele>2442.6</ele>
        <time>2020-08-11T09:24:50Z</time>
      </trkpt>
      <trkpt lat="45.15882" lon="5.97407">
        <ele>2442.8</ele>
        <time>2020-08-11T09:24:51Z</time>
      </trkpt>
      <trkpt lat="45.15882" lon="5.9741">
        <ele>2442.8</ele>
        <time>2020-08-11T09:24:52Z</time>
      </trkpt>
      <trkpt lat="45.15882" lon="5.9741">
        <ele>2443.2</ele>
        <time>2020-08-11T09:24:53Z</time>
      </trkpt>
      <trkpt lat="45.15882" lon="5.97414">
        <ele>2443.2</ele>
        <time>2020-08-11T09:24:54Z</time>
      </trkpt>
      <trkpt lat="45.15882" lon="5.97418">
        <ele>2443.2</ele>
        <time>2020-08-11T09:24:55Z</time>
      </trkpt>
      <trkpt lat="45.15882" lon="5.97418">
        <ele>2443.2</ele>
        <time>2020-08-11T09:24:56Z</time>
      </trkpt>
      <trkpt lat="45.15882" lon="5.97418">
        <ele>2443.4</ele>
        <time>2020-08-11T09:24:57Z</time>
      </trkpt>
      <trkpt lat="45.15882" lon="5.97422">
        <ele>2443.6</ele>
        <time>2020-08-11T09:24:58Z</time>
      </trkpt>
      <trkpt lat="45.15882" lon="5.97422">
        <ele>2443.2</ele>
        <time>2020-08-11T09:24:59Z</time>
      </trkpt>
      <trkpt lat="45.15882" lon="5.97422">
        <ele>2442.8</ele>
        <time>2020-08-11T09:25:00Z</time>
      </trkpt>
      <trkpt lat="45.15883" lon="5.97426">
        <ele>2442.6</ele>
        <time>2020-08-11T09:25:01Z</time>
      </trkpt>
      <trkpt lat="45.15883" lon="5.97426">
        <ele>2442.6</ele>
        <time>2020-08-11T09:25:02Z</time>
      </trkpt>
      <trkpt lat="45.15884" lon="5.97429">
        <ele>2442.8</ele>
        <time>2020-08-11T09:25:03Z</time>
      </trkpt>
      <trkpt lat="45.15884" lon="5.97429">
        <ele>2442.8</ele>
        <time>2020-08-11T09:25:04Z</time>
      </trkpt>
      <trkpt lat="45.15884" lon="5.97432">
        <ele>2443</ele>
        <time>2020-08-11T09:25:05Z</time>
      </trkpt>
      <trkpt lat="45.15884" lon="5.97432">
        <ele>2443</ele>
        <time>2020-08-11T09:25:06Z</time>
      </trkpt>
      <trkpt lat="45.15884" lon="5.97432">
        <ele>2443</ele>
        <time>2020-08-11T09:25:07Z</time>
      </trkpt>
      <trkpt lat="45.15884" lon="5.97435">
        <ele>2443.2</ele>
        <time>2020-08-11T09:25:08Z</time>
      </trkpt>
      <trkpt lat="45.15884" lon="5.97438">
        <ele>2443.2</ele>
        <time>2020-08-11T09:25:09Z</time>
      </trkpt>
      <trkpt lat="45.15884" lon="5.97438">
        <ele>2443.4</ele>
        <time>2020-08-11T09:25:10Z</time>
      </trkpt>
      <trkpt lat="45.15884" lon="5.97438">
        <ele>2443.6</ele>
        <time>2020-08-11T09:25:11Z</time>
      </trkpt>
      <trkpt lat="45.15884" lon="5.97441">
        <ele>2443.8</ele>
        <time>2020-08-11T09:25:12Z</time>
      </trkpt>
      <trkpt lat="45.15884" lon="5.97441">
        <ele>2444</ele>
        <time>2020-08-11T09:25:13Z</time>
      </trkpt>
      <trkpt lat="45.15885" lon="5.97443">
        <ele>2444</ele>
        <time>2020-08-11T09:25:14Z</time>
      </trkpt>
      <trkpt lat="45.15885" lon="5.97444">
        <ele>2443.8</ele>
        <time>2020-08-11T09:25:15Z</time>
      </trkpt>
      <trkpt lat="45.15885" lon="5.97446">
        <ele>2444</ele>
        <time>2020-08-11T09:25:16Z</time>
      </trkpt>
      <trkpt lat="45.15886" lon="5.97447">
        <ele>2443.8</ele>
        <time>2020-08-11T09:25:17Z</time>
      </trkpt>
      <trkpt lat="45.15886" lon="5.97449">
        <ele>2444</ele>
        <time>2020-08-11T09:25:18Z</time>
      </trkpt>
      <trkpt lat="45.15887" lon="5.9745">
        <ele>2444.2</ele>
        <time>2020-08-11T09:25:19Z</time>
      </trkpt>
      <trkpt lat="45.15888" lon="5.97451">
        <ele>2444.4</ele>
        <time>2020-08-11T09:25:20Z</time>
      </trkpt>
      <trkpt lat="45.15889" lon="5.97452">
        <ele>2444.4</ele>
        <time>2020-08-11T09:25:21Z</time>
      </trkpt>
      <trkpt lat="45.15889" lon="5.97453">
        <ele>2444.4</ele>
        <time>2020-08-11T09:25:22Z</time>
      </trkpt>
      <trkpt lat="45.15889" lon="5.97455">
        <ele>2444.6</ele>
        <time>2020-08-11T09:25:23Z</time>
      </trkpt>
      <trkpt lat="45.15889" lon="5.97456">
        <ele>2444.6</ele>
        <time>2020-08-11T09:25:24Z</time>
      </trkpt>
      <trkpt lat="45.15889" lon="5.97457">
        <ele>2444.8</ele>
        <time>2020-08-11T09:25:25Z</time>
      </trkpt>
      <trkpt lat="45.15889" lon="5.97458">
        <ele>2445</ele>
        <time>2020-08-11T09:25:26Z</time>
      </trkpt>
      <trkpt lat="45.15889" lon="5.97459">
        <ele>2445</ele>
        <time>2020-08-11T09:25:27Z</time>
      </trkpt>
      <trkpt lat="45.15889" lon="5.97461">
        <ele>2445.4</ele>
        <time>2020-08-11T09:25:28Z</time>
      </trkpt>
      <trkpt lat="45.15889" lon="5.97461">
        <ele>2445.6</ele>
        <time>2020-08-11T09:25:29Z</time>
      </trkpt>
      <trkpt lat="45.1589" lon="5.97464">
        <ele>2445.8</ele>
        <time>2020-08-11T09:25:30Z</time>
      </trkpt>
      <trkpt lat="45.1589" lon="5.97464">
        <ele>2445.8</ele>
        <time>2020-08-11T09:25:31Z</time>
      </trkpt>
      <trkpt lat="45.1589" lon="5.97465">
        <ele>2446</ele>
        <time>2020-08-11T09:25:32Z</time>
      </trkpt>
      <trkpt lat="45.15891" lon="5.97465">
        <ele>2446.2</ele>
        <time>2020-08-11T09:25:33Z</time>
      </trkpt>
      <trkpt lat="45.15891" lon="5.97466">
        <ele>2446.4</ele>
        <time>2020-08-11T09:25:34Z</time>
      </trkpt>
      <trkpt lat="45.15892" lon="5.97466">
        <ele>2446.8</ele>
        <time>2020-08-11T09:25:35Z</time>
      </trkpt>
      <trkpt lat="45.15892" lon="5.97467">
        <ele>2447</ele>
        <time>2020-08-11T09:25:36Z</time>
      </trkpt>
      <trkpt lat="45.15893" lon="5.97467">
        <ele>2447.2</ele>
        <time>2020-08-11T09:25:37Z</time>
      </trkpt>
      <trkpt lat="45.15893" lon="5.97468">
        <ele>2447.4</ele>
        <time>2020-08-11T09:25:38Z</time>
      </trkpt>
      <trkpt lat="45.15894" lon="5.97468">
        <ele>2447.6</ele>
        <time>2020-08-11T09:25:39Z</time>
      </trkpt>
      <trkpt lat="45.15894" lon="5.97469">
        <ele>2447.8</ele>
        <time>2020-08-11T09:25:40Z</time>
      </trkpt>
      <trkpt lat="45.15895" lon="5.97469">
        <ele>2448</ele>
        <time>2020-08-11T09:25:41Z</time>
      </trkpt>
      <trkpt lat="45.15895" lon="5.9747">
        <ele>2448.2</ele>
        <time>2020-08-11T09:25:42Z</time>
      </trkpt>
      <trkpt lat="45.15896" lon="5.9747">
        <ele>2448.6</ele>
        <time>2020-08-11T09:25:43Z</time>
      </trkpt>
      <trkpt lat="45.15896" lon="5.97471">
        <ele>2448.8</ele>
        <time>2020-08-11T09:25:44Z</time>
      </trkpt>
      <trkpt lat="45.15897" lon="5.97472">
        <ele>2449</ele>
        <time>2020-08-11T09:25:45Z</time>
      </trkpt>
      <trkpt lat="45.15897" lon="5.97472">
        <ele>2449.2</ele>
        <time>2020-08-11T09:25:46Z</time>
      </trkpt>
      <trkpt lat="45.15897" lon="5.97472">
        <ele>2449.4</ele>
        <time>2020-08-11T09:25:47Z</time>
      </trkpt>
      <trkpt lat="45.15897" lon="5.97473">
        <ele>2449.6</ele>
        <time>2020-08-11T09:25:48Z</time>
      </trkpt>
      <trkpt lat="45.15897" lon="5.97473">
        <ele>2449.6</ele>
        <time>2020-08-11T09:25:49Z</time>
      </trkpt>
      <trkpt lat="45.15897" lon="5.97474">
        <ele>2449.8</ele>
        <time>2020-08-11T09:25:50Z</time>
      </trkpt>
      <trkpt lat="45.15897" lon="5.97474">
        <ele>2450</ele>
        <time>2020-08-11T09:25:51Z</time>
      </trkpt>
      <trkpt lat="45.15897" lon="5.97475">
        <ele>2450</ele>
        <time>2020-08-11T09:25:52Z</time>
      </trkpt>
      <trkpt lat="45.15897" lon="5.97475">
        <ele>2450.2</ele>
        <time>2020-08-11T09:25:53Z</time>
      </trkpt>
      <trkpt lat="45.15897" lon="5.97476">
        <ele>2450.8</ele>
        <time>2020-08-11T09:25:54Z</time>
      </trkpt>
      <trkpt lat="45.15897" lon="5.97476">
        <ele>2451.2</ele>
        <time>2020-08-11T09:25:55Z</time>
      </trkpt>
      <trkpt lat="45.15897" lon="5.97477">
        <ele>2451</ele>
        <time>2020-08-11T09:25:56Z</time>
      </trkpt>
      <trkpt lat="45.15896" lon="5.97477">
        <ele>2451.2</ele>
        <time>2020-08-11T09:25:57Z</time>
      </trkpt>
      <trkpt lat="45.15896" lon="5.97478">
        <ele>2451.2</ele>
        <time>2020-08-11T09:25:58Z</time>
      </trkpt>
      <trkpt lat="45.15896" lon="5.97478">
        <ele>2451.2</ele>
        <time>2020-08-11T09:25:59Z</time>
      </trkpt>
      <trkpt lat="45.15896" lon="5.97478">
        <ele>2451.4</ele>
        <time>2020-08-11T09:26:00Z</time>
      </trkpt>
      <trkpt lat="45.15896" lon="5.97479">
        <ele>2451.6</ele>
        <time>2020-08-11T09:26:01Z</time>
      </trkpt>
      <trkpt lat="45.15896" lon="5.97479">
        <ele>2451.6</ele>
        <time>2020-08-11T09:26:02Z</time>
      </trkpt>
      <trkpt lat="45.15896" lon="5.9748">
        <ele>2451.8</ele>
        <time>2020-08-11T09:26:03Z</time>
      </trkpt>
      <trkpt lat="45.15896" lon="5.9748">
        <ele>2451.8</ele>
        <time>2020-08-11T09:26:04Z</time>
      </trkpt>
      <trkpt lat="45.15896" lon="5.97481">
        <ele>2452.2</ele>
        <time>2020-08-11T09:26:05Z</time>
      </trkpt>
      <trkpt lat="45.15896" lon="5.97481">
        <ele>2452.2</ele>
        <time>2020-08-11T09:26:06Z</time>
      </trkpt>
      <trkpt lat="45.15896" lon="5.97482">
        <ele>2452.4</ele>
        <time>2020-08-11T09:26:07Z</time>
      </trkpt>
      <trkpt lat="45.15896" lon="5.97482">
        <ele>2452.6</ele>
        <time>2020-08-11T09:26:08Z</time>
      </trkpt>
      <trkpt lat="45.15896" lon="5.97483">
        <ele>2452.8</ele>
        <time>2020-08-11T09:26:09Z</time>
      </trkpt>
      <trkpt lat="45.15896" lon="5.97483">
        <ele>2453</ele>
        <time>2020-08-11T09:26:10Z</time>
      </trkpt>
      <trkpt lat="45.15896" lon="5.97484">
        <ele>2453.2</ele>
        <time>2020-08-11T09:26:11Z</time>
      </trkpt>
      <trkpt lat="45.15896" lon="5.97484">
        <ele>2453.6</ele>
        <time>2020-08-11T09:26:12Z</time>
      </trkpt>
      <trkpt lat="45.15896" lon="5.97484">
        <ele>2454</ele>
        <time>2020-08-11T09:26:13Z</time>
      </trkpt>
      <trkpt lat="45.15896" lon="5.97485">
        <ele>2454.2</ele>
        <time>2020-08-11T09:26:14Z</time>
      </trkpt>
      <trkpt lat="45.15896" lon="5.97486">
        <ele>2454.4</ele>
        <time>2020-08-11T09:26:15Z</time>
      </trkpt>
      <trkpt lat="45.15896" lon="5.97486">
        <ele>2454.4</ele>
        <time>2020-08-11T09:26:16Z</time>
      </trkpt>
      <trkpt lat="45.15897" lon="5.97487">
        <ele>2454.6</ele>
        <time>2020-08-11T09:26:17Z</time>
      </trkpt>
      <trkpt lat="45.15897" lon="5.97487">
        <ele>2454.8</ele>
        <time>2020-08-11T09:26:18Z</time>
      </trkpt>
      <trkpt lat="45.15897" lon="5.97488">
        <ele>2455</ele>
        <time>2020-08-11T09:26:19Z</time>
      </trkpt>
      <trkpt lat="45.15897" lon="5.97488">
        <ele>2455.2</ele>
        <time>2020-08-11T09:26:20Z</time>
      </trkpt>
      <trkpt lat="45.15897" lon="5.97489">
        <ele>2455.2</ele>
        <time>2020-08-11T09:26:21Z</time>
      </trkpt>
      <trkpt lat="45.15897" lon="5.97489">
        <ele>2455.8</ele>
        <time>2020-08-11T09:26:22Z</time>
      </trkpt>
      <trkpt lat="45.15897" lon="5.9749">
        <ele>2455.8</ele>
        <time>2020-08-11T09:26:23Z</time>
      </trkpt>
      <trkpt lat="45.15898" lon="5.9749">
        <ele>2456</ele>
        <time>2020-08-11T09:26:24Z</time>
      </trkpt>
      <trkpt lat="45.15898" lon="5.97491">
        <ele>2456.2</ele>
        <time>2020-08-11T09:26:25Z</time>
      </trkpt>
      <trkpt lat="45.15898" lon="5.97492">
        <ele>2456.4</ele>
        <time>2020-08-11T09:26:26Z</time>
      </trkpt>
      <trkpt lat="45.15898" lon="5.97492">
        <ele>2456.6</ele>
        <time>2020-08-11T09:26:27Z</time>
      </trkpt>
      <trkpt lat="45.15898" lon="5.97493">
        <ele>2456.6</ele>
        <time>2020-08-11T09:26:28Z</time>
      </trkpt>
      <trkpt lat="45.15898" lon="5.97493">
        <ele>2456.8</ele>
        <time>2020-08-11T09:26:29Z</time>
      </trkpt>
      <trkpt lat="45.15899" lon="5.97494">
        <ele>2457</ele>
        <time>2020-08-11T09:26:30Z</time>
      </trkpt>
      <trkpt lat="45.15899" lon="5.97494">
        <ele>2456.8</ele>
        <time>2020-08-11T09:26:31Z</time>
      </trkpt>
      <trkpt lat="45.15899" lon="5.97495">
        <ele>2457</ele>
        <time>2020-08-11T09:26:32Z</time>
      </trkpt>
      <trkpt lat="45.15899" lon="5.97495">
        <ele>2457.4</ele>
        <time>2020-08-11T09:26:33Z</time>
      </trkpt>
      <trkpt lat="45.15899" lon="5.97496">
        <ele>2457.6</ele>
        <time>2020-08-11T09:26:34Z</time>
      </trkpt>
      <trkpt lat="45.15899" lon="5.97497">
        <ele>2457.8</ele>
        <time>2020-08-11T09:26:35Z</time>
      </trkpt>
      <trkpt lat="45.159" lon="5.97497">
        <ele>2458</ele>
        <time>2020-08-11T09:26:36Z</time>
      </trkpt>
      <trkpt lat="45.159" lon="5.97498">
        <ele>2458</ele>
        <time>2020-08-11T09:26:37Z</time>
      </trkpt>
      <trkpt lat="45.159" lon="5.97499">
        <ele>2458.2</ele>
        <time>2020-08-11T09:26:38Z</time>
      </trkpt>
      <trkpt lat="45.15901" lon="5.975">
        <ele>2458.2</ele>
        <time>2020-08-11T09:26:39Z</time>
      </trkpt>
      <trkpt lat="45.15901" lon="5.975">
        <ele>2458.4</ele>
        <time>2020-08-11T09:26:40Z</time>
      </trkpt>
      <trkpt lat="45.15901" lon="5.97501">
        <ele>2458.8</ele>
        <time>2020-08-11T09:26:41Z</time>
      </trkpt>
      <trkpt lat="45.15901" lon="5.97502">
        <ele>2459</ele>
        <time>2020-08-11T09:26:42Z</time>
      </trkpt>
      <trkpt lat="45.15902" lon="5.97503">
        <ele>2459.2</ele>
        <time>2020-08-11T09:26:43Z</time>
      </trkpt>
      <trkpt lat="45.15902" lon="5.97503">
        <ele>2459.6</ele>
        <time>2020-08-11T09:26:44Z</time>
      </trkpt>
      <trkpt lat="45.15902" lon="5.97504">
        <ele>2459.8</ele>
        <time>2020-08-11T09:26:45Z</time>
      </trkpt>
      <trkpt lat="45.15902" lon="5.97505">
        <ele>2459.8</ele>
        <time>2020-08-11T09:26:46Z</time>
      </trkpt>
      <trkpt lat="45.15903" lon="5.97506">
        <ele>2460</ele>
        <time>2020-08-11T09:26:47Z</time>
      </trkpt>
      <trkpt lat="45.15903" lon="5.97506">
        <ele>2460.4</ele>
        <time>2020-08-11T09:26:48Z</time>
      </trkpt>
      <trkpt lat="45.15903" lon="5.97507">
        <ele>2460.8</ele>
        <time>2020-08-11T09:26:49Z</time>
      </trkpt>
      <trkpt lat="45.15904" lon="5.97508">
        <ele>2461</ele>
        <time>2020-08-11T09:26:50Z</time>
      </trkpt>
      <trkpt lat="45.15904" lon="5.97508">
        <ele>2461</ele>
        <time>2020-08-11T09:26:51Z</time>
      </trkpt>
      <trkpt lat="45.15904" lon="5.97508">
        <ele>2461.4</ele>
        <time>2020-08-11T09:26:52Z</time>
      </trkpt>
      <trkpt lat="45.15904" lon="5.97508">
        <ele>2461.4</ele>
        <time>2020-08-11T09:26:53Z</time>
      </trkpt>
      <trkpt lat="45.15906" lon="5.9751">
        <ele>2461.8</ele>
        <time>2020-08-11T09:26:54Z</time>
      </trkpt>
      <trkpt lat="45.15906" lon="5.9751">
        <ele>2462</ele>
        <time>2020-08-11T09:26:55Z</time>
      </trkpt>
      <trkpt lat="45.15908" lon="5.9751">
        <ele>2462.2</ele>
        <time>2020-08-11T09:26:56Z</time>
      </trkpt>
      <trkpt lat="45.15908" lon="5.9751">
        <ele>2462.6</ele>
        <time>2020-08-11T09:26:57Z</time>
      </trkpt>
      <trkpt lat="45.15908" lon="5.9751">
        <ele>2462.6</ele>
        <time>2020-08-11T09:26:58Z</time>
      </trkpt>
      <trkpt lat="45.1591" lon="5.97511">
        <ele>2462.8</ele>
        <time>2020-08-11T09:26:59Z</time>
      </trkpt>
      <trkpt lat="45.1591" lon="5.97511">
        <ele>2463</ele>
        <time>2020-08-11T09:27:00Z</time>
      </trkpt>
      <trkpt lat="45.1591" lon="5.97511">
        <ele>2463.2</ele>
        <time>2020-08-11T09:27:01Z</time>
      </trkpt>
      <trkpt lat="45.1591" lon="5.97511">
        <ele>2463.4</ele>
        <time>2020-08-11T09:27:02Z</time>
      </trkpt>
      <trkpt lat="45.1591" lon="5.97511">
        <ele>2463.6</ele>
        <time>2020-08-11T09:27:03Z</time>
      </trkpt>
      <trkpt lat="45.1591" lon="5.97511">
        <ele>2463.8</ele>
        <time>2020-08-11T09:27:04Z</time>
      </trkpt>
      <trkpt lat="45.15911" lon="5.97512">
        <ele>2464</ele>
        <time>2020-08-11T09:27:05Z</time>
      </trkpt>
      <trkpt lat="45.15911" lon="5.97512">
        <ele>2464.2</ele>
        <time>2020-08-11T09:27:06Z</time>
      </trkpt>
      <trkpt lat="45.15911" lon="5.97512">
        <ele>2464.4</ele>
        <time>2020-08-11T09:27:07Z</time>
      </trkpt>
      <trkpt lat="45.15911" lon="5.97512">
        <ele>2464.6</ele>
        <time>2020-08-11T09:27:08Z</time>
      </trkpt>
      <trkpt lat="45.15912" lon="5.97515">
        <ele>2464.8</ele>
        <time>2020-08-11T09:27:09Z</time>
      </trkpt>
      <trkpt lat="45.15912" lon="5.97515">
        <ele>2464.6</ele>
        <time>2020-08-11T09:27:10Z</time>
      </trkpt>
      <trkpt lat="45.15912" lon="5.97515">
        <ele>2464.8</ele>
        <time>2020-08-11T09:27:11Z</time>
      </trkpt>
      <trkpt lat="45.15912" lon="5.97515">
        <ele>2465</ele>
        <time>2020-08-11T09:27:12Z</time>
      </trkpt>
      <trkpt lat="45.15912" lon="5.97515">
        <ele>2465</ele>
        <time>2020-08-11T09:27:13Z</time>
      </trkpt>
      <trkpt lat="45.15912" lon="5.97515">
        <ele>2465.4</ele>
        <time>2020-08-11T09:27:14Z</time>
      </trkpt>
      <trkpt lat="45.15913" lon="5.97519">
        <ele>2465.4</ele>
        <time>2020-08-11T09:27:15Z</time>
      </trkpt>
      <trkpt lat="45.15913" lon="5.97519">
        <ele>2465.8</ele>
        <time>2020-08-11T09:27:16Z</time>
      </trkpt>
      <trkpt lat="45.15913" lon="5.97519">
        <ele>2465.8</ele>
        <time>2020-08-11T09:27:17Z</time>
      </trkpt>
      <trkpt lat="45.15913" lon="5.9752">
        <ele>2466</ele>
        <time>2020-08-11T09:27:18Z</time>
      </trkpt>
      <trkpt lat="45.15914" lon="5.97521">
        <ele>2465.8</ele>
        <time>2020-08-11T09:27:19Z</time>
      </trkpt>
      <trkpt lat="45.15914" lon="5.97522">
        <ele>2466.2</ele>
        <time>2020-08-11T09:27:20Z</time>
      </trkpt>
      <trkpt lat="45.15915" lon="5.97523">
        <ele>2466.4</ele>
        <time>2020-08-11T09:27:21Z</time>
      </trkpt>
      <trkpt lat="45.15915" lon="5.97524">
        <ele>2466.4</ele>
        <time>2020-08-11T09:27:22Z</time>
      </trkpt>
      <trkpt lat="45.15915" lon="5.97525">
        <ele>2466.6</ele>
        <time>2020-08-11T09:27:23Z</time>
      </trkpt>
      <trkpt lat="45.15916" lon="5.97526">
        <ele>2466.8</ele>
        <time>2020-08-11T09:27:24Z</time>
      </trkpt>
      <trkpt lat="45.15916" lon="5.97527">
        <ele>2467</ele>
        <time>2020-08-11T09:27:25Z</time>
      </trkpt>
      <trkpt lat="45.15917" lon="5.97528">
        <ele>2467</ele>
        <time>2020-08-11T09:27:26Z</time>
      </trkpt>
      <trkpt lat="45.15917" lon="5.97529">
        <ele>2467.4</ele>
        <time>2020-08-11T09:27:27Z</time>
      </trkpt>
      <trkpt lat="45.15918" lon="5.9753">
        <ele>2467.4</ele>
        <time>2020-08-11T09:27:28Z</time>
      </trkpt>
      <trkpt lat="45.15918" lon="5.97531">
        <ele>2467.4</ele>
        <time>2020-08-11T09:27:29Z</time>
      </trkpt>
      <trkpt lat="45.15919" lon="5.97532">
        <ele>2467.6</ele>
        <time>2020-08-11T09:27:30Z</time>
      </trkpt>
      <trkpt lat="45.15919" lon="5.97533">
        <ele>2468</ele>
        <time>2020-08-11T09:27:31Z</time>
      </trkpt>
      <trkpt lat="45.1592" lon="5.97533">
        <ele>2468.2</ele>
        <time>2020-08-11T09:27:32Z</time>
      </trkpt>
      <trkpt lat="45.1592" lon="5.97534">
        <ele>2468.2</ele>
        <time>2020-08-11T09:27:33Z</time>
      </trkpt>
      <trkpt lat="45.15921" lon="5.97535">
        <ele>2468.4</ele>
        <time>2020-08-11T09:27:34Z</time>
      </trkpt>
      <trkpt lat="45.15921" lon="5.97536">
        <ele>2468.6</ele>
        <time>2020-08-11T09:27:35Z</time>
      </trkpt>
      <trkpt lat="45.15922" lon="5.97537">
        <ele>2468.8</ele>
        <time>2020-08-11T09:27:36Z</time>
      </trkpt>
      <trkpt lat="45.15922" lon="5.97538">
        <ele>2469</ele>
        <time>2020-08-11T09:27:37Z</time>
      </trkpt>
      <trkpt lat="45.15923" lon="5.97539">
        <ele>2469.2</ele>
        <time>2020-08-11T09:27:38Z</time>
      </trkpt>
      <trkpt lat="45.15923" lon="5.97539">
        <ele>2469.4</ele>
        <time>2020-08-11T09:27:39Z</time>
      </trkpt>
      <trkpt lat="45.15924" lon="5.9754">
        <ele>2469.8</ele>
        <time>2020-08-11T09:27:40Z</time>
      </trkpt>
      <trkpt lat="45.15924" lon="5.97541">
        <ele>2470</ele>
        <time>2020-08-11T09:27:41Z</time>
      </trkpt>
      <trkpt lat="45.15924" lon="5.97541">
        <ele>2470</ele>
        <time>2020-08-11T09:27:42Z</time>
      </trkpt>
      <trkpt lat="45.15924" lon="5.97542">
        <ele>2470.2</ele>
        <time>2020-08-11T09:27:43Z</time>
      </trkpt>
      <trkpt lat="45.15925" lon="5.97542">
        <ele>2470.6</ele>
        <time>2020-08-11T09:27:44Z</time>
      </trkpt>
      <trkpt lat="45.15925" lon="5.97543">
        <ele>2470.6</ele>
        <time>2020-08-11T09:27:45Z</time>
      </trkpt>
      <trkpt lat="45.15925" lon="5.97543">
        <ele>2471</ele>
        <time>2020-08-11T09:27:46Z</time>
      </trkpt>
      <trkpt lat="45.15925" lon="5.97544">
        <ele>2471</ele>
        <time>2020-08-11T09:27:47Z</time>
      </trkpt>
      <trkpt lat="45.15925" lon="5.97544">
        <ele>2471.2</ele>
        <time>2020-08-11T09:27:48Z</time>
      </trkpt>
      <trkpt lat="45.15926" lon="5.97545">
        <ele>2471.6</ele>
        <time>2020-08-11T09:27:49Z</time>
      </trkpt>
      <trkpt lat="45.15926" lon="5.97545">
        <ele>2471.6</ele>
        <time>2020-08-11T09:27:50Z</time>
      </trkpt>
      <trkpt lat="45.15926" lon="5.97546">
        <ele>2471.8</ele>
        <time>2020-08-11T09:27:51Z</time>
      </trkpt>
      <trkpt lat="45.15926" lon="5.97546">
        <ele>2472</ele>
        <time>2020-08-11T09:27:52Z</time>
      </trkpt>
      <trkpt lat="45.15926" lon="5.97547">
        <ele>2472.2</ele>
        <time>2020-08-11T09:27:53Z</time>
      </trkpt>
      <trkpt lat="45.15927" lon="5.97547">
        <ele>2472.4</ele>
        <time>2020-08-11T09:27:54Z</time>
      </trkpt>
      <trkpt lat="45.15927" lon="5.97548">
        <ele>2472.6</ele>
        <time>2020-08-11T09:27:55Z</time>
      </trkpt>
      <trkpt lat="45.15927" lon="5.97548">
        <ele>2472.6</ele>
        <time>2020-08-11T09:27:56Z</time>
      </trkpt>
      <trkpt lat="45.15927" lon="5.97549">
        <ele>2472.8</ele>
        <time>2020-08-11T09:27:57Z</time>
      </trkpt>
      <trkpt lat="45.15927" lon="5.97549">
        <ele>2473</ele>
        <time>2020-08-11T09:27:58Z</time>
      </trkpt>
      <trkpt lat="45.15928" lon="5.9755">
        <ele>2473</ele>
        <time>2020-08-11T09:27:59Z</time>
      </trkpt>
      <trkpt lat="45.15928" lon="5.9755">
        <ele>2473.6</ele>
        <time>2020-08-11T09:28:00Z</time>
      </trkpt>
      <trkpt lat="45.15928" lon="5.9755">
        <ele>2474</ele>
        <time>2020-08-11T09:28:01Z</time>
      </trkpt>
      <trkpt lat="45.15928" lon="5.9755">
        <ele>2473.8</ele>
        <time>2020-08-11T09:28:02Z</time>
      </trkpt>
      <trkpt lat="45.15928" lon="5.9755">
        <ele>2474.2</ele>
        <time>2020-08-11T09:28:03Z</time>
      </trkpt>
      <trkpt lat="45.15927" lon="5.97553">
        <ele>2474.4</ele>
        <time>2020-08-11T09:28:04Z</time>
      </trkpt>
      <trkpt lat="45.15927" lon="5.97553">
        <ele>2474.8</ele>
        <time>2020-08-11T09:28:05Z</time>
      </trkpt>
      <trkpt lat="45.15927" lon="5.97553">
        <ele>2475.2</ele>
        <time>2020-08-11T09:28:06Z</time>
      </trkpt>
      <trkpt lat="45.15927" lon="5.97553">
        <ele>2475.4</ele>
        <time>2020-08-11T09:28:07Z</time>
      </trkpt>
      <trkpt lat="45.15927" lon="5.97553">
        <ele>2475.6</ele>
        <time>2020-08-11T09:28:08Z</time>
      </trkpt>
      <trkpt lat="45.15927" lon="5.97553">
        <ele>2475.6</ele>
        <time>2020-08-11T09:28:09Z</time>
      </trkpt>
      <trkpt lat="45.15927" lon="5.97553">
        <ele>2475.6</ele>
        <time>2020-08-11T09:28:10Z</time>
      </trkpt>
      <trkpt lat="45.15927" lon="5.97553">
        <ele>2475.4</ele>
        <time>2020-08-11T09:28:11Z</time>
      </trkpt>
      <trkpt lat="45.15927" lon="5.97553">
        <ele>2476</ele>
        <time>2020-08-11T09:28:12Z</time>
      </trkpt>
      <trkpt lat="45.1593" lon="5.97551">
        <ele>2476.4</ele>
        <time>2020-08-11T09:28:13Z</time>
      </trkpt>
      <trkpt lat="45.1593" lon="5.97551">
        <ele>2476.8</ele>
        <time>2020-08-11T09:28:14Z</time>
      </trkpt>
      <trkpt lat="45.15931" lon="5.97551">
        <ele>2477</ele>
        <time>2020-08-11T09:28:15Z</time>
      </trkpt>
      <trkpt lat="45.15931" lon="5.97552">
        <ele>2477.2</ele>
        <time>2020-08-11T09:28:16Z</time>
      </trkpt>
      <trkpt lat="45.15932" lon="5.97552">
        <ele>2477.8</ele>
        <time>2020-08-11T09:28:17Z</time>
      </trkpt>
      <trkpt lat="45.15933" lon="5.97553">
        <ele>2478</ele>
        <time>2020-08-11T09:28:18Z</time>
      </trkpt>
      <trkpt lat="45.15934" lon="5.97553">
        <ele>2478</ele>
        <time>2020-08-11T09:28:19Z</time>
      </trkpt>
      <trkpt lat="45.15934" lon="5.97553">
        <ele>2478.4</ele>
        <time>2020-08-11T09:28:20Z</time>
      </trkpt>
      <trkpt lat="45.15935" lon="5.97554">
        <ele>2478.4</ele>
        <time>2020-08-11T09:28:21Z</time>
      </trkpt>
      <trkpt lat="45.15936" lon="5.97554">
        <ele>2478.8</ele>
        <time>2020-08-11T09:28:22Z</time>
      </trkpt>
      <trkpt lat="45.15937" lon="5.97555">
        <ele>2478.8</ele>
        <time>2020-08-11T09:28:23Z</time>
      </trkpt>
      <trkpt lat="45.15938" lon="5.97555">
        <ele>2479</ele>
        <time>2020-08-11T09:28:24Z</time>
      </trkpt>
      <trkpt lat="45.15938" lon="5.97556">
        <ele>2479</ele>
        <time>2020-08-11T09:28:25Z</time>
      </trkpt>
      <trkpt lat="45.15939" lon="5.97556">
        <ele>2479.6</ele>
        <time>2020-08-11T09:28:26Z</time>
      </trkpt>
      <trkpt lat="45.1594" lon="5.97556">
        <ele>2479.6</ele>
        <time>2020-08-11T09:28:27Z</time>
      </trkpt>
      <trkpt lat="45.15941" lon="5.97555">
        <ele>2479.8</ele>
        <time>2020-08-11T09:28:28Z</time>
      </trkpt>
      <trkpt lat="45.15942" lon="5.97553">
        <ele>2480</ele>
        <time>2020-08-11T09:28:29Z</time>
      </trkpt>
      <trkpt lat="45.15943" lon="5.97552">
        <ele>2480.2</ele>
        <time>2020-08-11T09:28:30Z</time>
      </trkpt>
      <trkpt lat="45.15944" lon="5.9755">
        <ele>2480.6</ele>
        <time>2020-08-11T09:28:31Z</time>
      </trkpt>
      <trkpt lat="45.15945" lon="5.97548">
        <ele>2480.4</ele>
        <time>2020-08-11T09:28:32Z</time>
      </trkpt>
      <trkpt lat="45.15946" lon="5.97547">
        <ele>2480.8</ele>
        <time>2020-08-11T09:28:33Z</time>
      </trkpt>
      <trkpt lat="45.15947" lon="5.97545">
        <ele>2481</ele>
        <time>2020-08-11T09:28:34Z</time>
      </trkpt>
      <trkpt lat="45.15948" lon="5.97543">
        <ele>2481.4</ele>
        <time>2020-08-11T09:28:35Z</time>
      </trkpt>
      <trkpt lat="45.15946" lon="5.97545">
        <ele>2481.6</ele>
        <time>2020-08-11T09:28:36Z</time>
      </trkpt>
      <trkpt lat="45.15945" lon="5.97547">
        <ele>2482.2</ele>
        <time>2020-08-11T09:28:37Z</time>
      </trkpt>
      <trkpt lat="45.15943" lon="5.97549">
        <ele>2482.2</ele>
        <time>2020-08-11T09:28:38Z</time>
      </trkpt>
      <trkpt lat="45.15941" lon="5.97551">
        <ele>2482.4</ele>
        <time>2020-08-11T09:28:39Z</time>
      </trkpt>
      <trkpt lat="45.15941" lon="5.97551">
        <ele>2482.4</ele>
        <time>2020-08-11T09:28:40Z</time>
      </trkpt>
      <trkpt lat="45.15941" lon="5.97551">
        <ele>2482.6</ele>
        <time>2020-08-11T09:28:41Z</time>
      </trkpt>
      <trkpt lat="45.15941" lon="5.97551">
        <ele>2483</ele>
        <time>2020-08-11T09:28:42Z</time>
      </trkpt>
      <trkpt lat="45.15941" lon="5.97551">
        <ele>2483.2</ele>
        <time>2020-08-11T09:28:43Z</time>
      </trkpt>
      <trkpt lat="45.15944" lon="5.97551">
        <ele>2483.4</ele>
        <time>2020-08-11T09:28:44Z</time>
      </trkpt>
      <trkpt lat="45.15944" lon="5.97551">
        <ele>2483.2</ele>
        <time>2020-08-11T09:28:45Z</time>
      </trkpt>
      <trkpt lat="45.15944" lon="5.97551">
        <ele>2483.2</ele>
        <time>2020-08-11T09:28:46Z</time>
      </trkpt>
      <trkpt lat="45.15945" lon="5.97551">
        <ele>2483.6</ele>
        <time>2020-08-11T09:28:47Z</time>
      </trkpt>
      <trkpt lat="45.15945" lon="5.97552">
        <ele>2485.8</ele>
        <time>2020-08-11T09:28:48Z</time>
      </trkpt>
      <trkpt lat="45.15945" lon="5.97552">
        <ele>2485.4</ele>
        <time>2020-08-11T09:28:49Z</time>
      </trkpt>
      <trkpt lat="45.15946" lon="5.97552">
        <ele>2484.8</ele>
        <time>2020-08-11T09:28:50Z</time>
      </trkpt>
      <trkpt lat="45.15946" lon="5.97552">
        <ele>2484.8</ele>
        <time>2020-08-11T09:28:51Z</time>
      </trkpt>
      <trkpt lat="45.15946" lon="5.97553">
        <ele>2484.8</ele>
        <time>2020-08-11T09:28:52Z</time>
      </trkpt>
      <trkpt lat="45.15947" lon="5.97553">
        <ele>2484.8</ele>
        <time>2020-08-11T09:28:53Z</time>
      </trkpt>
      <trkpt lat="45.15947" lon="5.97553">
        <ele>2484.8</ele>
        <time>2020-08-11T09:28:54Z</time>
      </trkpt>
      <trkpt lat="45.15947" lon="5.97554">
        <ele>2485</ele>
        <time>2020-08-11T09:28:55Z</time>
      </trkpt>
      <trkpt lat="45.15948" lon="5.97554">
        <ele>2485.2</ele>
        <time>2020-08-11T09:28:56Z</time>
      </trkpt>
      <trkpt lat="45.15948" lon="5.97554">
        <ele>2485.2</ele>
        <time>2020-08-11T09:28:57Z</time>
      </trkpt>
      <trkpt lat="45.15948" lon="5.97554">
        <ele>2485.6</ele>
        <time>2020-08-11T09:28:58Z</time>
      </trkpt>
      <trkpt lat="45.15949" lon="5.97555">
        <ele>2485.2</ele>
        <time>2020-08-11T09:28:59Z</time>
      </trkpt>
      <trkpt lat="45.15949" lon="5.97555">
        <ele>2485.2</ele>
        <time>2020-08-11T09:29:00Z</time>
      </trkpt>
      <trkpt lat="45.15949" lon="5.97555">
        <ele>2485.6</ele>
        <time>2020-08-11T09:29:01Z</time>
      </trkpt>
      <trkpt lat="45.1595" lon="5.97556">
        <ele>2485.6</ele>
        <time>2020-08-11T09:29:02Z</time>
      </trkpt>
      <trkpt lat="45.1595" lon="5.97556">
        <ele>2485.8</ele>
        <time>2020-08-11T09:29:03Z</time>
      </trkpt>
      <trkpt lat="45.1595" lon="5.97556">
        <ele>2486.2</ele>
        <time>2020-08-11T09:29:04Z</time>
      </trkpt>
      <trkpt lat="45.1595" lon="5.97556">
        <ele>2486.4</ele>
        <time>2020-08-11T09:29:05Z</time>
      </trkpt>
      <trkpt lat="45.1595" lon="5.97556">
        <ele>2486.8</ele>
        <time>2020-08-11T09:29:06Z</time>
      </trkpt>
      <trkpt lat="45.1595" lon="5.97556">
        <ele>2487</ele>
        <time>2020-08-11T09:29:07Z</time>
      </trkpt>
      <trkpt lat="45.1595" lon="5.97556">
        <ele>2487.2</ele>
        <time>2020-08-11T09:29:08Z</time>
      </trkpt>
      <trkpt lat="45.15948" lon="5.97559">
        <ele>2487.4</ele>
        <time>2020-08-11T09:29:09Z</time>
      </trkpt>
      <trkpt lat="45.15948" lon="5.97559">
        <ele>2487.4</ele>
        <time>2020-08-11T09:29:10Z</time>
      </trkpt>
      <trkpt lat="45.15948" lon="5.97559">
        <ele>2487.6</ele>
        <time>2020-08-11T09:29:11Z</time>
      </trkpt>
      <trkpt lat="45.15948" lon="5.97562">
        <ele>2487.6</ele>
        <time>2020-08-11T09:29:12Z</time>
      </trkpt>
      <trkpt lat="45.15948" lon="5.97562">
        <ele>2488</ele>
        <time>2020-08-11T09:29:13Z</time>
      </trkpt>
      <trkpt lat="45.15948" lon="5.97562">
        <ele>2488</ele>
        <time>2020-08-11T09:29:14Z</time>
      </trkpt>
      <trkpt lat="45.15948" lon="5.97562">
        <ele>2488</ele>
        <time>2020-08-11T09:29:15Z</time>
      </trkpt>
      <trkpt lat="45.15949" lon="5.97565">
        <ele>2488.2</ele>
        <time>2020-08-11T09:29:16Z</time>
      </trkpt>
      <trkpt lat="45.15949" lon="5.97565">
        <ele>2488.2</ele>
        <time>2020-08-11T09:29:17Z</time>
      </trkpt>
      <trkpt lat="45.15949" lon="5.97565">
        <ele>2488.6</ele>
        <time>2020-08-11T09:29:18Z</time>
      </trkpt>
      <trkpt lat="45.15949" lon="5.97565">
        <ele>2488.6</ele>
        <time>2020-08-11T09:29:19Z</time>
      </trkpt>
      <trkpt lat="45.15949" lon="5.97565">
        <ele>2488.6</ele>
        <time>2020-08-11T09:29:20Z</time>
      </trkpt>
      <trkpt lat="45.15951" lon="5.97569">
        <ele>2489</ele>
        <time>2020-08-11T09:29:21Z</time>
      </trkpt>
      <trkpt lat="45.15951" lon="5.97569">
        <ele>2489.4</ele>
        <time>2020-08-11T09:29:22Z</time>
      </trkpt>
      <trkpt lat="45.15951" lon="5.97569">
        <ele>2489.6</ele>
        <time>2020-08-11T09:29:23Z</time>
      </trkpt>
      <trkpt lat="45.15951" lon="5.97569">
        <ele>2489.6</ele>
        <time>2020-08-11T09:29:24Z</time>
      </trkpt>
      <trkpt lat="45.15951" lon="5.97569">
        <ele>2490</ele>
        <time>2020-08-11T09:29:25Z</time>
      </trkpt>
      <trkpt lat="45.15951" lon="5.97569">
        <ele>2490</ele>
        <time>2020-08-11T09:29:26Z</time>
      </trkpt>
      <trkpt lat="45.15952" lon="5.97571">
        <ele>2490.2</ele>
        <time>2020-08-11T09:29:27Z</time>
      </trkpt>
      <trkpt lat="45.15952" lon="5.97571">
        <ele>2490.4</ele>
        <time>2020-08-11T09:29:28Z</time>
      </trkpt>
      <trkpt lat="45.15952" lon="5.97571">
        <ele>2490.6</ele>
        <time>2020-08-11T09:29:29Z</time>
      </trkpt>
      <trkpt lat="45.15952" lon="5.97571">
        <ele>2490.8</ele>
        <time>2020-08-11T09:29:30Z</time>
      </trkpt>
      <trkpt lat="45.15952" lon="5.97571">
        <ele>2491</ele>
        <time>2020-08-11T09:29:31Z</time>
      </trkpt>
      <trkpt lat="45.15954" lon="5.97571">
        <ele>2491.4</ele>
        <time>2020-08-11T09:29:32Z</time>
      </trkpt>
      <trkpt lat="45.15954" lon="5.97571">
        <ele>2491.6</ele>
        <time>2020-08-11T09:29:33Z</time>
      </trkpt>
      <trkpt lat="45.15954" lon="5.97571">
        <ele>2491.8</ele>
        <time>2020-08-11T09:29:34Z</time>
      </trkpt>
      <trkpt lat="45.15954" lon="5.97571">
        <ele>2491.8</ele>
        <time>2020-08-11T09:29:35Z</time>
      </trkpt>
      <trkpt lat="45.15954" lon="5.97571">
        <ele>2492</ele>
        <time>2020-08-11T09:29:36Z</time>
      </trkpt>
      <trkpt lat="45.15954" lon="5.97571">
        <ele>2492.4</ele>
        <time>2020-08-11T09:29:37Z</time>
      </trkpt>
      <trkpt lat="45.15956" lon="5.97574">
        <ele>2492.4</ele>
        <time>2020-08-11T09:29:38Z</time>
      </trkpt>
      <trkpt lat="45.15956" lon="5.97574">
        <ele>2492.6</ele>
        <time>2020-08-11T09:29:39Z</time>
      </trkpt>
      <trkpt lat="45.15956" lon="5.97574">
        <ele>2492.8</ele>
        <time>2020-08-11T09:29:40Z</time>
      </trkpt>
      <trkpt lat="45.15956" lon="5.97574">
        <ele>2492.6</ele>
        <time>2020-08-11T09:29:41Z</time>
      </trkpt>
      <trkpt lat="45.15957" lon="5.97578">
        <ele>2492.8</ele>
        <time>2020-08-11T09:29:42Z</time>
      </trkpt>
      <trkpt lat="45.15957" lon="5.97578">
        <ele>2492.8</ele>
        <time>2020-08-11T09:29:43Z</time>
      </trkpt>
      <trkpt lat="45.15957" lon="5.97578">
        <ele>2493</ele>
        <time>2020-08-11T09:29:44Z</time>
      </trkpt>
      <trkpt lat="45.15959" lon="5.97582">
        <ele>2492.8</ele>
        <time>2020-08-11T09:29:45Z</time>
      </trkpt>
      <trkpt lat="45.15959" lon="5.97582">
        <ele>2492.6</ele>
        <time>2020-08-11T09:29:46Z</time>
      </trkpt>
      <trkpt lat="45.15959" lon="5.97585">
        <ele>2492.6</ele>
        <time>2020-08-11T09:29:47Z</time>
      </trkpt>
      <trkpt lat="45.15959" lon="5.97585">
        <ele>2493</ele>
        <time>2020-08-11T09:29:48Z</time>
      </trkpt>
      <trkpt lat="45.15959" lon="5.97585">
        <ele>2493.2</ele>
        <time>2020-08-11T09:29:49Z</time>
      </trkpt>
      <trkpt lat="45.15959" lon="5.97585">
        <ele>2493.2</ele>
        <time>2020-08-11T09:29:50Z</time>
      </trkpt>
      <trkpt lat="45.15961" lon="5.97585">
        <ele>2493</ele>
        <time>2020-08-11T09:29:51Z</time>
      </trkpt>
      <trkpt lat="45.15961" lon="5.97585">
        <ele>2493</ele>
        <time>2020-08-11T09:29:52Z</time>
      </trkpt>
      <trkpt lat="45.15961" lon="5.97585">
        <ele>2492.8</ele>
        <time>2020-08-11T09:29:53Z</time>
      </trkpt>
      <trkpt lat="45.15961" lon="5.97585">
        <ele>2492.6</ele>
        <time>2020-08-11T09:29:54Z</time>
      </trkpt>
      <trkpt lat="45.15961" lon="5.97585">
        <ele>2492.2</ele>
        <time>2020-08-11T09:29:55Z</time>
      </trkpt>
      <trkpt lat="45.15961" lon="5.97585">
        <ele>2492.2</ele>
        <time>2020-08-11T09:29:56Z</time>
      </trkpt>
      <trkpt lat="45.15961" lon="5.97585">
        <ele>2492.2</ele>
        <time>2020-08-11T09:29:57Z</time>
      </trkpt>
      <trkpt lat="45.15961" lon="5.97585">
        <ele>2492.2</ele>
        <time>2020-08-11T09:29:58Z</time>
      </trkpt>
      <trkpt lat="45.15961" lon="5.97585">
        <ele>2492.2</ele>
        <time>2020-08-11T09:29:59Z</time>
      </trkpt>
      <trkpt lat="45.15961" lon="5.97585">
        <ele>2492</ele>
        <time>2020-08-11T09:30:01Z</time>
      </trkpt>
      <trkpt lat="45.15961" lon="5.97585">
        <ele>2492</ele>
        <time>2020-08-11T09:30:02Z</time>
      </trkpt>
      <trkpt lat="45.15961" lon="5.97585">
        <ele>2491.8</ele>
        <time>2020-08-11T09:30:03Z</time>
      </trkpt>
      <trkpt lat="45.15961" lon="5.97585">
        <ele>2491.6</ele>
        <time>2020-08-11T09:30:04Z</time>
      </trkpt>
      <trkpt lat="45.15961" lon="5.97585">
        <ele>2491.8</ele>
        <time>2020-08-11T09:30:05Z</time>
      </trkpt>
      <trkpt lat="45.15961" lon="5.97585">
        <ele>2492</ele>
        <time>2020-08-11T09:30:06Z</time>
      </trkpt>
      <trkpt lat="45.15961" lon="5.97585">
        <ele>2492</ele>
        <time>2020-08-11T09:30:07Z</time>
      </trkpt>
      <trkpt lat="45.1596" lon="5.97583">
        <ele>2492.4</ele>
        <time>2020-08-11T09:30:08Z</time>
      </trkpt>
      <trkpt lat="45.1596" lon="5.97583">
        <ele>2493</ele>
        <time>2020-08-11T09:30:09Z</time>
      </trkpt>
      <trkpt lat="45.1596" lon="5.97583">
        <ele>2493.4</ele>
        <time>2020-08-11T09:30:10Z</time>
      </trkpt>
      <trkpt lat="45.15959" lon="5.9758">
        <ele>2493</ele>
        <time>2020-08-11T09:30:11Z</time>
      </trkpt>
      <trkpt lat="45.15959" lon="5.9758">
        <ele>2492.8</ele>
        <time>2020-08-11T09:30:12Z</time>
      </trkpt>
      <trkpt lat="45.15959" lon="5.9758">
        <ele>2492.8</ele>
        <time>2020-08-11T09:30:13Z</time>
      </trkpt>
      <trkpt lat="45.1596" lon="5.97578">
        <ele>2493</ele>
        <time>2020-08-11T09:30:14Z</time>
      </trkpt>
      <trkpt lat="45.1596" lon="5.97578">
        <ele>2493</ele>
        <time>2020-08-11T09:30:15Z</time>
      </trkpt>
      <trkpt lat="45.1596" lon="5.97578">
        <ele>2492.8</ele>
        <time>2020-08-11T09:30:16Z</time>
      </trkpt>
      <trkpt lat="45.1596" lon="5.97578">
        <ele>2493.2</ele>
        <time>2020-08-11T09:30:17Z</time>
      </trkpt>
      <trkpt lat="45.1596" lon="5.97578">
        <ele>2493.4</ele>
        <time>2020-08-11T09:30:18Z</time>
      </trkpt>
      <trkpt lat="45.1596" lon="5.97578">
        <ele>2493.4</ele>
        <time>2020-08-11T09:30:19Z</time>
      </trkpt>
      <trkpt lat="45.1596" lon="5.97578">
        <ele>2493.8</ele>
        <time>2020-08-11T09:30:20Z</time>
      </trkpt>
      <trkpt lat="45.15958" lon="5.97576">
        <ele>2494.4</ele>
        <time>2020-08-11T09:30:21Z</time>
      </trkpt>
      <trkpt lat="45.15958" lon="5.97576">
        <ele>2494.4</ele>
        <time>2020-08-11T09:30:22Z</time>
      </trkpt>
      <trkpt lat="45.15958" lon="5.97576">
        <ele>2494.2</ele>
        <time>2020-08-11T09:30:23Z</time>
      </trkpt>
      <trkpt lat="45.15958" lon="5.97573">
        <ele>2494.2</ele>
        <time>2020-08-11T09:30:24Z</time>
      </trkpt>
      <trkpt lat="45.15958" lon="5.97573">
        <ele>2494.4</ele>
        <time>2020-08-11T09:30:25Z</time>
      </trkpt>
      <trkpt lat="45.15958" lon="5.97573">
        <ele>2494.8</ele>
        <time>2020-08-11T09:30:26Z</time>
      </trkpt>
      <trkpt lat="45.15958" lon="5.97573">
        <ele>2495</ele>
        <time>2020-08-11T09:30:27Z</time>
      </trkpt>
      <trkpt lat="45.1596" lon="5.97571">
        <ele>2495</ele>
        <time>2020-08-11T09:30:28Z</time>
      </trkpt>
      <trkpt lat="45.1596" lon="5.97571">
        <ele>2495</ele>
        <time>2020-08-11T09:30:29Z</time>
      </trkpt>
      <trkpt lat="45.1596" lon="5.97571">
        <ele>2495.4</ele>
        <time>2020-08-11T09:30:30Z</time>
      </trkpt>
      <trkpt lat="45.1596" lon="5.97571">
        <ele>2496</ele>
        <time>2020-08-11T09:30:31Z</time>
      </trkpt>
      <trkpt lat="45.15962" lon="5.9757">
        <ele>2495.8</ele>
        <time>2020-08-11T09:30:32Z</time>
      </trkpt>
      <trkpt lat="45.15962" lon="5.9757">
        <ele>2496</ele>
        <time>2020-08-11T09:30:33Z</time>
      </trkpt>
      <trkpt lat="45.15962" lon="5.9757">
        <ele>2496</ele>
        <time>2020-08-11T09:30:34Z</time>
      </trkpt>
      <trkpt lat="45.15964" lon="5.97569">
        <ele>2496.2</ele>
        <time>2020-08-11T09:30:35Z</time>
      </trkpt>
      <trkpt lat="45.15964" lon="5.97569">
        <ele>2496.4</ele>
        <time>2020-08-11T09:30:36Z</time>
      </trkpt>
      <trkpt lat="45.15964" lon="5.97569">
        <ele>2496.4</ele>
        <time>2020-08-11T09:30:37Z</time>
      </trkpt>
      <trkpt lat="45.15964" lon="5.97569">
        <ele>2496.6</ele>
        <time>2020-08-11T09:30:38Z</time>
      </trkpt>
      <trkpt lat="45.15964" lon="5.97566">
        <ele>2496.6</ele>
        <time>2020-08-11T09:30:39Z</time>
      </trkpt>
      <trkpt lat="45.15964" lon="5.97566">
        <ele>2497</ele>
        <time>2020-08-11T09:30:40Z</time>
      </trkpt>
      <trkpt lat="45.15964" lon="5.97566">
        <ele>2497.2</ele>
        <time>2020-08-11T09:30:41Z</time>
      </trkpt>
      <trkpt lat="45.15964" lon="5.97566">
        <ele>2497.4</ele>
        <time>2020-08-11T09:30:42Z</time>
      </trkpt>
      <trkpt lat="45.15963" lon="5.97564">
        <ele>2497.4</ele>
        <time>2020-08-11T09:30:43Z</time>
      </trkpt>
      <trkpt lat="45.15963" lon="5.97564">
        <ele>2497.2</ele>
        <time>2020-08-11T09:30:44Z</time>
      </trkpt>
      <trkpt lat="45.15963" lon="5.97564">
        <ele>2497.2</ele>
        <time>2020-08-11T09:30:45Z</time>
      </trkpt>
      <trkpt lat="45.15964" lon="5.97562">
        <ele>2497.2</ele>
        <time>2020-08-11T09:30:46Z</time>
      </trkpt>
      <trkpt lat="45.15964" lon="5.97562">
        <ele>2497.6</ele>
        <time>2020-08-11T09:30:47Z</time>
      </trkpt>
      <trkpt lat="45.15966" lon="5.97561">
        <ele>2498.2</ele>
        <time>2020-08-11T09:30:48Z</time>
      </trkpt>
      <trkpt lat="45.15966" lon="5.97561">
        <ele>2498.2</ele>
        <time>2020-08-11T09:30:49Z</time>
      </trkpt>
      <trkpt lat="45.15966" lon="5.97561">
        <ele>2498.4</ele>
        <time>2020-08-11T09:30:50Z</time>
      </trkpt>
      <trkpt lat="45.15966" lon="5.97561">
        <ele>2498.8</ele>
        <time>2020-08-11T09:30:51Z</time>
      </trkpt>
      <trkpt lat="45.15967" lon="5.97558">
        <ele>2499</ele>
        <time>2020-08-11T09:30:52Z</time>
      </trkpt>
      <trkpt lat="45.15967" lon="5.97558">
        <ele>2499.2</ele>
        <time>2020-08-11T09:30:53Z</time>
      </trkpt>
      <trkpt lat="45.15967" lon="5.97558">
        <ele>2499.2</ele>
        <time>2020-08-11T09:30:54Z</time>
      </trkpt>
      <trkpt lat="45.15967" lon="5.97558">
        <ele>2499.4</ele>
        <time>2020-08-11T09:30:55Z</time>
      </trkpt>
      <trkpt lat="45.15967" lon="5.97558">
        <ele>2499.2</ele>
        <time>2020-08-11T09:30:56Z</time>
      </trkpt>
      <trkpt lat="45.15967" lon="5.97558">
        <ele>2499.8</ele>
        <time>2020-08-11T09:30:57Z</time>
      </trkpt>
      <trkpt lat="45.15967" lon="5.97558">
        <ele>2500.4</ele>
        <time>2020-08-11T09:30:58Z</time>
      </trkpt>
      <trkpt lat="45.15967" lon="5.97558">
        <ele>2500.6</ele>
        <time>2020-08-11T09:30:59Z</time>
      </trkpt>
      <trkpt lat="45.15967" lon="5.97558">
        <ele>2500.6</ele>
        <time>2020-08-11T09:31:00Z</time>
      </trkpt>
      <trkpt lat="45.15967" lon="5.97558">
        <ele>2500.6</ele>
        <time>2020-08-11T09:31:01Z</time>
      </trkpt>
      <trkpt lat="45.15967" lon="5.97558">
        <ele>2500.6</ele>
        <time>2020-08-11T09:31:02Z</time>
      </trkpt>
      <trkpt lat="45.15967" lon="5.97555">
        <ele>2500.6</ele>
        <time>2020-08-11T09:31:03Z</time>
      </trkpt>
      <trkpt lat="45.15967" lon="5.97555">
        <ele>2500.6</ele>
        <time>2020-08-11T09:31:04Z</time>
      </trkpt>
      <trkpt lat="45.15967" lon="5.97555">
        <ele>2501.2</ele>
        <time>2020-08-11T09:31:05Z</time>
      </trkpt>
      <trkpt lat="45.15969" lon="5.97552">
        <ele>2501.2</ele>
        <time>2020-08-11T09:31:06Z</time>
      </trkpt>
      <trkpt lat="45.15969" lon="5.97552">
        <ele>2501.4</ele>
        <time>2020-08-11T09:31:07Z</time>
      </trkpt>
      <trkpt lat="45.15969" lon="5.97552">
        <ele>2501.6</ele>
        <time>2020-08-11T09:31:08Z</time>
      </trkpt>
      <trkpt lat="45.15969" lon="5.97552">
        <ele>2501.6</ele>
        <time>2020-08-11T09:31:09Z</time>
      </trkpt>
      <trkpt lat="45.1597" lon="5.97549">
        <ele>2501.8</ele>
        <time>2020-08-11T09:31:10Z</time>
      </trkpt>
      <trkpt lat="45.15971" lon="5.97546">
        <ele>2501.6</ele>
        <time>2020-08-11T09:31:11Z</time>
      </trkpt>
      <trkpt lat="45.15971" lon="5.97546">
        <ele>2501.6</ele>
        <time>2020-08-11T09:31:12Z</time>
      </trkpt>
      <trkpt lat="45.15971" lon="5.97546">
        <ele>2501.8</ele>
        <time>2020-08-11T09:31:13Z</time>
      </trkpt>
      <trkpt lat="45.15971" lon="5.97546">
        <ele>2501.8</ele>
        <time>2020-08-11T09:31:14Z</time>
      </trkpt>
      <trkpt lat="45.15971" lon="5.97546">
        <ele>2502</ele>
        <time>2020-08-11T09:31:15Z</time>
      </trkpt>
      <trkpt lat="45.15971" lon="5.97546">
        <ele>2502</ele>
        <time>2020-08-11T09:31:16Z</time>
      </trkpt>
      <trkpt lat="45.15971" lon="5.97546">
        <ele>2502</ele>
        <time>2020-08-11T09:31:17Z</time>
      </trkpt>
      <trkpt lat="45.15971" lon="5.97546">
        <ele>2501.8</ele>
        <time>2020-08-11T09:31:18Z</time>
      </trkpt>
      <trkpt lat="45.15971" lon="5.97546">
        <ele>2501.8</ele>
        <time>2020-08-11T09:31:19Z</time>
      </trkpt>
      <trkpt lat="45.1597" lon="5.97542">
        <ele>2501.8</ele>
        <time>2020-08-11T09:31:20Z</time>
      </trkpt>
      <trkpt lat="45.1597" lon="5.97542">
        <ele>2502.2</ele>
        <time>2020-08-11T09:31:21Z</time>
      </trkpt>
      <trkpt lat="45.15969" lon="5.9754">
        <ele>2502</ele>
        <time>2020-08-11T09:31:22Z</time>
      </trkpt>
      <trkpt lat="45.15969" lon="5.9754">
        <ele>2502</ele>
        <time>2020-08-11T09:31:23Z</time>
      </trkpt>
      <trkpt lat="45.15969" lon="5.9754">
        <ele>2502</ele>
        <time>2020-08-11T09:31:24Z</time>
      </trkpt>
      <trkpt lat="45.15969" lon="5.9754">
        <ele>2502.2</ele>
        <time>2020-08-11T09:31:25Z</time>
      </trkpt>
      <trkpt lat="45.15969" lon="5.9754">
        <ele>2501.8</ele>
        <time>2020-08-11T09:31:26Z</time>
      </trkpt>
      <trkpt lat="45.15969" lon="5.9754">
        <ele>2501.8</ele>
        <time>2020-08-11T09:31:27Z</time>
      </trkpt>
      <trkpt lat="45.15969" lon="5.97538">
        <ele>2502.2</ele>
        <time>2020-08-11T09:31:28Z</time>
      </trkpt>
      <trkpt lat="45.15969" lon="5.97538">
        <ele>2502.6</ele>
        <time>2020-08-11T09:31:29Z</time>
      </trkpt>
      <trkpt lat="45.15969" lon="5.97534">
        <ele>2502.4</ele>
        <time>2020-08-11T09:31:30Z</time>
      </trkpt>
      <trkpt lat="45.1597" lon="5.97531">
        <ele>2502.4</ele>
        <time>2020-08-11T09:31:31Z</time>
      </trkpt>
      <trkpt lat="45.1597" lon="5.97531">
        <ele>2501.6</ele>
        <time>2020-08-11T09:31:32Z</time>
      </trkpt>
      <trkpt lat="45.1597" lon="5.97531">
        <ele>2501.2</ele>
        <time>2020-08-11T09:31:33Z</time>
      </trkpt>
      <trkpt lat="45.15971" lon="5.97527">
        <ele>2500.8</ele>
        <time>2020-08-11T09:31:34Z</time>
      </trkpt>
      <trkpt lat="45.15971" lon="5.97527">
        <ele>2500.6</ele>
        <time>2020-08-11T09:31:35Z</time>
      </trkpt>
      <trkpt lat="45.15973" lon="5.97523">
        <ele>2500.2</ele>
        <time>2020-08-11T09:31:36Z</time>
      </trkpt>
      <trkpt lat="45.15974" lon="5.97518">
        <ele>2500.2</ele>
        <time>2020-08-11T09:31:37Z</time>
      </trkpt>
      <trkpt lat="45.15974" lon="5.97518">
        <ele>2500</ele>
        <time>2020-08-11T09:31:38Z</time>
      </trkpt>
      <trkpt lat="45.15975" lon="5.97516">
        <ele>2499.6</ele>
        <time>2020-08-11T09:31:39Z</time>
      </trkpt>
      <trkpt lat="45.15976" lon="5.97511">
        <ele>2499.4</ele>
        <time>2020-08-11T09:31:40Z</time>
      </trkpt>
      <trkpt lat="45.15976" lon="5.97511">
        <ele>2499</ele>
        <time>2020-08-11T09:31:41Z</time>
      </trkpt>
      <trkpt lat="45.15977" lon="5.97508">
        <ele>2498.8</ele>
        <time>2020-08-11T09:31:42Z</time>
      </trkpt>
      <trkpt lat="45.15977" lon="5.97508">
        <ele>2499</ele>
        <time>2020-08-11T09:31:43Z</time>
      </trkpt>
      <trkpt lat="45.15979" lon="5.97505">
        <ele>2499</ele>
        <time>2020-08-11T09:31:44Z</time>
      </trkpt>
      <trkpt lat="45.15979" lon="5.97505">
        <ele>2499</ele>
        <time>2020-08-11T09:31:45Z</time>
      </trkpt>
      <trkpt lat="45.15979" lon="5.97501">
        <ele>2499.2</ele>
        <time>2020-08-11T09:31:46Z</time>
      </trkpt>
      <trkpt lat="45.15979" lon="5.97501">
        <ele>2499.2</ele>
        <time>2020-08-11T09:31:47Z</time>
      </trkpt>
      <trkpt lat="45.1598" lon="5.97496">
        <ele>2499.6</ele>
        <time>2020-08-11T09:31:48Z</time>
      </trkpt>
      <trkpt lat="45.1598" lon="5.97493">
        <ele>2499.4</ele>
        <time>2020-08-11T09:31:49Z</time>
      </trkpt>
      <trkpt lat="45.1598" lon="5.97493">
        <ele>2499.6</ele>
        <time>2020-08-11T09:31:50Z</time>
      </trkpt>
      <trkpt lat="45.1598" lon="5.97493">
        <ele>2499.6</ele>
        <time>2020-08-11T09:31:51Z</time>
      </trkpt>
      <trkpt lat="45.1598" lon="5.97493">
        <ele>2500</ele>
        <time>2020-08-11T09:31:52Z</time>
      </trkpt>
      <trkpt lat="45.1598" lon="5.97493">
        <ele>2500.2</ele>
        <time>2020-08-11T09:31:53Z</time>
      </trkpt>
      <trkpt lat="45.15982" lon="5.97491">
        <ele>2500.4</ele>
        <time>2020-08-11T09:31:54Z</time>
      </trkpt>
      <trkpt lat="45.15982" lon="5.97491">
        <ele>2500.6</ele>
        <time>2020-08-11T09:31:55Z</time>
      </trkpt>
      <trkpt lat="45.15983" lon="5.97487">
        <ele>2500.6</ele>
        <time>2020-08-11T09:31:56Z</time>
      </trkpt>
      <trkpt lat="45.15985" lon="5.97483">
        <ele>2500.6</ele>
        <time>2020-08-11T09:31:57Z</time>
      </trkpt>
      <trkpt lat="45.15985" lon="5.97483">
        <ele>2500.6</ele>
        <time>2020-08-11T09:31:58Z</time>
      </trkpt>
      <trkpt lat="45.15986" lon="5.97479">
        <ele>2500.6</ele>
        <time>2020-08-11T09:31:59Z</time>
      </trkpt>
      <trkpt lat="45.15986" lon="5.97479">
        <ele>2500.6</ele>
        <time>2020-08-11T09:32:00Z</time>
      </trkpt>
      <trkpt lat="45.15986" lon="5.97479">
        <ele>2500.6</ele>
        <time>2020-08-11T09:32:01Z</time>
      </trkpt>
      <trkpt lat="45.15988" lon="5.97477">
        <ele>2500.6</ele>
        <time>2020-08-11T09:32:02Z</time>
      </trkpt>
      <trkpt lat="45.15988" lon="5.97477">
        <ele>2500.2</ele>
        <time>2020-08-11T09:32:03Z</time>
      </trkpt>
      <trkpt lat="45.15988" lon="5.97477">
        <ele>2500.4</ele>
        <time>2020-08-11T09:32:04Z</time>
      </trkpt>
      <trkpt lat="45.15991" lon="5.97476">
        <ele>2500.2</ele>
        <time>2020-08-11T09:32:05Z</time>
      </trkpt>
      <trkpt lat="45.15991" lon="5.97476">
        <ele>2500</ele>
        <time>2020-08-11T09:32:06Z</time>
      </trkpt>
      <trkpt lat="45.15993" lon="5.97474">
        <ele>2499.6</ele>
        <time>2020-08-11T09:32:07Z</time>
      </trkpt>
      <trkpt lat="45.15993" lon="5.97474">
        <ele>2499.2</ele>
        <time>2020-08-11T09:32:08Z</time>
      </trkpt>
      <trkpt lat="45.15993" lon="5.97474">
        <ele>2499.4</ele>
        <time>2020-08-11T09:32:09Z</time>
      </trkpt>
      <trkpt lat="45.15993" lon="5.97474">
        <ele>2499.2</ele>
        <time>2020-08-11T09:32:10Z</time>
      </trkpt>
      <trkpt lat="45.15994" lon="5.97474">
        <ele>2498.8</ele>
        <time>2020-08-11T09:32:11Z</time>
      </trkpt>
      <trkpt lat="45.15994" lon="5.97474">
        <ele>2498.8</ele>
        <time>2020-08-11T09:32:12Z</time>
      </trkpt>
      <trkpt lat="45.15996" lon="5.97474">
        <ele>2498.4</ele>
        <time>2020-08-11T09:32:13Z</time>
      </trkpt>
      <trkpt lat="45.15997" lon="5.97473">
        <ele>2497.8</ele>
        <time>2020-08-11T09:32:14Z</time>
      </trkpt>
      <trkpt lat="45.15998" lon="5.97472">
        <ele>2497.4</ele>
        <time>2020-08-11T09:32:15Z</time>
      </trkpt>
      <trkpt lat="45.15999" lon="5.97471">
        <ele>2497.2</ele>
        <time>2020-08-11T09:32:16Z</time>
      </trkpt>
      <trkpt lat="45.15999" lon="5.9747">
        <ele>2497</ele>
        <time>2020-08-11T09:32:17Z</time>
      </trkpt>
      <trkpt lat="45.16" lon="5.97469">
        <ele>2497</ele>
        <time>2020-08-11T09:32:18Z</time>
      </trkpt>
      <trkpt lat="45.16001" lon="5.97468">
        <ele>2497</ele>
        <time>2020-08-11T09:32:19Z</time>
      </trkpt>
      <trkpt lat="45.16002" lon="5.97467">
        <ele>2497.2</ele>
        <time>2020-08-11T09:32:20Z</time>
      </trkpt>
      <trkpt lat="45.16002" lon="5.97466">
        <ele>2497.4</ele>
        <time>2020-08-11T09:32:21Z</time>
      </trkpt>
      <trkpt lat="45.16003" lon="5.97464">
        <ele>2497.8</ele>
        <time>2020-08-11T09:32:22Z</time>
      </trkpt>
      <trkpt lat="45.16004" lon="5.97463">
        <ele>2497.6</ele>
        <time>2020-08-11T09:32:23Z</time>
      </trkpt>
      <trkpt lat="45.16005" lon="5.97462">
        <ele>2497.6</ele>
        <time>2020-08-11T09:32:24Z</time>
      </trkpt>
      <trkpt lat="45.16005" lon="5.97461">
        <ele>2497.8</ele>
        <time>2020-08-11T09:32:25Z</time>
      </trkpt>
      <trkpt lat="45.16006" lon="5.9746">
        <ele>2497.8</ele>
        <time>2020-08-11T09:32:26Z</time>
      </trkpt>
      <trkpt lat="45.16006" lon="5.9746">
        <ele>2497.8</ele>
        <time>2020-08-11T09:32:27Z</time>
      </trkpt>
      <trkpt lat="45.16007" lon="5.97459">
        <ele>2497.8</ele>
        <time>2020-08-11T09:32:28Z</time>
      </trkpt>
      <trkpt lat="45.16008" lon="5.97458">
        <ele>2497.8</ele>
        <time>2020-08-11T09:32:29Z</time>
      </trkpt>
      <trkpt lat="45.16009" lon="5.97457">
        <ele>2498</ele>
        <time>2020-08-11T09:32:30Z</time>
      </trkpt>
      <trkpt lat="45.1601" lon="5.97456">
        <ele>2498</ele>
        <time>2020-08-11T09:32:31Z</time>
      </trkpt>
      <trkpt lat="45.1601" lon="5.97455">
        <ele>2498</ele>
        <time>2020-08-11T09:32:32Z</time>
      </trkpt>
      <trkpt lat="45.16012" lon="5.97454">
        <ele>2497.8</ele>
        <time>2020-08-11T09:32:33Z</time>
      </trkpt>
      <trkpt lat="45.16014" lon="5.97453">
        <ele>2497.6</ele>
        <time>2020-08-11T09:32:34Z</time>
      </trkpt>
      <trkpt lat="45.16015" lon="5.97452">
        <ele>2497.6</ele>
        <time>2020-08-11T09:32:35Z</time>
      </trkpt>
      <trkpt lat="45.16017" lon="5.97451">
        <ele>2497.6</ele>
        <time>2020-08-11T09:32:36Z</time>
      </trkpt>
      <trkpt lat="45.16017" lon="5.97451">
        <ele>2497.6</ele>
        <time>2020-08-11T09:32:37Z</time>
      </trkpt>
      <trkpt lat="45.16017" lon="5.97451">
        <ele>2497.8</ele>
        <time>2020-08-11T09:32:38Z</time>
      </trkpt>
      <trkpt lat="45.16017" lon="5.97451">
        <ele>2497.8</ele>
        <time>2020-08-11T09:32:39Z</time>
      </trkpt>
      <trkpt lat="45.16019" lon="5.97449">
        <ele>2497.8</ele>
        <time>2020-08-11T09:32:40Z</time>
      </trkpt>
      <trkpt lat="45.16019" lon="5.97449">
        <ele>2497.8</ele>
        <time>2020-08-11T09:32:41Z</time>
      </trkpt>
      <trkpt lat="45.16019" lon="5.97449">
        <ele>2497.8</ele>
        <time>2020-08-11T09:32:42Z</time>
      </trkpt>
      <trkpt lat="45.16019" lon="5.97449">
        <ele>2498.2</ele>
        <time>2020-08-11T09:32:43Z</time>
      </trkpt>
      <trkpt lat="45.16019" lon="5.97449">
        <ele>2498.2</ele>
        <time>2020-08-11T09:32:44Z</time>
      </trkpt>
      <trkpt lat="45.16019" lon="5.97449">
        <ele>2498.6</ele>
        <time>2020-08-11T09:32:45Z</time>
      </trkpt>
      <trkpt lat="45.1602" lon="5.97446">
        <ele>2498.6</ele>
        <time>2020-08-11T09:32:46Z</time>
      </trkpt>
      <trkpt lat="45.1602" lon="5.97446">
        <ele>2499</ele>
        <time>2020-08-11T09:32:47Z</time>
      </trkpt>
      <trkpt lat="45.1602" lon="5.97446">
        <ele>2499.2</ele>
        <time>2020-08-11T09:32:48Z</time>
      </trkpt>
      <trkpt lat="45.1602" lon="5.97446">
        <ele>2499.6</ele>
        <time>2020-08-11T09:32:49Z</time>
      </trkpt>
      <trkpt lat="45.1602" lon="5.97446">
        <ele>2499.6</ele>
        <time>2020-08-11T09:32:50Z</time>
      </trkpt>
      <trkpt lat="45.1602" lon="5.97446">
        <ele>2500</ele>
        <time>2020-08-11T09:32:51Z</time>
      </trkpt>
      <trkpt lat="45.1602" lon="5.97446">
        <ele>2500.2</ele>
        <time>2020-08-11T09:32:52Z</time>
      </trkpt>
      <trkpt lat="45.1602" lon="5.97446">
        <ele>2500.8</ele>
        <time>2020-08-11T09:32:53Z</time>
      </trkpt>
      <trkpt lat="45.16022" lon="5.97448">
        <ele>2501.6</ele>
        <time>2020-08-11T09:32:54Z</time>
      </trkpt>
      <trkpt lat="45.16022" lon="5.97448">
        <ele>2501.8</ele>
        <time>2020-08-11T09:32:55Z</time>
      </trkpt>
      <trkpt lat="45.16024" lon="5.9745">
        <ele>2501.6</ele>
        <time>2020-08-11T09:32:56Z</time>
      </trkpt>
      <trkpt lat="45.16024" lon="5.9745">
        <ele>2501.4</ele>
        <time>2020-08-11T09:32:57Z</time>
      </trkpt>
      <trkpt lat="45.16025" lon="5.97452">
        <ele>2501</ele>
        <time>2020-08-11T09:32:58Z</time>
      </trkpt>
      <trkpt lat="45.16025" lon="5.97452">
        <ele>2500.8</ele>
        <time>2020-08-11T09:32:59Z</time>
      </trkpt>
      <trkpt lat="45.16025" lon="5.97452">
        <ele>2500.4</ele>
        <time>2020-08-11T09:33:00Z</time>
      </trkpt>
      <trkpt lat="45.16027" lon="5.97454">
        <ele>2500.4</ele>
        <time>2020-08-11T09:33:01Z</time>
      </trkpt>
      <trkpt lat="45.16027" lon="5.97454">
        <ele>2500.4</ele>
        <time>2020-08-11T09:33:02Z</time>
      </trkpt>
      <trkpt lat="45.16027" lon="5.97454">
        <ele>2500.4</ele>
        <time>2020-08-11T09:33:03Z</time>
      </trkpt>
      <trkpt lat="45.16027" lon="5.97454">
        <ele>2500.6</ele>
        <time>2020-08-11T09:33:04Z</time>
      </trkpt>
      <trkpt lat="45.16029" lon="5.97454">
        <ele>2501</ele>
        <time>2020-08-11T09:33:05Z</time>
      </trkpt>
      <trkpt lat="45.16029" lon="5.97454">
        <ele>2501.2</ele>
        <time>2020-08-11T09:33:06Z</time>
      </trkpt>
      <trkpt lat="45.16029" lon="5.97454">
        <ele>2501.2</ele>
        <time>2020-08-11T09:33:07Z</time>
      </trkpt>
      <trkpt lat="45.16029" lon="5.97454">
        <ele>2501.6</ele>
        <time>2020-08-11T09:33:08Z</time>
      </trkpt>
      <trkpt lat="45.16031" lon="5.97452">
        <ele>2502</ele>
        <time>2020-08-11T09:33:09Z</time>
      </trkpt>
      <trkpt lat="45.16031" lon="5.97452">
        <ele>2502.2</ele>
        <time>2020-08-11T09:33:10Z</time>
      </trkpt>
      <trkpt lat="45.16031" lon="5.97452">
        <ele>2502.2</ele>
        <time>2020-08-11T09:33:11Z</time>
      </trkpt>
      <trkpt lat="45.16031" lon="5.97452">
        <ele>2502.6</ele>
        <time>2020-08-11T09:33:12Z</time>
      </trkpt>
      <trkpt lat="45.16031" lon="5.97452">
        <ele>2502.8</ele>
        <time>2020-08-11T09:33:13Z</time>
      </trkpt>
      <trkpt lat="45.16031" lon="5.97452">
        <ele>2503</ele>
        <time>2020-08-11T09:33:14Z</time>
      </trkpt>
      <trkpt lat="45.16033" lon="5.97452">
        <ele>2503.2</ele>
        <time>2020-08-11T09:33:15Z</time>
      </trkpt>
      <trkpt lat="45.16033" lon="5.97452">
        <ele>2503.4</ele>
        <time>2020-08-11T09:33:16Z</time>
      </trkpt>
      <trkpt lat="45.16033" lon="5.97452">
        <ele>2503.6</ele>
        <time>2020-08-11T09:33:17Z</time>
      </trkpt>
      <trkpt lat="45.16033" lon="5.97452">
        <ele>2503.6</ele>
        <time>2020-08-11T09:33:18Z</time>
      </trkpt>
      <trkpt lat="45.16033" lon="5.97452">
        <ele>2503.8</ele>
        <time>2020-08-11T09:33:19Z</time>
      </trkpt>
      <trkpt lat="45.16033" lon="5.97452">
        <ele>2504.2</ele>
        <time>2020-08-11T09:33:20Z</time>
      </trkpt>
      <trkpt lat="45.16035" lon="5.97453">
        <ele>2504.4</ele>
        <time>2020-08-11T09:33:21Z</time>
      </trkpt>
      <trkpt lat="45.16035" lon="5.97453">
        <ele>2504.6</ele>
        <time>2020-08-11T09:33:22Z</time>
      </trkpt>
      <trkpt lat="45.16035" lon="5.97453">
        <ele>2504.6</ele>
        <time>2020-08-11T09:33:23Z</time>
      </trkpt>
      <trkpt lat="45.16037" lon="5.97454">
        <ele>2504.8</ele>
        <time>2020-08-11T09:33:24Z</time>
      </trkpt>
      <trkpt lat="45.16037" lon="5.97454">
        <ele>2505</ele>
        <time>2020-08-11T09:33:25Z</time>
      </trkpt>
      <trkpt lat="45.16037" lon="5.97454">
        <ele>2505.2</ele>
        <time>2020-08-11T09:33:26Z</time>
      </trkpt>
      <trkpt lat="45.16037" lon="5.97454">
        <ele>2505.6</ele>
        <time>2020-08-11T09:33:27Z</time>
      </trkpt>
      <trkpt lat="45.16037" lon="5.97454">
        <ele>2505.8</ele>
        <time>2020-08-11T09:33:28Z</time>
      </trkpt>
      <trkpt lat="45.16037" lon="5.97454">
        <ele>2506.2</ele>
        <time>2020-08-11T09:33:29Z</time>
      </trkpt>
      <trkpt lat="45.16037" lon="5.97454">
        <ele>2506</ele>
        <time>2020-08-11T09:33:30Z</time>
      </trkpt>
      <trkpt lat="45.16039" lon="5.97453">
        <ele>2506.4</ele>
        <time>2020-08-11T09:33:31Z</time>
      </trkpt>
      <trkpt lat="45.16039" lon="5.97453">
        <ele>2507</ele>
        <time>2020-08-11T09:33:32Z</time>
      </trkpt>
      <trkpt lat="45.16039" lon="5.97453">
        <ele>2507.2</ele>
        <time>2020-08-11T09:33:33Z</time>
      </trkpt>
      <trkpt lat="45.16039" lon="5.97453">
        <ele>2507.4</ele>
        <time>2020-08-11T09:33:34Z</time>
      </trkpt>
      <trkpt lat="45.16039" lon="5.97453">
        <ele>2507.6</ele>
        <time>2020-08-11T09:33:35Z</time>
      </trkpt>
      <trkpt lat="45.16039" lon="5.97453">
        <ele>2507.8</ele>
        <time>2020-08-11T09:33:36Z</time>
      </trkpt>
      <trkpt lat="45.16039" lon="5.97453">
        <ele>2508</ele>
        <time>2020-08-11T09:33:37Z</time>
      </trkpt>
      <trkpt lat="45.16041" lon="5.97453">
        <ele>2508.2</ele>
        <time>2020-08-11T09:33:38Z</time>
      </trkpt>
      <trkpt lat="45.16041" lon="5.97453">
        <ele>2508.6</ele>
        <time>2020-08-11T09:33:39Z</time>
      </trkpt>
      <trkpt lat="45.16041" lon="5.97453">
        <ele>2508.6</ele>
        <time>2020-08-11T09:33:40Z</time>
      </trkpt>
      <trkpt lat="45.16043" lon="5.97452">
        <ele>2508.8</ele>
        <time>2020-08-11T09:33:41Z</time>
      </trkpt>
      <trkpt lat="45.16043" lon="5.97452">
        <ele>2509</ele>
        <time>2020-08-11T09:33:42Z</time>
      </trkpt>
      <trkpt lat="45.16043" lon="5.97452">
        <ele>2509.2</ele>
        <time>2020-08-11T09:33:43Z</time>
      </trkpt>
      <trkpt lat="45.16045" lon="5.97451">
        <ele>2509</ele>
        <time>2020-08-11T09:33:44Z</time>
      </trkpt>
      <trkpt lat="45.16045" lon="5.97451">
        <ele>2509</ele>
        <time>2020-08-11T09:33:45Z</time>
      </trkpt>
      <trkpt lat="45.16045" lon="5.97451">
        <ele>2509.2</ele>
        <time>2020-08-11T09:33:46Z</time>
      </trkpt>
      <trkpt lat="45.16045" lon="5.97451">
        <ele>2509.4</ele>
        <time>2020-08-11T09:33:47Z</time>
      </trkpt>
      <trkpt lat="45.16045" lon="5.97451">
        <ele>2509.4</ele>
        <time>2020-08-11T09:33:48Z</time>
      </trkpt>
      <trkpt lat="45.16047" lon="5.97451">
        <ele>2509.6</ele>
        <time>2020-08-11T09:33:49Z</time>
      </trkpt>
      <trkpt lat="45.16047" lon="5.97451">
        <ele>2509.6</ele>
        <time>2020-08-11T09:33:50Z</time>
      </trkpt>
      <trkpt lat="45.16047" lon="5.97451">
        <ele>2509.8</ele>
        <time>2020-08-11T09:33:51Z</time>
      </trkpt>
      <trkpt lat="45.16047" lon="5.97451">
        <ele>2510</ele>
        <time>2020-08-11T09:33:52Z</time>
      </trkpt>
      <trkpt lat="45.16049" lon="5.9745">
        <ele>2510.4</ele>
        <time>2020-08-11T09:33:53Z</time>
      </trkpt>
      <trkpt lat="45.16049" lon="5.9745">
        <ele>2510.8</ele>
        <time>2020-08-11T09:33:54Z</time>
      </trkpt>
      <trkpt lat="45.16049" lon="5.9745">
        <ele>2510.6</ele>
        <time>2020-08-11T09:33:55Z</time>
      </trkpt>
      <trkpt lat="45.1605" lon="5.97449">
        <ele>2510.6</ele>
        <time>2020-08-11T09:33:56Z</time>
      </trkpt>
      <trkpt lat="45.1605" lon="5.97449">
        <ele>2511</ele>
        <time>2020-08-11T09:33:57Z</time>
      </trkpt>
      <trkpt lat="45.1605" lon="5.97449">
        <ele>2511.4</ele>
        <time>2020-08-11T09:33:58Z</time>
      </trkpt>
      <trkpt lat="45.1605" lon="5.97449">
        <ele>2511.6</ele>
        <time>2020-08-11T09:33:59Z</time>
      </trkpt>
      <trkpt lat="45.1605" lon="5.97449">
        <ele>2511.6</ele>
        <time>2020-08-11T09:34:00Z</time>
      </trkpt>
      <trkpt lat="45.1605" lon="5.97449">
        <ele>2512</ele>
        <time>2020-08-11T09:34:01Z</time>
      </trkpt>
      <trkpt lat="45.1605" lon="5.97449">
        <ele>2512.2</ele>
        <time>2020-08-11T09:34:02Z</time>
      </trkpt>
      <trkpt lat="45.1605" lon="5.97449">
        <ele>2512.4</ele>
        <time>2020-08-11T09:34:03Z</time>
      </trkpt>
      <trkpt lat="45.1605" lon="5.97449">
        <ele>2512.6</ele>
        <time>2020-08-11T09:34:04Z</time>
      </trkpt>
      <trkpt lat="45.1605" lon="5.97449">
        <ele>2512.8</ele>
        <time>2020-08-11T09:34:05Z</time>
      </trkpt>
      <trkpt lat="45.1605" lon="5.97449">
        <ele>2512.8</ele>
        <time>2020-08-11T09:34:06Z</time>
      </trkpt>
      <trkpt lat="45.1605" lon="5.97449">
        <ele>2513.2</ele>
        <time>2020-08-11T09:34:07Z</time>
      </trkpt>
      <trkpt lat="45.1605" lon="5.97449">
        <ele>2513.4</ele>
        <time>2020-08-11T09:34:08Z</time>
      </trkpt>
      <trkpt lat="45.16053" lon="5.9745">
        <ele>2513.6</ele>
        <time>2020-08-11T09:34:09Z</time>
      </trkpt>
      <trkpt lat="45.16053" lon="5.9745">
        <ele>2513.8</ele>
        <time>2020-08-11T09:34:10Z</time>
      </trkpt>
      <trkpt lat="45.16053" lon="5.9745">
        <ele>2514</ele>
        <time>2020-08-11T09:34:11Z</time>
      </trkpt>
      <trkpt lat="45.16053" lon="5.9745">
        <ele>2514.6</ele>
        <time>2020-08-11T09:34:12Z</time>
      </trkpt>
      <trkpt lat="45.16053" lon="5.9745">
        <ele>2514.8</ele>
        <time>2020-08-11T09:34:13Z</time>
      </trkpt>
      <trkpt lat="45.16052" lon="5.97447">
        <ele>2514.6</ele>
        <time>2020-08-11T09:34:14Z</time>
      </trkpt>
      <trkpt lat="45.16052" lon="5.97447">
        <ele>2515</ele>
        <time>2020-08-11T09:34:15Z</time>
      </trkpt>
      <trkpt lat="45.16052" lon="5.97447">
        <ele>2515.4</ele>
        <time>2020-08-11T09:34:16Z</time>
      </trkpt>
      <trkpt lat="45.16052" lon="5.97447">
        <ele>2515.6</ele>
        <time>2020-08-11T09:34:17Z</time>
      </trkpt>
      <trkpt lat="45.16052" lon="5.97447">
        <ele>2516</ele>
        <time>2020-08-11T09:34:18Z</time>
      </trkpt>
      <trkpt lat="45.16052" lon="5.97447">
        <ele>2516.2</ele>
        <time>2020-08-11T09:34:19Z</time>
      </trkpt>
      <trkpt lat="45.16051" lon="5.97444">
        <ele>2516.4</ele>
        <time>2020-08-11T09:34:20Z</time>
      </trkpt>
      <trkpt lat="45.16051" lon="5.97444">
        <ele>2516.4</ele>
        <time>2020-08-11T09:34:21Z</time>
      </trkpt>
      <trkpt lat="45.16051" lon="5.97444">
        <ele>2516.6</ele>
        <time>2020-08-11T09:34:22Z</time>
      </trkpt>
      <trkpt lat="45.16051" lon="5.97444">
        <ele>2516.8</ele>
        <time>2020-08-11T09:34:23Z</time>
      </trkpt>
      <trkpt lat="45.16051" lon="5.97441">
        <ele>2516.6</ele>
        <time>2020-08-11T09:34:24Z</time>
      </trkpt>
      <trkpt lat="45.16051" lon="5.97439">
        <ele>2516.8</ele>
        <time>2020-08-11T09:34:25Z</time>
      </trkpt>
      <trkpt lat="45.16051" lon="5.97439">
        <ele>2517.2</ele>
        <time>2020-08-11T09:34:26Z</time>
      </trkpt>
      <trkpt lat="45.16051" lon="5.97439">
        <ele>2517.6</ele>
        <time>2020-08-11T09:34:27Z</time>
      </trkpt>
      <trkpt lat="45.16051" lon="5.97439">
        <ele>2518</ele>
        <time>2020-08-11T09:34:28Z</time>
      </trkpt>
      <trkpt lat="45.16053" lon="5.97438">
        <ele>2518.2</ele>
        <time>2020-08-11T09:34:29Z</time>
      </trkpt>
      <trkpt lat="45.16053" lon="5.97438">
        <ele>2518.4</ele>
        <time>2020-08-11T09:34:30Z</time>
      </trkpt>
      <trkpt lat="45.16053" lon="5.97438">
        <ele>2518.6</ele>
        <time>2020-08-11T09:34:31Z</time>
      </trkpt>
      <trkpt lat="45.16056" lon="5.97439">
        <ele>2519.2</ele>
        <time>2020-08-11T09:34:32Z</time>
      </trkpt>
      <trkpt lat="45.16056" lon="5.97439">
        <ele>2519.6</ele>
        <time>2020-08-11T09:34:33Z</time>
      </trkpt>
      <trkpt lat="45.16056" lon="5.97439">
        <ele>2519.8</ele>
        <time>2020-08-11T09:34:34Z</time>
      </trkpt>
      <trkpt lat="45.16058" lon="5.97438">
        <ele>2520</ele>
        <time>2020-08-11T09:34:35Z</time>
      </trkpt>
      <trkpt lat="45.16058" lon="5.97438">
        <ele>2520</ele>
        <time>2020-08-11T09:34:36Z</time>
      </trkpt>
      <trkpt lat="45.16058" lon="5.97438">
        <ele>2520</ele>
        <time>2020-08-11T09:34:37Z</time>
      </trkpt>
      <trkpt lat="45.1606" lon="5.97437">
        <ele>2520.2</ele>
        <time>2020-08-11T09:34:38Z</time>
      </trkpt>
      <trkpt lat="45.1606" lon="5.97437">
        <ele>2520.2</ele>
        <time>2020-08-11T09:34:39Z</time>
      </trkpt>
      <trkpt lat="45.16063" lon="5.97437">
        <ele>2520.2</ele>
        <time>2020-08-11T09:34:40Z</time>
      </trkpt>
      <trkpt lat="45.16063" lon="5.97437">
        <ele>2520.4</ele>
        <time>2020-08-11T09:34:41Z</time>
      </trkpt>
      <trkpt lat="45.16065" lon="5.97438">
        <ele>2520.4</ele>
        <time>2020-08-11T09:34:42Z</time>
      </trkpt>
      <trkpt lat="45.16065" lon="5.97438">
        <ele>2520.6</ele>
        <time>2020-08-11T09:34:43Z</time>
      </trkpt>
      <trkpt lat="45.16067" lon="5.97439">
        <ele>2520.6</ele>
        <time>2020-08-11T09:34:44Z</time>
      </trkpt>
      <trkpt lat="45.16067" lon="5.97439">
        <ele>2520.6</ele>
        <time>2020-08-11T09:34:45Z</time>
      </trkpt>
      <trkpt lat="45.16067" lon="5.97439">
        <ele>2520.8</ele>
        <time>2020-08-11T09:34:46Z</time>
      </trkpt>
      <trkpt lat="45.16067" lon="5.97439">
        <ele>2520.6</ele>
        <time>2020-08-11T09:34:47Z</time>
      </trkpt>
      <trkpt lat="45.16069" lon="5.97441">
        <ele>2520.4</ele>
        <time>2020-08-11T09:34:48Z</time>
      </trkpt>
      <trkpt lat="45.16069" lon="5.97441">
        <ele>2520.6</ele>
        <time>2020-08-11T09:34:49Z</time>
      </trkpt>
      <trkpt lat="45.1607" lon="5.97442">
        <ele>2520.8</ele>
        <time>2020-08-11T09:34:50Z</time>
      </trkpt>
      <trkpt lat="45.1607" lon="5.97442">
        <ele>2520.6</ele>
        <time>2020-08-11T09:34:51Z</time>
      </trkpt>
      <trkpt lat="45.16073" lon="5.97444">
        <ele>2520.8</ele>
        <time>2020-08-11T09:34:52Z</time>
      </trkpt>
      <trkpt lat="45.16075" lon="5.97445">
        <ele>2520.8</ele>
        <time>2020-08-11T09:34:53Z</time>
      </trkpt>
      <trkpt lat="45.16075" lon="5.97445">
        <ele>2520.8</ele>
        <time>2020-08-11T09:34:54Z</time>
      </trkpt>
      <trkpt lat="45.16077" lon="5.97446">
        <ele>2520.8</ele>
        <time>2020-08-11T09:34:55Z</time>
      </trkpt>
      <trkpt lat="45.16077" lon="5.97446">
        <ele>2521.2</ele>
        <time>2020-08-11T09:34:56Z</time>
      </trkpt>
      <trkpt lat="45.1608" lon="5.97446">
        <ele>2521</ele>
        <time>2020-08-11T09:34:57Z</time>
      </trkpt>
      <trkpt lat="45.1608" lon="5.97446">
        <ele>2521</ele>
        <time>2020-08-11T09:34:58Z</time>
      </trkpt>
      <trkpt lat="45.16083" lon="5.97446">
        <ele>2520.8</ele>
        <time>2020-08-11T09:34:59Z</time>
      </trkpt>
      <trkpt lat="45.16086" lon="5.97446">
        <ele>2520.6</ele>
        <time>2020-08-11T09:35:00Z</time>
      </trkpt>
      <trkpt lat="45.16088" lon="5.97446">
        <ele>2520.4</ele>
        <time>2020-08-11T09:35:01Z</time>
      </trkpt>
      <trkpt lat="45.16089" lon="5.97446">
        <ele>2520.2</ele>
        <time>2020-08-11T09:35:02Z</time>
      </trkpt>
      <trkpt lat="45.16089" lon="5.97446">
        <ele>2520.2</ele>
        <time>2020-08-11T09:35:03Z</time>
      </trkpt>
      <trkpt lat="45.16089" lon="5.97446">
        <ele>2520.2</ele>
        <time>2020-08-11T09:35:04Z</time>
      </trkpt>
      <trkpt lat="45.16093" lon="5.97446">
        <ele>2520</ele>
        <time>2020-08-11T09:35:05Z</time>
      </trkpt>
      <trkpt lat="45.16093" lon="5.97446">
        <ele>2520</ele>
        <time>2020-08-11T09:35:06Z</time>
      </trkpt>
      <trkpt lat="45.16095" lon="5.97445">
        <ele>2519.6</ele>
        <time>2020-08-11T09:35:07Z</time>
      </trkpt>
      <trkpt lat="45.16095" lon="5.97445">
        <ele>2519.6</ele>
        <time>2020-08-11T09:35:08Z</time>
      </trkpt>
      <trkpt lat="45.16096" lon="5.97442">
        <ele>2519.8</ele>
        <time>2020-08-11T09:35:09Z</time>
      </trkpt>
      <trkpt lat="45.16096" lon="5.97442">
        <ele>2519.8</ele>
        <time>2020-08-11T09:35:10Z</time>
      </trkpt>
      <trkpt lat="45.16096" lon="5.97442">
        <ele>2520</ele>
        <time>2020-08-11T09:35:11Z</time>
      </trkpt>
      <trkpt lat="45.16099" lon="5.97441">
        <ele>2520</ele>
        <time>2020-08-11T09:35:12Z</time>
      </trkpt>
      <trkpt lat="45.16101" lon="5.9744">
        <ele>2519.8</ele>
        <time>2020-08-11T09:35:13Z</time>
      </trkpt>
      <trkpt lat="45.16101" lon="5.9744">
        <ele>2519.6</ele>
        <time>2020-08-11T09:35:14Z</time>
      </trkpt>
      <trkpt lat="45.16103" lon="5.97438">
        <ele>2519.2</ele>
        <time>2020-08-11T09:35:15Z</time>
      </trkpt>
      <trkpt lat="45.16103" lon="5.97438">
        <ele>2519.4</ele>
        <time>2020-08-11T09:35:16Z</time>
      </trkpt>
      <trkpt lat="45.16103" lon="5.97438">
        <ele>2519.2</ele>
        <time>2020-08-11T09:35:17Z</time>
      </trkpt>
      <trkpt lat="45.16103" lon="5.97438">
        <ele>2519.2</ele>
        <time>2020-08-11T09:35:18Z</time>
      </trkpt>
      <trkpt lat="45.16103" lon="5.97438">
        <ele>2519.4</ele>
        <time>2020-08-11T09:35:19Z</time>
      </trkpt>
      <trkpt lat="45.16105" lon="5.97435">
        <ele>2519.6</ele>
        <time>2020-08-11T09:35:20Z</time>
      </trkpt>
      <trkpt lat="45.16105" lon="5.97435">
        <ele>2519.2</ele>
        <time>2020-08-11T09:35:21Z</time>
      </trkpt>
      <trkpt lat="45.16107" lon="5.97434">
        <ele>2519.4</ele>
        <time>2020-08-11T09:35:22Z</time>
      </trkpt>
      <trkpt lat="45.16107" lon="5.97434">
        <ele>2519.4</ele>
        <time>2020-08-11T09:35:23Z</time>
      </trkpt>
      <trkpt lat="45.1611" lon="5.97432">
        <ele>2519.8</ele>
        <time>2020-08-11T09:35:24Z</time>
      </trkpt>
      <trkpt lat="45.1611" lon="5.97432">
        <ele>2519.8</ele>
        <time>2020-08-11T09:35:25Z</time>
      </trkpt>
      <trkpt lat="45.1611" lon="5.97432">
        <ele>2519.6</ele>
        <time>2020-08-11T09:35:26Z</time>
      </trkpt>
      <trkpt lat="45.16113" lon="5.9743">
        <ele>2519.6</ele>
        <time>2020-08-11T09:35:27Z</time>
      </trkpt>
      <trkpt lat="45.16115" lon="5.97428">
        <ele>2519.6</ele>
        <time>2020-08-11T09:35:28Z</time>
      </trkpt>
      <trkpt lat="45.16115" lon="5.97428">
        <ele>2519.4</ele>
        <time>2020-08-11T09:35:29Z</time>
      </trkpt>
      <trkpt lat="45.16115" lon="5.97428">
        <ele>2519.6</ele>
        <time>2020-08-11T09:35:30Z</time>
      </trkpt>
      <trkpt lat="45.16115" lon="5.97428">
        <ele>2519.8</ele>
        <time>2020-08-11T09:35:31Z</time>
      </trkpt>
      <trkpt lat="45.16115" lon="5.97428">
        <ele>2519.8</ele>
        <time>2020-08-11T09:35:32Z</time>
      </trkpt>
      <trkpt lat="45.16116" lon="5.97425">
        <ele>2520</ele>
        <time>2020-08-11T09:35:33Z</time>
      </trkpt>
      <trkpt lat="45.16116" lon="5.97425">
        <ele>2520</ele>
        <time>2020-08-11T09:35:34Z</time>
      </trkpt>
      <trkpt lat="45.16117" lon="5.97423">
        <ele>2520</ele>
        <time>2020-08-11T09:35:35Z</time>
      </trkpt>
      <trkpt lat="45.16117" lon="5.97423">
        <ele>2520</ele>
        <time>2020-08-11T09:35:36Z</time>
      </trkpt>
      <trkpt lat="45.1612" lon="5.97421">
        <ele>2520.2</ele>
        <time>2020-08-11T09:35:37Z</time>
      </trkpt>
      <trkpt lat="45.1612" lon="5.97421">
        <ele>2520.2</ele>
        <time>2020-08-11T09:35:38Z</time>
      </trkpt>
      <trkpt lat="45.1612" lon="5.97421">
        <ele>2520</ele>
        <time>2020-08-11T09:35:39Z</time>
      </trkpt>
      <trkpt lat="45.16123" lon="5.97419">
        <ele>2520</ele>
        <time>2020-08-11T09:35:40Z</time>
      </trkpt>
      <trkpt lat="45.16123" lon="5.97419">
        <ele>2520.2</ele>
        <time>2020-08-11T09:35:41Z</time>
      </trkpt>
      <trkpt lat="45.16123" lon="5.97419">
        <ele>2520.2</ele>
        <time>2020-08-11T09:35:42Z</time>
      </trkpt>
      <trkpt lat="45.16123" lon="5.97419">
        <ele>2520.2</ele>
        <time>2020-08-11T09:35:43Z</time>
      </trkpt>
      <trkpt lat="45.16125" lon="5.97418">
        <ele>2520.2</ele>
        <time>2020-08-11T09:35:44Z</time>
      </trkpt>
      <trkpt lat="45.16125" lon="5.97418">
        <ele>2520.2</ele>
        <time>2020-08-11T09:35:45Z</time>
      </trkpt>
      <trkpt lat="45.16125" lon="5.97418">
        <ele>2520.4</ele>
        <time>2020-08-11T09:35:46Z</time>
      </trkpt>
      <trkpt lat="45.16125" lon="5.97418">
        <ele>2520.8</ele>
        <time>2020-08-11T09:35:47Z</time>
      </trkpt>
      <trkpt lat="45.16126" lon="5.9742">
        <ele>2521</ele>
        <time>2020-08-11T09:35:48Z</time>
      </trkpt>
      <trkpt lat="45.16126" lon="5.9742">
        <ele>2521.2</ele>
        <time>2020-08-11T09:35:49Z</time>
      </trkpt>
      <trkpt lat="45.16126" lon="5.9742">
        <ele>2521</ele>
        <time>2020-08-11T09:35:50Z</time>
      </trkpt>
      <trkpt lat="45.16126" lon="5.9742">
        <ele>2521</ele>
        <time>2020-08-11T09:35:51Z</time>
      </trkpt>
      <trkpt lat="45.16126" lon="5.9742">
        <ele>2521</ele>
        <time>2020-08-11T09:35:52Z</time>
      </trkpt>
      <trkpt lat="45.16126" lon="5.9742">
        <ele>2521</ele>
        <time>2020-08-11T09:35:53Z</time>
      </trkpt>
      <trkpt lat="45.16126" lon="5.9742">
        <ele>2521</ele>
        <time>2020-08-11T09:35:54Z</time>
      </trkpt>
      <trkpt lat="45.16126" lon="5.9742">
        <ele>2521</ele>
        <time>2020-08-11T09:35:55Z</time>
      </trkpt>
      <trkpt lat="45.16126" lon="5.9742">
        <ele>2520.6</ele>
        <time>2020-08-11T09:35:56Z</time>
      </trkpt>
      <trkpt lat="45.16126" lon="5.9742">
        <ele>2520.6</ele>
        <time>2020-08-11T09:35:57Z</time>
      </trkpt>
      <trkpt lat="45.16128" lon="5.97418">
        <ele>2520.2</ele>
        <time>2020-08-11T09:35:58Z</time>
      </trkpt>
      <trkpt lat="45.16128" lon="5.97418">
        <ele>2520.2</ele>
        <time>2020-08-11T09:35:59Z</time>
      </trkpt>
      <trkpt lat="45.16128" lon="5.97418">
        <ele>2520</ele>
        <time>2020-08-11T09:36:00Z</time>
      </trkpt>
      <trkpt lat="45.16128" lon="5.97418">
        <ele>2520</ele>
        <time>2020-08-11T09:36:01Z</time>
      </trkpt>
      <trkpt lat="45.16128" lon="5.97418">
        <ele>2520</ele>
        <time>2020-08-11T09:36:02Z</time>
      </trkpt>
      <trkpt lat="45.16128" lon="5.97418">
        <ele>2520</ele>
        <time>2020-08-11T09:36:03Z</time>
      </trkpt>
      <trkpt lat="45.16128" lon="5.97418">
        <ele>2520.2</ele>
        <time>2020-08-11T09:36:04Z</time>
      </trkpt>
      <trkpt lat="45.1613" lon="5.97415">
        <ele>2520.2</ele>
        <time>2020-08-11T09:36:05Z</time>
      </trkpt>
      <trkpt lat="45.1613" lon="5.97415">
        <ele>2520.4</ele>
        <time>2020-08-11T09:36:06Z</time>
      </trkpt>
      <trkpt lat="45.16131" lon="5.97416">
        <ele>2520.4</ele>
        <time>2020-08-11T09:36:07Z</time>
      </trkpt>
      <trkpt lat="45.16132" lon="5.97416">
        <ele>2520.6</ele>
        <time>2020-08-11T09:36:08Z</time>
      </trkpt>
      <trkpt lat="45.16134" lon="5.97417">
        <ele>2520.8</ele>
        <time>2020-08-11T09:36:09Z</time>
      </trkpt>
      <trkpt lat="45.16135" lon="5.97417">
        <ele>2520.8</ele>
        <time>2020-08-11T09:36:10Z</time>
      </trkpt>
      <trkpt lat="45.16139" lon="5.97418">
        <ele>2520.8</ele>
        <time>2020-08-11T09:36:11Z</time>
      </trkpt>
      <trkpt lat="45.16139" lon="5.97418">
        <ele>2520.8</ele>
        <time>2020-08-11T09:36:12Z</time>
      </trkpt>
      <trkpt lat="45.16139" lon="5.97418">
        <ele>2520.8</ele>
        <time>2020-08-11T09:36:13Z</time>
      </trkpt>
      <trkpt lat="45.16139" lon="5.97418">
        <ele>2521</ele>
        <time>2020-08-11T09:36:14Z</time>
      </trkpt>
      <trkpt lat="45.16139" lon="5.97418">
        <ele>2521</ele>
        <time>2020-08-11T09:36:15Z</time>
      </trkpt>
      <trkpt lat="45.16139" lon="5.97418">
        <ele>2521.2</ele>
        <time>2020-08-11T09:36:16Z</time>
      </trkpt>
      <trkpt lat="45.16142" lon="5.97421">
        <ele>2521</ele>
        <time>2020-08-11T09:36:17Z</time>
      </trkpt>
      <trkpt lat="45.16143" lon="5.97422">
        <ele>2521.2</ele>
        <time>2020-08-11T09:36:18Z</time>
      </trkpt>
      <trkpt lat="45.16144" lon="5.97423">
        <ele>2521.2</ele>
        <time>2020-08-11T09:36:19Z</time>
      </trkpt>
      <trkpt lat="45.16145" lon="5.97424">
        <ele>2521.4</ele>
        <time>2020-08-11T09:36:20Z</time>
      </trkpt>
      <trkpt lat="45.16145" lon="5.97424">
        <ele>2521.6</ele>
        <time>2020-08-11T09:36:21Z</time>
      </trkpt>
      <trkpt lat="45.16145" lon="5.97424">
        <ele>2521.6</ele>
        <time>2020-08-11T09:36:22Z</time>
      </trkpt>
      <trkpt lat="45.16146" lon="5.97425">
        <ele>2521.6</ele>
        <time>2020-08-11T09:36:23Z</time>
      </trkpt>
      <trkpt lat="45.16147" lon="5.97426">
        <ele>2521.4</ele>
        <time>2020-08-11T09:36:24Z</time>
      </trkpt>
      <trkpt lat="45.16148" lon="5.97428">
        <ele>2521.4</ele>
        <time>2020-08-11T09:36:25Z</time>
      </trkpt>
      <trkpt lat="45.16149" lon="5.97429">
        <ele>2521.2</ele>
        <time>2020-08-11T09:36:26Z</time>
      </trkpt>
      <trkpt lat="45.1615" lon="5.9743">
        <ele>2521.6</ele>
        <time>2020-08-11T09:36:27Z</time>
      </trkpt>
      <trkpt lat="45.16153" lon="5.9743">
        <ele>2521.6</ele>
        <time>2020-08-11T09:36:28Z</time>
      </trkpt>
      <trkpt lat="45.16153" lon="5.9743">
        <ele>2522</ele>
        <time>2020-08-11T09:36:29Z</time>
      </trkpt>
      <trkpt lat="45.16153" lon="5.9743">
        <ele>2522.2</ele>
        <time>2020-08-11T09:36:30Z</time>
      </trkpt>
      <trkpt lat="45.16153" lon="5.9743">
        <ele>2522.4</ele>
        <time>2020-08-11T09:36:31Z</time>
      </trkpt>
      <trkpt lat="45.16153" lon="5.9743">
        <ele>2522.6</ele>
        <time>2020-08-11T09:36:32Z</time>
      </trkpt>
      <trkpt lat="45.16156" lon="5.97431">
        <ele>2522.8</ele>
        <time>2020-08-11T09:36:33Z</time>
      </trkpt>
      <trkpt lat="45.16156" lon="5.97431">
        <ele>2522.6</ele>
        <time>2020-08-11T09:36:34Z</time>
      </trkpt>
      <trkpt lat="45.16156" lon="5.97431">
        <ele>2522.8</ele>
        <time>2020-08-11T09:36:35Z</time>
      </trkpt>
      <trkpt lat="45.16156" lon="5.97431">
        <ele>2523.2</ele>
        <time>2020-08-11T09:36:36Z</time>
      </trkpt>
      <trkpt lat="45.16156" lon="5.97431">
        <ele>2523.2</ele>
        <time>2020-08-11T09:36:37Z</time>
      </trkpt>
      <trkpt lat="45.16158" lon="5.97431">
        <ele>2523.6</ele>
        <time>2020-08-11T09:36:38Z</time>
      </trkpt>
      <trkpt lat="45.16158" lon="5.97431">
        <ele>2523.6</ele>
        <time>2020-08-11T09:36:39Z</time>
      </trkpt>
      <trkpt lat="45.16159" lon="5.9743">
        <ele>2524.2</ele>
        <time>2020-08-11T09:36:40Z</time>
      </trkpt>
      <trkpt lat="45.16159" lon="5.9743">
        <ele>2524.4</ele>
        <time>2020-08-11T09:36:41Z</time>
      </trkpt>
      <trkpt lat="45.1616" lon="5.97429">
        <ele>2524.6</ele>
        <time>2020-08-11T09:36:42Z</time>
      </trkpt>
      <trkpt lat="45.1616" lon="5.97428">
        <ele>2525</ele>
        <time>2020-08-11T09:36:43Z</time>
      </trkpt>
      <trkpt lat="45.16161" lon="5.97428">
        <ele>2525.4</ele>
        <time>2020-08-11T09:36:44Z</time>
      </trkpt>
      <trkpt lat="45.16161" lon="5.97427">
        <ele>2526.2</ele>
        <time>2020-08-11T09:36:45Z</time>
      </trkpt>
      <trkpt lat="45.16162" lon="5.97427">
        <ele>2526.4</ele>
        <time>2020-08-11T09:36:46Z</time>
      </trkpt>
      <trkpt lat="45.16162" lon="5.97426">
        <ele>2526.4</ele>
        <time>2020-08-11T09:36:47Z</time>
      </trkpt>
      <trkpt lat="45.16163" lon="5.97426">
        <ele>2526.4</ele>
        <time>2020-08-11T09:36:48Z</time>
      </trkpt>
      <trkpt lat="45.16163" lon="5.97425">
        <ele>2526.6</ele>
        <time>2020-08-11T09:36:49Z</time>
      </trkpt>
      <trkpt lat="45.16165" lon="5.97423">
        <ele>2526.8</ele>
        <time>2020-08-11T09:36:50Z</time>
      </trkpt>
      <trkpt lat="45.16165" lon="5.97423">
        <ele>2526.8</ele>
        <time>2020-08-11T09:36:51Z</time>
      </trkpt>
      <trkpt lat="45.16165" lon="5.97423">
        <ele>2526.8</ele>
        <time>2020-08-11T09:36:52Z</time>
      </trkpt>
      <trkpt lat="45.16166" lon="5.97421">
        <ele>2526.8</ele>
        <time>2020-08-11T09:36:53Z</time>
      </trkpt>
      <trkpt lat="45.16166" lon="5.97421">
        <ele>2527.2</ele>
        <time>2020-08-11T09:36:54Z</time>
      </trkpt>
      <trkpt lat="45.16166" lon="5.97421">
        <ele>2527.4</ele>
        <time>2020-08-11T09:36:55Z</time>
      </trkpt>
      <trkpt lat="45.16166" lon="5.97421">
        <ele>2527.8</ele>
        <time>2020-08-11T09:36:56Z</time>
      </trkpt>
      <trkpt lat="45.16166" lon="5.97421">
        <ele>2528</ele>
        <time>2020-08-11T09:36:57Z</time>
      </trkpt>
      <trkpt lat="45.16166" lon="5.97421">
        <ele>2528</ele>
        <time>2020-08-11T09:36:58Z</time>
      </trkpt>
      <trkpt lat="45.16169" lon="5.97419">
        <ele>2528</ele>
        <time>2020-08-11T09:36:59Z</time>
      </trkpt>
      <trkpt lat="45.1617" lon="5.97419">
        <ele>2528.2</ele>
        <time>2020-08-11T09:37:00Z</time>
      </trkpt>
      <trkpt lat="45.16172" lon="5.97419">
        <ele>2528.2</ele>
        <time>2020-08-11T09:37:01Z</time>
      </trkpt>
      <trkpt lat="45.16173" lon="5.9742">
        <ele>2528.4</ele>
        <time>2020-08-11T09:37:02Z</time>
      </trkpt>
      <trkpt lat="45.16173" lon="5.9742">
        <ele>2528.6</ele>
        <time>2020-08-11T09:37:03Z</time>
      </trkpt>
      <trkpt lat="45.16173" lon="5.9742">
        <ele>2528.8</ele>
        <time>2020-08-11T09:37:04Z</time>
      </trkpt>
      <trkpt lat="45.16173" lon="5.9742">
        <ele>2528.8</ele>
        <time>2020-08-11T09:37:05Z</time>
      </trkpt>
      <trkpt lat="45.16173" lon="5.9742">
        <ele>2528.6</ele>
        <time>2020-08-11T09:37:06Z</time>
      </trkpt>
      <trkpt lat="45.16173" lon="5.9742">
        <ele>2528.8</ele>
        <time>2020-08-11T09:37:07Z</time>
      </trkpt>
      <trkpt lat="45.16175" lon="5.9742">
        <ele>2529</ele>
        <time>2020-08-11T09:37:08Z</time>
      </trkpt>
      <trkpt lat="45.16175" lon="5.9742">
        <ele>2529</ele>
        <time>2020-08-11T09:37:09Z</time>
      </trkpt>
      <trkpt lat="45.16176" lon="5.9742">
        <ele>2529.2</ele>
        <time>2020-08-11T09:37:10Z</time>
      </trkpt>
      <trkpt lat="45.16177" lon="5.97421">
        <ele>2529.2</ele>
        <time>2020-08-11T09:37:11Z</time>
      </trkpt>
      <trkpt lat="45.16177" lon="5.97421">
        <ele>2529.2</ele>
        <time>2020-08-11T09:37:12Z</time>
      </trkpt>
      <trkpt lat="45.16178" lon="5.97421">
        <ele>2529.4</ele>
        <time>2020-08-11T09:37:13Z</time>
      </trkpt>
      <trkpt lat="45.16179" lon="5.97421">
        <ele>2529.8</ele>
        <time>2020-08-11T09:37:14Z</time>
      </trkpt>
      <trkpt lat="45.16179" lon="5.97421">
        <ele>2529.8</ele>
        <time>2020-08-11T09:37:15Z</time>
      </trkpt>
      <trkpt lat="45.1618" lon="5.97421">
        <ele>2530</ele>
        <time>2020-08-11T09:37:16Z</time>
      </trkpt>
      <trkpt lat="45.16181" lon="5.97421">
        <ele>2530.2</ele>
        <time>2020-08-11T09:37:17Z</time>
      </trkpt>
      <trkpt lat="45.16181" lon="5.97422">
        <ele>2530.2</ele>
        <time>2020-08-11T09:37:18Z</time>
      </trkpt>
      <trkpt lat="45.16182" lon="5.97422">
        <ele>2530.4</ele>
        <time>2020-08-11T09:37:19Z</time>
      </trkpt>
      <trkpt lat="45.16183" lon="5.97422">
        <ele>2530.6</ele>
        <time>2020-08-11T09:37:20Z</time>
      </trkpt>
      <trkpt lat="45.16183" lon="5.97422">
        <ele>2530.8</ele>
        <time>2020-08-11T09:37:21Z</time>
      </trkpt>
      <trkpt lat="45.16184" lon="5.97422">
        <ele>2531</ele>
        <time>2020-08-11T09:37:22Z</time>
      </trkpt>
      <trkpt lat="45.16184" lon="5.97422">
        <ele>2531.2</ele>
        <time>2020-08-11T09:37:23Z</time>
      </trkpt>
      <trkpt lat="45.16185" lon="5.97422">
        <ele>2531.4</ele>
        <time>2020-08-11T09:37:24Z</time>
      </trkpt>
      <trkpt lat="45.16186" lon="5.97421">
        <ele>2531.4</ele>
        <time>2020-08-11T09:37:25Z</time>
      </trkpt>
      <trkpt lat="45.16187" lon="5.9742">
        <ele>2531.6</ele>
        <time>2020-08-11T09:37:26Z</time>
      </trkpt>
      <trkpt lat="45.16189" lon="5.97419">
        <ele>2531.6</ele>
        <time>2020-08-11T09:37:27Z</time>
      </trkpt>
      <trkpt lat="45.1619" lon="5.97418">
        <ele>2531.8</ele>
        <time>2020-08-11T09:37:28Z</time>
      </trkpt>
      <trkpt lat="45.16191" lon="5.97417">
        <ele>2532</ele>
        <time>2020-08-11T09:37:29Z</time>
      </trkpt>
      <trkpt lat="45.16192" lon="5.97415">
        <ele>2532</ele>
        <time>2020-08-11T09:37:30Z</time>
      </trkpt>
      <trkpt lat="45.16193" lon="5.97414">
        <ele>2532.6</ele>
        <time>2020-08-11T09:37:31Z</time>
      </trkpt>
      <trkpt lat="45.16194" lon="5.97415">
        <ele>2532.4</ele>
        <time>2020-08-11T09:37:32Z</time>
      </trkpt>
      <trkpt lat="45.16194" lon="5.97415">
        <ele>2532.4</ele>
        <time>2020-08-11T09:37:33Z</time>
      </trkpt>
      <trkpt lat="45.16195" lon="5.97415">
        <ele>2532.6</ele>
        <time>2020-08-11T09:37:34Z</time>
      </trkpt>
      <trkpt lat="45.16196" lon="5.97415">
        <ele>2532.8</ele>
        <time>2020-08-11T09:37:35Z</time>
      </trkpt>
      <trkpt lat="45.16196" lon="5.97415">
        <ele>2532.8</ele>
        <time>2020-08-11T09:37:36Z</time>
      </trkpt>
      <trkpt lat="45.16197" lon="5.97416">
        <ele>2533</ele>
        <time>2020-08-11T09:37:37Z</time>
      </trkpt>
      <trkpt lat="45.16197" lon="5.97416">
        <ele>2533</ele>
        <time>2020-08-11T09:37:38Z</time>
      </trkpt>
      <trkpt lat="45.16198" lon="5.97416">
        <ele>2533</ele>
        <time>2020-08-11T09:37:39Z</time>
      </trkpt>
      <trkpt lat="45.16199" lon="5.97416">
        <ele>2533</ele>
        <time>2020-08-11T09:37:40Z</time>
      </trkpt>
      <trkpt lat="45.16199" lon="5.97417">
        <ele>2533</ele>
        <time>2020-08-11T09:37:41Z</time>
      </trkpt>
      <trkpt lat="45.162" lon="5.97417">
        <ele>2533.4</ele>
        <time>2020-08-11T09:37:42Z</time>
      </trkpt>
      <trkpt lat="45.16201" lon="5.97417">
        <ele>2533.4</ele>
        <time>2020-08-11T09:37:43Z</time>
      </trkpt>
      <trkpt lat="45.16201" lon="5.97417">
        <ele>2533.6</ele>
        <time>2020-08-11T09:37:44Z</time>
      </trkpt>
      <trkpt lat="45.16202" lon="5.97417">
        <ele>2533.8</ele>
        <time>2020-08-11T09:37:45Z</time>
      </trkpt>
      <trkpt lat="45.16202" lon="5.97418">
        <ele>2534</ele>
        <time>2020-08-11T09:37:46Z</time>
      </trkpt>
      <trkpt lat="45.16203" lon="5.97417">
        <ele>2534.2</ele>
        <time>2020-08-11T09:37:47Z</time>
      </trkpt>
      <trkpt lat="45.16203" lon="5.97417">
        <ele>2534.2</ele>
        <time>2020-08-11T09:37:48Z</time>
      </trkpt>
      <trkpt lat="45.16204" lon="5.97417">
        <ele>2534.4</ele>
        <time>2020-08-11T09:37:49Z</time>
      </trkpt>
      <trkpt lat="45.16205" lon="5.97417">
        <ele>2534.6</ele>
        <time>2020-08-11T09:37:50Z</time>
      </trkpt>
      <trkpt lat="45.16205" lon="5.97416">
        <ele>2535.2</ele>
        <time>2020-08-11T09:37:51Z</time>
      </trkpt>
      <trkpt lat="45.16206" lon="5.97416">
        <ele>2535.8</ele>
        <time>2020-08-11T09:37:52Z</time>
      </trkpt>
      <trkpt lat="45.16206" lon="5.97416">
        <ele>2535.8</ele>
        <time>2020-08-11T09:37:53Z</time>
      </trkpt>
      <trkpt lat="45.16207" lon="5.97415">
        <ele>2535.8</ele>
        <time>2020-08-11T09:37:54Z</time>
      </trkpt>
      <trkpt lat="45.16207" lon="5.97415">
        <ele>2535.8</ele>
        <time>2020-08-11T09:37:55Z</time>
      </trkpt>
      <trkpt lat="45.16208" lon="5.97415">
        <ele>2536</ele>
        <time>2020-08-11T09:37:56Z</time>
      </trkpt>
      <trkpt lat="45.16208" lon="5.97415">
        <ele>2536.2</ele>
        <time>2020-08-11T09:37:57Z</time>
      </trkpt>
      <trkpt lat="45.16209" lon="5.97414">
        <ele>2536.4</ele>
        <time>2020-08-11T09:37:58Z</time>
      </trkpt>
      <trkpt lat="45.16209" lon="5.97414">
        <ele>2536.6</ele>
        <time>2020-08-11T09:37:59Z</time>
      </trkpt>
      <trkpt lat="45.1621" lon="5.97414">
        <ele>2536.8</ele>
        <time>2020-08-11T09:38:00Z</time>
      </trkpt>
      <trkpt lat="45.1621" lon="5.97414">
        <ele>2536.8</ele>
        <time>2020-08-11T09:38:01Z</time>
      </trkpt>
      <trkpt lat="45.16211" lon="5.97413">
        <ele>2536.8</ele>
        <time>2020-08-11T09:38:02Z</time>
      </trkpt>
      <trkpt lat="45.16211" lon="5.97413">
        <ele>2537</ele>
        <time>2020-08-11T09:38:03Z</time>
      </trkpt>
      <trkpt lat="45.16212" lon="5.97413">
        <ele>2537.2</ele>
        <time>2020-08-11T09:38:04Z</time>
      </trkpt>
      <trkpt lat="45.16212" lon="5.97413">
        <ele>2537.4</ele>
        <time>2020-08-11T09:38:05Z</time>
      </trkpt>
      <trkpt lat="45.16213" lon="5.97413">
        <ele>2537.6</ele>
        <time>2020-08-11T09:38:06Z</time>
      </trkpt>
      <trkpt lat="45.16213" lon="5.97413">
        <ele>2538.2</ele>
        <time>2020-08-11T09:38:07Z</time>
      </trkpt>
      <trkpt lat="45.16214" lon="5.97413">
        <ele>2538.8</ele>
        <time>2020-08-11T09:38:08Z</time>
      </trkpt>
      <trkpt lat="45.16214" lon="5.97413">
        <ele>2539.2</ele>
        <time>2020-08-11T09:38:09Z</time>
      </trkpt>
      <trkpt lat="45.16215" lon="5.97413">
        <ele>2539.4</ele>
        <time>2020-08-11T09:38:10Z</time>
      </trkpt>
      <trkpt lat="45.16215" lon="5.97412">
        <ele>2539.8</ele>
        <time>2020-08-11T09:38:11Z</time>
      </trkpt>
      <trkpt lat="45.16216" lon="5.97412">
        <ele>2540.2</ele>
        <time>2020-08-11T09:38:12Z</time>
      </trkpt>
      <trkpt lat="45.16216" lon="5.97412">
        <ele>2540.8</ele>
        <time>2020-08-11T09:38:13Z</time>
      </trkpt>
      <trkpt lat="45.16217" lon="5.97412">
        <ele>2540.4</ele>
        <time>2020-08-11T09:38:14Z</time>
      </trkpt>
      <trkpt lat="45.16217" lon="5.97412">
        <ele>2540.2</ele>
        <time>2020-08-11T09:38:15Z</time>
      </trkpt>
      <trkpt lat="45.16218" lon="5.97412">
        <ele>2540</ele>
        <time>2020-08-11T09:38:16Z</time>
      </trkpt>
      <trkpt lat="45.16218" lon="5.97412">
        <ele>2540</ele>
        <time>2020-08-11T09:38:17Z</time>
      </trkpt>
      <trkpt lat="45.16219" lon="5.97412">
        <ele>2540.2</ele>
        <time>2020-08-11T09:38:18Z</time>
      </trkpt>
      <trkpt lat="45.16219" lon="5.97412">
        <ele>2540.8</ele>
        <time>2020-08-11T09:38:19Z</time>
      </trkpt>
      <trkpt lat="45.16219" lon="5.97412">
        <ele>2541</ele>
        <time>2020-08-11T09:38:20Z</time>
      </trkpt>
      <trkpt lat="45.1622" lon="5.97412">
        <ele>2541</ele>
        <time>2020-08-11T09:38:21Z</time>
      </trkpt>
      <trkpt lat="45.1622" lon="5.97412">
        <ele>2541.2</ele>
        <time>2020-08-11T09:38:22Z</time>
      </trkpt>
      <trkpt lat="45.16221" lon="5.97412">
        <ele>2541.2</ele>
        <time>2020-08-11T09:38:23Z</time>
      </trkpt>
      <trkpt lat="45.16222" lon="5.97412">
        <ele>2541.8</ele>
        <time>2020-08-11T09:38:24Z</time>
      </trkpt>
      <trkpt lat="45.16222" lon="5.97412">
        <ele>2542</ele>
        <time>2020-08-11T09:38:25Z</time>
      </trkpt>
      <trkpt lat="45.16223" lon="5.97412">
        <ele>2542.4</ele>
        <time>2020-08-11T09:38:26Z</time>
      </trkpt>
      <trkpt lat="45.16223" lon="5.97412">
        <ele>2542.6</ele>
        <time>2020-08-11T09:38:27Z</time>
      </trkpt>
      <trkpt lat="45.16224" lon="5.97412">
        <ele>2542.6</ele>
        <time>2020-08-11T09:38:28Z</time>
      </trkpt>
      <trkpt lat="45.16224" lon="5.97412">
        <ele>2542.6</ele>
        <time>2020-08-11T09:38:29Z</time>
      </trkpt>
      <trkpt lat="45.16225" lon="5.97413">
        <ele>2542.8</ele>
        <time>2020-08-11T09:38:30Z</time>
      </trkpt>
      <trkpt lat="45.16225" lon="5.97413">
        <ele>2542.6</ele>
        <time>2020-08-11T09:38:31Z</time>
      </trkpt>
      <trkpt lat="45.16226" lon="5.97413">
        <ele>2542.8</ele>
        <time>2020-08-11T09:38:32Z</time>
      </trkpt>
      <trkpt lat="45.16226" lon="5.97413">
        <ele>2543.2</ele>
        <time>2020-08-11T09:38:33Z</time>
      </trkpt>
      <trkpt lat="45.16227" lon="5.97413">
        <ele>2543.4</ele>
        <time>2020-08-11T09:38:34Z</time>
      </trkpt>
      <trkpt lat="45.16227" lon="5.97413">
        <ele>2543.4</ele>
        <time>2020-08-11T09:38:35Z</time>
      </trkpt>
      <trkpt lat="45.16228" lon="5.97413">
        <ele>2544</ele>
        <time>2020-08-11T09:38:36Z</time>
      </trkpt>
      <trkpt lat="45.16228" lon="5.97413">
        <ele>2544.2</ele>
        <time>2020-08-11T09:38:37Z</time>
      </trkpt>
      <trkpt lat="45.16228" lon="5.97413">
        <ele>2544.4</ele>
        <time>2020-08-11T09:38:38Z</time>
      </trkpt>
      <trkpt lat="45.16228" lon="5.97413">
        <ele>2544.6</ele>
        <time>2020-08-11T09:38:39Z</time>
      </trkpt>
      <trkpt lat="45.16228" lon="5.97413">
        <ele>2544.8</ele>
        <time>2020-08-11T09:38:40Z</time>
      </trkpt>
      <trkpt lat="45.16228" lon="5.97413">
        <ele>2545.4</ele>
        <time>2020-08-11T09:38:41Z</time>
      </trkpt>
      <trkpt lat="45.16232" lon="5.97415">
        <ele>2545.6</ele>
        <time>2020-08-11T09:38:42Z</time>
      </trkpt>
      <trkpt lat="45.16232" lon="5.97415">
        <ele>2545.8</ele>
        <time>2020-08-11T09:38:43Z</time>
      </trkpt>
      <trkpt lat="45.16232" lon="5.97416">
        <ele>2545.8</ele>
        <time>2020-08-11T09:38:44Z</time>
      </trkpt>
      <trkpt lat="45.16233" lon="5.97417">
        <ele>2545.6</ele>
        <time>2020-08-11T09:38:45Z</time>
      </trkpt>
      <trkpt lat="45.16233" lon="5.97417">
        <ele>2545.8</ele>
        <time>2020-08-11T09:38:46Z</time>
      </trkpt>
      <trkpt lat="45.16233" lon="5.97418">
        <ele>2546.2</ele>
        <time>2020-08-11T09:38:47Z</time>
      </trkpt>
      <trkpt lat="45.16234" lon="5.97419">
        <ele>2546.6</ele>
        <time>2020-08-11T09:38:48Z</time>
      </trkpt>
      <trkpt lat="45.16234" lon="5.9742">
        <ele>2546.8</ele>
        <time>2020-08-11T09:38:49Z</time>
      </trkpt>
      <trkpt lat="45.16235" lon="5.9742">
        <ele>2546.8</ele>
        <time>2020-08-11T09:38:50Z</time>
      </trkpt>
      <trkpt lat="45.16235" lon="5.9742">
        <ele>2546.8</ele>
        <time>2020-08-11T09:38:51Z</time>
      </trkpt>
      <trkpt lat="45.16235" lon="5.9742">
        <ele>2546.8</ele>
        <time>2020-08-11T09:38:52Z</time>
      </trkpt>
      <trkpt lat="45.16236" lon="5.97421">
        <ele>2546.8</ele>
        <time>2020-08-11T09:38:53Z</time>
      </trkpt>
      <trkpt lat="45.16236" lon="5.97421">
        <ele>2547.2</ele>
        <time>2020-08-11T09:38:54Z</time>
      </trkpt>
      <trkpt lat="45.16236" lon="5.97421">
        <ele>2547.6</ele>
        <time>2020-08-11T09:38:55Z</time>
      </trkpt>
      <trkpt lat="45.16237" lon="5.97422">
        <ele>2547.8</ele>
        <time>2020-08-11T09:38:56Z</time>
      </trkpt>
      <trkpt lat="45.16237" lon="5.97422">
        <ele>2547.8</ele>
        <time>2020-08-11T09:38:57Z</time>
      </trkpt>
      <trkpt lat="45.16238" lon="5.97422">
        <ele>2547.8</ele>
        <time>2020-08-11T09:38:58Z</time>
      </trkpt>
      <trkpt lat="45.16238" lon="5.97422">
        <ele>2547.8</ele>
        <time>2020-08-11T09:38:59Z</time>
      </trkpt>
      <trkpt lat="45.16238" lon="5.97423">
        <ele>2548</ele>
        <time>2020-08-11T09:39:00Z</time>
      </trkpt>
      <trkpt lat="45.16239" lon="5.97423">
        <ele>2548.2</ele>
        <time>2020-08-11T09:39:01Z</time>
      </trkpt>
      <trkpt lat="45.16239" lon="5.97423">
        <ele>2548</ele>
        <time>2020-08-11T09:39:02Z</time>
      </trkpt>
      <trkpt lat="45.16239" lon="5.97423">
        <ele>2548.4</ele>
        <time>2020-08-11T09:39:03Z</time>
      </trkpt>
      <trkpt lat="45.1624" lon="5.97424">
        <ele>2548.6</ele>
        <time>2020-08-11T09:39:04Z</time>
      </trkpt>
      <trkpt lat="45.1624" lon="5.97424">
        <ele>2549</ele>
        <time>2020-08-11T09:39:05Z</time>
      </trkpt>
      <trkpt lat="45.16241" lon="5.97424">
        <ele>2549</ele>
        <time>2020-08-11T09:39:06Z</time>
      </trkpt>
      <trkpt lat="45.16241" lon="5.97425">
        <ele>2549.4</ele>
        <time>2020-08-11T09:39:07Z</time>
      </trkpt>
      <trkpt lat="45.16241" lon="5.97425">
        <ele>2550</ele>
        <time>2020-08-11T09:39:08Z</time>
      </trkpt>
      <trkpt lat="45.16242" lon="5.97425">
        <ele>2550.2</ele>
        <time>2020-08-11T09:39:09Z</time>
      </trkpt>
      <trkpt lat="45.16242" lon="5.97425">
        <ele>2550.2</ele>
        <time>2020-08-11T09:39:10Z</time>
      </trkpt>
      <trkpt lat="45.16242" lon="5.97426">
        <ele>2550.4</ele>
        <time>2020-08-11T09:39:11Z</time>
      </trkpt>
      <trkpt lat="45.16243" lon="5.97427">
        <ele>2550.4</ele>
        <time>2020-08-11T09:39:12Z</time>
      </trkpt>
      <trkpt lat="45.16243" lon="5.97428">
        <ele>2550.6</ele>
        <time>2020-08-11T09:39:13Z</time>
      </trkpt>
      <trkpt lat="45.16244" lon="5.9743">
        <ele>2551</ele>
        <time>2020-08-11T09:39:14Z</time>
      </trkpt>
      <trkpt lat="45.16244" lon="5.97431">
        <ele>2551</ele>
        <time>2020-08-11T09:39:15Z</time>
      </trkpt>
      <trkpt lat="45.16245" lon="5.97432">
        <ele>2551.4</ele>
        <time>2020-08-11T09:39:16Z</time>
      </trkpt>
      <trkpt lat="45.16245" lon="5.97433">
        <ele>2551.4</ele>
        <time>2020-08-11T09:39:17Z</time>
      </trkpt>
      <trkpt lat="45.16246" lon="5.97435">
        <ele>2551.4</ele>
        <time>2020-08-11T09:39:18Z</time>
      </trkpt>
      <trkpt lat="45.16246" lon="5.97436">
        <ele>2551.6</ele>
        <time>2020-08-11T09:39:19Z</time>
      </trkpt>
      <trkpt lat="45.16247" lon="5.97437">
        <ele>2551.8</ele>
        <time>2020-08-11T09:39:20Z</time>
      </trkpt>
      <trkpt lat="45.16247" lon="5.97438">
        <ele>2552</ele>
        <time>2020-08-11T09:39:21Z</time>
      </trkpt>
      <trkpt lat="45.16247" lon="5.97438">
        <ele>2552</ele>
        <time>2020-08-11T09:39:22Z</time>
      </trkpt>
      <trkpt lat="45.16248" lon="5.97438">
        <ele>2552.2</ele>
        <time>2020-08-11T09:39:23Z</time>
      </trkpt>
      <trkpt lat="45.16248" lon="5.97439">
        <ele>2552.6</ele>
        <time>2020-08-11T09:39:24Z</time>
      </trkpt>
      <trkpt lat="45.16248" lon="5.97439">
        <ele>2552.8</ele>
        <time>2020-08-11T09:39:25Z</time>
      </trkpt>
      <trkpt lat="45.16248" lon="5.97439">
        <ele>2553.2</ele>
        <time>2020-08-11T09:39:26Z</time>
      </trkpt>
      <trkpt lat="45.16249" lon="5.97439">
        <ele>2553.2</ele>
        <time>2020-08-11T09:39:27Z</time>
      </trkpt>
      <trkpt lat="45.16249" lon="5.9744">
        <ele>2553.4</ele>
        <time>2020-08-11T09:39:28Z</time>
      </trkpt>
      <trkpt lat="45.16249" lon="5.9744">
        <ele>2553.8</ele>
        <time>2020-08-11T09:39:29Z</time>
      </trkpt>
      <trkpt lat="45.1625" lon="5.9744">
        <ele>2554</ele>
        <time>2020-08-11T09:39:30Z</time>
      </trkpt>
      <trkpt lat="45.1625" lon="5.97441">
        <ele>2554</ele>
        <time>2020-08-11T09:39:31Z</time>
      </trkpt>
      <trkpt lat="45.1625" lon="5.97441">
        <ele>2554</ele>
        <time>2020-08-11T09:39:32Z</time>
      </trkpt>
      <trkpt lat="45.16251" lon="5.97441">
        <ele>2554</ele>
        <time>2020-08-11T09:39:33Z</time>
      </trkpt>
      <trkpt lat="45.16251" lon="5.97442">
        <ele>2554.2</ele>
        <time>2020-08-11T09:39:34Z</time>
      </trkpt>
      <trkpt lat="45.16251" lon="5.97442">
        <ele>2554.6</ele>
        <time>2020-08-11T09:39:35Z</time>
      </trkpt>
      <trkpt lat="45.16251" lon="5.97442">
        <ele>2554.8</ele>
        <time>2020-08-11T09:39:36Z</time>
      </trkpt>
      <trkpt lat="45.16252" lon="5.97442">
        <ele>2554.8</ele>
        <time>2020-08-11T09:39:37Z</time>
      </trkpt>
      <trkpt lat="45.16252" lon="5.97443">
        <ele>2555.2</ele>
        <time>2020-08-11T09:39:38Z</time>
      </trkpt>
      <trkpt lat="45.16252" lon="5.97443">
        <ele>2555.6</ele>
        <time>2020-08-11T09:39:39Z</time>
      </trkpt>
      <trkpt lat="45.16253" lon="5.97443">
        <ele>2555.8</ele>
        <time>2020-08-11T09:39:40Z</time>
      </trkpt>
      <trkpt lat="45.16253" lon="5.97444">
        <ele>2555.8</ele>
        <time>2020-08-11T09:39:41Z</time>
      </trkpt>
      <trkpt lat="45.16253" lon="5.97444">
        <ele>2555.6</ele>
        <time>2020-08-11T09:39:42Z</time>
      </trkpt>
      <trkpt lat="45.16254" lon="5.97444">
        <ele>2556</ele>
        <time>2020-08-11T09:39:43Z</time>
      </trkpt>
      <trkpt lat="45.16254" lon="5.97445">
        <ele>2556.2</ele>
        <time>2020-08-11T09:39:44Z</time>
      </trkpt>
      <trkpt lat="45.16254" lon="5.97445">
        <ele>2556.4</ele>
        <time>2020-08-11T09:39:45Z</time>
      </trkpt>
      <trkpt lat="45.16254" lon="5.97445">
        <ele>2556.4</ele>
        <time>2020-08-11T09:39:46Z</time>
      </trkpt>
      <trkpt lat="45.16254" lon="5.97444">
        <ele>2556.6</ele>
        <time>2020-08-11T09:39:47Z</time>
      </trkpt>
      <trkpt lat="45.16254" lon="5.97444">
        <ele>2556.6</ele>
        <time>2020-08-11T09:39:48Z</time>
      </trkpt>
      <trkpt lat="45.16254" lon="5.97444">
        <ele>2556.8</ele>
        <time>2020-08-11T09:39:49Z</time>
      </trkpt>
      <trkpt lat="45.16254" lon="5.97444">
        <ele>2556.4</ele>
        <time>2020-08-11T09:39:50Z</time>
      </trkpt>
      <trkpt lat="45.16254" lon="5.97443">
        <ele>2556.6</ele>
        <time>2020-08-11T09:39:51Z</time>
      </trkpt>
      <trkpt lat="45.16254" lon="5.97443">
        <ele>2556.6</ele>
        <time>2020-08-11T09:39:52Z</time>
      </trkpt>
      <trkpt lat="45.16254" lon="5.97443">
        <ele>2556.8</ele>
        <time>2020-08-11T09:39:53Z</time>
      </trkpt>
      <trkpt lat="45.16254" lon="5.97443">
        <ele>2556.6</ele>
        <time>2020-08-11T09:39:54Z</time>
      </trkpt>
      <trkpt lat="45.16254" lon="5.97442">
        <ele>2556.8</ele>
        <time>2020-08-11T09:39:55Z</time>
      </trkpt>
      <trkpt lat="45.16254" lon="5.97442">
        <ele>2556.6</ele>
        <time>2020-08-11T09:39:56Z</time>
      </trkpt>
      <trkpt lat="45.16254" lon="5.97442">
        <ele>2556.4</ele>
        <time>2020-08-11T09:39:57Z</time>
      </trkpt>
      <trkpt lat="45.16254" lon="5.97442">
        <ele>2556.6</ele>
        <time>2020-08-11T09:39:58Z</time>
      </trkpt>
      <trkpt lat="45.16254" lon="5.97441">
        <ele>2556.8</ele>
        <time>2020-08-11T09:39:59Z</time>
      </trkpt>
      <trkpt lat="45.16254" lon="5.97441">
        <ele>2556.6</ele>
        <time>2020-08-11T09:40:01Z</time>
      </trkpt>
      <trkpt lat="45.16254" lon="5.97441">
        <ele>2556.6</ele>
        <time>2020-08-11T09:40:02Z</time>
      </trkpt>
      <trkpt lat="45.16254" lon="5.97441">
        <ele>2556.8</ele>
        <time>2020-08-11T09:40:03Z</time>
      </trkpt>
      <trkpt lat="45.16254" lon="5.9744">
        <ele>2556.8</ele>
        <time>2020-08-11T09:40:04Z</time>
      </trkpt>
      <trkpt lat="45.16254" lon="5.9744">
        <ele>2556.8</ele>
        <time>2020-08-11T09:40:05Z</time>
      </trkpt>
      <trkpt lat="45.16254" lon="5.9744">
        <ele>2557</ele>
        <time>2020-08-11T09:40:06Z</time>
      </trkpt>
      <trkpt lat="45.16254" lon="5.97439">
        <ele>2557.4</ele>
        <time>2020-08-11T09:40:07Z</time>
      </trkpt>
      <trkpt lat="45.16254" lon="5.97439">
        <ele>2557.4</ele>
        <time>2020-08-11T09:40:09Z</time>
      </trkpt>
      <trkpt lat="45.16254" lon="5.97439">
        <ele>2557.6</ele>
        <time>2020-08-11T09:40:10Z</time>
      </trkpt>
      <trkpt lat="45.16254" lon="5.97439">
        <ele>2558</ele>
        <time>2020-08-11T09:40:11Z</time>
      </trkpt>
      <trkpt lat="45.16254" lon="5.97438">
        <ele>2558.4</ele>
        <time>2020-08-11T09:40:12Z</time>
      </trkpt>
      <trkpt lat="45.16254" lon="5.97438">
        <ele>2558.6</ele>
        <time>2020-08-11T09:40:13Z</time>
      </trkpt>
      <trkpt lat="45.16254" lon="5.97438">
        <ele>2558.6</ele>
        <time>2020-08-11T09:40:14Z</time>
      </trkpt>
      <trkpt lat="45.16254" lon="5.97438">
        <ele>2559</ele>
        <time>2020-08-11T09:40:15Z</time>
      </trkpt>
      <trkpt lat="45.16254" lon="5.97437">
        <ele>2559.2</ele>
        <time>2020-08-11T09:40:16Z</time>
      </trkpt>
      <trkpt lat="45.16254" lon="5.97437">
        <ele>2559.6</ele>
        <time>2020-08-11T09:40:17Z</time>
      </trkpt>
      <trkpt lat="45.16254" lon="5.97437">
        <ele>2559.8</ele>
        <time>2020-08-11T09:40:18Z</time>
      </trkpt>
      <trkpt lat="45.16254" lon="5.97437">
        <ele>2560.2</ele>
        <time>2020-08-11T09:40:19Z</time>
      </trkpt>
      <trkpt lat="45.16254" lon="5.97436">
        <ele>2560.6</ele>
        <time>2020-08-11T09:40:20Z</time>
      </trkpt>
      <trkpt lat="45.16254" lon="5.97436">
        <ele>2561.2</ele>
        <time>2020-08-11T09:40:21Z</time>
      </trkpt>
      <trkpt lat="45.16254" lon="5.97436">
        <ele>2561</ele>
        <time>2020-08-11T09:40:22Z</time>
      </trkpt>
      <trkpt lat="45.16254" lon="5.97436">
        <ele>2561.4</ele>
        <time>2020-08-11T09:40:23Z</time>
      </trkpt>
      <trkpt lat="45.16254" lon="5.97435">
        <ele>2561.6</ele>
        <time>2020-08-11T09:40:24Z</time>
      </trkpt>
      <trkpt lat="45.16254" lon="5.97435">
        <ele>2561.8</ele>
        <time>2020-08-11T09:40:25Z</time>
      </trkpt>
      <trkpt lat="45.16254" lon="5.97435">
        <ele>2561.8</ele>
        <time>2020-08-11T09:40:26Z</time>
      </trkpt>
      <trkpt lat="45.16255" lon="5.97435">
        <ele>2562</ele>
        <time>2020-08-11T09:40:27Z</time>
      </trkpt>
      <trkpt lat="45.16255" lon="5.97435">
        <ele>2562.2</ele>
        <time>2020-08-11T09:40:28Z</time>
      </trkpt>
      <trkpt lat="45.16256" lon="5.97436">
        <ele>2562.2</ele>
        <time>2020-08-11T09:40:29Z</time>
      </trkpt>
      <trkpt lat="45.16256" lon="5.97436">
        <ele>2562.6</ele>
        <time>2020-08-11T09:40:30Z</time>
      </trkpt>
      <trkpt lat="45.16256" lon="5.97436">
        <ele>2563</ele>
        <time>2020-08-11T09:40:31Z</time>
      </trkpt>
      <trkpt lat="45.16257" lon="5.97436">
        <ele>2562.8</ele>
        <time>2020-08-11T09:40:32Z</time>
      </trkpt>
      <trkpt lat="45.16257" lon="5.97436">
        <ele>2563.2</ele>
        <time>2020-08-11T09:40:33Z</time>
      </trkpt>
      <trkpt lat="45.16258" lon="5.97436">
        <ele>2563.4</ele>
        <time>2020-08-11T09:40:34Z</time>
      </trkpt>
      <trkpt lat="45.16258" lon="5.97436">
        <ele>2563.6</ele>
        <time>2020-08-11T09:40:35Z</time>
      </trkpt>
      <trkpt lat="45.16258" lon="5.97436">
        <ele>2563.8</ele>
        <time>2020-08-11T09:40:36Z</time>
      </trkpt>
      <trkpt lat="45.16259" lon="5.97437">
        <ele>2563.8</ele>
        <time>2020-08-11T09:40:37Z</time>
      </trkpt>
      <trkpt lat="45.16259" lon="5.97437">
        <ele>2564</ele>
        <time>2020-08-11T09:40:38Z</time>
      </trkpt>
      <trkpt lat="45.1626" lon="5.97437">
        <ele>2564.2</ele>
        <time>2020-08-11T09:40:39Z</time>
      </trkpt>
      <trkpt lat="45.1626" lon="5.97437">
        <ele>2564.2</ele>
        <time>2020-08-11T09:40:40Z</time>
      </trkpt>
      <trkpt lat="45.16261" lon="5.97437">
        <ele>2564.4</ele>
        <time>2020-08-11T09:40:41Z</time>
      </trkpt>
      <trkpt lat="45.16261" lon="5.97437">
        <ele>2564.6</ele>
        <time>2020-08-11T09:40:42Z</time>
      </trkpt>
      <trkpt lat="45.16261" lon="5.97437">
        <ele>2564.8</ele>
        <time>2020-08-11T09:40:43Z</time>
      </trkpt>
      <trkpt lat="45.16262" lon="5.97437">
        <ele>2565</ele>
        <time>2020-08-11T09:40:44Z</time>
      </trkpt>
      <trkpt lat="45.16262" lon="5.97437">
        <ele>2565.2</ele>
        <time>2020-08-11T09:40:45Z</time>
      </trkpt>
      <trkpt lat="45.16263" lon="5.97438">
        <ele>2565.2</ele>
        <time>2020-08-11T09:40:46Z</time>
      </trkpt>
      <trkpt lat="45.16263" lon="5.97438">
        <ele>2565.4</ele>
        <time>2020-08-11T09:40:47Z</time>
      </trkpt>
      <trkpt lat="45.16263" lon="5.97438">
        <ele>2565.4</ele>
        <time>2020-08-11T09:40:48Z</time>
      </trkpt>
      <trkpt lat="45.16264" lon="5.97439">
        <ele>2565.6</ele>
        <time>2020-08-11T09:40:49Z</time>
      </trkpt>
      <trkpt lat="45.16264" lon="5.9744">
        <ele>2565.6</ele>
        <time>2020-08-11T09:40:50Z</time>
      </trkpt>
      <trkpt lat="45.16265" lon="5.97441">
        <ele>2565.8</ele>
        <time>2020-08-11T09:40:51Z</time>
      </trkpt>
      <trkpt lat="45.16265" lon="5.97441">
        <ele>2566</ele>
        <time>2020-08-11T09:40:52Z</time>
      </trkpt>
      <trkpt lat="45.16265" lon="5.97442">
        <ele>2566.4</ele>
        <time>2020-08-11T09:40:53Z</time>
      </trkpt>
      <trkpt lat="45.16266" lon="5.97443">
        <ele>2566.6</ele>
        <time>2020-08-11T09:40:54Z</time>
      </trkpt>
      <trkpt lat="45.16266" lon="5.97444">
        <ele>2566.8</ele>
        <time>2020-08-11T09:40:55Z</time>
      </trkpt>
      <trkpt lat="45.16266" lon="5.97444">
        <ele>2566.6</ele>
        <time>2020-08-11T09:40:56Z</time>
      </trkpt>
      <trkpt lat="45.16266" lon="5.97444">
        <ele>2566.8</ele>
        <time>2020-08-11T09:40:57Z</time>
      </trkpt>
      <trkpt lat="45.16266" lon="5.97444">
        <ele>2567.2</ele>
        <time>2020-08-11T09:40:58Z</time>
      </trkpt>
      <trkpt lat="45.16266" lon="5.97444">
        <ele>2567</ele>
        <time>2020-08-11T09:40:59Z</time>
      </trkpt>
      <trkpt lat="45.16266" lon="5.97444">
        <ele>2567</ele>
        <time>2020-08-11T09:41:00Z</time>
      </trkpt>
      <trkpt lat="45.16266" lon="5.97444">
        <ele>2567.2</ele>
        <time>2020-08-11T09:41:01Z</time>
      </trkpt>
      <trkpt lat="45.16268" lon="5.9744">
        <ele>2567.2</ele>
        <time>2020-08-11T09:41:02Z</time>
      </trkpt>
      <trkpt lat="45.16268" lon="5.9744">
        <ele>2567.4</ele>
        <time>2020-08-11T09:41:03Z</time>
      </trkpt>
      <trkpt lat="45.16268" lon="5.97437">
        <ele>2567.6</ele>
        <time>2020-08-11T09:41:04Z</time>
      </trkpt>
      <trkpt lat="45.16268" lon="5.97437">
        <ele>2567.8</ele>
        <time>2020-08-11T09:41:05Z</time>
      </trkpt>
      <trkpt lat="45.16268" lon="5.97437">
        <ele>2568</ele>
        <time>2020-08-11T09:41:06Z</time>
      </trkpt>
      <trkpt lat="45.16268" lon="5.97437">
        <ele>2568.4</ele>
        <time>2020-08-11T09:41:07Z</time>
      </trkpt>
      <trkpt lat="45.16268" lon="5.97437">
        <ele>2568.6</ele>
        <time>2020-08-11T09:41:08Z</time>
      </trkpt>
      <trkpt lat="45.16266" lon="5.97435">
        <ele>2568.6</ele>
        <time>2020-08-11T09:41:09Z</time>
      </trkpt>
      <trkpt lat="45.16266" lon="5.97435">
        <ele>2568.6</ele>
        <time>2020-08-11T09:41:10Z</time>
      </trkpt>
      <trkpt lat="45.16266" lon="5.97435">
        <ele>2568.8</ele>
        <time>2020-08-11T09:41:11Z</time>
      </trkpt>
      <trkpt lat="45.16266" lon="5.97435">
        <ele>2568.8</ele>
        <time>2020-08-11T09:41:12Z</time>
      </trkpt>
      <trkpt lat="45.16266" lon="5.97435">
        <ele>2568.8</ele>
        <time>2020-08-11T09:41:13Z</time>
      </trkpt>
      <trkpt lat="45.16265" lon="5.97433">
        <ele>2568.6</ele>
        <time>2020-08-11T09:41:14Z</time>
      </trkpt>
      <trkpt lat="45.16265" lon="5.97433">
        <ele>2568.6</ele>
        <time>2020-08-11T09:41:15Z</time>
      </trkpt>
      <trkpt lat="45.16265" lon="5.97433">
        <ele>2568.4</ele>
        <time>2020-08-11T09:41:16Z</time>
      </trkpt>
      <trkpt lat="45.16265" lon="5.97433">
        <ele>2568.6</ele>
        <time>2020-08-11T09:41:17Z</time>
      </trkpt>
      <trkpt lat="45.16265" lon="5.97433">
        <ele>2568.6</ele>
        <time>2020-08-11T09:41:18Z</time>
      </trkpt>
      <trkpt lat="45.16265" lon="5.97433">
        <ele>2568.6</ele>
        <time>2020-08-11T09:41:19Z</time>
      </trkpt>
      <trkpt lat="45.16265" lon="5.97433">
        <ele>2568.6</ele>
        <time>2020-08-11T09:41:20Z</time>
      </trkpt>
      <trkpt lat="45.16265" lon="5.97433">
        <ele>2568.6</ele>
        <time>2020-08-11T09:41:21Z</time>
      </trkpt>
      <trkpt lat="45.16265" lon="5.97433">
        <ele>2568.6</ele>
        <time>2020-08-11T09:41:22Z</time>
      </trkpt>
      <trkpt lat="45.16265" lon="5.97433">
        <ele>2568.6</ele>
        <time>2020-08-11T09:41:23Z</time>
      </trkpt>
      <trkpt lat="45.16265" lon="5.97433">
        <ele>2568.6</ele>
        <time>2020-08-11T09:41:24Z</time>
      </trkpt>
      <trkpt lat="45.16265" lon="5.97433">
        <ele>2568.6</ele>
        <time>2020-08-11T09:41:25Z</time>
      </trkpt>
      <trkpt lat="45.16265" lon="5.97433">
        <ele>2568.6</ele>
        <time>2020-08-11T09:41:26Z</time>
      </trkpt>
      <trkpt lat="45.16265" lon="5.97433">
        <ele>2568.4</ele>
        <time>2020-08-11T09:41:27Z</time>
      </trkpt>
      <trkpt lat="45.16265" lon="5.97433">
        <ele>2568.4</ele>
        <time>2020-08-11T09:41:28Z</time>
      </trkpt>
      <trkpt lat="45.16264" lon="5.97432">
        <ele>2568.4</ele>
        <time>2020-08-11T09:41:29Z</time>
      </trkpt>
      <trkpt lat="45.16264" lon="5.97432">
        <ele>2568.6</ele>
        <time>2020-08-11T09:41:30Z</time>
      </trkpt>
      <trkpt lat="45.16264" lon="5.97432">
        <ele>2568.4</ele>
        <time>2020-08-11T09:41:31Z</time>
      </trkpt>
      <trkpt lat="45.16264" lon="5.97432">
        <ele>2568.4</ele>
        <time>2020-08-11T09:41:32Z</time>
      </trkpt>
      <trkpt lat="45.16264" lon="5.97432">
        <ele>2568.4</ele>
        <time>2020-08-11T09:41:33Z</time>
      </trkpt>
      <trkpt lat="45.16264" lon="5.97432">
        <ele>2568.8</ele>
        <time>2020-08-11T09:41:34Z</time>
      </trkpt>
      <trkpt lat="45.16261" lon="5.9743">
        <ele>2568.6</ele>
        <time>2020-08-11T09:41:35Z</time>
      </trkpt>
      <trkpt lat="45.16261" lon="5.9743">
        <ele>2569</ele>
        <time>2020-08-11T09:41:36Z</time>
      </trkpt>
      <trkpt lat="45.16261" lon="5.9743">
        <ele>2569.2</ele>
        <time>2020-08-11T09:41:37Z</time>
      </trkpt>
      <trkpt lat="45.16261" lon="5.9743">
        <ele>2569</ele>
        <time>2020-08-11T09:41:38Z</time>
      </trkpt>
      <trkpt lat="45.16261" lon="5.97428">
        <ele>2569</ele>
        <time>2020-08-11T09:41:39Z</time>
      </trkpt>
      <trkpt lat="45.16261" lon="5.97428">
        <ele>2569.2</ele>
        <time>2020-08-11T09:41:40Z</time>
      </trkpt>
      <trkpt lat="45.16261" lon="5.97428">
        <ele>2569.4</ele>
        <time>2020-08-11T09:41:41Z</time>
      </trkpt>
      <trkpt lat="45.16261" lon="5.97428">
        <ele>2569.4</ele>
        <time>2020-08-11T09:41:42Z</time>
      </trkpt>
      <trkpt lat="45.1626" lon="5.97425">
        <ele>2569.4</ele>
        <time>2020-08-11T09:41:43Z</time>
      </trkpt>
      <trkpt lat="45.1626" lon="5.97425">
        <ele>2569.6</ele>
        <time>2020-08-11T09:41:44Z</time>
      </trkpt>
      <trkpt lat="45.16259" lon="5.97423">
        <ele>2569.8</ele>
        <time>2020-08-11T09:41:45Z</time>
      </trkpt>
      <trkpt lat="45.16259" lon="5.97423">
        <ele>2569.8</ele>
        <time>2020-08-11T09:41:46Z</time>
      </trkpt>
      <trkpt lat="45.16259" lon="5.97419">
        <ele>2570</ele>
        <time>2020-08-11T09:41:47Z</time>
      </trkpt>
      <trkpt lat="45.16259" lon="5.97419">
        <ele>2570.2</ele>
        <time>2020-08-11T09:41:48Z</time>
      </trkpt>
      <trkpt lat="45.16259" lon="5.97419">
        <ele>2570.4</ele>
        <time>2020-08-11T09:41:49Z</time>
      </trkpt>
      <trkpt lat="45.16259" lon="5.97416">
        <ele>2570.4</ele>
        <time>2020-08-11T09:41:50Z</time>
      </trkpt>
      <trkpt lat="45.16259" lon="5.97416">
        <ele>2570.4</ele>
        <time>2020-08-11T09:41:51Z</time>
      </trkpt>
      <trkpt lat="45.16259" lon="5.97416">
        <ele>2570.4</ele>
        <time>2020-08-11T09:41:52Z</time>
      </trkpt>
      <trkpt lat="45.16259" lon="5.97416">
        <ele>2570.6</ele>
        <time>2020-08-11T09:41:53Z</time>
      </trkpt>
      <trkpt lat="45.1626" lon="5.97413">
        <ele>2570.6</ele>
        <time>2020-08-11T09:41:54Z</time>
      </trkpt>
      <trkpt lat="45.1626" lon="5.97413">
        <ele>2570.4</ele>
        <time>2020-08-11T09:41:55Z</time>
      </trkpt>
      <trkpt lat="45.16261" lon="5.97409">
        <ele>2570.6</ele>
        <time>2020-08-11T09:41:56Z</time>
      </trkpt>
      <trkpt lat="45.16261" lon="5.97409">
        <ele>2570.8</ele>
        <time>2020-08-11T09:41:57Z</time>
      </trkpt>
      <trkpt lat="45.16261" lon="5.97409">
        <ele>2571</ele>
        <time>2020-08-11T09:41:58Z</time>
      </trkpt>
      <trkpt lat="45.16261" lon="5.97409">
        <ele>2571</ele>
        <time>2020-08-11T09:41:59Z</time>
      </trkpt>
      <trkpt lat="45.1626" lon="5.97405">
        <ele>2571.2</ele>
        <time>2020-08-11T09:42:00Z</time>
      </trkpt>
      <trkpt lat="45.1626" lon="5.97405">
        <ele>2571.2</ele>
        <time>2020-08-11T09:42:01Z</time>
      </trkpt>
      <trkpt lat="45.1626" lon="5.97405">
        <ele>2571.2</ele>
        <time>2020-08-11T09:42:02Z</time>
      </trkpt>
      <trkpt lat="45.16258" lon="5.97402">
        <ele>2571.6</ele>
        <time>2020-08-11T09:42:03Z</time>
      </trkpt>
      <trkpt lat="45.16258" lon="5.97402">
        <ele>2571.8</ele>
        <time>2020-08-11T09:42:04Z</time>
      </trkpt>
      <trkpt lat="45.16258" lon="5.97402">
        <ele>2571.6</ele>
        <time>2020-08-11T09:42:05Z</time>
      </trkpt>
      <trkpt lat="45.16257" lon="5.974">
        <ele>2571.8</ele>
        <time>2020-08-11T09:42:06Z</time>
      </trkpt>
      <trkpt lat="45.16257" lon="5.974">
        <ele>2572</ele>
        <time>2020-08-11T09:42:07Z</time>
      </trkpt>
      <trkpt lat="45.16257" lon="5.974">
        <ele>2572</ele>
        <time>2020-08-11T09:42:08Z</time>
      </trkpt>
      <trkpt lat="45.16257" lon="5.974">
        <ele>2571.8</ele>
        <time>2020-08-11T09:42:09Z</time>
      </trkpt>
      <trkpt lat="45.16256" lon="5.97396">
        <ele>2571.8</ele>
        <time>2020-08-11T09:42:10Z</time>
      </trkpt>
      <trkpt lat="45.16256" lon="5.97396">
        <ele>2571.8</ele>
        <time>2020-08-11T09:42:11Z</time>
      </trkpt>
      <trkpt lat="45.16256" lon="5.97396">
        <ele>2572</ele>
        <time>2020-08-11T09:42:12Z</time>
      </trkpt>
      <trkpt lat="45.16256" lon="5.97394">
        <ele>2571.8</ele>
        <time>2020-08-11T09:42:13Z</time>
      </trkpt>
      <trkpt lat="45.16256" lon="5.97394">
        <ele>2572</ele>
        <time>2020-08-11T09:42:14Z</time>
      </trkpt>
      <trkpt lat="45.16256" lon="5.97394">
        <ele>2572.2</ele>
        <time>2020-08-11T09:42:15Z</time>
      </trkpt>
      <trkpt lat="45.16256" lon="5.97394">
        <ele>2572</ele>
        <time>2020-08-11T09:42:16Z</time>
      </trkpt>
      <trkpt lat="45.16256" lon="5.97389">
        <ele>2572.2</ele>
        <time>2020-08-11T09:42:17Z</time>
      </trkpt>
      <trkpt lat="45.16256" lon="5.97389">
        <ele>2572.2</ele>
        <time>2020-08-11T09:42:18Z</time>
      </trkpt>
      <trkpt lat="45.16256" lon="5.97386">
        <ele>2572.2</ele>
        <time>2020-08-11T09:42:19Z</time>
      </trkpt>
      <trkpt lat="45.16256" lon="5.97383">
        <ele>2572.2</ele>
        <time>2020-08-11T09:42:20Z</time>
      </trkpt>
      <trkpt lat="45.16256" lon="5.97383">
        <ele>2572.6</ele>
        <time>2020-08-11T09:42:21Z</time>
      </trkpt>
      <trkpt lat="45.16256" lon="5.97383">
        <ele>2572.6</ele>
        <time>2020-08-11T09:42:22Z</time>
      </trkpt>
      <trkpt lat="45.16255" lon="5.97381">
        <ele>2572.8</ele>
        <time>2020-08-11T09:42:23Z</time>
      </trkpt>
      <trkpt lat="45.16255" lon="5.97381">
        <ele>2573.2</ele>
        <time>2020-08-11T09:42:24Z</time>
      </trkpt>
      <trkpt lat="45.16255" lon="5.97381">
        <ele>2573.2</ele>
        <time>2020-08-11T09:42:25Z</time>
      </trkpt>
      <trkpt lat="45.16255" lon="5.97381">
        <ele>2573.6</ele>
        <time>2020-08-11T09:42:26Z</time>
      </trkpt>
      <trkpt lat="45.16255" lon="5.97381">
        <ele>2574</ele>
        <time>2020-08-11T09:42:27Z</time>
      </trkpt>
      <trkpt lat="45.16254" lon="5.97378">
        <ele>2574.4</ele>
        <time>2020-08-11T09:42:28Z</time>
      </trkpt>
      <trkpt lat="45.16254" lon="5.97378">
        <ele>2574.6</ele>
        <time>2020-08-11T09:42:29Z</time>
      </trkpt>
      <trkpt lat="45.16252" lon="5.97377">
        <ele>2574.8</ele>
        <time>2020-08-11T09:42:30Z</time>
      </trkpt>
      <trkpt lat="45.16252" lon="5.97377">
        <ele>2574.8</ele>
        <time>2020-08-11T09:42:31Z</time>
      </trkpt>
      <trkpt lat="45.16251" lon="5.97375">
        <ele>2575</ele>
        <time>2020-08-11T09:42:32Z</time>
      </trkpt>
      <trkpt lat="45.16251" lon="5.97375">
        <ele>2575.2</ele>
        <time>2020-08-11T09:42:33Z</time>
      </trkpt>
      <trkpt lat="45.16251" lon="5.97375">
        <ele>2575.2</ele>
        <time>2020-08-11T09:42:34Z</time>
      </trkpt>
      <trkpt lat="45.16251" lon="5.97374">
        <ele>2575.4</ele>
        <time>2020-08-11T09:42:35Z</time>
      </trkpt>
      <trkpt lat="45.1625" lon="5.97372">
        <ele>2575.6</ele>
        <time>2020-08-11T09:42:36Z</time>
      </trkpt>
      <trkpt lat="45.1625" lon="5.97371">
        <ele>2575.8</ele>
        <time>2020-08-11T09:42:37Z</time>
      </trkpt>
      <trkpt lat="45.1625" lon="5.9737">
        <ele>2575.8</ele>
        <time>2020-08-11T09:42:38Z</time>
      </trkpt>
      <trkpt lat="45.1625" lon="5.97369">
        <ele>2575.8</ele>
        <time>2020-08-11T09:42:39Z</time>
      </trkpt>
      <trkpt lat="45.1625" lon="5.97368">
        <ele>2576.2</ele>
        <time>2020-08-11T09:42:40Z</time>
      </trkpt>
      <trkpt lat="45.16249" lon="5.97367">
        <ele>2576.4</ele>
        <time>2020-08-11T09:42:41Z</time>
      </trkpt>
      <trkpt lat="45.16249" lon="5.97366">
        <ele>2576.8</ele>
        <time>2020-08-11T09:42:42Z</time>
      </trkpt>
      <trkpt lat="45.16249" lon="5.97365">
        <ele>2577</ele>
        <time>2020-08-11T09:42:43Z</time>
      </trkpt>
      <trkpt lat="45.16249" lon="5.97363">
        <ele>2577.2</ele>
        <time>2020-08-11T09:42:44Z</time>
      </trkpt>
      <trkpt lat="45.16248" lon="5.97362">
        <ele>2577.6</ele>
        <time>2020-08-11T09:42:45Z</time>
      </trkpt>
      <trkpt lat="45.16248" lon="5.97362">
        <ele>2578</ele>
        <time>2020-08-11T09:42:46Z</time>
      </trkpt>
      <trkpt lat="45.16248" lon="5.97362">
        <ele>2578.2</ele>
        <time>2020-08-11T09:42:47Z</time>
      </trkpt>
      <trkpt lat="45.16248" lon="5.97361">
        <ele>2578.4</ele>
        <time>2020-08-11T09:42:48Z</time>
      </trkpt>
      <trkpt lat="45.16247" lon="5.97361">
        <ele>2578.4</ele>
        <time>2020-08-11T09:42:49Z</time>
      </trkpt>
      <trkpt lat="45.16247" lon="5.97361">
        <ele>2578.8</ele>
        <time>2020-08-11T09:42:50Z</time>
      </trkpt>
      <trkpt lat="45.16247" lon="5.9736">
        <ele>2578.8</ele>
        <time>2020-08-11T09:42:51Z</time>
      </trkpt>
      <trkpt lat="45.16246" lon="5.9736">
        <ele>2579</ele>
        <time>2020-08-11T09:42:52Z</time>
      </trkpt>
      <trkpt lat="45.16246" lon="5.9736">
        <ele>2579</ele>
        <time>2020-08-11T09:42:53Z</time>
      </trkpt>
      <trkpt lat="45.16246" lon="5.97359">
        <ele>2579.6</ele>
        <time>2020-08-11T09:42:54Z</time>
      </trkpt>
      <trkpt lat="45.16246" lon="5.97359">
        <ele>2579.8</ele>
        <time>2020-08-11T09:42:55Z</time>
      </trkpt>
      <trkpt lat="45.16245" lon="5.97359">
        <ele>2580</ele>
        <time>2020-08-11T09:42:56Z</time>
      </trkpt>
      <trkpt lat="45.16245" lon="5.97358">
        <ele>2580.2</ele>
        <time>2020-08-11T09:42:57Z</time>
      </trkpt>
      <trkpt lat="45.16245" lon="5.97358">
        <ele>2580.2</ele>
        <time>2020-08-11T09:42:58Z</time>
      </trkpt>
      <trkpt lat="45.16245" lon="5.97358">
        <ele>2580.2</ele>
        <time>2020-08-11T09:42:59Z</time>
      </trkpt>
      <trkpt lat="45.16244" lon="5.97357">
        <ele>2580.2</ele>
        <time>2020-08-11T09:43:00Z</time>
      </trkpt>
      <trkpt lat="45.16244" lon="5.97357">
        <ele>2580.2</ele>
        <time>2020-08-11T09:43:01Z</time>
      </trkpt>
      <trkpt lat="45.16244" lon="5.97357">
        <ele>2580.2</ele>
        <time>2020-08-11T09:43:02Z</time>
      </trkpt>
      <trkpt lat="45.16243" lon="5.97356">
        <ele>2580.6</ele>
        <time>2020-08-11T09:43:03Z</time>
      </trkpt>
      <trkpt lat="45.16243" lon="5.97356">
        <ele>2581</ele>
        <time>2020-08-11T09:43:04Z</time>
      </trkpt>
      <trkpt lat="45.16243" lon="5.97356">
        <ele>2581</ele>
        <time>2020-08-11T09:43:05Z</time>
      </trkpt>
      <trkpt lat="45.16243" lon="5.97355">
        <ele>2581</ele>
        <time>2020-08-11T09:43:06Z</time>
      </trkpt>
      <trkpt lat="45.16242" lon="5.97355">
        <ele>2581.2</ele>
        <time>2020-08-11T09:43:07Z</time>
      </trkpt>
      <trkpt lat="45.16242" lon="5.97355">
        <ele>2581</ele>
        <time>2020-08-11T09:43:08Z</time>
      </trkpt>
      <trkpt lat="45.16242" lon="5.97354">
        <ele>2580.8</ele>
        <time>2020-08-11T09:43:09Z</time>
      </trkpt>
      <trkpt lat="45.16242" lon="5.97354">
        <ele>2580.8</ele>
        <time>2020-08-11T09:43:10Z</time>
      </trkpt>
      <trkpt lat="45.16241" lon="5.97354">
        <ele>2580.6</ele>
        <time>2020-08-11T09:43:11Z</time>
      </trkpt>
      <trkpt lat="45.16241" lon="5.97353">
        <ele>2581</ele>
        <time>2020-08-11T09:43:12Z</time>
      </trkpt>
      <trkpt lat="45.16241" lon="5.97353">
        <ele>2581</ele>
        <time>2020-08-11T09:43:13Z</time>
      </trkpt>
      <trkpt lat="45.1624" lon="5.97353">
        <ele>2581.2</ele>
        <time>2020-08-11T09:43:14Z</time>
      </trkpt>
      <trkpt lat="45.1624" lon="5.97352">
        <ele>2581.2</ele>
        <time>2020-08-11T09:43:15Z</time>
      </trkpt>
      <trkpt lat="45.1624" lon="5.97352">
        <ele>2581.4</ele>
        <time>2020-08-11T09:43:16Z</time>
      </trkpt>
      <trkpt lat="45.16239" lon="5.97352">
        <ele>2581.6</ele>
        <time>2020-08-11T09:43:17Z</time>
      </trkpt>
      <trkpt lat="45.16239" lon="5.97351">
        <ele>2581.8</ele>
        <time>2020-08-11T09:43:18Z</time>
      </trkpt>
      <trkpt lat="45.16239" lon="5.97351">
        <ele>2582</ele>
        <time>2020-08-11T09:43:19Z</time>
      </trkpt>
      <trkpt lat="45.16239" lon="5.97351">
        <ele>2582.2</ele>
        <time>2020-08-11T09:43:20Z</time>
      </trkpt>
      <trkpt lat="45.16238" lon="5.9735">
        <ele>2582.4</ele>
        <time>2020-08-11T09:43:21Z</time>
      </trkpt>
      <trkpt lat="45.16238" lon="5.9735">
        <ele>2582.8</ele>
        <time>2020-08-11T09:43:22Z</time>
      </trkpt>
      <trkpt lat="45.16238" lon="5.9735">
        <ele>2583</ele>
        <time>2020-08-11T09:43:23Z</time>
      </trkpt>
      <trkpt lat="45.16237" lon="5.97349">
        <ele>2583.2</ele>
        <time>2020-08-11T09:43:24Z</time>
      </trkpt>
      <trkpt lat="45.16237" lon="5.97349">
        <ele>2583.4</ele>
        <time>2020-08-11T09:43:25Z</time>
      </trkpt>
      <trkpt lat="45.16237" lon="5.97349">
        <ele>2583.6</ele>
        <time>2020-08-11T09:43:26Z</time>
      </trkpt>
      <trkpt lat="45.16236" lon="5.97348">
        <ele>2583.8</ele>
        <time>2020-08-11T09:43:27Z</time>
      </trkpt>
      <trkpt lat="45.16236" lon="5.97348">
        <ele>2584.2</ele>
        <time>2020-08-11T09:43:28Z</time>
      </trkpt>
      <trkpt lat="45.16236" lon="5.97348">
        <ele>2584.4</ele>
        <time>2020-08-11T09:43:29Z</time>
      </trkpt>
      <trkpt lat="45.16235" lon="5.97347">
        <ele>2584.4</ele>
        <time>2020-08-11T09:43:30Z</time>
      </trkpt>
      <trkpt lat="45.16235" lon="5.97347">
        <ele>2584.6</ele>
        <time>2020-08-11T09:43:31Z</time>
      </trkpt>
      <trkpt lat="45.16235" lon="5.97347">
        <ele>2584.8</ele>
        <time>2020-08-11T09:43:32Z</time>
      </trkpt>
      <trkpt lat="45.16234" lon="5.97346">
        <ele>2585</ele>
        <time>2020-08-11T09:43:33Z</time>
      </trkpt>
      <trkpt lat="45.16234" lon="5.97346">
        <ele>2585.2</ele>
        <time>2020-08-11T09:43:34Z</time>
      </trkpt>
      <trkpt lat="45.16234" lon="5.97346">
        <ele>2585.4</ele>
        <time>2020-08-11T09:43:35Z</time>
      </trkpt>
      <trkpt lat="45.16234" lon="5.97345">
        <ele>2585.4</ele>
        <time>2020-08-11T09:43:36Z</time>
      </trkpt>
      <trkpt lat="45.16234" lon="5.97345">
        <ele>2585.8</ele>
        <time>2020-08-11T09:43:37Z</time>
      </trkpt>
      <trkpt lat="45.16235" lon="5.97345">
        <ele>2586</ele>
        <time>2020-08-11T09:43:38Z</time>
      </trkpt>
      <trkpt lat="45.16235" lon="5.97344">
        <ele>2586.2</ele>
        <time>2020-08-11T09:43:39Z</time>
      </trkpt>
      <trkpt lat="45.16235" lon="5.97344">
        <ele>2586.4</ele>
        <time>2020-08-11T09:43:40Z</time>
      </trkpt>
      <trkpt lat="45.16236" lon="5.97344">
        <ele>2586.4</ele>
        <time>2020-08-11T09:43:41Z</time>
      </trkpt>
      <trkpt lat="45.16236" lon="5.97343">
        <ele>2586.6</ele>
        <time>2020-08-11T09:43:42Z</time>
      </trkpt>
      <trkpt lat="45.16236" lon="5.97343">
        <ele>2586.6</ele>
        <time>2020-08-11T09:43:43Z</time>
      </trkpt>
      <trkpt lat="45.16236" lon="5.97342">
        <ele>2587.2</ele>
        <time>2020-08-11T09:43:44Z</time>
      </trkpt>
      <trkpt lat="45.16237" lon="5.97342">
        <ele>2587.6</ele>
        <time>2020-08-11T09:43:45Z</time>
      </trkpt>
      <trkpt lat="45.16237" lon="5.97342">
        <ele>2588</ele>
        <time>2020-08-11T09:43:46Z</time>
      </trkpt>
      <trkpt lat="45.16237" lon="5.97341">
        <ele>2587.8</ele>
        <time>2020-08-11T09:43:47Z</time>
      </trkpt>
      <trkpt lat="45.16238" lon="5.97341">
        <ele>2588</ele>
        <time>2020-08-11T09:43:48Z</time>
      </trkpt>
      <trkpt lat="45.16238" lon="5.97341">
        <ele>2588.4</ele>
        <time>2020-08-11T09:43:49Z</time>
      </trkpt>
      <trkpt lat="45.16238" lon="5.9734">
        <ele>2588.6</ele>
        <time>2020-08-11T09:43:50Z</time>
      </trkpt>
      <trkpt lat="45.16239" lon="5.9734">
        <ele>2588.8</ele>
        <time>2020-08-11T09:43:51Z</time>
      </trkpt>
      <trkpt lat="45.16239" lon="5.9734">
        <ele>2588.8</ele>
        <time>2020-08-11T09:43:52Z</time>
      </trkpt>
      <trkpt lat="45.16239" lon="5.97339">
        <ele>2589</ele>
        <time>2020-08-11T09:43:53Z</time>
      </trkpt>
      <trkpt lat="45.1624" lon="5.97339">
        <ele>2589.4</ele>
        <time>2020-08-11T09:43:54Z</time>
      </trkpt>
      <trkpt lat="45.1624" lon="5.97339">
        <ele>2589.4</ele>
        <time>2020-08-11T09:43:55Z</time>
      </trkpt>
      <trkpt lat="45.1624" lon="5.97338">
        <ele>2589.8</ele>
        <time>2020-08-11T09:43:56Z</time>
      </trkpt>
      <trkpt lat="45.1624" lon="5.97338">
        <ele>2590</ele>
        <time>2020-08-11T09:43:57Z</time>
      </trkpt>
      <trkpt lat="45.16241" lon="5.97337">
        <ele>2590.2</ele>
        <time>2020-08-11T09:43:58Z</time>
      </trkpt>
      <trkpt lat="45.16241" lon="5.97337">
        <ele>2590.2</ele>
        <time>2020-08-11T09:43:59Z</time>
      </trkpt>
      <trkpt lat="45.16241" lon="5.97337">
        <ele>2590.6</ele>
        <time>2020-08-11T09:44:00Z</time>
      </trkpt>
      <trkpt lat="45.16241" lon="5.97337">
        <ele>2590.6</ele>
        <time>2020-08-11T09:44:01Z</time>
      </trkpt>
      <trkpt lat="45.16241" lon="5.97337">
        <ele>2590.8</ele>
        <time>2020-08-11T09:44:02Z</time>
      </trkpt>
      <trkpt lat="45.16241" lon="5.97337">
        <ele>2590.8</ele>
        <time>2020-08-11T09:44:03Z</time>
      </trkpt>
      <trkpt lat="45.16241" lon="5.97337">
        <ele>2591.4</ele>
        <time>2020-08-11T09:44:04Z</time>
      </trkpt>
      <trkpt lat="45.16241" lon="5.97337">
        <ele>2591.6</ele>
        <time>2020-08-11T09:44:05Z</time>
      </trkpt>
      <trkpt lat="45.16241" lon="5.97337">
        <ele>2591.6</ele>
        <time>2020-08-11T09:44:06Z</time>
      </trkpt>
      <trkpt lat="45.16241" lon="5.97337">
        <ele>2591.8</ele>
        <time>2020-08-11T09:44:07Z</time>
      </trkpt>
      <trkpt lat="45.16241" lon="5.97337">
        <ele>2591.8</ele>
        <time>2020-08-11T09:44:08Z</time>
      </trkpt>
      <trkpt lat="45.16241" lon="5.97337">
        <ele>2592.2</ele>
        <time>2020-08-11T09:44:09Z</time>
      </trkpt>
      <trkpt lat="45.16241" lon="5.97337">
        <ele>2592.2</ele>
        <time>2020-08-11T09:44:10Z</time>
      </trkpt>
      <trkpt lat="45.16241" lon="5.97337">
        <ele>2592.4</ele>
        <time>2020-08-11T09:44:11Z</time>
      </trkpt>
      <trkpt lat="45.16241" lon="5.97337">
        <ele>2592.6</ele>
        <time>2020-08-11T09:44:12Z</time>
      </trkpt>
      <trkpt lat="45.16243" lon="5.97336">
        <ele>2592.8</ele>
        <time>2020-08-11T09:44:13Z</time>
      </trkpt>
      <trkpt lat="45.16243" lon="5.97336">
        <ele>2593.2</ele>
        <time>2020-08-11T09:44:14Z</time>
      </trkpt>
      <trkpt lat="45.16243" lon="5.97336">
        <ele>2593.2</ele>
        <time>2020-08-11T09:44:15Z</time>
      </trkpt>
      <trkpt lat="45.16244" lon="5.97336">
        <ele>2593.6</ele>
        <time>2020-08-11T09:44:16Z</time>
      </trkpt>
      <trkpt lat="45.16244" lon="5.97336">
        <ele>2594</ele>
        <time>2020-08-11T09:44:17Z</time>
      </trkpt>
      <trkpt lat="45.16245" lon="5.97335">
        <ele>2594.2</ele>
        <time>2020-08-11T09:44:18Z</time>
      </trkpt>
      <trkpt lat="45.16245" lon="5.97335">
        <ele>2594.4</ele>
        <time>2020-08-11T09:44:19Z</time>
      </trkpt>
      <trkpt lat="45.16246" lon="5.97335">
        <ele>2594.6</ele>
        <time>2020-08-11T09:44:20Z</time>
      </trkpt>
      <trkpt lat="45.16246" lon="5.97335">
        <ele>2594.6</ele>
        <time>2020-08-11T09:44:21Z</time>
      </trkpt>
      <trkpt lat="45.16246" lon="5.97335">
        <ele>2595</ele>
        <time>2020-08-11T09:44:22Z</time>
      </trkpt>
      <trkpt lat="45.16247" lon="5.97334">
        <ele>2595.2</ele>
        <time>2020-08-11T09:44:23Z</time>
      </trkpt>
      <trkpt lat="45.16247" lon="5.97334">
        <ele>2595.4</ele>
        <time>2020-08-11T09:44:24Z</time>
      </trkpt>
      <trkpt lat="45.16248" lon="5.97334">
        <ele>2595.8</ele>
        <time>2020-08-11T09:44:25Z</time>
      </trkpt>
      <trkpt lat="45.16248" lon="5.97334">
        <ele>2596</ele>
        <time>2020-08-11T09:44:26Z</time>
      </trkpt>
      <trkpt lat="45.16248" lon="5.97333">
        <ele>2596.2</ele>
        <time>2020-08-11T09:44:27Z</time>
      </trkpt>
      <trkpt lat="45.16249" lon="5.97333">
        <ele>2596.4</ele>
        <time>2020-08-11T09:44:28Z</time>
      </trkpt>
      <trkpt lat="45.16249" lon="5.97333">
        <ele>2596.4</ele>
        <time>2020-08-11T09:44:29Z</time>
      </trkpt>
      <trkpt lat="45.1625" lon="5.97333">
        <ele>2596.6</ele>
        <time>2020-08-11T09:44:30Z</time>
      </trkpt>
      <trkpt lat="45.1625" lon="5.97333">
        <ele>2596.6</ele>
        <time>2020-08-11T09:44:31Z</time>
      </trkpt>
      <trkpt lat="45.16251" lon="5.97332">
        <ele>2596.8</ele>
        <time>2020-08-11T09:44:32Z</time>
      </trkpt>
      <trkpt lat="45.16251" lon="5.97332">
        <ele>2597</ele>
        <time>2020-08-11T09:44:33Z</time>
      </trkpt>
      <trkpt lat="45.16251" lon="5.97332">
        <ele>2597.4</ele>
        <time>2020-08-11T09:44:34Z</time>
      </trkpt>
      <trkpt lat="45.16252" lon="5.97332">
        <ele>2597.4</ele>
        <time>2020-08-11T09:44:35Z</time>
      </trkpt>
      <trkpt lat="45.16253" lon="5.97331">
        <ele>2597.6</ele>
        <time>2020-08-11T09:44:36Z</time>
      </trkpt>
      <trkpt lat="45.16254" lon="5.9733">
        <ele>2598</ele>
        <time>2020-08-11T09:44:37Z</time>
      </trkpt>
      <trkpt lat="45.16254" lon="5.9733">
        <ele>2598.2</ele>
        <time>2020-08-11T09:44:38Z</time>
      </trkpt>
      <trkpt lat="45.16255" lon="5.97329">
        <ele>2598.4</ele>
        <time>2020-08-11T09:44:39Z</time>
      </trkpt>
      <trkpt lat="45.16256" lon="5.97328">
        <ele>2598.4</ele>
        <time>2020-08-11T09:44:40Z</time>
      </trkpt>
      <trkpt lat="45.16257" lon="5.97328">
        <ele>2598.6</ele>
        <time>2020-08-11T09:44:41Z</time>
      </trkpt>
      <trkpt lat="45.16258" lon="5.97327">
        <ele>2598.8</ele>
        <time>2020-08-11T09:44:42Z</time>
      </trkpt>
      <trkpt lat="45.16259" lon="5.97326">
        <ele>2599</ele>
        <time>2020-08-11T09:44:43Z</time>
      </trkpt>
      <trkpt lat="45.1626" lon="5.97326">
        <ele>2599.8</ele>
        <time>2020-08-11T09:44:44Z</time>
      </trkpt>
      <trkpt lat="45.16259" lon="5.97326">
        <ele>2600</ele>
        <time>2020-08-11T09:44:45Z</time>
      </trkpt>
      <trkpt lat="45.16259" lon="5.97327">
        <ele>2600.2</ele>
        <time>2020-08-11T09:44:46Z</time>
      </trkpt>
      <trkpt lat="45.16258" lon="5.97327">
        <ele>2600.4</ele>
        <time>2020-08-11T09:44:47Z</time>
      </trkpt>
      <trkpt lat="45.16258" lon="5.97328">
        <ele>2600.4</ele>
        <time>2020-08-11T09:44:48Z</time>
      </trkpt>
      <trkpt lat="45.16257" lon="5.97328">
        <ele>2600.8</ele>
        <time>2020-08-11T09:44:49Z</time>
      </trkpt>
      <trkpt lat="45.16257" lon="5.97329">
        <ele>2601</ele>
        <time>2020-08-11T09:44:50Z</time>
      </trkpt>
      <trkpt lat="45.16256" lon="5.97329">
        <ele>2601.2</ele>
        <time>2020-08-11T09:44:51Z</time>
      </trkpt>
      <trkpt lat="45.16256" lon="5.97329">
        <ele>2601.2</ele>
        <time>2020-08-11T09:44:52Z</time>
      </trkpt>
      <trkpt lat="45.16255" lon="5.9733">
        <ele>2601.4</ele>
        <time>2020-08-11T09:44:53Z</time>
      </trkpt>
      <trkpt lat="45.16255" lon="5.9733">
        <ele>2601.6</ele>
        <time>2020-08-11T09:44:54Z</time>
      </trkpt>
      <trkpt lat="45.16254" lon="5.97331">
        <ele>2601.6</ele>
        <time>2020-08-11T09:44:55Z</time>
      </trkpt>
      <trkpt lat="45.16254" lon="5.97331">
        <ele>2601.8</ele>
        <time>2020-08-11T09:44:56Z</time>
      </trkpt>
      <trkpt lat="45.16253" lon="5.97332">
        <ele>2602</ele>
        <time>2020-08-11T09:44:57Z</time>
      </trkpt>
      <trkpt lat="45.16253" lon="5.97332">
        <ele>2602.2</ele>
        <time>2020-08-11T09:44:58Z</time>
      </trkpt>
      <trkpt lat="45.16252" lon="5.97333">
        <ele>2602.2</ele>
        <time>2020-08-11T09:44:59Z</time>
      </trkpt>
      <trkpt lat="45.16252" lon="5.97332">
        <ele>2602.2</ele>
        <time>2020-08-11T09:45:00Z</time>
      </trkpt>
      <trkpt lat="45.16252" lon="5.97332">
        <ele>2602.4</ele>
        <time>2020-08-11T09:45:01Z</time>
      </trkpt>
      <trkpt lat="45.16252" lon="5.97332">
        <ele>2602.4</ele>
        <time>2020-08-11T09:45:02Z</time>
      </trkpt>
      <trkpt lat="45.16252" lon="5.97332">
        <ele>2602.4</ele>
        <time>2020-08-11T09:45:03Z</time>
      </trkpt>
      <trkpt lat="45.16252" lon="5.97331">
        <ele>2602.2</ele>
        <time>2020-08-11T09:45:04Z</time>
      </trkpt>
      <trkpt lat="45.16252" lon="5.97331">
        <ele>2602.2</ele>
        <time>2020-08-11T09:45:05Z</time>
      </trkpt>
      <trkpt lat="45.16252" lon="5.97331">
        <ele>2602.2</ele>
        <time>2020-08-11T09:45:06Z</time>
      </trkpt>
      <trkpt lat="45.16252" lon="5.9733">
        <ele>2602.2</ele>
        <time>2020-08-11T09:45:07Z</time>
      </trkpt>
      <trkpt lat="45.16252" lon="5.9733">
        <ele>2602.8</ele>
        <time>2020-08-11T09:45:08Z</time>
      </trkpt>
      <trkpt lat="45.16252" lon="5.9733">
        <ele>2602.8</ele>
        <time>2020-08-11T09:45:09Z</time>
      </trkpt>
      <trkpt lat="45.16251" lon="5.9733">
        <ele>2603.2</ele>
        <time>2020-08-11T09:45:10Z</time>
      </trkpt>
      <trkpt lat="45.16251" lon="5.97329">
        <ele>2603.4</ele>
        <time>2020-08-11T09:45:11Z</time>
      </trkpt>
      <trkpt lat="45.16251" lon="5.97329">
        <ele>2603.4</ele>
        <time>2020-08-11T09:45:12Z</time>
      </trkpt>
      <trkpt lat="45.16251" lon="5.97329">
        <ele>2604</ele>
        <time>2020-08-11T09:45:13Z</time>
      </trkpt>
      <trkpt lat="45.16251" lon="5.97328">
        <ele>2604</ele>
        <time>2020-08-11T09:45:14Z</time>
      </trkpt>
      <trkpt lat="45.16251" lon="5.97328">
        <ele>2604.2</ele>
        <time>2020-08-11T09:45:15Z</time>
      </trkpt>
      <trkpt lat="45.16251" lon="5.97328">
        <ele>2604.4</ele>
        <time>2020-08-11T09:45:16Z</time>
      </trkpt>
      <trkpt lat="45.16251" lon="5.97328">
        <ele>2604.6</ele>
        <time>2020-08-11T09:45:17Z</time>
      </trkpt>
      <trkpt lat="45.16251" lon="5.97327">
        <ele>2604.6</ele>
        <time>2020-08-11T09:45:18Z</time>
      </trkpt>
      <trkpt lat="45.16251" lon="5.97327">
        <ele>2604.6</ele>
        <time>2020-08-11T09:45:19Z</time>
      </trkpt>
      <trkpt lat="45.16251" lon="5.97327">
        <ele>2604.8</ele>
        <time>2020-08-11T09:45:20Z</time>
      </trkpt>
      <trkpt lat="45.16251" lon="5.97326">
        <ele>2604.8</ele>
        <time>2020-08-11T09:45:21Z</time>
      </trkpt>
      <trkpt lat="45.16251" lon="5.97326">
        <ele>2605</ele>
        <time>2020-08-11T09:45:22Z</time>
      </trkpt>
      <trkpt lat="45.16251" lon="5.97326">
        <ele>2605.2</ele>
        <time>2020-08-11T09:45:23Z</time>
      </trkpt>
      <trkpt lat="45.16251" lon="5.97326">
        <ele>2606</ele>
        <time>2020-08-11T09:45:24Z</time>
      </trkpt>
      <trkpt lat="45.16251" lon="5.97325">
        <ele>2606.2</ele>
        <time>2020-08-11T09:45:25Z</time>
      </trkpt>
      <trkpt lat="45.1625" lon="5.97325">
        <ele>2606.4</ele>
        <time>2020-08-11T09:45:26Z</time>
      </trkpt>
      <trkpt lat="45.1625" lon="5.97325">
        <ele>2606.4</ele>
        <time>2020-08-11T09:45:27Z</time>
      </trkpt>
      <trkpt lat="45.1625" lon="5.97324">
        <ele>2606.6</ele>
        <time>2020-08-11T09:45:28Z</time>
      </trkpt>
      <trkpt lat="45.1625" lon="5.97324">
        <ele>2606.6</ele>
        <time>2020-08-11T09:45:29Z</time>
      </trkpt>
      <trkpt lat="45.1625" lon="5.97324">
        <ele>2606.6</ele>
        <time>2020-08-11T09:45:30Z</time>
      </trkpt>
      <trkpt lat="45.1625" lon="5.97324">
        <ele>2606.8</ele>
        <time>2020-08-11T09:45:31Z</time>
      </trkpt>
      <trkpt lat="45.1625" lon="5.97323">
        <ele>2607.2</ele>
        <time>2020-08-11T09:45:32Z</time>
      </trkpt>
      <trkpt lat="45.1625" lon="5.97323">
        <ele>2607.4</ele>
        <time>2020-08-11T09:45:33Z</time>
      </trkpt>
      <trkpt lat="45.1625" lon="5.97323">
        <ele>2607.4</ele>
        <time>2020-08-11T09:45:34Z</time>
      </trkpt>
      <trkpt lat="45.1625" lon="5.97322">
        <ele>2607.4</ele>
        <time>2020-08-11T09:45:35Z</time>
      </trkpt>
      <trkpt lat="45.1625" lon="5.97322">
        <ele>2607.6</ele>
        <time>2020-08-11T09:45:36Z</time>
      </trkpt>
      <trkpt lat="45.1625" lon="5.97322">
        <ele>2608</ele>
        <time>2020-08-11T09:45:37Z</time>
      </trkpt>
      <trkpt lat="45.1625" lon="5.97322">
        <ele>2608.4</ele>
        <time>2020-08-11T09:45:38Z</time>
      </trkpt>
      <trkpt lat="45.1625" lon="5.97321">
        <ele>2608.6</ele>
        <time>2020-08-11T09:45:39Z</time>
      </trkpt>
      <trkpt lat="45.1625" lon="5.97321">
        <ele>2608.8</ele>
        <time>2020-08-11T09:45:40Z</time>
      </trkpt>
      <trkpt lat="45.1625" lon="5.97321">
        <ele>2608.8</ele>
        <time>2020-08-11T09:45:41Z</time>
      </trkpt>
      <trkpt lat="45.16249" lon="5.97321">
        <ele>2608.8</ele>
        <time>2020-08-11T09:45:42Z</time>
      </trkpt>
      <trkpt lat="45.16249" lon="5.9732">
        <ele>2608.8</ele>
        <time>2020-08-11T09:45:43Z</time>
      </trkpt>
      <trkpt lat="45.16249" lon="5.9732">
        <ele>2609.2</ele>
        <time>2020-08-11T09:45:44Z</time>
      </trkpt>
      <trkpt lat="45.16249" lon="5.97319">
        <ele>2609</ele>
        <time>2020-08-11T09:45:45Z</time>
      </trkpt>
      <trkpt lat="45.16249" lon="5.97319">
        <ele>2609.2</ele>
        <time>2020-08-11T09:45:46Z</time>
      </trkpt>
      <trkpt lat="45.16249" lon="5.97318">
        <ele>2609.4</ele>
        <time>2020-08-11T09:45:47Z</time>
      </trkpt>
      <trkpt lat="45.16249" lon="5.97318">
        <ele>2609.6</ele>
        <time>2020-08-11T09:45:48Z</time>
      </trkpt>
      <trkpt lat="45.16249" lon="5.97317">
        <ele>2610</ele>
        <time>2020-08-11T09:45:49Z</time>
      </trkpt>
      <trkpt lat="45.16249" lon="5.97316">
        <ele>2610</ele>
        <time>2020-08-11T09:45:50Z</time>
      </trkpt>
      <trkpt lat="45.16249" lon="5.97316">
        <ele>2610</ele>
        <time>2020-08-11T09:45:51Z</time>
      </trkpt>
      <trkpt lat="45.16249" lon="5.97315">
        <ele>2610</ele>
        <time>2020-08-11T09:45:52Z</time>
      </trkpt>
      <trkpt lat="45.16249" lon="5.97315">
        <ele>2610</ele>
        <time>2020-08-11T09:45:53Z</time>
      </trkpt>
      <trkpt lat="45.16248" lon="5.97314">
        <ele>2609.8</ele>
        <time>2020-08-11T09:45:54Z</time>
      </trkpt>
      <trkpt lat="45.16248" lon="5.97313">
        <ele>2609.8</ele>
        <time>2020-08-11T09:45:55Z</time>
      </trkpt>
      <trkpt lat="45.16248" lon="5.97313">
        <ele>2609.8</ele>
        <time>2020-08-11T09:45:56Z</time>
      </trkpt>
      <trkpt lat="45.16248" lon="5.97312">
        <ele>2609.8</ele>
        <time>2020-08-11T09:45:57Z</time>
      </trkpt>
      <trkpt lat="45.16248" lon="5.97312">
        <ele>2609.6</ele>
        <time>2020-08-11T09:45:58Z</time>
      </trkpt>
      <trkpt lat="45.16246" lon="5.9731">
        <ele>2610</ele>
        <time>2020-08-11T09:45:59Z</time>
      </trkpt>
      <trkpt lat="45.16246" lon="5.9731">
        <ele>2610</ele>
        <time>2020-08-11T09:46:00Z</time>
      </trkpt>
      <trkpt lat="45.16246" lon="5.9731">
        <ele>2610</ele>
        <time>2020-08-11T09:46:01Z</time>
      </trkpt>
      <trkpt lat="45.16244" lon="5.97306">
        <ele>2610</ele>
        <time>2020-08-11T09:46:02Z</time>
      </trkpt>
      <trkpt lat="45.16244" lon="5.97306">
        <ele>2610</ele>
        <time>2020-08-11T09:46:03Z</time>
      </trkpt>
      <trkpt lat="45.16244" lon="5.97306">
        <ele>2609.8</ele>
        <time>2020-08-11T09:46:04Z</time>
      </trkpt>
      <trkpt lat="45.16244" lon="5.97305">
        <ele>2609.8</ele>
        <time>2020-08-11T09:46:05Z</time>
      </trkpt>
      <trkpt lat="45.16245" lon="5.97304">
        <ele>2610</ele>
        <time>2020-08-11T09:46:06Z</time>
      </trkpt>
      <trkpt lat="45.16245" lon="5.97303">
        <ele>2610.2</ele>
        <time>2020-08-11T09:46:07Z</time>
      </trkpt>
      <trkpt lat="45.16245" lon="5.97301">
        <ele>2610.4</ele>
        <time>2020-08-11T09:46:08Z</time>
      </trkpt>
      <trkpt lat="45.16245" lon="5.973">
        <ele>2611</ele>
        <time>2020-08-11T09:46:09Z</time>
      </trkpt>
      <trkpt lat="45.16245" lon="5.97299">
        <ele>2611.2</ele>
        <time>2020-08-11T09:46:10Z</time>
      </trkpt>
      <trkpt lat="45.16245" lon="5.97299">
        <ele>2611.4</ele>
        <time>2020-08-11T09:46:11Z</time>
      </trkpt>
      <trkpt lat="45.16245" lon="5.97299">
        <ele>2612</ele>
        <time>2020-08-11T09:46:12Z</time>
      </trkpt>
      <trkpt lat="45.16245" lon="5.97299">
        <ele>2612.2</ele>
        <time>2020-08-11T09:46:13Z</time>
      </trkpt>
      <trkpt lat="45.16245" lon="5.97299">
        <ele>2612.2</ele>
        <time>2020-08-11T09:46:14Z</time>
      </trkpt>
      <trkpt lat="45.16245" lon="5.97299">
        <ele>2612.2</ele>
        <time>2020-08-11T09:46:15Z</time>
      </trkpt>
      <trkpt lat="45.16245" lon="5.97299">
        <ele>2612.6</ele>
        <time>2020-08-11T09:46:16Z</time>
      </trkpt>
      <trkpt lat="45.16245" lon="5.97299">
        <ele>2612.6</ele>
        <time>2020-08-11T09:46:17Z</time>
      </trkpt>
      <trkpt lat="45.16245" lon="5.97299">
        <ele>2612.8</ele>
        <time>2020-08-11T09:46:18Z</time>
      </trkpt>
      <trkpt lat="45.16245" lon="5.97299">
        <ele>2613</ele>
        <time>2020-08-11T09:46:19Z</time>
      </trkpt>
      <trkpt lat="45.16245" lon="5.97299">
        <ele>2613.4</ele>
        <time>2020-08-11T09:46:20Z</time>
      </trkpt>
      <trkpt lat="45.16244" lon="5.97294">
        <ele>2613.4</ele>
        <time>2020-08-11T09:46:21Z</time>
      </trkpt>
      <trkpt lat="45.16244" lon="5.97294">
        <ele>2613.6</ele>
        <time>2020-08-11T09:46:22Z</time>
      </trkpt>
      <trkpt lat="45.16244" lon="5.97292">
        <ele>2613.8</ele>
        <time>2020-08-11T09:46:23Z</time>
      </trkpt>
      <trkpt lat="45.16244" lon="5.97292">
        <ele>2614.2</ele>
        <time>2020-08-11T09:46:24Z</time>
      </trkpt>
      <trkpt lat="45.16244" lon="5.97292">
        <ele>2614.8</ele>
        <time>2020-08-11T09:46:25Z</time>
      </trkpt>
      <trkpt lat="45.16243" lon="5.97289">
        <ele>2614.8</ele>
        <time>2020-08-11T09:46:26Z</time>
      </trkpt>
      <trkpt lat="45.16243" lon="5.97289">
        <ele>2615.2</ele>
        <time>2020-08-11T09:46:27Z</time>
      </trkpt>
      <trkpt lat="45.16243" lon="5.97289">
        <ele>2615.4</ele>
        <time>2020-08-11T09:46:28Z</time>
      </trkpt>
      <trkpt lat="45.16243" lon="5.97289">
        <ele>2615.4</ele>
        <time>2020-08-11T09:46:29Z</time>
      </trkpt>
      <trkpt lat="45.16242" lon="5.97286">
        <ele>2615.8</ele>
        <time>2020-08-11T09:46:30Z</time>
      </trkpt>
      <trkpt lat="45.16242" lon="5.97286">
        <ele>2616</ele>
        <time>2020-08-11T09:46:31Z</time>
      </trkpt>
      <trkpt lat="45.16242" lon="5.97286">
        <ele>2616</ele>
        <time>2020-08-11T09:46:32Z</time>
      </trkpt>
      <trkpt lat="45.16241" lon="5.97283">
        <ele>2616.2</ele>
        <time>2020-08-11T09:46:33Z</time>
      </trkpt>
      <trkpt lat="45.16241" lon="5.97283">
        <ele>2616.4</ele>
        <time>2020-08-11T09:46:34Z</time>
      </trkpt>
      <trkpt lat="45.16241" lon="5.97283">
        <ele>2616.2</ele>
        <time>2020-08-11T09:46:35Z</time>
      </trkpt>
      <trkpt lat="45.16241" lon="5.97281">
        <ele>2616.2</ele>
        <time>2020-08-11T09:46:36Z</time>
      </trkpt>
      <trkpt lat="45.16241" lon="5.97281">
        <ele>2616.4</ele>
        <time>2020-08-11T09:46:37Z</time>
      </trkpt>
      <trkpt lat="45.16241" lon="5.97281">
        <ele>2616.6</ele>
        <time>2020-08-11T09:46:38Z</time>
      </trkpt>
      <trkpt lat="45.16241" lon="5.97281">
        <ele>2616.8</ele>
        <time>2020-08-11T09:46:39Z</time>
      </trkpt>
      <trkpt lat="45.16241" lon="5.97281">
        <ele>2617</ele>
        <time>2020-08-11T09:46:40Z</time>
      </trkpt>
      <trkpt lat="45.16241" lon="5.97281">
        <ele>2617</ele>
        <time>2020-08-11T09:46:41Z</time>
      </trkpt>
      <trkpt lat="45.1624" lon="5.97278">
        <ele>2617.2</ele>
        <time>2020-08-11T09:46:42Z</time>
      </trkpt>
      <trkpt lat="45.1624" lon="5.97278">
        <ele>2617.6</ele>
        <time>2020-08-11T09:46:43Z</time>
      </trkpt>
      <trkpt lat="45.1624" lon="5.97278">
        <ele>2617.8</ele>
        <time>2020-08-11T09:46:44Z</time>
      </trkpt>
      <trkpt lat="45.16238" lon="5.97276">
        <ele>2617.8</ele>
        <time>2020-08-11T09:46:45Z</time>
      </trkpt>
      <trkpt lat="45.16238" lon="5.97276">
        <ele>2618</ele>
        <time>2020-08-11T09:46:46Z</time>
      </trkpt>
      <trkpt lat="45.16238" lon="5.97276">
        <ele>2618.2</ele>
        <time>2020-08-11T09:46:47Z</time>
      </trkpt>
      <trkpt lat="45.16238" lon="5.97276">
        <ele>2618.2</ele>
        <time>2020-08-11T09:46:48Z</time>
      </trkpt>
      <trkpt lat="45.16238" lon="5.97276">
        <ele>2618.4</ele>
        <time>2020-08-11T09:46:49Z</time>
      </trkpt>
      <trkpt lat="45.16238" lon="5.97276">
        <ele>2618.8</ele>
        <time>2020-08-11T09:46:50Z</time>
      </trkpt>
      <trkpt lat="45.16238" lon="5.97276">
        <ele>2619.2</ele>
        <time>2020-08-11T09:46:51Z</time>
      </trkpt>
      <trkpt lat="45.16238" lon="5.97276">
        <ele>2619.8</ele>
        <time>2020-08-11T09:46:52Z</time>
      </trkpt>
      <trkpt lat="45.16238" lon="5.97273">
        <ele>2620</ele>
        <time>2020-08-11T09:46:53Z</time>
      </trkpt>
      <trkpt lat="45.16238" lon="5.97273">
        <ele>2620</ele>
        <time>2020-08-11T09:46:54Z</time>
      </trkpt>
      <trkpt lat="45.16238" lon="5.97273">
        <ele>2620.4</ele>
        <time>2020-08-11T09:46:55Z</time>
      </trkpt>
      <trkpt lat="45.16238" lon="5.97273">
        <ele>2621</ele>
        <time>2020-08-11T09:46:56Z</time>
      </trkpt>
      <trkpt lat="45.16238" lon="5.97273">
        <ele>2621.4</ele>
        <time>2020-08-11T09:46:57Z</time>
      </trkpt>
      <trkpt lat="45.16236" lon="5.97272">
        <ele>2621.4</ele>
        <time>2020-08-11T09:46:58Z</time>
      </trkpt>
      <trkpt lat="45.16236" lon="5.97272">
        <ele>2621.6</ele>
        <time>2020-08-11T09:46:59Z</time>
      </trkpt>
      <trkpt lat="45.16236" lon="5.97272">
        <ele>2621.8</ele>
        <time>2020-08-11T09:47:00Z</time>
      </trkpt>
      <trkpt lat="45.16236" lon="5.97272">
        <ele>2622</ele>
        <time>2020-08-11T09:47:01Z</time>
      </trkpt>
      <trkpt lat="45.16235" lon="5.9727">
        <ele>2622.2</ele>
        <time>2020-08-11T09:47:02Z</time>
      </trkpt>
      <trkpt lat="45.16235" lon="5.9727">
        <ele>2621.8</ele>
        <time>2020-08-11T09:47:03Z</time>
      </trkpt>
      <trkpt lat="45.16235" lon="5.9727">
        <ele>2622.2</ele>
        <time>2020-08-11T09:47:04Z</time>
      </trkpt>
      <trkpt lat="45.16235" lon="5.9727">
        <ele>2622.4</ele>
        <time>2020-08-11T09:47:05Z</time>
      </trkpt>
      <trkpt lat="45.16235" lon="5.9727">
        <ele>2622.6</ele>
        <time>2020-08-11T09:47:06Z</time>
      </trkpt>
      <trkpt lat="45.16234" lon="5.97268">
        <ele>2623.2</ele>
        <time>2020-08-11T09:47:07Z</time>
      </trkpt>
      <trkpt lat="45.16234" lon="5.97268">
        <ele>2623.6</ele>
        <time>2020-08-11T09:47:08Z</time>
      </trkpt>
      <trkpt lat="45.16234" lon="5.97268">
        <ele>2623.6</ele>
        <time>2020-08-11T09:47:09Z</time>
      </trkpt>
      <trkpt lat="45.16234" lon="5.97268">
        <ele>2623.4</ele>
        <time>2020-08-11T09:47:10Z</time>
      </trkpt>
      <trkpt lat="45.16234" lon="5.97268">
        <ele>2623.6</ele>
        <time>2020-08-11T09:47:11Z</time>
      </trkpt>
      <trkpt lat="45.16234" lon="5.97268">
        <ele>2623.8</ele>
        <time>2020-08-11T09:47:12Z</time>
      </trkpt>
      <trkpt lat="45.16234" lon="5.97268">
        <ele>2623.8</ele>
        <time>2020-08-11T09:47:13Z</time>
      </trkpt>
      <trkpt lat="45.16234" lon="5.97268">
        <ele>2624</ele>
        <time>2020-08-11T09:47:14Z</time>
      </trkpt>
      <trkpt lat="45.16234" lon="5.97268">
        <ele>2624</ele>
        <time>2020-08-11T09:47:15Z</time>
      </trkpt>
      <trkpt lat="45.16234" lon="5.97268">
        <ele>2624.2</ele>
        <time>2020-08-11T09:47:16Z</time>
      </trkpt>
      <trkpt lat="45.16234" lon="5.97268">
        <ele>2624.2</ele>
        <time>2020-08-11T09:47:17Z</time>
      </trkpt>
      <trkpt lat="45.16232" lon="5.97268">
        <ele>2624.6</ele>
        <time>2020-08-11T09:47:18Z</time>
      </trkpt>
      <trkpt lat="45.16232" lon="5.97268">
        <ele>2624.6</ele>
        <time>2020-08-11T09:47:19Z</time>
      </trkpt>
      <trkpt lat="45.16232" lon="5.97268">
        <ele>2624.6</ele>
        <time>2020-08-11T09:47:20Z</time>
      </trkpt>
      <trkpt lat="45.16232" lon="5.97268">
        <ele>2624.4</ele>
        <time>2020-08-11T09:47:21Z</time>
      </trkpt>
      <trkpt lat="45.16232" lon="5.97268">
        <ele>2624.4</ele>
        <time>2020-08-11T09:47:22Z</time>
      </trkpt>
      <trkpt lat="45.16232" lon="5.97268">
        <ele>2624.6</ele>
        <time>2020-08-11T09:47:23Z</time>
      </trkpt>
      <trkpt lat="45.16232" lon="5.97268">
        <ele>2624.8</ele>
        <time>2020-08-11T09:47:24Z</time>
      </trkpt>
      <trkpt lat="45.16232" lon="5.97268">
        <ele>2624.8</ele>
        <time>2020-08-11T09:47:25Z</time>
      </trkpt>
      <trkpt lat="45.16232" lon="5.97268">
        <ele>2624.8</ele>
        <time>2020-08-11T09:47:26Z</time>
      </trkpt>
      <trkpt lat="45.16232" lon="5.97268">
        <ele>2624.8</ele>
        <time>2020-08-11T09:47:27Z</time>
      </trkpt>
      <trkpt lat="45.16232" lon="5.97268">
        <ele>2624.6</ele>
        <time>2020-08-11T09:47:28Z</time>
      </trkpt>
      <trkpt lat="45.16232" lon="5.97268">
        <ele>2624.6</ele>
        <time>2020-08-11T09:47:29Z</time>
      </trkpt>
      <trkpt lat="45.16232" lon="5.97268">
        <ele>2624.8</ele>
        <time>2020-08-11T09:47:30Z</time>
      </trkpt>
      <trkpt lat="45.1623" lon="5.9727">
        <ele>2624.8</ele>
        <time>2020-08-11T09:47:31Z</time>
      </trkpt>
      <trkpt lat="45.1623" lon="5.9727">
        <ele>2624.8</ele>
        <time>2020-08-11T09:47:32Z</time>
      </trkpt>
      <trkpt lat="45.1623" lon="5.9727">
        <ele>2625</ele>
        <time>2020-08-11T09:47:33Z</time>
      </trkpt>
      <trkpt lat="45.1623" lon="5.9727">
        <ele>2625</ele>
        <time>2020-08-11T09:47:34Z</time>
      </trkpt>
      <trkpt lat="45.1623" lon="5.9727">
        <ele>2625</ele>
        <time>2020-08-11T09:47:35Z</time>
      </trkpt>
      <trkpt lat="45.16228" lon="5.97272">
        <ele>2625</ele>
        <time>2020-08-11T09:47:36Z</time>
      </trkpt>
      <trkpt lat="45.16228" lon="5.97272">
        <ele>2624.6</ele>
        <time>2020-08-11T09:47:37Z</time>
      </trkpt>
      <trkpt lat="45.16228" lon="5.97272">
        <ele>2624.4</ele>
        <time>2020-08-11T09:47:38Z</time>
      </trkpt>
      <trkpt lat="45.16226" lon="5.97273">
        <ele>2624.2</ele>
        <time>2020-08-11T09:47:39Z</time>
      </trkpt>
      <trkpt lat="45.16226" lon="5.97273">
        <ele>2623.8</ele>
        <time>2020-08-11T09:47:40Z</time>
      </trkpt>
      <trkpt lat="45.16224" lon="5.97273">
        <ele>2623.6</ele>
        <time>2020-08-11T09:47:41Z</time>
      </trkpt>
      <trkpt lat="45.16224" lon="5.97273">
        <ele>2623.4</ele>
        <time>2020-08-11T09:47:42Z</time>
      </trkpt>
      <trkpt lat="45.16224" lon="5.97273">
        <ele>2623.4</ele>
        <time>2020-08-11T09:47:43Z</time>
      </trkpt>
      <trkpt lat="45.16224" lon="5.97273">
        <ele>2623.4</ele>
        <time>2020-08-11T09:47:44Z</time>
      </trkpt>
      <trkpt lat="45.16224" lon="5.97273">
        <ele>2623.2</ele>
        <time>2020-08-11T09:47:45Z</time>
      </trkpt>
      <trkpt lat="45.16223" lon="5.9727">
        <ele>2623.6</ele>
        <time>2020-08-11T09:47:46Z</time>
      </trkpt>
      <trkpt lat="45.16223" lon="5.9727">
        <ele>2623.6</ele>
        <time>2020-08-11T09:47:47Z</time>
      </trkpt>
      <trkpt lat="45.16223" lon="5.9727">
        <ele>2623.8</ele>
        <time>2020-08-11T09:47:48Z</time>
      </trkpt>
      <trkpt lat="45.16223" lon="5.9727">
        <ele>2624.2</ele>
        <time>2020-08-11T09:47:49Z</time>
      </trkpt>
      <trkpt lat="45.16223" lon="5.9727">
        <ele>2624.8</ele>
        <time>2020-08-11T09:47:50Z</time>
      </trkpt>
      <trkpt lat="45.16223" lon="5.9727">
        <ele>2625.4</ele>
        <time>2020-08-11T09:47:51Z</time>
      </trkpt>
      <trkpt lat="45.16223" lon="5.9727">
        <ele>2625.6</ele>
        <time>2020-08-11T09:47:52Z</time>
      </trkpt>
      <trkpt lat="45.16223" lon="5.9727">
        <ele>2625.8</ele>
        <time>2020-08-11T09:47:53Z</time>
      </trkpt>
      <trkpt lat="45.16224" lon="5.97267">
        <ele>2625.8</ele>
        <time>2020-08-11T09:47:54Z</time>
      </trkpt>
      <trkpt lat="45.16224" lon="5.97267">
        <ele>2625.8</ele>
        <time>2020-08-11T09:47:55Z</time>
      </trkpt>
      <trkpt lat="45.16224" lon="5.97267">
        <ele>2625.6</ele>
        <time>2020-08-11T09:47:56Z</time>
      </trkpt>
      <trkpt lat="45.16224" lon="5.97267">
        <ele>2625.8</ele>
        <time>2020-08-11T09:47:57Z</time>
      </trkpt>
      <trkpt lat="45.16224" lon="5.97267">
        <ele>2626</ele>
        <time>2020-08-11T09:47:58Z</time>
      </trkpt>
      <trkpt lat="45.16224" lon="5.97267">
        <ele>2626.2</ele>
        <time>2020-08-11T09:47:59Z</time>
      </trkpt>
      <trkpt lat="45.16224" lon="5.97267">
        <ele>2626.2</ele>
        <time>2020-08-11T09:48:00Z</time>
      </trkpt>
      <trkpt lat="45.16224" lon="5.97267">
        <ele>2626.2</ele>
        <time>2020-08-11T09:48:01Z</time>
      </trkpt>
      <trkpt lat="45.16224" lon="5.97267">
        <ele>2626.2</ele>
        <time>2020-08-11T09:48:02Z</time>
      </trkpt>
      <trkpt lat="45.16224" lon="5.97267">
        <ele>2626.2</ele>
        <time>2020-08-11T09:48:03Z</time>
      </trkpt>
      <trkpt lat="45.16224" lon="5.97267">
        <ele>2626.4</ele>
        <time>2020-08-11T09:48:04Z</time>
      </trkpt>
      <trkpt lat="45.16224" lon="5.97267">
        <ele>2626.6</ele>
        <time>2020-08-11T09:48:05Z</time>
      </trkpt>
      <trkpt lat="45.16224" lon="5.97267">
        <ele>2627.2</ele>
        <time>2020-08-11T09:48:06Z</time>
      </trkpt>
      <trkpt lat="45.16224" lon="5.97267">
        <ele>2627.4</ele>
        <time>2020-08-11T09:48:07Z</time>
      </trkpt>
      <trkpt lat="45.16224" lon="5.97265">
        <ele>2627.6</ele>
        <time>2020-08-11T09:48:08Z</time>
      </trkpt>
      <trkpt lat="45.16224" lon="5.97265">
        <ele>2627.6</ele>
        <time>2020-08-11T09:48:09Z</time>
      </trkpt>
      <trkpt lat="45.16224" lon="5.97265">
        <ele>2627.8</ele>
        <time>2020-08-11T09:48:10Z</time>
      </trkpt>
      <trkpt lat="45.16224" lon="5.97265">
        <ele>2627.8</ele>
        <time>2020-08-11T09:48:11Z</time>
      </trkpt>
      <trkpt lat="45.16226" lon="5.97265">
        <ele>2628</ele>
        <time>2020-08-11T09:48:12Z</time>
      </trkpt>
      <trkpt lat="45.16226" lon="5.97265">
        <ele>2628.2</ele>
        <time>2020-08-11T09:48:13Z</time>
      </trkpt>
      <trkpt lat="45.16226" lon="5.97265">
        <ele>2628.6</ele>
        <time>2020-08-11T09:48:14Z</time>
      </trkpt>
      <trkpt lat="45.16228" lon="5.97265">
        <ele>2628.6</ele>
        <time>2020-08-11T09:48:15Z</time>
      </trkpt>
      <trkpt lat="45.1623" lon="5.97263">
        <ele>2628.8</ele>
        <time>2020-08-11T09:48:16Z</time>
      </trkpt>
      <trkpt lat="45.1623" lon="5.97263">
        <ele>2628.8</ele>
        <time>2020-08-11T09:48:17Z</time>
      </trkpt>
      <trkpt lat="45.1623" lon="5.97263">
        <ele>2629.2</ele>
        <time>2020-08-11T09:48:18Z</time>
      </trkpt>
      <trkpt lat="45.1623" lon="5.97263">
        <ele>2629</ele>
        <time>2020-08-11T09:48:19Z</time>
      </trkpt>
      <trkpt lat="45.1623" lon="5.97263">
        <ele>2629.4</ele>
        <time>2020-08-11T09:48:20Z</time>
      </trkpt>
      <trkpt lat="45.1623" lon="5.97263">
        <ele>2629.6</ele>
        <time>2020-08-11T09:48:21Z</time>
      </trkpt>
      <trkpt lat="45.1623" lon="5.97263">
        <ele>2630</ele>
        <time>2020-08-11T09:48:22Z</time>
      </trkpt>
      <trkpt lat="45.16231" lon="5.97261">
        <ele>2629.8</ele>
        <time>2020-08-11T09:48:23Z</time>
      </trkpt>
      <trkpt lat="45.16231" lon="5.97261">
        <ele>2630</ele>
        <time>2020-08-11T09:48:24Z</time>
      </trkpt>
      <trkpt lat="45.16231" lon="5.97261">
        <ele>2630.4</ele>
        <time>2020-08-11T09:48:25Z</time>
      </trkpt>
      <trkpt lat="45.16231" lon="5.97261">
        <ele>2630.6</ele>
        <time>2020-08-11T09:48:26Z</time>
      </trkpt>
      <trkpt lat="45.16231" lon="5.97261">
        <ele>2630.8</ele>
        <time>2020-08-11T09:48:27Z</time>
      </trkpt>
      <trkpt lat="45.16234" lon="5.97259">
        <ele>2631</ele>
        <time>2020-08-11T09:48:28Z</time>
      </trkpt>
      <trkpt lat="45.16234" lon="5.97259">
        <ele>2631.2</ele>
        <time>2020-08-11T09:48:29Z</time>
      </trkpt>
      <trkpt lat="45.16234" lon="5.97259">
        <ele>2631.4</ele>
        <time>2020-08-11T09:48:30Z</time>
      </trkpt>
      <trkpt lat="45.16234" lon="5.97259">
        <ele>2631.4</ele>
        <time>2020-08-11T09:48:31Z</time>
      </trkpt>
      <trkpt lat="45.16234" lon="5.97259">
        <ele>2631.6</ele>
        <time>2020-08-11T09:48:32Z</time>
      </trkpt>
      <trkpt lat="45.16236" lon="5.97258">
        <ele>2632.2</ele>
        <time>2020-08-11T09:48:33Z</time>
      </trkpt>
      <trkpt lat="45.16236" lon="5.97258">
        <ele>2632.2</ele>
        <time>2020-08-11T09:48:34Z</time>
      </trkpt>
      <trkpt lat="45.16236" lon="5.97258">
        <ele>2632.4</ele>
        <time>2020-08-11T09:48:35Z</time>
      </trkpt>
      <trkpt lat="45.16238" lon="5.97255">
        <ele>2632.6</ele>
        <time>2020-08-11T09:48:36Z</time>
      </trkpt>
      <trkpt lat="45.16238" lon="5.97255">
        <ele>2632.6</ele>
        <time>2020-08-11T09:48:37Z</time>
      </trkpt>
      <trkpt lat="45.16238" lon="5.97255">
        <ele>2633.2</ele>
        <time>2020-08-11T09:48:38Z</time>
      </trkpt>
      <trkpt lat="45.16238" lon="5.97255">
        <ele>2633.4</ele>
        <time>2020-08-11T09:48:39Z</time>
      </trkpt>
      <trkpt lat="45.16238" lon="5.97255">
        <ele>2633.6</ele>
        <time>2020-08-11T09:48:40Z</time>
      </trkpt>
      <trkpt lat="45.16238" lon="5.97255">
        <ele>2633.8</ele>
        <time>2020-08-11T09:48:41Z</time>
      </trkpt>
      <trkpt lat="45.16238" lon="5.97255">
        <ele>2634</ele>
        <time>2020-08-11T09:48:42Z</time>
      </trkpt>
      <trkpt lat="45.16238" lon="5.97255">
        <ele>2634.2</ele>
        <time>2020-08-11T09:48:43Z</time>
      </trkpt>
      <trkpt lat="45.16238" lon="5.97255">
        <ele>2634.2</ele>
        <time>2020-08-11T09:48:44Z</time>
      </trkpt>
      <trkpt lat="45.16237" lon="5.97253">
        <ele>2634.4</ele>
        <time>2020-08-11T09:48:45Z</time>
      </trkpt>
      <trkpt lat="45.16237" lon="5.97253">
        <ele>2634.6</ele>
        <time>2020-08-11T09:48:46Z</time>
      </trkpt>
      <trkpt lat="45.16237" lon="5.97253">
        <ele>2634.8</ele>
        <time>2020-08-11T09:48:47Z</time>
      </trkpt>
      <trkpt lat="45.16236" lon="5.97251">
        <ele>2634.8</ele>
        <time>2020-08-11T09:48:48Z</time>
      </trkpt>
      <trkpt lat="45.16236" lon="5.97251">
        <ele>2635.2</ele>
        <time>2020-08-11T09:48:49Z</time>
      </trkpt>
      <trkpt lat="45.16236" lon="5.97251">
        <ele>2635.4</ele>
        <time>2020-08-11T09:48:50Z</time>
      </trkpt>
      <trkpt lat="45.16236" lon="5.97251">
        <ele>2635.6</ele>
        <time>2020-08-11T09:48:51Z</time>
      </trkpt>
      <trkpt lat="45.16236" lon="5.97251">
        <ele>2635.6</ele>
        <time>2020-08-11T09:48:52Z</time>
      </trkpt>
      <trkpt lat="45.16236" lon="5.97248">
        <ele>2635.6</ele>
        <time>2020-08-11T09:48:53Z</time>
      </trkpt>
      <trkpt lat="45.16236" lon="5.97248">
        <ele>2635.8</ele>
        <time>2020-08-11T09:48:54Z</time>
      </trkpt>
      <trkpt lat="45.16236" lon="5.97248">
        <ele>2636</ele>
        <time>2020-08-11T09:48:55Z</time>
      </trkpt>
      <trkpt lat="45.16236" lon="5.97245">
        <ele>2636.4</ele>
        <time>2020-08-11T09:48:56Z</time>
      </trkpt>
      <trkpt lat="45.16236" lon="5.97245">
        <ele>2636.6</ele>
        <time>2020-08-11T09:48:57Z</time>
      </trkpt>
      <trkpt lat="45.16236" lon="5.97245">
        <ele>2636.6</ele>
        <time>2020-08-11T09:48:58Z</time>
      </trkpt>
      <trkpt lat="45.16235" lon="5.97243">
        <ele>2637</ele>
        <time>2020-08-11T09:48:59Z</time>
      </trkpt>
      <trkpt lat="45.16235" lon="5.97243">
        <ele>2637.2</ele>
        <time>2020-08-11T09:49:00Z</time>
      </trkpt>
      <trkpt lat="45.16235" lon="5.97243">
        <ele>2637.6</ele>
        <time>2020-08-11T09:49:01Z</time>
      </trkpt>
      <trkpt lat="45.16233" lon="5.9724">
        <ele>2637.6</ele>
        <time>2020-08-11T09:49:02Z</time>
      </trkpt>
      <trkpt lat="45.16233" lon="5.9724">
        <ele>2637.8</ele>
        <time>2020-08-11T09:49:03Z</time>
      </trkpt>
      <trkpt lat="45.16234" lon="5.97237">
        <ele>2638</ele>
        <time>2020-08-11T09:49:04Z</time>
      </trkpt>
      <trkpt lat="45.16234" lon="5.97237">
        <ele>2638</ele>
        <time>2020-08-11T09:49:05Z</time>
      </trkpt>
      <trkpt lat="45.16234" lon="5.97237">
        <ele>2638.2</ele>
        <time>2020-08-11T09:49:06Z</time>
      </trkpt>
      <trkpt lat="45.16234" lon="5.97237">
        <ele>2638.2</ele>
        <time>2020-08-11T09:49:07Z</time>
      </trkpt>
      <trkpt lat="45.16234" lon="5.97237">
        <ele>2638.4</ele>
        <time>2020-08-11T09:49:08Z</time>
      </trkpt>
      <trkpt lat="45.16234" lon="5.97237">
        <ele>2638.8</ele>
        <time>2020-08-11T09:49:09Z</time>
      </trkpt>
      <trkpt lat="45.16234" lon="5.97237">
        <ele>2639</ele>
        <time>2020-08-11T09:49:10Z</time>
      </trkpt>
      <trkpt lat="45.16233" lon="5.97234">
        <ele>2639.2</ele>
        <time>2020-08-11T09:49:11Z</time>
      </trkpt>
      <trkpt lat="45.16233" lon="5.97234">
        <ele>2639.4</ele>
        <time>2020-08-11T09:49:12Z</time>
      </trkpt>
      <trkpt lat="45.16233" lon="5.97231">
        <ele>2639.6</ele>
        <time>2020-08-11T09:49:13Z</time>
      </trkpt>
      <trkpt lat="45.16233" lon="5.97231">
        <ele>2639.8</ele>
        <time>2020-08-11T09:49:14Z</time>
      </trkpt>
      <trkpt lat="45.16233" lon="5.97231">
        <ele>2640</ele>
        <time>2020-08-11T09:49:15Z</time>
      </trkpt>
      <trkpt lat="45.16233" lon="5.97231">
        <ele>2640.2</ele>
        <time>2020-08-11T09:49:16Z</time>
      </trkpt>
      <trkpt lat="45.16233" lon="5.97231">
        <ele>2640.4</ele>
        <time>2020-08-11T09:49:17Z</time>
      </trkpt>
      <trkpt lat="45.16232" lon="5.97229">
        <ele>2640.4</ele>
        <time>2020-08-11T09:49:18Z</time>
      </trkpt>
      <trkpt lat="45.16232" lon="5.97229">
        <ele>2640.6</ele>
        <time>2020-08-11T09:49:19Z</time>
      </trkpt>
      <trkpt lat="45.16232" lon="5.97229">
        <ele>2641</ele>
        <time>2020-08-11T09:49:20Z</time>
      </trkpt>
      <trkpt lat="45.1623" lon="5.97226">
        <ele>2641.2</ele>
        <time>2020-08-11T09:49:21Z</time>
      </trkpt>
      <trkpt lat="45.1623" lon="5.97226">
        <ele>2641</ele>
        <time>2020-08-11T09:49:22Z</time>
      </trkpt>
      <trkpt lat="45.1623" lon="5.97226">
        <ele>2641.6</ele>
        <time>2020-08-11T09:49:23Z</time>
      </trkpt>
      <trkpt lat="45.16229" lon="5.97224">
        <ele>2641.4</ele>
        <time>2020-08-11T09:49:24Z</time>
      </trkpt>
      <trkpt lat="45.16229" lon="5.97224">
        <ele>2641.6</ele>
        <time>2020-08-11T09:49:25Z</time>
      </trkpt>
      <trkpt lat="45.16229" lon="5.97224">
        <ele>2641.8</ele>
        <time>2020-08-11T09:49:26Z</time>
      </trkpt>
      <trkpt lat="45.16228" lon="5.9722">
        <ele>2642</ele>
        <time>2020-08-11T09:49:27Z</time>
      </trkpt>
      <trkpt lat="45.16228" lon="5.9722">
        <ele>2642</ele>
        <time>2020-08-11T09:49:28Z</time>
      </trkpt>
      <trkpt lat="45.16228" lon="5.9722">
        <ele>2642.2</ele>
        <time>2020-08-11T09:49:29Z</time>
      </trkpt>
      <trkpt lat="45.16228" lon="5.9722">
        <ele>2642.2</ele>
        <time>2020-08-11T09:49:30Z</time>
      </trkpt>
      <trkpt lat="45.16228" lon="5.9722">
        <ele>2642.2</ele>
        <time>2020-08-11T09:49:31Z</time>
      </trkpt>
      <trkpt lat="45.16226" lon="5.97218">
        <ele>2642.4</ele>
        <time>2020-08-11T09:49:32Z</time>
      </trkpt>
      <trkpt lat="45.16226" lon="5.97218">
        <ele>2642.6</ele>
        <time>2020-08-11T09:49:33Z</time>
      </trkpt>
      <trkpt lat="45.16227" lon="5.97217">
        <ele>2642.8</ele>
        <time>2020-08-11T09:49:34Z</time>
      </trkpt>
      <trkpt lat="45.16227" lon="5.97216">
        <ele>2642.8</ele>
        <time>2020-08-11T09:49:35Z</time>
      </trkpt>
      <trkpt lat="45.16227" lon="5.97215">
        <ele>2643</ele>
        <time>2020-08-11T09:49:36Z</time>
      </trkpt>
      <trkpt lat="45.16227" lon="5.97214">
        <ele>2642.8</ele>
        <time>2020-08-11T09:49:37Z</time>
      </trkpt>
      <trkpt lat="45.16228" lon="5.97213">
        <ele>2643</ele>
        <time>2020-08-11T09:49:38Z</time>
      </trkpt>
      <trkpt lat="45.16228" lon="5.97212">
        <ele>2643.2</ele>
        <time>2020-08-11T09:49:39Z</time>
      </trkpt>
      <trkpt lat="45.16228" lon="5.97211">
        <ele>2643</ele>
        <time>2020-08-11T09:49:40Z</time>
      </trkpt>
      <trkpt lat="45.16229" lon="5.9721">
        <ele>2643</ele>
        <time>2020-08-11T09:49:41Z</time>
      </trkpt>
      <trkpt lat="45.16229" lon="5.97209">
        <ele>2643</ele>
        <time>2020-08-11T09:49:42Z</time>
      </trkpt>
      <trkpt lat="45.16229" lon="5.97208">
        <ele>2642.4</ele>
        <time>2020-08-11T09:49:43Z</time>
      </trkpt>
      <trkpt lat="45.16229" lon="5.97208">
        <ele>2642.4</ele>
        <time>2020-08-11T09:49:44Z</time>
      </trkpt>
      <trkpt lat="45.1623" lon="5.97207">
        <ele>2642</ele>
        <time>2020-08-11T09:49:45Z</time>
      </trkpt>
      <trkpt lat="45.1623" lon="5.97206">
        <ele>2641.8</ele>
        <time>2020-08-11T09:49:46Z</time>
      </trkpt>
      <trkpt lat="45.16229" lon="5.97205">
        <ele>2641.8</ele>
        <time>2020-08-11T09:49:47Z</time>
      </trkpt>
      <trkpt lat="45.16228" lon="5.97205">
        <ele>2641.8</ele>
        <time>2020-08-11T09:49:48Z</time>
      </trkpt>
      <trkpt lat="45.16227" lon="5.97205">
        <ele>2641.8</ele>
        <time>2020-08-11T09:49:49Z</time>
      </trkpt>
      <trkpt lat="45.16225" lon="5.97205">
        <ele>2642</ele>
        <time>2020-08-11T09:49:50Z</time>
      </trkpt>
      <trkpt lat="45.16224" lon="5.97204">
        <ele>2642</ele>
        <time>2020-08-11T09:49:51Z</time>
      </trkpt>
      <trkpt lat="45.16223" lon="5.97204">
        <ele>2642.2</ele>
        <time>2020-08-11T09:49:52Z</time>
      </trkpt>
      <trkpt lat="45.16222" lon="5.97204">
        <ele>2642.4</ele>
        <time>2020-08-11T09:49:53Z</time>
      </trkpt>
      <trkpt lat="45.16221" lon="5.97203">
        <ele>2642.4</ele>
        <time>2020-08-11T09:49:54Z</time>
      </trkpt>
      <trkpt lat="45.16221" lon="5.97203">
        <ele>2642.6</ele>
        <time>2020-08-11T09:49:55Z</time>
      </trkpt>
      <trkpt lat="45.16221" lon="5.97203">
        <ele>2642.6</ele>
        <time>2020-08-11T09:49:56Z</time>
      </trkpt>
      <trkpt lat="45.16221" lon="5.97203">
        <ele>2642.6</ele>
        <time>2020-08-11T09:49:57Z</time>
      </trkpt>
      <trkpt lat="45.16221" lon="5.97203">
        <ele>2642.8</ele>
        <time>2020-08-11T09:49:58Z</time>
      </trkpt>
      <trkpt lat="45.16221" lon="5.97203">
        <ele>2642.8</ele>
        <time>2020-08-11T09:49:59Z</time>
      </trkpt>
      <trkpt lat="45.16221" lon="5.97203">
        <ele>2643.4</ele>
        <time>2020-08-11T09:50:01Z</time>
      </trkpt>
      <trkpt lat="45.16221" lon="5.97203">
        <ele>2644</ele>
        <time>2020-08-11T09:50:02Z</time>
      </trkpt>
      <trkpt lat="45.16221" lon="5.97203">
        <ele>2644.2</ele>
        <time>2020-08-11T09:50:03Z</time>
      </trkpt>
      <trkpt lat="45.16221" lon="5.97203">
        <ele>2644.4</ele>
        <time>2020-08-11T09:50:04Z</time>
      </trkpt>
      <trkpt lat="45.16221" lon="5.97203">
        <ele>2644.4</ele>
        <time>2020-08-11T09:50:05Z</time>
      </trkpt>
      <trkpt lat="45.16221" lon="5.97203">
        <ele>2644.4</ele>
        <time>2020-08-11T09:50:06Z</time>
      </trkpt>
      <trkpt lat="45.16221" lon="5.97203">
        <ele>2644.4</ele>
        <time>2020-08-11T09:50:07Z</time>
      </trkpt>
      <trkpt lat="45.16221" lon="5.97203">
        <ele>2644.8</ele>
        <time>2020-08-11T09:50:08Z</time>
      </trkpt>
      <trkpt lat="45.16221" lon="5.97203">
        <ele>2645</ele>
        <time>2020-08-11T09:50:09Z</time>
      </trkpt>
      <trkpt lat="45.16221" lon="5.97203">
        <ele>2645</ele>
        <time>2020-08-11T09:50:10Z</time>
      </trkpt>
      <trkpt lat="45.16221" lon="5.97203">
        <ele>2645</ele>
        <time>2020-08-11T09:50:11Z</time>
      </trkpt>
      <trkpt lat="45.16221" lon="5.97203">
        <ele>2644.6</ele>
        <time>2020-08-11T09:50:12Z</time>
      </trkpt>
      <trkpt lat="45.16221" lon="5.97203">
        <ele>2644.2</ele>
        <time>2020-08-11T09:50:13Z</time>
      </trkpt>
      <trkpt lat="45.16218" lon="5.97202">
        <ele>2644</ele>
        <time>2020-08-11T09:50:14Z</time>
      </trkpt>
      <trkpt lat="45.16218" lon="5.97202">
        <ele>2643.8</ele>
        <time>2020-08-11T09:50:15Z</time>
      </trkpt>
      <trkpt lat="45.16217" lon="5.97202">
        <ele>2643.6</ele>
        <time>2020-08-11T09:50:16Z</time>
      </trkpt>
      <trkpt lat="45.16217" lon="5.97202">
        <ele>2643.6</ele>
        <time>2020-08-11T09:50:17Z</time>
      </trkpt>
      <trkpt lat="45.16216" lon="5.97201">
        <ele>2643.6</ele>
        <time>2020-08-11T09:50:18Z</time>
      </trkpt>
      <trkpt lat="45.16216" lon="5.97201">
        <ele>2643.4</ele>
        <time>2020-08-11T09:50:19Z</time>
      </trkpt>
      <trkpt lat="45.16216" lon="5.97201">
        <ele>2643.4</ele>
        <time>2020-08-11T09:50:20Z</time>
      </trkpt>
      <trkpt lat="45.16215" lon="5.97201">
        <ele>2643.4</ele>
        <time>2020-08-11T09:50:21Z</time>
      </trkpt>
      <trkpt lat="45.16215" lon="5.97201">
        <ele>2643.4</ele>
        <time>2020-08-11T09:50:22Z</time>
      </trkpt>
      <trkpt lat="45.16214" lon="5.97201">
        <ele>2643.4</ele>
        <time>2020-08-11T09:50:23Z</time>
      </trkpt>
      <trkpt lat="45.16214" lon="5.97201">
        <ele>2643.4</ele>
        <time>2020-08-11T09:50:24Z</time>
      </trkpt>
      <trkpt lat="45.16213" lon="5.97201">
        <ele>2644</ele>
        <time>2020-08-11T09:50:26Z</time>
      </trkpt>
      <trkpt lat="45.16213" lon="5.97201">
        <ele>2644</ele>
        <time>2020-08-11T09:50:27Z</time>
      </trkpt>
      <trkpt lat="45.16213" lon="5.97201">
        <ele>2644.2</ele>
        <time>2020-08-11T09:50:28Z</time>
      </trkpt>
      <trkpt lat="45.16212" lon="5.97201">
        <ele>2644.4</ele>
        <time>2020-08-11T09:50:29Z</time>
      </trkpt>
      <trkpt lat="45.16212" lon="5.97201">
        <ele>2644.6</ele>
        <time>2020-08-11T09:50:30Z</time>
      </trkpt>
      <trkpt lat="45.16211" lon="5.97201">
        <ele>2644.6</ele>
        <time>2020-08-11T09:50:31Z</time>
      </trkpt>
      <trkpt lat="45.16211" lon="5.97201">
        <ele>2644.4</ele>
        <time>2020-08-11T09:50:32Z</time>
      </trkpt>
      <trkpt lat="45.16211" lon="5.97201">
        <ele>2644.8</ele>
        <time>2020-08-11T09:50:33Z</time>
      </trkpt>
      <trkpt lat="45.1621" lon="5.97201">
        <ele>2644.8</ele>
        <time>2020-08-11T09:50:34Z</time>
      </trkpt>
      <trkpt lat="45.1621" lon="5.97201">
        <ele>2644.8</ele>
        <time>2020-08-11T09:50:35Z</time>
      </trkpt>
      <trkpt lat="45.16209" lon="5.972">
        <ele>2644.8</ele>
        <time>2020-08-11T09:50:36Z</time>
      </trkpt>
      <trkpt lat="45.16209" lon="5.972">
        <ele>2645.2</ele>
        <time>2020-08-11T09:50:37Z</time>
      </trkpt>
      <trkpt lat="45.16208" lon="5.972">
        <ele>2645.4</ele>
        <time>2020-08-11T09:50:38Z</time>
      </trkpt>
      <trkpt lat="45.16208" lon="5.972">
        <ele>2645.4</ele>
        <time>2020-08-11T09:50:39Z</time>
      </trkpt>
      <trkpt lat="45.16208" lon="5.972">
        <ele>2645.2</ele>
        <time>2020-08-11T09:50:40Z</time>
      </trkpt>
      <trkpt lat="45.16207" lon="5.972">
        <ele>2645.2</ele>
        <time>2020-08-11T09:50:41Z</time>
      </trkpt>
      <trkpt lat="45.16207" lon="5.972">
        <ele>2645.4</ele>
        <time>2020-08-11T09:50:42Z</time>
      </trkpt>
      <trkpt lat="45.16206" lon="5.97201">
        <ele>2645.4</ele>
        <time>2020-08-11T09:50:43Z</time>
      </trkpt>
      <trkpt lat="45.16206" lon="5.97201">
        <ele>2645.4</ele>
        <time>2020-08-11T09:50:44Z</time>
      </trkpt>
      <trkpt lat="45.16205" lon="5.97201">
        <ele>2645.8</ele>
        <time>2020-08-11T09:50:45Z</time>
      </trkpt>
      <trkpt lat="45.16205" lon="5.97201">
        <ele>2646</ele>
        <time>2020-08-11T09:50:46Z</time>
      </trkpt>
      <trkpt lat="45.16204" lon="5.97201">
        <ele>2646.2</ele>
        <time>2020-08-11T09:50:47Z</time>
      </trkpt>
      <trkpt lat="45.16204" lon="5.97201">
        <ele>2646.4</ele>
        <time>2020-08-11T09:50:48Z</time>
      </trkpt>
      <trkpt lat="45.16203" lon="5.97201">
        <ele>2646.6</ele>
        <time>2020-08-11T09:50:49Z</time>
      </trkpt>
      <trkpt lat="45.16203" lon="5.97201">
        <ele>2647</ele>
        <time>2020-08-11T09:50:50Z</time>
      </trkpt>
      <trkpt lat="45.16203" lon="5.97199">
        <ele>2647.4</ele>
        <time>2020-08-11T09:50:51Z</time>
      </trkpt>
      <trkpt lat="45.16204" lon="5.97198">
        <ele>2647.8</ele>
        <time>2020-08-11T09:50:52Z</time>
      </trkpt>
      <trkpt lat="45.16204" lon="5.97196">
        <ele>2648</ele>
        <time>2020-08-11T09:50:53Z</time>
      </trkpt>
      <trkpt lat="45.16204" lon="5.97194">
        <ele>2648.2</ele>
        <time>2020-08-11T09:50:54Z</time>
      </trkpt>
      <trkpt lat="45.16205" lon="5.97192">
        <ele>2648.2</ele>
        <time>2020-08-11T09:50:55Z</time>
      </trkpt>
      <trkpt lat="45.16205" lon="5.9719">
        <ele>2648.2</ele>
        <time>2020-08-11T09:50:56Z</time>
      </trkpt>
      <trkpt lat="45.16206" lon="5.97188">
        <ele>2648.6</ele>
        <time>2020-08-11T09:50:57Z</time>
      </trkpt>
      <trkpt lat="45.16207" lon="5.97182">
        <ele>2648.8</ele>
        <time>2020-08-11T09:50:58Z</time>
      </trkpt>
      <trkpt lat="45.16209" lon="5.97176">
        <ele>2649.2</ele>
        <time>2020-08-11T09:50:59Z</time>
      </trkpt>
      <trkpt lat="45.16211" lon="5.9717">
        <ele>2649.4</ele>
        <time>2020-08-11T09:51:00Z</time>
      </trkpt>
      <trkpt lat="45.16211" lon="5.9717">
        <ele>2649.8</ele>
        <time>2020-08-11T09:51:01Z</time>
      </trkpt>
      <trkpt lat="45.16211" lon="5.97169">
        <ele>2650</ele>
        <time>2020-08-11T09:51:02Z</time>
      </trkpt>
      <trkpt lat="45.1621" lon="5.97169">
        <ele>2650</ele>
        <time>2020-08-11T09:51:03Z</time>
      </trkpt>
      <trkpt lat="45.1621" lon="5.97168">
        <ele>2650.2</ele>
        <time>2020-08-11T09:51:04Z</time>
      </trkpt>
      <trkpt lat="45.1621" lon="5.97168">
        <ele>2650.2</ele>
        <time>2020-08-11T09:51:05Z</time>
      </trkpt>
      <trkpt lat="45.1621" lon="5.97168">
        <ele>2650</ele>
        <time>2020-08-11T09:51:06Z</time>
      </trkpt>
      <trkpt lat="45.1621" lon="5.97167">
        <ele>2650.2</ele>
        <time>2020-08-11T09:51:07Z</time>
      </trkpt>
      <trkpt lat="45.1621" lon="5.97167">
        <ele>2650.6</ele>
        <time>2020-08-11T09:51:08Z</time>
      </trkpt>
      <trkpt lat="45.1621" lon="5.97166">
        <ele>2651</ele>
        <time>2020-08-11T09:51:09Z</time>
      </trkpt>
      <trkpt lat="45.1621" lon="5.97166">
        <ele>2651.2</ele>
        <time>2020-08-11T09:51:10Z</time>
      </trkpt>
      <trkpt lat="45.16209" lon="5.97166">
        <ele>2651</ele>
        <time>2020-08-11T09:51:11Z</time>
      </trkpt>
      <trkpt lat="45.16209" lon="5.97165">
        <ele>2651.4</ele>
        <time>2020-08-11T09:51:12Z</time>
      </trkpt>
      <trkpt lat="45.16209" lon="5.97165">
        <ele>2651.4</ele>
        <time>2020-08-11T09:51:13Z</time>
      </trkpt>
      <trkpt lat="45.16209" lon="5.97164">
        <ele>2651.4</ele>
        <time>2020-08-11T09:51:14Z</time>
      </trkpt>
      <trkpt lat="45.16209" lon="5.97164">
        <ele>2651.8</ele>
        <time>2020-08-11T09:51:15Z</time>
      </trkpt>
      <trkpt lat="45.16209" lon="5.97163">
        <ele>2652.2</ele>
        <time>2020-08-11T09:51:16Z</time>
      </trkpt>
      <trkpt lat="45.16209" lon="5.97163">
        <ele>2652.4</ele>
        <time>2020-08-11T09:51:17Z</time>
      </trkpt>
      <trkpt lat="45.16209" lon="5.97163">
        <ele>2652.8</ele>
        <time>2020-08-11T09:51:18Z</time>
      </trkpt>
      <trkpt lat="45.16208" lon="5.97162">
        <ele>2652.8</ele>
        <time>2020-08-11T09:51:19Z</time>
      </trkpt>
      <trkpt lat="45.16208" lon="5.97162">
        <ele>2652.8</ele>
        <time>2020-08-11T09:51:20Z</time>
      </trkpt>
      <trkpt lat="45.16208" lon="5.97162">
        <ele>2652.8</ele>
        <time>2020-08-11T09:51:21Z</time>
      </trkpt>
      <trkpt lat="45.16208" lon="5.97162">
        <ele>2653.2</ele>
        <time>2020-08-11T09:51:22Z</time>
      </trkpt>
      <trkpt lat="45.16208" lon="5.97162">
        <ele>2653.4</ele>
        <time>2020-08-11T09:51:23Z</time>
      </trkpt>
      <trkpt lat="45.16208" lon="5.97162">
        <ele>2653.4</ele>
        <time>2020-08-11T09:51:24Z</time>
      </trkpt>
      <trkpt lat="45.16208" lon="5.97162">
        <ele>2653.4</ele>
        <time>2020-08-11T09:51:25Z</time>
      </trkpt>
      <trkpt lat="45.16208" lon="5.97162">
        <ele>2653.2</ele>
        <time>2020-08-11T09:51:26Z</time>
      </trkpt>
      <trkpt lat="45.16208" lon="5.97162">
        <ele>2653.6</ele>
        <time>2020-08-11T09:51:27Z</time>
      </trkpt>
      <trkpt lat="45.16208" lon="5.97162">
        <ele>2653.8</ele>
        <time>2020-08-11T09:51:28Z</time>
      </trkpt>
      <trkpt lat="45.16208" lon="5.97162">
        <ele>2653.8</ele>
        <time>2020-08-11T09:51:29Z</time>
      </trkpt>
      <trkpt lat="45.16208" lon="5.97162">
        <ele>2654.2</ele>
        <time>2020-08-11T09:51:30Z</time>
      </trkpt>
      <trkpt lat="45.16208" lon="5.97162">
        <ele>2654.2</ele>
        <time>2020-08-11T09:51:31Z</time>
      </trkpt>
      <trkpt lat="45.16208" lon="5.97162">
        <ele>2654.4</ele>
        <time>2020-08-11T09:51:32Z</time>
      </trkpt>
      <trkpt lat="45.16208" lon="5.97162">
        <ele>2654.8</ele>
        <time>2020-08-11T09:51:33Z</time>
      </trkpt>
      <trkpt lat="45.16208" lon="5.97162">
        <ele>2655.4</ele>
        <time>2020-08-11T09:51:34Z</time>
      </trkpt>
      <trkpt lat="45.16208" lon="5.97162">
        <ele>2655.2</ele>
        <time>2020-08-11T09:51:35Z</time>
      </trkpt>
      <trkpt lat="45.16208" lon="5.97162">
        <ele>2655.6</ele>
        <time>2020-08-11T09:51:36Z</time>
      </trkpt>
      <trkpt lat="45.16208" lon="5.97162">
        <ele>2655.6</ele>
        <time>2020-08-11T09:51:37Z</time>
      </trkpt>
      <trkpt lat="45.16208" lon="5.97162">
        <ele>2655.8</ele>
        <time>2020-08-11T09:51:38Z</time>
      </trkpt>
      <trkpt lat="45.16208" lon="5.97162">
        <ele>2655.8</ele>
        <time>2020-08-11T09:51:39Z</time>
      </trkpt>
      <trkpt lat="45.16211" lon="5.9716">
        <ele>2655.6</ele>
        <time>2020-08-11T09:51:40Z</time>
      </trkpt>
      <trkpt lat="45.16211" lon="5.9716">
        <ele>2656</ele>
        <time>2020-08-11T09:51:41Z</time>
      </trkpt>
      <trkpt lat="45.16211" lon="5.9716">
        <ele>2656</ele>
        <time>2020-08-11T09:51:42Z</time>
      </trkpt>
      <trkpt lat="45.16211" lon="5.9716">
        <ele>2656.2</ele>
        <time>2020-08-11T09:51:43Z</time>
      </trkpt>
      <trkpt lat="45.16211" lon="5.9716">
        <ele>2656.4</ele>
        <time>2020-08-11T09:51:44Z</time>
      </trkpt>
      <trkpt lat="45.16211" lon="5.9716">
        <ele>2656.6</ele>
        <time>2020-08-11T09:51:45Z</time>
      </trkpt>
      <trkpt lat="45.1621" lon="5.97158">
        <ele>2656.6</ele>
        <time>2020-08-11T09:51:46Z</time>
      </trkpt>
      <trkpt lat="45.1621" lon="5.97158">
        <ele>2656.8</ele>
        <time>2020-08-11T09:51:47Z</time>
      </trkpt>
      <trkpt lat="45.1621" lon="5.97158">
        <ele>2657.2</ele>
        <time>2020-08-11T09:51:48Z</time>
      </trkpt>
      <trkpt lat="45.16208" lon="5.97156">
        <ele>2657.2</ele>
        <time>2020-08-11T09:51:49Z</time>
      </trkpt>
      <trkpt lat="45.16208" lon="5.97156">
        <ele>2657.2</ele>
        <time>2020-08-11T09:51:50Z</time>
      </trkpt>
      <trkpt lat="45.16208" lon="5.97156">
        <ele>2657.4</ele>
        <time>2020-08-11T09:51:51Z</time>
      </trkpt>
      <trkpt lat="45.16208" lon="5.97156">
        <ele>2657.4</ele>
        <time>2020-08-11T09:51:52Z</time>
      </trkpt>
      <trkpt lat="45.16208" lon="5.97156">
        <ele>2657.6</ele>
        <time>2020-08-11T09:51:53Z</time>
      </trkpt>
      <trkpt lat="45.16208" lon="5.97156">
        <ele>2657.6</ele>
        <time>2020-08-11T09:51:54Z</time>
      </trkpt>
      <trkpt lat="45.16209" lon="5.97154">
        <ele>2657.8</ele>
        <time>2020-08-11T09:51:55Z</time>
      </trkpt>
      <trkpt lat="45.16209" lon="5.97154">
        <ele>2658</ele>
        <time>2020-08-11T09:51:56Z</time>
      </trkpt>
      <trkpt lat="45.16209" lon="5.97154">
        <ele>2658.2</ele>
        <time>2020-08-11T09:51:57Z</time>
      </trkpt>
      <trkpt lat="45.16209" lon="5.97154">
        <ele>2658.4</ele>
        <time>2020-08-11T09:51:58Z</time>
      </trkpt>
      <trkpt lat="45.16209" lon="5.97154">
        <ele>2658.4</ele>
        <time>2020-08-11T09:51:59Z</time>
      </trkpt>
      <trkpt lat="45.16209" lon="5.97154">
        <ele>2658.4</ele>
        <time>2020-08-11T09:52:00Z</time>
      </trkpt>
      <trkpt lat="45.16209" lon="5.97154">
        <ele>2658.8</ele>
        <time>2020-08-11T09:52:01Z</time>
      </trkpt>
      <trkpt lat="45.16211" lon="5.97153">
        <ele>2658.8</ele>
        <time>2020-08-11T09:52:02Z</time>
      </trkpt>
      <trkpt lat="45.16211" lon="5.97153">
        <ele>2659</ele>
        <time>2020-08-11T09:52:03Z</time>
      </trkpt>
      <trkpt lat="45.16211" lon="5.97153">
        <ele>2659</ele>
        <time>2020-08-11T09:52:04Z</time>
      </trkpt>
      <trkpt lat="45.16211" lon="5.97153">
        <ele>2659.4</ele>
        <time>2020-08-11T09:52:05Z</time>
      </trkpt>
      <trkpt lat="45.16211" lon="5.97153">
        <ele>2659.6</ele>
        <time>2020-08-11T09:52:06Z</time>
      </trkpt>
      <trkpt lat="45.16211" lon="5.97153">
        <ele>2659.8</ele>
        <time>2020-08-11T09:52:07Z</time>
      </trkpt>
      <trkpt lat="45.16214" lon="5.97153">
        <ele>2660</ele>
        <time>2020-08-11T09:52:08Z</time>
      </trkpt>
      <trkpt lat="45.16214" lon="5.97153">
        <ele>2660.2</ele>
        <time>2020-08-11T09:52:09Z</time>
      </trkpt>
      <trkpt lat="45.16216" lon="5.97151">
        <ele>2660.8</ele>
        <time>2020-08-11T09:52:10Z</time>
      </trkpt>
      <trkpt lat="45.16216" lon="5.97151">
        <ele>2661</ele>
        <time>2020-08-11T09:52:11Z</time>
      </trkpt>
      <trkpt lat="45.16216" lon="5.97151">
        <ele>2661</ele>
        <time>2020-08-11T09:52:12Z</time>
      </trkpt>
      <trkpt lat="45.16216" lon="5.97151">
        <ele>2660.8</ele>
        <time>2020-08-11T09:52:13Z</time>
      </trkpt>
      <trkpt lat="45.16216" lon="5.97151">
        <ele>2661.2</ele>
        <time>2020-08-11T09:52:14Z</time>
      </trkpt>
      <trkpt lat="45.16217" lon="5.97149">
        <ele>2661.4</ele>
        <time>2020-08-11T09:52:15Z</time>
      </trkpt>
      <trkpt lat="45.16217" lon="5.97149">
        <ele>2661.6</ele>
        <time>2020-08-11T09:52:16Z</time>
      </trkpt>
      <trkpt lat="45.16217" lon="5.97149">
        <ele>2662.2</ele>
        <time>2020-08-11T09:52:17Z</time>
      </trkpt>
      <trkpt lat="45.16217" lon="5.97149">
        <ele>2662</ele>
        <time>2020-08-11T09:52:18Z</time>
      </trkpt>
      <trkpt lat="45.16217" lon="5.97149">
        <ele>2661.8</ele>
        <time>2020-08-11T09:52:19Z</time>
      </trkpt>
      <trkpt lat="45.16217" lon="5.97149">
        <ele>2662</ele>
        <time>2020-08-11T09:52:20Z</time>
      </trkpt>
      <trkpt lat="45.16217" lon="5.97149">
        <ele>2662</ele>
        <time>2020-08-11T09:52:21Z</time>
      </trkpt>
      <trkpt lat="45.16217" lon="5.97149">
        <ele>2662.4</ele>
        <time>2020-08-11T09:52:22Z</time>
      </trkpt>
      <trkpt lat="45.16217" lon="5.97149">
        <ele>2661.2</ele>
        <time>2020-08-11T09:52:23Z</time>
      </trkpt>
      <trkpt lat="45.16218" lon="5.97149">
        <ele>2662</ele>
        <time>2020-08-11T09:52:24Z</time>
      </trkpt>
      <trkpt lat="45.16218" lon="5.97149">
        <ele>2662.6</ele>
        <time>2020-08-11T09:52:25Z</time>
      </trkpt>
      <trkpt lat="45.16218" lon="5.9715">
        <ele>2663</ele>
        <time>2020-08-11T09:52:26Z</time>
      </trkpt>
      <trkpt lat="45.16218" lon="5.9715">
        <ele>2663.4</ele>
        <time>2020-08-11T09:52:27Z</time>
      </trkpt>
      <trkpt lat="45.16218" lon="5.9715">
        <ele>2662</ele>
        <time>2020-08-11T09:52:28Z</time>
      </trkpt>
      <trkpt lat="45.16218" lon="5.9715">
        <ele>2662.6</ele>
        <time>2020-08-11T09:52:29Z</time>
      </trkpt>
      <trkpt lat="45.16218" lon="5.9715">
        <ele>2663.2</ele>
        <time>2020-08-11T09:52:30Z</time>
      </trkpt>
      <trkpt lat="45.16218" lon="5.9715">
        <ele>2663.4</ele>
        <time>2020-08-11T09:52:31Z</time>
      </trkpt>
      <trkpt lat="45.16218" lon="5.9715">
        <ele>2664</ele>
        <time>2020-08-11T09:52:32Z</time>
      </trkpt>
      <trkpt lat="45.16218" lon="5.9715">
        <ele>2664.2</ele>
        <time>2020-08-11T09:52:33Z</time>
      </trkpt>
      <trkpt lat="45.16218" lon="5.9715">
        <ele>2664.8</ele>
        <time>2020-08-11T09:52:34Z</time>
      </trkpt>
      <trkpt lat="45.16219" lon="5.97151">
        <ele>2663.6</ele>
        <time>2020-08-11T09:52:35Z</time>
      </trkpt>
      <trkpt lat="45.16219" lon="5.97151">
        <ele>2664.6</ele>
        <time>2020-08-11T09:52:36Z</time>
      </trkpt>
      <trkpt lat="45.16219" lon="5.97151">
        <ele>2665</ele>
        <time>2020-08-11T09:52:37Z</time>
      </trkpt>
      <trkpt lat="45.16219" lon="5.97151">
        <ele>2665.4</ele>
        <time>2020-08-11T09:52:38Z</time>
      </trkpt>
      <trkpt lat="45.16219" lon="5.97151">
        <ele>2665.8</ele>
        <time>2020-08-11T09:52:39Z</time>
      </trkpt>
      <trkpt lat="45.16219" lon="5.97151">
        <ele>2666.2</ele>
        <time>2020-08-11T09:52:40Z</time>
      </trkpt>
      <trkpt lat="45.16219" lon="5.97151">
        <ele>2666.6</ele>
        <time>2020-08-11T09:52:41Z</time>
      </trkpt>
      <trkpt lat="45.16219" lon="5.97151">
        <ele>2666.8</ele>
        <time>2020-08-11T09:52:42Z</time>
      </trkpt>
      <trkpt lat="45.16219" lon="5.97151">
        <ele>2667</ele>
        <time>2020-08-11T09:52:43Z</time>
      </trkpt>
      <trkpt lat="45.16219" lon="5.97151">
        <ele>2667.6</ele>
        <time>2020-08-11T09:52:44Z</time>
      </trkpt>
      <trkpt lat="45.1622" lon="5.97152">
        <ele>2668</ele>
        <time>2020-08-11T09:52:45Z</time>
      </trkpt>
      <trkpt lat="45.1622" lon="5.97152">
        <ele>2668.6</ele>
        <time>2020-08-11T09:52:46Z</time>
      </trkpt>
      <trkpt lat="45.1622" lon="5.97152">
        <ele>2668.8</ele>
        <time>2020-08-11T09:52:47Z</time>
      </trkpt>
      <trkpt lat="45.1622" lon="5.97152">
        <ele>2668.6</ele>
        <time>2020-08-11T09:52:48Z</time>
      </trkpt>
      <trkpt lat="45.1622" lon="5.97152">
        <ele>2669.2</ele>
        <time>2020-08-11T09:52:49Z</time>
      </trkpt>
      <trkpt lat="45.1622" lon="5.97152">
        <ele>2669.6</ele>
        <time>2020-08-11T09:52:50Z</time>
      </trkpt>
      <trkpt lat="45.1622" lon="5.97152">
        <ele>2669.6</ele>
        <time>2020-08-11T09:52:51Z</time>
      </trkpt>
      <trkpt lat="45.1622" lon="5.97152">
        <ele>2669.6</ele>
        <time>2020-08-11T09:52:52Z</time>
      </trkpt>
      <trkpt lat="45.1622" lon="5.97152">
        <ele>2669.6</ele>
        <time>2020-08-11T09:52:53Z</time>
      </trkpt>
      <trkpt lat="45.1622" lon="5.97153">
        <ele>2669.6</ele>
        <time>2020-08-11T09:52:54Z</time>
      </trkpt>
      <trkpt lat="45.1622" lon="5.97153">
        <ele>2669.6</ele>
        <time>2020-08-11T09:52:55Z</time>
      </trkpt>
      <trkpt lat="45.16221" lon="5.97153">
        <ele>2670.2</ele>
        <time>2020-08-11T09:52:56Z</time>
      </trkpt>
      <trkpt lat="45.16221" lon="5.97153">
        <ele>2670.4</ele>
        <time>2020-08-11T09:52:57Z</time>
      </trkpt>
      <trkpt lat="45.16221" lon="5.97153">
        <ele>2670.6</ele>
        <time>2020-08-11T09:52:58Z</time>
      </trkpt>
      <trkpt lat="45.16221" lon="5.97153">
        <ele>2670.8</ele>
        <time>2020-08-11T09:52:59Z</time>
      </trkpt>
      <trkpt lat="45.16221" lon="5.97153">
        <ele>2670.8</ele>
        <time>2020-08-11T09:53:00Z</time>
      </trkpt>
      <trkpt lat="45.16221" lon="5.97153">
        <ele>2671</ele>
        <time>2020-08-11T09:53:01Z</time>
      </trkpt>
      <trkpt lat="45.16221" lon="5.97153">
        <ele>2671.4</ele>
        <time>2020-08-11T09:53:02Z</time>
      </trkpt>
      <trkpt lat="45.16221" lon="5.97153">
        <ele>2671.6</ele>
        <time>2020-08-11T09:53:03Z</time>
      </trkpt>
      <trkpt lat="45.16221" lon="5.97153">
        <ele>2671.8</ele>
        <time>2020-08-11T09:53:04Z</time>
      </trkpt>
      <trkpt lat="45.16221" lon="5.97153">
        <ele>2672</ele>
        <time>2020-08-11T09:53:05Z</time>
      </trkpt>
      <trkpt lat="45.16221" lon="5.97153">
        <ele>2671.8</ele>
        <time>2020-08-11T09:53:06Z</time>
      </trkpt>
      <trkpt lat="45.16221" lon="5.97153">
        <ele>2672.2</ele>
        <time>2020-08-11T09:53:07Z</time>
      </trkpt>
      <trkpt lat="45.16221" lon="5.97153">
        <ele>2672.8</ele>
        <time>2020-08-11T09:53:08Z</time>
      </trkpt>
      <trkpt lat="45.16221" lon="5.97153">
        <ele>2673</ele>
        <time>2020-08-11T09:53:09Z</time>
      </trkpt>
      <trkpt lat="45.16221" lon="5.97153">
        <ele>2673.6</ele>
        <time>2020-08-11T09:53:10Z</time>
      </trkpt>
      <trkpt lat="45.16221" lon="5.97153">
        <ele>2673.4</ele>
        <time>2020-08-11T09:53:11Z</time>
      </trkpt>
      <trkpt lat="45.16221" lon="5.97153">
        <ele>2673.4</ele>
        <time>2020-08-11T09:53:12Z</time>
      </trkpt>
      <trkpt lat="45.16223" lon="5.97149">
        <ele>2673.8</ele>
        <time>2020-08-11T09:53:13Z</time>
      </trkpt>
      <trkpt lat="45.16223" lon="5.97149">
        <ele>2673.8</ele>
        <time>2020-08-11T09:53:14Z</time>
      </trkpt>
      <trkpt lat="45.16223" lon="5.97149">
        <ele>2674</ele>
        <time>2020-08-11T09:53:15Z</time>
      </trkpt>
      <trkpt lat="45.16223" lon="5.97149">
        <ele>2674.4</ele>
        <time>2020-08-11T09:53:16Z</time>
      </trkpt>
      <trkpt lat="45.16223" lon="5.97149">
        <ele>2674.6</ele>
        <time>2020-08-11T09:53:17Z</time>
      </trkpt>
      <trkpt lat="45.16223" lon="5.97149">
        <ele>2674.6</ele>
        <time>2020-08-11T09:53:18Z</time>
      </trkpt>
      <trkpt lat="45.16223" lon="5.97149">
        <ele>2674.6</ele>
        <time>2020-08-11T09:53:19Z</time>
      </trkpt>
      <trkpt lat="45.16223" lon="5.97146">
        <ele>2674.6</ele>
        <time>2020-08-11T09:53:20Z</time>
      </trkpt>
      <trkpt lat="45.16223" lon="5.97146">
        <ele>2674.8</ele>
        <time>2020-08-11T09:53:21Z</time>
      </trkpt>
      <trkpt lat="45.16223" lon="5.97146">
        <ele>2675</ele>
        <time>2020-08-11T09:53:22Z</time>
      </trkpt>
      <trkpt lat="45.16223" lon="5.97146">
        <ele>2675.2</ele>
        <time>2020-08-11T09:53:23Z</time>
      </trkpt>
      <trkpt lat="45.16223" lon="5.97146">
        <ele>2675.6</ele>
        <time>2020-08-11T09:53:24Z</time>
      </trkpt>
      <trkpt lat="45.16223" lon="5.97146">
        <ele>2675.6</ele>
        <time>2020-08-11T09:53:25Z</time>
      </trkpt>
      <trkpt lat="45.16223" lon="5.97146">
        <ele>2675.8</ele>
        <time>2020-08-11T09:53:26Z</time>
      </trkpt>
      <trkpt lat="45.16223" lon="5.97146">
        <ele>2675.8</ele>
        <time>2020-08-11T09:53:27Z</time>
      </trkpt>
      <trkpt lat="45.16223" lon="5.97146">
        <ele>2676</ele>
        <time>2020-08-11T09:53:28Z</time>
      </trkpt>
      <trkpt lat="45.16223" lon="5.97146">
        <ele>2676.2</ele>
        <time>2020-08-11T09:53:29Z</time>
      </trkpt>
      <trkpt lat="45.16223" lon="5.97146">
        <ele>2676.6</ele>
        <time>2020-08-11T09:53:30Z</time>
      </trkpt>
      <trkpt lat="45.16223" lon="5.97146">
        <ele>2676.2</ele>
        <time>2020-08-11T09:53:31Z</time>
      </trkpt>
      <trkpt lat="45.16223" lon="5.97146">
        <ele>2676.6</ele>
        <time>2020-08-11T09:53:32Z</time>
      </trkpt>
      <trkpt lat="45.16221" lon="5.97144">
        <ele>2677</ele>
        <time>2020-08-11T09:53:33Z</time>
      </trkpt>
      <trkpt lat="45.16221" lon="5.97144">
        <ele>2677.2</ele>
        <time>2020-08-11T09:53:34Z</time>
      </trkpt>
      <trkpt lat="45.16221" lon="5.97144">
        <ele>2677.4</ele>
        <time>2020-08-11T09:53:35Z</time>
      </trkpt>
      <trkpt lat="45.16221" lon="5.97144">
        <ele>2677.6</ele>
        <time>2020-08-11T09:53:36Z</time>
      </trkpt>
      <trkpt lat="45.16221" lon="5.97144">
        <ele>2677.6</ele>
        <time>2020-08-11T09:53:37Z</time>
      </trkpt>
      <trkpt lat="45.16221" lon="5.97144">
        <ele>2678</ele>
        <time>2020-08-11T09:53:38Z</time>
      </trkpt>
      <trkpt lat="45.16221" lon="5.97144">
        <ele>2678</ele>
        <time>2020-08-11T09:53:39Z</time>
      </trkpt>
      <trkpt lat="45.1622" lon="5.97146">
        <ele>2678.4</ele>
        <time>2020-08-11T09:53:40Z</time>
      </trkpt>
      <trkpt lat="45.1622" lon="5.97146">
        <ele>2678.8</ele>
        <time>2020-08-11T09:53:41Z</time>
      </trkpt>
      <trkpt lat="45.1622" lon="5.97146">
        <ele>2679.4</ele>
        <time>2020-08-11T09:53:42Z</time>
      </trkpt>
      <trkpt lat="45.1622" lon="5.97146">
        <ele>2679.6</ele>
        <time>2020-08-11T09:53:43Z</time>
      </trkpt>
      <trkpt lat="45.1622" lon="5.97146">
        <ele>2679.8</ele>
        <time>2020-08-11T09:53:44Z</time>
      </trkpt>
      <trkpt lat="45.1622" lon="5.97146">
        <ele>2680</ele>
        <time>2020-08-11T09:53:45Z</time>
      </trkpt>
      <trkpt lat="45.1622" lon="5.97146">
        <ele>2680</ele>
        <time>2020-08-11T09:53:46Z</time>
      </trkpt>
      <trkpt lat="45.1622" lon="5.97146">
        <ele>2680.2</ele>
        <time>2020-08-11T09:53:47Z</time>
      </trkpt>
      <trkpt lat="45.1622" lon="5.97146">
        <ele>2680.8</ele>
        <time>2020-08-11T09:53:48Z</time>
      </trkpt>
      <trkpt lat="45.16219" lon="5.97143">
        <ele>2681</ele>
        <time>2020-08-11T09:53:49Z</time>
      </trkpt>
      <trkpt lat="45.16219" lon="5.97143">
        <ele>2681.2</ele>
        <time>2020-08-11T09:53:50Z</time>
      </trkpt>
      <trkpt lat="45.16219" lon="5.97143">
        <ele>2681.4</ele>
        <time>2020-08-11T09:53:51Z</time>
      </trkpt>
      <trkpt lat="45.16219" lon="5.97143">
        <ele>2681.4</ele>
        <time>2020-08-11T09:53:52Z</time>
      </trkpt>
      <trkpt lat="45.16217" lon="5.97143">
        <ele>2681.6</ele>
        <time>2020-08-11T09:53:53Z</time>
      </trkpt>
      <trkpt lat="45.16217" lon="5.97143">
        <ele>2681.6</ele>
        <time>2020-08-11T09:53:54Z</time>
      </trkpt>
      <trkpt lat="45.16217" lon="5.97143">
        <ele>2681.6</ele>
        <time>2020-08-11T09:53:55Z</time>
      </trkpt>
      <trkpt lat="45.16217" lon="5.97143">
        <ele>2682.2</ele>
        <time>2020-08-11T09:53:56Z</time>
      </trkpt>
      <trkpt lat="45.16218" lon="5.97141">
        <ele>2682.2</ele>
        <time>2020-08-11T09:53:57Z</time>
      </trkpt>
      <trkpt lat="45.16218" lon="5.97141">
        <ele>2682.2</ele>
        <time>2020-08-11T09:53:58Z</time>
      </trkpt>
      <trkpt lat="45.16218" lon="5.97141">
        <ele>2682.2</ele>
        <time>2020-08-11T09:53:59Z</time>
      </trkpt>
      <trkpt lat="45.16218" lon="5.97141">
        <ele>2682.2</ele>
        <time>2020-08-11T09:54:00Z</time>
      </trkpt>
      <trkpt lat="45.16217" lon="5.97137">
        <ele>2682.6</ele>
        <time>2020-08-11T09:54:01Z</time>
      </trkpt>
      <trkpt lat="45.16217" lon="5.97137">
        <ele>2682.8</ele>
        <time>2020-08-11T09:54:02Z</time>
      </trkpt>
      <trkpt lat="45.16217" lon="5.97137">
        <ele>2683</ele>
        <time>2020-08-11T09:54:03Z</time>
      </trkpt>
      <trkpt lat="45.16217" lon="5.97137">
        <ele>2683.2</ele>
        <time>2020-08-11T09:54:04Z</time>
      </trkpt>
      <trkpt lat="45.16217" lon="5.97137">
        <ele>2683.6</ele>
        <time>2020-08-11T09:54:05Z</time>
      </trkpt>
      <trkpt lat="45.16217" lon="5.97137">
        <ele>2684</ele>
        <time>2020-08-11T09:54:06Z</time>
      </trkpt>
      <trkpt lat="45.16217" lon="5.97137">
        <ele>2684.4</ele>
        <time>2020-08-11T09:54:07Z</time>
      </trkpt>
      <trkpt lat="45.16217" lon="5.97134">
        <ele>2684.6</ele>
        <time>2020-08-11T09:54:08Z</time>
      </trkpt>
      <trkpt lat="45.16217" lon="5.97134">
        <ele>2684.8</ele>
        <time>2020-08-11T09:54:09Z</time>
      </trkpt>
      <trkpt lat="45.16217" lon="5.97134">
        <ele>2685</ele>
        <time>2020-08-11T09:54:10Z</time>
      </trkpt>
      <trkpt lat="45.16217" lon="5.97134">
        <ele>2685.2</ele>
        <time>2020-08-11T09:54:11Z</time>
      </trkpt>
      <trkpt lat="45.16217" lon="5.97131">
        <ele>2685.2</ele>
        <time>2020-08-11T09:54:12Z</time>
      </trkpt>
      <trkpt lat="45.16217" lon="5.97131">
        <ele>2685.4</ele>
        <time>2020-08-11T09:54:13Z</time>
      </trkpt>
      <trkpt lat="45.16217" lon="5.97131">
        <ele>2685.4</ele>
        <time>2020-08-11T09:54:14Z</time>
      </trkpt>
      <trkpt lat="45.16216" lon="5.97128">
        <ele>2685.6</ele>
        <time>2020-08-11T09:54:15Z</time>
      </trkpt>
      <trkpt lat="45.16216" lon="5.97128">
        <ele>2686</ele>
        <time>2020-08-11T09:54:16Z</time>
      </trkpt>
      <trkpt lat="45.16216" lon="5.97128">
        <ele>2686.2</ele>
        <time>2020-08-11T09:54:17Z</time>
      </trkpt>
      <trkpt lat="45.16216" lon="5.97128">
        <ele>2686.4</ele>
        <time>2020-08-11T09:54:18Z</time>
      </trkpt>
      <trkpt lat="45.16216" lon="5.97128">
        <ele>2686.4</ele>
        <time>2020-08-11T09:54:19Z</time>
      </trkpt>
      <trkpt lat="45.16216" lon="5.97128">
        <ele>2686.8</ele>
        <time>2020-08-11T09:54:20Z</time>
      </trkpt>
      <trkpt lat="45.16215" lon="5.97125">
        <ele>2687</ele>
        <time>2020-08-11T09:54:21Z</time>
      </trkpt>
      <trkpt lat="45.16215" lon="5.97125">
        <ele>2687.2</ele>
        <time>2020-08-11T09:54:22Z</time>
      </trkpt>
      <trkpt lat="45.16215" lon="5.97125">
        <ele>2687.2</ele>
        <time>2020-08-11T09:54:23Z</time>
      </trkpt>
      <trkpt lat="45.16215" lon="5.97125">
        <ele>2687.4</ele>
        <time>2020-08-11T09:54:24Z</time>
      </trkpt>
      <trkpt lat="45.16214" lon="5.97122">
        <ele>2687.8</ele>
        <time>2020-08-11T09:54:25Z</time>
      </trkpt>
      <trkpt lat="45.16214" lon="5.97122">
        <ele>2688</ele>
        <time>2020-08-11T09:54:26Z</time>
      </trkpt>
      <trkpt lat="45.16214" lon="5.97122">
        <ele>2688.2</ele>
        <time>2020-08-11T09:54:27Z</time>
      </trkpt>
      <trkpt lat="45.16215" lon="5.9712">
        <ele>2689</ele>
        <time>2020-08-11T09:54:28Z</time>
      </trkpt>
      <trkpt lat="45.16215" lon="5.9712">
        <ele>2689.2</ele>
        <time>2020-08-11T09:54:29Z</time>
      </trkpt>
      <trkpt lat="45.16215" lon="5.9712">
        <ele>2689.4</ele>
        <time>2020-08-11T09:54:30Z</time>
      </trkpt>
      <trkpt lat="45.16215" lon="5.9712">
        <ele>2689.4</ele>
        <time>2020-08-11T09:54:31Z</time>
      </trkpt>
      <trkpt lat="45.16215" lon="5.9712">
        <ele>2689.8</ele>
        <time>2020-08-11T09:54:32Z</time>
      </trkpt>
      <trkpt lat="45.16215" lon="5.9712">
        <ele>2689.6</ele>
        <time>2020-08-11T09:54:33Z</time>
      </trkpt>
      <trkpt lat="45.16215" lon="5.9712">
        <ele>2689.6</ele>
        <time>2020-08-11T09:54:34Z</time>
      </trkpt>
      <trkpt lat="45.16215" lon="5.9712">
        <ele>2689.6</ele>
        <time>2020-08-11T09:54:35Z</time>
      </trkpt>
      <trkpt lat="45.16215" lon="5.9712">
        <ele>2689.6</ele>
        <time>2020-08-11T09:54:36Z</time>
      </trkpt>
      <trkpt lat="45.16215" lon="5.9712">
        <ele>2689.8</ele>
        <time>2020-08-11T09:54:37Z</time>
      </trkpt>
      <trkpt lat="45.16215" lon="5.9712">
        <ele>2690</ele>
        <time>2020-08-11T09:54:38Z</time>
      </trkpt>
      <trkpt lat="45.16215" lon="5.9712">
        <ele>2690.2</ele>
        <time>2020-08-11T09:54:39Z</time>
      </trkpt>
      <trkpt lat="45.16215" lon="5.9712">
        <ele>2690.4</ele>
        <time>2020-08-11T09:54:40Z</time>
      </trkpt>
      <trkpt lat="45.16215" lon="5.9712">
        <ele>2690.6</ele>
        <time>2020-08-11T09:54:41Z</time>
      </trkpt>
      <trkpt lat="45.16215" lon="5.9712">
        <ele>2691</ele>
        <time>2020-08-11T09:54:42Z</time>
      </trkpt>
      <trkpt lat="45.16215" lon="5.9712">
        <ele>2691.2</ele>
        <time>2020-08-11T09:54:43Z</time>
      </trkpt>
      <trkpt lat="45.16215" lon="5.9712">
        <ele>2691.4</ele>
        <time>2020-08-11T09:54:44Z</time>
      </trkpt>
      <trkpt lat="45.16215" lon="5.9712">
        <ele>2691.8</ele>
        <time>2020-08-11T09:54:45Z</time>
      </trkpt>
      <trkpt lat="45.16215" lon="5.9712">
        <ele>2692.2</ele>
        <time>2020-08-11T09:54:46Z</time>
      </trkpt>
      <trkpt lat="45.16215" lon="5.9712">
        <ele>2692.4</ele>
        <time>2020-08-11T09:54:47Z</time>
      </trkpt>
      <trkpt lat="45.16215" lon="5.9712">
        <ele>2692.6</ele>
        <time>2020-08-11T09:54:48Z</time>
      </trkpt>
      <trkpt lat="45.16215" lon="5.9712">
        <ele>2692.8</ele>
        <time>2020-08-11T09:54:49Z</time>
      </trkpt>
      <trkpt lat="45.16215" lon="5.9712">
        <ele>2693</ele>
        <time>2020-08-11T09:54:50Z</time>
      </trkpt>
      <trkpt lat="45.16215" lon="5.9712">
        <ele>2693.2</ele>
        <time>2020-08-11T09:54:51Z</time>
      </trkpt>
      <trkpt lat="45.16215" lon="5.9712">
        <ele>2693.2</ele>
        <time>2020-08-11T09:54:52Z</time>
      </trkpt>
      <trkpt lat="45.16215" lon="5.9712">
        <ele>2693.2</ele>
        <time>2020-08-11T09:54:53Z</time>
      </trkpt>
      <trkpt lat="45.16215" lon="5.9712">
        <ele>2693.4</ele>
        <time>2020-08-11T09:54:54Z</time>
      </trkpt>
      <trkpt lat="45.16215" lon="5.9712">
        <ele>2693.2</ele>
        <time>2020-08-11T09:54:55Z</time>
      </trkpt>
      <trkpt lat="45.16215" lon="5.9712">
        <ele>2693.2</ele>
        <time>2020-08-11T09:54:56Z</time>
      </trkpt>
      <trkpt lat="45.16215" lon="5.9712">
        <ele>2693</ele>
        <time>2020-08-11T09:54:57Z</time>
      </trkpt>
      <trkpt lat="45.16215" lon="5.9712">
        <ele>2692.6</ele>
        <time>2020-08-11T09:54:58Z</time>
      </trkpt>
      <trkpt lat="45.16215" lon="5.9712">
        <ele>2692.6</ele>
        <time>2020-08-11T09:54:59Z</time>
      </trkpt>
      <trkpt lat="45.16215" lon="5.9712">
        <ele>2692.6</ele>
        <time>2020-08-11T09:55:00Z</time>
      </trkpt>
      <trkpt lat="45.16215" lon="5.9712">
        <ele>2692.6</ele>
        <time>2020-08-11T09:55:01Z</time>
      </trkpt>
      <trkpt lat="45.16215" lon="5.9712">
        <ele>2692.8</ele>
        <time>2020-08-11T09:55:02Z</time>
      </trkpt>
      <trkpt lat="45.16215" lon="5.9712">
        <ele>2692.8</ele>
        <time>2020-08-11T09:55:03Z</time>
      </trkpt>
      <trkpt lat="45.16215" lon="5.9712">
        <ele>2692.8</ele>
        <time>2020-08-11T09:55:04Z</time>
      </trkpt>
      <trkpt lat="45.16215" lon="5.9712">
        <ele>2692.8</ele>
        <time>2020-08-11T09:55:05Z</time>
      </trkpt>
      <trkpt lat="45.16215" lon="5.9712">
        <ele>2693</ele>
        <time>2020-08-11T09:55:06Z</time>
      </trkpt>
      <trkpt lat="45.16215" lon="5.9712">
        <ele>2692.8</ele>
        <time>2020-08-11T09:55:07Z</time>
      </trkpt>
      <trkpt lat="45.16215" lon="5.9712">
        <ele>2692.8</ele>
        <time>2020-08-11T09:55:08Z</time>
      </trkpt>
      <trkpt lat="45.16215" lon="5.9712">
        <ele>2692.8</ele>
        <time>2020-08-11T09:55:09Z</time>
      </trkpt>
      <trkpt lat="45.16215" lon="5.9712">
        <ele>2692.8</ele>
        <time>2020-08-11T09:55:10Z</time>
      </trkpt>
      <trkpt lat="45.16217" lon="5.97122">
        <ele>2692.8</ele>
        <time>2020-08-11T09:55:11Z</time>
      </trkpt>
      <trkpt lat="45.16217" lon="5.97122">
        <ele>2692.6</ele>
        <time>2020-08-11T09:55:12Z</time>
      </trkpt>
      <trkpt lat="45.16217" lon="5.97122">
        <ele>2692.4</ele>
        <time>2020-08-11T09:55:13Z</time>
      </trkpt>
      <trkpt lat="45.16217" lon="5.97122">
        <ele>2692.4</ele>
        <time>2020-08-11T09:55:14Z</time>
      </trkpt>
      <trkpt lat="45.16217" lon="5.97122">
        <ele>2692.4</ele>
        <time>2020-08-11T09:55:15Z</time>
      </trkpt>
      <trkpt lat="45.16217" lon="5.97122">
        <ele>2692.6</ele>
        <time>2020-08-11T09:55:16Z</time>
      </trkpt>
      <trkpt lat="45.16217" lon="5.97122">
        <ele>2692.6</ele>
        <time>2020-08-11T09:55:17Z</time>
      </trkpt>
      <trkpt lat="45.16217" lon="5.97122">
        <ele>2692.6</ele>
        <time>2020-08-11T09:55:18Z</time>
      </trkpt>
      <trkpt lat="45.16217" lon="5.97122">
        <ele>2692.8</ele>
        <time>2020-08-11T09:55:19Z</time>
      </trkpt>
      <trkpt lat="45.16217" lon="5.97122">
        <ele>2693.2</ele>
        <time>2020-08-11T09:55:20Z</time>
      </trkpt>
      <trkpt lat="45.16217" lon="5.97122">
        <ele>2693.4</ele>
        <time>2020-08-11T09:55:21Z</time>
      </trkpt>
      <trkpt lat="45.16217" lon="5.97122">
        <ele>2693.4</ele>
        <time>2020-08-11T09:55:22Z</time>
      </trkpt>
      <trkpt lat="45.16217" lon="5.97119">
        <ele>2693.4</ele>
        <time>2020-08-11T09:55:23Z</time>
      </trkpt>
      <trkpt lat="45.16217" lon="5.97119">
        <ele>2693.4</ele>
        <time>2020-08-11T09:55:24Z</time>
      </trkpt>
      <trkpt lat="45.16217" lon="5.97119">
        <ele>2693.6</ele>
        <time>2020-08-11T09:55:25Z</time>
      </trkpt>
      <trkpt lat="45.16217" lon="5.97119">
        <ele>2693.8</ele>
        <time>2020-08-11T09:55:26Z</time>
      </trkpt>
      <trkpt lat="45.16217" lon="5.97119">
        <ele>2693.6</ele>
        <time>2020-08-11T09:55:27Z</time>
      </trkpt>
      <trkpt lat="45.16217" lon="5.97119">
        <ele>2693.6</ele>
        <time>2020-08-11T09:55:28Z</time>
      </trkpt>
      <trkpt lat="45.16217" lon="5.97119">
        <ele>2693.6</ele>
        <time>2020-08-11T09:55:29Z</time>
      </trkpt>
      <trkpt lat="45.16217" lon="5.97119">
        <ele>2693.4</ele>
        <time>2020-08-11T09:55:30Z</time>
      </trkpt>
      <trkpt lat="45.16217" lon="5.97119">
        <ele>2693.6</ele>
        <time>2020-08-11T09:55:31Z</time>
      </trkpt>
      <trkpt lat="45.16217" lon="5.97119">
        <ele>2693.6</ele>
        <time>2020-08-11T09:55:32Z</time>
      </trkpt>
      <trkpt lat="45.16217" lon="5.97119">
        <ele>2693.4</ele>
        <time>2020-08-11T09:55:33Z</time>
      </trkpt>
      <trkpt lat="45.16217" lon="5.97119">
        <ele>2693.6</ele>
        <time>2020-08-11T09:55:34Z</time>
      </trkpt>
      <trkpt lat="45.16217" lon="5.97119">
        <ele>2693.8</ele>
        <time>2020-08-11T09:55:35Z</time>
      </trkpt>
      <trkpt lat="45.16217" lon="5.97119">
        <ele>2693.6</ele>
        <time>2020-08-11T09:55:36Z</time>
      </trkpt>
      <trkpt lat="45.16217" lon="5.97119">
        <ele>2693.4</ele>
        <time>2020-08-11T09:55:37Z</time>
      </trkpt>
      <trkpt lat="45.16217" lon="5.97119">
        <ele>2693.6</ele>
        <time>2020-08-11T09:55:38Z</time>
      </trkpt>
      <trkpt lat="45.16217" lon="5.97119">
        <ele>2693.8</ele>
        <time>2020-08-11T09:55:39Z</time>
      </trkpt>
      <trkpt lat="45.16217" lon="5.97119">
        <ele>2693.6</ele>
        <time>2020-08-11T09:55:40Z</time>
      </trkpt>
      <trkpt lat="45.16217" lon="5.97119">
        <ele>2693.8</ele>
        <time>2020-08-11T09:55:41Z</time>
      </trkpt>
      <trkpt lat="45.16217" lon="5.97119">
        <ele>2694</ele>
        <time>2020-08-11T09:55:42Z</time>
      </trkpt>
      <trkpt lat="45.16217" lon="5.97119">
        <ele>2693.8</ele>
        <time>2020-08-11T09:55:43Z</time>
      </trkpt>
      <trkpt lat="45.16217" lon="5.97119">
        <ele>2693.6</ele>
        <time>2020-08-11T09:55:44Z</time>
      </trkpt>
      <trkpt lat="45.16219" lon="5.97121">
        <ele>2693.6</ele>
        <time>2020-08-11T09:55:45Z</time>
      </trkpt>
      <trkpt lat="45.16219" lon="5.97121">
        <ele>2693.8</ele>
        <time>2020-08-11T09:55:46Z</time>
      </trkpt>
      <trkpt lat="45.16219" lon="5.97121">
        <ele>2693.8</ele>
        <time>2020-08-11T09:55:47Z</time>
      </trkpt>
      <trkpt lat="45.16219" lon="5.97121">
        <ele>2693.8</ele>
        <time>2020-08-11T09:55:48Z</time>
      </trkpt>
      <trkpt lat="45.16219" lon="5.97121">
        <ele>2693.8</ele>
        <time>2020-08-11T09:55:49Z</time>
      </trkpt>
      <trkpt lat="45.16219" lon="5.97121">
        <ele>2694</ele>
        <time>2020-08-11T09:55:50Z</time>
      </trkpt>
      <trkpt lat="45.16219" lon="5.97121">
        <ele>2694</ele>
        <time>2020-08-11T09:55:51Z</time>
      </trkpt>
      <trkpt lat="45.16219" lon="5.97121">
        <ele>2694</ele>
        <time>2020-08-11T09:55:52Z</time>
      </trkpt>
      <trkpt lat="45.16219" lon="5.97121">
        <ele>2694.2</ele>
        <time>2020-08-11T09:55:53Z</time>
      </trkpt>
      <trkpt lat="45.16219" lon="5.97121">
        <ele>2694.6</ele>
        <time>2020-08-11T09:55:54Z</time>
      </trkpt>
      <trkpt lat="45.16219" lon="5.97121">
        <ele>2694.8</ele>
        <time>2020-08-11T09:55:55Z</time>
      </trkpt>
      <trkpt lat="45.16219" lon="5.97121">
        <ele>2695</ele>
        <time>2020-08-11T09:55:56Z</time>
      </trkpt>
      <trkpt lat="45.16219" lon="5.97121">
        <ele>2695</ele>
        <time>2020-08-11T09:55:57Z</time>
      </trkpt>
      <trkpt lat="45.16219" lon="5.97121">
        <ele>2695.2</ele>
        <time>2020-08-11T09:55:58Z</time>
      </trkpt>
      <trkpt lat="45.16219" lon="5.97121">
        <ele>2695.4</ele>
        <time>2020-08-11T09:55:59Z</time>
      </trkpt>
      <trkpt lat="45.16219" lon="5.97121">
        <ele>2695</ele>
        <time>2020-08-11T09:56:00Z</time>
      </trkpt>
      <trkpt lat="45.16219" lon="5.97121">
        <ele>2694.6</ele>
        <time>2020-08-11T09:56:01Z</time>
      </trkpt>
      <trkpt lat="45.16219" lon="5.97121">
        <ele>2694.4</ele>
        <time>2020-08-11T09:56:02Z</time>
      </trkpt>
      <trkpt lat="45.16219" lon="5.97121">
        <ele>2694.4</ele>
        <time>2020-08-11T09:56:03Z</time>
      </trkpt>
      <trkpt lat="45.16219" lon="5.97121">
        <ele>2694.2</ele>
        <time>2020-08-11T09:56:04Z</time>
      </trkpt>
      <trkpt lat="45.16219" lon="5.97121">
        <ele>2693.8</ele>
        <time>2020-08-11T09:56:05Z</time>
      </trkpt>
      <trkpt lat="45.16219" lon="5.97121">
        <ele>2693.8</ele>
        <time>2020-08-11T09:56:06Z</time>
      </trkpt>
      <trkpt lat="45.16217" lon="5.97122">
        <ele>2693.6</ele>
        <time>2020-08-11T09:56:07Z</time>
      </trkpt>
      <trkpt lat="45.16217" lon="5.97122">
        <ele>2693.4</ele>
        <time>2020-08-11T09:56:08Z</time>
      </trkpt>
      <trkpt lat="45.16217" lon="5.97122">
        <ele>2693.4</ele>
        <time>2020-08-11T09:56:09Z</time>
      </trkpt>
      <trkpt lat="45.16217" lon="5.97122">
        <ele>2693.2</ele>
        <time>2020-08-11T09:56:10Z</time>
      </trkpt>
      <trkpt lat="45.16217" lon="5.97122">
        <ele>2693.4</ele>
        <time>2020-08-11T09:56:11Z</time>
      </trkpt>
      <trkpt lat="45.16217" lon="5.97122">
        <ele>2693.2</ele>
        <time>2020-08-11T09:56:12Z</time>
      </trkpt>
      <trkpt lat="45.16217" lon="5.97122">
        <ele>2693.2</ele>
        <time>2020-08-11T09:56:13Z</time>
      </trkpt>
      <trkpt lat="45.16217" lon="5.97122">
        <ele>2693</ele>
        <time>2020-08-11T09:56:14Z</time>
      </trkpt>
      <trkpt lat="45.16217" lon="5.97122">
        <ele>2693.2</ele>
        <time>2020-08-11T09:56:15Z</time>
      </trkpt>
      <trkpt lat="45.16217" lon="5.97122">
        <ele>2693.2</ele>
        <time>2020-08-11T09:56:16Z</time>
      </trkpt>
      <trkpt lat="45.16218" lon="5.97124">
        <ele>2693.2</ele>
        <time>2020-08-11T09:56:17Z</time>
      </trkpt>
      <trkpt lat="45.16218" lon="5.97124">
        <ele>2693.2</ele>
        <time>2020-08-11T09:56:18Z</time>
      </trkpt>
      <trkpt lat="45.16218" lon="5.97124">
        <ele>2693</ele>
        <time>2020-08-11T09:56:19Z</time>
      </trkpt>
      <trkpt lat="45.16218" lon="5.97124">
        <ele>2693.2</ele>
        <time>2020-08-11T09:56:20Z</time>
      </trkpt>
      <trkpt lat="45.16218" lon="5.97124">
        <ele>2693.2</ele>
        <time>2020-08-11T09:56:21Z</time>
      </trkpt>
      <trkpt lat="45.16218" lon="5.97124">
        <ele>2693.2</ele>
        <time>2020-08-11T09:56:22Z</time>
      </trkpt>
      <trkpt lat="45.16218" lon="5.97124">
        <ele>2693</ele>
        <time>2020-08-11T09:56:23Z</time>
      </trkpt>
      <trkpt lat="45.16218" lon="5.97124">
        <ele>2693.2</ele>
        <time>2020-08-11T09:56:24Z</time>
      </trkpt>
      <trkpt lat="45.16218" lon="5.97124">
        <ele>2693.4</ele>
        <time>2020-08-11T09:56:25Z</time>
      </trkpt>
      <trkpt lat="45.16218" lon="5.97124">
        <ele>2693.6</ele>
        <time>2020-08-11T09:56:26Z</time>
      </trkpt>
      <trkpt lat="45.1622" lon="5.97123">
        <ele>2693.6</ele>
        <time>2020-08-11T09:56:27Z</time>
      </trkpt>
      <trkpt lat="45.1622" lon="5.97123">
        <ele>2693.8</ele>
        <time>2020-08-11T09:56:28Z</time>
      </trkpt>
      <trkpt lat="45.1622" lon="5.97123">
        <ele>2694</ele>
        <time>2020-08-11T09:56:29Z</time>
      </trkpt>
      <trkpt lat="45.1622" lon="5.97123">
        <ele>2694.2</ele>
        <time>2020-08-11T09:56:30Z</time>
      </trkpt>
      <trkpt lat="45.1622" lon="5.97123">
        <ele>2694.4</ele>
        <time>2020-08-11T09:56:31Z</time>
      </trkpt>
      <trkpt lat="45.1622" lon="5.97123">
        <ele>2694.6</ele>
        <time>2020-08-11T09:56:32Z</time>
      </trkpt>
      <trkpt lat="45.1622" lon="5.97123">
        <ele>2694.8</ele>
        <time>2020-08-11T09:56:33Z</time>
      </trkpt>
      <trkpt lat="45.1622" lon="5.97123">
        <ele>2694.8</ele>
        <time>2020-08-11T09:56:34Z</time>
      </trkpt>
      <trkpt lat="45.1622" lon="5.97123">
        <ele>2694.8</ele>
        <time>2020-08-11T09:56:35Z</time>
      </trkpt>
      <trkpt lat="45.1622" lon="5.97123">
        <ele>2694.8</ele>
        <time>2020-08-11T09:56:36Z</time>
      </trkpt>
      <trkpt lat="45.16221" lon="5.9712">
        <ele>2694.8</ele>
        <time>2020-08-11T09:56:37Z</time>
      </trkpt>
      <trkpt lat="45.16221" lon="5.9712">
        <ele>2694.6</ele>
        <time>2020-08-11T09:56:38Z</time>
      </trkpt>
      <trkpt lat="45.16221" lon="5.9712">
        <ele>2694.4</ele>
        <time>2020-08-11T09:56:39Z</time>
      </trkpt>
      <trkpt lat="45.16221" lon="5.9712">
        <ele>2694.2</ele>
        <time>2020-08-11T09:56:40Z</time>
      </trkpt>
      <trkpt lat="45.16221" lon="5.9712">
        <ele>2694.4</ele>
        <time>2020-08-11T09:56:41Z</time>
      </trkpt>
      <trkpt lat="45.16221" lon="5.9712">
        <ele>2694.2</ele>
        <time>2020-08-11T09:56:42Z</time>
      </trkpt>
      <trkpt lat="45.16221" lon="5.9712">
        <ele>2694</ele>
        <time>2020-08-11T09:56:43Z</time>
      </trkpt>
      <trkpt lat="45.16221" lon="5.9712">
        <ele>2694</ele>
        <time>2020-08-11T09:56:44Z</time>
      </trkpt>
      <trkpt lat="45.16221" lon="5.9712">
        <ele>2693.8</ele>
        <time>2020-08-11T09:56:45Z</time>
      </trkpt>
      <trkpt lat="45.16221" lon="5.9712">
        <ele>2693.6</ele>
        <time>2020-08-11T09:56:46Z</time>
      </trkpt>
      <trkpt lat="45.16221" lon="5.9712">
        <ele>2693.6</ele>
        <time>2020-08-11T09:56:47Z</time>
      </trkpt>
      <trkpt lat="45.16221" lon="5.9712">
        <ele>2693.6</ele>
        <time>2020-08-11T09:56:48Z</time>
      </trkpt>
      <trkpt lat="45.16221" lon="5.9712">
        <ele>2693.4</ele>
        <time>2020-08-11T09:56:49Z</time>
      </trkpt>
      <trkpt lat="45.16221" lon="5.9712">
        <ele>2693.6</ele>
        <time>2020-08-11T09:56:50Z</time>
      </trkpt>
      <trkpt lat="45.16221" lon="5.9712">
        <ele>2693.6</ele>
        <time>2020-08-11T09:56:51Z</time>
      </trkpt>
      <trkpt lat="45.16221" lon="5.9712">
        <ele>2693.6</ele>
        <time>2020-08-11T09:56:52Z</time>
      </trkpt>
      <trkpt lat="45.16221" lon="5.9712">
        <ele>2693.6</ele>
        <time>2020-08-11T09:56:53Z</time>
      </trkpt>
      <trkpt lat="45.16221" lon="5.9712">
        <ele>2693.4</ele>
        <time>2020-08-11T09:56:54Z</time>
      </trkpt>
      <trkpt lat="45.16221" lon="5.9712">
        <ele>2693.4</ele>
        <time>2020-08-11T09:56:55Z</time>
      </trkpt>
      <trkpt lat="45.16221" lon="5.9712">
        <ele>2693.4</ele>
        <time>2020-08-11T09:56:56Z</time>
      </trkpt>
      <trkpt lat="45.16221" lon="5.9712">
        <ele>2693.6</ele>
        <time>2020-08-11T09:56:57Z</time>
      </trkpt>
      <trkpt lat="45.16221" lon="5.9712">
        <ele>2693.6</ele>
        <time>2020-08-11T09:56:58Z</time>
      </trkpt>
      <trkpt lat="45.16221" lon="5.9712">
        <ele>2693.6</ele>
        <time>2020-08-11T09:56:59Z</time>
      </trkpt>
      <trkpt lat="45.16221" lon="5.9712">
        <ele>2693.6</ele>
        <time>2020-08-11T09:57:00Z</time>
      </trkpt>
      <trkpt lat="45.16221" lon="5.9712">
        <ele>2693.6</ele>
        <time>2020-08-11T09:57:01Z</time>
      </trkpt>
      <trkpt lat="45.16221" lon="5.9712">
        <ele>2693.4</ele>
        <time>2020-08-11T09:57:02Z</time>
      </trkpt>
      <trkpt lat="45.16221" lon="5.9712">
        <ele>2693.4</ele>
        <time>2020-08-11T09:57:03Z</time>
      </trkpt>
      <trkpt lat="45.16221" lon="5.9712">
        <ele>2693.4</ele>
        <time>2020-08-11T09:57:04Z</time>
      </trkpt>
      <trkpt lat="45.16221" lon="5.9712">
        <ele>2693.6</ele>
        <time>2020-08-11T09:57:05Z</time>
      </trkpt>
      <trkpt lat="45.16221" lon="5.9712">
        <ele>2693.4</ele>
        <time>2020-08-11T09:57:06Z</time>
      </trkpt>
      <trkpt lat="45.16221" lon="5.9712">
        <ele>2693.6</ele>
        <time>2020-08-11T09:57:07Z</time>
      </trkpt>
      <trkpt lat="45.16221" lon="5.9712">
        <ele>2693.6</ele>
        <time>2020-08-11T09:57:08Z</time>
      </trkpt>
      <trkpt lat="45.16221" lon="5.9712">
        <ele>2693.6</ele>
        <time>2020-08-11T09:57:09Z</time>
      </trkpt>
      <trkpt lat="45.16221" lon="5.9712">
        <ele>2693.4</ele>
        <time>2020-08-11T09:57:10Z</time>
      </trkpt>
      <trkpt lat="45.16221" lon="5.9712">
        <ele>2693.6</ele>
        <time>2020-08-11T09:57:11Z</time>
      </trkpt>
      <trkpt lat="45.16221" lon="5.9712">
        <ele>2693.6</ele>
        <time>2020-08-11T09:57:12Z</time>
      </trkpt>
      <trkpt lat="45.16221" lon="5.9712">
        <ele>2693.6</ele>
        <time>2020-08-11T09:57:13Z</time>
      </trkpt>
      <trkpt lat="45.16221" lon="5.9712">
        <ele>2693.8</ele>
        <time>2020-08-11T09:57:14Z</time>
      </trkpt>
      <trkpt lat="45.16221" lon="5.9712">
        <ele>2694</ele>
        <time>2020-08-11T09:57:15Z</time>
      </trkpt>
      <trkpt lat="45.16221" lon="5.9712">
        <ele>2694</ele>
        <time>2020-08-11T09:57:16Z</time>
      </trkpt>
      <trkpt lat="45.16221" lon="5.9712">
        <ele>2694</ele>
        <time>2020-08-11T09:57:17Z</time>
      </trkpt>
      <trkpt lat="45.16221" lon="5.9712">
        <ele>2694.2</ele>
        <time>2020-08-11T09:57:18Z</time>
      </trkpt>
      <trkpt lat="45.16221" lon="5.9712">
        <ele>2694.6</ele>
        <time>2020-08-11T09:57:19Z</time>
      </trkpt>
      <trkpt lat="45.16221" lon="5.9712">
        <ele>2694.6</ele>
        <time>2020-08-11T09:57:20Z</time>
      </trkpt>
      <trkpt lat="45.16221" lon="5.9712">
        <ele>2694.4</ele>
        <time>2020-08-11T09:57:21Z</time>
      </trkpt>
      <trkpt lat="45.16221" lon="5.9712">
        <ele>2694.2</ele>
        <time>2020-08-11T09:57:22Z</time>
      </trkpt>
      <trkpt lat="45.16221" lon="5.9712">
        <ele>2694</ele>
        <time>2020-08-11T09:57:23Z</time>
      </trkpt>
      <trkpt lat="45.16221" lon="5.9712">
        <ele>2693.8</ele>
        <time>2020-08-11T09:57:24Z</time>
      </trkpt>
      <trkpt lat="45.16221" lon="5.9712">
        <ele>2693.8</ele>
        <time>2020-08-11T09:57:25Z</time>
      </trkpt>
      <trkpt lat="45.16221" lon="5.9712">
        <ele>2693.6</ele>
        <time>2020-08-11T09:57:26Z</time>
      </trkpt>
      <trkpt lat="45.16221" lon="5.97123">
        <ele>2693.6</ele>
        <time>2020-08-11T09:57:27Z</time>
      </trkpt>
      <trkpt lat="45.16221" lon="5.97123">
        <ele>2693.6</ele>
        <time>2020-08-11T09:57:28Z</time>
      </trkpt>
      <trkpt lat="45.16221" lon="5.97123">
        <ele>2693.6</ele>
        <time>2020-08-11T09:57:29Z</time>
      </trkpt>
      <trkpt lat="45.16221" lon="5.97123">
        <ele>2693.4</ele>
        <time>2020-08-11T09:57:30Z</time>
      </trkpt>
      <trkpt lat="45.16221" lon="5.97123">
        <ele>2693.2</ele>
        <time>2020-08-11T09:57:31Z</time>
      </trkpt>
      <trkpt lat="45.16221" lon="5.97123">
        <ele>2693.2</ele>
        <time>2020-08-11T09:57:32Z</time>
      </trkpt>
      <trkpt lat="45.16221" lon="5.97123">
        <ele>2693.4</ele>
        <time>2020-08-11T09:57:33Z</time>
      </trkpt>
      <trkpt lat="45.16221" lon="5.97123">
        <ele>2693.4</ele>
        <time>2020-08-11T09:57:34Z</time>
      </trkpt>
      <trkpt lat="45.16221" lon="5.97123">
        <ele>2693.4</ele>
        <time>2020-08-11T09:57:35Z</time>
      </trkpt>
      <trkpt lat="45.16221" lon="5.97123">
        <ele>2693.4</ele>
        <time>2020-08-11T09:57:36Z</time>
      </trkpt>
      <trkpt lat="45.16221" lon="5.97123">
        <ele>2693.2</ele>
        <time>2020-08-11T09:57:37Z</time>
      </trkpt>
      <trkpt lat="45.16221" lon="5.97123">
        <ele>2693.4</ele>
        <time>2020-08-11T09:57:38Z</time>
      </trkpt>
      <trkpt lat="45.1622" lon="5.97126">
        <ele>2693.6</ele>
        <time>2020-08-11T09:57:39Z</time>
      </trkpt>
      <trkpt lat="45.1622" lon="5.97126">
        <ele>2693.6</ele>
        <time>2020-08-11T09:57:40Z</time>
      </trkpt>
      <trkpt lat="45.1622" lon="5.97126">
        <ele>2693.6</ele>
        <time>2020-08-11T09:57:41Z</time>
      </trkpt>
      <trkpt lat="45.1622" lon="5.97126">
        <ele>2693.8</ele>
        <time>2020-08-11T09:57:42Z</time>
      </trkpt>
      <trkpt lat="45.1622" lon="5.97126">
        <ele>2693.8</ele>
        <time>2020-08-11T09:57:43Z</time>
      </trkpt>
      <trkpt lat="45.1622" lon="5.97126">
        <ele>2694</ele>
        <time>2020-08-11T09:57:44Z</time>
      </trkpt>
      <trkpt lat="45.1622" lon="5.97126">
        <ele>2694.2</ele>
        <time>2020-08-11T09:57:45Z</time>
      </trkpt>
      <trkpt lat="45.1622" lon="5.97126">
        <ele>2694.4</ele>
        <time>2020-08-11T09:57:46Z</time>
      </trkpt>
      <trkpt lat="45.1622" lon="5.97126">
        <ele>2694.6</ele>
        <time>2020-08-11T09:57:47Z</time>
      </trkpt>
      <trkpt lat="45.1622" lon="5.97126">
        <ele>2694.4</ele>
        <time>2020-08-11T09:57:48Z</time>
      </trkpt>
      <trkpt lat="45.1622" lon="5.97126">
        <ele>2694.2</ele>
        <time>2020-08-11T09:57:49Z</time>
      </trkpt>
      <trkpt lat="45.1622" lon="5.97126">
        <ele>2694.4</ele>
        <time>2020-08-11T09:57:50Z</time>
      </trkpt>
      <trkpt lat="45.1622" lon="5.97126">
        <ele>2694.6</ele>
        <time>2020-08-11T09:57:51Z</time>
      </trkpt>
      <trkpt lat="45.1622" lon="5.97128">
        <ele>2694.4</ele>
        <time>2020-08-11T09:57:52Z</time>
      </trkpt>
      <trkpt lat="45.1622" lon="5.97128">
        <ele>2694.6</ele>
        <time>2020-08-11T09:57:53Z</time>
      </trkpt>
      <trkpt lat="45.1622" lon="5.97128">
        <ele>2694.6</ele>
        <time>2020-08-11T09:57:54Z</time>
      </trkpt>
      <trkpt lat="45.1622" lon="5.97128">
        <ele>2694.6</ele>
        <time>2020-08-11T09:57:55Z</time>
      </trkpt>
      <trkpt lat="45.1622" lon="5.97128">
        <ele>2694.6</ele>
        <time>2020-08-11T09:57:56Z</time>
      </trkpt>
      <trkpt lat="45.1622" lon="5.97128">
        <ele>2694.2</ele>
        <time>2020-08-11T09:57:57Z</time>
      </trkpt>
      <trkpt lat="45.1622" lon="5.97128">
        <ele>2694</ele>
        <time>2020-08-11T09:57:58Z</time>
      </trkpt>
      <trkpt lat="45.1622" lon="5.97128">
        <ele>2693.8</ele>
        <time>2020-08-11T09:57:59Z</time>
      </trkpt>
      <trkpt lat="45.1622" lon="5.97128">
        <ele>2693.8</ele>
        <time>2020-08-11T09:58:00Z</time>
      </trkpt>
      <trkpt lat="45.16219" lon="5.97131">
        <ele>2693.8</ele>
        <time>2020-08-11T09:58:01Z</time>
      </trkpt>
      <trkpt lat="45.16219" lon="5.97131">
        <ele>2694</ele>
        <time>2020-08-11T09:58:02Z</time>
      </trkpt>
      <trkpt lat="45.16219" lon="5.97131">
        <ele>2694</ele>
        <time>2020-08-11T09:58:03Z</time>
      </trkpt>
      <trkpt lat="45.16219" lon="5.97131">
        <ele>2694</ele>
        <time>2020-08-11T09:58:04Z</time>
      </trkpt>
      <trkpt lat="45.16219" lon="5.97131">
        <ele>2694.2</ele>
        <time>2020-08-11T09:58:05Z</time>
      </trkpt>
      <trkpt lat="45.16219" lon="5.97131">
        <ele>2694.2</ele>
        <time>2020-08-11T09:58:06Z</time>
      </trkpt>
      <trkpt lat="45.16219" lon="5.97131">
        <ele>2694.2</ele>
        <time>2020-08-11T09:58:07Z</time>
      </trkpt>
      <trkpt lat="45.16219" lon="5.97133">
        <ele>2694.2</ele>
        <time>2020-08-11T09:58:08Z</time>
      </trkpt>
      <trkpt lat="45.16219" lon="5.97133">
        <ele>2694</ele>
        <time>2020-08-11T09:58:09Z</time>
      </trkpt>
      <trkpt lat="45.16219" lon="5.97133">
        <ele>2694</ele>
        <time>2020-08-11T09:58:10Z</time>
      </trkpt>
      <trkpt lat="45.16219" lon="5.97133">
        <ele>2694.2</ele>
        <time>2020-08-11T09:58:11Z</time>
      </trkpt>
      <trkpt lat="45.16219" lon="5.97133">
        <ele>2694.2</ele>
        <time>2020-08-11T09:58:12Z</time>
      </trkpt>
      <trkpt lat="45.16219" lon="5.97133">
        <ele>2694.2</ele>
        <time>2020-08-11T09:58:13Z</time>
      </trkpt>
      <trkpt lat="45.16219" lon="5.97133">
        <ele>2694.4</ele>
        <time>2020-08-11T09:58:14Z</time>
      </trkpt>
      <trkpt lat="45.16219" lon="5.97133">
        <ele>2694.6</ele>
        <time>2020-08-11T09:58:15Z</time>
      </trkpt>
      <trkpt lat="45.16219" lon="5.97133">
        <ele>2694.4</ele>
        <time>2020-08-11T09:58:16Z</time>
      </trkpt>
      <trkpt lat="45.16219" lon="5.97133">
        <ele>2694.4</ele>
        <time>2020-08-11T09:58:17Z</time>
      </trkpt>
      <trkpt lat="45.16219" lon="5.97133">
        <ele>2694.2</ele>
        <time>2020-08-11T09:58:18Z</time>
      </trkpt>
      <trkpt lat="45.16219" lon="5.97133">
        <ele>2694.4</ele>
        <time>2020-08-11T09:58:19Z</time>
      </trkpt>
      <trkpt lat="45.16219" lon="5.97133">
        <ele>2694.4</ele>
        <time>2020-08-11T09:58:20Z</time>
      </trkpt>
      <trkpt lat="45.16219" lon="5.97133">
        <ele>2694.4</ele>
        <time>2020-08-11T09:58:21Z</time>
      </trkpt>
      <trkpt lat="45.16219" lon="5.97133">
        <ele>2694</ele>
        <time>2020-08-11T09:58:22Z</time>
      </trkpt>
      <trkpt lat="45.16219" lon="5.97133">
        <ele>2693.6</ele>
        <time>2020-08-11T09:58:23Z</time>
      </trkpt>
      <trkpt lat="45.16219" lon="5.97133">
        <ele>2693.6</ele>
        <time>2020-08-11T09:58:24Z</time>
      </trkpt>
      <trkpt lat="45.16219" lon="5.97133">
        <ele>2693.4</ele>
        <time>2020-08-11T09:58:25Z</time>
      </trkpt>
      <trkpt lat="45.16219" lon="5.97133">
        <ele>2693.4</ele>
        <time>2020-08-11T09:58:26Z</time>
      </trkpt>
      <trkpt lat="45.16219" lon="5.97133">
        <ele>2693.4</ele>
        <time>2020-08-11T09:58:27Z</time>
      </trkpt>
      <trkpt lat="45.16219" lon="5.97133">
        <ele>2693.4</ele>
        <time>2020-08-11T09:58:28Z</time>
      </trkpt>
      <trkpt lat="45.16219" lon="5.97133">
        <ele>2693.4</ele>
        <time>2020-08-11T09:58:29Z</time>
      </trkpt>
      <trkpt lat="45.16219" lon="5.97133">
        <ele>2693.2</ele>
        <time>2020-08-11T09:58:30Z</time>
      </trkpt>
      <trkpt lat="45.16219" lon="5.97133">
        <ele>2693.4</ele>
        <time>2020-08-11T09:58:31Z</time>
      </trkpt>
      <trkpt lat="45.16219" lon="5.97133">
        <ele>2693.4</ele>
        <time>2020-08-11T09:58:32Z</time>
      </trkpt>
      <trkpt lat="45.16219" lon="5.97133">
        <ele>2693.2</ele>
        <time>2020-08-11T09:58:33Z</time>
      </trkpt>
      <trkpt lat="45.16219" lon="5.97133">
        <ele>2693.4</ele>
        <time>2020-08-11T09:58:34Z</time>
      </trkpt>
      <trkpt lat="45.16219" lon="5.97133">
        <ele>2693.6</ele>
        <time>2020-08-11T09:58:35Z</time>
      </trkpt>
      <trkpt lat="45.16219" lon="5.97133">
        <ele>2693.4</ele>
        <time>2020-08-11T09:58:36Z</time>
      </trkpt>
      <trkpt lat="45.16219" lon="5.97133">
        <ele>2693.4</ele>
        <time>2020-08-11T09:58:37Z</time>
      </trkpt>
      <trkpt lat="45.16219" lon="5.97133">
        <ele>2693.4</ele>
        <time>2020-08-11T09:58:38Z</time>
      </trkpt>
      <trkpt lat="45.16219" lon="5.97133">
        <ele>2693.2</ele>
        <time>2020-08-11T09:58:39Z</time>
      </trkpt>
      <trkpt lat="45.16219" lon="5.97133">
        <ele>2693.2</ele>
        <time>2020-08-11T09:58:40Z</time>
      </trkpt>
      <trkpt lat="45.16219" lon="5.97133">
        <ele>2693.2</ele>
        <time>2020-08-11T09:58:41Z</time>
      </trkpt>
      <trkpt lat="45.16219" lon="5.97133">
        <ele>2693.2</ele>
        <time>2020-08-11T09:58:42Z</time>
      </trkpt>
      <trkpt lat="45.16219" lon="5.97133">
        <ele>2693.4</ele>
        <time>2020-08-11T09:58:43Z</time>
      </trkpt>
      <trkpt lat="45.16219" lon="5.97133">
        <ele>2693.4</ele>
        <time>2020-08-11T09:58:44Z</time>
      </trkpt>
      <trkpt lat="45.16219" lon="5.97133">
        <ele>2693.4</ele>
        <time>2020-08-11T09:58:45Z</time>
      </trkpt>
      <trkpt lat="45.16219" lon="5.97133">
        <ele>2693.2</ele>
        <time>2020-08-11T09:58:46Z</time>
      </trkpt>
      <trkpt lat="45.1622" lon="5.97131">
        <ele>2693.2</ele>
        <time>2020-08-11T09:58:47Z</time>
      </trkpt>
      <trkpt lat="45.1622" lon="5.97131">
        <ele>2693.2</ele>
        <time>2020-08-11T09:58:48Z</time>
      </trkpt>
      <trkpt lat="45.1622" lon="5.97131">
        <ele>2693.2</ele>
        <time>2020-08-11T09:58:49Z</time>
      </trkpt>
      <trkpt lat="45.1622" lon="5.97131">
        <ele>2693</ele>
        <time>2020-08-11T09:58:50Z</time>
      </trkpt>
      <trkpt lat="45.1622" lon="5.97131">
        <ele>2693</ele>
        <time>2020-08-11T09:58:51Z</time>
      </trkpt>
      <trkpt lat="45.1622" lon="5.97128">
        <ele>2693</ele>
        <time>2020-08-11T09:58:52Z</time>
      </trkpt>
      <trkpt lat="45.1622" lon="5.97128">
        <ele>2693</ele>
        <time>2020-08-11T09:58:53Z</time>
      </trkpt>
      <trkpt lat="45.1622" lon="5.97128">
        <ele>2693.2</ele>
        <time>2020-08-11T09:58:54Z</time>
      </trkpt>
      <trkpt lat="45.1622" lon="5.97128">
        <ele>2693.4</ele>
        <time>2020-08-11T09:58:55Z</time>
      </trkpt>
      <trkpt lat="45.1622" lon="5.97128">
        <ele>2693.2</ele>
        <time>2020-08-11T09:58:56Z</time>
      </trkpt>
      <trkpt lat="45.1622" lon="5.97128">
        <ele>2693.4</ele>
        <time>2020-08-11T09:58:57Z</time>
      </trkpt>
      <trkpt lat="45.1622" lon="5.97128">
        <ele>2693.4</ele>
        <time>2020-08-11T09:58:58Z</time>
      </trkpt>
      <trkpt lat="45.1622" lon="5.97128">
        <ele>2693.4</ele>
        <time>2020-08-11T09:58:59Z</time>
      </trkpt>
      <trkpt lat="45.1622" lon="5.97128">
        <ele>2693.6</ele>
        <time>2020-08-11T09:59:00Z</time>
      </trkpt>
      <trkpt lat="45.1622" lon="5.97128">
        <ele>2693.4</ele>
        <time>2020-08-11T09:59:01Z</time>
      </trkpt>
      <trkpt lat="45.1622" lon="5.97128">
        <ele>2693.6</ele>
        <time>2020-08-11T09:59:02Z</time>
      </trkpt>
      <trkpt lat="45.1622" lon="5.97128">
        <ele>2693.8</ele>
        <time>2020-08-11T09:59:03Z</time>
      </trkpt>
      <trkpt lat="45.1622" lon="5.97128">
        <ele>2693.6</ele>
        <time>2020-08-11T09:59:04Z</time>
      </trkpt>
      <trkpt lat="45.1622" lon="5.97128">
        <ele>2693.6</ele>
        <time>2020-08-11T09:59:05Z</time>
      </trkpt>
      <trkpt lat="45.1622" lon="5.97128">
        <ele>2693.6</ele>
        <time>2020-08-11T09:59:06Z</time>
      </trkpt>
      <trkpt lat="45.1622" lon="5.97128">
        <ele>2693.6</ele>
        <time>2020-08-11T09:59:07Z</time>
      </trkpt>
      <trkpt lat="45.1622" lon="5.97128">
        <ele>2693.4</ele>
        <time>2020-08-11T09:59:08Z</time>
      </trkpt>
      <trkpt lat="45.1622" lon="5.97128">
        <ele>2693.4</ele>
        <time>2020-08-11T09:59:09Z</time>
      </trkpt>
      <trkpt lat="45.1622" lon="5.97128">
        <ele>2693.6</ele>
        <time>2020-08-11T09:59:10Z</time>
      </trkpt>
      <trkpt lat="45.1622" lon="5.97128">
        <ele>2693.4</ele>
        <time>2020-08-11T09:59:11Z</time>
      </trkpt>
      <trkpt lat="45.1622" lon="5.97128">
        <ele>2693.6</ele>
        <time>2020-08-11T09:59:12Z</time>
      </trkpt>
      <trkpt lat="45.1622" lon="5.97128">
        <ele>2693.6</ele>
        <time>2020-08-11T09:59:13Z</time>
      </trkpt>
      <trkpt lat="45.1622" lon="5.97128">
        <ele>2694</ele>
        <time>2020-08-11T09:59:14Z</time>
      </trkpt>
      <trkpt lat="45.1622" lon="5.97128">
        <ele>2693.8</ele>
        <time>2020-08-11T09:59:15Z</time>
      </trkpt>
      <trkpt lat="45.1622" lon="5.97128">
        <ele>2693.8</ele>
        <time>2020-08-11T09:59:16Z</time>
      </trkpt>
      <trkpt lat="45.1622" lon="5.97128">
        <ele>2693.8</ele>
        <time>2020-08-11T09:59:17Z</time>
      </trkpt>
      <trkpt lat="45.1622" lon="5.97128">
        <ele>2693.8</ele>
        <time>2020-08-11T09:59:18Z</time>
      </trkpt>
      <trkpt lat="45.16219" lon="5.9713">
        <ele>2693.8</ele>
        <time>2020-08-11T09:59:19Z</time>
      </trkpt>
      <trkpt lat="45.16219" lon="5.9713">
        <ele>2693.6</ele>
        <time>2020-08-11T09:59:20Z</time>
      </trkpt>
      <trkpt lat="45.16219" lon="5.9713">
        <ele>2693.6</ele>
        <time>2020-08-11T09:59:21Z</time>
      </trkpt>
      <trkpt lat="45.16219" lon="5.9713">
        <ele>2693.4</ele>
        <time>2020-08-11T09:59:22Z</time>
      </trkpt>
      <trkpt lat="45.16219" lon="5.9713">
        <ele>2693.6</ele>
        <time>2020-08-11T09:59:23Z</time>
      </trkpt>
      <trkpt lat="45.16219" lon="5.9713">
        <ele>2693.4</ele>
        <time>2020-08-11T09:59:24Z</time>
      </trkpt>
      <trkpt lat="45.16219" lon="5.9713">
        <ele>2693.4</ele>
        <time>2020-08-11T09:59:25Z</time>
      </trkpt>
      <trkpt lat="45.16219" lon="5.9713">
        <ele>2693.2</ele>
        <time>2020-08-11T09:59:26Z</time>
      </trkpt>
      <trkpt lat="45.16219" lon="5.9713">
        <ele>2693.2</ele>
        <time>2020-08-11T09:59:27Z</time>
      </trkpt>
      <trkpt lat="45.16219" lon="5.9713">
        <ele>2693.2</ele>
        <time>2020-08-11T09:59:28Z</time>
      </trkpt>
      <trkpt lat="45.16219" lon="5.9713">
        <ele>2693.2</ele>
        <time>2020-08-11T09:59:29Z</time>
      </trkpt>
      <trkpt lat="45.16219" lon="5.9713">
        <ele>2693.2</ele>
        <time>2020-08-11T09:59:30Z</time>
      </trkpt>
      <trkpt lat="45.16219" lon="5.9713">
        <ele>2693.2</ele>
        <time>2020-08-11T09:59:31Z</time>
      </trkpt>
      <trkpt lat="45.16219" lon="5.9713">
        <ele>2693.4</ele>
        <time>2020-08-11T09:59:32Z</time>
      </trkpt>
      <trkpt lat="45.16219" lon="5.9713">
        <ele>2693.6</ele>
        <time>2020-08-11T09:59:33Z</time>
      </trkpt>
      <trkpt lat="45.16219" lon="5.9713">
        <ele>2693.6</ele>
        <time>2020-08-11T09:59:34Z</time>
      </trkpt>
      <trkpt lat="45.16219" lon="5.9713">
        <ele>2693.6</ele>
        <time>2020-08-11T09:59:35Z</time>
      </trkpt>
      <trkpt lat="45.16219" lon="5.9713">
        <ele>2693.6</ele>
        <time>2020-08-11T09:59:36Z</time>
      </trkpt>
      <trkpt lat="45.16219" lon="5.9713">
        <ele>2693.6</ele>
        <time>2020-08-11T09:59:37Z</time>
      </trkpt>
      <trkpt lat="45.16219" lon="5.9713">
        <ele>2693.4</ele>
        <time>2020-08-11T09:59:38Z</time>
      </trkpt>
      <trkpt lat="45.16219" lon="5.9713">
        <ele>2693.2</ele>
        <time>2020-08-11T09:59:39Z</time>
      </trkpt>
      <trkpt lat="45.16219" lon="5.9713">
        <ele>2693.2</ele>
        <time>2020-08-11T09:59:40Z</time>
      </trkpt>
      <trkpt lat="45.16219" lon="5.9713">
        <ele>2693.2</ele>
        <time>2020-08-11T09:59:41Z</time>
      </trkpt>
      <trkpt lat="45.16219" lon="5.9713">
        <ele>2693.2</ele>
        <time>2020-08-11T09:59:42Z</time>
      </trkpt>
      <trkpt lat="45.16219" lon="5.9713">
        <ele>2693.2</ele>
        <time>2020-08-11T09:59:43Z</time>
      </trkpt>
      <trkpt lat="45.16219" lon="5.9713">
        <ele>2693.4</ele>
        <time>2020-08-11T09:59:44Z</time>
      </trkpt>
      <trkpt lat="45.1622" lon="5.9713">
        <ele>2693.4</ele>
        <time>2020-08-11T09:59:45Z</time>
      </trkpt>
      <trkpt lat="45.1622" lon="5.9713">
        <ele>2693.4</ele>
        <time>2020-08-11T09:59:46Z</time>
      </trkpt>
      <trkpt lat="45.1622" lon="5.9713">
        <ele>2693.4</ele>
        <time>2020-08-11T09:59:47Z</time>
      </trkpt>
      <trkpt lat="45.1622" lon="5.9713">
        <ele>2693.4</ele>
        <time>2020-08-11T09:59:48Z</time>
      </trkpt>
      <trkpt lat="45.1622" lon="5.9713">
        <ele>2693.2</ele>
        <time>2020-08-11T09:59:49Z</time>
      </trkpt>
      <trkpt lat="45.1622" lon="5.9713">
        <ele>2693</ele>
        <time>2020-08-11T09:59:50Z</time>
      </trkpt>
      <trkpt lat="45.1622" lon="5.9713">
        <ele>2693.2</ele>
        <time>2020-08-11T09:59:51Z</time>
      </trkpt>
      <trkpt lat="45.1622" lon="5.9713">
        <ele>2693.2</ele>
        <time>2020-08-11T09:59:52Z</time>
      </trkpt>
      <trkpt lat="45.1622" lon="5.9713">
        <ele>2693.2</ele>
        <time>2020-08-11T09:59:53Z</time>
      </trkpt>
      <trkpt lat="45.1622" lon="5.9713">
        <ele>2693.2</ele>
        <time>2020-08-11T09:59:54Z</time>
      </trkpt>
      <trkpt lat="45.1622" lon="5.97129">
        <ele>2693.2</ele>
        <time>2020-08-11T09:59:55Z</time>
      </trkpt>
      <trkpt lat="45.1622" lon="5.97129">
        <ele>2693.4</ele>
        <time>2020-08-11T09:59:56Z</time>
      </trkpt>
      <trkpt lat="45.1622" lon="5.97129">
        <ele>2693.4</ele>
        <time>2020-08-11T09:59:57Z</time>
      </trkpt>
      <trkpt lat="45.1622" lon="5.97129">
        <ele>2693.2</ele>
        <time>2020-08-11T09:59:58Z</time>
      </trkpt>
      <trkpt lat="45.1622" lon="5.97129">
        <ele>2693.2</ele>
        <time>2020-08-11T09:59:59Z</time>
      </trkpt>
      <trkpt lat="45.1622" lon="5.97129">
        <ele>2693.2</ele>
        <time>2020-08-11T10:00:01Z</time>
      </trkpt>
      <trkpt lat="45.1622" lon="5.97129">
        <ele>2693.2</ele>
        <time>2020-08-11T10:00:02Z</time>
      </trkpt>
      <trkpt lat="45.1622" lon="5.97129">
        <ele>2693.2</ele>
        <time>2020-08-11T10:00:03Z</time>
      </trkpt>
      <trkpt lat="45.1622" lon="5.97129">
        <ele>2693.4</ele>
        <time>2020-08-11T10:00:04Z</time>
      </trkpt>
      <trkpt lat="45.1622" lon="5.97129">
        <ele>2693.2</ele>
        <time>2020-08-11T10:00:05Z</time>
      </trkpt>
      <trkpt lat="45.1622" lon="5.97129">
        <ele>2693.2</ele>
        <time>2020-08-11T10:00:06Z</time>
      </trkpt>
      <trkpt lat="45.1622" lon="5.97129">
        <ele>2693</ele>
        <time>2020-08-11T10:00:07Z</time>
      </trkpt>
      <trkpt lat="45.1622" lon="5.97129">
        <ele>2693</ele>
        <time>2020-08-11T10:00:08Z</time>
      </trkpt>
      <trkpt lat="45.1622" lon="5.97129">
        <ele>2693</ele>
        <time>2020-08-11T10:00:09Z</time>
      </trkpt>
      <trkpt lat="45.1622" lon="5.97129">
        <ele>2693</ele>
        <time>2020-08-11T10:00:10Z</time>
      </trkpt>
      <trkpt lat="45.1622" lon="5.97129">
        <ele>2693.2</ele>
        <time>2020-08-11T10:00:11Z</time>
      </trkpt>
      <trkpt lat="45.1622" lon="5.97129">
        <ele>2693</ele>
        <time>2020-08-11T10:00:12Z</time>
      </trkpt>
      <trkpt lat="45.1622" lon="5.97129">
        <ele>2693</ele>
        <time>2020-08-11T10:00:13Z</time>
      </trkpt>
      <trkpt lat="45.1622" lon="5.97129">
        <ele>2693</ele>
        <time>2020-08-11T10:00:14Z</time>
      </trkpt>
      <trkpt lat="45.1622" lon="5.97129">
        <ele>2693</ele>
        <time>2020-08-11T10:00:15Z</time>
      </trkpt>
      <trkpt lat="45.1622" lon="5.97129">
        <ele>2693</ele>
        <time>2020-08-11T10:00:16Z</time>
      </trkpt>
      <trkpt lat="45.1622" lon="5.97129">
        <ele>2693</ele>
        <time>2020-08-11T10:00:17Z</time>
      </trkpt>
      <trkpt lat="45.1622" lon="5.97129">
        <ele>2693</ele>
        <time>2020-08-11T10:00:18Z</time>
      </trkpt>
      <trkpt lat="45.1622" lon="5.97129">
        <ele>2693</ele>
        <time>2020-08-11T10:00:19Z</time>
      </trkpt>
      <trkpt lat="45.1622" lon="5.97129">
        <ele>2693.2</ele>
        <time>2020-08-11T10:00:20Z</time>
      </trkpt>
      <trkpt lat="45.1622" lon="5.97129">
        <ele>2693.2</ele>
        <time>2020-08-11T10:00:21Z</time>
      </trkpt>
      <trkpt lat="45.1622" lon="5.97129">
        <ele>2693.2</ele>
        <time>2020-08-11T10:00:22Z</time>
      </trkpt>
      <trkpt lat="45.1622" lon="5.97129">
        <ele>2693.2</ele>
        <time>2020-08-11T10:00:23Z</time>
      </trkpt>
      <trkpt lat="45.1622" lon="5.97129">
        <ele>2693.2</ele>
        <time>2020-08-11T10:00:24Z</time>
      </trkpt>
      <trkpt lat="45.1622" lon="5.97129">
        <ele>2693.2</ele>
        <time>2020-08-11T10:00:25Z</time>
      </trkpt>
      <trkpt lat="45.1622" lon="5.97129">
        <ele>2693</ele>
        <time>2020-08-11T10:00:26Z</time>
      </trkpt>
      <trkpt lat="45.1622" lon="5.97129">
        <ele>2693</ele>
        <time>2020-08-11T10:00:27Z</time>
      </trkpt>
      <trkpt lat="45.1622" lon="5.97129">
        <ele>2693.2</ele>
        <time>2020-08-11T10:00:28Z</time>
      </trkpt>
      <trkpt lat="45.1622" lon="5.97129">
        <ele>2693.2</ele>
        <time>2020-08-11T10:00:29Z</time>
      </trkpt>
      <trkpt lat="45.1622" lon="5.97129">
        <ele>2693</ele>
        <time>2020-08-11T10:00:30Z</time>
      </trkpt>
      <trkpt lat="45.1622" lon="5.97129">
        <ele>2693</ele>
        <time>2020-08-11T10:00:31Z</time>
      </trkpt>
      <trkpt lat="45.16221" lon="5.97129">
        <ele>2692.8</ele>
        <time>2020-08-11T10:00:32Z</time>
      </trkpt>
      <trkpt lat="45.16221" lon="5.97129">
        <ele>2692.8</ele>
        <time>2020-08-11T10:00:33Z</time>
      </trkpt>
      <trkpt lat="45.16221" lon="5.97128">
        <ele>2692.8</ele>
        <time>2020-08-11T10:00:34Z</time>
      </trkpt>
      <trkpt lat="45.16221" lon="5.97128">
        <ele>2693</ele>
        <time>2020-08-11T10:00:35Z</time>
      </trkpt>
      <trkpt lat="45.16221" lon="5.97128">
        <ele>2693</ele>
        <time>2020-08-11T10:00:36Z</time>
      </trkpt>
      <trkpt lat="45.16221" lon="5.97128">
        <ele>2693</ele>
        <time>2020-08-11T10:00:37Z</time>
      </trkpt>
      <trkpt lat="45.16221" lon="5.97128">
        <ele>2693</ele>
        <time>2020-08-11T10:00:38Z</time>
      </trkpt>
      <trkpt lat="45.16221" lon="5.97128">
        <ele>2693.2</ele>
        <time>2020-08-11T10:00:39Z</time>
      </trkpt>
      <trkpt lat="45.16221" lon="5.97128">
        <ele>2693</ele>
        <time>2020-08-11T10:00:40Z</time>
      </trkpt>
      <trkpt lat="45.16221" lon="5.97128">
        <ele>2693</ele>
        <time>2020-08-11T10:00:41Z</time>
      </trkpt>
      <trkpt lat="45.16221" lon="5.97128">
        <ele>2693</ele>
        <time>2020-08-11T10:00:42Z</time>
      </trkpt>
      <trkpt lat="45.16221" lon="5.97128">
        <ele>2693</ele>
        <time>2020-08-11T10:00:43Z</time>
      </trkpt>
      <trkpt lat="45.16221" lon="5.97128">
        <ele>2693.2</ele>
        <time>2020-08-11T10:00:44Z</time>
      </trkpt>
      <trkpt lat="45.16221" lon="5.97128">
        <ele>2693</ele>
        <time>2020-08-11T10:00:45Z</time>
      </trkpt>
      <trkpt lat="45.16221" lon="5.97128">
        <ele>2693.2</ele>
        <time>2020-08-11T10:00:46Z</time>
      </trkpt>
      <trkpt lat="45.16221" lon="5.97128">
        <ele>2693.2</ele>
        <time>2020-08-11T10:00:47Z</time>
      </trkpt>
      <trkpt lat="45.16221" lon="5.97128">
        <ele>2693</ele>
        <time>2020-08-11T10:00:48Z</time>
      </trkpt>
      <trkpt lat="45.16221" lon="5.97128">
        <ele>2693</ele>
        <time>2020-08-11T10:00:49Z</time>
      </trkpt>
      <trkpt lat="45.16221" lon="5.97128">
        <ele>2693</ele>
        <time>2020-08-11T10:00:50Z</time>
      </trkpt>
      <trkpt lat="45.16221" lon="5.97128">
        <ele>2692.8</ele>
        <time>2020-08-11T10:00:51Z</time>
      </trkpt>
      <trkpt lat="45.16221" lon="5.97128">
        <ele>2692.8</ele>
        <time>2020-08-11T10:00:52Z</time>
      </trkpt>
      <trkpt lat="45.16221" lon="5.97128">
        <ele>2692.6</ele>
        <time>2020-08-11T10:00:53Z</time>
      </trkpt>
      <trkpt lat="45.16221" lon="5.97128">
        <ele>2692.6</ele>
        <time>2020-08-11T10:00:54Z</time>
      </trkpt>
      <trkpt lat="45.16221" lon="5.97128">
        <ele>2692.6</ele>
        <time>2020-08-11T10:00:55Z</time>
      </trkpt>
      <trkpt lat="45.16221" lon="5.97128">
        <ele>2692.6</ele>
        <time>2020-08-11T10:00:56Z</time>
      </trkpt>
      <trkpt lat="45.16221" lon="5.97128">
        <ele>2692.6</ele>
        <time>2020-08-11T10:00:57Z</time>
      </trkpt>
      <trkpt lat="45.16221" lon="5.97128">
        <ele>2692.6</ele>
        <time>2020-08-11T10:00:58Z</time>
      </trkpt>
      <trkpt lat="45.16221" lon="5.97128">
        <ele>2692.6</ele>
        <time>2020-08-11T10:00:59Z</time>
      </trkpt>
      <trkpt lat="45.16221" lon="5.97128">
        <ele>2692.6</ele>
        <time>2020-08-11T10:01:00Z</time>
      </trkpt>
      <trkpt lat="45.16221" lon="5.97128">
        <ele>2692.8</ele>
        <time>2020-08-11T10:01:01Z</time>
      </trkpt>
      <trkpt lat="45.16221" lon="5.97128">
        <ele>2692.8</ele>
        <time>2020-08-11T10:01:02Z</time>
      </trkpt>
      <trkpt lat="45.16221" lon="5.97128">
        <ele>2692.6</ele>
        <time>2020-08-11T10:01:03Z</time>
      </trkpt>
      <trkpt lat="45.16221" lon="5.97128">
        <ele>2692.6</ele>
        <time>2020-08-11T10:01:04Z</time>
      </trkpt>
      <trkpt lat="45.16221" lon="5.97128">
        <ele>2692.6</ele>
        <time>2020-08-11T10:01:05Z</time>
      </trkpt>
      <trkpt lat="45.16221" lon="5.97128">
        <ele>2692.6</ele>
        <time>2020-08-11T10:01:06Z</time>
      </trkpt>
      <trkpt lat="45.16221" lon="5.97128">
        <ele>2692.6</ele>
        <time>2020-08-11T10:01:07Z</time>
      </trkpt>
      <trkpt lat="45.16221" lon="5.97128">
        <ele>2692.6</ele>
        <time>2020-08-11T10:01:08Z</time>
      </trkpt>
      <trkpt lat="45.16221" lon="5.97128">
        <ele>2692.8</ele>
        <time>2020-08-11T10:01:09Z</time>
      </trkpt>
      <trkpt lat="45.16221" lon="5.97128">
        <ele>2692.6</ele>
        <time>2020-08-11T10:01:10Z</time>
      </trkpt>
      <trkpt lat="45.16221" lon="5.97128">
        <ele>2692.6</ele>
        <time>2020-08-11T10:01:11Z</time>
      </trkpt>
      <trkpt lat="45.16221" lon="5.97127">
        <ele>2692.6</ele>
        <time>2020-08-11T10:01:12Z</time>
      </trkpt>
      <trkpt lat="45.16221" lon="5.97127">
        <ele>2692.8</ele>
        <time>2020-08-11T10:01:13Z</time>
      </trkpt>
      <trkpt lat="45.16221" lon="5.97127">
        <ele>2692.8</ele>
        <time>2020-08-11T10:01:14Z</time>
      </trkpt>
      <trkpt lat="45.16221" lon="5.97127">
        <ele>2692.8</ele>
        <time>2020-08-11T10:01:15Z</time>
      </trkpt>
      <trkpt lat="45.16221" lon="5.97127">
        <ele>2692.8</ele>
        <time>2020-08-11T10:01:16Z</time>
      </trkpt>
      <trkpt lat="45.16221" lon="5.97127">
        <ele>2693</ele>
        <time>2020-08-11T10:01:17Z</time>
      </trkpt>
      <trkpt lat="45.16222" lon="5.97127">
        <ele>2693</ele>
        <time>2020-08-11T10:01:18Z</time>
      </trkpt>
      <trkpt lat="45.16222" lon="5.97127">
        <ele>2693.2</ele>
        <time>2020-08-11T10:01:19Z</time>
      </trkpt>
      <trkpt lat="45.16222" lon="5.97127">
        <ele>2693.2</ele>
        <time>2020-08-11T10:01:20Z</time>
      </trkpt>
      <trkpt lat="45.16222" lon="5.97127">
        <ele>2693.2</ele>
        <time>2020-08-11T10:01:21Z</time>
      </trkpt>
      <trkpt lat="45.16222" lon="5.97127">
        <ele>2693.2</ele>
        <time>2020-08-11T10:01:22Z</time>
      </trkpt>
      <trkpt lat="45.16222" lon="5.97127">
        <ele>2693.2</ele>
        <time>2020-08-11T10:01:23Z</time>
      </trkpt>
      <trkpt lat="45.16222" lon="5.97127">
        <ele>2693.2</ele>
        <time>2020-08-11T10:01:24Z</time>
      </trkpt>
      <trkpt lat="45.16222" lon="5.97127">
        <ele>2693.2</ele>
        <time>2020-08-11T10:01:25Z</time>
      </trkpt>
      <trkpt lat="45.16222" lon="5.97127">
        <ele>2693</ele>
        <time>2020-08-11T10:01:26Z</time>
      </trkpt>
      <trkpt lat="45.16222" lon="5.97127">
        <ele>2693</ele>
        <time>2020-08-11T10:01:27Z</time>
      </trkpt>
      <trkpt lat="45.16222" lon="5.97127">
        <ele>2693.2</ele>
        <time>2020-08-11T10:01:28Z</time>
      </trkpt>
      <trkpt lat="45.16222" lon="5.97127">
        <ele>2693</ele>
        <time>2020-08-11T10:01:29Z</time>
      </trkpt>
      <trkpt lat="45.16222" lon="5.97127">
        <ele>2693</ele>
        <time>2020-08-11T10:01:30Z</time>
      </trkpt>
      <trkpt lat="45.16222" lon="5.97127">
        <ele>2693</ele>
        <time>2020-08-11T10:01:31Z</time>
      </trkpt>
      <trkpt lat="45.16222" lon="5.97127">
        <ele>2693</ele>
        <time>2020-08-11T10:01:32Z</time>
      </trkpt>
      <trkpt lat="45.16222" lon="5.97127">
        <ele>2693</ele>
        <time>2020-08-11T10:01:33Z</time>
      </trkpt>
      <trkpt lat="45.16222" lon="5.97127">
        <ele>2693.4</ele>
        <time>2020-08-11T10:01:34Z</time>
      </trkpt>
      <trkpt lat="45.16222" lon="5.97127">
        <ele>2693.8</ele>
        <time>2020-08-11T10:01:35Z</time>
      </trkpt>
      <trkpt lat="45.16222" lon="5.97127">
        <ele>2693.8</ele>
        <time>2020-08-11T10:01:36Z</time>
      </trkpt>
      <trkpt lat="45.16222" lon="5.97127">
        <ele>2693.8</ele>
        <time>2020-08-11T10:01:37Z</time>
      </trkpt>
      <trkpt lat="45.16222" lon="5.97127">
        <ele>2693.6</ele>
        <time>2020-08-11T10:01:38Z</time>
      </trkpt>
      <trkpt lat="45.16222" lon="5.97127">
        <ele>2693.4</ele>
        <time>2020-08-11T10:01:39Z</time>
      </trkpt>
      <trkpt lat="45.16222" lon="5.97127">
        <ele>2693.4</ele>
        <time>2020-08-11T10:01:40Z</time>
      </trkpt>
      <trkpt lat="45.16222" lon="5.97127">
        <ele>2693.4</ele>
        <time>2020-08-11T10:01:41Z</time>
      </trkpt>
      <trkpt lat="45.16222" lon="5.97127">
        <ele>2693.4</ele>
        <time>2020-08-11T10:01:42Z</time>
      </trkpt>
      <trkpt lat="45.16222" lon="5.97127">
        <ele>2693.6</ele>
        <time>2020-08-11T10:01:43Z</time>
      </trkpt>
      <trkpt lat="45.16222" lon="5.97127">
        <ele>2693.4</ele>
        <time>2020-08-11T10:01:44Z</time>
      </trkpt>
      <trkpt lat="45.16222" lon="5.97127">
        <ele>2693.2</ele>
        <time>2020-08-11T10:01:45Z</time>
      </trkpt>
      <trkpt lat="45.16222" lon="5.97127">
        <ele>2693.2</ele>
        <time>2020-08-11T10:01:46Z</time>
      </trkpt>
      <trkpt lat="45.16222" lon="5.97127">
        <ele>2693.2</ele>
        <time>2020-08-11T10:01:47Z</time>
      </trkpt>
      <trkpt lat="45.16222" lon="5.97127">
        <ele>2693</ele>
        <time>2020-08-11T10:01:48Z</time>
      </trkpt>
      <trkpt lat="45.16223" lon="5.97124">
        <ele>2693</ele>
        <time>2020-08-11T10:01:49Z</time>
      </trkpt>
      <trkpt lat="45.16223" lon="5.97124">
        <ele>2693.2</ele>
        <time>2020-08-11T10:01:50Z</time>
      </trkpt>
      <trkpt lat="45.16223" lon="5.97124">
        <ele>2693.2</ele>
        <time>2020-08-11T10:01:51Z</time>
      </trkpt>
      <trkpt lat="45.16223" lon="5.97121">
        <ele>2693.2</ele>
        <time>2020-08-11T10:01:52Z</time>
      </trkpt>
      <trkpt lat="45.16223" lon="5.97121">
        <ele>2693.2</ele>
        <time>2020-08-11T10:01:53Z</time>
      </trkpt>
      <trkpt lat="45.16222" lon="5.97121">
        <ele>2693.2</ele>
        <time>2020-08-11T10:01:54Z</time>
      </trkpt>
      <trkpt lat="45.16222" lon="5.97121">
        <ele>2693.4</ele>
        <time>2020-08-11T10:01:55Z</time>
      </trkpt>
      <trkpt lat="45.16222" lon="5.97121">
        <ele>2693.4</ele>
        <time>2020-08-11T10:01:56Z</time>
      </trkpt>
      <trkpt lat="45.16222" lon="5.97121">
        <ele>2693.4</ele>
        <time>2020-08-11T10:01:57Z</time>
      </trkpt>
      <trkpt lat="45.16222" lon="5.97121">
        <ele>2693.4</ele>
        <time>2020-08-11T10:01:58Z</time>
      </trkpt>
      <trkpt lat="45.16221" lon="5.97122">
        <ele>2693.4</ele>
        <time>2020-08-11T10:01:59Z</time>
      </trkpt>
      <trkpt lat="45.16221" lon="5.97122">
        <ele>2693.4</ele>
        <time>2020-08-11T10:02:00Z</time>
      </trkpt>
      <trkpt lat="45.16221" lon="5.97122">
        <ele>2693.2</ele>
        <time>2020-08-11T10:02:01Z</time>
      </trkpt>
      <trkpt lat="45.16221" lon="5.97122">
        <ele>2693.2</ele>
        <time>2020-08-11T10:02:02Z</time>
      </trkpt>
      <trkpt lat="45.16221" lon="5.97122">
        <ele>2693.2</ele>
        <time>2020-08-11T10:02:03Z</time>
      </trkpt>
      <trkpt lat="45.16221" lon="5.97122">
        <ele>2693</ele>
        <time>2020-08-11T10:02:04Z</time>
      </trkpt>
      <trkpt lat="45.1622" lon="5.97122">
        <ele>2693</ele>
        <time>2020-08-11T10:02:05Z</time>
      </trkpt>
      <trkpt lat="45.1622" lon="5.97122">
        <ele>2693</ele>
        <time>2020-08-11T10:02:06Z</time>
      </trkpt>
      <trkpt lat="45.1622" lon="5.97123">
        <ele>2693</ele>
        <time>2020-08-11T10:02:07Z</time>
      </trkpt>
      <trkpt lat="45.1622" lon="5.97123">
        <ele>2693</ele>
        <time>2020-08-11T10:02:08Z</time>
      </trkpt>
      <trkpt lat="45.1622" lon="5.97123">
        <ele>2693.2</ele>
        <time>2020-08-11T10:02:09Z</time>
      </trkpt>
      <trkpt lat="45.1622" lon="5.97123">
        <ele>2693.2</ele>
        <time>2020-08-11T10:02:10Z</time>
      </trkpt>
      <trkpt lat="45.16219" lon="5.97123">
        <ele>2693.2</ele>
        <time>2020-08-11T10:02:11Z</time>
      </trkpt>
      <trkpt lat="45.16219" lon="5.97123">
        <ele>2693</ele>
        <time>2020-08-11T10:02:12Z</time>
      </trkpt>
      <trkpt lat="45.16219" lon="5.97123">
        <ele>2693</ele>
        <time>2020-08-11T10:02:13Z</time>
      </trkpt>
      <trkpt lat="45.16219" lon="5.97124">
        <ele>2693</ele>
        <time>2020-08-11T10:02:14Z</time>
      </trkpt>
      <trkpt lat="45.16219" lon="5.97124">
        <ele>2693.2</ele>
        <time>2020-08-11T10:02:15Z</time>
      </trkpt>
      <trkpt lat="45.16219" lon="5.97124">
        <ele>2693.2</ele>
        <time>2020-08-11T10:02:16Z</time>
      </trkpt>
      <trkpt lat="45.16218" lon="5.97124">
        <ele>2693.4</ele>
        <time>2020-08-11T10:02:17Z</time>
      </trkpt>
      <trkpt lat="45.16218" lon="5.97124">
        <ele>2693.2</ele>
        <time>2020-08-11T10:02:18Z</time>
      </trkpt>
      <trkpt lat="45.16218" lon="5.97124">
        <ele>2693.2</ele>
        <time>2020-08-11T10:02:19Z</time>
      </trkpt>
      <trkpt lat="45.16218" lon="5.97124">
        <ele>2693.2</ele>
        <time>2020-08-11T10:02:20Z</time>
      </trkpt>
      <trkpt lat="45.16218" lon="5.97125">
        <ele>2693</ele>
        <time>2020-08-11T10:02:21Z</time>
      </trkpt>
      <trkpt lat="45.16217" lon="5.97125">
        <ele>2693</ele>
        <time>2020-08-11T10:02:22Z</time>
      </trkpt>
      <trkpt lat="45.16217" lon="5.97125">
        <ele>2693</ele>
        <time>2020-08-11T10:02:23Z</time>
      </trkpt>
      <trkpt lat="45.16217" lon="5.97125">
        <ele>2693</ele>
        <time>2020-08-11T10:02:24Z</time>
      </trkpt>
      <trkpt lat="45.16217" lon="5.97125">
        <ele>2693.2</ele>
        <time>2020-08-11T10:02:25Z</time>
      </trkpt>
      <trkpt lat="45.16221" lon="5.97126">
        <ele>2693.2</ele>
        <time>2020-08-11T10:02:26Z</time>
      </trkpt>
      <trkpt lat="45.16221" lon="5.97126">
        <ele>2693.2</ele>
        <time>2020-08-11T10:02:27Z</time>
      </trkpt>
      <trkpt lat="45.16221" lon="5.97126">
        <ele>2693.2</ele>
        <time>2020-08-11T10:02:28Z</time>
      </trkpt>
      <trkpt lat="45.16221" lon="5.97126">
        <ele>2693.2</ele>
        <time>2020-08-11T10:02:29Z</time>
      </trkpt>
      <trkpt lat="45.16221" lon="5.97126">
        <ele>2693.2</ele>
        <time>2020-08-11T10:02:30Z</time>
      </trkpt>
      <trkpt lat="45.16221" lon="5.97126">
        <ele>2693.2</ele>
        <time>2020-08-11T10:02:31Z</time>
      </trkpt>
      <trkpt lat="45.16221" lon="5.97126">
        <ele>2693.2</ele>
        <time>2020-08-11T10:02:32Z</time>
      </trkpt>
      <trkpt lat="45.16223" lon="5.97127">
        <ele>2693</ele>
        <time>2020-08-11T10:02:33Z</time>
      </trkpt>
      <trkpt lat="45.16223" lon="5.97127">
        <ele>2693.2</ele>
        <time>2020-08-11T10:02:34Z</time>
      </trkpt>
      <trkpt lat="45.16223" lon="5.97127">
        <ele>2693.2</ele>
        <time>2020-08-11T10:02:35Z</time>
      </trkpt>
      <trkpt lat="45.16223" lon="5.97127">
        <ele>2693.2</ele>
        <time>2020-08-11T10:02:36Z</time>
      </trkpt>
      <trkpt lat="45.16223" lon="5.97127">
        <ele>2693.2</ele>
        <time>2020-08-11T10:02:37Z</time>
      </trkpt>
      <trkpt lat="45.16223" lon="5.97127">
        <ele>2693.2</ele>
        <time>2020-08-11T10:02:38Z</time>
      </trkpt>
      <trkpt lat="45.16223" lon="5.97127">
        <ele>2693.2</ele>
        <time>2020-08-11T10:02:39Z</time>
      </trkpt>
      <trkpt lat="45.16223" lon="5.97127">
        <ele>2693.4</ele>
        <time>2020-08-11T10:02:40Z</time>
      </trkpt>
      <trkpt lat="45.16223" lon="5.97127">
        <ele>2693.4</ele>
        <time>2020-08-11T10:02:41Z</time>
      </trkpt>
      <trkpt lat="45.16223" lon="5.97127">
        <ele>2693.4</ele>
        <time>2020-08-11T10:02:42Z</time>
      </trkpt>
      <trkpt lat="45.16223" lon="5.97127">
        <ele>2693.4</ele>
        <time>2020-08-11T10:02:43Z</time>
      </trkpt>
      <trkpt lat="45.16223" lon="5.97127">
        <ele>2693.4</ele>
        <time>2020-08-11T10:02:44Z</time>
      </trkpt>
      <trkpt lat="45.16223" lon="5.97127">
        <ele>2693.4</ele>
        <time>2020-08-11T10:02:45Z</time>
      </trkpt>
      <trkpt lat="45.16223" lon="5.97127">
        <ele>2693.4</ele>
        <time>2020-08-11T10:02:46Z</time>
      </trkpt>
      <trkpt lat="45.16223" lon="5.97127">
        <ele>2693.4</ele>
        <time>2020-08-11T10:02:47Z</time>
      </trkpt>
      <trkpt lat="45.16223" lon="5.97127">
        <ele>2693.4</ele>
        <time>2020-08-11T10:02:48Z</time>
      </trkpt>
      <trkpt lat="45.16223" lon="5.97127">
        <ele>2693.2</ele>
        <time>2020-08-11T10:02:49Z</time>
      </trkpt>
      <trkpt lat="45.16223" lon="5.97127">
        <ele>2693.2</ele>
        <time>2020-08-11T10:02:50Z</time>
      </trkpt>
      <trkpt lat="45.16223" lon="5.97127">
        <ele>2693.2</ele>
        <time>2020-08-11T10:02:51Z</time>
      </trkpt>
      <trkpt lat="45.16222" lon="5.97127">
        <ele>2693.2</ele>
        <time>2020-08-11T10:02:52Z</time>
      </trkpt>
      <trkpt lat="45.16222" lon="5.97127">
        <ele>2693.4</ele>
        <time>2020-08-11T10:02:53Z</time>
      </trkpt>
      <trkpt lat="45.16222" lon="5.97127">
        <ele>2693.4</ele>
        <time>2020-08-11T10:02:54Z</time>
      </trkpt>
      <trkpt lat="45.16222" lon="5.97127">
        <ele>2693.4</ele>
        <time>2020-08-11T10:02:55Z</time>
      </trkpt>
      <trkpt lat="45.16222" lon="5.97127">
        <ele>2693.4</ele>
        <time>2020-08-11T10:02:56Z</time>
      </trkpt>
      <trkpt lat="45.16222" lon="5.97127">
        <ele>2693.4</ele>
        <time>2020-08-11T10:02:57Z</time>
      </trkpt>
      <trkpt lat="45.16222" lon="5.97127">
        <ele>2693.2</ele>
        <time>2020-08-11T10:02:58Z</time>
      </trkpt>
      <trkpt lat="45.16222" lon="5.97127">
        <ele>2693.2</ele>
        <time>2020-08-11T10:02:59Z</time>
      </trkpt>
      <trkpt lat="45.16222" lon="5.97127">
        <ele>2693.4</ele>
        <time>2020-08-11T10:03:00Z</time>
      </trkpt>
      <trkpt lat="45.16222" lon="5.97127">
        <ele>2693.2</ele>
        <time>2020-08-11T10:03:01Z</time>
      </trkpt>
      <trkpt lat="45.16222" lon="5.97127">
        <ele>2693.2</ele>
        <time>2020-08-11T10:03:02Z</time>
      </trkpt>
      <trkpt lat="45.16222" lon="5.97127">
        <ele>2693.2</ele>
        <time>2020-08-11T10:03:03Z</time>
      </trkpt>
      <trkpt lat="45.16222" lon="5.97127">
        <ele>2693.4</ele>
        <time>2020-08-11T10:03:04Z</time>
      </trkpt>
      <trkpt lat="45.16222" lon="5.97127">
        <ele>2693.2</ele>
        <time>2020-08-11T10:03:05Z</time>
      </trkpt>
      <trkpt lat="45.16222" lon="5.97127">
        <ele>2693</ele>
        <time>2020-08-11T10:03:06Z</time>
      </trkpt>
      <trkpt lat="45.16222" lon="5.97127">
        <ele>2693</ele>
        <time>2020-08-11T10:03:07Z</time>
      </trkpt>
      <trkpt lat="45.16222" lon="5.97127">
        <ele>2692.8</ele>
        <time>2020-08-11T10:03:08Z</time>
      </trkpt>
      <trkpt lat="45.16222" lon="5.97127">
        <ele>2692.8</ele>
        <time>2020-08-11T10:03:09Z</time>
      </trkpt>
      <trkpt lat="45.16222" lon="5.97127">
        <ele>2692.8</ele>
        <time>2020-08-11T10:03:10Z</time>
      </trkpt>
      <trkpt lat="45.16222" lon="5.97127">
        <ele>2693</ele>
        <time>2020-08-11T10:03:11Z</time>
      </trkpt>
      <trkpt lat="45.16222" lon="5.97127">
        <ele>2692.8</ele>
        <time>2020-08-11T10:03:12Z</time>
      </trkpt>
      <trkpt lat="45.16222" lon="5.97127">
        <ele>2692.8</ele>
        <time>2020-08-11T10:03:13Z</time>
      </trkpt>
      <trkpt lat="45.16222" lon="5.97127">
        <ele>2693</ele>
        <time>2020-08-11T10:03:14Z</time>
      </trkpt>
      <trkpt lat="45.16222" lon="5.97127">
        <ele>2693</ele>
        <time>2020-08-11T10:03:15Z</time>
      </trkpt>
      <trkpt lat="45.16221" lon="5.97127">
        <ele>2692.8</ele>
        <time>2020-08-11T10:03:16Z</time>
      </trkpt>
      <trkpt lat="45.16221" lon="5.97127">
        <ele>2692.8</ele>
        <time>2020-08-11T10:03:17Z</time>
      </trkpt>
      <trkpt lat="45.16221" lon="5.97127">
        <ele>2693</ele>
        <time>2020-08-11T10:03:18Z</time>
      </trkpt>
      <trkpt lat="45.16221" lon="5.97127">
        <ele>2693.2</ele>
        <time>2020-08-11T10:03:19Z</time>
      </trkpt>
      <trkpt lat="45.16221" lon="5.97127">
        <ele>2693.2</ele>
        <time>2020-08-11T10:03:20Z</time>
      </trkpt>
      <trkpt lat="45.16221" lon="5.97127">
        <ele>2693.2</ele>
        <time>2020-08-11T10:03:21Z</time>
      </trkpt>
      <trkpt lat="45.16221" lon="5.97127">
        <ele>2693.4</ele>
        <time>2020-08-11T10:03:22Z</time>
      </trkpt>
      <trkpt lat="45.16221" lon="5.97127">
        <ele>2693.4</ele>
        <time>2020-08-11T10:03:23Z</time>
      </trkpt>
      <trkpt lat="45.16221" lon="5.97127">
        <ele>2693.4</ele>
        <time>2020-08-11T10:03:24Z</time>
      </trkpt>
      <trkpt lat="45.16221" lon="5.97128">
        <ele>2693.6</ele>
        <time>2020-08-11T10:03:25Z</time>
      </trkpt>
      <trkpt lat="45.16221" lon="5.97128">
        <ele>2693.4</ele>
        <time>2020-08-11T10:03:26Z</time>
      </trkpt>
      <trkpt lat="45.16221" lon="5.97128">
        <ele>2693.4</ele>
        <time>2020-08-11T10:03:27Z</time>
      </trkpt>
      <trkpt lat="45.16221" lon="5.97128">
        <ele>2693.6</ele>
        <time>2020-08-11T10:03:28Z</time>
      </trkpt>
      <trkpt lat="45.16221" lon="5.97128">
        <ele>2693.6</ele>
        <time>2020-08-11T10:03:29Z</time>
      </trkpt>
      <trkpt lat="45.16221" lon="5.97128">
        <ele>2693.4</ele>
        <time>2020-08-11T10:03:30Z</time>
      </trkpt>
      <trkpt lat="45.16221" lon="5.97128">
        <ele>2693.6</ele>
        <time>2020-08-11T10:03:31Z</time>
      </trkpt>
      <trkpt lat="45.16221" lon="5.97128">
        <ele>2693.4</ele>
        <time>2020-08-11T10:03:32Z</time>
      </trkpt>
      <trkpt lat="45.16221" lon="5.97128">
        <ele>2693.4</ele>
        <time>2020-08-11T10:03:33Z</time>
      </trkpt>
      <trkpt lat="45.16221" lon="5.97128">
        <ele>2693.6</ele>
        <time>2020-08-11T10:03:34Z</time>
      </trkpt>
      <trkpt lat="45.16221" lon="5.97128">
        <ele>2693.4</ele>
        <time>2020-08-11T10:03:35Z</time>
      </trkpt>
      <trkpt lat="45.16221" lon="5.97128">
        <ele>2693.4</ele>
        <time>2020-08-11T10:03:36Z</time>
      </trkpt>
      <trkpt lat="45.16221" lon="5.97128">
        <ele>2693.4</ele>
        <time>2020-08-11T10:03:37Z</time>
      </trkpt>
      <trkpt lat="45.16221" lon="5.97128">
        <ele>2693.4</ele>
        <time>2020-08-11T10:03:38Z</time>
      </trkpt>
      <trkpt lat="45.16221" lon="5.97128">
        <ele>2693.4</ele>
        <time>2020-08-11T10:03:39Z</time>
      </trkpt>
      <trkpt lat="45.16221" lon="5.97128">
        <ele>2693.4</ele>
        <time>2020-08-11T10:03:40Z</time>
      </trkpt>
      <trkpt lat="45.1622" lon="5.97128">
        <ele>2693.6</ele>
        <time>2020-08-11T10:03:41Z</time>
      </trkpt>
      <trkpt lat="45.1622" lon="5.97128">
        <ele>2693.4</ele>
        <time>2020-08-11T10:03:42Z</time>
      </trkpt>
      <trkpt lat="45.1622" lon="5.97128">
        <ele>2693.4</ele>
        <time>2020-08-11T10:03:43Z</time>
      </trkpt>
      <trkpt lat="45.1622" lon="5.97128">
        <ele>2693.4</ele>
        <time>2020-08-11T10:03:44Z</time>
      </trkpt>
      <trkpt lat="45.1622" lon="5.97128">
        <ele>2693.6</ele>
        <time>2020-08-11T10:03:45Z</time>
      </trkpt>
      <trkpt lat="45.1622" lon="5.97128">
        <ele>2693.4</ele>
        <time>2020-08-11T10:03:46Z</time>
      </trkpt>
      <trkpt lat="45.1622" lon="5.97128">
        <ele>2693.4</ele>
        <time>2020-08-11T10:03:47Z</time>
      </trkpt>
      <trkpt lat="45.1622" lon="5.97128">
        <ele>2693.4</ele>
        <time>2020-08-11T10:03:48Z</time>
      </trkpt>
      <trkpt lat="45.1622" lon="5.97128">
        <ele>2693.2</ele>
        <time>2020-08-11T10:03:49Z</time>
      </trkpt>
      <trkpt lat="45.1622" lon="5.97128">
        <ele>2693.2</ele>
        <time>2020-08-11T10:03:50Z</time>
      </trkpt>
      <trkpt lat="45.1622" lon="5.97128">
        <ele>2693.2</ele>
        <time>2020-08-11T10:03:51Z</time>
      </trkpt>
      <trkpt lat="45.1622" lon="5.97128">
        <ele>2693.2</ele>
        <time>2020-08-11T10:03:52Z</time>
      </trkpt>
      <trkpt lat="45.1622" lon="5.97128">
        <ele>2693.2</ele>
        <time>2020-08-11T10:03:53Z</time>
      </trkpt>
      <trkpt lat="45.1622" lon="5.97128">
        <ele>2693.2</ele>
        <time>2020-08-11T10:03:54Z</time>
      </trkpt>
      <trkpt lat="45.1622" lon="5.97128">
        <ele>2693.4</ele>
        <time>2020-08-11T10:03:55Z</time>
      </trkpt>
      <trkpt lat="45.1622" lon="5.97128">
        <ele>2693.2</ele>
        <time>2020-08-11T10:03:56Z</time>
      </trkpt>
      <trkpt lat="45.1622" lon="5.97128">
        <ele>2693.2</ele>
        <time>2020-08-11T10:03:57Z</time>
      </trkpt>
      <trkpt lat="45.1622" lon="5.97128">
        <ele>2693.2</ele>
        <time>2020-08-11T10:03:58Z</time>
      </trkpt>
      <trkpt lat="45.1622" lon="5.97128">
        <ele>2693</ele>
        <time>2020-08-11T10:03:59Z</time>
      </trkpt>
      <trkpt lat="45.1622" lon="5.97128">
        <ele>2693</ele>
        <time>2020-08-11T10:04:00Z</time>
      </trkpt>
      <trkpt lat="45.1622" lon="5.97128">
        <ele>2693.2</ele>
        <time>2020-08-11T10:04:01Z</time>
      </trkpt>
      <trkpt lat="45.1622" lon="5.97128">
        <ele>2693.2</ele>
        <time>2020-08-11T10:04:02Z</time>
      </trkpt>
      <trkpt lat="45.1622" lon="5.97128">
        <ele>2693.4</ele>
        <time>2020-08-11T10:04:03Z</time>
      </trkpt>
      <trkpt lat="45.1622" lon="5.97128">
        <ele>2693.2</ele>
        <time>2020-08-11T10:04:04Z</time>
      </trkpt>
      <trkpt lat="45.1622" lon="5.97128">
        <ele>2693.2</ele>
        <time>2020-08-11T10:04:05Z</time>
      </trkpt>
      <trkpt lat="45.16219" lon="5.97128">
        <ele>2693.4</ele>
        <time>2020-08-11T10:04:06Z</time>
      </trkpt>
      <trkpt lat="45.16219" lon="5.97128">
        <ele>2693.4</ele>
        <time>2020-08-11T10:04:07Z</time>
      </trkpt>
      <trkpt lat="45.16219" lon="5.97128">
        <ele>2693.6</ele>
        <time>2020-08-11T10:04:08Z</time>
      </trkpt>
      <trkpt lat="45.16219" lon="5.97128">
        <ele>2693.8</ele>
        <time>2020-08-11T10:04:09Z</time>
      </trkpt>
      <trkpt lat="45.16219" lon="5.97128">
        <ele>2693.8</ele>
        <time>2020-08-11T10:04:10Z</time>
      </trkpt>
      <trkpt lat="45.16219" lon="5.97128">
        <ele>2693.8</ele>
        <time>2020-08-11T10:04:11Z</time>
      </trkpt>
      <trkpt lat="45.16219" lon="5.97128">
        <ele>2693.6</ele>
        <time>2020-08-11T10:04:12Z</time>
      </trkpt>
      <trkpt lat="45.16219" lon="5.97128">
        <ele>2693.8</ele>
        <time>2020-08-11T10:04:13Z</time>
      </trkpt>
      <trkpt lat="45.16219" lon="5.97128">
        <ele>2693.8</ele>
        <time>2020-08-11T10:04:14Z</time>
      </trkpt>
      <trkpt lat="45.16219" lon="5.97128">
        <ele>2693.8</ele>
        <time>2020-08-11T10:04:15Z</time>
      </trkpt>
      <trkpt lat="45.16219" lon="5.97128">
        <ele>2693.8</ele>
        <time>2020-08-11T10:04:16Z</time>
      </trkpt>
      <trkpt lat="45.16219" lon="5.97128">
        <ele>2693.4</ele>
        <time>2020-08-11T10:04:17Z</time>
      </trkpt>
      <trkpt lat="45.16219" lon="5.97129">
        <ele>2693.4</ele>
        <time>2020-08-11T10:04:18Z</time>
      </trkpt>
      <trkpt lat="45.16219" lon="5.97129">
        <ele>2693.2</ele>
        <time>2020-08-11T10:04:19Z</time>
      </trkpt>
      <trkpt lat="45.16219" lon="5.97129">
        <ele>2693</ele>
        <time>2020-08-11T10:04:20Z</time>
      </trkpt>
      <trkpt lat="45.16219" lon="5.97129">
        <ele>2693</ele>
        <time>2020-08-11T10:04:21Z</time>
      </trkpt>
      <trkpt lat="45.16219" lon="5.97129">
        <ele>2692.8</ele>
        <time>2020-08-11T10:04:22Z</time>
      </trkpt>
      <trkpt lat="45.16219" lon="5.97129">
        <ele>2692.8</ele>
        <time>2020-08-11T10:04:23Z</time>
      </trkpt>
      <trkpt lat="45.16219" lon="5.97129">
        <ele>2692.8</ele>
        <time>2020-08-11T10:04:24Z</time>
      </trkpt>
      <trkpt lat="45.16219" lon="5.97129">
        <ele>2692.8</ele>
        <time>2020-08-11T10:04:25Z</time>
      </trkpt>
      <trkpt lat="45.16219" lon="5.97129">
        <ele>2692.8</ele>
        <time>2020-08-11T10:04:26Z</time>
      </trkpt>
      <trkpt lat="45.16219" lon="5.97129">
        <ele>2692.8</ele>
        <time>2020-08-11T10:04:27Z</time>
      </trkpt>
      <trkpt lat="45.16219" lon="5.97129">
        <ele>2693.2</ele>
        <time>2020-08-11T10:04:28Z</time>
      </trkpt>
      <trkpt lat="45.16219" lon="5.97129">
        <ele>2693.2</ele>
        <time>2020-08-11T10:04:29Z</time>
      </trkpt>
      <trkpt lat="45.16218" lon="5.97129">
        <ele>2693.2</ele>
        <time>2020-08-11T10:04:30Z</time>
      </trkpt>
      <trkpt lat="45.16218" lon="5.97129">
        <ele>2693.4</ele>
        <time>2020-08-11T10:04:31Z</time>
      </trkpt>
      <trkpt lat="45.16218" lon="5.97129">
        <ele>2693.6</ele>
        <time>2020-08-11T10:04:32Z</time>
      </trkpt>
      <trkpt lat="45.16218" lon="5.97129">
        <ele>2693.6</ele>
        <time>2020-08-11T10:04:33Z</time>
      </trkpt>
      <trkpt lat="45.16218" lon="5.97129">
        <ele>2693.8</ele>
        <time>2020-08-11T10:04:34Z</time>
      </trkpt>
      <trkpt lat="45.16218" lon="5.97129">
        <ele>2693.8</ele>
        <time>2020-08-11T10:04:35Z</time>
      </trkpt>
      <trkpt lat="45.16218" lon="5.97129">
        <ele>2693.6</ele>
        <time>2020-08-11T10:04:36Z</time>
      </trkpt>
      <trkpt lat="45.16218" lon="5.97129">
        <ele>2693.6</ele>
        <time>2020-08-11T10:04:37Z</time>
      </trkpt>
      <trkpt lat="45.16218" lon="5.97129">
        <ele>2693.4</ele>
        <time>2020-08-11T10:04:38Z</time>
      </trkpt>
      <trkpt lat="45.16218" lon="5.97129">
        <ele>2693.4</ele>
        <time>2020-08-11T10:04:39Z</time>
      </trkpt>
      <trkpt lat="45.16218" lon="5.97129">
        <ele>2693.2</ele>
        <time>2020-08-11T10:04:40Z</time>
      </trkpt>
      <trkpt lat="45.16218" lon="5.97129">
        <ele>2693.2</ele>
        <time>2020-08-11T10:04:41Z</time>
      </trkpt>
      <trkpt lat="45.16218" lon="5.97129">
        <ele>2693.4</ele>
        <time>2020-08-11T10:04:42Z</time>
      </trkpt>
      <trkpt lat="45.16218" lon="5.97129">
        <ele>2693.4</ele>
        <time>2020-08-11T10:04:43Z</time>
      </trkpt>
      <trkpt lat="45.16218" lon="5.97129">
        <ele>2693.4</ele>
        <time>2020-08-11T10:04:44Z</time>
      </trkpt>
      <trkpt lat="45.16218" lon="5.97129">
        <ele>2693.4</ele>
        <time>2020-08-11T10:04:45Z</time>
      </trkpt>
      <trkpt lat="45.16218" lon="5.97129">
        <ele>2693.4</ele>
        <time>2020-08-11T10:04:46Z</time>
      </trkpt>
      <trkpt lat="45.16218" lon="5.97129">
        <ele>2693.6</ele>
        <time>2020-08-11T10:04:47Z</time>
      </trkpt>
      <trkpt lat="45.16218" lon="5.97126">
        <ele>2693.8</ele>
        <time>2020-08-11T10:04:48Z</time>
      </trkpt>
      <trkpt lat="45.16218" lon="5.97126">
        <ele>2693.8</ele>
        <time>2020-08-11T10:04:49Z</time>
      </trkpt>
      <trkpt lat="45.16218" lon="5.97126">
        <ele>2693.8</ele>
        <time>2020-08-11T10:04:50Z</time>
      </trkpt>
      <trkpt lat="45.16218" lon="5.97126">
        <ele>2693.8</ele>
        <time>2020-08-11T10:04:51Z</time>
      </trkpt>
      <trkpt lat="45.16218" lon="5.97126">
        <ele>2693.8</ele>
        <time>2020-08-11T10:04:52Z</time>
      </trkpt>
      <trkpt lat="45.16218" lon="5.97126">
        <ele>2693.6</ele>
        <time>2020-08-11T10:04:53Z</time>
      </trkpt>
      <trkpt lat="45.16218" lon="5.97126">
        <ele>2693.4</ele>
        <time>2020-08-11T10:04:54Z</time>
      </trkpt>
      <trkpt lat="45.16218" lon="5.97126">
        <ele>2693.4</ele>
        <time>2020-08-11T10:04:55Z</time>
      </trkpt>
      <trkpt lat="45.16218" lon="5.97126">
        <ele>2693.4</ele>
        <time>2020-08-11T10:04:56Z</time>
      </trkpt>
      <trkpt lat="45.16218" lon="5.97126">
        <ele>2693.4</ele>
        <time>2020-08-11T10:04:57Z</time>
      </trkpt>
      <trkpt lat="45.16218" lon="5.97126">
        <ele>2693.4</ele>
        <time>2020-08-11T10:04:58Z</time>
      </trkpt>
      <trkpt lat="45.16218" lon="5.97126">
        <ele>2693.4</ele>
        <time>2020-08-11T10:04:59Z</time>
      </trkpt>
      <trkpt lat="45.16218" lon="5.97126">
        <ele>2693.4</ele>
        <time>2020-08-11T10:05:00Z</time>
      </trkpt>
      <trkpt lat="45.16218" lon="5.97126">
        <ele>2693.4</ele>
        <time>2020-08-11T10:05:01Z</time>
      </trkpt>
      <trkpt lat="45.16218" lon="5.97126">
        <ele>2693.4</ele>
        <time>2020-08-11T10:05:02Z</time>
      </trkpt>
      <trkpt lat="45.16218" lon="5.97126">
        <ele>2693.4</ele>
        <time>2020-08-11T10:05:03Z</time>
      </trkpt>
      <trkpt lat="45.16218" lon="5.97126">
        <ele>2693.4</ele>
        <time>2020-08-11T10:05:04Z</time>
      </trkpt>
      <trkpt lat="45.16218" lon="5.97124">
        <ele>2693.6</ele>
        <time>2020-08-11T10:05:05Z</time>
      </trkpt>
      <trkpt lat="45.16218" lon="5.97124">
        <ele>2693.8</ele>
        <time>2020-08-11T10:05:06Z</time>
      </trkpt>
      <trkpt lat="45.16218" lon="5.97124">
        <ele>2694</ele>
        <time>2020-08-11T10:05:07Z</time>
      </trkpt>
      <trkpt lat="45.16218" lon="5.97124">
        <ele>2694</ele>
        <time>2020-08-11T10:05:08Z</time>
      </trkpt>
      <trkpt lat="45.16218" lon="5.97124">
        <ele>2694.2</ele>
        <time>2020-08-11T10:05:09Z</time>
      </trkpt>
      <trkpt lat="45.16218" lon="5.97124">
        <ele>2694</ele>
        <time>2020-08-11T10:05:10Z</time>
      </trkpt>
      <trkpt lat="45.16218" lon="5.97124">
        <ele>2694</ele>
        <time>2020-08-11T10:05:11Z</time>
      </trkpt>
      <trkpt lat="45.16218" lon="5.97124">
        <ele>2693.8</ele>
        <time>2020-08-11T10:05:12Z</time>
      </trkpt>
      <trkpt lat="45.16218" lon="5.97124">
        <ele>2693.8</ele>
        <time>2020-08-11T10:05:13Z</time>
      </trkpt>
      <trkpt lat="45.16218" lon="5.97124">
        <ele>2693.8</ele>
        <time>2020-08-11T10:05:14Z</time>
      </trkpt>
      <trkpt lat="45.16218" lon="5.97124">
        <ele>2694</ele>
        <time>2020-08-11T10:05:15Z</time>
      </trkpt>
      <trkpt lat="45.16218" lon="5.97124">
        <ele>2694</ele>
        <time>2020-08-11T10:05:16Z</time>
      </trkpt>
      <trkpt lat="45.16218" lon="5.97124">
        <ele>2694</ele>
        <time>2020-08-11T10:05:17Z</time>
      </trkpt>
      <trkpt lat="45.16218" lon="5.97124">
        <ele>2694</ele>
        <time>2020-08-11T10:05:18Z</time>
      </trkpt>
      <trkpt lat="45.16218" lon="5.97124">
        <ele>2693.8</ele>
        <time>2020-08-11T10:05:19Z</time>
      </trkpt>
      <trkpt lat="45.16218" lon="5.97124">
        <ele>2693.8</ele>
        <time>2020-08-11T10:05:20Z</time>
      </trkpt>
      <trkpt lat="45.16216" lon="5.97122">
        <ele>2694</ele>
        <time>2020-08-11T10:05:21Z</time>
      </trkpt>
      <trkpt lat="45.16216" lon="5.97122">
        <ele>2693.8</ele>
        <time>2020-08-11T10:05:22Z</time>
      </trkpt>
      <trkpt lat="45.16216" lon="5.97122">
        <ele>2693.8</ele>
        <time>2020-08-11T10:05:23Z</time>
      </trkpt>
      <trkpt lat="45.16216" lon="5.97122">
        <ele>2693.6</ele>
        <time>2020-08-11T10:05:24Z</time>
      </trkpt>
      <trkpt lat="45.16216" lon="5.97122">
        <ele>2693.6</ele>
        <time>2020-08-11T10:05:25Z</time>
      </trkpt>
      <trkpt lat="45.16216" lon="5.97122">
        <ele>2693.4</ele>
        <time>2020-08-11T10:05:26Z</time>
      </trkpt>
      <trkpt lat="45.16216" lon="5.97122">
        <ele>2693.4</ele>
        <time>2020-08-11T10:05:27Z</time>
      </trkpt>
      <trkpt lat="45.16216" lon="5.97122">
        <ele>2693.4</ele>
        <time>2020-08-11T10:05:28Z</time>
      </trkpt>
      <trkpt lat="45.16216" lon="5.97122">
        <ele>2693.4</ele>
        <time>2020-08-11T10:05:29Z</time>
      </trkpt>
      <trkpt lat="45.16215" lon="5.9712">
        <ele>2693.6</ele>
        <time>2020-08-11T10:05:30Z</time>
      </trkpt>
      <trkpt lat="45.16215" lon="5.9712">
        <ele>2693.6</ele>
        <time>2020-08-11T10:05:31Z</time>
      </trkpt>
      <trkpt lat="45.16215" lon="5.9712">
        <ele>2693.4</ele>
        <time>2020-08-11T10:05:32Z</time>
      </trkpt>
      <trkpt lat="45.16215" lon="5.9712">
        <ele>2693.6</ele>
        <time>2020-08-11T10:05:33Z</time>
      </trkpt>
      <trkpt lat="45.16215" lon="5.9712">
        <ele>2693.6</ele>
        <time>2020-08-11T10:05:34Z</time>
      </trkpt>
      <trkpt lat="45.16215" lon="5.9712">
        <ele>2693.6</ele>
        <time>2020-08-11T10:05:35Z</time>
      </trkpt>
      <trkpt lat="45.16215" lon="5.9712">
        <ele>2693.4</ele>
        <time>2020-08-11T10:05:36Z</time>
      </trkpt>
      <trkpt lat="45.16215" lon="5.9712">
        <ele>2693.4</ele>
        <time>2020-08-11T10:05:37Z</time>
      </trkpt>
      <trkpt lat="45.16215" lon="5.9712">
        <ele>2693.2</ele>
        <time>2020-08-11T10:05:38Z</time>
      </trkpt>
      <trkpt lat="45.16215" lon="5.9712">
        <ele>2693.4</ele>
        <time>2020-08-11T10:05:39Z</time>
      </trkpt>
      <trkpt lat="45.16215" lon="5.9712">
        <ele>2693.4</ele>
        <time>2020-08-11T10:05:40Z</time>
      </trkpt>
      <trkpt lat="45.16215" lon="5.9712">
        <ele>2693.4</ele>
        <time>2020-08-11T10:05:41Z</time>
      </trkpt>
      <trkpt lat="45.16215" lon="5.9712">
        <ele>2693</ele>
        <time>2020-08-11T10:05:42Z</time>
      </trkpt>
      <trkpt lat="45.16215" lon="5.9712">
        <ele>2693</ele>
        <time>2020-08-11T10:05:43Z</time>
      </trkpt>
      <trkpt lat="45.16215" lon="5.9712">
        <ele>2693.2</ele>
        <time>2020-08-11T10:05:44Z</time>
      </trkpt>
      <trkpt lat="45.16215" lon="5.9712">
        <ele>2693.2</ele>
        <time>2020-08-11T10:05:45Z</time>
      </trkpt>
      <trkpt lat="45.16215" lon="5.9712">
        <ele>2693.2</ele>
        <time>2020-08-11T10:05:46Z</time>
      </trkpt>
      <trkpt lat="45.16215" lon="5.9712">
        <ele>2693.4</ele>
        <time>2020-08-11T10:05:47Z</time>
      </trkpt>
      <trkpt lat="45.16215" lon="5.9712">
        <ele>2693.6</ele>
        <time>2020-08-11T10:05:48Z</time>
      </trkpt>
      <trkpt lat="45.16213" lon="5.97122">
        <ele>2693.8</ele>
        <time>2020-08-11T10:05:49Z</time>
      </trkpt>
      <trkpt lat="45.16213" lon="5.97122">
        <ele>2693.8</ele>
        <time>2020-08-11T10:05:50Z</time>
      </trkpt>
      <trkpt lat="45.16213" lon="5.97122">
        <ele>2693.8</ele>
        <time>2020-08-11T10:05:51Z</time>
      </trkpt>
      <trkpt lat="45.16213" lon="5.97122">
        <ele>2694</ele>
        <time>2020-08-11T10:05:52Z</time>
      </trkpt>
      <trkpt lat="45.16213" lon="5.97122">
        <ele>2694</ele>
        <time>2020-08-11T10:05:53Z</time>
      </trkpt>
      <trkpt lat="45.16213" lon="5.97122">
        <ele>2694.2</ele>
        <time>2020-08-11T10:05:54Z</time>
      </trkpt>
      <trkpt lat="45.16213" lon="5.97122">
        <ele>2694</ele>
        <time>2020-08-11T10:05:55Z</time>
      </trkpt>
      <trkpt lat="45.16213" lon="5.97122">
        <ele>2694</ele>
        <time>2020-08-11T10:05:56Z</time>
      </trkpt>
      <trkpt lat="45.16213" lon="5.97122">
        <ele>2694.2</ele>
        <time>2020-08-11T10:05:57Z</time>
      </trkpt>
      <trkpt lat="45.16213" lon="5.97122">
        <ele>2694.2</ele>
        <time>2020-08-11T10:05:58Z</time>
      </trkpt>
      <trkpt lat="45.16213" lon="5.97122">
        <ele>2694.4</ele>
        <time>2020-08-11T10:05:59Z</time>
      </trkpt>
      <trkpt lat="45.16213" lon="5.97122">
        <ele>2694.4</ele>
        <time>2020-08-11T10:06:00Z</time>
      </trkpt>
      <trkpt lat="45.16213" lon="5.97122">
        <ele>2694.6</ele>
        <time>2020-08-11T10:06:01Z</time>
      </trkpt>
      <trkpt lat="45.16213" lon="5.97122">
        <ele>2694.2</ele>
        <time>2020-08-11T10:06:02Z</time>
      </trkpt>
      <trkpt lat="45.16213" lon="5.97122">
        <ele>2694</ele>
        <time>2020-08-11T10:06:03Z</time>
      </trkpt>
      <trkpt lat="45.16213" lon="5.97122">
        <ele>2694</ele>
        <time>2020-08-11T10:06:04Z</time>
      </trkpt>
      <trkpt lat="45.16213" lon="5.97122">
        <ele>2693.8</ele>
        <time>2020-08-11T10:06:05Z</time>
      </trkpt>
      <trkpt lat="45.16213" lon="5.97122">
        <ele>2693.6</ele>
        <time>2020-08-11T10:06:06Z</time>
      </trkpt>
      <trkpt lat="45.16213" lon="5.97122">
        <ele>2693.6</ele>
        <time>2020-08-11T10:06:07Z</time>
      </trkpt>
      <trkpt lat="45.16213" lon="5.97122">
        <ele>2693.4</ele>
        <time>2020-08-11T10:06:08Z</time>
      </trkpt>
      <trkpt lat="45.16213" lon="5.97122">
        <ele>2693.4</ele>
        <time>2020-08-11T10:06:09Z</time>
      </trkpt>
      <trkpt lat="45.16213" lon="5.97122">
        <ele>2693.4</ele>
        <time>2020-08-11T10:06:10Z</time>
      </trkpt>
      <trkpt lat="45.16213" lon="5.97122">
        <ele>2693.4</ele>
        <time>2020-08-11T10:06:11Z</time>
      </trkpt>
      <trkpt lat="45.16213" lon="5.97122">
        <ele>2693.2</ele>
        <time>2020-08-11T10:06:12Z</time>
      </trkpt>
      <trkpt lat="45.16213" lon="5.97122">
        <ele>2693.2</ele>
        <time>2020-08-11T10:06:13Z</time>
      </trkpt>
      <trkpt lat="45.16213" lon="5.97122">
        <ele>2693.2</ele>
        <time>2020-08-11T10:06:14Z</time>
      </trkpt>
      <trkpt lat="45.16213" lon="5.97122">
        <ele>2693.4</ele>
        <time>2020-08-11T10:06:15Z</time>
      </trkpt>
      <trkpt lat="45.16212" lon="5.97124">
        <ele>2693.2</ele>
        <time>2020-08-11T10:06:16Z</time>
      </trkpt>
      <trkpt lat="45.16212" lon="5.97124">
        <ele>2693.2</ele>
        <time>2020-08-11T10:06:17Z</time>
      </trkpt>
      <trkpt lat="45.16212" lon="5.97124">
        <ele>2693.6</ele>
        <time>2020-08-11T10:06:18Z</time>
      </trkpt>
      <trkpt lat="45.16212" lon="5.97124">
        <ele>2693.4</ele>
        <time>2020-08-11T10:06:19Z</time>
      </trkpt>
      <trkpt lat="45.16212" lon="5.97124">
        <ele>2693.4</ele>
        <time>2020-08-11T10:06:20Z</time>
      </trkpt>
      <trkpt lat="45.16212" lon="5.97124">
        <ele>2693.4</ele>
        <time>2020-08-11T10:06:21Z</time>
      </trkpt>
      <trkpt lat="45.16212" lon="5.97124">
        <ele>2693.4</ele>
        <time>2020-08-11T10:06:22Z</time>
      </trkpt>
      <trkpt lat="45.16212" lon="5.97124">
        <ele>2693.6</ele>
        <time>2020-08-11T10:06:23Z</time>
      </trkpt>
      <trkpt lat="45.16212" lon="5.97124">
        <ele>2693.8</ele>
        <time>2020-08-11T10:06:24Z</time>
      </trkpt>
      <trkpt lat="45.16212" lon="5.97124">
        <ele>2693.6</ele>
        <time>2020-08-11T10:06:25Z</time>
      </trkpt>
      <trkpt lat="45.16212" lon="5.97124">
        <ele>2693.4</ele>
        <time>2020-08-11T10:06:26Z</time>
      </trkpt>
      <trkpt lat="45.16212" lon="5.97124">
        <ele>2693.6</ele>
        <time>2020-08-11T10:06:27Z</time>
      </trkpt>
      <trkpt lat="45.16212" lon="5.97124">
        <ele>2693.4</ele>
        <time>2020-08-11T10:06:28Z</time>
      </trkpt>
      <trkpt lat="45.16212" lon="5.97124">
        <ele>2693.4</ele>
        <time>2020-08-11T10:06:29Z</time>
      </trkpt>
      <trkpt lat="45.16212" lon="5.97124">
        <ele>2693.4</ele>
        <time>2020-08-11T10:06:30Z</time>
      </trkpt>
      <trkpt lat="45.16212" lon="5.97124">
        <ele>2693.8</ele>
        <time>2020-08-11T10:06:31Z</time>
      </trkpt>
      <trkpt lat="45.16214" lon="5.97125">
        <ele>2693.4</ele>
        <time>2020-08-11T10:06:32Z</time>
      </trkpt>
      <trkpt lat="45.16214" lon="5.97125">
        <ele>2693.6</ele>
        <time>2020-08-11T10:06:33Z</time>
      </trkpt>
      <trkpt lat="45.16214" lon="5.97125">
        <ele>2693.8</ele>
        <time>2020-08-11T10:06:34Z</time>
      </trkpt>
      <trkpt lat="45.16214" lon="5.97125">
        <ele>2693.8</ele>
        <time>2020-08-11T10:06:35Z</time>
      </trkpt>
      <trkpt lat="45.16214" lon="5.97125">
        <ele>2693.8</ele>
        <time>2020-08-11T10:06:36Z</time>
      </trkpt>
      <trkpt lat="45.16214" lon="5.97125">
        <ele>2693.6</ele>
        <time>2020-08-11T10:06:37Z</time>
      </trkpt>
      <trkpt lat="45.16214" lon="5.97125">
        <ele>2693.4</ele>
        <time>2020-08-11T10:06:38Z</time>
      </trkpt>
      <trkpt lat="45.16216" lon="5.97124">
        <ele>2693.6</ele>
        <time>2020-08-11T10:06:39Z</time>
      </trkpt>
      <trkpt lat="45.16216" lon="5.97124">
        <ele>2693.6</ele>
        <time>2020-08-11T10:06:40Z</time>
      </trkpt>
      <trkpt lat="45.16216" lon="5.97124">
        <ele>2693.6</ele>
        <time>2020-08-11T10:06:41Z</time>
      </trkpt>
      <trkpt lat="45.16216" lon="5.97124">
        <ele>2693.4</ele>
        <time>2020-08-11T10:06:42Z</time>
      </trkpt>
      <trkpt lat="45.16216" lon="5.97124">
        <ele>2693.4</ele>
        <time>2020-08-11T10:06:43Z</time>
      </trkpt>
      <trkpt lat="45.16216" lon="5.97124">
        <ele>2693.4</ele>
        <time>2020-08-11T10:06:44Z</time>
      </trkpt>
      <trkpt lat="45.16216" lon="5.97124">
        <ele>2693.4</ele>
        <time>2020-08-11T10:06:45Z</time>
      </trkpt>
      <trkpt lat="45.16216" lon="5.97124">
        <ele>2693.4</ele>
        <time>2020-08-11T10:06:46Z</time>
      </trkpt>
      <trkpt lat="45.16216" lon="5.97124">
        <ele>2693</ele>
        <time>2020-08-11T10:06:47Z</time>
      </trkpt>
      <trkpt lat="45.16216" lon="5.97124">
        <ele>2693.4</ele>
        <time>2020-08-11T10:06:48Z</time>
      </trkpt>
      <trkpt lat="45.16216" lon="5.97127">
        <ele>2693.6</ele>
        <time>2020-08-11T10:06:49Z</time>
      </trkpt>
      <trkpt lat="45.16216" lon="5.97127">
        <ele>2693.2</ele>
        <time>2020-08-11T10:06:50Z</time>
      </trkpt>
      <trkpt lat="45.16216" lon="5.97127">
        <ele>2693</ele>
        <time>2020-08-11T10:06:51Z</time>
      </trkpt>
      <trkpt lat="45.16216" lon="5.97127">
        <ele>2692.8</ele>
        <time>2020-08-11T10:06:52Z</time>
      </trkpt>
      <trkpt lat="45.16216" lon="5.97127">
        <ele>2692.8</ele>
        <time>2020-08-11T10:06:53Z</time>
      </trkpt>
      <trkpt lat="45.16218" lon="5.97128">
        <ele>2693</ele>
        <time>2020-08-11T10:06:54Z</time>
      </trkpt>
      <trkpt lat="45.16218" lon="5.97128">
        <ele>2692.8</ele>
        <time>2020-08-11T10:06:55Z</time>
      </trkpt>
      <trkpt lat="45.1622" lon="5.97129">
        <ele>2693</ele>
        <time>2020-08-11T10:06:56Z</time>
      </trkpt>
      <trkpt lat="45.1622" lon="5.97129">
        <ele>2693</ele>
        <time>2020-08-11T10:06:57Z</time>
      </trkpt>
      <trkpt lat="45.1622" lon="5.97129">
        <ele>2692.8</ele>
        <time>2020-08-11T10:06:58Z</time>
      </trkpt>
      <trkpt lat="45.1622" lon="5.97129">
        <ele>2692.8</ele>
        <time>2020-08-11T10:06:59Z</time>
      </trkpt>
      <trkpt lat="45.1622" lon="5.97129">
        <ele>2692.6</ele>
        <time>2020-08-11T10:07:00Z</time>
      </trkpt>
      <trkpt lat="45.1622" lon="5.97129">
        <ele>2692.8</ele>
        <time>2020-08-11T10:07:01Z</time>
      </trkpt>
      <trkpt lat="45.1622" lon="5.97129">
        <ele>2692.8</ele>
        <time>2020-08-11T10:07:02Z</time>
      </trkpt>
      <trkpt lat="45.16223" lon="5.9713">
        <ele>2692.8</ele>
        <time>2020-08-11T10:07:03Z</time>
      </trkpt>
      <trkpt lat="45.16223" lon="5.9713">
        <ele>2692.8</ele>
        <time>2020-08-11T10:07:04Z</time>
      </trkpt>
      <trkpt lat="45.16223" lon="5.9713">
        <ele>2692.8</ele>
        <time>2020-08-11T10:07:05Z</time>
      </trkpt>
      <trkpt lat="45.16223" lon="5.9713">
        <ele>2692.8</ele>
        <time>2020-08-11T10:07:06Z</time>
      </trkpt>
      <trkpt lat="45.16223" lon="5.9713">
        <ele>2692.8</ele>
        <time>2020-08-11T10:07:07Z</time>
      </trkpt>
      <trkpt lat="45.16223" lon="5.9713">
        <ele>2692.6</ele>
        <time>2020-08-11T10:07:08Z</time>
      </trkpt>
      <trkpt lat="45.16223" lon="5.9713">
        <ele>2692.6</ele>
        <time>2020-08-11T10:07:09Z</time>
      </trkpt>
      <trkpt lat="45.16223" lon="5.9713">
        <ele>2692.6</ele>
        <time>2020-08-11T10:07:10Z</time>
      </trkpt>
      <trkpt lat="45.16223" lon="5.9713">
        <ele>2692.4</ele>
        <time>2020-08-11T10:07:11Z</time>
      </trkpt>
      <trkpt lat="45.16223" lon="5.9713">
        <ele>2692.6</ele>
        <time>2020-08-11T10:07:12Z</time>
      </trkpt>
      <trkpt lat="45.16223" lon="5.9713">
        <ele>2692.6</ele>
        <time>2020-08-11T10:07:13Z</time>
      </trkpt>
      <trkpt lat="45.16223" lon="5.9713">
        <ele>2693.2</ele>
        <time>2020-08-11T10:07:14Z</time>
      </trkpt>
      <trkpt lat="45.16223" lon="5.9713">
        <ele>2693.6</ele>
        <time>2020-08-11T10:07:15Z</time>
      </trkpt>
      <trkpt lat="45.16223" lon="5.9713">
        <ele>2693.8</ele>
        <time>2020-08-11T10:07:16Z</time>
      </trkpt>
      <trkpt lat="45.16223" lon="5.9713">
        <ele>2694.2</ele>
        <time>2020-08-11T10:07:17Z</time>
      </trkpt>
      <trkpt lat="45.16223" lon="5.9713">
        <ele>2694.4</ele>
        <time>2020-08-11T10:07:18Z</time>
      </trkpt>
      <trkpt lat="45.16223" lon="5.9713">
        <ele>2694.6</ele>
        <time>2020-08-11T10:07:19Z</time>
      </trkpt>
      <trkpt lat="45.16223" lon="5.9713">
        <ele>2694.6</ele>
        <time>2020-08-11T10:07:20Z</time>
      </trkpt>
      <trkpt lat="45.16223" lon="5.9713">
        <ele>2694.6</ele>
        <time>2020-08-11T10:07:21Z</time>
      </trkpt>
      <trkpt lat="45.16223" lon="5.9713">
        <ele>2694</ele>
        <time>2020-08-11T10:07:22Z</time>
      </trkpt>
      <trkpt lat="45.16223" lon="5.9713">
        <ele>2693.6</ele>
        <time>2020-08-11T10:07:23Z</time>
      </trkpt>
      <trkpt lat="45.16223" lon="5.97132">
        <ele>2693.2</ele>
        <time>2020-08-11T10:07:24Z</time>
      </trkpt>
      <trkpt lat="45.16223" lon="5.97132">
        <ele>2693</ele>
        <time>2020-08-11T10:07:25Z</time>
      </trkpt>
      <trkpt lat="45.16223" lon="5.97132">
        <ele>2692.2</ele>
        <time>2020-08-11T10:07:26Z</time>
      </trkpt>
      <trkpt lat="45.16223" lon="5.97132">
        <ele>2692.2</ele>
        <time>2020-08-11T10:07:27Z</time>
      </trkpt>
      <trkpt lat="45.16222" lon="5.97134">
        <ele>2692</ele>
        <time>2020-08-11T10:07:28Z</time>
      </trkpt>
      <trkpt lat="45.16222" lon="5.97134">
        <ele>2692.2</ele>
        <time>2020-08-11T10:07:29Z</time>
      </trkpt>
      <trkpt lat="45.16219" lon="5.97134">
        <ele>2692</ele>
        <time>2020-08-11T10:07:30Z</time>
      </trkpt>
      <trkpt lat="45.16219" lon="5.97134">
        <ele>2692</ele>
        <time>2020-08-11T10:07:31Z</time>
      </trkpt>
      <trkpt lat="45.16219" lon="5.97134">
        <ele>2692.2</ele>
        <time>2020-08-11T10:07:32Z</time>
      </trkpt>
      <trkpt lat="45.16219" lon="5.97134">
        <ele>2692.2</ele>
        <time>2020-08-11T10:07:33Z</time>
      </trkpt>
      <trkpt lat="45.16218" lon="5.97135">
        <ele>2692</ele>
        <time>2020-08-11T10:07:34Z</time>
      </trkpt>
      <trkpt lat="45.16218" lon="5.97135">
        <ele>2692.2</ele>
        <time>2020-08-11T10:07:35Z</time>
      </trkpt>
      <trkpt lat="45.16218" lon="5.97135">
        <ele>2691.8</ele>
        <time>2020-08-11T10:07:36Z</time>
      </trkpt>
      <trkpt lat="45.16218" lon="5.97135">
        <ele>2691.8</ele>
        <time>2020-08-11T10:07:37Z</time>
      </trkpt>
      <trkpt lat="45.16218" lon="5.97135">
        <ele>2691.6</ele>
        <time>2020-08-11T10:07:38Z</time>
      </trkpt>
      <trkpt lat="45.16218" lon="5.97135">
        <ele>2691.4</ele>
        <time>2020-08-11T10:07:39Z</time>
      </trkpt>
      <trkpt lat="45.16218" lon="5.97135">
        <ele>2691.4</ele>
        <time>2020-08-11T10:07:40Z</time>
      </trkpt>
      <trkpt lat="45.16218" lon="5.97135">
        <ele>2691.4</ele>
        <time>2020-08-11T10:07:41Z</time>
      </trkpt>
      <trkpt lat="45.16218" lon="5.97135">
        <ele>2691.4</ele>
        <time>2020-08-11T10:07:42Z</time>
      </trkpt>
      <trkpt lat="45.16218" lon="5.97135">
        <ele>2691.4</ele>
        <time>2020-08-11T10:07:43Z</time>
      </trkpt>
      <trkpt lat="45.16218" lon="5.97135">
        <ele>2691.6</ele>
        <time>2020-08-11T10:07:44Z</time>
      </trkpt>
      <trkpt lat="45.16218" lon="5.97135">
        <ele>2691.6</ele>
        <time>2020-08-11T10:07:45Z</time>
      </trkpt>
      <trkpt lat="45.16218" lon="5.97135">
        <ele>2691.4</ele>
        <time>2020-08-11T10:07:46Z</time>
      </trkpt>
      <trkpt lat="45.16218" lon="5.97135">
        <ele>2691</ele>
        <time>2020-08-11T10:07:47Z</time>
      </trkpt>
      <trkpt lat="45.16218" lon="5.97135">
        <ele>2691</ele>
        <time>2020-08-11T10:07:48Z</time>
      </trkpt>
      <trkpt lat="45.16218" lon="5.97135">
        <ele>2690.8</ele>
        <time>2020-08-11T10:07:49Z</time>
      </trkpt>
      <trkpt lat="45.16218" lon="5.97135">
        <ele>2690.6</ele>
        <time>2020-08-11T10:07:50Z</time>
      </trkpt>
      <trkpt lat="45.16218" lon="5.97135">
        <ele>2690.6</ele>
        <time>2020-08-11T10:07:51Z</time>
      </trkpt>
      <trkpt lat="45.16218" lon="5.97135">
        <ele>2690.6</ele>
        <time>2020-08-11T10:07:52Z</time>
      </trkpt>
      <trkpt lat="45.16218" lon="5.97135">
        <ele>2690.6</ele>
        <time>2020-08-11T10:07:53Z</time>
      </trkpt>
      <trkpt lat="45.16218" lon="5.97135">
        <ele>2690.6</ele>
        <time>2020-08-11T10:07:54Z</time>
      </trkpt>
      <trkpt lat="45.16218" lon="5.97135">
        <ele>2690.4</ele>
        <time>2020-08-11T10:07:55Z</time>
      </trkpt>
      <trkpt lat="45.16218" lon="5.97135">
        <ele>2690.6</ele>
        <time>2020-08-11T10:07:56Z</time>
      </trkpt>
      <trkpt lat="45.16218" lon="5.97135">
        <ele>2690.4</ele>
        <time>2020-08-11T10:07:57Z</time>
      </trkpt>
      <trkpt lat="45.16218" lon="5.97135">
        <ele>2690.2</ele>
        <time>2020-08-11T10:07:58Z</time>
      </trkpt>
      <trkpt lat="45.16218" lon="5.97135">
        <ele>2690</ele>
        <time>2020-08-11T10:07:59Z</time>
      </trkpt>
      <trkpt lat="45.16218" lon="5.97135">
        <ele>2689.8</ele>
        <time>2020-08-11T10:08:00Z</time>
      </trkpt>
      <trkpt lat="45.16218" lon="5.97135">
        <ele>2689.6</ele>
        <time>2020-08-11T10:08:01Z</time>
      </trkpt>
      <trkpt lat="45.16217" lon="5.97133">
        <ele>2689.6</ele>
        <time>2020-08-11T10:08:02Z</time>
      </trkpt>
      <trkpt lat="45.16217" lon="5.97133">
        <ele>2689</ele>
        <time>2020-08-11T10:08:03Z</time>
      </trkpt>
      <trkpt lat="45.16217" lon="5.97133">
        <ele>2688.8</ele>
        <time>2020-08-11T10:08:04Z</time>
      </trkpt>
      <trkpt lat="45.16217" lon="5.97133">
        <ele>2688.8</ele>
        <time>2020-08-11T10:08:05Z</time>
      </trkpt>
      <trkpt lat="45.16219" lon="5.97133">
        <ele>2688.6</ele>
        <time>2020-08-11T10:08:06Z</time>
      </trkpt>
      <trkpt lat="45.16219" lon="5.97133">
        <ele>2688.2</ele>
        <time>2020-08-11T10:08:07Z</time>
      </trkpt>
      <trkpt lat="45.16219" lon="5.97133">
        <ele>2688</ele>
        <time>2020-08-11T10:08:08Z</time>
      </trkpt>
      <trkpt lat="45.1622" lon="5.97134">
        <ele>2687.8</ele>
        <time>2020-08-11T10:08:09Z</time>
      </trkpt>
      <trkpt lat="45.1622" lon="5.97134">
        <ele>2687.4</ele>
        <time>2020-08-11T10:08:10Z</time>
      </trkpt>
      <trkpt lat="45.1622" lon="5.97134">
        <ele>2687</ele>
        <time>2020-08-11T10:08:11Z</time>
      </trkpt>
      <trkpt lat="45.16222" lon="5.97137">
        <ele>2687</ele>
        <time>2020-08-11T10:08:12Z</time>
      </trkpt>
      <trkpt lat="45.16222" lon="5.97137">
        <ele>2686.8</ele>
        <time>2020-08-11T10:08:13Z</time>
      </trkpt>
      <trkpt lat="45.16222" lon="5.97137">
        <ele>2686.6</ele>
        <time>2020-08-11T10:08:14Z</time>
      </trkpt>
      <trkpt lat="45.16222" lon="5.97137">
        <ele>2686.4</ele>
        <time>2020-08-11T10:08:15Z</time>
      </trkpt>
      <trkpt lat="45.16222" lon="5.97137">
        <ele>2686.2</ele>
        <time>2020-08-11T10:08:16Z</time>
      </trkpt>
      <trkpt lat="45.16222" lon="5.97139">
        <ele>2685.8</ele>
        <time>2020-08-11T10:08:17Z</time>
      </trkpt>
      <trkpt lat="45.16222" lon="5.97139">
        <ele>2685.6</ele>
        <time>2020-08-11T10:08:18Z</time>
      </trkpt>
      <trkpt lat="45.16223" lon="5.97142">
        <ele>2685.2</ele>
        <time>2020-08-11T10:08:19Z</time>
      </trkpt>
      <trkpt lat="45.16223" lon="5.97142">
        <ele>2685</ele>
        <time>2020-08-11T10:08:20Z</time>
      </trkpt>
      <trkpt lat="45.16223" lon="5.97142">
        <ele>2684.6</ele>
        <time>2020-08-11T10:08:21Z</time>
      </trkpt>
      <trkpt lat="45.16223" lon="5.97142">
        <ele>2684.4</ele>
        <time>2020-08-11T10:08:22Z</time>
      </trkpt>
      <trkpt lat="45.16223" lon="5.97142">
        <ele>2684.4</ele>
        <time>2020-08-11T10:08:23Z</time>
      </trkpt>
      <trkpt lat="45.16223" lon="5.97142">
        <ele>2683.8</ele>
        <time>2020-08-11T10:08:24Z</time>
      </trkpt>
      <trkpt lat="45.16223" lon="5.97142">
        <ele>2683.6</ele>
        <time>2020-08-11T10:08:25Z</time>
      </trkpt>
      <trkpt lat="45.16223" lon="5.97142">
        <ele>2683.4</ele>
        <time>2020-08-11T10:08:26Z</time>
      </trkpt>
      <trkpt lat="45.16223" lon="5.97142">
        <ele>2683.4</ele>
        <time>2020-08-11T10:08:27Z</time>
      </trkpt>
      <trkpt lat="45.16223" lon="5.97142">
        <ele>2683.2</ele>
        <time>2020-08-11T10:08:28Z</time>
      </trkpt>
      <trkpt lat="45.16223" lon="5.97142">
        <ele>2682.8</ele>
        <time>2020-08-11T10:08:29Z</time>
      </trkpt>
      <trkpt lat="45.16223" lon="5.97142">
        <ele>2683</ele>
        <time>2020-08-11T10:08:30Z</time>
      </trkpt>
      <trkpt lat="45.16223" lon="5.97142">
        <ele>2682.8</ele>
        <time>2020-08-11T10:08:31Z</time>
      </trkpt>
      <trkpt lat="45.16223" lon="5.97142">
        <ele>2682.8</ele>
        <time>2020-08-11T10:08:32Z</time>
      </trkpt>
      <trkpt lat="45.16223" lon="5.97142">
        <ele>2682.4</ele>
        <time>2020-08-11T10:08:33Z</time>
      </trkpt>
      <trkpt lat="45.16223" lon="5.97145">
        <ele>2682</ele>
        <time>2020-08-11T10:08:34Z</time>
      </trkpt>
      <trkpt lat="45.16223" lon="5.97145">
        <ele>2681.8</ele>
        <time>2020-08-11T10:08:35Z</time>
      </trkpt>
      <trkpt lat="45.16223" lon="5.97145">
        <ele>2681.6</ele>
        <time>2020-08-11T10:08:36Z</time>
      </trkpt>
      <trkpt lat="45.16223" lon="5.97145">
        <ele>2681.4</ele>
        <time>2020-08-11T10:08:37Z</time>
      </trkpt>
      <trkpt lat="45.16223" lon="5.97145">
        <ele>2681.2</ele>
        <time>2020-08-11T10:08:38Z</time>
      </trkpt>
      <trkpt lat="45.16223" lon="5.97145">
        <ele>2681</ele>
        <time>2020-08-11T10:08:39Z</time>
      </trkpt>
      <trkpt lat="45.16223" lon="5.97145">
        <ele>2680.8</ele>
        <time>2020-08-11T10:08:40Z</time>
      </trkpt>
      <trkpt lat="45.16223" lon="5.97145">
        <ele>2680.6</ele>
        <time>2020-08-11T10:08:41Z</time>
      </trkpt>
      <trkpt lat="45.16223" lon="5.97145">
        <ele>2680.6</ele>
        <time>2020-08-11T10:08:42Z</time>
      </trkpt>
      <trkpt lat="45.16223" lon="5.97145">
        <ele>2680.2</ele>
        <time>2020-08-11T10:08:43Z</time>
      </trkpt>
      <trkpt lat="45.16223" lon="5.97145">
        <ele>2680</ele>
        <time>2020-08-11T10:08:44Z</time>
      </trkpt>
      <trkpt lat="45.16224" lon="5.97148">
        <ele>2679.6</ele>
        <time>2020-08-11T10:08:45Z</time>
      </trkpt>
      <trkpt lat="45.16224" lon="5.97148">
        <ele>2679.6</ele>
        <time>2020-08-11T10:08:46Z</time>
      </trkpt>
      <trkpt lat="45.16224" lon="5.97148">
        <ele>2679.8</ele>
        <time>2020-08-11T10:08:47Z</time>
      </trkpt>
      <trkpt lat="45.16224" lon="5.97148">
        <ele>2679.2</ele>
        <time>2020-08-11T10:08:48Z</time>
      </trkpt>
      <trkpt lat="45.16224" lon="5.97148">
        <ele>2679.2</ele>
        <time>2020-08-11T10:08:49Z</time>
      </trkpt>
      <trkpt lat="45.16224" lon="5.97148">
        <ele>2679.2</ele>
        <time>2020-08-11T10:08:50Z</time>
      </trkpt>
      <trkpt lat="45.16224" lon="5.97148">
        <ele>2679.4</ele>
        <time>2020-08-11T10:08:51Z</time>
      </trkpt>
      <trkpt lat="45.16225" lon="5.97151">
        <ele>2679.2</ele>
        <time>2020-08-11T10:08:52Z</time>
      </trkpt>
      <trkpt lat="45.16225" lon="5.97151">
        <ele>2679.2</ele>
        <time>2020-08-11T10:08:53Z</time>
      </trkpt>
      <trkpt lat="45.16225" lon="5.97151">
        <ele>2679</ele>
        <time>2020-08-11T10:08:54Z</time>
      </trkpt>
      <trkpt lat="45.16225" lon="5.97151">
        <ele>2679.2</ele>
        <time>2020-08-11T10:08:55Z</time>
      </trkpt>
      <trkpt lat="45.16225" lon="5.97151">
        <ele>2679.2</ele>
        <time>2020-08-11T10:08:56Z</time>
      </trkpt>
      <trkpt lat="45.16225" lon="5.97151">
        <ele>2679.2</ele>
        <time>2020-08-11T10:08:57Z</time>
      </trkpt>
      <trkpt lat="45.16225" lon="5.97151">
        <ele>2679.2</ele>
        <time>2020-08-11T10:08:58Z</time>
      </trkpt>
      <trkpt lat="45.16226" lon="5.97153">
        <ele>2679.4</ele>
        <time>2020-08-11T10:08:59Z</time>
      </trkpt>
      <trkpt lat="45.16226" lon="5.97153">
        <ele>2679.2</ele>
        <time>2020-08-11T10:09:00Z</time>
      </trkpt>
      <trkpt lat="45.16226" lon="5.97153">
        <ele>2679</ele>
        <time>2020-08-11T10:09:01Z</time>
      </trkpt>
      <trkpt lat="45.16226" lon="5.97153">
        <ele>2678.8</ele>
        <time>2020-08-11T10:09:02Z</time>
      </trkpt>
      <trkpt lat="45.16226" lon="5.97153">
        <ele>2679</ele>
        <time>2020-08-11T10:09:03Z</time>
      </trkpt>
      <trkpt lat="45.16226" lon="5.97152">
        <ele>2678.8</ele>
        <time>2020-08-11T10:09:04Z</time>
      </trkpt>
      <trkpt lat="45.16225" lon="5.97152">
        <ele>2679</ele>
        <time>2020-08-11T10:09:05Z</time>
      </trkpt>
      <trkpt lat="45.16225" lon="5.97152">
        <ele>2679.2</ele>
        <time>2020-08-11T10:09:06Z</time>
      </trkpt>
      <trkpt lat="45.16225" lon="5.97152">
        <ele>2679.2</ele>
        <time>2020-08-11T10:09:07Z</time>
      </trkpt>
      <trkpt lat="45.16225" lon="5.97152">
        <ele>2678.6</ele>
        <time>2020-08-11T10:09:08Z</time>
      </trkpt>
      <trkpt lat="45.16225" lon="5.97152">
        <ele>2678.6</ele>
        <time>2020-08-11T10:09:09Z</time>
      </trkpt>
      <trkpt lat="45.16224" lon="5.97152">
        <ele>2678.8</ele>
        <time>2020-08-11T10:09:10Z</time>
      </trkpt>
      <trkpt lat="45.16224" lon="5.97151">
        <ele>2678.8</ele>
        <time>2020-08-11T10:09:11Z</time>
      </trkpt>
      <trkpt lat="45.16224" lon="5.97151">
        <ele>2678.8</ele>
        <time>2020-08-11T10:09:12Z</time>
      </trkpt>
      <trkpt lat="45.16224" lon="5.97151">
        <ele>2678.6</ele>
        <time>2020-08-11T10:09:13Z</time>
      </trkpt>
      <trkpt lat="45.16224" lon="5.97151">
        <ele>2678.8</ele>
        <time>2020-08-11T10:09:14Z</time>
      </trkpt>
      <trkpt lat="45.16224" lon="5.97151">
        <ele>2678.6</ele>
        <time>2020-08-11T10:09:15Z</time>
      </trkpt>
      <trkpt lat="45.16223" lon="5.97151">
        <ele>2678.4</ele>
        <time>2020-08-11T10:09:16Z</time>
      </trkpt>
      <trkpt lat="45.16223" lon="5.97151">
        <ele>2678.2</ele>
        <time>2020-08-11T10:09:17Z</time>
      </trkpt>
      <trkpt lat="45.16223" lon="5.9715">
        <ele>2678.2</ele>
        <time>2020-08-11T10:09:18Z</time>
      </trkpt>
      <trkpt lat="45.16223" lon="5.9715">
        <ele>2678.2</ele>
        <time>2020-08-11T10:09:19Z</time>
      </trkpt>
      <trkpt lat="45.16223" lon="5.9715">
        <ele>2678</ele>
        <time>2020-08-11T10:09:20Z</time>
      </trkpt>
      <trkpt lat="45.16222" lon="5.9715">
        <ele>2678</ele>
        <time>2020-08-11T10:09:21Z</time>
      </trkpt>
      <trkpt lat="45.16222" lon="5.9715">
        <ele>2677.6</ele>
        <time>2020-08-11T10:09:22Z</time>
      </trkpt>
      <trkpt lat="45.16222" lon="5.9715">
        <ele>2677.6</ele>
        <time>2020-08-11T10:09:23Z</time>
      </trkpt>
      <trkpt lat="45.16222" lon="5.9715">
        <ele>2677.4</ele>
        <time>2020-08-11T10:09:24Z</time>
      </trkpt>
      <trkpt lat="45.16222" lon="5.97149">
        <ele>2677.4</ele>
        <time>2020-08-11T10:09:25Z</time>
      </trkpt>
      <trkpt lat="45.16221" lon="5.97149">
        <ele>2677.6</ele>
        <time>2020-08-11T10:09:26Z</time>
      </trkpt>
      <trkpt lat="45.16221" lon="5.97148">
        <ele>2677.6</ele>
        <time>2020-08-11T10:09:27Z</time>
      </trkpt>
      <trkpt lat="45.16221" lon="5.97147">
        <ele>2677.4</ele>
        <time>2020-08-11T10:09:28Z</time>
      </trkpt>
      <trkpt lat="45.16221" lon="5.97146">
        <ele>2677.6</ele>
        <time>2020-08-11T10:09:29Z</time>
      </trkpt>
      <trkpt lat="45.1622" lon="5.97145">
        <ele>2677.6</ele>
        <time>2020-08-11T10:09:30Z</time>
      </trkpt>
      <trkpt lat="45.1622" lon="5.97144">
        <ele>2677.6</ele>
        <time>2020-08-11T10:09:31Z</time>
      </trkpt>
      <trkpt lat="45.1622" lon="5.97143">
        <ele>2677.6</ele>
        <time>2020-08-11T10:09:32Z</time>
      </trkpt>
      <trkpt lat="45.16219" lon="5.97142">
        <ele>2677.8</ele>
        <time>2020-08-11T10:09:33Z</time>
      </trkpt>
      <trkpt lat="45.16219" lon="5.97141">
        <ele>2677.8</ele>
        <time>2020-08-11T10:09:34Z</time>
      </trkpt>
      <trkpt lat="45.16219" lon="5.97141">
        <ele>2678</ele>
        <time>2020-08-11T10:09:35Z</time>
      </trkpt>
      <trkpt lat="45.16219" lon="5.9714">
        <ele>2678</ele>
        <time>2020-08-11T10:09:36Z</time>
      </trkpt>
      <trkpt lat="45.16218" lon="5.97139">
        <ele>2678</ele>
        <time>2020-08-11T10:09:37Z</time>
      </trkpt>
      <trkpt lat="45.16218" lon="5.97138">
        <ele>2678.2</ele>
        <time>2020-08-11T10:09:38Z</time>
      </trkpt>
      <trkpt lat="45.16218" lon="5.97137">
        <ele>2678.4</ele>
        <time>2020-08-11T10:09:39Z</time>
      </trkpt>
      <trkpt lat="45.16217" lon="5.97137">
        <ele>2678.6</ele>
        <time>2020-08-11T10:09:40Z</time>
      </trkpt>
      <trkpt lat="45.16217" lon="5.97137">
        <ele>2678.6</ele>
        <time>2020-08-11T10:09:41Z</time>
      </trkpt>
      <trkpt lat="45.16217" lon="5.97137">
        <ele>2678.6</ele>
        <time>2020-08-11T10:09:42Z</time>
      </trkpt>
      <trkpt lat="45.16217" lon="5.97136">
        <ele>2678.4</ele>
        <time>2020-08-11T10:09:43Z</time>
      </trkpt>
      <trkpt lat="45.16217" lon="5.97136">
        <ele>2678.4</ele>
        <time>2020-08-11T10:09:44Z</time>
      </trkpt>
      <trkpt lat="45.16216" lon="5.97136">
        <ele>2678.2</ele>
        <time>2020-08-11T10:09:45Z</time>
      </trkpt>
      <trkpt lat="45.16216" lon="5.97136">
        <ele>2678.2</ele>
        <time>2020-08-11T10:09:46Z</time>
      </trkpt>
      <trkpt lat="45.16216" lon="5.97136">
        <ele>2678.4</ele>
        <time>2020-08-11T10:09:47Z</time>
      </trkpt>
      <trkpt lat="45.16216" lon="5.97136">
        <ele>2678.4</ele>
        <time>2020-08-11T10:09:48Z</time>
      </trkpt>
      <trkpt lat="45.16216" lon="5.97136">
        <ele>2678.4</ele>
        <time>2020-08-11T10:09:49Z</time>
      </trkpt>
      <trkpt lat="45.16215" lon="5.97136">
        <ele>2678.4</ele>
        <time>2020-08-11T10:09:50Z</time>
      </trkpt>
      <trkpt lat="45.16215" lon="5.97135">
        <ele>2678.4</ele>
        <time>2020-08-11T10:09:51Z</time>
      </trkpt>
      <trkpt lat="45.16215" lon="5.97135">
        <ele>2678.2</ele>
        <time>2020-08-11T10:09:52Z</time>
      </trkpt>
      <trkpt lat="45.16215" lon="5.97135">
        <ele>2677.8</ele>
        <time>2020-08-11T10:09:53Z</time>
      </trkpt>
      <trkpt lat="45.16215" lon="5.97135">
        <ele>2678.2</ele>
        <time>2020-08-11T10:09:54Z</time>
      </trkpt>
      <trkpt lat="45.16214" lon="5.97135">
        <ele>2678.2</ele>
        <time>2020-08-11T10:09:55Z</time>
      </trkpt>
      <trkpt lat="45.16214" lon="5.97135">
        <ele>2678</ele>
        <time>2020-08-11T10:09:56Z</time>
      </trkpt>
      <trkpt lat="45.16214" lon="5.97135">
        <ele>2677.8</ele>
        <time>2020-08-11T10:09:57Z</time>
      </trkpt>
      <trkpt lat="45.16214" lon="5.97135">
        <ele>2677.8</ele>
        <time>2020-08-11T10:09:58Z</time>
      </trkpt>
      <trkpt lat="45.16214" lon="5.97134">
        <ele>2677.8</ele>
        <time>2020-08-11T10:09:59Z</time>
      </trkpt>
      <trkpt lat="45.16213" lon="5.97134">
        <ele>2677.8</ele>
        <time>2020-08-11T10:10:00Z</time>
      </trkpt>
      <trkpt lat="45.16213" lon="5.97134">
        <ele>2678</ele>
        <time>2020-08-11T10:10:01Z</time>
      </trkpt>
      <trkpt lat="45.16213" lon="5.97134">
        <ele>2678</ele>
        <time>2020-08-11T10:10:02Z</time>
      </trkpt>
      <trkpt lat="45.16213" lon="5.97134">
        <ele>2678</ele>
        <time>2020-08-11T10:10:03Z</time>
      </trkpt>
      <trkpt lat="45.16213" lon="5.97134">
        <ele>2677.8</ele>
        <time>2020-08-11T10:10:04Z</time>
      </trkpt>
      <trkpt lat="45.16212" lon="5.97137">
        <ele>2677.8</ele>
        <time>2020-08-11T10:10:05Z</time>
      </trkpt>
      <trkpt lat="45.16212" lon="5.97137">
        <ele>2677.8</ele>
        <time>2020-08-11T10:10:06Z</time>
      </trkpt>
      <trkpt lat="45.16212" lon="5.97137">
        <ele>2678</ele>
        <time>2020-08-11T10:10:07Z</time>
      </trkpt>
      <trkpt lat="45.1621" lon="5.97139">
        <ele>2678</ele>
        <time>2020-08-11T10:10:08Z</time>
      </trkpt>
      <trkpt lat="45.1621" lon="5.97139">
        <ele>2677.8</ele>
        <time>2020-08-11T10:10:09Z</time>
      </trkpt>
      <trkpt lat="45.1621" lon="5.97139">
        <ele>2677.8</ele>
        <time>2020-08-11T10:10:10Z</time>
      </trkpt>
      <trkpt lat="45.1621" lon="5.97139">
        <ele>2677.8</ele>
        <time>2020-08-11T10:10:11Z</time>
      </trkpt>
      <trkpt lat="45.1621" lon="5.97139">
        <ele>2677.8</ele>
        <time>2020-08-11T10:10:12Z</time>
      </trkpt>
      <trkpt lat="45.1621" lon="5.97139">
        <ele>2677.6</ele>
        <time>2020-08-11T10:10:13Z</time>
      </trkpt>
      <trkpt lat="45.1621" lon="5.97139">
        <ele>2677.8</ele>
        <time>2020-08-11T10:10:14Z</time>
      </trkpt>
      <trkpt lat="45.1621" lon="5.97139">
        <ele>2677.8</ele>
        <time>2020-08-11T10:10:15Z</time>
      </trkpt>
      <trkpt lat="45.1621" lon="5.97139">
        <ele>2678</ele>
        <time>2020-08-11T10:10:16Z</time>
      </trkpt>
      <trkpt lat="45.1621" lon="5.97139">
        <ele>2678</ele>
        <time>2020-08-11T10:10:17Z</time>
      </trkpt>
      <trkpt lat="45.1621" lon="5.97139">
        <ele>2677.6</ele>
        <time>2020-08-11T10:10:18Z</time>
      </trkpt>
      <trkpt lat="45.1621" lon="5.97139">
        <ele>2677.6</ele>
        <time>2020-08-11T10:10:19Z</time>
      </trkpt>
      <trkpt lat="45.1621" lon="5.97139">
        <ele>2677.2</ele>
        <time>2020-08-11T10:10:20Z</time>
      </trkpt>
      <trkpt lat="45.16208" lon="5.97141">
        <ele>2677</ele>
        <time>2020-08-11T10:10:21Z</time>
      </trkpt>
      <trkpt lat="45.16208" lon="5.97141">
        <ele>2676.8</ele>
        <time>2020-08-11T10:10:22Z</time>
      </trkpt>
      <trkpt lat="45.16208" lon="5.97141">
        <ele>2676.6</ele>
        <time>2020-08-11T10:10:23Z</time>
      </trkpt>
      <trkpt lat="45.16208" lon="5.97141">
        <ele>2676.4</ele>
        <time>2020-08-11T10:10:24Z</time>
      </trkpt>
      <trkpt lat="45.16208" lon="5.97141">
        <ele>2676.4</ele>
        <time>2020-08-11T10:10:25Z</time>
      </trkpt>
      <trkpt lat="45.16208" lon="5.97141">
        <ele>2676.4</ele>
        <time>2020-08-11T10:10:26Z</time>
      </trkpt>
      <trkpt lat="45.16207" lon="5.97143">
        <ele>2676.4</ele>
        <time>2020-08-11T10:10:27Z</time>
      </trkpt>
      <trkpt lat="45.16207" lon="5.97143">
        <ele>2676.4</ele>
        <time>2020-08-11T10:10:28Z</time>
      </trkpt>
      <trkpt lat="45.16207" lon="5.97143">
        <ele>2676.4</ele>
        <time>2020-08-11T10:10:29Z</time>
      </trkpt>
      <trkpt lat="45.16207" lon="5.97143">
        <ele>2676.2</ele>
        <time>2020-08-11T10:10:30Z</time>
      </trkpt>
      <trkpt lat="45.16205" lon="5.97143">
        <ele>2676.4</ele>
        <time>2020-08-11T10:10:31Z</time>
      </trkpt>
      <trkpt lat="45.16205" lon="5.97143">
        <ele>2676.4</ele>
        <time>2020-08-11T10:10:32Z</time>
      </trkpt>
      <trkpt lat="45.16205" lon="5.97143">
        <ele>2676.4</ele>
        <time>2020-08-11T10:10:33Z</time>
      </trkpt>
      <trkpt lat="45.16205" lon="5.97143">
        <ele>2676.6</ele>
        <time>2020-08-11T10:10:34Z</time>
      </trkpt>
      <trkpt lat="45.16205" lon="5.97143">
        <ele>2676.8</ele>
        <time>2020-08-11T10:10:35Z</time>
      </trkpt>
      <trkpt lat="45.16205" lon="5.97143">
        <ele>2676.6</ele>
        <time>2020-08-11T10:10:36Z</time>
      </trkpt>
      <trkpt lat="45.16205" lon="5.97143">
        <ele>2676.8</ele>
        <time>2020-08-11T10:10:37Z</time>
      </trkpt>
      <trkpt lat="45.16205" lon="5.97143">
        <ele>2676.8</ele>
        <time>2020-08-11T10:10:38Z</time>
      </trkpt>
      <trkpt lat="45.16203" lon="5.97145">
        <ele>2676.8</ele>
        <time>2020-08-11T10:10:39Z</time>
      </trkpt>
      <trkpt lat="45.16203" lon="5.97145">
        <ele>2676.6</ele>
        <time>2020-08-11T10:10:40Z</time>
      </trkpt>
      <trkpt lat="45.16203" lon="5.97145">
        <ele>2676.8</ele>
        <time>2020-08-11T10:10:41Z</time>
      </trkpt>
      <trkpt lat="45.16203" lon="5.97145">
        <ele>2676.6</ele>
        <time>2020-08-11T10:10:42Z</time>
      </trkpt>
      <trkpt lat="45.16203" lon="5.97145">
        <ele>2676.6</ele>
        <time>2020-08-11T10:10:43Z</time>
      </trkpt>
      <trkpt lat="45.16203" lon="5.97145">
        <ele>2676.4</ele>
        <time>2020-08-11T10:10:44Z</time>
      </trkpt>
      <trkpt lat="45.16203" lon="5.97145">
        <ele>2676.6</ele>
        <time>2020-08-11T10:10:45Z</time>
      </trkpt>
      <trkpt lat="45.16203" lon="5.97145">
        <ele>2676.6</ele>
        <time>2020-08-11T10:10:46Z</time>
      </trkpt>
      <trkpt lat="45.16203" lon="5.97145">
        <ele>2676.6</ele>
        <time>2020-08-11T10:10:47Z</time>
      </trkpt>
      <trkpt lat="45.16203" lon="5.97145">
        <ele>2676.4</ele>
        <time>2020-08-11T10:10:48Z</time>
      </trkpt>
      <trkpt lat="45.16203" lon="5.97145">
        <ele>2676.2</ele>
        <time>2020-08-11T10:10:49Z</time>
      </trkpt>
      <trkpt lat="45.16203" lon="5.97148">
        <ele>2676</ele>
        <time>2020-08-11T10:10:50Z</time>
      </trkpt>
      <trkpt lat="45.16203" lon="5.97148">
        <ele>2675.8</ele>
        <time>2020-08-11T10:10:51Z</time>
      </trkpt>
      <trkpt lat="45.16203" lon="5.97148">
        <ele>2675.8</ele>
        <time>2020-08-11T10:10:52Z</time>
      </trkpt>
      <trkpt lat="45.16203" lon="5.97148">
        <ele>2675.8</ele>
        <time>2020-08-11T10:10:53Z</time>
      </trkpt>
      <trkpt lat="45.16203" lon="5.97148">
        <ele>2675.8</ele>
        <time>2020-08-11T10:10:54Z</time>
      </trkpt>
      <trkpt lat="45.16203" lon="5.97148">
        <ele>2675.6</ele>
        <time>2020-08-11T10:10:55Z</time>
      </trkpt>
      <trkpt lat="45.16203" lon="5.97148">
        <ele>2675.6</ele>
        <time>2020-08-11T10:10:56Z</time>
      </trkpt>
      <trkpt lat="45.16203" lon="5.97148">
        <ele>2675.6</ele>
        <time>2020-08-11T10:10:57Z</time>
      </trkpt>
      <trkpt lat="45.16203" lon="5.97148">
        <ele>2675.8</ele>
        <time>2020-08-11T10:10:58Z</time>
      </trkpt>
      <trkpt lat="45.16203" lon="5.97148">
        <ele>2676</ele>
        <time>2020-08-11T10:10:59Z</time>
      </trkpt>
      <trkpt lat="45.16203" lon="5.97148">
        <ele>2675.8</ele>
        <time>2020-08-11T10:11:00Z</time>
      </trkpt>
      <trkpt lat="45.16203" lon="5.97148">
        <ele>2675.8</ele>
        <time>2020-08-11T10:11:01Z</time>
      </trkpt>
      <trkpt lat="45.16203" lon="5.97148">
        <ele>2675.8</ele>
        <time>2020-08-11T10:11:02Z</time>
      </trkpt>
      <trkpt lat="45.16201" lon="5.97146">
        <ele>2675.8</ele>
        <time>2020-08-11T10:11:03Z</time>
      </trkpt>
      <trkpt lat="45.16201" lon="5.97146">
        <ele>2675.8</ele>
        <time>2020-08-11T10:11:04Z</time>
      </trkpt>
      <trkpt lat="45.16201" lon="5.97146">
        <ele>2675.8</ele>
        <time>2020-08-11T10:11:05Z</time>
      </trkpt>
      <trkpt lat="45.16201" lon="5.97146">
        <ele>2675.8</ele>
        <time>2020-08-11T10:11:06Z</time>
      </trkpt>
      <trkpt lat="45.16201" lon="5.97146">
        <ele>2675.8</ele>
        <time>2020-08-11T10:11:07Z</time>
      </trkpt>
      <trkpt lat="45.16199" lon="5.97145">
        <ele>2675.8</ele>
        <time>2020-08-11T10:11:08Z</time>
      </trkpt>
      <trkpt lat="45.16199" lon="5.97145">
        <ele>2675.6</ele>
        <time>2020-08-11T10:11:09Z</time>
      </trkpt>
      <trkpt lat="45.16199" lon="5.97145">
        <ele>2675.4</ele>
        <time>2020-08-11T10:11:10Z</time>
      </trkpt>
      <trkpt lat="45.16199" lon="5.97145">
        <ele>2675.2</ele>
        <time>2020-08-11T10:11:11Z</time>
      </trkpt>
      <trkpt lat="45.16199" lon="5.97145">
        <ele>2675</ele>
        <time>2020-08-11T10:11:12Z</time>
      </trkpt>
      <trkpt lat="45.16199" lon="5.97145">
        <ele>2674.8</ele>
        <time>2020-08-11T10:11:13Z</time>
      </trkpt>
      <trkpt lat="45.16197" lon="5.97147">
        <ele>2674.8</ele>
        <time>2020-08-11T10:11:14Z</time>
      </trkpt>
      <trkpt lat="45.16197" lon="5.97147">
        <ele>2674.8</ele>
        <time>2020-08-11T10:11:15Z</time>
      </trkpt>
      <trkpt lat="45.16195" lon="5.97148">
        <ele>2674.4</ele>
        <time>2020-08-11T10:11:16Z</time>
      </trkpt>
      <trkpt lat="45.16195" lon="5.97148">
        <ele>2674.2</ele>
        <time>2020-08-11T10:11:17Z</time>
      </trkpt>
      <trkpt lat="45.16195" lon="5.97148">
        <ele>2674</ele>
        <time>2020-08-11T10:11:18Z</time>
      </trkpt>
      <trkpt lat="45.16195" lon="5.97148">
        <ele>2673.8</ele>
        <time>2020-08-11T10:11:19Z</time>
      </trkpt>
      <trkpt lat="45.16195" lon="5.97148">
        <ele>2673.8</ele>
        <time>2020-08-11T10:11:20Z</time>
      </trkpt>
      <trkpt lat="45.16195" lon="5.97148">
        <ele>2673.8</ele>
        <time>2020-08-11T10:11:21Z</time>
      </trkpt>
      <trkpt lat="45.16195" lon="5.97148">
        <ele>2673.6</ele>
        <time>2020-08-11T10:11:22Z</time>
      </trkpt>
      <trkpt lat="45.16194" lon="5.9715">
        <ele>2673.6</ele>
        <time>2020-08-11T10:11:23Z</time>
      </trkpt>
      <trkpt lat="45.16194" lon="5.9715">
        <ele>2673.6</ele>
        <time>2020-08-11T10:11:24Z</time>
      </trkpt>
      <trkpt lat="45.16194" lon="5.9715">
        <ele>2673.6</ele>
        <time>2020-08-11T10:11:25Z</time>
      </trkpt>
      <trkpt lat="45.16194" lon="5.9715">
        <ele>2673.6</ele>
        <time>2020-08-11T10:11:26Z</time>
      </trkpt>
      <trkpt lat="45.16194" lon="5.9715">
        <ele>2673.4</ele>
        <time>2020-08-11T10:11:27Z</time>
      </trkpt>
      <trkpt lat="45.16194" lon="5.9715">
        <ele>2673.2</ele>
        <time>2020-08-11T10:11:28Z</time>
      </trkpt>
      <trkpt lat="45.16194" lon="5.9715">
        <ele>2672.8</ele>
        <time>2020-08-11T10:11:29Z</time>
      </trkpt>
      <trkpt lat="45.16194" lon="5.9715">
        <ele>2672.8</ele>
        <time>2020-08-11T10:11:30Z</time>
      </trkpt>
      <trkpt lat="45.16192" lon="5.97152">
        <ele>2672.6</ele>
        <time>2020-08-11T10:11:31Z</time>
      </trkpt>
      <trkpt lat="45.16192" lon="5.97152">
        <ele>2672.6</ele>
        <time>2020-08-11T10:11:32Z</time>
      </trkpt>
      <trkpt lat="45.16192" lon="5.97152">
        <ele>2672.6</ele>
        <time>2020-08-11T10:11:33Z</time>
      </trkpt>
      <trkpt lat="45.16192" lon="5.97152">
        <ele>2672.6</ele>
        <time>2020-08-11T10:11:34Z</time>
      </trkpt>
      <trkpt lat="45.16192" lon="5.97152">
        <ele>2672.8</ele>
        <time>2020-08-11T10:11:35Z</time>
      </trkpt>
      <trkpt lat="45.16192" lon="5.97152">
        <ele>2672.8</ele>
        <time>2020-08-11T10:11:36Z</time>
      </trkpt>
      <trkpt lat="45.16191" lon="5.97154">
        <ele>2672.8</ele>
        <time>2020-08-11T10:11:37Z</time>
      </trkpt>
      <trkpt lat="45.16191" lon="5.97154">
        <ele>2672.8</ele>
        <time>2020-08-11T10:11:38Z</time>
      </trkpt>
      <trkpt lat="45.16191" lon="5.97154">
        <ele>2672.6</ele>
        <time>2020-08-11T10:11:39Z</time>
      </trkpt>
      <trkpt lat="45.16191" lon="5.97154">
        <ele>2672.6</ele>
        <time>2020-08-11T10:11:40Z</time>
      </trkpt>
      <trkpt lat="45.16191" lon="5.97154">
        <ele>2672.6</ele>
        <time>2020-08-11T10:11:41Z</time>
      </trkpt>
      <trkpt lat="45.16191" lon="5.97154">
        <ele>2672.6</ele>
        <time>2020-08-11T10:11:42Z</time>
      </trkpt>
      <trkpt lat="45.16191" lon="5.97154">
        <ele>2672.6</ele>
        <time>2020-08-11T10:11:43Z</time>
      </trkpt>
      <trkpt lat="45.16191" lon="5.97154">
        <ele>2672.6</ele>
        <time>2020-08-11T10:11:44Z</time>
      </trkpt>
      <trkpt lat="45.16191" lon="5.97154">
        <ele>2672.4</ele>
        <time>2020-08-11T10:11:45Z</time>
      </trkpt>
      <trkpt lat="45.16191" lon="5.97154">
        <ele>2672.6</ele>
        <time>2020-08-11T10:11:46Z</time>
      </trkpt>
      <trkpt lat="45.16191" lon="5.97154">
        <ele>2672.4</ele>
        <time>2020-08-11T10:11:47Z</time>
      </trkpt>
      <trkpt lat="45.16191" lon="5.97154">
        <ele>2672.6</ele>
        <time>2020-08-11T10:11:48Z</time>
      </trkpt>
      <trkpt lat="45.16191" lon="5.97154">
        <ele>2672.6</ele>
        <time>2020-08-11T10:11:49Z</time>
      </trkpt>
      <trkpt lat="45.16189" lon="5.97154">
        <ele>2672.6</ele>
        <time>2020-08-11T10:11:50Z</time>
      </trkpt>
      <trkpt lat="45.16189" lon="5.97154">
        <ele>2672.8</ele>
        <time>2020-08-11T10:11:51Z</time>
      </trkpt>
      <trkpt lat="45.16189" lon="5.97154">
        <ele>2672.8</ele>
        <time>2020-08-11T10:11:52Z</time>
      </trkpt>
      <trkpt lat="45.16189" lon="5.97154">
        <ele>2672.8</ele>
        <time>2020-08-11T10:11:53Z</time>
      </trkpt>
      <trkpt lat="45.16189" lon="5.97154">
        <ele>2672.8</ele>
        <time>2020-08-11T10:11:54Z</time>
      </trkpt>
      <trkpt lat="45.16189" lon="5.97154">
        <ele>2672.6</ele>
        <time>2020-08-11T10:11:55Z</time>
      </trkpt>
      <trkpt lat="45.16189" lon="5.97154">
        <ele>2672.8</ele>
        <time>2020-08-11T10:11:56Z</time>
      </trkpt>
      <trkpt lat="45.16189" lon="5.97154">
        <ele>2673.2</ele>
        <time>2020-08-11T10:11:57Z</time>
      </trkpt>
      <trkpt lat="45.16189" lon="5.97154">
        <ele>2673.2</ele>
        <time>2020-08-11T10:11:58Z</time>
      </trkpt>
      <trkpt lat="45.16189" lon="5.97154">
        <ele>2673.6</ele>
        <time>2020-08-11T10:11:59Z</time>
      </trkpt>
      <trkpt lat="45.16189" lon="5.97154">
        <ele>2673.6</ele>
        <time>2020-08-11T10:12:00Z</time>
      </trkpt>
      <trkpt lat="45.16189" lon="5.97154">
        <ele>2673.6</ele>
        <time>2020-08-11T10:12:01Z</time>
      </trkpt>
      <trkpt lat="45.16189" lon="5.97154">
        <ele>2673.4</ele>
        <time>2020-08-11T10:12:02Z</time>
      </trkpt>
      <trkpt lat="45.16189" lon="5.97154">
        <ele>2673.4</ele>
        <time>2020-08-11T10:12:03Z</time>
      </trkpt>
      <trkpt lat="45.16189" lon="5.97154">
        <ele>2673.6</ele>
        <time>2020-08-11T10:12:04Z</time>
      </trkpt>
      <trkpt lat="45.16189" lon="5.97154">
        <ele>2673.8</ele>
        <time>2020-08-11T10:12:05Z</time>
      </trkpt>
      <trkpt lat="45.16189" lon="5.97154">
        <ele>2673.4</ele>
        <time>2020-08-11T10:12:06Z</time>
      </trkpt>
      <trkpt lat="45.16189" lon="5.97154">
        <ele>2673</ele>
        <time>2020-08-11T10:12:07Z</time>
      </trkpt>
      <trkpt lat="45.16189" lon="5.97154">
        <ele>2672.6</ele>
        <time>2020-08-11T10:12:08Z</time>
      </trkpt>
      <trkpt lat="45.16189" lon="5.97154">
        <ele>2672.4</ele>
        <time>2020-08-11T10:12:09Z</time>
      </trkpt>
      <trkpt lat="45.16189" lon="5.97154">
        <ele>2672</ele>
        <time>2020-08-11T10:12:10Z</time>
      </trkpt>
      <trkpt lat="45.16189" lon="5.97154">
        <ele>2671.8</ele>
        <time>2020-08-11T10:12:11Z</time>
      </trkpt>
      <trkpt lat="45.16191" lon="5.97155">
        <ele>2671.8</ele>
        <time>2020-08-11T10:12:12Z</time>
      </trkpt>
      <trkpt lat="45.16191" lon="5.97155">
        <ele>2671.8</ele>
        <time>2020-08-11T10:12:13Z</time>
      </trkpt>
      <trkpt lat="45.16191" lon="5.97155">
        <ele>2671.8</ele>
        <time>2020-08-11T10:12:14Z</time>
      </trkpt>
      <trkpt lat="45.16191" lon="5.97155">
        <ele>2671.6</ele>
        <time>2020-08-11T10:12:15Z</time>
      </trkpt>
      <trkpt lat="45.16193" lon="5.97156">
        <ele>2671.4</ele>
        <time>2020-08-11T10:12:16Z</time>
      </trkpt>
      <trkpt lat="45.16193" lon="5.97156">
        <ele>2671.4</ele>
        <time>2020-08-11T10:12:17Z</time>
      </trkpt>
      <trkpt lat="45.16193" lon="5.97156">
        <ele>2671.2</ele>
        <time>2020-08-11T10:12:18Z</time>
      </trkpt>
      <trkpt lat="45.16193" lon="5.97156">
        <ele>2671.2</ele>
        <time>2020-08-11T10:12:19Z</time>
      </trkpt>
      <trkpt lat="45.16193" lon="5.97156">
        <ele>2671</ele>
        <time>2020-08-11T10:12:20Z</time>
      </trkpt>
      <trkpt lat="45.16193" lon="5.97156">
        <ele>2671</ele>
        <time>2020-08-11T10:12:21Z</time>
      </trkpt>
      <trkpt lat="45.16193" lon="5.97156">
        <ele>2670.8</ele>
        <time>2020-08-11T10:12:22Z</time>
      </trkpt>
      <trkpt lat="45.16193" lon="5.97156">
        <ele>2670.8</ele>
        <time>2020-08-11T10:12:23Z</time>
      </trkpt>
      <trkpt lat="45.16193" lon="5.97156">
        <ele>2670.8</ele>
        <time>2020-08-11T10:12:24Z</time>
      </trkpt>
      <trkpt lat="45.16193" lon="5.97156">
        <ele>2670.6</ele>
        <time>2020-08-11T10:12:25Z</time>
      </trkpt>
      <trkpt lat="45.16193" lon="5.97156">
        <ele>2670.4</ele>
        <time>2020-08-11T10:12:26Z</time>
      </trkpt>
      <trkpt lat="45.16193" lon="5.97156">
        <ele>2670.2</ele>
        <time>2020-08-11T10:12:27Z</time>
      </trkpt>
      <trkpt lat="45.16193" lon="5.97156">
        <ele>2670</ele>
        <time>2020-08-11T10:12:28Z</time>
      </trkpt>
      <trkpt lat="45.16193" lon="5.97156">
        <ele>2669.8</ele>
        <time>2020-08-11T10:12:29Z</time>
      </trkpt>
      <trkpt lat="45.16193" lon="5.97156">
        <ele>2669.2</ele>
        <time>2020-08-11T10:12:30Z</time>
      </trkpt>
      <trkpt lat="45.16195" lon="5.97158">
        <ele>2669</ele>
        <time>2020-08-11T10:12:31Z</time>
      </trkpt>
      <trkpt lat="45.16195" lon="5.97158">
        <ele>2669</ele>
        <time>2020-08-11T10:12:32Z</time>
      </trkpt>
      <trkpt lat="45.16195" lon="5.97158">
        <ele>2668.8</ele>
        <time>2020-08-11T10:12:33Z</time>
      </trkpt>
      <trkpt lat="45.16195" lon="5.97158">
        <ele>2668.4</ele>
        <time>2020-08-11T10:12:34Z</time>
      </trkpt>
      <trkpt lat="45.16195" lon="5.97158">
        <ele>2668.2</ele>
        <time>2020-08-11T10:12:35Z</time>
      </trkpt>
      <trkpt lat="45.16195" lon="5.97158">
        <ele>2668</ele>
        <time>2020-08-11T10:12:36Z</time>
      </trkpt>
      <trkpt lat="45.16195" lon="5.97163">
        <ele>2668</ele>
        <time>2020-08-11T10:12:37Z</time>
      </trkpt>
      <trkpt lat="45.16195" lon="5.97163">
        <ele>2668</ele>
        <time>2020-08-11T10:12:38Z</time>
      </trkpt>
      <trkpt lat="45.16195" lon="5.97163">
        <ele>2668.2</ele>
        <time>2020-08-11T10:12:39Z</time>
      </trkpt>
      <trkpt lat="45.16195" lon="5.97163">
        <ele>2667.8</ele>
        <time>2020-08-11T10:12:40Z</time>
      </trkpt>
      <trkpt lat="45.16195" lon="5.97163">
        <ele>2667.2</ele>
        <time>2020-08-11T10:12:41Z</time>
      </trkpt>
      <trkpt lat="45.16195" lon="5.97163">
        <ele>2667.2</ele>
        <time>2020-08-11T10:12:42Z</time>
      </trkpt>
      <trkpt lat="45.16195" lon="5.97163">
        <ele>2666.8</ele>
        <time>2020-08-11T10:12:43Z</time>
      </trkpt>
      <trkpt lat="45.16194" lon="5.97165">
        <ele>2666.6</ele>
        <time>2020-08-11T10:12:44Z</time>
      </trkpt>
      <trkpt lat="45.16191" lon="5.97167">
        <ele>2666.4</ele>
        <time>2020-08-11T10:12:45Z</time>
      </trkpt>
      <trkpt lat="45.16191" lon="5.97167">
        <ele>2666</ele>
        <time>2020-08-11T10:12:46Z</time>
      </trkpt>
      <trkpt lat="45.16191" lon="5.97167">
        <ele>2666</ele>
        <time>2020-08-11T10:12:47Z</time>
      </trkpt>
      <trkpt lat="45.16191" lon="5.97167">
        <ele>2665.8</ele>
        <time>2020-08-11T10:12:48Z</time>
      </trkpt>
      <trkpt lat="45.16191" lon="5.97167">
        <ele>2665.6</ele>
        <time>2020-08-11T10:12:49Z</time>
      </trkpt>
      <trkpt lat="45.16191" lon="5.97167">
        <ele>2665.8</ele>
        <time>2020-08-11T10:12:50Z</time>
      </trkpt>
      <trkpt lat="45.16191" lon="5.97167">
        <ele>2665.8</ele>
        <time>2020-08-11T10:12:51Z</time>
      </trkpt>
      <trkpt lat="45.16192" lon="5.9717">
        <ele>2666</ele>
        <time>2020-08-11T10:12:52Z</time>
      </trkpt>
      <trkpt lat="45.16192" lon="5.9717">
        <ele>2666</ele>
        <time>2020-08-11T10:12:53Z</time>
      </trkpt>
      <trkpt lat="45.16192" lon="5.9717">
        <ele>2665.8</ele>
        <time>2020-08-11T10:12:54Z</time>
      </trkpt>
      <trkpt lat="45.16193" lon="5.97172">
        <ele>2665.4</ele>
        <time>2020-08-11T10:12:55Z</time>
      </trkpt>
      <trkpt lat="45.16193" lon="5.97172">
        <ele>2664.8</ele>
        <time>2020-08-11T10:12:56Z</time>
      </trkpt>
      <trkpt lat="45.16193" lon="5.97172">
        <ele>2664.8</ele>
        <time>2020-08-11T10:12:57Z</time>
      </trkpt>
      <trkpt lat="45.16193" lon="5.97176">
        <ele>2664.4</ele>
        <time>2020-08-11T10:12:58Z</time>
      </trkpt>
      <trkpt lat="45.16193" lon="5.97176">
        <ele>2664.2</ele>
        <time>2020-08-11T10:12:59Z</time>
      </trkpt>
      <trkpt lat="45.16193" lon="5.97176">
        <ele>2664</ele>
        <time>2020-08-11T10:13:00Z</time>
      </trkpt>
      <trkpt lat="45.16192" lon="5.97179">
        <ele>2663.6</ele>
        <time>2020-08-11T10:13:01Z</time>
      </trkpt>
      <trkpt lat="45.16192" lon="5.97179">
        <ele>2663.4</ele>
        <time>2020-08-11T10:13:02Z</time>
      </trkpt>
      <trkpt lat="45.16194" lon="5.97181">
        <ele>2663</ele>
        <time>2020-08-11T10:13:03Z</time>
      </trkpt>
      <trkpt lat="45.16194" lon="5.97181">
        <ele>2662.6</ele>
        <time>2020-08-11T10:13:04Z</time>
      </trkpt>
      <trkpt lat="45.16194" lon="5.97181">
        <ele>2662.6</ele>
        <time>2020-08-11T10:13:05Z</time>
      </trkpt>
      <trkpt lat="45.16194" lon="5.97181">
        <ele>2662.6</ele>
        <time>2020-08-11T10:13:06Z</time>
      </trkpt>
      <trkpt lat="45.16193" lon="5.97183">
        <ele>2662.4</ele>
        <time>2020-08-11T10:13:07Z</time>
      </trkpt>
      <trkpt lat="45.16193" lon="5.97183">
        <ele>2662.2</ele>
        <time>2020-08-11T10:13:08Z</time>
      </trkpt>
      <trkpt lat="45.16193" lon="5.97183">
        <ele>2662.2</ele>
        <time>2020-08-11T10:13:09Z</time>
      </trkpt>
      <trkpt lat="45.16193" lon="5.97183">
        <ele>2662</ele>
        <time>2020-08-11T10:13:10Z</time>
      </trkpt>
      <trkpt lat="45.16193" lon="5.97183">
        <ele>2662</ele>
        <time>2020-08-11T10:13:11Z</time>
      </trkpt>
      <trkpt lat="45.16193" lon="5.97183">
        <ele>2661.8</ele>
        <time>2020-08-11T10:13:12Z</time>
      </trkpt>
      <trkpt lat="45.16193" lon="5.97183">
        <ele>2661.4</ele>
        <time>2020-08-11T10:13:13Z</time>
      </trkpt>
      <trkpt lat="45.16191" lon="5.97185">
        <ele>2661</ele>
        <time>2020-08-11T10:13:14Z</time>
      </trkpt>
      <trkpt lat="45.16191" lon="5.97185">
        <ele>2660.8</ele>
        <time>2020-08-11T10:13:15Z</time>
      </trkpt>
      <trkpt lat="45.16191" lon="5.97185">
        <ele>2660.8</ele>
        <time>2020-08-11T10:13:16Z</time>
      </trkpt>
      <trkpt lat="45.16191" lon="5.97188">
        <ele>2660.2</ele>
        <time>2020-08-11T10:13:17Z</time>
      </trkpt>
      <trkpt lat="45.16191" lon="5.97188">
        <ele>2660</ele>
        <time>2020-08-11T10:13:18Z</time>
      </trkpt>
      <trkpt lat="45.16191" lon="5.97188">
        <ele>2659.4</ele>
        <time>2020-08-11T10:13:19Z</time>
      </trkpt>
      <trkpt lat="45.16191" lon="5.97188">
        <ele>2658.8</ele>
        <time>2020-08-11T10:13:20Z</time>
      </trkpt>
      <trkpt lat="45.16191" lon="5.97188">
        <ele>2658.6</ele>
        <time>2020-08-11T10:13:21Z</time>
      </trkpt>
      <trkpt lat="45.16191" lon="5.97188">
        <ele>2658.4</ele>
        <time>2020-08-11T10:13:22Z</time>
      </trkpt>
      <trkpt lat="45.16191" lon="5.97188">
        <ele>2657.8</ele>
        <time>2020-08-11T10:13:23Z</time>
      </trkpt>
      <trkpt lat="45.16191" lon="5.97188">
        <ele>2657.2</ele>
        <time>2020-08-11T10:13:24Z</time>
      </trkpt>
      <trkpt lat="45.16192" lon="5.97192">
        <ele>2656.8</ele>
        <time>2020-08-11T10:13:25Z</time>
      </trkpt>
      <trkpt lat="45.16192" lon="5.97192">
        <ele>2656.6</ele>
        <time>2020-08-11T10:13:26Z</time>
      </trkpt>
      <trkpt lat="45.16192" lon="5.97192">
        <ele>2656.4</ele>
        <time>2020-08-11T10:13:27Z</time>
      </trkpt>
      <trkpt lat="45.16191" lon="5.97195">
        <ele>2655.4</ele>
        <time>2020-08-11T10:13:28Z</time>
      </trkpt>
      <trkpt lat="45.16191" lon="5.97195">
        <ele>2654.8</ele>
        <time>2020-08-11T10:13:29Z</time>
      </trkpt>
      <trkpt lat="45.16191" lon="5.97195">
        <ele>2654</ele>
        <time>2020-08-11T10:13:30Z</time>
      </trkpt>
      <trkpt lat="45.16191" lon="5.97198">
        <ele>2653.4</ele>
        <time>2020-08-11T10:13:31Z</time>
      </trkpt>
      <trkpt lat="45.16191" lon="5.97198">
        <ele>2653</ele>
        <time>2020-08-11T10:13:32Z</time>
      </trkpt>
      <trkpt lat="45.16191" lon="5.97198">
        <ele>2652.2</ele>
        <time>2020-08-11T10:13:33Z</time>
      </trkpt>
      <trkpt lat="45.16192" lon="5.972">
        <ele>2651.6</ele>
        <time>2020-08-11T10:13:34Z</time>
      </trkpt>
      <trkpt lat="45.16192" lon="5.972">
        <ele>2651</ele>
        <time>2020-08-11T10:13:35Z</time>
      </trkpt>
      <trkpt lat="45.16193" lon="5.97203">
        <ele>2650.4</ele>
        <time>2020-08-11T10:13:36Z</time>
      </trkpt>
      <trkpt lat="45.16193" lon="5.97203">
        <ele>2650</ele>
        <time>2020-08-11T10:13:37Z</time>
      </trkpt>
      <trkpt lat="45.16193" lon="5.97203">
        <ele>2649.6</ele>
        <time>2020-08-11T10:13:38Z</time>
      </trkpt>
      <trkpt lat="45.16193" lon="5.97203">
        <ele>2649</ele>
        <time>2020-08-11T10:13:39Z</time>
      </trkpt>
      <trkpt lat="45.16194" lon="5.97206">
        <ele>2648.6</ele>
        <time>2020-08-11T10:13:40Z</time>
      </trkpt>
      <trkpt lat="45.16194" lon="5.97206">
        <ele>2648.2</ele>
        <time>2020-08-11T10:13:41Z</time>
      </trkpt>
      <trkpt lat="45.16194" lon="5.97206">
        <ele>2647.8</ele>
        <time>2020-08-11T10:13:42Z</time>
      </trkpt>
      <trkpt lat="45.16196" lon="5.97207">
        <ele>2647.4</ele>
        <time>2020-08-11T10:13:43Z</time>
      </trkpt>
      <trkpt lat="45.16196" lon="5.97207">
        <ele>2647</ele>
        <time>2020-08-11T10:13:44Z</time>
      </trkpt>
      <trkpt lat="45.16196" lon="5.97207">
        <ele>2646.8</ele>
        <time>2020-08-11T10:13:45Z</time>
      </trkpt>
      <trkpt lat="45.16199" lon="5.97208">
        <ele>2646</ele>
        <time>2020-08-11T10:13:46Z</time>
      </trkpt>
      <trkpt lat="45.16199" lon="5.97208">
        <ele>2645.8</ele>
        <time>2020-08-11T10:13:47Z</time>
      </trkpt>
      <trkpt lat="45.16199" lon="5.97208">
        <ele>2645.4</ele>
        <time>2020-08-11T10:13:48Z</time>
      </trkpt>
      <trkpt lat="45.16201" lon="5.97209">
        <ele>2645.2</ele>
        <time>2020-08-11T10:13:49Z</time>
      </trkpt>
      <trkpt lat="45.16201" lon="5.97209">
        <ele>2645.2</ele>
        <time>2020-08-11T10:13:50Z</time>
      </trkpt>
      <trkpt lat="45.16201" lon="5.97209">
        <ele>2645.2</ele>
        <time>2020-08-11T10:13:51Z</time>
      </trkpt>
      <trkpt lat="45.16201" lon="5.97209">
        <ele>2645.2</ele>
        <time>2020-08-11T10:13:52Z</time>
      </trkpt>
      <trkpt lat="45.16201" lon="5.97209">
        <ele>2645</ele>
        <time>2020-08-11T10:13:53Z</time>
      </trkpt>
      <trkpt lat="45.16203" lon="5.9721">
        <ele>2645</ele>
        <time>2020-08-11T10:13:54Z</time>
      </trkpt>
      <trkpt lat="45.16203" lon="5.9721">
        <ele>2645</ele>
        <time>2020-08-11T10:13:55Z</time>
      </trkpt>
      <trkpt lat="45.16203" lon="5.9721">
        <ele>2644.8</ele>
        <time>2020-08-11T10:13:56Z</time>
      </trkpt>
      <trkpt lat="45.16204" lon="5.97213">
        <ele>2644.6</ele>
        <time>2020-08-11T10:13:57Z</time>
      </trkpt>
      <trkpt lat="45.16204" lon="5.97213">
        <ele>2644.4</ele>
        <time>2020-08-11T10:13:58Z</time>
      </trkpt>
      <trkpt lat="45.16204" lon="5.97213">
        <ele>2644.4</ele>
        <time>2020-08-11T10:13:59Z</time>
      </trkpt>
      <trkpt lat="45.16205" lon="5.97216">
        <ele>2644.4</ele>
        <time>2020-08-11T10:14:00Z</time>
      </trkpt>
      <trkpt lat="45.16205" lon="5.97216">
        <ele>2643.8</ele>
        <time>2020-08-11T10:14:01Z</time>
      </trkpt>
      <trkpt lat="45.16205" lon="5.97216">
        <ele>2643.6</ele>
        <time>2020-08-11T10:14:02Z</time>
      </trkpt>
      <trkpt lat="45.16207" lon="5.9722">
        <ele>2643.2</ele>
        <time>2020-08-11T10:14:03Z</time>
      </trkpt>
      <trkpt lat="45.16208" lon="5.97222">
        <ele>2643.2</ele>
        <time>2020-08-11T10:14:04Z</time>
      </trkpt>
      <trkpt lat="45.16208" lon="5.97222">
        <ele>2642.8</ele>
        <time>2020-08-11T10:14:05Z</time>
      </trkpt>
      <trkpt lat="45.16211" lon="5.97224">
        <ele>2642.6</ele>
        <time>2020-08-11T10:14:06Z</time>
      </trkpt>
      <trkpt lat="45.16212" lon="5.97225">
        <ele>2642.4</ele>
        <time>2020-08-11T10:14:07Z</time>
      </trkpt>
      <trkpt lat="45.16214" lon="5.97227">
        <ele>2642</ele>
        <time>2020-08-11T10:14:08Z</time>
      </trkpt>
      <trkpt lat="45.16215" lon="5.97229">
        <ele>2641.6</ele>
        <time>2020-08-11T10:14:09Z</time>
      </trkpt>
      <trkpt lat="45.16216" lon="5.97231">
        <ele>2641.4</ele>
        <time>2020-08-11T10:14:10Z</time>
      </trkpt>
      <trkpt lat="45.16216" lon="5.97231">
        <ele>2641.2</ele>
        <time>2020-08-11T10:14:11Z</time>
      </trkpt>
      <trkpt lat="45.16216" lon="5.97231">
        <ele>2641</ele>
        <time>2020-08-11T10:14:12Z</time>
      </trkpt>
      <trkpt lat="45.16217" lon="5.97232">
        <ele>2640.8</ele>
        <time>2020-08-11T10:14:13Z</time>
      </trkpt>
      <trkpt lat="45.16219" lon="5.97233">
        <ele>2641</ele>
        <time>2020-08-11T10:14:14Z</time>
      </trkpt>
      <trkpt lat="45.1622" lon="5.97235">
        <ele>2641</ele>
        <time>2020-08-11T10:14:15Z</time>
      </trkpt>
      <trkpt lat="45.16221" lon="5.97236">
        <ele>2641.2</ele>
        <time>2020-08-11T10:14:16Z</time>
      </trkpt>
      <trkpt lat="45.16222" lon="5.97237">
        <ele>2641.2</ele>
        <time>2020-08-11T10:14:17Z</time>
      </trkpt>
      <trkpt lat="45.16223" lon="5.97237">
        <ele>2641.4</ele>
        <time>2020-08-11T10:14:18Z</time>
      </trkpt>
      <trkpt lat="45.16224" lon="5.97238">
        <ele>2641.6</ele>
        <time>2020-08-11T10:14:19Z</time>
      </trkpt>
      <trkpt lat="45.16225" lon="5.97239">
        <ele>2641.6</ele>
        <time>2020-08-11T10:14:20Z</time>
      </trkpt>
      <trkpt lat="45.16225" lon="5.97239">
        <ele>2641.6</ele>
        <time>2020-08-11T10:14:21Z</time>
      </trkpt>
      <trkpt lat="45.16227" lon="5.97242">
        <ele>2641.8</ele>
        <time>2020-08-11T10:14:22Z</time>
      </trkpt>
      <trkpt lat="45.16229" lon="5.97244">
        <ele>2641.6</ele>
        <time>2020-08-11T10:14:23Z</time>
      </trkpt>
      <trkpt lat="45.16229" lon="5.97244">
        <ele>2641.6</ele>
        <time>2020-08-11T10:14:24Z</time>
      </trkpt>
      <trkpt lat="45.1623" lon="5.97247">
        <ele>2641.4</ele>
        <time>2020-08-11T10:14:25Z</time>
      </trkpt>
      <trkpt lat="45.1623" lon="5.97247">
        <ele>2641.4</ele>
        <time>2020-08-11T10:14:26Z</time>
      </trkpt>
      <trkpt lat="45.1623" lon="5.97247">
        <ele>2641.2</ele>
        <time>2020-08-11T10:14:27Z</time>
      </trkpt>
      <trkpt lat="45.1623" lon="5.97247">
        <ele>2641.2</ele>
        <time>2020-08-11T10:14:28Z</time>
      </trkpt>
      <trkpt lat="45.16231" lon="5.97249">
        <ele>2641</ele>
        <time>2020-08-11T10:14:29Z</time>
      </trkpt>
      <trkpt lat="45.16231" lon="5.97249">
        <ele>2640.6</ele>
        <time>2020-08-11T10:14:30Z</time>
      </trkpt>
      <trkpt lat="45.16231" lon="5.97249">
        <ele>2640.2</ele>
        <time>2020-08-11T10:14:31Z</time>
      </trkpt>
      <trkpt lat="45.16233" lon="5.97252">
        <ele>2640.4</ele>
        <time>2020-08-11T10:14:32Z</time>
      </trkpt>
      <trkpt lat="45.16233" lon="5.97252">
        <ele>2640</ele>
        <time>2020-08-11T10:14:33Z</time>
      </trkpt>
      <trkpt lat="45.16233" lon="5.97252">
        <ele>2639.8</ele>
        <time>2020-08-11T10:14:34Z</time>
      </trkpt>
      <trkpt lat="45.16234" lon="5.97254">
        <ele>2639.2</ele>
        <time>2020-08-11T10:14:35Z</time>
      </trkpt>
      <trkpt lat="45.16234" lon="5.97254">
        <ele>2638.8</ele>
        <time>2020-08-11T10:14:36Z</time>
      </trkpt>
      <trkpt lat="45.16235" lon="5.97256">
        <ele>2638.6</ele>
        <time>2020-08-11T10:14:37Z</time>
      </trkpt>
      <trkpt lat="45.16235" lon="5.97256">
        <ele>2638.4</ele>
        <time>2020-08-11T10:14:38Z</time>
      </trkpt>
      <trkpt lat="45.16235" lon="5.97256">
        <ele>2638.2</ele>
        <time>2020-08-11T10:14:39Z</time>
      </trkpt>
      <trkpt lat="45.16236" lon="5.97259">
        <ele>2638</ele>
        <time>2020-08-11T10:14:40Z</time>
      </trkpt>
      <trkpt lat="45.16236" lon="5.97259">
        <ele>2637.8</ele>
        <time>2020-08-11T10:14:41Z</time>
      </trkpt>
      <trkpt lat="45.16237" lon="5.97262">
        <ele>2637.6</ele>
        <time>2020-08-11T10:14:42Z</time>
      </trkpt>
      <trkpt lat="45.16237" lon="5.97262">
        <ele>2637.4</ele>
        <time>2020-08-11T10:14:43Z</time>
      </trkpt>
      <trkpt lat="45.16238" lon="5.97264">
        <ele>2637.2</ele>
        <time>2020-08-11T10:14:44Z</time>
      </trkpt>
      <trkpt lat="45.16238" lon="5.97264">
        <ele>2637</ele>
        <time>2020-08-11T10:14:45Z</time>
      </trkpt>
      <trkpt lat="45.16238" lon="5.97264">
        <ele>2636.8</ele>
        <time>2020-08-11T10:14:46Z</time>
      </trkpt>
      <trkpt lat="45.16239" lon="5.97267">
        <ele>2636.6</ele>
        <time>2020-08-11T10:14:47Z</time>
      </trkpt>
      <trkpt lat="45.16239" lon="5.97267">
        <ele>2636.4</ele>
        <time>2020-08-11T10:14:48Z</time>
      </trkpt>
      <trkpt lat="45.16239" lon="5.9727">
        <ele>2636.2</ele>
        <time>2020-08-11T10:14:49Z</time>
      </trkpt>
      <trkpt lat="45.16239" lon="5.9727">
        <ele>2635.8</ele>
        <time>2020-08-11T10:14:50Z</time>
      </trkpt>
      <trkpt lat="45.16239" lon="5.9727">
        <ele>2635.4</ele>
        <time>2020-08-11T10:14:51Z</time>
      </trkpt>
      <trkpt lat="45.1624" lon="5.97272">
        <ele>2635</ele>
        <time>2020-08-11T10:14:52Z</time>
      </trkpt>
      <trkpt lat="45.1624" lon="5.97272">
        <ele>2635</ele>
        <time>2020-08-11T10:14:53Z</time>
      </trkpt>
      <trkpt lat="45.1624" lon="5.97272">
        <ele>2634.6</ele>
        <time>2020-08-11T10:14:54Z</time>
      </trkpt>
      <trkpt lat="45.16242" lon="5.97275">
        <ele>2634.4</ele>
        <time>2020-08-11T10:14:55Z</time>
      </trkpt>
      <trkpt lat="45.16242" lon="5.97275">
        <ele>2634.2</ele>
        <time>2020-08-11T10:14:56Z</time>
      </trkpt>
      <trkpt lat="45.16242" lon="5.97275">
        <ele>2633.8</ele>
        <time>2020-08-11T10:14:57Z</time>
      </trkpt>
      <trkpt lat="45.16242" lon="5.97275">
        <ele>2633.2</ele>
        <time>2020-08-11T10:14:58Z</time>
      </trkpt>
      <trkpt lat="45.16242" lon="5.97275">
        <ele>2632.6</ele>
        <time>2020-08-11T10:14:59Z</time>
      </trkpt>
      <trkpt lat="45.16242" lon="5.97275">
        <ele>2632.2</ele>
        <time>2020-08-11T10:15:00Z</time>
      </trkpt>
      <trkpt lat="45.16242" lon="5.97279">
        <ele>2632</ele>
        <time>2020-08-11T10:15:01Z</time>
      </trkpt>
      <trkpt lat="45.16242" lon="5.97279">
        <ele>2631.8</ele>
        <time>2020-08-11T10:15:02Z</time>
      </trkpt>
      <trkpt lat="45.16242" lon="5.97279">
        <ele>2631.6</ele>
        <time>2020-08-11T10:15:03Z</time>
      </trkpt>
      <trkpt lat="45.16242" lon="5.97279">
        <ele>2631</ele>
        <time>2020-08-11T10:15:04Z</time>
      </trkpt>
      <trkpt lat="45.16242" lon="5.97279">
        <ele>2631</ele>
        <time>2020-08-11T10:15:05Z</time>
      </trkpt>
      <trkpt lat="45.16241" lon="5.97281">
        <ele>2631</ele>
        <time>2020-08-11T10:15:06Z</time>
      </trkpt>
      <trkpt lat="45.16241" lon="5.97281">
        <ele>2630.8</ele>
        <time>2020-08-11T10:15:07Z</time>
      </trkpt>
      <trkpt lat="45.16241" lon="5.97281">
        <ele>2630.6</ele>
        <time>2020-08-11T10:15:08Z</time>
      </trkpt>
      <trkpt lat="45.16239" lon="5.97283">
        <ele>2630.2</ele>
        <time>2020-08-11T10:15:09Z</time>
      </trkpt>
      <trkpt lat="45.16239" lon="5.97283">
        <ele>2629.8</ele>
        <time>2020-08-11T10:15:10Z</time>
      </trkpt>
      <trkpt lat="45.16239" lon="5.97283">
        <ele>2628.6</ele>
        <time>2020-08-11T10:15:11Z</time>
      </trkpt>
      <trkpt lat="45.16237" lon="5.97283">
        <ele>2628.2</ele>
        <time>2020-08-11T10:15:12Z</time>
      </trkpt>
      <trkpt lat="45.16237" lon="5.97283">
        <ele>2628</ele>
        <time>2020-08-11T10:15:13Z</time>
      </trkpt>
      <trkpt lat="45.16237" lon="5.97283">
        <ele>2627.8</ele>
        <time>2020-08-11T10:15:14Z</time>
      </trkpt>
      <trkpt lat="45.16237" lon="5.97283">
        <ele>2627.6</ele>
        <time>2020-08-11T10:15:15Z</time>
      </trkpt>
      <trkpt lat="45.16237" lon="5.97283">
        <ele>2627.4</ele>
        <time>2020-08-11T10:15:16Z</time>
      </trkpt>
      <trkpt lat="45.16235" lon="5.97283">
        <ele>2627.4</ele>
        <time>2020-08-11T10:15:17Z</time>
      </trkpt>
      <trkpt lat="45.16235" lon="5.97283">
        <ele>2627.2</ele>
        <time>2020-08-11T10:15:18Z</time>
      </trkpt>
      <trkpt lat="45.16235" lon="5.97283">
        <ele>2627</ele>
        <time>2020-08-11T10:15:19Z</time>
      </trkpt>
      <trkpt lat="45.16235" lon="5.97283">
        <ele>2627</ele>
        <time>2020-08-11T10:15:20Z</time>
      </trkpt>
      <trkpt lat="45.16235" lon="5.97283">
        <ele>2626.6</ele>
        <time>2020-08-11T10:15:21Z</time>
      </trkpt>
      <trkpt lat="45.16234" lon="5.97286">
        <ele>2626.4</ele>
        <time>2020-08-11T10:15:22Z</time>
      </trkpt>
      <trkpt lat="45.16234" lon="5.97286">
        <ele>2626.4</ele>
        <time>2020-08-11T10:15:23Z</time>
      </trkpt>
      <trkpt lat="45.16234" lon="5.97289">
        <ele>2626.4</ele>
        <time>2020-08-11T10:15:24Z</time>
      </trkpt>
      <trkpt lat="45.16234" lon="5.97289">
        <ele>2626</ele>
        <time>2020-08-11T10:15:25Z</time>
      </trkpt>
      <trkpt lat="45.16234" lon="5.97289">
        <ele>2626.2</ele>
        <time>2020-08-11T10:15:26Z</time>
      </trkpt>
      <trkpt lat="45.16234" lon="5.97292">
        <ele>2626.2</ele>
        <time>2020-08-11T10:15:27Z</time>
      </trkpt>
      <trkpt lat="45.16234" lon="5.97292">
        <ele>2626.2</ele>
        <time>2020-08-11T10:15:28Z</time>
      </trkpt>
      <trkpt lat="45.16234" lon="5.97292">
        <ele>2625.8</ele>
        <time>2020-08-11T10:15:29Z</time>
      </trkpt>
      <trkpt lat="45.16234" lon="5.97292">
        <ele>2625.4</ele>
        <time>2020-08-11T10:15:30Z</time>
      </trkpt>
      <trkpt lat="45.16234" lon="5.97292">
        <ele>2625.4</ele>
        <time>2020-08-11T10:15:31Z</time>
      </trkpt>
      <trkpt lat="45.16231" lon="5.97293">
        <ele>2625.2</ele>
        <time>2020-08-11T10:15:32Z</time>
      </trkpt>
      <trkpt lat="45.16231" lon="5.97293">
        <ele>2625.4</ele>
        <time>2020-08-11T10:15:33Z</time>
      </trkpt>
      <trkpt lat="45.16231" lon="5.97293">
        <ele>2625</ele>
        <time>2020-08-11T10:15:34Z</time>
      </trkpt>
      <trkpt lat="45.16231" lon="5.97292">
        <ele>2624.6</ele>
        <time>2020-08-11T10:15:35Z</time>
      </trkpt>
      <trkpt lat="45.1623" lon="5.97292">
        <ele>2624.2</ele>
        <time>2020-08-11T10:15:36Z</time>
      </trkpt>
      <trkpt lat="45.1623" lon="5.97292">
        <ele>2623.6</ele>
        <time>2020-08-11T10:15:37Z</time>
      </trkpt>
      <trkpt lat="45.16229" lon="5.97291">
        <ele>2623.6</ele>
        <time>2020-08-11T10:15:38Z</time>
      </trkpt>
      <trkpt lat="45.16229" lon="5.97291">
        <ele>2623.6</ele>
        <time>2020-08-11T10:15:39Z</time>
      </trkpt>
      <trkpt lat="45.16228" lon="5.97291">
        <ele>2623.6</ele>
        <time>2020-08-11T10:15:40Z</time>
      </trkpt>
      <trkpt lat="45.16228" lon="5.9729">
        <ele>2623.4</ele>
        <time>2020-08-11T10:15:41Z</time>
      </trkpt>
      <trkpt lat="45.16227" lon="5.9729">
        <ele>2623.4</ele>
        <time>2020-08-11T10:15:42Z</time>
      </trkpt>
      <trkpt lat="45.16227" lon="5.9729">
        <ele>2623.2</ele>
        <time>2020-08-11T10:15:43Z</time>
      </trkpt>
      <trkpt lat="45.16226" lon="5.97289">
        <ele>2623.2</ele>
        <time>2020-08-11T10:15:44Z</time>
      </trkpt>
      <trkpt lat="45.16226" lon="5.97289">
        <ele>2623</ele>
        <time>2020-08-11T10:15:45Z</time>
      </trkpt>
      <trkpt lat="45.16225" lon="5.97289">
        <ele>2622.6</ele>
        <time>2020-08-11T10:15:46Z</time>
      </trkpt>
      <trkpt lat="45.16225" lon="5.97288">
        <ele>2622</ele>
        <time>2020-08-11T10:15:47Z</time>
      </trkpt>
      <trkpt lat="45.16225" lon="5.97288">
        <ele>2621.8</ele>
        <time>2020-08-11T10:15:48Z</time>
      </trkpt>
      <trkpt lat="45.16224" lon="5.97288">
        <ele>2621.8</ele>
        <time>2020-08-11T10:15:49Z</time>
      </trkpt>
      <trkpt lat="45.16224" lon="5.97287">
        <ele>2621.2</ele>
        <time>2020-08-11T10:15:50Z</time>
      </trkpt>
      <trkpt lat="45.16223" lon="5.97287">
        <ele>2620.6</ele>
        <time>2020-08-11T10:15:51Z</time>
      </trkpt>
      <trkpt lat="45.16224" lon="5.97286">
        <ele>2620.4</ele>
        <time>2020-08-11T10:15:52Z</time>
      </trkpt>
      <trkpt lat="45.16224" lon="5.97285">
        <ele>2620</ele>
        <time>2020-08-11T10:15:53Z</time>
      </trkpt>
      <trkpt lat="45.16225" lon="5.97284">
        <ele>2619.6</ele>
        <time>2020-08-11T10:15:54Z</time>
      </trkpt>
      <trkpt lat="45.16225" lon="5.97283">
        <ele>2619.4</ele>
        <time>2020-08-11T10:15:55Z</time>
      </trkpt>
      <trkpt lat="45.16226" lon="5.97283">
        <ele>2619.2</ele>
        <time>2020-08-11T10:15:56Z</time>
      </trkpt>
      <trkpt lat="45.16227" lon="5.97282">
        <ele>2619</ele>
        <time>2020-08-11T10:15:57Z</time>
      </trkpt>
      <trkpt lat="45.16227" lon="5.97281">
        <ele>2618.6</ele>
        <time>2020-08-11T10:15:58Z</time>
      </trkpt>
      <trkpt lat="45.16228" lon="5.9728">
        <ele>2618.6</ele>
        <time>2020-08-11T10:15:59Z</time>
      </trkpt>
      <trkpt lat="45.16229" lon="5.97279">
        <ele>2618.2</ele>
        <time>2020-08-11T10:16:00Z</time>
      </trkpt>
      <trkpt lat="45.16229" lon="5.97278">
        <ele>2617.8</ele>
        <time>2020-08-11T10:16:01Z</time>
      </trkpt>
      <trkpt lat="45.1623" lon="5.97278">
        <ele>2617.6</ele>
        <time>2020-08-11T10:16:02Z</time>
      </trkpt>
      <trkpt lat="45.1623" lon="5.97278">
        <ele>2617.4</ele>
        <time>2020-08-11T10:16:03Z</time>
      </trkpt>
      <trkpt lat="45.1623" lon="5.97278">
        <ele>2617</ele>
        <time>2020-08-11T10:16:04Z</time>
      </trkpt>
      <trkpt lat="45.1623" lon="5.97278">
        <ele>2617.2</ele>
        <time>2020-08-11T10:16:05Z</time>
      </trkpt>
      <trkpt lat="45.1623" lon="5.97281">
        <ele>2617.2</ele>
        <time>2020-08-11T10:16:06Z</time>
      </trkpt>
      <trkpt lat="45.1623" lon="5.97281">
        <ele>2617</ele>
        <time>2020-08-11T10:16:07Z</time>
      </trkpt>
      <trkpt lat="45.16231" lon="5.97283">
        <ele>2616.8</ele>
        <time>2020-08-11T10:16:08Z</time>
      </trkpt>
      <trkpt lat="45.16231" lon="5.97283">
        <ele>2616.4</ele>
        <time>2020-08-11T10:16:09Z</time>
      </trkpt>
      <trkpt lat="45.16232" lon="5.97286">
        <ele>2616.2</ele>
        <time>2020-08-11T10:16:10Z</time>
      </trkpt>
      <trkpt lat="45.16232" lon="5.97286">
        <ele>2616</ele>
        <time>2020-08-11T10:16:11Z</time>
      </trkpt>
      <trkpt lat="45.16232" lon="5.97286">
        <ele>2615.6</ele>
        <time>2020-08-11T10:16:12Z</time>
      </trkpt>
      <trkpt lat="45.16234" lon="5.97287">
        <ele>2615.8</ele>
        <time>2020-08-11T10:16:13Z</time>
      </trkpt>
      <trkpt lat="45.16234" lon="5.97287">
        <ele>2615.8</ele>
        <time>2020-08-11T10:16:14Z</time>
      </trkpt>
      <trkpt lat="45.16234" lon="5.97287">
        <ele>2615.8</ele>
        <time>2020-08-11T10:16:15Z</time>
      </trkpt>
      <trkpt lat="45.16237" lon="5.97288">
        <ele>2615.8</ele>
        <time>2020-08-11T10:16:16Z</time>
      </trkpt>
      <trkpt lat="45.16237" lon="5.97288">
        <ele>2615.6</ele>
        <time>2020-08-11T10:16:17Z</time>
      </trkpt>
      <trkpt lat="45.16237" lon="5.97288">
        <ele>2615</ele>
        <time>2020-08-11T10:16:18Z</time>
      </trkpt>
      <trkpt lat="45.16237" lon="5.97288">
        <ele>2614.8</ele>
        <time>2020-08-11T10:16:19Z</time>
      </trkpt>
      <trkpt lat="45.16237" lon="5.97288">
        <ele>2614.6</ele>
        <time>2020-08-11T10:16:20Z</time>
      </trkpt>
      <trkpt lat="45.16237" lon="5.97288">
        <ele>2614.4</ele>
        <time>2020-08-11T10:16:21Z</time>
      </trkpt>
      <trkpt lat="45.16237" lon="5.97288">
        <ele>2614.2</ele>
        <time>2020-08-11T10:16:22Z</time>
      </trkpt>
      <trkpt lat="45.16235" lon="5.97289">
        <ele>2613.8</ele>
        <time>2020-08-11T10:16:23Z</time>
      </trkpt>
      <trkpt lat="45.16235" lon="5.97289">
        <ele>2613.4</ele>
        <time>2020-08-11T10:16:24Z</time>
      </trkpt>
      <trkpt lat="45.16235" lon="5.97289">
        <ele>2613</ele>
        <time>2020-08-11T10:16:25Z</time>
      </trkpt>
      <trkpt lat="45.16235" lon="5.97289">
        <ele>2612.8</ele>
        <time>2020-08-11T10:16:26Z</time>
      </trkpt>
      <trkpt lat="45.16235" lon="5.97289">
        <ele>2612.6</ele>
        <time>2020-08-11T10:16:27Z</time>
      </trkpt>
      <trkpt lat="45.16235" lon="5.97289">
        <ele>2612.2</ele>
        <time>2020-08-11T10:16:28Z</time>
      </trkpt>
      <trkpt lat="45.16234" lon="5.97291">
        <ele>2612</ele>
        <time>2020-08-11T10:16:29Z</time>
      </trkpt>
      <trkpt lat="45.16234" lon="5.97291">
        <ele>2612</ele>
        <time>2020-08-11T10:16:30Z</time>
      </trkpt>
      <trkpt lat="45.16232" lon="5.97294">
        <ele>2611.4</ele>
        <time>2020-08-11T10:16:31Z</time>
      </trkpt>
      <trkpt lat="45.16232" lon="5.97294">
        <ele>2611.2</ele>
        <time>2020-08-11T10:16:32Z</time>
      </trkpt>
      <trkpt lat="45.16232" lon="5.97294">
        <ele>2611</ele>
        <time>2020-08-11T10:16:33Z</time>
      </trkpt>
      <trkpt lat="45.16232" lon="5.97297">
        <ele>2611</ele>
        <time>2020-08-11T10:16:34Z</time>
      </trkpt>
      <trkpt lat="45.16232" lon="5.97297">
        <ele>2610.8</ele>
        <time>2020-08-11T10:16:35Z</time>
      </trkpt>
      <trkpt lat="45.16232" lon="5.97297">
        <ele>2610.4</ele>
        <time>2020-08-11T10:16:36Z</time>
      </trkpt>
      <trkpt lat="45.16232" lon="5.97297">
        <ele>2610</ele>
        <time>2020-08-11T10:16:37Z</time>
      </trkpt>
      <trkpt lat="45.1623" lon="5.97299">
        <ele>2609.8</ele>
        <time>2020-08-11T10:16:38Z</time>
      </trkpt>
      <trkpt lat="45.1623" lon="5.97299">
        <ele>2609.4</ele>
        <time>2020-08-11T10:16:39Z</time>
      </trkpt>
      <trkpt lat="45.1623" lon="5.97299">
        <ele>2609.2</ele>
        <time>2020-08-11T10:16:40Z</time>
      </trkpt>
      <trkpt lat="45.1623" lon="5.97299">
        <ele>2608.6</ele>
        <time>2020-08-11T10:16:41Z</time>
      </trkpt>
      <trkpt lat="45.16229" lon="5.97303">
        <ele>2608.2</ele>
        <time>2020-08-11T10:16:42Z</time>
      </trkpt>
      <trkpt lat="45.16229" lon="5.97303">
        <ele>2608</ele>
        <time>2020-08-11T10:16:43Z</time>
      </trkpt>
      <trkpt lat="45.16229" lon="5.97303">
        <ele>2607.8</ele>
        <time>2020-08-11T10:16:44Z</time>
      </trkpt>
      <trkpt lat="45.16229" lon="5.97303">
        <ele>2607.4</ele>
        <time>2020-08-11T10:16:45Z</time>
      </trkpt>
      <trkpt lat="45.16229" lon="5.97306">
        <ele>2606.8</ele>
        <time>2020-08-11T10:16:46Z</time>
      </trkpt>
      <trkpt lat="45.16229" lon="5.97306">
        <ele>2606.4</ele>
        <time>2020-08-11T10:16:47Z</time>
      </trkpt>
      <trkpt lat="45.16229" lon="5.97306">
        <ele>2606.2</ele>
        <time>2020-08-11T10:16:48Z</time>
      </trkpt>
      <trkpt lat="45.16229" lon="5.97306">
        <ele>2606</ele>
        <time>2020-08-11T10:16:49Z</time>
      </trkpt>
      <trkpt lat="45.16228" lon="5.97309">
        <ele>2605.6</ele>
        <time>2020-08-11T10:16:50Z</time>
      </trkpt>
      <trkpt lat="45.16228" lon="5.97309">
        <ele>2605.6</ele>
        <time>2020-08-11T10:16:51Z</time>
      </trkpt>
      <trkpt lat="45.16228" lon="5.97309">
        <ele>2605.2</ele>
        <time>2020-08-11T10:16:52Z</time>
      </trkpt>
      <trkpt lat="45.16228" lon="5.97309">
        <ele>2605.2</ele>
        <time>2020-08-11T10:16:53Z</time>
      </trkpt>
      <trkpt lat="45.16228" lon="5.97309">
        <ele>2605.2</ele>
        <time>2020-08-11T10:16:54Z</time>
      </trkpt>
      <trkpt lat="45.16229" lon="5.97312">
        <ele>2605.4</ele>
        <time>2020-08-11T10:16:55Z</time>
      </trkpt>
      <trkpt lat="45.16229" lon="5.97312">
        <ele>2604.4</ele>
        <time>2020-08-11T10:16:56Z</time>
      </trkpt>
      <trkpt lat="45.16229" lon="5.97312">
        <ele>2604.6</ele>
        <time>2020-08-11T10:16:57Z</time>
      </trkpt>
      <trkpt lat="45.16229" lon="5.97312">
        <ele>2604.6</ele>
        <time>2020-08-11T10:16:58Z</time>
      </trkpt>
      <trkpt lat="45.16229" lon="5.97312">
        <ele>2604.4</ele>
        <time>2020-08-11T10:16:59Z</time>
      </trkpt>
      <trkpt lat="45.16229" lon="5.97312">
        <ele>2604.2</ele>
        <time>2020-08-11T10:17:00Z</time>
      </trkpt>
      <trkpt lat="45.16227" lon="5.97312">
        <ele>2603.6</ele>
        <time>2020-08-11T10:17:01Z</time>
      </trkpt>
      <trkpt lat="45.16227" lon="5.97312">
        <ele>2603.4</ele>
        <time>2020-08-11T10:17:02Z</time>
      </trkpt>
      <trkpt lat="45.16227" lon="5.97312">
        <ele>2603.4</ele>
        <time>2020-08-11T10:17:03Z</time>
      </trkpt>
      <trkpt lat="45.16224" lon="5.97311">
        <ele>2603</ele>
        <time>2020-08-11T10:17:04Z</time>
      </trkpt>
      <trkpt lat="45.16224" lon="5.97311">
        <ele>2602.4</ele>
        <time>2020-08-11T10:17:05Z</time>
      </trkpt>
      <trkpt lat="45.16224" lon="5.97311">
        <ele>2602.2</ele>
        <time>2020-08-11T10:17:06Z</time>
      </trkpt>
      <trkpt lat="45.16224" lon="5.97311">
        <ele>2602</ele>
        <time>2020-08-11T10:17:07Z</time>
      </trkpt>
      <trkpt lat="45.16223" lon="5.97314">
        <ele>2601.4</ele>
        <time>2020-08-11T10:17:08Z</time>
      </trkpt>
      <trkpt lat="45.16223" lon="5.97314">
        <ele>2601</ele>
        <time>2020-08-11T10:17:09Z</time>
      </trkpt>
      <trkpt lat="45.16222" lon="5.97316">
        <ele>2600.4</ele>
        <time>2020-08-11T10:17:10Z</time>
      </trkpt>
      <trkpt lat="45.16222" lon="5.97316">
        <ele>2600</ele>
        <time>2020-08-11T10:17:11Z</time>
      </trkpt>
      <trkpt lat="45.16222" lon="5.97316">
        <ele>2599.6</ele>
        <time>2020-08-11T10:17:12Z</time>
      </trkpt>
      <trkpt lat="45.16221" lon="5.97319">
        <ele>2599.2</ele>
        <time>2020-08-11T10:17:13Z</time>
      </trkpt>
      <trkpt lat="45.16221" lon="5.97322">
        <ele>2599</ele>
        <time>2020-08-11T10:17:14Z</time>
      </trkpt>
      <trkpt lat="45.16221" lon="5.97322">
        <ele>2598.8</ele>
        <time>2020-08-11T10:17:15Z</time>
      </trkpt>
      <trkpt lat="45.16221" lon="5.97322">
        <ele>2598.8</ele>
        <time>2020-08-11T10:17:16Z</time>
      </trkpt>
      <trkpt lat="45.16221" lon="5.97326">
        <ele>2598.6</ele>
        <time>2020-08-11T10:17:17Z</time>
      </trkpt>
      <trkpt lat="45.16221" lon="5.97326">
        <ele>2598.2</ele>
        <time>2020-08-11T10:17:18Z</time>
      </trkpt>
      <trkpt lat="45.16221" lon="5.97328">
        <ele>2598</ele>
        <time>2020-08-11T10:17:19Z</time>
      </trkpt>
      <trkpt lat="45.16221" lon="5.97328">
        <ele>2598</ele>
        <time>2020-08-11T10:17:20Z</time>
      </trkpt>
      <trkpt lat="45.16221" lon="5.97328">
        <ele>2597.8</ele>
        <time>2020-08-11T10:17:21Z</time>
      </trkpt>
      <trkpt lat="45.16221" lon="5.97328">
        <ele>2597.8</ele>
        <time>2020-08-11T10:17:22Z</time>
      </trkpt>
      <trkpt lat="45.16221" lon="5.97328">
        <ele>2597.8</ele>
        <time>2020-08-11T10:17:23Z</time>
      </trkpt>
      <trkpt lat="45.16223" lon="5.97329">
        <ele>2597.2</ele>
        <time>2020-08-11T10:17:24Z</time>
      </trkpt>
      <trkpt lat="45.16223" lon="5.97329">
        <ele>2597.2</ele>
        <time>2020-08-11T10:17:25Z</time>
      </trkpt>
      <trkpt lat="45.16225" lon="5.97331">
        <ele>2597</ele>
        <time>2020-08-11T10:17:26Z</time>
      </trkpt>
      <trkpt lat="45.16225" lon="5.97331">
        <ele>2597.2</ele>
        <time>2020-08-11T10:17:27Z</time>
      </trkpt>
      <trkpt lat="45.16225" lon="5.97331">
        <ele>2597.4</ele>
        <time>2020-08-11T10:17:28Z</time>
      </trkpt>
      <trkpt lat="45.16228" lon="5.97332">
        <ele>2597.4</ele>
        <time>2020-08-11T10:17:29Z</time>
      </trkpt>
      <trkpt lat="45.16228" lon="5.97332">
        <ele>2597.4</ele>
        <time>2020-08-11T10:17:30Z</time>
      </trkpt>
      <trkpt lat="45.16229" lon="5.97333">
        <ele>2597.6</ele>
        <time>2020-08-11T10:17:31Z</time>
      </trkpt>
      <trkpt lat="45.16229" lon="5.97333">
        <ele>2597.6</ele>
        <time>2020-08-11T10:17:32Z</time>
      </trkpt>
      <trkpt lat="45.16229" lon="5.97333">
        <ele>2597.6</ele>
        <time>2020-08-11T10:17:33Z</time>
      </trkpt>
      <trkpt lat="45.16229" lon="5.97333">
        <ele>2597.8</ele>
        <time>2020-08-11T10:17:34Z</time>
      </trkpt>
      <trkpt lat="45.16231" lon="5.97335">
        <ele>2598</ele>
        <time>2020-08-11T10:17:35Z</time>
      </trkpt>
      <trkpt lat="45.16231" lon="5.97335">
        <ele>2598.2</ele>
        <time>2020-08-11T10:17:36Z</time>
      </trkpt>
      <trkpt lat="45.16231" lon="5.97335">
        <ele>2598.2</ele>
        <time>2020-08-11T10:17:37Z</time>
      </trkpt>
      <trkpt lat="45.16233" lon="5.97335">
        <ele>2598.4</ele>
        <time>2020-08-11T10:17:38Z</time>
      </trkpt>
      <trkpt lat="45.16233" lon="5.97335">
        <ele>2598.4</ele>
        <time>2020-08-11T10:17:39Z</time>
      </trkpt>
      <trkpt lat="45.16233" lon="5.97335">
        <ele>2598.4</ele>
        <time>2020-08-11T10:17:40Z</time>
      </trkpt>
      <trkpt lat="45.16233" lon="5.97335">
        <ele>2598.4</ele>
        <time>2020-08-11T10:17:41Z</time>
      </trkpt>
      <trkpt lat="45.16233" lon="5.97335">
        <ele>2598.6</ele>
        <time>2020-08-11T10:17:42Z</time>
      </trkpt>
      <trkpt lat="45.16233" lon="5.97335">
        <ele>2598.6</ele>
        <time>2020-08-11T10:17:43Z</time>
      </trkpt>
      <trkpt lat="45.16235" lon="5.97336">
        <ele>2598.6</ele>
        <time>2020-08-11T10:17:44Z</time>
      </trkpt>
      <trkpt lat="45.16235" lon="5.97336">
        <ele>2598.6</ele>
        <time>2020-08-11T10:17:45Z</time>
      </trkpt>
      <trkpt lat="45.16235" lon="5.9734">
        <ele>2598.4</ele>
        <time>2020-08-11T10:17:46Z</time>
      </trkpt>
      <trkpt lat="45.16235" lon="5.9734">
        <ele>2598.2</ele>
        <time>2020-08-11T10:17:47Z</time>
      </trkpt>
      <trkpt lat="45.16235" lon="5.9734">
        <ele>2598</ele>
        <time>2020-08-11T10:17:48Z</time>
      </trkpt>
      <trkpt lat="45.16235" lon="5.9734">
        <ele>2597.6</ele>
        <time>2020-08-11T10:17:49Z</time>
      </trkpt>
      <trkpt lat="45.16235" lon="5.9734">
        <ele>2597.4</ele>
        <time>2020-08-11T10:17:50Z</time>
      </trkpt>
      <trkpt lat="45.16236" lon="5.97342">
        <ele>2597.4</ele>
        <time>2020-08-11T10:17:51Z</time>
      </trkpt>
      <trkpt lat="45.16236" lon="5.97342">
        <ele>2596.8</ele>
        <time>2020-08-11T10:17:52Z</time>
      </trkpt>
      <trkpt lat="45.16237" lon="5.97345">
        <ele>2596</ele>
        <time>2020-08-11T10:17:53Z</time>
      </trkpt>
      <trkpt lat="45.16237" lon="5.97345">
        <ele>2595.8</ele>
        <time>2020-08-11T10:17:54Z</time>
      </trkpt>
      <trkpt lat="45.16238" lon="5.97348">
        <ele>2595.2</ele>
        <time>2020-08-11T10:17:55Z</time>
      </trkpt>
      <trkpt lat="45.16238" lon="5.97348">
        <ele>2595.2</ele>
        <time>2020-08-11T10:17:56Z</time>
      </trkpt>
      <trkpt lat="45.16238" lon="5.97348">
        <ele>2594.8</ele>
        <time>2020-08-11T10:17:57Z</time>
      </trkpt>
      <trkpt lat="45.16237" lon="5.97351">
        <ele>2594.4</ele>
        <time>2020-08-11T10:17:58Z</time>
      </trkpt>
      <trkpt lat="45.16237" lon="5.97351">
        <ele>2594</ele>
        <time>2020-08-11T10:17:59Z</time>
      </trkpt>
      <trkpt lat="45.16237" lon="5.97354">
        <ele>2593.8</ele>
        <time>2020-08-11T10:18:00Z</time>
      </trkpt>
      <trkpt lat="45.16237" lon="5.97354">
        <ele>2593</ele>
        <time>2020-08-11T10:18:01Z</time>
      </trkpt>
      <trkpt lat="45.16237" lon="5.97356">
        <ele>2592.6</ele>
        <time>2020-08-11T10:18:02Z</time>
      </trkpt>
      <trkpt lat="45.16237" lon="5.97357">
        <ele>2592.6</ele>
        <time>2020-08-11T10:18:03Z</time>
      </trkpt>
      <trkpt lat="45.16237" lon="5.97358">
        <ele>2592</ele>
        <time>2020-08-11T10:18:04Z</time>
      </trkpt>
      <trkpt lat="45.16237" lon="5.97359">
        <ele>2591.8</ele>
        <time>2020-08-11T10:18:05Z</time>
      </trkpt>
      <trkpt lat="45.16237" lon="5.97361">
        <ele>2591.6</ele>
        <time>2020-08-11T10:18:06Z</time>
      </trkpt>
      <trkpt lat="45.16237" lon="5.97362">
        <ele>2591.4</ele>
        <time>2020-08-11T10:18:07Z</time>
      </trkpt>
      <trkpt lat="45.16237" lon="5.97362">
        <ele>2590.8</ele>
        <time>2020-08-11T10:18:08Z</time>
      </trkpt>
      <trkpt lat="45.16237" lon="5.97362">
        <ele>2590.6</ele>
        <time>2020-08-11T10:18:09Z</time>
      </trkpt>
      <trkpt lat="45.16237" lon="5.97362">
        <ele>2590.6</ele>
        <time>2020-08-11T10:18:10Z</time>
      </trkpt>
      <trkpt lat="45.16237" lon="5.97362">
        <ele>2590.2</ele>
        <time>2020-08-11T10:18:11Z</time>
      </trkpt>
      <trkpt lat="45.16238" lon="5.97365">
        <ele>2590.2</ele>
        <time>2020-08-11T10:18:12Z</time>
      </trkpt>
      <trkpt lat="45.16238" lon="5.97365">
        <ele>2590</ele>
        <time>2020-08-11T10:18:13Z</time>
      </trkpt>
      <trkpt lat="45.16238" lon="5.97365">
        <ele>2589.6</ele>
        <time>2020-08-11T10:18:14Z</time>
      </trkpt>
      <trkpt lat="45.16238" lon="5.97365">
        <ele>2589</ele>
        <time>2020-08-11T10:18:15Z</time>
      </trkpt>
      <trkpt lat="45.16239" lon="5.97366">
        <ele>2590.4</ele>
        <time>2020-08-11T10:18:16Z</time>
      </trkpt>
      <trkpt lat="45.1624" lon="5.97367">
        <ele>2589.4</ele>
        <time>2020-08-11T10:18:17Z</time>
      </trkpt>
      <trkpt lat="45.16241" lon="5.97368">
        <ele>2588.6</ele>
        <time>2020-08-11T10:18:18Z</time>
      </trkpt>
      <trkpt lat="45.16242" lon="5.97369">
        <ele>2588.2</ele>
        <time>2020-08-11T10:18:19Z</time>
      </trkpt>
      <trkpt lat="45.16243" lon="5.9737">
        <ele>2587.6</ele>
        <time>2020-08-11T10:18:20Z</time>
      </trkpt>
      <trkpt lat="45.16243" lon="5.97371">
        <ele>2587</ele>
        <time>2020-08-11T10:18:21Z</time>
      </trkpt>
      <trkpt lat="45.16244" lon="5.97372">
        <ele>2586</ele>
        <time>2020-08-11T10:18:22Z</time>
      </trkpt>
      <trkpt lat="45.16245" lon="5.97373">
        <ele>2586</ele>
        <time>2020-08-11T10:18:23Z</time>
      </trkpt>
      <trkpt lat="45.16245" lon="5.97373">
        <ele>2585.8</ele>
        <time>2020-08-11T10:18:24Z</time>
      </trkpt>
      <trkpt lat="45.16245" lon="5.97374">
        <ele>2585.6</ele>
        <time>2020-08-11T10:18:25Z</time>
      </trkpt>
      <trkpt lat="45.16245" lon="5.97375">
        <ele>2585.2</ele>
        <time>2020-08-11T10:18:26Z</time>
      </trkpt>
      <trkpt lat="45.16245" lon="5.97376">
        <ele>2585.2</ele>
        <time>2020-08-11T10:18:27Z</time>
      </trkpt>
      <trkpt lat="45.16245" lon="5.97376">
        <ele>2584.8</ele>
        <time>2020-08-11T10:18:28Z</time>
      </trkpt>
      <trkpt lat="45.16245" lon="5.97377">
        <ele>2584.4</ele>
        <time>2020-08-11T10:18:29Z</time>
      </trkpt>
      <trkpt lat="45.16245" lon="5.97378">
        <ele>2584.2</ele>
        <time>2020-08-11T10:18:30Z</time>
      </trkpt>
      <trkpt lat="45.16245" lon="5.97379">
        <ele>2583.6</ele>
        <time>2020-08-11T10:18:31Z</time>
      </trkpt>
      <trkpt lat="45.16245" lon="5.97379">
        <ele>2583.2</ele>
        <time>2020-08-11T10:18:32Z</time>
      </trkpt>
      <trkpt lat="45.16245" lon="5.9738">
        <ele>2582.6</ele>
        <time>2020-08-11T10:18:33Z</time>
      </trkpt>
      <trkpt lat="45.16245" lon="5.97381">
        <ele>2582</ele>
        <time>2020-08-11T10:18:34Z</time>
      </trkpt>
      <trkpt lat="45.16245" lon="5.97382">
        <ele>2581.6</ele>
        <time>2020-08-11T10:18:35Z</time>
      </trkpt>
      <trkpt lat="45.16245" lon="5.97382">
        <ele>2581.2</ele>
        <time>2020-08-11T10:18:36Z</time>
      </trkpt>
      <trkpt lat="45.16245" lon="5.97382">
        <ele>2580.6</ele>
        <time>2020-08-11T10:18:37Z</time>
      </trkpt>
      <trkpt lat="45.16244" lon="5.97386">
        <ele>2580.4</ele>
        <time>2020-08-11T10:18:38Z</time>
      </trkpt>
      <trkpt lat="45.16244" lon="5.97386">
        <ele>2580.2</ele>
        <time>2020-08-11T10:18:39Z</time>
      </trkpt>
      <trkpt lat="45.16243" lon="5.97389">
        <ele>2580</ele>
        <time>2020-08-11T10:18:40Z</time>
      </trkpt>
      <trkpt lat="45.16243" lon="5.97389">
        <ele>2579.4</ele>
        <time>2020-08-11T10:18:41Z</time>
      </trkpt>
      <trkpt lat="45.16243" lon="5.97389">
        <ele>2579.2</ele>
        <time>2020-08-11T10:18:42Z</time>
      </trkpt>
      <trkpt lat="45.16242" lon="5.97391">
        <ele>2579</ele>
        <time>2020-08-11T10:18:43Z</time>
      </trkpt>
      <trkpt lat="45.1624" lon="5.97394">
        <ele>2578.2</ele>
        <time>2020-08-11T10:18:44Z</time>
      </trkpt>
      <trkpt lat="45.1624" lon="5.97395">
        <ele>2577.6</ele>
        <time>2020-08-11T10:18:45Z</time>
      </trkpt>
      <trkpt lat="45.1624" lon="5.97397">
        <ele>2577.6</ele>
        <time>2020-08-11T10:18:46Z</time>
      </trkpt>
      <trkpt lat="45.16239" lon="5.97398">
        <ele>2577.6</ele>
        <time>2020-08-11T10:18:47Z</time>
      </trkpt>
      <trkpt lat="45.16239" lon="5.97399">
        <ele>2577</ele>
        <time>2020-08-11T10:18:48Z</time>
      </trkpt>
      <trkpt lat="45.16239" lon="5.97399">
        <ele>2576.8</ele>
        <time>2020-08-11T10:18:49Z</time>
      </trkpt>
      <trkpt lat="45.16239" lon="5.97403">
        <ele>2576.4</ele>
        <time>2020-08-11T10:18:50Z</time>
      </trkpt>
      <trkpt lat="45.16239" lon="5.97403">
        <ele>2576.2</ele>
        <time>2020-08-11T10:18:51Z</time>
      </trkpt>
      <trkpt lat="45.16239" lon="5.97403">
        <ele>2576.2</ele>
        <time>2020-08-11T10:18:52Z</time>
      </trkpt>
      <trkpt lat="45.16239" lon="5.97406">
        <ele>2575.6</ele>
        <time>2020-08-11T10:18:53Z</time>
      </trkpt>
      <trkpt lat="45.16239" lon="5.97406">
        <ele>2575.2</ele>
        <time>2020-08-11T10:18:54Z</time>
      </trkpt>
      <trkpt lat="45.16239" lon="5.97406">
        <ele>2575.2</ele>
        <time>2020-08-11T10:18:55Z</time>
      </trkpt>
      <trkpt lat="45.16239" lon="5.97406">
        <ele>2574.8</ele>
        <time>2020-08-11T10:18:56Z</time>
      </trkpt>
      <trkpt lat="45.16239" lon="5.9741">
        <ele>2574.4</ele>
        <time>2020-08-11T10:18:57Z</time>
      </trkpt>
      <trkpt lat="45.16239" lon="5.9741">
        <ele>2574.2</ele>
        <time>2020-08-11T10:18:58Z</time>
      </trkpt>
      <trkpt lat="45.16239" lon="5.9741">
        <ele>2573.8</ele>
        <time>2020-08-11T10:18:59Z</time>
      </trkpt>
      <trkpt lat="45.16239" lon="5.9741">
        <ele>2573.2</ele>
        <time>2020-08-11T10:19:00Z</time>
      </trkpt>
      <trkpt lat="45.16239" lon="5.9741">
        <ele>2572.6</ele>
        <time>2020-08-11T10:19:01Z</time>
      </trkpt>
      <trkpt lat="45.16238" lon="5.97412">
        <ele>2571.8</ele>
        <time>2020-08-11T10:19:02Z</time>
      </trkpt>
      <trkpt lat="45.16238" lon="5.97412">
        <ele>2571.6</ele>
        <time>2020-08-11T10:19:03Z</time>
      </trkpt>
      <trkpt lat="45.16238" lon="5.97412">
        <ele>2571.2</ele>
        <time>2020-08-11T10:19:04Z</time>
      </trkpt>
      <trkpt lat="45.16238" lon="5.97412">
        <ele>2571.2</ele>
        <time>2020-08-11T10:19:05Z</time>
      </trkpt>
      <trkpt lat="45.16239" lon="5.97416">
        <ele>2571.2</ele>
        <time>2020-08-11T10:19:06Z</time>
      </trkpt>
      <trkpt lat="45.16239" lon="5.97419">
        <ele>2571.2</ele>
        <time>2020-08-11T10:19:07Z</time>
      </trkpt>
      <trkpt lat="45.16239" lon="5.97419">
        <ele>2571.2</ele>
        <time>2020-08-11T10:19:08Z</time>
      </trkpt>
      <trkpt lat="45.16239" lon="5.97419">
        <ele>2571</ele>
        <time>2020-08-11T10:19:09Z</time>
      </trkpt>
      <trkpt lat="45.1624" lon="5.97422">
        <ele>2570.8</ele>
        <time>2020-08-11T10:19:10Z</time>
      </trkpt>
      <trkpt lat="45.1624" lon="5.97422">
        <ele>2570.6</ele>
        <time>2020-08-11T10:19:11Z</time>
      </trkpt>
      <trkpt lat="45.1624" lon="5.97422">
        <ele>2570.4</ele>
        <time>2020-08-11T10:19:12Z</time>
      </trkpt>
      <trkpt lat="45.1624" lon="5.97422">
        <ele>2570.2</ele>
        <time>2020-08-11T10:19:13Z</time>
      </trkpt>
      <trkpt lat="45.16239" lon="5.97425">
        <ele>2569.4</ele>
        <time>2020-08-11T10:19:14Z</time>
      </trkpt>
      <trkpt lat="45.16239" lon="5.97425">
        <ele>2569.2</ele>
        <time>2020-08-11T10:19:15Z</time>
      </trkpt>
      <trkpt lat="45.1624" lon="5.97429">
        <ele>2568.8</ele>
        <time>2020-08-11T10:19:16Z</time>
      </trkpt>
      <trkpt lat="45.1624" lon="5.97429">
        <ele>2568.2</ele>
        <time>2020-08-11T10:19:17Z</time>
      </trkpt>
      <trkpt lat="45.16241" lon="5.97433">
        <ele>2567.8</ele>
        <time>2020-08-11T10:19:18Z</time>
      </trkpt>
      <trkpt lat="45.16241" lon="5.97433">
        <ele>2566.8</ele>
        <time>2020-08-11T10:19:19Z</time>
      </trkpt>
      <trkpt lat="45.16242" lon="5.97436">
        <ele>2566.4</ele>
        <time>2020-08-11T10:19:20Z</time>
      </trkpt>
      <trkpt lat="45.16242" lon="5.97436">
        <ele>2565.8</ele>
        <time>2020-08-11T10:19:21Z</time>
      </trkpt>
      <trkpt lat="45.16243" lon="5.97438">
        <ele>2565.6</ele>
        <time>2020-08-11T10:19:22Z</time>
      </trkpt>
      <trkpt lat="45.16243" lon="5.97438">
        <ele>2565.2</ele>
        <time>2020-08-11T10:19:23Z</time>
      </trkpt>
      <trkpt lat="45.16243" lon="5.97438">
        <ele>2564.6</ele>
        <time>2020-08-11T10:19:24Z</time>
      </trkpt>
      <trkpt lat="45.16245" lon="5.9744">
        <ele>2564.4</ele>
        <time>2020-08-11T10:19:25Z</time>
      </trkpt>
      <trkpt lat="45.16245" lon="5.9744">
        <ele>2564</ele>
        <time>2020-08-11T10:19:26Z</time>
      </trkpt>
      <trkpt lat="45.16246" lon="5.97442">
        <ele>2563.4</ele>
        <time>2020-08-11T10:19:27Z</time>
      </trkpt>
      <trkpt lat="45.16249" lon="5.97445">
        <ele>2563.2</ele>
        <time>2020-08-11T10:19:28Z</time>
      </trkpt>
      <trkpt lat="45.16249" lon="5.97445">
        <ele>2562.6</ele>
        <time>2020-08-11T10:19:29Z</time>
      </trkpt>
      <trkpt lat="45.16249" lon="5.97445">
        <ele>2561.8</ele>
        <time>2020-08-11T10:19:30Z</time>
      </trkpt>
      <trkpt lat="45.16249" lon="5.97445">
        <ele>2561.6</ele>
        <time>2020-08-11T10:19:31Z</time>
      </trkpt>
      <trkpt lat="45.16251" lon="5.97447">
        <ele>2561.4</ele>
        <time>2020-08-11T10:19:32Z</time>
      </trkpt>
      <trkpt lat="45.16253" lon="5.97449">
        <ele>2561.4</ele>
        <time>2020-08-11T10:19:33Z</time>
      </trkpt>
      <trkpt lat="45.16253" lon="5.97449">
        <ele>2561</ele>
        <time>2020-08-11T10:19:34Z</time>
      </trkpt>
      <trkpt lat="45.16255" lon="5.9745">
        <ele>2560.2</ele>
        <time>2020-08-11T10:19:35Z</time>
      </trkpt>
      <trkpt lat="45.16256" lon="5.9745">
        <ele>2560</ele>
        <time>2020-08-11T10:19:36Z</time>
      </trkpt>
      <trkpt lat="45.16257" lon="5.9745">
        <ele>2559.6</ele>
        <time>2020-08-11T10:19:37Z</time>
      </trkpt>
      <trkpt lat="45.16258" lon="5.97449">
        <ele>2559.6</ele>
        <time>2020-08-11T10:19:38Z</time>
      </trkpt>
      <trkpt lat="45.1626" lon="5.97449">
        <ele>2559.6</ele>
        <time>2020-08-11T10:19:39Z</time>
      </trkpt>
      <trkpt lat="45.1626" lon="5.97449">
        <ele>2559.4</ele>
        <time>2020-08-11T10:19:40Z</time>
      </trkpt>
      <trkpt lat="45.16263" lon="5.97448">
        <ele>2558.6</ele>
        <time>2020-08-11T10:19:41Z</time>
      </trkpt>
      <trkpt lat="45.16264" lon="5.97447">
        <ele>2558.8</ele>
        <time>2020-08-11T10:19:42Z</time>
      </trkpt>
      <trkpt lat="45.16265" lon="5.97446">
        <ele>2557.8</ele>
        <time>2020-08-11T10:19:43Z</time>
      </trkpt>
      <trkpt lat="45.16266" lon="5.97444">
        <ele>2557.6</ele>
        <time>2020-08-11T10:19:44Z</time>
      </trkpt>
      <trkpt lat="45.16266" lon="5.97444">
        <ele>2557.4</ele>
        <time>2020-08-11T10:19:45Z</time>
      </trkpt>
      <trkpt lat="45.16267" lon="5.97442">
        <ele>2556.2</ele>
        <time>2020-08-11T10:19:46Z</time>
      </trkpt>
      <trkpt lat="45.16269" lon="5.97441">
        <ele>2556.2</ele>
        <time>2020-08-11T10:19:47Z</time>
      </trkpt>
      <trkpt lat="45.16269" lon="5.97441">
        <ele>2555.8</ele>
        <time>2020-08-11T10:19:48Z</time>
      </trkpt>
      <trkpt lat="45.16269" lon="5.97441">
        <ele>2555.6</ele>
        <time>2020-08-11T10:19:49Z</time>
      </trkpt>
      <trkpt lat="45.16271" lon="5.9744">
        <ele>2555.4</ele>
        <time>2020-08-11T10:19:50Z</time>
      </trkpt>
      <trkpt lat="45.16272" lon="5.97437">
        <ele>2554.6</ele>
        <time>2020-08-11T10:19:51Z</time>
      </trkpt>
      <trkpt lat="45.16272" lon="5.97437">
        <ele>2554.8</ele>
        <time>2020-08-11T10:19:52Z</time>
      </trkpt>
      <trkpt lat="45.16272" lon="5.97437">
        <ele>2554.2</ele>
        <time>2020-08-11T10:19:53Z</time>
      </trkpt>
      <trkpt lat="45.16272" lon="5.97433">
        <ele>2553.8</ele>
        <time>2020-08-11T10:19:54Z</time>
      </trkpt>
      <trkpt lat="45.16272" lon="5.97433">
        <ele>2553.2</ele>
        <time>2020-08-11T10:19:55Z</time>
      </trkpt>
      <trkpt lat="45.16273" lon="5.97429">
        <ele>2553.2</ele>
        <time>2020-08-11T10:19:56Z</time>
      </trkpt>
      <trkpt lat="45.16273" lon="5.97429">
        <ele>2553.2</ele>
        <time>2020-08-11T10:19:57Z</time>
      </trkpt>
      <trkpt lat="45.16274" lon="5.97426">
        <ele>2552.4</ele>
        <time>2020-08-11T10:19:58Z</time>
      </trkpt>
      <trkpt lat="45.16275" lon="5.97424">
        <ele>2552.2</ele>
        <time>2020-08-11T10:19:59Z</time>
      </trkpt>
      <trkpt lat="45.16277" lon="5.97421">
        <ele>2550.6</ele>
        <time>2020-08-11T10:20:01Z</time>
      </trkpt>
      <trkpt lat="45.16278" lon="5.97419">
        <ele>2549.8</ele>
        <time>2020-08-11T10:20:02Z</time>
      </trkpt>
      <trkpt lat="45.16278" lon="5.97419">
        <ele>2549.4</ele>
        <time>2020-08-11T10:20:03Z</time>
      </trkpt>
      <trkpt lat="45.1628" lon="5.97415">
        <ele>2548.8</ele>
        <time>2020-08-11T10:20:04Z</time>
      </trkpt>
      <trkpt lat="45.1628" lon="5.97415">
        <ele>2548</ele>
        <time>2020-08-11T10:20:05Z</time>
      </trkpt>
      <trkpt lat="45.1628" lon="5.97415">
        <ele>2547.2</ele>
        <time>2020-08-11T10:20:06Z</time>
      </trkpt>
      <trkpt lat="45.16281" lon="5.97412">
        <ele>2546.4</ele>
        <time>2020-08-11T10:20:07Z</time>
      </trkpt>
      <trkpt lat="45.16281" lon="5.97412">
        <ele>2546</ele>
        <time>2020-08-11T10:20:08Z</time>
      </trkpt>
      <trkpt lat="45.16283" lon="5.9741">
        <ele>2545.4</ele>
        <time>2020-08-11T10:20:09Z</time>
      </trkpt>
      <trkpt lat="45.16283" lon="5.9741">
        <ele>2544.8</ele>
        <time>2020-08-11T10:20:10Z</time>
      </trkpt>
      <trkpt lat="45.16285" lon="5.97408">
        <ele>2544.4</ele>
        <time>2020-08-11T10:20:11Z</time>
      </trkpt>
      <trkpt lat="45.16285" lon="5.97408">
        <ele>2543.4</ele>
        <time>2020-08-11T10:20:12Z</time>
      </trkpt>
      <trkpt lat="45.16287" lon="5.97406">
        <ele>2542.4</ele>
        <time>2020-08-11T10:20:13Z</time>
      </trkpt>
      <trkpt lat="45.16287" lon="5.97406">
        <ele>2541.4</ele>
        <time>2020-08-11T10:20:14Z</time>
      </trkpt>
      <trkpt lat="45.16289" lon="5.97403">
        <ele>2541</ele>
        <time>2020-08-11T10:20:15Z</time>
      </trkpt>
      <trkpt lat="45.16289" lon="5.97403">
        <ele>2540.4</ele>
        <time>2020-08-11T10:20:16Z</time>
      </trkpt>
      <trkpt lat="45.16291" lon="5.97401">
        <ele>2539.6</ele>
        <time>2020-08-11T10:20:17Z</time>
      </trkpt>
      <trkpt lat="45.16292" lon="5.97403">
        <ele>2539</ele>
        <time>2020-08-11T10:20:18Z</time>
      </trkpt>
      <trkpt lat="45.16292" lon="5.97403">
        <ele>2538.6</ele>
        <time>2020-08-11T10:20:19Z</time>
      </trkpt>
      <trkpt lat="45.16293" lon="5.97406">
        <ele>2537.8</ele>
        <time>2020-08-11T10:20:20Z</time>
      </trkpt>
      <trkpt lat="45.16293" lon="5.97406">
        <ele>2537.2</ele>
        <time>2020-08-11T10:20:21Z</time>
      </trkpt>
      <trkpt lat="45.16295" lon="5.97409">
        <ele>2536.8</ele>
        <time>2020-08-11T10:20:22Z</time>
      </trkpt>
      <trkpt lat="45.16295" lon="5.97409">
        <ele>2536.4</ele>
        <time>2020-08-11T10:20:23Z</time>
      </trkpt>
      <trkpt lat="45.16295" lon="5.97409">
        <ele>2536</ele>
        <time>2020-08-11T10:20:24Z</time>
      </trkpt>
      <trkpt lat="45.16295" lon="5.97409">
        <ele>2535.6</ele>
        <time>2020-08-11T10:20:25Z</time>
      </trkpt>
      <trkpt lat="45.16298" lon="5.97409">
        <ele>2535</ele>
        <time>2020-08-11T10:20:26Z</time>
      </trkpt>
      <trkpt lat="45.16298" lon="5.97409">
        <ele>2535</ele>
        <time>2020-08-11T10:20:27Z</time>
      </trkpt>
      <trkpt lat="45.16298" lon="5.97409">
        <ele>2535</ele>
        <time>2020-08-11T10:20:28Z</time>
      </trkpt>
      <trkpt lat="45.16298" lon="5.97409">
        <ele>2534.8</ele>
        <time>2020-08-11T10:20:29Z</time>
      </trkpt>
      <trkpt lat="45.163" lon="5.97406">
        <ele>2534.6</ele>
        <time>2020-08-11T10:20:30Z</time>
      </trkpt>
      <trkpt lat="45.163" lon="5.97406">
        <ele>2534.4</ele>
        <time>2020-08-11T10:20:31Z</time>
      </trkpt>
      <trkpt lat="45.163" lon="5.97406">
        <ele>2534.4</ele>
        <time>2020-08-11T10:20:32Z</time>
      </trkpt>
      <trkpt lat="45.163" lon="5.97406">
        <ele>2534.4</ele>
        <time>2020-08-11T10:20:33Z</time>
      </trkpt>
      <trkpt lat="45.163" lon="5.97406">
        <ele>2534.2</ele>
        <time>2020-08-11T10:20:34Z</time>
      </trkpt>
      <trkpt lat="45.16302" lon="5.97404">
        <ele>2534.2</ele>
        <time>2020-08-11T10:20:35Z</time>
      </trkpt>
      <trkpt lat="45.16302" lon="5.97404">
        <ele>2534</ele>
        <time>2020-08-11T10:20:36Z</time>
      </trkpt>
      <trkpt lat="45.16304" lon="5.97403">
        <ele>2534</ele>
        <time>2020-08-11T10:20:37Z</time>
      </trkpt>
      <trkpt lat="45.16306" lon="5.97402">
        <ele>2533.2</ele>
        <time>2020-08-11T10:20:39Z</time>
      </trkpt>
      <trkpt lat="45.16307" lon="5.97401">
        <ele>2533.6</ele>
        <time>2020-08-11T10:20:40Z</time>
      </trkpt>
      <trkpt lat="45.16309" lon="5.974">
        <ele>2533</ele>
        <time>2020-08-11T10:20:41Z</time>
      </trkpt>
      <trkpt lat="45.1631" lon="5.97399">
        <ele>2532.8</ele>
        <time>2020-08-11T10:20:42Z</time>
      </trkpt>
      <trkpt lat="45.16312" lon="5.97398">
        <ele>2532</ele>
        <time>2020-08-11T10:20:43Z</time>
      </trkpt>
      <trkpt lat="45.16313" lon="5.97398">
        <ele>2531.6</ele>
        <time>2020-08-11T10:20:44Z</time>
      </trkpt>
      <trkpt lat="45.16314" lon="5.97398">
        <ele>2531.2</ele>
        <time>2020-08-11T10:20:45Z</time>
      </trkpt>
      <trkpt lat="45.16315" lon="5.97398">
        <ele>2530.6</ele>
        <time>2020-08-11T10:20:46Z</time>
      </trkpt>
      <trkpt lat="45.16316" lon="5.97398">
        <ele>2530.4</ele>
        <time>2020-08-11T10:20:47Z</time>
      </trkpt>
      <trkpt lat="45.16317" lon="5.97398">
        <ele>2530.4</ele>
        <time>2020-08-11T10:20:48Z</time>
      </trkpt>
      <trkpt lat="45.16318" lon="5.97397">
        <ele>2530.2</ele>
        <time>2020-08-11T10:20:49Z</time>
      </trkpt>
      <trkpt lat="45.16319" lon="5.97397">
        <ele>2530.2</ele>
        <time>2020-08-11T10:20:50Z</time>
      </trkpt>
      <trkpt lat="45.1632" lon="5.97397">
        <ele>2530</ele>
        <time>2020-08-11T10:20:51Z</time>
      </trkpt>
      <trkpt lat="45.1632" lon="5.97397">
        <ele>2529.8</ele>
        <time>2020-08-11T10:20:52Z</time>
      </trkpt>
      <trkpt lat="45.16321" lon="5.97397">
        <ele>2529.8</ele>
        <time>2020-08-11T10:20:53Z</time>
      </trkpt>
      <trkpt lat="45.16323" lon="5.97397">
        <ele>2529.8</ele>
        <time>2020-08-11T10:20:54Z</time>
      </trkpt>
      <trkpt lat="45.16324" lon="5.97397">
        <ele>2529.8</ele>
        <time>2020-08-11T10:20:55Z</time>
      </trkpt>
      <trkpt lat="45.16325" lon="5.97398">
        <ele>2529.8</ele>
        <time>2020-08-11T10:20:56Z</time>
      </trkpt>
      <trkpt lat="45.16326" lon="5.97398">
        <ele>2529.4</ele>
        <time>2020-08-11T10:20:57Z</time>
      </trkpt>
      <trkpt lat="45.1633" lon="5.974">
        <ele>2529.2</ele>
        <time>2020-08-11T10:20:58Z</time>
      </trkpt>
      <trkpt lat="45.1633" lon="5.974">
        <ele>2529.2</ele>
        <time>2020-08-11T10:20:59Z</time>
      </trkpt>
      <trkpt lat="45.1633" lon="5.974">
        <ele>2529</ele>
        <time>2020-08-11T10:21:00Z</time>
      </trkpt>
      <trkpt lat="45.16331" lon="5.97399">
        <ele>2528.6</ele>
        <time>2020-08-11T10:21:01Z</time>
      </trkpt>
      <trkpt lat="45.16333" lon="5.97399">
        <ele>2527.8</ele>
        <time>2020-08-11T10:21:02Z</time>
      </trkpt>
      <trkpt lat="45.16334" lon="5.97399">
        <ele>2527.8</ele>
        <time>2020-08-11T10:21:03Z</time>
      </trkpt>
      <trkpt lat="45.16335" lon="5.97399">
        <ele>2527.6</ele>
        <time>2020-08-11T10:21:04Z</time>
      </trkpt>
      <trkpt lat="45.16337" lon="5.97398">
        <ele>2527.2</ele>
        <time>2020-08-11T10:21:05Z</time>
      </trkpt>
      <trkpt lat="45.16337" lon="5.97398">
        <ele>2527</ele>
        <time>2020-08-11T10:21:06Z</time>
      </trkpt>
      <trkpt lat="45.16337" lon="5.97398">
        <ele>2526.8</ele>
        <time>2020-08-11T10:21:07Z</time>
      </trkpt>
      <trkpt lat="45.16339" lon="5.97397">
        <ele>2526.6</ele>
        <time>2020-08-11T10:21:08Z</time>
      </trkpt>
      <trkpt lat="45.16339" lon="5.97397">
        <ele>2526.6</ele>
        <time>2020-08-11T10:21:09Z</time>
      </trkpt>
      <trkpt lat="45.16339" lon="5.97397">
        <ele>2526.6</ele>
        <time>2020-08-11T10:21:10Z</time>
      </trkpt>
      <trkpt lat="45.16339" lon="5.97397">
        <ele>2526.4</ele>
        <time>2020-08-11T10:21:11Z</time>
      </trkpt>
      <trkpt lat="45.16342" lon="5.97397">
        <ele>2526.2</ele>
        <time>2020-08-11T10:21:12Z</time>
      </trkpt>
      <trkpt lat="45.16342" lon="5.97397">
        <ele>2526.6</ele>
        <time>2020-08-11T10:21:13Z</time>
      </trkpt>
      <trkpt lat="45.16342" lon="5.97397">
        <ele>2526.4</ele>
        <time>2020-08-11T10:21:14Z</time>
      </trkpt>
      <trkpt lat="45.16342" lon="5.97397">
        <ele>2526</ele>
        <time>2020-08-11T10:21:15Z</time>
      </trkpt>
      <trkpt lat="45.16342" lon="5.97397">
        <ele>2526</ele>
        <time>2020-08-11T10:21:16Z</time>
      </trkpt>
      <trkpt lat="45.1634" lon="5.97393">
        <ele>2526</ele>
        <time>2020-08-11T10:21:17Z</time>
      </trkpt>
      <trkpt lat="45.1634" lon="5.97393">
        <ele>2525.8</ele>
        <time>2020-08-11T10:21:18Z</time>
      </trkpt>
      <trkpt lat="45.1634" lon="5.97393">
        <ele>2525.2</ele>
        <time>2020-08-11T10:21:19Z</time>
      </trkpt>
      <trkpt lat="45.1634" lon="5.97392">
        <ele>2525</ele>
        <time>2020-08-11T10:21:20Z</time>
      </trkpt>
      <trkpt lat="45.1634" lon="5.97391">
        <ele>2525</ele>
        <time>2020-08-11T10:21:21Z</time>
      </trkpt>
      <trkpt lat="45.1634" lon="5.97389">
        <ele>2524.8</ele>
        <time>2020-08-11T10:21:22Z</time>
      </trkpt>
      <trkpt lat="45.1634" lon="5.97388">
        <ele>2524.4</ele>
        <time>2020-08-11T10:21:23Z</time>
      </trkpt>
      <trkpt lat="45.16341" lon="5.97386">
        <ele>2524.2</ele>
        <time>2020-08-11T10:21:24Z</time>
      </trkpt>
      <trkpt lat="45.16343" lon="5.97385">
        <ele>2523.8</ele>
        <time>2020-08-11T10:21:25Z</time>
      </trkpt>
      <trkpt lat="45.16345" lon="5.97384">
        <ele>2523.2</ele>
        <time>2020-08-11T10:21:26Z</time>
      </trkpt>
      <trkpt lat="45.16345" lon="5.97384">
        <ele>2523</ele>
        <time>2020-08-11T10:21:27Z</time>
      </trkpt>
      <trkpt lat="45.16345" lon="5.97384">
        <ele>2523</ele>
        <time>2020-08-11T10:21:28Z</time>
      </trkpt>
      <trkpt lat="45.16347" lon="5.97381">
        <ele>2522.8</ele>
        <time>2020-08-11T10:21:29Z</time>
      </trkpt>
      <trkpt lat="45.16347" lon="5.97381">
        <ele>2522.4</ele>
        <time>2020-08-11T10:21:30Z</time>
      </trkpt>
      <trkpt lat="45.16347" lon="5.97381">
        <ele>2522</ele>
        <time>2020-08-11T10:21:31Z</time>
      </trkpt>
      <trkpt lat="45.16348" lon="5.9738">
        <ele>2521.6</ele>
        <time>2020-08-11T10:21:32Z</time>
      </trkpt>
      <trkpt lat="45.16349" lon="5.97378">
        <ele>2521.2</ele>
        <time>2020-08-11T10:21:33Z</time>
      </trkpt>
      <trkpt lat="45.1635" lon="5.97376">
        <ele>2521.4</ele>
        <time>2020-08-11T10:21:34Z</time>
      </trkpt>
      <trkpt lat="45.16351" lon="5.97375">
        <ele>2521</ele>
        <time>2020-08-11T10:21:35Z</time>
      </trkpt>
      <trkpt lat="45.16352" lon="5.97373">
        <ele>2520.6</ele>
        <time>2020-08-11T10:21:36Z</time>
      </trkpt>
      <trkpt lat="45.16353" lon="5.97371">
        <ele>2520.2</ele>
        <time>2020-08-11T10:21:37Z</time>
      </trkpt>
      <trkpt lat="45.16353" lon="5.9737">
        <ele>2520</ele>
        <time>2020-08-11T10:21:38Z</time>
      </trkpt>
      <trkpt lat="45.16354" lon="5.9737">
        <ele>2519.8</ele>
        <time>2020-08-11T10:21:39Z</time>
      </trkpt>
      <trkpt lat="45.16355" lon="5.97369">
        <ele>2519.4</ele>
        <time>2020-08-11T10:21:40Z</time>
      </trkpt>
      <trkpt lat="45.16356" lon="5.97368">
        <ele>2519.2</ele>
        <time>2020-08-11T10:21:41Z</time>
      </trkpt>
      <trkpt lat="45.16357" lon="5.97367">
        <ele>2518.8</ele>
        <time>2020-08-11T10:21:42Z</time>
      </trkpt>
      <trkpt lat="45.16358" lon="5.97367">
        <ele>2518.4</ele>
        <time>2020-08-11T10:21:43Z</time>
      </trkpt>
      <trkpt lat="45.1636" lon="5.97365">
        <ele>2518.2</ele>
        <time>2020-08-11T10:21:44Z</time>
      </trkpt>
      <trkpt lat="45.1636" lon="5.97365">
        <ele>2517.6</ele>
        <time>2020-08-11T10:21:45Z</time>
      </trkpt>
      <trkpt lat="45.16362" lon="5.97363">
        <ele>2517.4</ele>
        <time>2020-08-11T10:21:46Z</time>
      </trkpt>
      <trkpt lat="45.16362" lon="5.97363">
        <ele>2517</ele>
        <time>2020-08-11T10:21:47Z</time>
      </trkpt>
      <trkpt lat="45.16364" lon="5.97362">
        <ele>2516.6</ele>
        <time>2020-08-11T10:21:48Z</time>
      </trkpt>
      <trkpt lat="45.16364" lon="5.97362">
        <ele>2516.2</ele>
        <time>2020-08-11T10:21:49Z</time>
      </trkpt>
      <trkpt lat="45.16366" lon="5.97361">
        <ele>2515.8</ele>
        <time>2020-08-11T10:21:50Z</time>
      </trkpt>
      <trkpt lat="45.16366" lon="5.97361">
        <ele>2515.4</ele>
        <time>2020-08-11T10:21:51Z</time>
      </trkpt>
      <trkpt lat="45.16369" lon="5.97359">
        <ele>2515.2</ele>
        <time>2020-08-11T10:21:52Z</time>
      </trkpt>
      <trkpt lat="45.16369" lon="5.97359">
        <ele>2515.2</ele>
        <time>2020-08-11T10:21:53Z</time>
      </trkpt>
      <trkpt lat="45.16371" lon="5.97359">
        <ele>2515</ele>
        <time>2020-08-11T10:21:54Z</time>
      </trkpt>
      <trkpt lat="45.16371" lon="5.97359">
        <ele>2514.8</ele>
        <time>2020-08-11T10:21:55Z</time>
      </trkpt>
      <trkpt lat="45.16371" lon="5.97359">
        <ele>2514.6</ele>
        <time>2020-08-11T10:21:56Z</time>
      </trkpt>
      <trkpt lat="45.16372" lon="5.97357">
        <ele>2514.4</ele>
        <time>2020-08-11T10:21:57Z</time>
      </trkpt>
      <trkpt lat="45.16373" lon="5.97356">
        <ele>2514.4</ele>
        <time>2020-08-11T10:21:58Z</time>
      </trkpt>
      <trkpt lat="45.16374" lon="5.97355">
        <ele>2514</ele>
        <time>2020-08-11T10:21:59Z</time>
      </trkpt>
      <trkpt lat="45.16375" lon="5.97354">
        <ele>2513.8</ele>
        <time>2020-08-11T10:22:00Z</time>
      </trkpt>
      <trkpt lat="45.16375" lon="5.97353">
        <ele>2513.6</ele>
        <time>2020-08-11T10:22:01Z</time>
      </trkpt>
      <trkpt lat="45.16375" lon="5.97353">
        <ele>2513.4</ele>
        <time>2020-08-11T10:22:02Z</time>
      </trkpt>
      <trkpt lat="45.16377" lon="5.97351">
        <ele>2513.4</ele>
        <time>2020-08-11T10:22:03Z</time>
      </trkpt>
      <trkpt lat="45.16377" lon="5.97351">
        <ele>2513</ele>
        <time>2020-08-11T10:22:04Z</time>
      </trkpt>
      <trkpt lat="45.16377" lon="5.9735">
        <ele>2512.6</ele>
        <time>2020-08-11T10:22:05Z</time>
      </trkpt>
      <trkpt lat="45.16377" lon="5.97349">
        <ele>2512.6</ele>
        <time>2020-08-11T10:22:06Z</time>
      </trkpt>
      <trkpt lat="45.16378" lon="5.97348">
        <ele>2512.4</ele>
        <time>2020-08-11T10:22:07Z</time>
      </trkpt>
      <trkpt lat="45.16378" lon="5.97347">
        <ele>2511.8</ele>
        <time>2020-08-11T10:22:08Z</time>
      </trkpt>
      <trkpt lat="45.16379" lon="5.97346">
        <ele>2511.6</ele>
        <time>2020-08-11T10:22:09Z</time>
      </trkpt>
      <trkpt lat="45.16379" lon="5.97345">
        <ele>2511.2</ele>
        <time>2020-08-11T10:22:10Z</time>
      </trkpt>
      <trkpt lat="45.16379" lon="5.97345">
        <ele>2510.8</ele>
        <time>2020-08-11T10:22:11Z</time>
      </trkpt>
      <trkpt lat="45.1638" lon="5.97344">
        <ele>2510.6</ele>
        <time>2020-08-11T10:22:12Z</time>
      </trkpt>
      <trkpt lat="45.1638" lon="5.97343">
        <ele>2510.6</ele>
        <time>2020-08-11T10:22:13Z</time>
      </trkpt>
      <trkpt lat="45.1638" lon="5.97342">
        <ele>2510</ele>
        <time>2020-08-11T10:22:14Z</time>
      </trkpt>
      <trkpt lat="45.1638" lon="5.9734">
        <ele>2509.8</ele>
        <time>2020-08-11T10:22:15Z</time>
      </trkpt>
      <trkpt lat="45.1638" lon="5.9734">
        <ele>2509.2</ele>
        <time>2020-08-11T10:22:16Z</time>
      </trkpt>
      <trkpt lat="45.1638" lon="5.9734">
        <ele>2508.8</ele>
        <time>2020-08-11T10:22:17Z</time>
      </trkpt>
      <trkpt lat="45.16381" lon="5.9734">
        <ele>2508.4</ele>
        <time>2020-08-11T10:22:18Z</time>
      </trkpt>
      <trkpt lat="45.16381" lon="5.9734">
        <ele>2507.8</ele>
        <time>2020-08-11T10:22:19Z</time>
      </trkpt>
      <trkpt lat="45.16382" lon="5.97341">
        <ele>2507.6</ele>
        <time>2020-08-11T10:22:20Z</time>
      </trkpt>
      <trkpt lat="45.16383" lon="5.97341">
        <ele>2507.2</ele>
        <time>2020-08-11T10:22:21Z</time>
      </trkpt>
      <trkpt lat="45.16384" lon="5.97341">
        <ele>2507</ele>
        <time>2020-08-11T10:22:22Z</time>
      </trkpt>
      <trkpt lat="45.16385" lon="5.97341">
        <ele>2506.8</ele>
        <time>2020-08-11T10:22:23Z</time>
      </trkpt>
      <trkpt lat="45.16386" lon="5.97341">
        <ele>2506.6</ele>
        <time>2020-08-11T10:22:24Z</time>
      </trkpt>
      <trkpt lat="45.16387" lon="5.9734">
        <ele>2506.4</ele>
        <time>2020-08-11T10:22:25Z</time>
      </trkpt>
      <trkpt lat="45.16388" lon="5.9734">
        <ele>2506.4</ele>
        <time>2020-08-11T10:22:26Z</time>
      </trkpt>
      <trkpt lat="45.16388" lon="5.9734">
        <ele>2506.2</ele>
        <time>2020-08-11T10:22:27Z</time>
      </trkpt>
      <trkpt lat="45.16389" lon="5.9734">
        <ele>2506</ele>
        <time>2020-08-11T10:22:28Z</time>
      </trkpt>
      <trkpt lat="45.1639" lon="5.97339">
        <ele>2505.8</ele>
        <time>2020-08-11T10:22:29Z</time>
      </trkpt>
      <trkpt lat="45.16391" lon="5.97339">
        <ele>2505.6</ele>
        <time>2020-08-11T10:22:30Z</time>
      </trkpt>
      <trkpt lat="45.16393" lon="5.97339">
        <ele>2505.4</ele>
        <time>2020-08-11T10:22:31Z</time>
      </trkpt>
      <trkpt lat="45.16393" lon="5.97339">
        <ele>2505</ele>
        <time>2020-08-11T10:22:32Z</time>
      </trkpt>
      <trkpt lat="45.16393" lon="5.97339">
        <ele>2504.6</ele>
        <time>2020-08-11T10:22:33Z</time>
      </trkpt>
      <trkpt lat="45.16393" lon="5.97338">
        <ele>2504.4</ele>
        <time>2020-08-11T10:22:34Z</time>
      </trkpt>
      <trkpt lat="45.16394" lon="5.97336">
        <ele>2504</ele>
        <time>2020-08-11T10:22:35Z</time>
      </trkpt>
      <trkpt lat="45.16394" lon="5.97335">
        <ele>2503.4</ele>
        <time>2020-08-11T10:22:36Z</time>
      </trkpt>
      <trkpt lat="45.16395" lon="5.97334">
        <ele>2503</ele>
        <time>2020-08-11T10:22:37Z</time>
      </trkpt>
      <trkpt lat="45.16395" lon="5.97332">
        <ele>2502.8</ele>
        <time>2020-08-11T10:22:38Z</time>
      </trkpt>
      <trkpt lat="45.16399" lon="5.97329">
        <ele>2502.2</ele>
        <time>2020-08-11T10:22:39Z</time>
      </trkpt>
      <trkpt lat="45.16401" lon="5.97327">
        <ele>2501.6</ele>
        <time>2020-08-11T10:22:40Z</time>
      </trkpt>
      <trkpt lat="45.16402" lon="5.97326">
        <ele>2501.2</ele>
        <time>2020-08-11T10:22:41Z</time>
      </trkpt>
      <trkpt lat="45.16403" lon="5.97324">
        <ele>2500.8</ele>
        <time>2020-08-11T10:22:42Z</time>
      </trkpt>
      <trkpt lat="45.16404" lon="5.97323">
        <ele>2500.4</ele>
        <time>2020-08-11T10:22:43Z</time>
      </trkpt>
      <trkpt lat="45.16404" lon="5.97323">
        <ele>2499.6</ele>
        <time>2020-08-11T10:22:44Z</time>
      </trkpt>
      <trkpt lat="45.16407" lon="5.97322">
        <ele>2499.2</ele>
        <time>2020-08-11T10:22:45Z</time>
      </trkpt>
      <trkpt lat="45.16409" lon="5.97319">
        <ele>2498.4</ele>
        <time>2020-08-11T10:22:46Z</time>
      </trkpt>
      <trkpt lat="45.16411" lon="5.97317">
        <ele>2497.6</ele>
        <time>2020-08-11T10:22:47Z</time>
      </trkpt>
      <trkpt lat="45.16413" lon="5.97316">
        <ele>2497.2</ele>
        <time>2020-08-11T10:22:48Z</time>
      </trkpt>
      <trkpt lat="45.16415" lon="5.97314">
        <ele>2496.8</ele>
        <time>2020-08-11T10:22:49Z</time>
      </trkpt>
      <trkpt lat="45.16416" lon="5.97312">
        <ele>2496.4</ele>
        <time>2020-08-11T10:22:50Z</time>
      </trkpt>
      <trkpt lat="45.16416" lon="5.97312">
        <ele>2495.2</ele>
        <time>2020-08-11T10:22:51Z</time>
      </trkpt>
      <trkpt lat="45.16418" lon="5.9731">
        <ele>2494.6</ele>
        <time>2020-08-11T10:22:52Z</time>
      </trkpt>
      <trkpt lat="45.1642" lon="5.97309">
        <ele>2494</ele>
        <time>2020-08-11T10:22:53Z</time>
      </trkpt>
      <trkpt lat="45.16421" lon="5.97308">
        <ele>2493.6</ele>
        <time>2020-08-11T10:22:54Z</time>
      </trkpt>
      <trkpt lat="45.16421" lon="5.97308">
        <ele>2493.6</ele>
        <time>2020-08-11T10:22:55Z</time>
      </trkpt>
      <trkpt lat="45.16422" lon="5.97307">
        <ele>2493.6</ele>
        <time>2020-08-11T10:22:56Z</time>
      </trkpt>
      <trkpt lat="45.16423" lon="5.97306">
        <ele>2493.4</ele>
        <time>2020-08-11T10:22:57Z</time>
      </trkpt>
      <trkpt lat="45.16424" lon="5.97305">
        <ele>2493.2</ele>
        <time>2020-08-11T10:22:58Z</time>
      </trkpt>
      <trkpt lat="45.16425" lon="5.97303">
        <ele>2492.8</ele>
        <time>2020-08-11T10:22:59Z</time>
      </trkpt>
      <trkpt lat="45.16425" lon="5.97303">
        <ele>2492.6</ele>
        <time>2020-08-11T10:23:00Z</time>
      </trkpt>
      <trkpt lat="45.16425" lon="5.97303">
        <ele>2492.4</ele>
        <time>2020-08-11T10:23:01Z</time>
      </trkpt>
      <trkpt lat="45.16425" lon="5.97303">
        <ele>2492.2</ele>
        <time>2020-08-11T10:23:02Z</time>
      </trkpt>
      <trkpt lat="45.16425" lon="5.97303">
        <ele>2492.2</ele>
        <time>2020-08-11T10:23:03Z</time>
      </trkpt>
      <trkpt lat="45.16425" lon="5.97303">
        <ele>2492.2</ele>
        <time>2020-08-11T10:23:04Z</time>
      </trkpt>
      <trkpt lat="45.16425" lon="5.97303">
        <ele>2492.2</ele>
        <time>2020-08-11T10:23:05Z</time>
      </trkpt>
      <trkpt lat="45.16425" lon="5.97303">
        <ele>2492.2</ele>
        <time>2020-08-11T10:23:06Z</time>
      </trkpt>
      <trkpt lat="45.16425" lon="5.97303">
        <ele>2492.2</ele>
        <time>2020-08-11T10:23:07Z</time>
      </trkpt>
      <trkpt lat="45.16425" lon="5.97303">
        <ele>2492.2</ele>
        <time>2020-08-11T10:23:08Z</time>
      </trkpt>
      <trkpt lat="45.16425" lon="5.97303">
        <ele>2492</ele>
        <time>2020-08-11T10:23:09Z</time>
      </trkpt>
      <trkpt lat="45.16425" lon="5.97303">
        <ele>2491.8</ele>
        <time>2020-08-11T10:23:10Z</time>
      </trkpt>
      <trkpt lat="45.16425" lon="5.97303">
        <ele>2492</ele>
        <time>2020-08-11T10:23:11Z</time>
      </trkpt>
      <trkpt lat="45.16425" lon="5.97303">
        <ele>2492</ele>
        <time>2020-08-11T10:23:12Z</time>
      </trkpt>
      <trkpt lat="45.16425" lon="5.97303">
        <ele>2492.2</ele>
        <time>2020-08-11T10:23:13Z</time>
      </trkpt>
      <trkpt lat="45.16425" lon="5.97303">
        <ele>2492.4</ele>
        <time>2020-08-11T10:23:14Z</time>
      </trkpt>
      <trkpt lat="45.16426" lon="5.97301">
        <ele>2492.2</ele>
        <time>2020-08-11T10:23:15Z</time>
      </trkpt>
      <trkpt lat="45.16426" lon="5.97301">
        <ele>2492.2</ele>
        <time>2020-08-11T10:23:16Z</time>
      </trkpt>
      <trkpt lat="45.16427" lon="5.97297">
        <ele>2492</ele>
        <time>2020-08-11T10:23:17Z</time>
      </trkpt>
      <trkpt lat="45.16428" lon="5.97295">
        <ele>2492</ele>
        <time>2020-08-11T10:23:18Z</time>
      </trkpt>
      <trkpt lat="45.16429" lon="5.97293">
        <ele>2492</ele>
        <time>2020-08-11T10:23:19Z</time>
      </trkpt>
      <trkpt lat="45.16429" lon="5.97293">
        <ele>2491.8</ele>
        <time>2020-08-11T10:23:20Z</time>
      </trkpt>
      <trkpt lat="45.16431" lon="5.97289">
        <ele>2491.4</ele>
        <time>2020-08-11T10:23:21Z</time>
      </trkpt>
      <trkpt lat="45.16433" lon="5.97286">
        <ele>2491.8</ele>
        <time>2020-08-11T10:23:22Z</time>
      </trkpt>
      <trkpt lat="45.16435" lon="5.97283">
        <ele>2491.8</ele>
        <time>2020-08-11T10:23:23Z</time>
      </trkpt>
      <trkpt lat="45.16435" lon="5.97283">
        <ele>2491.6</ele>
        <time>2020-08-11T10:23:24Z</time>
      </trkpt>
      <trkpt lat="45.16436" lon="5.97281">
        <ele>2491.4</ele>
        <time>2020-08-11T10:23:25Z</time>
      </trkpt>
      <trkpt lat="45.16436" lon="5.97281">
        <ele>2491.4</ele>
        <time>2020-08-11T10:23:26Z</time>
      </trkpt>
      <trkpt lat="45.16438" lon="5.97277">
        <ele>2491.4</ele>
        <time>2020-08-11T10:23:27Z</time>
      </trkpt>
      <trkpt lat="45.16438" lon="5.97277">
        <ele>2491.4</ele>
        <time>2020-08-11T10:23:28Z</time>
      </trkpt>
      <trkpt lat="45.1644" lon="5.97274">
        <ele>2491.2</ele>
        <time>2020-08-11T10:23:29Z</time>
      </trkpt>
      <trkpt lat="45.16441" lon="5.97271">
        <ele>2491.2</ele>
        <time>2020-08-11T10:23:30Z</time>
      </trkpt>
      <trkpt lat="45.16441" lon="5.97271">
        <ele>2491.2</ele>
        <time>2020-08-11T10:23:31Z</time>
      </trkpt>
      <trkpt lat="45.16443" lon="5.97268">
        <ele>2491.2</ele>
        <time>2020-08-11T10:23:32Z</time>
      </trkpt>
      <trkpt lat="45.16443" lon="5.97268">
        <ele>2491</ele>
        <time>2020-08-11T10:23:33Z</time>
      </trkpt>
      <trkpt lat="45.16443" lon="5.97268">
        <ele>2491</ele>
        <time>2020-08-11T10:23:34Z</time>
      </trkpt>
      <trkpt lat="45.16444" lon="5.97265">
        <ele>2490.6</ele>
        <time>2020-08-11T10:23:35Z</time>
      </trkpt>
      <trkpt lat="45.16444" lon="5.97265">
        <ele>2490.4</ele>
        <time>2020-08-11T10:23:36Z</time>
      </trkpt>
      <trkpt lat="45.16446" lon="5.97262">
        <ele>2490.4</ele>
        <time>2020-08-11T10:23:37Z</time>
      </trkpt>
      <trkpt lat="45.16447" lon="5.9726">
        <ele>2490</ele>
        <time>2020-08-11T10:23:38Z</time>
      </trkpt>
      <trkpt lat="45.16449" lon="5.97258">
        <ele>2489.2</ele>
        <time>2020-08-11T10:23:39Z</time>
      </trkpt>
      <trkpt lat="45.16449" lon="5.97258">
        <ele>2489</ele>
        <time>2020-08-11T10:23:40Z</time>
      </trkpt>
      <trkpt lat="45.1645" lon="5.97256">
        <ele>2488.4</ele>
        <time>2020-08-11T10:23:41Z</time>
      </trkpt>
      <trkpt lat="45.16452" lon="5.97254">
        <ele>2488.4</ele>
        <time>2020-08-11T10:23:42Z</time>
      </trkpt>
      <trkpt lat="45.16452" lon="5.97254">
        <ele>2488.2</ele>
        <time>2020-08-11T10:23:43Z</time>
      </trkpt>
      <trkpt lat="45.16453" lon="5.97252">
        <ele>2488</ele>
        <time>2020-08-11T10:23:44Z</time>
      </trkpt>
      <trkpt lat="45.16453" lon="5.97252">
        <ele>2488</ele>
        <time>2020-08-11T10:23:45Z</time>
      </trkpt>
      <trkpt lat="45.16453" lon="5.97249">
        <ele>2487.6</ele>
        <time>2020-08-11T10:23:46Z</time>
      </trkpt>
      <trkpt lat="45.16455" lon="5.97245">
        <ele>2487</ele>
        <time>2020-08-11T10:23:47Z</time>
      </trkpt>
      <trkpt lat="45.16455" lon="5.97245">
        <ele>2486.8</ele>
        <time>2020-08-11T10:23:48Z</time>
      </trkpt>
      <trkpt lat="45.16457" lon="5.97241">
        <ele>2486.4</ele>
        <time>2020-08-11T10:23:49Z</time>
      </trkpt>
      <trkpt lat="45.16457" lon="5.97241">
        <ele>2486.4</ele>
        <time>2020-08-11T10:23:50Z</time>
      </trkpt>
      <trkpt lat="45.16457" lon="5.97241">
        <ele>2486.2</ele>
        <time>2020-08-11T10:23:51Z</time>
      </trkpt>
      <trkpt lat="45.16458" lon="5.97238">
        <ele>2485.8</ele>
        <time>2020-08-11T10:23:52Z</time>
      </trkpt>
      <trkpt lat="45.16458" lon="5.97238">
        <ele>2485.8</ele>
        <time>2020-08-11T10:23:53Z</time>
      </trkpt>
      <trkpt lat="45.16458" lon="5.97237">
        <ele>2485.6</ele>
        <time>2020-08-11T10:23:54Z</time>
      </trkpt>
      <trkpt lat="45.16458" lon="5.97235">
        <ele>2485</ele>
        <time>2020-08-11T10:23:55Z</time>
      </trkpt>
      <trkpt lat="45.16459" lon="5.97234">
        <ele>2484.6</ele>
        <time>2020-08-11T10:23:56Z</time>
      </trkpt>
      <trkpt lat="45.16459" lon="5.97233">
        <ele>2484.2</ele>
        <time>2020-08-11T10:23:57Z</time>
      </trkpt>
      <trkpt lat="45.16459" lon="5.97232">
        <ele>2483.8</ele>
        <time>2020-08-11T10:23:58Z</time>
      </trkpt>
      <trkpt lat="45.16459" lon="5.97232">
        <ele>2483.6</ele>
        <time>2020-08-11T10:23:59Z</time>
      </trkpt>
      <trkpt lat="45.16459" lon="5.97232">
        <ele>2483.4</ele>
        <time>2020-08-11T10:24:00Z</time>
      </trkpt>
      <trkpt lat="45.16461" lon="5.97229">
        <ele>2483.4</ele>
        <time>2020-08-11T10:24:01Z</time>
      </trkpt>
      <trkpt lat="45.16461" lon="5.97229">
        <ele>2483.6</ele>
        <time>2020-08-11T10:24:02Z</time>
      </trkpt>
      <trkpt lat="45.16461" lon="5.97229">
        <ele>2483.2</ele>
        <time>2020-08-11T10:24:03Z</time>
      </trkpt>
      <trkpt lat="45.16462" lon="5.97226">
        <ele>2482.8</ele>
        <time>2020-08-11T10:24:04Z</time>
      </trkpt>
      <trkpt lat="45.16462" lon="5.97226">
        <ele>2482.8</ele>
        <time>2020-08-11T10:24:05Z</time>
      </trkpt>
      <trkpt lat="45.16462" lon="5.97226">
        <ele>2482.8</ele>
        <time>2020-08-11T10:24:06Z</time>
      </trkpt>
      <trkpt lat="45.16464" lon="5.97224">
        <ele>2482.6</ele>
        <time>2020-08-11T10:24:07Z</time>
      </trkpt>
      <trkpt lat="45.16465" lon="5.97222">
        <ele>2482.6</ele>
        <time>2020-08-11T10:24:08Z</time>
      </trkpt>
      <trkpt lat="45.16465" lon="5.97222">
        <ele>2482.4</ele>
        <time>2020-08-11T10:24:09Z</time>
      </trkpt>
      <trkpt lat="45.16465" lon="5.97222">
        <ele>2482.2</ele>
        <time>2020-08-11T10:24:10Z</time>
      </trkpt>
      <trkpt lat="45.16467" lon="5.97219">
        <ele>2482.4</ele>
        <time>2020-08-11T10:24:11Z</time>
      </trkpt>
      <trkpt lat="45.16467" lon="5.97219">
        <ele>2482.2</ele>
        <time>2020-08-11T10:24:12Z</time>
      </trkpt>
      <trkpt lat="45.16467" lon="5.97219">
        <ele>2481.6</ele>
        <time>2020-08-11T10:24:13Z</time>
      </trkpt>
      <trkpt lat="45.16467" lon="5.97219">
        <ele>2481</ele>
        <time>2020-08-11T10:24:14Z</time>
      </trkpt>
      <trkpt lat="45.16467" lon="5.97219">
        <ele>2480.8</ele>
        <time>2020-08-11T10:24:15Z</time>
      </trkpt>
      <trkpt lat="45.16468" lon="5.97217">
        <ele>2480.4</ele>
        <time>2020-08-11T10:24:16Z</time>
      </trkpt>
      <trkpt lat="45.16468" lon="5.97217">
        <ele>2480.2</ele>
        <time>2020-08-11T10:24:17Z</time>
      </trkpt>
      <trkpt lat="45.16469" lon="5.97215">
        <ele>2479.6</ele>
        <time>2020-08-11T10:24:18Z</time>
      </trkpt>
      <trkpt lat="45.16469" lon="5.97215">
        <ele>2479.4</ele>
        <time>2020-08-11T10:24:19Z</time>
      </trkpt>
      <trkpt lat="45.16469" lon="5.97215">
        <ele>2479.2</ele>
        <time>2020-08-11T10:24:20Z</time>
      </trkpt>
      <trkpt lat="45.16469" lon="5.97212">
        <ele>2479</ele>
        <time>2020-08-11T10:24:21Z</time>
      </trkpt>
      <trkpt lat="45.16469" lon="5.97212">
        <ele>2478.6</ele>
        <time>2020-08-11T10:24:22Z</time>
      </trkpt>
      <trkpt lat="45.16469" lon="5.97212">
        <ele>2478.2</ele>
        <time>2020-08-11T10:24:23Z</time>
      </trkpt>
      <trkpt lat="45.16469" lon="5.97212">
        <ele>2478</ele>
        <time>2020-08-11T10:24:24Z</time>
      </trkpt>
      <trkpt lat="45.16469" lon="5.97212">
        <ele>2477.8</ele>
        <time>2020-08-11T10:24:25Z</time>
      </trkpt>
      <trkpt lat="45.16469" lon="5.97212">
        <ele>2478</ele>
        <time>2020-08-11T10:24:26Z</time>
      </trkpt>
      <trkpt lat="45.16472" lon="5.97212">
        <ele>2477.8</ele>
        <time>2020-08-11T10:24:27Z</time>
      </trkpt>
      <trkpt lat="45.16472" lon="5.97212">
        <ele>2477.6</ele>
        <time>2020-08-11T10:24:28Z</time>
      </trkpt>
      <trkpt lat="45.16472" lon="5.97212">
        <ele>2477.6</ele>
        <time>2020-08-11T10:24:29Z</time>
      </trkpt>
      <trkpt lat="45.16472" lon="5.97212">
        <ele>2477.6</ele>
        <time>2020-08-11T10:24:30Z</time>
      </trkpt>
      <trkpt lat="45.16472" lon="5.97212">
        <ele>2477.4</ele>
        <time>2020-08-11T10:24:31Z</time>
      </trkpt>
      <trkpt lat="45.16472" lon="5.97212">
        <ele>2477.4</ele>
        <time>2020-08-11T10:24:32Z</time>
      </trkpt>
      <trkpt lat="45.16472" lon="5.97212">
        <ele>2477.6</ele>
        <time>2020-08-11T10:24:33Z</time>
      </trkpt>
      <trkpt lat="45.16472" lon="5.97212">
        <ele>2477.6</ele>
        <time>2020-08-11T10:24:34Z</time>
      </trkpt>
      <trkpt lat="45.16472" lon="5.97212">
        <ele>2477.6</ele>
        <time>2020-08-11T10:24:35Z</time>
      </trkpt>
      <trkpt lat="45.16472" lon="5.97212">
        <ele>2477.6</ele>
        <time>2020-08-11T10:24:36Z</time>
      </trkpt>
      <trkpt lat="45.16472" lon="5.97216">
        <ele>2477.4</ele>
        <time>2020-08-11T10:24:37Z</time>
      </trkpt>
      <trkpt lat="45.16472" lon="5.97215">
        <ele>2477.6</ele>
        <time>2020-08-11T10:24:38Z</time>
      </trkpt>
      <trkpt lat="45.16472" lon="5.97214">
        <ele>2477.6</ele>
        <time>2020-08-11T10:24:39Z</time>
      </trkpt>
      <trkpt lat="45.16472" lon="5.97213">
        <ele>2477.6</ele>
        <time>2020-08-11T10:24:40Z</time>
      </trkpt>
      <trkpt lat="45.16472" lon="5.97213">
        <ele>2477.6</ele>
        <time>2020-08-11T10:24:41Z</time>
      </trkpt>
      <trkpt lat="45.16472" lon="5.97212">
        <ele>2477.6</ele>
        <time>2020-08-11T10:24:42Z</time>
      </trkpt>
      <trkpt lat="45.16472" lon="5.97211">
        <ele>2477.6</ele>
        <time>2020-08-11T10:24:43Z</time>
      </trkpt>
      <trkpt lat="45.16472" lon="5.9721">
        <ele>2477.6</ele>
        <time>2020-08-11T10:24:44Z</time>
      </trkpt>
      <trkpt lat="45.16472" lon="5.9721">
        <ele>2477.4</ele>
        <time>2020-08-11T10:24:45Z</time>
      </trkpt>
      <trkpt lat="45.16472" lon="5.9721">
        <ele>2477.4</ele>
        <time>2020-08-11T10:24:46Z</time>
      </trkpt>
      <trkpt lat="45.16472" lon="5.9721">
        <ele>2477.4</ele>
        <time>2020-08-11T10:24:47Z</time>
      </trkpt>
      <trkpt lat="45.16472" lon="5.9721">
        <ele>2477.4</ele>
        <time>2020-08-11T10:24:48Z</time>
      </trkpt>
      <trkpt lat="45.16472" lon="5.97207">
        <ele>2477.2</ele>
        <time>2020-08-11T10:24:49Z</time>
      </trkpt>
      <trkpt lat="45.16472" lon="5.97207">
        <ele>2477.4</ele>
        <time>2020-08-11T10:24:50Z</time>
      </trkpt>
      <trkpt lat="45.16473" lon="5.97204">
        <ele>2477.2</ele>
        <time>2020-08-11T10:24:51Z</time>
      </trkpt>
      <trkpt lat="45.16473" lon="5.97203">
        <ele>2477.2</ele>
        <time>2020-08-11T10:24:52Z</time>
      </trkpt>
      <trkpt lat="45.16473" lon="5.97202">
        <ele>2477.4</ele>
        <time>2020-08-11T10:24:53Z</time>
      </trkpt>
      <trkpt lat="45.16473" lon="5.97201">
        <ele>2477.8</ele>
        <time>2020-08-11T10:24:54Z</time>
      </trkpt>
      <trkpt lat="45.16473" lon="5.972">
        <ele>2478.2</ele>
        <time>2020-08-11T10:24:55Z</time>
      </trkpt>
      <trkpt lat="45.16473" lon="5.97198">
        <ele>2478.4</ele>
        <time>2020-08-11T10:24:56Z</time>
      </trkpt>
      <trkpt lat="45.16473" lon="5.97197">
        <ele>2478.2</ele>
        <time>2020-08-11T10:24:57Z</time>
      </trkpt>
      <trkpt lat="45.16473" lon="5.97195">
        <ele>2477.8</ele>
        <time>2020-08-11T10:24:58Z</time>
      </trkpt>
      <trkpt lat="45.16473" lon="5.97193">
        <ele>2477.6</ele>
        <time>2020-08-11T10:24:59Z</time>
      </trkpt>
      <trkpt lat="45.16473" lon="5.97192">
        <ele>2477.6</ele>
        <time>2020-08-11T10:25:00Z</time>
      </trkpt>
      <trkpt lat="45.16474" lon="5.9719">
        <ele>2477.4</ele>
        <time>2020-08-11T10:25:01Z</time>
      </trkpt>
      <trkpt lat="45.16474" lon="5.97188">
        <ele>2477.2</ele>
        <time>2020-08-11T10:25:02Z</time>
      </trkpt>
      <trkpt lat="45.16474" lon="5.97187">
        <ele>2477.2</ele>
        <time>2020-08-11T10:25:03Z</time>
      </trkpt>
      <trkpt lat="45.16474" lon="5.97185">
        <ele>2477</ele>
        <time>2020-08-11T10:25:04Z</time>
      </trkpt>
      <trkpt lat="45.16474" lon="5.97183">
        <ele>2476.6</ele>
        <time>2020-08-11T10:25:05Z</time>
      </trkpt>
      <trkpt lat="45.16474" lon="5.97182">
        <ele>2476.6</ele>
        <time>2020-08-11T10:25:06Z</time>
      </trkpt>
      <trkpt lat="45.16475" lon="5.9718">
        <ele>2476.4</ele>
        <time>2020-08-11T10:25:07Z</time>
      </trkpt>
      <trkpt lat="45.16475" lon="5.9718">
        <ele>2476.2</ele>
        <time>2020-08-11T10:25:08Z</time>
      </trkpt>
      <trkpt lat="45.16475" lon="5.9718">
        <ele>2476</ele>
        <time>2020-08-11T10:25:09Z</time>
      </trkpt>
      <trkpt lat="45.16475" lon="5.97178">
        <ele>2476</ele>
        <time>2020-08-11T10:25:10Z</time>
      </trkpt>
      <trkpt lat="45.16476" lon="5.97176">
        <ele>2476</ele>
        <time>2020-08-11T10:25:11Z</time>
      </trkpt>
      <trkpt lat="45.16477" lon="5.97173">
        <ele>2475.8</ele>
        <time>2020-08-11T10:25:12Z</time>
      </trkpt>
      <trkpt lat="45.16478" lon="5.97171">
        <ele>2476</ele>
        <time>2020-08-11T10:25:13Z</time>
      </trkpt>
      <trkpt lat="45.16478" lon="5.97169">
        <ele>2476.2</ele>
        <time>2020-08-11T10:25:14Z</time>
      </trkpt>
      <trkpt lat="45.16479" lon="5.97167">
        <ele>2476.2</ele>
        <time>2020-08-11T10:25:15Z</time>
      </trkpt>
      <trkpt lat="45.16479" lon="5.97165">
        <ele>2476.2</ele>
        <time>2020-08-11T10:25:16Z</time>
      </trkpt>
      <trkpt lat="45.1648" lon="5.97162">
        <ele>2476</ele>
        <time>2020-08-11T10:25:17Z</time>
      </trkpt>
      <trkpt lat="45.1648" lon="5.9716">
        <ele>2476</ele>
        <time>2020-08-11T10:25:18Z</time>
      </trkpt>
      <trkpt lat="45.16481" lon="5.97158">
        <ele>2475.8</ele>
        <time>2020-08-11T10:25:19Z</time>
      </trkpt>
      <trkpt lat="45.16482" lon="5.97155">
        <ele>2475.6</ele>
        <time>2020-08-11T10:25:20Z</time>
      </trkpt>
      <trkpt lat="45.16482" lon="5.97155">
        <ele>2475.6</ele>
        <time>2020-08-11T10:25:21Z</time>
      </trkpt>
      <trkpt lat="45.16485" lon="5.97152">
        <ele>2475.4</ele>
        <time>2020-08-11T10:25:22Z</time>
      </trkpt>
      <trkpt lat="45.16485" lon="5.97152">
        <ele>2475.4</ele>
        <time>2020-08-11T10:25:23Z</time>
      </trkpt>
      <trkpt lat="45.16488" lon="5.9715">
        <ele>2475</ele>
        <time>2020-08-11T10:25:24Z</time>
      </trkpt>
      <trkpt lat="45.1649" lon="5.97148">
        <ele>2474.6</ele>
        <time>2020-08-11T10:25:25Z</time>
      </trkpt>
      <trkpt lat="45.1649" lon="5.97148">
        <ele>2474.4</ele>
        <time>2020-08-11T10:25:26Z</time>
      </trkpt>
      <trkpt lat="45.1649" lon="5.97148">
        <ele>2474</ele>
        <time>2020-08-11T10:25:27Z</time>
      </trkpt>
      <trkpt lat="45.16492" lon="5.97146">
        <ele>2474.2</ele>
        <time>2020-08-11T10:25:28Z</time>
      </trkpt>
      <trkpt lat="45.16492" lon="5.97146">
        <ele>2473.8</ele>
        <time>2020-08-11T10:25:29Z</time>
      </trkpt>
      <trkpt lat="45.16494" lon="5.97144">
        <ele>2473.2</ele>
        <time>2020-08-11T10:25:30Z</time>
      </trkpt>
      <trkpt lat="45.16496" lon="5.97141">
        <ele>2472.4</ele>
        <time>2020-08-11T10:25:31Z</time>
      </trkpt>
      <trkpt lat="45.16496" lon="5.97141">
        <ele>2472</ele>
        <time>2020-08-11T10:25:32Z</time>
      </trkpt>
      <trkpt lat="45.16499" lon="5.97138">
        <ele>2472</ele>
        <time>2020-08-11T10:25:33Z</time>
      </trkpt>
      <trkpt lat="45.16499" lon="5.97138">
        <ele>2471.2</ele>
        <time>2020-08-11T10:25:34Z</time>
      </trkpt>
      <trkpt lat="45.165" lon="5.97135">
        <ele>2470.4</ele>
        <time>2020-08-11T10:25:35Z</time>
      </trkpt>
      <trkpt lat="45.165" lon="5.97135">
        <ele>2470</ele>
        <time>2020-08-11T10:25:36Z</time>
      </trkpt>
      <trkpt lat="45.165" lon="5.97132">
        <ele>2470.2</ele>
        <time>2020-08-11T10:25:37Z</time>
      </trkpt>
      <trkpt lat="45.165" lon="5.97132">
        <ele>2470.4</ele>
        <time>2020-08-11T10:25:38Z</time>
      </trkpt>
      <trkpt lat="45.165" lon="5.97132">
        <ele>2470.6</ele>
        <time>2020-08-11T10:25:39Z</time>
      </trkpt>
      <trkpt lat="45.16501" lon="5.97129">
        <ele>2469.6</ele>
        <time>2020-08-11T10:25:40Z</time>
      </trkpt>
      <trkpt lat="45.16502" lon="5.97126">
        <ele>2468.6</ele>
        <time>2020-08-11T10:25:41Z</time>
      </trkpt>
      <trkpt lat="45.16502" lon="5.97126">
        <ele>2468</ele>
        <time>2020-08-11T10:25:42Z</time>
      </trkpt>
      <trkpt lat="45.16504" lon="5.97123">
        <ele>2467</ele>
        <time>2020-08-11T10:25:43Z</time>
      </trkpt>
      <trkpt lat="45.16504" lon="5.97123">
        <ele>2466.2</ele>
        <time>2020-08-11T10:25:44Z</time>
      </trkpt>
      <trkpt lat="45.16505" lon="5.9712">
        <ele>2465.8</ele>
        <time>2020-08-11T10:25:45Z</time>
      </trkpt>
      <trkpt lat="45.16507" lon="5.97118">
        <ele>2466</ele>
        <time>2020-08-11T10:25:46Z</time>
      </trkpt>
      <trkpt lat="45.16508" lon="5.97116">
        <ele>2465.8</ele>
        <time>2020-08-11T10:25:47Z</time>
      </trkpt>
      <trkpt lat="45.16508" lon="5.97116">
        <ele>2465.2</ele>
        <time>2020-08-11T10:25:48Z</time>
      </trkpt>
      <trkpt lat="45.16509" lon="5.97113">
        <ele>2465.2</ele>
        <time>2020-08-11T10:25:49Z</time>
      </trkpt>
      <trkpt lat="45.16509" lon="5.97113">
        <ele>2464.6</ele>
        <time>2020-08-11T10:25:50Z</time>
      </trkpt>
      <trkpt lat="45.16509" lon="5.97113">
        <ele>2464.4</ele>
        <time>2020-08-11T10:25:51Z</time>
      </trkpt>
      <trkpt lat="45.16509" lon="5.97113">
        <ele>2463.8</ele>
        <time>2020-08-11T10:25:52Z</time>
      </trkpt>
      <trkpt lat="45.16513" lon="5.97113">
        <ele>2463</ele>
        <time>2020-08-11T10:25:53Z</time>
      </trkpt>
      <trkpt lat="45.16515" lon="5.97114">
        <ele>2462.4</ele>
        <time>2020-08-11T10:25:54Z</time>
      </trkpt>
      <trkpt lat="45.16515" lon="5.97114">
        <ele>2462.2</ele>
        <time>2020-08-11T10:25:55Z</time>
      </trkpt>
      <trkpt lat="45.16515" lon="5.97114">
        <ele>2461.6</ele>
        <time>2020-08-11T10:25:56Z</time>
      </trkpt>
      <trkpt lat="45.16517" lon="5.97114">
        <ele>2461.2</ele>
        <time>2020-08-11T10:25:57Z</time>
      </trkpt>
      <trkpt lat="45.16517" lon="5.97114">
        <ele>2460.8</ele>
        <time>2020-08-11T10:25:58Z</time>
      </trkpt>
      <trkpt lat="45.16518" lon="5.97112">
        <ele>2460.6</ele>
        <time>2020-08-11T10:25:59Z</time>
      </trkpt>
      <trkpt lat="45.16518" lon="5.97112">
        <ele>2460.2</ele>
        <time>2020-08-11T10:26:00Z</time>
      </trkpt>
      <trkpt lat="45.1652" lon="5.97111">
        <ele>2459.8</ele>
        <time>2020-08-11T10:26:01Z</time>
      </trkpt>
      <trkpt lat="45.1652" lon="5.97111">
        <ele>2459.6</ele>
        <time>2020-08-11T10:26:02Z</time>
      </trkpt>
      <trkpt lat="45.16522" lon="5.9711">
        <ele>2459.2</ele>
        <time>2020-08-11T10:26:03Z</time>
      </trkpt>
      <trkpt lat="45.16522" lon="5.9711">
        <ele>2458.6</ele>
        <time>2020-08-11T10:26:04Z</time>
      </trkpt>
      <trkpt lat="45.16522" lon="5.9711">
        <ele>2458.2</ele>
        <time>2020-08-11T10:26:05Z</time>
      </trkpt>
      <trkpt lat="45.16522" lon="5.9711">
        <ele>2458</ele>
        <time>2020-08-11T10:26:06Z</time>
      </trkpt>
      <trkpt lat="45.16524" lon="5.97111">
        <ele>2457.6</ele>
        <time>2020-08-11T10:26:07Z</time>
      </trkpt>
      <trkpt lat="45.16524" lon="5.97111">
        <ele>2457.4</ele>
        <time>2020-08-11T10:26:08Z</time>
      </trkpt>
      <trkpt lat="45.16526" lon="5.97114">
        <ele>2456.4</ele>
        <time>2020-08-11T10:26:09Z</time>
      </trkpt>
      <trkpt lat="45.16526" lon="5.97114">
        <ele>2456.2</ele>
        <time>2020-08-11T10:26:10Z</time>
      </trkpt>
      <trkpt lat="45.16529" lon="5.97112">
        <ele>2455.8</ele>
        <time>2020-08-11T10:26:11Z</time>
      </trkpt>
      <trkpt lat="45.16529" lon="5.97112">
        <ele>2455.8</ele>
        <time>2020-08-11T10:26:12Z</time>
      </trkpt>
      <trkpt lat="45.16529" lon="5.97112">
        <ele>2455.8</ele>
        <time>2020-08-11T10:26:13Z</time>
      </trkpt>
      <trkpt lat="45.16532" lon="5.97111">
        <ele>2454.6</ele>
        <time>2020-08-11T10:26:14Z</time>
      </trkpt>
      <trkpt lat="45.16533" lon="5.97113">
        <ele>2454</ele>
        <time>2020-08-11T10:26:15Z</time>
      </trkpt>
      <trkpt lat="45.16535" lon="5.97114">
        <ele>2453</ele>
        <time>2020-08-11T10:26:16Z</time>
      </trkpt>
      <trkpt lat="45.16536" lon="5.97116">
        <ele>2452.8</ele>
        <time>2020-08-11T10:26:17Z</time>
      </trkpt>
      <trkpt lat="45.16537" lon="5.97118">
        <ele>2452.6</ele>
        <time>2020-08-11T10:26:18Z</time>
      </trkpt>
      <trkpt lat="45.16538" lon="5.97121">
        <ele>2452.4</ele>
        <time>2020-08-11T10:26:19Z</time>
      </trkpt>
      <trkpt lat="45.16539" lon="5.97122">
        <ele>2451.8</ele>
        <time>2020-08-11T10:26:20Z</time>
      </trkpt>
      <trkpt lat="45.16539" lon="5.97123">
        <ele>2451</ele>
        <time>2020-08-11T10:26:21Z</time>
      </trkpt>
      <trkpt lat="45.16539" lon="5.97123">
        <ele>2449.8</ele>
        <time>2020-08-11T10:26:22Z</time>
      </trkpt>
      <trkpt lat="45.16541" lon="5.97125">
        <ele>2449.4</ele>
        <time>2020-08-11T10:26:23Z</time>
      </trkpt>
      <trkpt lat="45.16543" lon="5.97128">
        <ele>2449</ele>
        <time>2020-08-11T10:26:24Z</time>
      </trkpt>
      <trkpt lat="45.16545" lon="5.97131">
        <ele>2448.8</ele>
        <time>2020-08-11T10:26:25Z</time>
      </trkpt>
      <trkpt lat="45.16545" lon="5.97131">
        <ele>2448.6</ele>
        <time>2020-08-11T10:26:26Z</time>
      </trkpt>
      <trkpt lat="45.16545" lon="5.97131">
        <ele>2448</ele>
        <time>2020-08-11T10:26:27Z</time>
      </trkpt>
      <trkpt lat="45.16545" lon="5.97131">
        <ele>2446.6</ele>
        <time>2020-08-11T10:26:28Z</time>
      </trkpt>
      <trkpt lat="45.16548" lon="5.97129">
        <ele>2445.6</ele>
        <time>2020-08-11T10:26:29Z</time>
      </trkpt>
      <trkpt lat="45.16548" lon="5.97129">
        <ele>2445</ele>
        <time>2020-08-11T10:26:30Z</time>
      </trkpt>
      <trkpt lat="45.16548" lon="5.97129">
        <ele>2444.2</ele>
        <time>2020-08-11T10:26:31Z</time>
      </trkpt>
      <trkpt lat="45.1655" lon="5.9713">
        <ele>2443</ele>
        <time>2020-08-11T10:26:32Z</time>
      </trkpt>
      <trkpt lat="45.1655" lon="5.9713">
        <ele>2442.6</ele>
        <time>2020-08-11T10:26:33Z</time>
      </trkpt>
      <trkpt lat="45.1655" lon="5.9713">
        <ele>2442</ele>
        <time>2020-08-11T10:26:34Z</time>
      </trkpt>
      <trkpt lat="45.16547" lon="5.97132">
        <ele>2441.8</ele>
        <time>2020-08-11T10:26:35Z</time>
      </trkpt>
      <trkpt lat="45.16545" lon="5.97134">
        <ele>2441.6</ele>
        <time>2020-08-11T10:26:36Z</time>
      </trkpt>
      <trkpt lat="45.16542" lon="5.97137">
        <ele>2441.2</ele>
        <time>2020-08-11T10:26:37Z</time>
      </trkpt>
      <trkpt lat="45.16539" lon="5.97139">
        <ele>2440.6</ele>
        <time>2020-08-11T10:26:38Z</time>
      </trkpt>
      <trkpt lat="45.16537" lon="5.97141">
        <ele>2440.4</ele>
        <time>2020-08-11T10:26:39Z</time>
      </trkpt>
      <trkpt lat="45.16534" lon="5.97143">
        <ele>2440</ele>
        <time>2020-08-11T10:26:40Z</time>
      </trkpt>
      <trkpt lat="45.16528" lon="5.97144">
        <ele>2439.6</ele>
        <time>2020-08-11T10:26:41Z</time>
      </trkpt>
      <trkpt lat="45.16529" lon="5.97146">
        <ele>2439.4</ele>
        <time>2020-08-11T10:26:42Z</time>
      </trkpt>
      <trkpt lat="45.1653" lon="5.97148">
        <ele>2438.4</ele>
        <time>2020-08-11T10:26:43Z</time>
      </trkpt>
      <trkpt lat="45.16532" lon="5.97153">
        <ele>2438.2</ele>
        <time>2020-08-11T10:26:44Z</time>
      </trkpt>
      <trkpt lat="45.16534" lon="5.97157">
        <ele>2437.6</ele>
        <time>2020-08-11T10:26:45Z</time>
      </trkpt>
      <trkpt lat="45.16536" lon="5.97157">
        <ele>2437.6</ele>
        <time>2020-08-11T10:26:46Z</time>
      </trkpt>
      <trkpt lat="45.16538" lon="5.97157">
        <ele>2436.6</ele>
        <time>2020-08-11T10:26:47Z</time>
      </trkpt>
      <trkpt lat="45.16539" lon="5.97157">
        <ele>2435.2</ele>
        <time>2020-08-11T10:26:48Z</time>
      </trkpt>
      <trkpt lat="45.16541" lon="5.97157">
        <ele>2434.2</ele>
        <time>2020-08-11T10:26:49Z</time>
      </trkpt>
      <trkpt lat="45.16543" lon="5.97156">
        <ele>2434</ele>
        <time>2020-08-11T10:26:50Z</time>
      </trkpt>
      <trkpt lat="45.16544" lon="5.97156">
        <ele>2433.8</ele>
        <time>2020-08-11T10:26:51Z</time>
      </trkpt>
      <trkpt lat="45.16545" lon="5.97156">
        <ele>2433.6</ele>
        <time>2020-08-11T10:26:52Z</time>
      </trkpt>
      <trkpt lat="45.16547" lon="5.97156">
        <ele>2433.4</ele>
        <time>2020-08-11T10:26:53Z</time>
      </trkpt>
      <trkpt lat="45.16548" lon="5.97156">
        <ele>2433</ele>
        <time>2020-08-11T10:26:54Z</time>
      </trkpt>
      <trkpt lat="45.16549" lon="5.97156">
        <ele>2432.4</ele>
        <time>2020-08-11T10:26:55Z</time>
      </trkpt>
      <trkpt lat="45.1655" lon="5.97156">
        <ele>2431.8</ele>
        <time>2020-08-11T10:26:56Z</time>
      </trkpt>
      <trkpt lat="45.16551" lon="5.97156">
        <ele>2431</ele>
        <time>2020-08-11T10:26:57Z</time>
      </trkpt>
      <trkpt lat="45.16552" lon="5.97156">
        <ele>2430.6</ele>
        <time>2020-08-11T10:26:58Z</time>
      </trkpt>
      <trkpt lat="45.16554" lon="5.97156">
        <ele>2430.6</ele>
        <time>2020-08-11T10:26:59Z</time>
      </trkpt>
      <trkpt lat="45.16555" lon="5.97157">
        <ele>2430</ele>
        <time>2020-08-11T10:27:00Z</time>
      </trkpt>
      <trkpt lat="45.16557" lon="5.97158">
        <ele>2429.8</ele>
        <time>2020-08-11T10:27:01Z</time>
      </trkpt>
      <trkpt lat="45.16559" lon="5.9716">
        <ele>2429.2</ele>
        <time>2020-08-11T10:27:02Z</time>
      </trkpt>
      <trkpt lat="45.1656" lon="5.97161">
        <ele>2428.2</ele>
        <time>2020-08-11T10:27:03Z</time>
      </trkpt>
      <trkpt lat="45.16562" lon="5.97162">
        <ele>2428.2</ele>
        <time>2020-08-11T10:27:04Z</time>
      </trkpt>
      <trkpt lat="45.16563" lon="5.97162">
        <ele>2427.4</ele>
        <time>2020-08-11T10:27:05Z</time>
      </trkpt>
      <trkpt lat="45.16564" lon="5.97161">
        <ele>2427.2</ele>
        <time>2020-08-11T10:27:06Z</time>
      </trkpt>
      <trkpt lat="45.16565" lon="5.97161">
        <ele>2426.8</ele>
        <time>2020-08-11T10:27:07Z</time>
      </trkpt>
      <trkpt lat="45.16566" lon="5.9716">
        <ele>2426.4</ele>
        <time>2020-08-11T10:27:08Z</time>
      </trkpt>
      <trkpt lat="45.16567" lon="5.9716">
        <ele>2426</ele>
        <time>2020-08-11T10:27:09Z</time>
      </trkpt>
      <trkpt lat="45.16567" lon="5.97159">
        <ele>2425.4</ele>
        <time>2020-08-11T10:27:10Z</time>
      </trkpt>
      <trkpt lat="45.16568" lon="5.97159">
        <ele>2424.6</ele>
        <time>2020-08-11T10:27:11Z</time>
      </trkpt>
      <trkpt lat="45.16569" lon="5.97158">
        <ele>2424.6</ele>
        <time>2020-08-11T10:27:12Z</time>
      </trkpt>
      <trkpt lat="45.1657" lon="5.97158">
        <ele>2423.8</ele>
        <time>2020-08-11T10:27:13Z</time>
      </trkpt>
      <trkpt lat="45.16571" lon="5.97157">
        <ele>2423.2</ele>
        <time>2020-08-11T10:27:14Z</time>
      </trkpt>
      <trkpt lat="45.16571" lon="5.97156">
        <ele>2422.6</ele>
        <time>2020-08-11T10:27:15Z</time>
      </trkpt>
      <trkpt lat="45.16571" lon="5.97155">
        <ele>2422.2</ele>
        <time>2020-08-11T10:27:16Z</time>
      </trkpt>
      <trkpt lat="45.16572" lon="5.97155">
        <ele>2422.2</ele>
        <time>2020-08-11T10:27:17Z</time>
      </trkpt>
      <trkpt lat="45.16572" lon="5.97154">
        <ele>2421.6</ele>
        <time>2020-08-11T10:27:18Z</time>
      </trkpt>
      <trkpt lat="45.16572" lon="5.97153">
        <ele>2421</ele>
        <time>2020-08-11T10:27:19Z</time>
      </trkpt>
      <trkpt lat="45.16572" lon="5.97152">
        <ele>2420.2</ele>
        <time>2020-08-11T10:27:20Z</time>
      </trkpt>
      <trkpt lat="45.16573" lon="5.97151">
        <ele>2419.8</ele>
        <time>2020-08-11T10:27:21Z</time>
      </trkpt>
      <trkpt lat="45.16573" lon="5.97151">
        <ele>2419.6</ele>
        <time>2020-08-11T10:27:22Z</time>
      </trkpt>
      <trkpt lat="45.16573" lon="5.9715">
        <ele>2419.6</ele>
        <time>2020-08-11T10:27:23Z</time>
      </trkpt>
      <trkpt lat="45.16574" lon="5.97149">
        <ele>2419.2</ele>
        <time>2020-08-11T10:27:24Z</time>
      </trkpt>
      <trkpt lat="45.16574" lon="5.97148">
        <ele>2419.4</ele>
        <time>2020-08-11T10:27:25Z</time>
      </trkpt>
      <trkpt lat="45.16574" lon="5.97148">
        <ele>2419.8</ele>
        <time>2020-08-11T10:27:26Z</time>
      </trkpt>
      <trkpt lat="45.16574" lon="5.97147">
        <ele>2419.2</ele>
        <time>2020-08-11T10:27:27Z</time>
      </trkpt>
      <trkpt lat="45.16575" lon="5.97146">
        <ele>2419.2</ele>
        <time>2020-08-11T10:27:28Z</time>
      </trkpt>
      <trkpt lat="45.16575" lon="5.97145">
        <ele>2418.4</ele>
        <time>2020-08-11T10:27:29Z</time>
      </trkpt>
      <trkpt lat="45.16575" lon="5.97143">
        <ele>2418</ele>
        <time>2020-08-11T10:27:30Z</time>
      </trkpt>
      <trkpt lat="45.16575" lon="5.97142">
        <ele>2417.8</ele>
        <time>2020-08-11T10:27:31Z</time>
      </trkpt>
      <trkpt lat="45.16575" lon="5.9714">
        <ele>2417.4</ele>
        <time>2020-08-11T10:27:32Z</time>
      </trkpt>
      <trkpt lat="45.16575" lon="5.97138">
        <ele>2416.8</ele>
        <time>2020-08-11T10:27:33Z</time>
      </trkpt>
      <trkpt lat="45.16575" lon="5.97137">
        <ele>2416.6</ele>
        <time>2020-08-11T10:27:34Z</time>
      </trkpt>
      <trkpt lat="45.16575" lon="5.97135">
        <ele>2416.4</ele>
        <time>2020-08-11T10:27:35Z</time>
      </trkpt>
      <trkpt lat="45.16575" lon="5.97133">
        <ele>2416</ele>
        <time>2020-08-11T10:27:36Z</time>
      </trkpt>
      <trkpt lat="45.16575" lon="5.97132">
        <ele>2415.2</ele>
        <time>2020-08-11T10:27:37Z</time>
      </trkpt>
      <trkpt lat="45.16575" lon="5.9713">
        <ele>2414.4</ele>
        <time>2020-08-11T10:27:38Z</time>
      </trkpt>
      <trkpt lat="45.16574" lon="5.97128">
        <ele>2414.4</ele>
        <time>2020-08-11T10:27:39Z</time>
      </trkpt>
      <trkpt lat="45.16574" lon="5.97126">
        <ele>2414.2</ele>
        <time>2020-08-11T10:27:40Z</time>
      </trkpt>
      <trkpt lat="45.16574" lon="5.97124">
        <ele>2412.6</ele>
        <time>2020-08-11T10:27:41Z</time>
      </trkpt>
      <trkpt lat="45.16574" lon="5.97122">
        <ele>2411.6</ele>
        <time>2020-08-11T10:27:42Z</time>
      </trkpt>
      <trkpt lat="45.16574" lon="5.9712">
        <ele>2410.8</ele>
        <time>2020-08-11T10:27:43Z</time>
      </trkpt>
      <trkpt lat="45.16574" lon="5.97118">
        <ele>2410.6</ele>
        <time>2020-08-11T10:27:44Z</time>
      </trkpt>
      <trkpt lat="45.16574" lon="5.97118">
        <ele>2410.4</ele>
        <time>2020-08-11T10:27:45Z</time>
      </trkpt>
      <trkpt lat="45.16575" lon="5.97117">
        <ele>2410.2</ele>
        <time>2020-08-11T10:27:46Z</time>
      </trkpt>
      <trkpt lat="45.16575" lon="5.97117">
        <ele>2410</ele>
        <time>2020-08-11T10:27:47Z</time>
      </trkpt>
      <trkpt lat="45.16576" lon="5.97117">
        <ele>2409.6</ele>
        <time>2020-08-11T10:27:48Z</time>
      </trkpt>
      <trkpt lat="45.16576" lon="5.97117">
        <ele>2409.2</ele>
        <time>2020-08-11T10:27:49Z</time>
      </trkpt>
      <trkpt lat="45.16577" lon="5.97116">
        <ele>2408.8</ele>
        <time>2020-08-11T10:27:50Z</time>
      </trkpt>
      <trkpt lat="45.16577" lon="5.97116">
        <ele>2408.6</ele>
        <time>2020-08-11T10:27:51Z</time>
      </trkpt>
      <trkpt lat="45.16578" lon="5.97116">
        <ele>2408</ele>
        <time>2020-08-11T10:27:52Z</time>
      </trkpt>
      <trkpt lat="45.16578" lon="5.97115">
        <ele>2407</ele>
        <time>2020-08-11T10:27:53Z</time>
      </trkpt>
      <trkpt lat="45.16579" lon="5.97115">
        <ele>2406.8</ele>
        <time>2020-08-11T10:27:54Z</time>
      </trkpt>
      <trkpt lat="45.16579" lon="5.97115">
        <ele>2406.4</ele>
        <time>2020-08-11T10:27:55Z</time>
      </trkpt>
      <trkpt lat="45.16579" lon="5.97115">
        <ele>2404.8</ele>
        <time>2020-08-11T10:27:56Z</time>
      </trkpt>
      <trkpt lat="45.16579" lon="5.97115">
        <ele>2404.8</ele>
        <time>2020-08-11T10:27:57Z</time>
      </trkpt>
      <trkpt lat="45.16578" lon="5.97112">
        <ele>2404.8</ele>
        <time>2020-08-11T10:27:58Z</time>
      </trkpt>
      <trkpt lat="45.16578" lon="5.97112">
        <ele>2404</ele>
        <time>2020-08-11T10:27:59Z</time>
      </trkpt>
      <trkpt lat="45.16578" lon="5.97112">
        <ele>2403.6</ele>
        <time>2020-08-11T10:28:00Z</time>
      </trkpt>
      <trkpt lat="45.16578" lon="5.9711">
        <ele>2403</ele>
        <time>2020-08-11T10:28:01Z</time>
      </trkpt>
      <trkpt lat="45.16578" lon="5.97108">
        <ele>2402.8</ele>
        <time>2020-08-11T10:28:02Z</time>
      </trkpt>
      <trkpt lat="45.16579" lon="5.97106">
        <ele>2402.2</ele>
        <time>2020-08-11T10:28:03Z</time>
      </trkpt>
      <trkpt lat="45.16579" lon="5.97104">
        <ele>2401.6</ele>
        <time>2020-08-11T10:28:04Z</time>
      </trkpt>
      <trkpt lat="45.1658" lon="5.97103">
        <ele>2401.2</ele>
        <time>2020-08-11T10:28:05Z</time>
      </trkpt>
      <trkpt lat="45.16581" lon="5.97102">
        <ele>2400.4</ele>
        <time>2020-08-11T10:28:06Z</time>
      </trkpt>
      <trkpt lat="45.16581" lon="5.97101">
        <ele>2400.2</ele>
        <time>2020-08-11T10:28:07Z</time>
      </trkpt>
      <trkpt lat="45.16582" lon="5.971">
        <ele>2400.2</ele>
        <time>2020-08-11T10:28:08Z</time>
      </trkpt>
      <trkpt lat="45.16583" lon="5.97099">
        <ele>2399.6</ele>
        <time>2020-08-11T10:28:09Z</time>
      </trkpt>
      <trkpt lat="45.16584" lon="5.97098">
        <ele>2399</ele>
        <time>2020-08-11T10:28:10Z</time>
      </trkpt>
      <trkpt lat="45.16584" lon="5.97098">
        <ele>2398.4</ele>
        <time>2020-08-11T10:28:11Z</time>
      </trkpt>
      <trkpt lat="45.16584" lon="5.97098">
        <ele>2398.2</ele>
        <time>2020-08-11T10:28:12Z</time>
      </trkpt>
      <trkpt lat="45.16584" lon="5.97094">
        <ele>2397.4</ele>
        <time>2020-08-11T10:28:13Z</time>
      </trkpt>
      <trkpt lat="45.16584" lon="5.97094">
        <ele>2397</ele>
        <time>2020-08-11T10:28:14Z</time>
      </trkpt>
      <trkpt lat="45.16583" lon="5.97094">
        <ele>2396.2</ele>
        <time>2020-08-11T10:28:15Z</time>
      </trkpt>
      <trkpt lat="45.16582" lon="5.97094">
        <ele>2395.4</ele>
        <time>2020-08-11T10:28:16Z</time>
      </trkpt>
      <trkpt lat="45.16582" lon="5.97093">
        <ele>2394.6</ele>
        <time>2020-08-11T10:28:17Z</time>
      </trkpt>
      <trkpt lat="45.16581" lon="5.97093">
        <ele>2393.8</ele>
        <time>2020-08-11T10:28:18Z</time>
      </trkpt>
      <trkpt lat="45.16581" lon="5.97093">
        <ele>2393.4</ele>
        <time>2020-08-11T10:28:19Z</time>
      </trkpt>
      <trkpt lat="45.1658" lon="5.97093">
        <ele>2393</ele>
        <time>2020-08-11T10:28:20Z</time>
      </trkpt>
      <trkpt lat="45.16579" lon="5.97093">
        <ele>2392.2</ele>
        <time>2020-08-11T10:28:21Z</time>
      </trkpt>
      <trkpt lat="45.16579" lon="5.97093">
        <ele>2391.6</ele>
        <time>2020-08-11T10:28:22Z</time>
      </trkpt>
      <trkpt lat="45.16578" lon="5.97093">
        <ele>2391.8</ele>
        <time>2020-08-11T10:28:23Z</time>
      </trkpt>
      <trkpt lat="45.16577" lon="5.97093">
        <ele>2391.4</ele>
        <time>2020-08-11T10:28:24Z</time>
      </trkpt>
      <trkpt lat="45.16577" lon="5.97092">
        <ele>2391.2</ele>
        <time>2020-08-11T10:28:25Z</time>
      </trkpt>
      <trkpt lat="45.16576" lon="5.97092">
        <ele>2390.6</ele>
        <time>2020-08-11T10:28:26Z</time>
      </trkpt>
      <trkpt lat="45.16576" lon="5.97092">
        <ele>2390.2</ele>
        <time>2020-08-11T10:28:27Z</time>
      </trkpt>
      <trkpt lat="45.16575" lon="5.97092">
        <ele>2389.4</ele>
        <time>2020-08-11T10:28:28Z</time>
      </trkpt>
      <trkpt lat="45.16574" lon="5.97092">
        <ele>2387.8</ele>
        <time>2020-08-11T10:28:29Z</time>
      </trkpt>
      <trkpt lat="45.16574" lon="5.97092">
        <ele>2388</ele>
        <time>2020-08-11T10:28:30Z</time>
      </trkpt>
      <trkpt lat="45.16573" lon="5.97092">
        <ele>2387.8</ele>
        <time>2020-08-11T10:28:31Z</time>
      </trkpt>
      <trkpt lat="45.16572" lon="5.97089">
        <ele>2387.8</ele>
        <time>2020-08-11T10:28:32Z</time>
      </trkpt>
      <trkpt lat="45.1657" lon="5.97087">
        <ele>2387</ele>
        <time>2020-08-11T10:28:33Z</time>
      </trkpt>
      <trkpt lat="45.16569" lon="5.97085">
        <ele>2386.2</ele>
        <time>2020-08-11T10:28:34Z</time>
      </trkpt>
      <trkpt lat="45.16567" lon="5.97083">
        <ele>2385.6</ele>
        <time>2020-08-11T10:28:35Z</time>
      </trkpt>
      <trkpt lat="45.16566" lon="5.9708">
        <ele>2385.6</ele>
        <time>2020-08-11T10:28:36Z</time>
      </trkpt>
      <trkpt lat="45.16565" lon="5.97079">
        <ele>2385.2</ele>
        <time>2020-08-11T10:28:37Z</time>
      </trkpt>
      <trkpt lat="45.16565" lon="5.97078">
        <ele>2385</ele>
        <time>2020-08-11T10:28:38Z</time>
      </trkpt>
      <trkpt lat="45.16565" lon="5.97078">
        <ele>2384.8</ele>
        <time>2020-08-11T10:28:39Z</time>
      </trkpt>
      <trkpt lat="45.16564" lon="5.97077">
        <ele>2384.6</ele>
        <time>2020-08-11T10:28:40Z</time>
      </trkpt>
      <trkpt lat="45.16564" lon="5.97076">
        <ele>2384.4</ele>
        <time>2020-08-11T10:28:41Z</time>
      </trkpt>
      <trkpt lat="45.16563" lon="5.97075">
        <ele>2383.2</ele>
        <time>2020-08-11T10:28:42Z</time>
      </trkpt>
      <trkpt lat="45.16563" lon="5.97074">
        <ele>2382.4</ele>
        <time>2020-08-11T10:28:43Z</time>
      </trkpt>
      <trkpt lat="45.16562" lon="5.97073">
        <ele>2382.2</ele>
        <time>2020-08-11T10:28:44Z</time>
      </trkpt>
      <trkpt lat="45.16562" lon="5.97072">
        <ele>2382.4</ele>
        <time>2020-08-11T10:28:45Z</time>
      </trkpt>
      <trkpt lat="45.16561" lon="5.97071">
        <ele>2382.4</ele>
        <time>2020-08-11T10:28:46Z</time>
      </trkpt>
      <trkpt lat="45.16561" lon="5.97071">
        <ele>2382.2</ele>
        <time>2020-08-11T10:28:47Z</time>
      </trkpt>
      <trkpt lat="45.1656" lon="5.9707">
        <ele>2381.2</ele>
        <time>2020-08-11T10:28:48Z</time>
      </trkpt>
      <trkpt lat="45.1656" lon="5.97069">
        <ele>2380.8</ele>
        <time>2020-08-11T10:28:49Z</time>
      </trkpt>
      <trkpt lat="45.1656" lon="5.97068">
        <ele>2380.6</ele>
        <time>2020-08-11T10:28:50Z</time>
      </trkpt>
      <trkpt lat="45.1656" lon="5.97067">
        <ele>2380</ele>
        <time>2020-08-11T10:28:51Z</time>
      </trkpt>
      <trkpt lat="45.1656" lon="5.97066">
        <ele>2379.8</ele>
        <time>2020-08-11T10:28:52Z</time>
      </trkpt>
      <trkpt lat="45.1656" lon="5.97065">
        <ele>2379.4</ele>
        <time>2020-08-11T10:28:53Z</time>
      </trkpt>
      <trkpt lat="45.1656" lon="5.97064">
        <ele>2378.8</ele>
        <time>2020-08-11T10:28:54Z</time>
      </trkpt>
      <trkpt lat="45.1656" lon="5.97064">
        <ele>2378.8</ele>
        <time>2020-08-11T10:28:55Z</time>
      </trkpt>
      <trkpt lat="45.1656" lon="5.97063">
        <ele>2378.4</ele>
        <time>2020-08-11T10:28:56Z</time>
      </trkpt>
      <trkpt lat="45.1656" lon="5.97062">
        <ele>2378</ele>
        <time>2020-08-11T10:28:57Z</time>
      </trkpt>
      <trkpt lat="45.1656" lon="5.97061">
        <ele>2377.8</ele>
        <time>2020-08-11T10:28:58Z</time>
      </trkpt>
      <trkpt lat="45.1656" lon="5.9706">
        <ele>2377.6</ele>
        <time>2020-08-11T10:28:59Z</time>
      </trkpt>
      <trkpt lat="45.1656" lon="5.97059">
        <ele>2377.6</ele>
        <time>2020-08-11T10:29:00Z</time>
      </trkpt>
      <trkpt lat="45.1656" lon="5.97058">
        <ele>2377.4</ele>
        <time>2020-08-11T10:29:01Z</time>
      </trkpt>
      <trkpt lat="45.1656" lon="5.97057">
        <ele>2376.8</ele>
        <time>2020-08-11T10:29:02Z</time>
      </trkpt>
      <trkpt lat="45.1656" lon="5.97057">
        <ele>2376.8</ele>
        <time>2020-08-11T10:29:03Z</time>
      </trkpt>
      <trkpt lat="45.1656" lon="5.97056">
        <ele>2376.4</ele>
        <time>2020-08-11T10:29:04Z</time>
      </trkpt>
      <trkpt lat="45.16561" lon="5.97054">
        <ele>2376</ele>
        <time>2020-08-11T10:29:05Z</time>
      </trkpt>
      <trkpt lat="45.16561" lon="5.97053">
        <ele>2376</ele>
        <time>2020-08-11T10:29:06Z</time>
      </trkpt>
      <trkpt lat="45.16561" lon="5.97051">
        <ele>2375.6</ele>
        <time>2020-08-11T10:29:07Z</time>
      </trkpt>
      <trkpt lat="45.16561" lon="5.97049">
        <ele>2375.4</ele>
        <time>2020-08-11T10:29:08Z</time>
      </trkpt>
      <trkpt lat="45.16561" lon="5.97048">
        <ele>2375.4</ele>
        <time>2020-08-11T10:29:09Z</time>
      </trkpt>
      <trkpt lat="45.16562" lon="5.97046">
        <ele>2375</ele>
        <time>2020-08-11T10:29:10Z</time>
      </trkpt>
      <trkpt lat="45.16562" lon="5.97045">
        <ele>2374.6</ele>
        <time>2020-08-11T10:29:11Z</time>
      </trkpt>
      <trkpt lat="45.16563" lon="5.97044">
        <ele>2374.2</ele>
        <time>2020-08-11T10:29:12Z</time>
      </trkpt>
      <trkpt lat="45.16563" lon="5.97043">
        <ele>2373.8</ele>
        <time>2020-08-11T10:29:13Z</time>
      </trkpt>
      <trkpt lat="45.16564" lon="5.97042">
        <ele>2373</ele>
        <time>2020-08-11T10:29:14Z</time>
      </trkpt>
      <trkpt lat="45.16565" lon="5.97041">
        <ele>2372.6</ele>
        <time>2020-08-11T10:29:15Z</time>
      </trkpt>
      <trkpt lat="45.16565" lon="5.9704">
        <ele>2372.6</ele>
        <time>2020-08-11T10:29:16Z</time>
      </trkpt>
      <trkpt lat="45.16566" lon="5.97039">
        <ele>2372.2</ele>
        <time>2020-08-11T10:29:17Z</time>
      </trkpt>
      <trkpt lat="45.16567" lon="5.97038">
        <ele>2372.2</ele>
        <time>2020-08-11T10:29:18Z</time>
      </trkpt>
      <trkpt lat="45.16567" lon="5.97037">
        <ele>2372</ele>
        <time>2020-08-11T10:29:19Z</time>
      </trkpt>
      <trkpt lat="45.16567" lon="5.97037">
        <ele>2371.6</ele>
        <time>2020-08-11T10:29:20Z</time>
      </trkpt>
      <trkpt lat="45.16569" lon="5.97033">
        <ele>2370.8</ele>
        <time>2020-08-11T10:29:21Z</time>
      </trkpt>
      <trkpt lat="45.16569" lon="5.97033">
        <ele>2370.6</ele>
        <time>2020-08-11T10:29:22Z</time>
      </trkpt>
      <trkpt lat="45.1657" lon="5.97031">
        <ele>2370</ele>
        <time>2020-08-11T10:29:23Z</time>
      </trkpt>
      <trkpt lat="45.1657" lon="5.9703">
        <ele>2370.2</ele>
        <time>2020-08-11T10:29:24Z</time>
      </trkpt>
      <trkpt lat="45.16571" lon="5.97028">
        <ele>2370</ele>
        <time>2020-08-11T10:29:25Z</time>
      </trkpt>
      <trkpt lat="45.16571" lon="5.97026">
        <ele>2369.4</ele>
        <time>2020-08-11T10:29:26Z</time>
      </trkpt>
      <trkpt lat="45.16572" lon="5.97025">
        <ele>2369.4</ele>
        <time>2020-08-11T10:29:27Z</time>
      </trkpt>
      <trkpt lat="45.16572" lon="5.97023">
        <ele>2369.4</ele>
        <time>2020-08-11T10:29:28Z</time>
      </trkpt>
      <trkpt lat="45.16572" lon="5.97022">
        <ele>2369.2</ele>
        <time>2020-08-11T10:29:29Z</time>
      </trkpt>
      <trkpt lat="45.16573" lon="5.9702">
        <ele>2369</ele>
        <time>2020-08-11T10:29:30Z</time>
      </trkpt>
      <trkpt lat="45.16573" lon="5.97018">
        <ele>2369.2</ele>
        <time>2020-08-11T10:29:31Z</time>
      </trkpt>
      <trkpt lat="45.16573" lon="5.97017">
        <ele>2369.2</ele>
        <time>2020-08-11T10:29:32Z</time>
      </trkpt>
      <trkpt lat="45.16573" lon="5.97015">
        <ele>2369.2</ele>
        <time>2020-08-11T10:29:33Z</time>
      </trkpt>
      <trkpt lat="45.16572" lon="5.97013">
        <ele>2369.4</ele>
        <time>2020-08-11T10:29:34Z</time>
      </trkpt>
      <trkpt lat="45.16572" lon="5.97012">
        <ele>2369.2</ele>
        <time>2020-08-11T10:29:35Z</time>
      </trkpt>
      <trkpt lat="45.16572" lon="5.9701">
        <ele>2369</ele>
        <time>2020-08-11T10:29:36Z</time>
      </trkpt>
      <trkpt lat="45.16572" lon="5.97009">
        <ele>2369</ele>
        <time>2020-08-11T10:29:37Z</time>
      </trkpt>
      <trkpt lat="45.16572" lon="5.97007">
        <ele>2368.8</ele>
        <time>2020-08-11T10:29:38Z</time>
      </trkpt>
      <trkpt lat="45.16572" lon="5.97005">
        <ele>2368.6</ele>
        <time>2020-08-11T10:29:39Z</time>
      </trkpt>
      <trkpt lat="45.16571" lon="5.97004">
        <ele>2368.4</ele>
        <time>2020-08-11T10:29:40Z</time>
      </trkpt>
      <trkpt lat="45.16571" lon="5.97002">
        <ele>2368.4</ele>
        <time>2020-08-11T10:29:41Z</time>
      </trkpt>
      <trkpt lat="45.16571" lon="5.97">
        <ele>2368.4</ele>
        <time>2020-08-11T10:29:42Z</time>
      </trkpt>
      <trkpt lat="45.1657" lon="5.96999">
        <ele>2368.4</ele>
        <time>2020-08-11T10:29:43Z</time>
      </trkpt>
      <trkpt lat="45.1657" lon="5.96997">
        <ele>2368.4</ele>
        <time>2020-08-11T10:29:44Z</time>
      </trkpt>
      <trkpt lat="45.1657" lon="5.96996">
        <ele>2368.8</ele>
        <time>2020-08-11T10:29:45Z</time>
      </trkpt>
      <trkpt lat="45.16569" lon="5.96994">
        <ele>2368.6</ele>
        <time>2020-08-11T10:29:46Z</time>
      </trkpt>
      <trkpt lat="45.16569" lon="5.96993">
        <ele>2368.6</ele>
        <time>2020-08-11T10:29:47Z</time>
      </trkpt>
      <trkpt lat="45.16569" lon="5.96991">
        <ele>2368.4</ele>
        <time>2020-08-11T10:29:48Z</time>
      </trkpt>
      <trkpt lat="45.16568" lon="5.96988">
        <ele>2368</ele>
        <time>2020-08-11T10:29:49Z</time>
      </trkpt>
      <trkpt lat="45.16568" lon="5.96988">
        <ele>2367.6</ele>
        <time>2020-08-11T10:29:50Z</time>
      </trkpt>
      <trkpt lat="45.16567" lon="5.96984">
        <ele>2367.6</ele>
        <time>2020-08-11T10:29:51Z</time>
      </trkpt>
      <trkpt lat="45.16567" lon="5.96984">
        <ele>2367.4</ele>
        <time>2020-08-11T10:29:52Z</time>
      </trkpt>
      <trkpt lat="45.16566" lon="5.96982">
        <ele>2367</ele>
        <time>2020-08-11T10:29:53Z</time>
      </trkpt>
      <trkpt lat="45.16566" lon="5.96981">
        <ele>2367.2</ele>
        <time>2020-08-11T10:29:54Z</time>
      </trkpt>
      <trkpt lat="45.16566" lon="5.96979">
        <ele>2367</ele>
        <time>2020-08-11T10:29:55Z</time>
      </trkpt>
      <trkpt lat="45.16565" lon="5.96977">
        <ele>2366.6</ele>
        <time>2020-08-11T10:29:56Z</time>
      </trkpt>
      <trkpt lat="45.16564" lon="5.96974">
        <ele>2366.6</ele>
        <time>2020-08-11T10:29:57Z</time>
      </trkpt>
      <trkpt lat="45.16564" lon="5.96974">
        <ele>2366.6</ele>
        <time>2020-08-11T10:29:58Z</time>
      </trkpt>
      <trkpt lat="45.16564" lon="5.96974">
        <ele>2367</ele>
        <time>2020-08-11T10:29:59Z</time>
      </trkpt>
      <trkpt lat="45.16562" lon="5.96966">
        <ele>2366.4</ele>
        <time>2020-08-11T10:30:01Z</time>
      </trkpt>
      <trkpt lat="45.16561" lon="5.96964">
        <ele>2366.2</ele>
        <time>2020-08-11T10:30:02Z</time>
      </trkpt>
      <trkpt lat="45.16561" lon="5.96964">
        <ele>2366</ele>
        <time>2020-08-11T10:30:03Z</time>
      </trkpt>
      <trkpt lat="45.16561" lon="5.96964">
        <ele>2366</ele>
        <time>2020-08-11T10:30:04Z</time>
      </trkpt>
      <trkpt lat="45.16561" lon="5.96961">
        <ele>2365.6</ele>
        <time>2020-08-11T10:30:05Z</time>
      </trkpt>
      <trkpt lat="45.16561" lon="5.96961">
        <ele>2365.4</ele>
        <time>2020-08-11T10:30:06Z</time>
      </trkpt>
      <trkpt lat="45.16561" lon="5.96958">
        <ele>2365.4</ele>
        <time>2020-08-11T10:30:07Z</time>
      </trkpt>
      <trkpt lat="45.16561" lon="5.96958">
        <ele>2365.4</ele>
        <time>2020-08-11T10:30:08Z</time>
      </trkpt>
      <trkpt lat="45.1656" lon="5.96953">
        <ele>2365.6</ele>
        <time>2020-08-11T10:30:09Z</time>
      </trkpt>
      <trkpt lat="45.1656" lon="5.96953">
        <ele>2365.2</ele>
        <time>2020-08-11T10:30:10Z</time>
      </trkpt>
      <trkpt lat="45.1656" lon="5.96953">
        <ele>2364.8</ele>
        <time>2020-08-11T10:30:11Z</time>
      </trkpt>
      <trkpt lat="45.1656" lon="5.96951">
        <ele>2364.6</ele>
        <time>2020-08-11T10:30:12Z</time>
      </trkpt>
      <trkpt lat="45.1656" lon="5.96949">
        <ele>2364.8</ele>
        <time>2020-08-11T10:30:13Z</time>
      </trkpt>
      <trkpt lat="45.1656" lon="5.96947">
        <ele>2364.8</ele>
        <time>2020-08-11T10:30:14Z</time>
      </trkpt>
      <trkpt lat="45.1656" lon="5.96947">
        <ele>2365</ele>
        <time>2020-08-11T10:30:15Z</time>
      </trkpt>
      <trkpt lat="45.1656" lon="5.96943">
        <ele>2365.2</ele>
        <time>2020-08-11T10:30:16Z</time>
      </trkpt>
      <trkpt lat="45.1656" lon="5.96943">
        <ele>2365</ele>
        <time>2020-08-11T10:30:17Z</time>
      </trkpt>
      <trkpt lat="45.16561" lon="5.9694">
        <ele>2365</ele>
        <time>2020-08-11T10:30:18Z</time>
      </trkpt>
      <trkpt lat="45.16561" lon="5.9694">
        <ele>2365</ele>
        <time>2020-08-11T10:30:19Z</time>
      </trkpt>
      <trkpt lat="45.16559" lon="5.96936">
        <ele>2364.8</ele>
        <time>2020-08-11T10:30:20Z</time>
      </trkpt>
      <trkpt lat="45.16559" lon="5.96936">
        <ele>2365</ele>
        <time>2020-08-11T10:30:21Z</time>
      </trkpt>
      <trkpt lat="45.16559" lon="5.96932">
        <ele>2365</ele>
        <time>2020-08-11T10:30:22Z</time>
      </trkpt>
      <trkpt lat="45.16559" lon="5.96932">
        <ele>2365</ele>
        <time>2020-08-11T10:30:23Z</time>
      </trkpt>
      <trkpt lat="45.16559" lon="5.96929">
        <ele>2365</ele>
        <time>2020-08-11T10:30:24Z</time>
      </trkpt>
      <trkpt lat="45.16559" lon="5.96927">
        <ele>2365</ele>
        <time>2020-08-11T10:30:25Z</time>
      </trkpt>
      <trkpt lat="45.16559" lon="5.96924">
        <ele>2365</ele>
        <time>2020-08-11T10:30:26Z</time>
      </trkpt>
      <trkpt lat="45.1656" lon="5.96922">
        <ele>2365.4</ele>
        <time>2020-08-11T10:30:27Z</time>
      </trkpt>
      <trkpt lat="45.1656" lon="5.96922">
        <ele>2365.2</ele>
        <time>2020-08-11T10:30:28Z</time>
      </trkpt>
      <trkpt lat="45.16561" lon="5.96917">
        <ele>2365.2</ele>
        <time>2020-08-11T10:30:29Z</time>
      </trkpt>
      <trkpt lat="45.16561" lon="5.96917">
        <ele>2364.8</ele>
        <time>2020-08-11T10:30:30Z</time>
      </trkpt>
      <trkpt lat="45.16561" lon="5.96917">
        <ele>2364.4</ele>
        <time>2020-08-11T10:30:31Z</time>
      </trkpt>
      <trkpt lat="45.16563" lon="5.96914">
        <ele>2364</ele>
        <time>2020-08-11T10:30:32Z</time>
      </trkpt>
      <trkpt lat="45.16563" lon="5.96914">
        <ele>2363.8</ele>
        <time>2020-08-11T10:30:33Z</time>
      </trkpt>
      <trkpt lat="45.16562" lon="5.96912">
        <ele>2363.2</ele>
        <time>2020-08-11T10:30:34Z</time>
      </trkpt>
      <trkpt lat="45.16562" lon="5.96911">
        <ele>2362.4</ele>
        <time>2020-08-11T10:30:35Z</time>
      </trkpt>
      <trkpt lat="45.16562" lon="5.9691">
        <ele>2362.4</ele>
        <time>2020-08-11T10:30:36Z</time>
      </trkpt>
      <trkpt lat="45.16562" lon="5.96909">
        <ele>2362</ele>
        <time>2020-08-11T10:30:37Z</time>
      </trkpt>
      <trkpt lat="45.16562" lon="5.96908">
        <ele>2362.2</ele>
        <time>2020-08-11T10:30:38Z</time>
      </trkpt>
      <trkpt lat="45.16562" lon="5.96907">
        <ele>2361.8</ele>
        <time>2020-08-11T10:30:39Z</time>
      </trkpt>
      <trkpt lat="45.16562" lon="5.96906">
        <ele>2361.6</ele>
        <time>2020-08-11T10:30:40Z</time>
      </trkpt>
      <trkpt lat="45.16562" lon="5.96905">
        <ele>2361.2</ele>
        <time>2020-08-11T10:30:41Z</time>
      </trkpt>
      <trkpt lat="45.16562" lon="5.96905">
        <ele>2361.2</ele>
        <time>2020-08-11T10:30:42Z</time>
      </trkpt>
      <trkpt lat="45.16562" lon="5.96905">
        <ele>2360.4</ele>
        <time>2020-08-11T10:30:43Z</time>
      </trkpt>
      <trkpt lat="45.1656" lon="5.96902">
        <ele>2360.6</ele>
        <time>2020-08-11T10:30:44Z</time>
      </trkpt>
      <trkpt lat="45.1656" lon="5.96897">
        <ele>2360.2</ele>
        <time>2020-08-11T10:30:45Z</time>
      </trkpt>
      <trkpt lat="45.1656" lon="5.96897">
        <ele>2359.4</ele>
        <time>2020-08-11T10:30:46Z</time>
      </trkpt>
      <trkpt lat="45.1656" lon="5.96892">
        <ele>2359</ele>
        <time>2020-08-11T10:30:47Z</time>
      </trkpt>
      <trkpt lat="45.1656" lon="5.96892">
        <ele>2359</ele>
        <time>2020-08-11T10:30:48Z</time>
      </trkpt>
      <trkpt lat="45.16561" lon="5.96889">
        <ele>2359</ele>
        <time>2020-08-11T10:30:49Z</time>
      </trkpt>
      <trkpt lat="45.16562" lon="5.96887">
        <ele>2358.8</ele>
        <time>2020-08-11T10:30:50Z</time>
      </trkpt>
      <trkpt lat="45.16563" lon="5.96885">
        <ele>2358.2</ele>
        <time>2020-08-11T10:30:51Z</time>
      </trkpt>
      <trkpt lat="45.16563" lon="5.96883">
        <ele>2357.6</ele>
        <time>2020-08-11T10:30:52Z</time>
      </trkpt>
      <trkpt lat="45.16563" lon="5.96883">
        <ele>2357.2</ele>
        <time>2020-08-11T10:30:53Z</time>
      </trkpt>
      <trkpt lat="45.16564" lon="5.9688">
        <ele>2356.4</ele>
        <time>2020-08-11T10:30:54Z</time>
      </trkpt>
      <trkpt lat="45.16566" lon="5.96875">
        <ele>2356</ele>
        <time>2020-08-11T10:30:55Z</time>
      </trkpt>
      <trkpt lat="45.16567" lon="5.96871">
        <ele>2355.4</ele>
        <time>2020-08-11T10:30:56Z</time>
      </trkpt>
      <trkpt lat="45.16568" lon="5.96868">
        <ele>2355.4</ele>
        <time>2020-08-11T10:30:57Z</time>
      </trkpt>
      <trkpt lat="45.16568" lon="5.96866">
        <ele>2355</ele>
        <time>2020-08-11T10:30:58Z</time>
      </trkpt>
      <trkpt lat="45.16568" lon="5.96866">
        <ele>2354.8</ele>
        <time>2020-08-11T10:30:59Z</time>
      </trkpt>
      <trkpt lat="45.16569" lon="5.96862">
        <ele>2354.2</ele>
        <time>2020-08-11T10:31:00Z</time>
      </trkpt>
      <trkpt lat="45.16569" lon="5.96862">
        <ele>2353.8</ele>
        <time>2020-08-11T10:31:01Z</time>
      </trkpt>
      <trkpt lat="45.16569" lon="5.96862">
        <ele>2353.6</ele>
        <time>2020-08-11T10:31:02Z</time>
      </trkpt>
      <trkpt lat="45.16571" lon="5.96858">
        <ele>2352.8</ele>
        <time>2020-08-11T10:31:03Z</time>
      </trkpt>
      <trkpt lat="45.16571" lon="5.96855">
        <ele>2352.4</ele>
        <time>2020-08-11T10:31:04Z</time>
      </trkpt>
      <trkpt lat="45.16571" lon="5.96853">
        <ele>2351.8</ele>
        <time>2020-08-11T10:31:05Z</time>
      </trkpt>
      <trkpt lat="45.16573" lon="5.9685">
        <ele>2351.6</ele>
        <time>2020-08-11T10:31:06Z</time>
      </trkpt>
      <trkpt lat="45.16573" lon="5.9685">
        <ele>2350.4</ele>
        <time>2020-08-11T10:31:07Z</time>
      </trkpt>
      <trkpt lat="45.16574" lon="5.96847">
        <ele>2349.6</ele>
        <time>2020-08-11T10:31:08Z</time>
      </trkpt>
      <trkpt lat="45.16575" lon="5.96844">
        <ele>2349.4</ele>
        <time>2020-08-11T10:31:09Z</time>
      </trkpt>
      <trkpt lat="45.16575" lon="5.96844">
        <ele>2349.2</ele>
        <time>2020-08-11T10:31:10Z</time>
      </trkpt>
      <trkpt lat="45.16575" lon="5.96844">
        <ele>2349</ele>
        <time>2020-08-11T10:31:11Z</time>
      </trkpt>
      <trkpt lat="45.16575" lon="5.96839">
        <ele>2349.2</ele>
        <time>2020-08-11T10:31:12Z</time>
      </trkpt>
      <trkpt lat="45.16575" lon="5.96839">
        <ele>2349</ele>
        <time>2020-08-11T10:31:13Z</time>
      </trkpt>
      <trkpt lat="45.16575" lon="5.96837">
        <ele>2349</ele>
        <time>2020-08-11T10:31:14Z</time>
      </trkpt>
      <trkpt lat="45.16574" lon="5.96835">
        <ele>2349</ele>
        <time>2020-08-11T10:31:15Z</time>
      </trkpt>
      <trkpt lat="45.16574" lon="5.96832">
        <ele>2349</ele>
        <time>2020-08-11T10:31:16Z</time>
      </trkpt>
      <trkpt lat="45.16573" lon="5.9683">
        <ele>2349.2</ele>
        <time>2020-08-11T10:31:17Z</time>
      </trkpt>
      <trkpt lat="45.16573" lon="5.96827">
        <ele>2349.2</ele>
        <time>2020-08-11T10:31:18Z</time>
      </trkpt>
      <trkpt lat="45.16573" lon="5.96827">
        <ele>2349.4</ele>
        <time>2020-08-11T10:31:19Z</time>
      </trkpt>
      <trkpt lat="45.16573" lon="5.96827">
        <ele>2349.4</ele>
        <time>2020-08-11T10:31:20Z</time>
      </trkpt>
      <trkpt lat="45.16572" lon="5.96824">
        <ele>2349.4</ele>
        <time>2020-08-11T10:31:21Z</time>
      </trkpt>
      <trkpt lat="45.16571" lon="5.96822">
        <ele>2349.6</ele>
        <time>2020-08-11T10:31:22Z</time>
      </trkpt>
      <trkpt lat="45.16571" lon="5.9682">
        <ele>2349.6</ele>
        <time>2020-08-11T10:31:23Z</time>
      </trkpt>
      <trkpt lat="45.16571" lon="5.96818">
        <ele>2349.4</ele>
        <time>2020-08-11T10:31:24Z</time>
      </trkpt>
      <trkpt lat="45.16571" lon="5.96818">
        <ele>2349.4</ele>
        <time>2020-08-11T10:31:25Z</time>
      </trkpt>
      <trkpt lat="45.16571" lon="5.96815">
        <ele>2349.2</ele>
        <time>2020-08-11T10:31:26Z</time>
      </trkpt>
      <trkpt lat="45.1657" lon="5.96812">
        <ele>2349.6</ele>
        <time>2020-08-11T10:31:27Z</time>
      </trkpt>
      <trkpt lat="45.1657" lon="5.9681">
        <ele>2349.8</ele>
        <time>2020-08-11T10:31:28Z</time>
      </trkpt>
      <trkpt lat="45.1657" lon="5.96807">
        <ele>2349.6</ele>
        <time>2020-08-11T10:31:29Z</time>
      </trkpt>
      <trkpt lat="45.1657" lon="5.96805">
        <ele>2349.6</ele>
        <time>2020-08-11T10:31:30Z</time>
      </trkpt>
      <trkpt lat="45.16571" lon="5.96803">
        <ele>2349.2</ele>
        <time>2020-08-11T10:31:31Z</time>
      </trkpt>
      <trkpt lat="45.16571" lon="5.96801">
        <ele>2348.6</ele>
        <time>2020-08-11T10:31:32Z</time>
      </trkpt>
      <trkpt lat="45.16572" lon="5.96799">
        <ele>2348</ele>
        <time>2020-08-11T10:31:33Z</time>
      </trkpt>
      <trkpt lat="45.16572" lon="5.96799">
        <ele>2347.2</ele>
        <time>2020-08-11T10:31:34Z</time>
      </trkpt>
      <trkpt lat="45.16572" lon="5.96795">
        <ele>2346.6</ele>
        <time>2020-08-11T10:31:35Z</time>
      </trkpt>
      <trkpt lat="45.16572" lon="5.96791">
        <ele>2346</ele>
        <time>2020-08-11T10:31:36Z</time>
      </trkpt>
      <trkpt lat="45.16571" lon="5.96787">
        <ele>2345.8</ele>
        <time>2020-08-11T10:31:37Z</time>
      </trkpt>
      <trkpt lat="45.16571" lon="5.96785">
        <ele>2345.6</ele>
        <time>2020-08-11T10:31:38Z</time>
      </trkpt>
      <trkpt lat="45.16571" lon="5.96783">
        <ele>2345.4</ele>
        <time>2020-08-11T10:31:39Z</time>
      </trkpt>
      <trkpt lat="45.16571" lon="5.96781">
        <ele>2344.6</ele>
        <time>2020-08-11T10:31:40Z</time>
      </trkpt>
      <trkpt lat="45.16572" lon="5.96777">
        <ele>2344.6</ele>
        <time>2020-08-11T10:31:41Z</time>
      </trkpt>
      <trkpt lat="45.16572" lon="5.96773">
        <ele>2344</ele>
        <time>2020-08-11T10:31:42Z</time>
      </trkpt>
      <trkpt lat="45.16572" lon="5.96772">
        <ele>2343.6</ele>
        <time>2020-08-11T10:31:43Z</time>
      </trkpt>
      <trkpt lat="45.16572" lon="5.96771">
        <ele>2343</ele>
        <time>2020-08-11T10:31:44Z</time>
      </trkpt>
      <trkpt lat="45.16572" lon="5.96771">
        <ele>2342.6</ele>
        <time>2020-08-11T10:31:45Z</time>
      </trkpt>
      <trkpt lat="45.16571" lon="5.96768">
        <ele>2342.8</ele>
        <time>2020-08-11T10:31:46Z</time>
      </trkpt>
      <trkpt lat="45.16571" lon="5.96765">
        <ele>2342.2</ele>
        <time>2020-08-11T10:31:47Z</time>
      </trkpt>
      <trkpt lat="45.16571" lon="5.96762">
        <ele>2342</ele>
        <time>2020-08-11T10:31:48Z</time>
      </trkpt>
      <trkpt lat="45.1657" lon="5.96759">
        <ele>2341.6</ele>
        <time>2020-08-11T10:31:49Z</time>
      </trkpt>
      <trkpt lat="45.16569" lon="5.96756">
        <ele>2340.6</ele>
        <time>2020-08-11T10:31:50Z</time>
      </trkpt>
      <trkpt lat="45.16568" lon="5.96752">
        <ele>2341</ele>
        <time>2020-08-11T10:31:51Z</time>
      </trkpt>
      <trkpt lat="45.16567" lon="5.96749">
        <ele>2340.8</ele>
        <time>2020-08-11T10:31:52Z</time>
      </trkpt>
      <trkpt lat="45.16566" lon="5.96745">
        <ele>2341</ele>
        <time>2020-08-11T10:31:53Z</time>
      </trkpt>
      <trkpt lat="45.16565" lon="5.96743">
        <ele>2340.2</ele>
        <time>2020-08-11T10:31:54Z</time>
      </trkpt>
      <trkpt lat="45.16565" lon="5.96743">
        <ele>2339.8</ele>
        <time>2020-08-11T10:31:55Z</time>
      </trkpt>
      <trkpt lat="45.16564" lon="5.96739">
        <ele>2339.2</ele>
        <time>2020-08-11T10:31:56Z</time>
      </trkpt>
      <trkpt lat="45.16563" lon="5.96737">
        <ele>2338.6</ele>
        <time>2020-08-11T10:31:57Z</time>
      </trkpt>
      <trkpt lat="45.16562" lon="5.96734">
        <ele>2339</ele>
        <time>2020-08-11T10:31:58Z</time>
      </trkpt>
      <trkpt lat="45.16561" lon="5.96732">
        <ele>2338.4</ele>
        <time>2020-08-11T10:31:59Z</time>
      </trkpt>
      <trkpt lat="45.1656" lon="5.9673">
        <ele>2338.8</ele>
        <time>2020-08-11T10:32:00Z</time>
      </trkpt>
      <trkpt lat="45.16559" lon="5.96728">
        <ele>2338.6</ele>
        <time>2020-08-11T10:32:01Z</time>
      </trkpt>
      <trkpt lat="45.16558" lon="5.96726">
        <ele>2338.6</ele>
        <time>2020-08-11T10:32:02Z</time>
      </trkpt>
      <trkpt lat="45.16558" lon="5.96726">
        <ele>2338.4</ele>
        <time>2020-08-11T10:32:03Z</time>
      </trkpt>
      <trkpt lat="45.16558" lon="5.96726">
        <ele>2337.6</ele>
        <time>2020-08-11T10:32:04Z</time>
      </trkpt>
      <trkpt lat="45.16556" lon="5.96723">
        <ele>2337.6</ele>
        <time>2020-08-11T10:32:05Z</time>
      </trkpt>
      <trkpt lat="45.16554" lon="5.96721">
        <ele>2337.4</ele>
        <time>2020-08-11T10:32:06Z</time>
      </trkpt>
      <trkpt lat="45.16552" lon="5.96719">
        <ele>2337.4</ele>
        <time>2020-08-11T10:32:07Z</time>
      </trkpt>
      <trkpt lat="45.16551" lon="5.96716">
        <ele>2336.6</ele>
        <time>2020-08-11T10:32:08Z</time>
      </trkpt>
      <trkpt lat="45.1655" lon="5.96712">
        <ele>2335.6</ele>
        <time>2020-08-11T10:32:09Z</time>
      </trkpt>
      <trkpt lat="45.1655" lon="5.96712">
        <ele>2335.8</ele>
        <time>2020-08-11T10:32:10Z</time>
      </trkpt>
      <trkpt lat="45.16549" lon="5.9671">
        <ele>2335</ele>
        <time>2020-08-11T10:32:11Z</time>
      </trkpt>
      <trkpt lat="45.16546" lon="5.96704">
        <ele>2335.4</ele>
        <time>2020-08-11T10:32:12Z</time>
      </trkpt>
      <trkpt lat="45.16544" lon="5.96699">
        <ele>2334.8</ele>
        <time>2020-08-11T10:32:13Z</time>
      </trkpt>
      <trkpt lat="45.16543" lon="5.96697">
        <ele>2334.8</ele>
        <time>2020-08-11T10:32:14Z</time>
      </trkpt>
      <trkpt lat="45.16541" lon="5.96696">
        <ele>2334</ele>
        <time>2020-08-11T10:32:15Z</time>
      </trkpt>
      <trkpt lat="45.16541" lon="5.96696">
        <ele>2333.4</ele>
        <time>2020-08-11T10:32:16Z</time>
      </trkpt>
      <trkpt lat="45.1654" lon="5.96693">
        <ele>2333.8</ele>
        <time>2020-08-11T10:32:17Z</time>
      </trkpt>
      <trkpt lat="45.16539" lon="5.96688">
        <ele>2333.4</ele>
        <time>2020-08-11T10:32:18Z</time>
      </trkpt>
      <trkpt lat="45.16538" lon="5.96682">
        <ele>2333.2</ele>
        <time>2020-08-11T10:32:19Z</time>
      </trkpt>
      <trkpt lat="45.16538" lon="5.96681">
        <ele>2332.6</ele>
        <time>2020-08-11T10:32:20Z</time>
      </trkpt>
      <trkpt lat="45.16538" lon="5.9668">
        <ele>2331.4</ele>
        <time>2020-08-11T10:32:21Z</time>
      </trkpt>
      <trkpt lat="45.16538" lon="5.96677">
        <ele>2331.6</ele>
        <time>2020-08-11T10:32:22Z</time>
      </trkpt>
      <trkpt lat="45.16538" lon="5.96677">
        <ele>2331.4</ele>
        <time>2020-08-11T10:32:23Z</time>
      </trkpt>
      <trkpt lat="45.16538" lon="5.96672">
        <ele>2331.4</ele>
        <time>2020-08-11T10:32:24Z</time>
      </trkpt>
      <trkpt lat="45.16537" lon="5.96667">
        <ele>2331</ele>
        <time>2020-08-11T10:32:25Z</time>
      </trkpt>
      <trkpt lat="45.16536" lon="5.96664">
        <ele>2330.6</ele>
        <time>2020-08-11T10:32:26Z</time>
      </trkpt>
      <trkpt lat="45.16535" lon="5.96661">
        <ele>2329.8</ele>
        <time>2020-08-11T10:32:27Z</time>
      </trkpt>
      <trkpt lat="45.16534" lon="5.96658">
        <ele>2329.2</ele>
        <time>2020-08-11T10:32:28Z</time>
      </trkpt>
      <trkpt lat="45.16533" lon="5.96656">
        <ele>2329.4</ele>
        <time>2020-08-11T10:32:29Z</time>
      </trkpt>
      <trkpt lat="45.16532" lon="5.96654">
        <ele>2329</ele>
        <time>2020-08-11T10:32:30Z</time>
      </trkpt>
      <trkpt lat="45.16532" lon="5.96652">
        <ele>2328.4</ele>
        <time>2020-08-11T10:32:31Z</time>
      </trkpt>
      <trkpt lat="45.16531" lon="5.96651">
        <ele>2327.8</ele>
        <time>2020-08-11T10:32:32Z</time>
      </trkpt>
      <trkpt lat="45.16529" lon="5.96648">
        <ele>2327.4</ele>
        <time>2020-08-11T10:32:33Z</time>
      </trkpt>
      <trkpt lat="45.16527" lon="5.96645">
        <ele>2327.6</ele>
        <time>2020-08-11T10:32:34Z</time>
      </trkpt>
      <trkpt lat="45.16525" lon="5.96643">
        <ele>2327</ele>
        <time>2020-08-11T10:32:35Z</time>
      </trkpt>
      <trkpt lat="45.16524" lon="5.96642">
        <ele>2326.4</ele>
        <time>2020-08-11T10:32:36Z</time>
      </trkpt>
      <trkpt lat="45.16524" lon="5.96642">
        <ele>2326.2</ele>
        <time>2020-08-11T10:32:37Z</time>
      </trkpt>
      <trkpt lat="45.16522" lon="5.96638">
        <ele>2325.2</ele>
        <time>2020-08-11T10:32:38Z</time>
      </trkpt>
      <trkpt lat="45.16523" lon="5.96637">
        <ele>2325</ele>
        <time>2020-08-11T10:32:39Z</time>
      </trkpt>
      <trkpt lat="45.16524" lon="5.96635">
        <ele>2324.6</ele>
        <time>2020-08-11T10:32:40Z</time>
      </trkpt>
      <trkpt lat="45.16525" lon="5.96633">
        <ele>2324.4</ele>
        <time>2020-08-11T10:32:41Z</time>
      </trkpt>
      <trkpt lat="45.16525" lon="5.96633">
        <ele>2324</ele>
        <time>2020-08-11T10:32:42Z</time>
      </trkpt>
      <trkpt lat="45.16525" lon="5.96633">
        <ele>2323.6</ele>
        <time>2020-08-11T10:32:43Z</time>
      </trkpt>
      <trkpt lat="45.16526" lon="5.9663">
        <ele>2323.6</ele>
        <time>2020-08-11T10:32:44Z</time>
      </trkpt>
      <trkpt lat="45.16526" lon="5.9663">
        <ele>2323.4</ele>
        <time>2020-08-11T10:32:45Z</time>
      </trkpt>
      <trkpt lat="45.16526" lon="5.9663">
        <ele>2323</ele>
        <time>2020-08-11T10:32:46Z</time>
      </trkpt>
      <trkpt lat="45.16528" lon="5.96625">
        <ele>2322.6</ele>
        <time>2020-08-11T10:32:47Z</time>
      </trkpt>
      <trkpt lat="45.16528" lon="5.96625">
        <ele>2322.6</ele>
        <time>2020-08-11T10:32:48Z</time>
      </trkpt>
      <trkpt lat="45.16527" lon="5.96623">
        <ele>2322.6</ele>
        <time>2020-08-11T10:32:49Z</time>
      </trkpt>
      <trkpt lat="45.16525" lon="5.96619">
        <ele>2322.4</ele>
        <time>2020-08-11T10:32:50Z</time>
      </trkpt>
      <trkpt lat="45.16525" lon="5.96619">
        <ele>2322.8</ele>
        <time>2020-08-11T10:32:51Z</time>
      </trkpt>
      <trkpt lat="45.16525" lon="5.96619">
        <ele>2323</ele>
        <time>2020-08-11T10:32:52Z</time>
      </trkpt>
      <trkpt lat="45.16524" lon="5.96617">
        <ele>2322.8</ele>
        <time>2020-08-11T10:32:53Z</time>
      </trkpt>
      <trkpt lat="45.16523" lon="5.96616">
        <ele>2323.2</ele>
        <time>2020-08-11T10:32:54Z</time>
      </trkpt>
      <trkpt lat="45.16522" lon="5.96614">
        <ele>2323.8</ele>
        <time>2020-08-11T10:32:55Z</time>
      </trkpt>
      <trkpt lat="45.16521" lon="5.96612">
        <ele>2323.4</ele>
        <time>2020-08-11T10:32:56Z</time>
      </trkpt>
      <trkpt lat="45.16521" lon="5.9661">
        <ele>2322.4</ele>
        <time>2020-08-11T10:32:57Z</time>
      </trkpt>
      <trkpt lat="45.1652" lon="5.96609">
        <ele>2322.2</ele>
        <time>2020-08-11T10:32:58Z</time>
      </trkpt>
      <trkpt lat="45.16519" lon="5.96606">
        <ele>2322.4</ele>
        <time>2020-08-11T10:32:59Z</time>
      </trkpt>
      <trkpt lat="45.16518" lon="5.96604">
        <ele>2322</ele>
        <time>2020-08-11T10:33:00Z</time>
      </trkpt>
      <trkpt lat="45.16517" lon="5.96602">
        <ele>2321.6</ele>
        <time>2020-08-11T10:33:01Z</time>
      </trkpt>
      <trkpt lat="45.16516" lon="5.966">
        <ele>2321</ele>
        <time>2020-08-11T10:33:02Z</time>
      </trkpt>
      <trkpt lat="45.16515" lon="5.96598">
        <ele>2320.6</ele>
        <time>2020-08-11T10:33:03Z</time>
      </trkpt>
      <trkpt lat="45.16513" lon="5.96595">
        <ele>2320.6</ele>
        <time>2020-08-11T10:33:04Z</time>
      </trkpt>
      <trkpt lat="45.16511" lon="5.96592">
        <ele>2320</ele>
        <time>2020-08-11T10:33:05Z</time>
      </trkpt>
      <trkpt lat="45.1651" lon="5.96589">
        <ele>2319</ele>
        <time>2020-08-11T10:33:06Z</time>
      </trkpt>
      <trkpt lat="45.16508" lon="5.96585">
        <ele>2319.4</ele>
        <time>2020-08-11T10:33:07Z</time>
      </trkpt>
      <trkpt lat="45.16506" lon="5.96582">
        <ele>2319.4</ele>
        <time>2020-08-11T10:33:08Z</time>
      </trkpt>
      <trkpt lat="45.16506" lon="5.96582">
        <ele>2319.4</ele>
        <time>2020-08-11T10:33:09Z</time>
      </trkpt>
      <trkpt lat="45.16506" lon="5.96582">
        <ele>2318.8</ele>
        <time>2020-08-11T10:33:10Z</time>
      </trkpt>
      <trkpt lat="45.16505" lon="5.9658">
        <ele>2318.6</ele>
        <time>2020-08-11T10:33:11Z</time>
      </trkpt>
      <trkpt lat="45.16503" lon="5.96578">
        <ele>2318.4</ele>
        <time>2020-08-11T10:33:12Z</time>
      </trkpt>
      <trkpt lat="45.16502" lon="5.96576">
        <ele>2318.2</ele>
        <time>2020-08-11T10:33:13Z</time>
      </trkpt>
      <trkpt lat="45.16501" lon="5.96574">
        <ele>2318.6</ele>
        <time>2020-08-11T10:33:14Z</time>
      </trkpt>
      <trkpt lat="45.165" lon="5.96572">
        <ele>2318.6</ele>
        <time>2020-08-11T10:33:15Z</time>
      </trkpt>
      <trkpt lat="45.16498" lon="5.9657">
        <ele>2319</ele>
        <time>2020-08-11T10:33:16Z</time>
      </trkpt>
      <trkpt lat="45.16497" lon="5.96568">
        <ele>2318.6</ele>
        <time>2020-08-11T10:33:17Z</time>
      </trkpt>
      <trkpt lat="45.16496" lon="5.96566">
        <ele>2318.6</ele>
        <time>2020-08-11T10:33:18Z</time>
      </trkpt>
      <trkpt lat="45.16494" lon="5.96564">
        <ele>2318.2</ele>
        <time>2020-08-11T10:33:19Z</time>
      </trkpt>
      <trkpt lat="45.16493" lon="5.96562">
        <ele>2317.8</ele>
        <time>2020-08-11T10:33:20Z</time>
      </trkpt>
      <trkpt lat="45.16492" lon="5.9656">
        <ele>2318.2</ele>
        <time>2020-08-11T10:33:21Z</time>
      </trkpt>
      <trkpt lat="45.1649" lon="5.96558">
        <ele>2318.2</ele>
        <time>2020-08-11T10:33:22Z</time>
      </trkpt>
      <trkpt lat="45.16489" lon="5.96556">
        <ele>2317.4</ele>
        <time>2020-08-11T10:33:23Z</time>
      </trkpt>
      <trkpt lat="45.16488" lon="5.96553">
        <ele>2317.8</ele>
        <time>2020-08-11T10:33:24Z</time>
      </trkpt>
      <trkpt lat="45.16486" lon="5.96551">
        <ele>2317</ele>
        <time>2020-08-11T10:33:25Z</time>
      </trkpt>
      <trkpt lat="45.16485" lon="5.96547">
        <ele>2316.8</ele>
        <time>2020-08-11T10:33:26Z</time>
      </trkpt>
      <trkpt lat="45.16484" lon="5.96543">
        <ele>2316.4</ele>
        <time>2020-08-11T10:33:27Z</time>
      </trkpt>
      <trkpt lat="45.16483" lon="5.96538">
        <ele>2315.8</ele>
        <time>2020-08-11T10:33:28Z</time>
      </trkpt>
      <trkpt lat="45.16481" lon="5.96534">
        <ele>2316.2</ele>
        <time>2020-08-11T10:33:29Z</time>
      </trkpt>
      <trkpt lat="45.16481" lon="5.96534">
        <ele>2315.6</ele>
        <time>2020-08-11T10:33:30Z</time>
      </trkpt>
      <trkpt lat="45.16481" lon="5.96534">
        <ele>2315</ele>
        <time>2020-08-11T10:33:31Z</time>
      </trkpt>
      <trkpt lat="45.16481" lon="5.96531">
        <ele>2315.6</ele>
        <time>2020-08-11T10:33:32Z</time>
      </trkpt>
      <trkpt lat="45.1648" lon="5.96529">
        <ele>2315.2</ele>
        <time>2020-08-11T10:33:33Z</time>
      </trkpt>
      <trkpt lat="45.1648" lon="5.96526">
        <ele>2314.4</ele>
        <time>2020-08-11T10:33:34Z</time>
      </trkpt>
      <trkpt lat="45.1648" lon="5.96523">
        <ele>2314.8</ele>
        <time>2020-08-11T10:33:35Z</time>
      </trkpt>
      <trkpt lat="45.16479" lon="5.96519">
        <ele>2314.8</ele>
        <time>2020-08-11T10:33:36Z</time>
      </trkpt>
      <trkpt lat="45.16479" lon="5.96516">
        <ele>2314.8</ele>
        <time>2020-08-11T10:33:37Z</time>
      </trkpt>
      <trkpt lat="45.16479" lon="5.96513">
        <ele>2314.2</ele>
        <time>2020-08-11T10:33:38Z</time>
      </trkpt>
      <trkpt lat="45.16478" lon="5.96509">
        <ele>2314.2</ele>
        <time>2020-08-11T10:33:39Z</time>
      </trkpt>
      <trkpt lat="45.16478" lon="5.96506">
        <ele>2314.6</ele>
        <time>2020-08-11T10:33:40Z</time>
      </trkpt>
      <trkpt lat="45.16478" lon="5.96506">
        <ele>2314.4</ele>
        <time>2020-08-11T10:33:41Z</time>
      </trkpt>
      <trkpt lat="45.16478" lon="5.96503">
        <ele>2314.6</ele>
        <time>2020-08-11T10:33:42Z</time>
      </trkpt>
      <trkpt lat="45.16479" lon="5.965">
        <ele>2314.2</ele>
        <time>2020-08-11T10:33:43Z</time>
      </trkpt>
      <trkpt lat="45.16479" lon="5.96497">
        <ele>2314</ele>
        <time>2020-08-11T10:33:44Z</time>
      </trkpt>
      <trkpt lat="45.16479" lon="5.96493">
        <ele>2313.8</ele>
        <time>2020-08-11T10:33:45Z</time>
      </trkpt>
      <trkpt lat="45.16479" lon="5.9649">
        <ele>2313.8</ele>
        <time>2020-08-11T10:33:46Z</time>
      </trkpt>
      <trkpt lat="45.16479" lon="5.96486">
        <ele>2314.2</ele>
        <time>2020-08-11T10:33:47Z</time>
      </trkpt>
      <trkpt lat="45.16479" lon="5.96483">
        <ele>2314.2</ele>
        <time>2020-08-11T10:33:48Z</time>
      </trkpt>
      <trkpt lat="45.16479" lon="5.9648">
        <ele>2314.6</ele>
        <time>2020-08-11T10:33:49Z</time>
      </trkpt>
      <trkpt lat="45.16479" lon="5.96478">
        <ele>2314.2</ele>
        <time>2020-08-11T10:33:50Z</time>
      </trkpt>
      <trkpt lat="45.16479" lon="5.96475">
        <ele>2314.2</ele>
        <time>2020-08-11T10:33:51Z</time>
      </trkpt>
      <trkpt lat="45.16478" lon="5.96472">
        <ele>2314.6</ele>
        <time>2020-08-11T10:33:52Z</time>
      </trkpt>
      <trkpt lat="45.16478" lon="5.96472">
        <ele>2314.8</ele>
        <time>2020-08-11T10:33:53Z</time>
      </trkpt>
      <trkpt lat="45.16477" lon="5.96469">
        <ele>2315.2</ele>
        <time>2020-08-11T10:33:54Z</time>
      </trkpt>
      <trkpt lat="45.16476" lon="5.96466">
        <ele>2315</ele>
        <time>2020-08-11T10:33:55Z</time>
      </trkpt>
      <trkpt lat="45.16476" lon="5.96463">
        <ele>2314.6</ele>
        <time>2020-08-11T10:33:56Z</time>
      </trkpt>
      <trkpt lat="45.16475" lon="5.9646">
        <ele>2314.8</ele>
        <time>2020-08-11T10:33:57Z</time>
      </trkpt>
      <trkpt lat="45.16474" lon="5.96457">
        <ele>2314.6</ele>
        <time>2020-08-11T10:33:58Z</time>
      </trkpt>
      <trkpt lat="45.16474" lon="5.96454">
        <ele>2314.8</ele>
        <time>2020-08-11T10:33:59Z</time>
      </trkpt>
      <trkpt lat="45.16473" lon="5.96451">
        <ele>2314.4</ele>
        <time>2020-08-11T10:34:00Z</time>
      </trkpt>
      <trkpt lat="45.16473" lon="5.96444">
        <ele>2314.6</ele>
        <time>2020-08-11T10:34:01Z</time>
      </trkpt>
      <trkpt lat="45.16473" lon="5.96438">
        <ele>2314.2</ele>
        <time>2020-08-11T10:34:02Z</time>
      </trkpt>
      <trkpt lat="45.16474" lon="5.96432">
        <ele>2313.6</ele>
        <time>2020-08-11T10:34:03Z</time>
      </trkpt>
      <trkpt lat="45.16474" lon="5.96431">
        <ele>2313.2</ele>
        <time>2020-08-11T10:34:04Z</time>
      </trkpt>
      <trkpt lat="45.16475" lon="5.9643">
        <ele>2313</ele>
        <time>2020-08-11T10:34:05Z</time>
      </trkpt>
      <trkpt lat="45.16475" lon="5.9643">
        <ele>2313.2</ele>
        <time>2020-08-11T10:34:06Z</time>
      </trkpt>
      <trkpt lat="45.16478" lon="5.96429">
        <ele>2312.8</ele>
        <time>2020-08-11T10:34:07Z</time>
      </trkpt>
      <trkpt lat="45.16481" lon="5.96426">
        <ele>2312.2</ele>
        <time>2020-08-11T10:34:08Z</time>
      </trkpt>
      <trkpt lat="45.16483" lon="5.96424">
        <ele>2312.4</ele>
        <time>2020-08-11T10:34:09Z</time>
      </trkpt>
      <trkpt lat="45.16484" lon="5.96422">
        <ele>2312.2</ele>
        <time>2020-08-11T10:34:10Z</time>
      </trkpt>
      <trkpt lat="45.16485" lon="5.96419">
        <ele>2312.2</ele>
        <time>2020-08-11T10:34:11Z</time>
      </trkpt>
      <trkpt lat="45.16486" lon="5.96417">
        <ele>2311.4</ele>
        <time>2020-08-11T10:34:12Z</time>
      </trkpt>
      <trkpt lat="45.16485" lon="5.96415">
        <ele>2311</ele>
        <time>2020-08-11T10:34:13Z</time>
      </trkpt>
      <trkpt lat="45.16485" lon="5.96413">
        <ele>2310.4</ele>
        <time>2020-08-11T10:34:14Z</time>
      </trkpt>
      <trkpt lat="45.16485" lon="5.96413">
        <ele>2310.2</ele>
        <time>2020-08-11T10:34:15Z</time>
      </trkpt>
      <trkpt lat="45.16483" lon="5.9641">
        <ele>2310</ele>
        <time>2020-08-11T10:34:16Z</time>
      </trkpt>
      <trkpt lat="45.16482" lon="5.96409">
        <ele>2310.2</ele>
        <time>2020-08-11T10:34:17Z</time>
      </trkpt>
      <trkpt lat="45.1648" lon="5.96408">
        <ele>2310.2</ele>
        <time>2020-08-11T10:34:18Z</time>
      </trkpt>
      <trkpt lat="45.16479" lon="5.96407">
        <ele>2310.6</ele>
        <time>2020-08-11T10:34:19Z</time>
      </trkpt>
      <trkpt lat="45.16479" lon="5.96407">
        <ele>2310.6</ele>
        <time>2020-08-11T10:34:20Z</time>
      </trkpt>
      <trkpt lat="45.16479" lon="5.96407">
        <ele>2311</ele>
        <time>2020-08-11T10:34:21Z</time>
      </trkpt>
      <trkpt lat="45.16476" lon="5.96407">
        <ele>2311</ele>
        <time>2020-08-11T10:34:22Z</time>
      </trkpt>
      <trkpt lat="45.16473" lon="5.96406">
        <ele>2311.2</ele>
        <time>2020-08-11T10:34:23Z</time>
      </trkpt>
      <trkpt lat="45.1647" lon="5.96405">
        <ele>2310.8</ele>
        <time>2020-08-11T10:34:24Z</time>
      </trkpt>
      <trkpt lat="45.1647" lon="5.96405">
        <ele>2310.4</ele>
        <time>2020-08-11T10:34:25Z</time>
      </trkpt>
      <trkpt lat="45.1647" lon="5.96405">
        <ele>2310</ele>
        <time>2020-08-11T10:34:26Z</time>
      </trkpt>
      <trkpt lat="45.16468" lon="5.96404">
        <ele>2309.6</ele>
        <time>2020-08-11T10:34:27Z</time>
      </trkpt>
      <trkpt lat="45.16466" lon="5.96402">
        <ele>2309.8</ele>
        <time>2020-08-11T10:34:28Z</time>
      </trkpt>
      <trkpt lat="45.16465" lon="5.964">
        <ele>2309.8</ele>
        <time>2020-08-11T10:34:29Z</time>
      </trkpt>
      <trkpt lat="45.16463" lon="5.96399">
        <ele>2310.4</ele>
        <time>2020-08-11T10:34:30Z</time>
      </trkpt>
      <trkpt lat="45.16461" lon="5.96397">
        <ele>2310.4</ele>
        <time>2020-08-11T10:34:31Z</time>
      </trkpt>
      <trkpt lat="45.16459" lon="5.96395">
        <ele>2310.4</ele>
        <time>2020-08-11T10:34:32Z</time>
      </trkpt>
      <trkpt lat="45.16458" lon="5.96394">
        <ele>2310.6</ele>
        <time>2020-08-11T10:34:33Z</time>
      </trkpt>
      <trkpt lat="45.16456" lon="5.96392">
        <ele>2310.6</ele>
        <time>2020-08-11T10:34:34Z</time>
      </trkpt>
      <trkpt lat="45.16454" lon="5.96391">
        <ele>2310.8</ele>
        <time>2020-08-11T10:34:35Z</time>
      </trkpt>
      <trkpt lat="45.16454" lon="5.9639">
        <ele>2310.8</ele>
        <time>2020-08-11T10:34:36Z</time>
      </trkpt>
      <trkpt lat="45.16453" lon="5.9639">
        <ele>2310.4</ele>
        <time>2020-08-11T10:34:37Z</time>
      </trkpt>
      <trkpt lat="45.16451" lon="5.96389">
        <ele>2311</ele>
        <time>2020-08-11T10:34:38Z</time>
      </trkpt>
      <trkpt lat="45.16451" lon="5.96389">
        <ele>2310.8</ele>
        <time>2020-08-11T10:34:39Z</time>
      </trkpt>
      <trkpt lat="45.16451" lon="5.96389">
        <ele>2310.6</ele>
        <time>2020-08-11T10:34:40Z</time>
      </trkpt>
      <trkpt lat="45.1645" lon="5.96387">
        <ele>2311</ele>
        <time>2020-08-11T10:34:41Z</time>
      </trkpt>
      <trkpt lat="45.16449" lon="5.96385">
        <ele>2311.2</ele>
        <time>2020-08-11T10:34:42Z</time>
      </trkpt>
      <trkpt lat="45.16448" lon="5.96383">
        <ele>2311.6</ele>
        <time>2020-08-11T10:34:43Z</time>
      </trkpt>
      <trkpt lat="45.16446" lon="5.96381">
        <ele>2311.6</ele>
        <time>2020-08-11T10:34:44Z</time>
      </trkpt>
      <trkpt lat="45.16445" lon="5.96379">
        <ele>2311.8</ele>
        <time>2020-08-11T10:34:45Z</time>
      </trkpt>
      <trkpt lat="45.16444" lon="5.96377">
        <ele>2311.8</ele>
        <time>2020-08-11T10:34:46Z</time>
      </trkpt>
      <trkpt lat="45.16444" lon="5.96376">
        <ele>2311.6</ele>
        <time>2020-08-11T10:34:47Z</time>
      </trkpt>
      <trkpt lat="45.16443" lon="5.96374">
        <ele>2312.4</ele>
        <time>2020-08-11T10:34:48Z</time>
      </trkpt>
      <trkpt lat="45.16442" lon="5.96372">
        <ele>2312.4</ele>
        <time>2020-08-11T10:34:49Z</time>
      </trkpt>
      <trkpt lat="45.16442" lon="5.9637">
        <ele>2312.6</ele>
        <time>2020-08-11T10:34:50Z</time>
      </trkpt>
      <trkpt lat="45.16441" lon="5.96368">
        <ele>2312.6</ele>
        <time>2020-08-11T10:34:51Z</time>
      </trkpt>
      <trkpt lat="45.1644" lon="5.96366">
        <ele>2312.4</ele>
        <time>2020-08-11T10:34:52Z</time>
      </trkpt>
      <trkpt lat="45.16439" lon="5.96364">
        <ele>2312.4</ele>
        <time>2020-08-11T10:34:53Z</time>
      </trkpt>
      <trkpt lat="45.16438" lon="5.96362">
        <ele>2312.4</ele>
        <time>2020-08-11T10:34:54Z</time>
      </trkpt>
      <trkpt lat="45.16438" lon="5.9636">
        <ele>2312.6</ele>
        <time>2020-08-11T10:34:55Z</time>
      </trkpt>
      <trkpt lat="45.16437" lon="5.96358">
        <ele>2313</ele>
        <time>2020-08-11T10:34:56Z</time>
      </trkpt>
      <trkpt lat="45.16436" lon="5.96355">
        <ele>2313.4</ele>
        <time>2020-08-11T10:34:57Z</time>
      </trkpt>
      <trkpt lat="45.16435" lon="5.96353">
        <ele>2313.6</ele>
        <time>2020-08-11T10:34:58Z</time>
      </trkpt>
      <trkpt lat="45.16434" lon="5.96351">
        <ele>2313.6</ele>
        <time>2020-08-11T10:34:59Z</time>
      </trkpt>
      <trkpt lat="45.16434" lon="5.96351">
        <ele>2314</ele>
        <time>2020-08-11T10:35:00Z</time>
      </trkpt>
      <trkpt lat="45.16435" lon="5.96347">
        <ele>2314.4</ele>
        <time>2020-08-11T10:35:01Z</time>
      </trkpt>
      <trkpt lat="45.16435" lon="5.96347">
        <ele>2314.6</ele>
        <time>2020-08-11T10:35:02Z</time>
      </trkpt>
      <trkpt lat="45.16435" lon="5.96347">
        <ele>2314.8</ele>
        <time>2020-08-11T10:35:03Z</time>
      </trkpt>
      <trkpt lat="45.16435" lon="5.96342">
        <ele>2315</ele>
        <time>2020-08-11T10:35:04Z</time>
      </trkpt>
      <trkpt lat="45.16435" lon="5.96342">
        <ele>2315</ele>
        <time>2020-08-11T10:35:05Z</time>
      </trkpt>
      <trkpt lat="45.16434" lon="5.96337">
        <ele>2315.2</ele>
        <time>2020-08-11T10:35:06Z</time>
      </trkpt>
      <trkpt lat="45.16434" lon="5.96337">
        <ele>2315.4</ele>
        <time>2020-08-11T10:35:07Z</time>
      </trkpt>
      <trkpt lat="45.16434" lon="5.96335">
        <ele>2315.4</ele>
        <time>2020-08-11T10:35:08Z</time>
      </trkpt>
      <trkpt lat="45.16434" lon="5.96333">
        <ele>2315.4</ele>
        <time>2020-08-11T10:35:09Z</time>
      </trkpt>
      <trkpt lat="45.16434" lon="5.9633">
        <ele>2315.2</ele>
        <time>2020-08-11T10:35:10Z</time>
      </trkpt>
      <trkpt lat="45.16434" lon="5.96328">
        <ele>2315.2</ele>
        <time>2020-08-11T10:35:11Z</time>
      </trkpt>
      <trkpt lat="45.16434" lon="5.96325">
        <ele>2315.2</ele>
        <time>2020-08-11T10:35:12Z</time>
      </trkpt>
      <trkpt lat="45.16434" lon="5.96325">
        <ele>2315.4</ele>
        <time>2020-08-11T10:35:13Z</time>
      </trkpt>
      <trkpt lat="45.16433" lon="5.96324">
        <ele>2315.4</ele>
        <time>2020-08-11T10:35:14Z</time>
      </trkpt>
      <trkpt lat="45.16433" lon="5.96323">
        <ele>2315.6</ele>
        <time>2020-08-11T10:35:15Z</time>
      </trkpt>
      <trkpt lat="45.16433" lon="5.96322">
        <ele>2315.6</ele>
        <time>2020-08-11T10:35:16Z</time>
      </trkpt>
      <trkpt lat="45.16433" lon="5.96321">
        <ele>2316</ele>
        <time>2020-08-11T10:35:17Z</time>
      </trkpt>
      <trkpt lat="45.16432" lon="5.96321">
        <ele>2316.2</ele>
        <time>2020-08-11T10:35:18Z</time>
      </trkpt>
      <trkpt lat="45.16432" lon="5.9632">
        <ele>2316.2</ele>
        <time>2020-08-11T10:35:19Z</time>
      </trkpt>
      <trkpt lat="45.16432" lon="5.96319">
        <ele>2316.4</ele>
        <time>2020-08-11T10:35:20Z</time>
      </trkpt>
      <trkpt lat="45.16431" lon="5.96318">
        <ele>2316.4</ele>
        <time>2020-08-11T10:35:21Z</time>
      </trkpt>
      <trkpt lat="45.16431" lon="5.96317">
        <ele>2316.4</ele>
        <time>2020-08-11T10:35:22Z</time>
      </trkpt>
      <trkpt lat="45.1643" lon="5.96316">
        <ele>2316.2</ele>
        <time>2020-08-11T10:35:23Z</time>
      </trkpt>
      <trkpt lat="45.16429" lon="5.96314">
        <ele>2315.8</ele>
        <time>2020-08-11T10:35:24Z</time>
      </trkpt>
      <trkpt lat="45.16428" lon="5.96312">
        <ele>2315.4</ele>
        <time>2020-08-11T10:35:25Z</time>
      </trkpt>
      <trkpt lat="45.16427" lon="5.9631">
        <ele>2315.2</ele>
        <time>2020-08-11T10:35:26Z</time>
      </trkpt>
      <trkpt lat="45.16427" lon="5.96307">
        <ele>2315</ele>
        <time>2020-08-11T10:35:27Z</time>
      </trkpt>
      <trkpt lat="45.16427" lon="5.96307">
        <ele>2314.6</ele>
        <time>2020-08-11T10:35:28Z</time>
      </trkpt>
      <trkpt lat="45.16427" lon="5.96307">
        <ele>2314.6</ele>
        <time>2020-08-11T10:35:29Z</time>
      </trkpt>
      <trkpt lat="45.16426" lon="5.96304">
        <ele>2314.6</ele>
        <time>2020-08-11T10:35:30Z</time>
      </trkpt>
      <trkpt lat="45.16426" lon="5.96304">
        <ele>2314.4</ele>
        <time>2020-08-11T10:35:31Z</time>
      </trkpt>
      <trkpt lat="45.16426" lon="5.96304">
        <ele>2314.4</ele>
        <time>2020-08-11T10:35:32Z</time>
      </trkpt>
      <trkpt lat="45.16425" lon="5.96304">
        <ele>2314.2</ele>
        <time>2020-08-11T10:35:33Z</time>
      </trkpt>
      <trkpt lat="45.16424" lon="5.96303">
        <ele>2314</ele>
        <time>2020-08-11T10:35:34Z</time>
      </trkpt>
      <trkpt lat="45.16424" lon="5.96302">
        <ele>2313.8</ele>
        <time>2020-08-11T10:35:35Z</time>
      </trkpt>
      <trkpt lat="45.16423" lon="5.96301">
        <ele>2313.8</ele>
        <time>2020-08-11T10:35:36Z</time>
      </trkpt>
      <trkpt lat="45.16422" lon="5.963">
        <ele>2314</ele>
        <time>2020-08-11T10:35:37Z</time>
      </trkpt>
      <trkpt lat="45.16421" lon="5.96299">
        <ele>2314.2</ele>
        <time>2020-08-11T10:35:38Z</time>
      </trkpt>
      <trkpt lat="45.1642" lon="5.96298">
        <ele>2314.2</ele>
        <time>2020-08-11T10:35:39Z</time>
      </trkpt>
      <trkpt lat="45.16419" lon="5.96297">
        <ele>2314.6</ele>
        <time>2020-08-11T10:35:40Z</time>
      </trkpt>
      <trkpt lat="45.16418" lon="5.96295">
        <ele>2314.8</ele>
        <time>2020-08-11T10:35:41Z</time>
      </trkpt>
      <trkpt lat="45.16417" lon="5.96294">
        <ele>2315</ele>
        <time>2020-08-11T10:35:42Z</time>
      </trkpt>
      <trkpt lat="45.16416" lon="5.96292">
        <ele>2315.4</ele>
        <time>2020-08-11T10:35:43Z</time>
      </trkpt>
      <trkpt lat="45.16414" lon="5.9629">
        <ele>2315.2</ele>
        <time>2020-08-11T10:35:44Z</time>
      </trkpt>
      <trkpt lat="45.16413" lon="5.96289">
        <ele>2315.2</ele>
        <time>2020-08-11T10:35:45Z</time>
      </trkpt>
      <trkpt lat="45.16413" lon="5.96289">
        <ele>2315.2</ele>
        <time>2020-08-11T10:35:46Z</time>
      </trkpt>
      <trkpt lat="45.16413" lon="5.96289">
        <ele>2314.8</ele>
        <time>2020-08-11T10:35:47Z</time>
      </trkpt>
      <trkpt lat="45.16412" lon="5.96285">
        <ele>2314.4</ele>
        <time>2020-08-11T10:35:48Z</time>
      </trkpt>
      <trkpt lat="45.16412" lon="5.96285">
        <ele>2314.6</ele>
        <time>2020-08-11T10:35:49Z</time>
      </trkpt>
      <trkpt lat="45.16412" lon="5.96284">
        <ele>2314.4</ele>
        <time>2020-08-11T10:35:50Z</time>
      </trkpt>
      <trkpt lat="45.16411" lon="5.96282">
        <ele>2314</ele>
        <time>2020-08-11T10:35:51Z</time>
      </trkpt>
      <trkpt lat="45.16411" lon="5.9628">
        <ele>2313.2</ele>
        <time>2020-08-11T10:35:52Z</time>
      </trkpt>
      <trkpt lat="45.1641" lon="5.96279">
        <ele>2313.2</ele>
        <time>2020-08-11T10:35:53Z</time>
      </trkpt>
      <trkpt lat="45.16409" lon="5.96277">
        <ele>2313.2</ele>
        <time>2020-08-11T10:35:54Z</time>
      </trkpt>
      <trkpt lat="45.16409" lon="5.96275">
        <ele>2313.2</ele>
        <time>2020-08-11T10:35:55Z</time>
      </trkpt>
      <trkpt lat="45.16408" lon="5.96274">
        <ele>2313</ele>
        <time>2020-08-11T10:35:56Z</time>
      </trkpt>
      <trkpt lat="45.16407" lon="5.96272">
        <ele>2312.6</ele>
        <time>2020-08-11T10:35:57Z</time>
      </trkpt>
      <trkpt lat="45.16407" lon="5.96267">
        <ele>2312.6</ele>
        <time>2020-08-11T10:35:58Z</time>
      </trkpt>
      <trkpt lat="45.16407" lon="5.96267">
        <ele>2312.8</ele>
        <time>2020-08-11T10:35:59Z</time>
      </trkpt>
      <trkpt lat="45.16406" lon="5.96265">
        <ele>2312.8</ele>
        <time>2020-08-11T10:36:00Z</time>
      </trkpt>
      <trkpt lat="45.16406" lon="5.96263">
        <ele>2313</ele>
        <time>2020-08-11T10:36:01Z</time>
      </trkpt>
      <trkpt lat="45.16405" lon="5.96261">
        <ele>2313.2</ele>
        <time>2020-08-11T10:36:02Z</time>
      </trkpt>
      <trkpt lat="45.16405" lon="5.96259">
        <ele>2313.6</ele>
        <time>2020-08-11T10:36:03Z</time>
      </trkpt>
      <trkpt lat="45.16404" lon="5.96258">
        <ele>2313.8</ele>
        <time>2020-08-11T10:36:04Z</time>
      </trkpt>
      <trkpt lat="45.16403" lon="5.96256">
        <ele>2313.8</ele>
        <time>2020-08-11T10:36:05Z</time>
      </trkpt>
      <trkpt lat="45.16403" lon="5.96254">
        <ele>2314.2</ele>
        <time>2020-08-11T10:36:06Z</time>
      </trkpt>
      <trkpt lat="45.16402" lon="5.96252">
        <ele>2314.6</ele>
        <time>2020-08-11T10:36:07Z</time>
      </trkpt>
      <trkpt lat="45.16401" lon="5.96251">
        <ele>2314.8</ele>
        <time>2020-08-11T10:36:08Z</time>
      </trkpt>
      <trkpt lat="45.164" lon="5.96249">
        <ele>2315.2</ele>
        <time>2020-08-11T10:36:09Z</time>
      </trkpt>
      <trkpt lat="45.16399" lon="5.96247">
        <ele>2315.4</ele>
        <time>2020-08-11T10:36:10Z</time>
      </trkpt>
      <trkpt lat="45.16398" lon="5.96246">
        <ele>2315.4</ele>
        <time>2020-08-11T10:36:11Z</time>
      </trkpt>
      <trkpt lat="45.16397" lon="5.96244">
        <ele>2315.4</ele>
        <time>2020-08-11T10:36:12Z</time>
      </trkpt>
      <trkpt lat="45.16396" lon="5.96243">
        <ele>2315.4</ele>
        <time>2020-08-11T10:36:13Z</time>
      </trkpt>
      <trkpt lat="45.16395" lon="5.96241">
        <ele>2315</ele>
        <time>2020-08-11T10:36:14Z</time>
      </trkpt>
      <trkpt lat="45.16393" lon="5.9624">
        <ele>2315</ele>
        <time>2020-08-11T10:36:15Z</time>
      </trkpt>
      <trkpt lat="45.16393" lon="5.9624">
        <ele>2315</ele>
        <time>2020-08-11T10:36:16Z</time>
      </trkpt>
      <trkpt lat="45.16392" lon="5.96238">
        <ele>2314.8</ele>
        <time>2020-08-11T10:36:17Z</time>
      </trkpt>
      <trkpt lat="45.16392" lon="5.96238">
        <ele>2315</ele>
        <time>2020-08-11T10:36:18Z</time>
      </trkpt>
      <trkpt lat="45.16392" lon="5.96236">
        <ele>2315</ele>
        <time>2020-08-11T10:36:19Z</time>
      </trkpt>
      <trkpt lat="45.16392" lon="5.96235">
        <ele>2315.2</ele>
        <time>2020-08-11T10:36:20Z</time>
      </trkpt>
      <trkpt lat="45.16392" lon="5.96234">
        <ele>2315</ele>
        <time>2020-08-11T10:36:21Z</time>
      </trkpt>
      <trkpt lat="45.16392" lon="5.96232">
        <ele>2314.8</ele>
        <time>2020-08-11T10:36:22Z</time>
      </trkpt>
      <trkpt lat="45.16392" lon="5.96231">
        <ele>2314.8</ele>
        <time>2020-08-11T10:36:23Z</time>
      </trkpt>
      <trkpt lat="45.16392" lon="5.96229">
        <ele>2314.8</ele>
        <time>2020-08-11T10:36:24Z</time>
      </trkpt>
      <trkpt lat="45.16392" lon="5.96228">
        <ele>2314.8</ele>
        <time>2020-08-11T10:36:25Z</time>
      </trkpt>
      <trkpt lat="45.16391" lon="5.96225">
        <ele>2314.6</ele>
        <time>2020-08-11T10:36:26Z</time>
      </trkpt>
      <trkpt lat="45.1639" lon="5.96222">
        <ele>2315</ele>
        <time>2020-08-11T10:36:27Z</time>
      </trkpt>
      <trkpt lat="45.16389" lon="5.96218">
        <ele>2314.8</ele>
        <time>2020-08-11T10:36:28Z</time>
      </trkpt>
      <trkpt lat="45.16388" lon="5.96215">
        <ele>2315</ele>
        <time>2020-08-11T10:36:29Z</time>
      </trkpt>
      <trkpt lat="45.16388" lon="5.96212">
        <ele>2314.6</ele>
        <time>2020-08-11T10:36:30Z</time>
      </trkpt>
      <trkpt lat="45.16388" lon="5.96212">
        <ele>2314.4</ele>
        <time>2020-08-11T10:36:31Z</time>
      </trkpt>
      <trkpt lat="45.16387" lon="5.96209">
        <ele>2313.8</ele>
        <time>2020-08-11T10:36:32Z</time>
      </trkpt>
      <trkpt lat="45.16386" lon="5.96206">
        <ele>2313.4</ele>
        <time>2020-08-11T10:36:33Z</time>
      </trkpt>
      <trkpt lat="45.16385" lon="5.96202">
        <ele>2313</ele>
        <time>2020-08-11T10:36:34Z</time>
      </trkpt>
      <trkpt lat="45.16384" lon="5.96199">
        <ele>2313.2</ele>
        <time>2020-08-11T10:36:35Z</time>
      </trkpt>
      <trkpt lat="45.16383" lon="5.96196">
        <ele>2313.2</ele>
        <time>2020-08-11T10:36:36Z</time>
      </trkpt>
      <trkpt lat="45.16382" lon="5.96194">
        <ele>2313.2</ele>
        <time>2020-08-11T10:36:37Z</time>
      </trkpt>
      <trkpt lat="45.16381" lon="5.96191">
        <ele>2313.4</ele>
        <time>2020-08-11T10:36:38Z</time>
      </trkpt>
      <trkpt lat="45.16376" lon="5.96183">
        <ele>2313.4</ele>
        <time>2020-08-11T10:36:39Z</time>
      </trkpt>
      <trkpt lat="45.16376" lon="5.96183">
        <ele>2313.8</ele>
        <time>2020-08-11T10:36:40Z</time>
      </trkpt>
      <trkpt lat="45.16376" lon="5.96183">
        <ele>2313.8</ele>
        <time>2020-08-11T10:36:41Z</time>
      </trkpt>
      <trkpt lat="45.16375" lon="5.9618">
        <ele>2314</ele>
        <time>2020-08-11T10:36:42Z</time>
      </trkpt>
      <trkpt lat="45.16374" lon="5.96178">
        <ele>2313.6</ele>
        <time>2020-08-11T10:36:43Z</time>
      </trkpt>
      <trkpt lat="45.16373" lon="5.96175">
        <ele>2312.6</ele>
        <time>2020-08-11T10:36:44Z</time>
      </trkpt>
      <trkpt lat="45.16371" lon="5.96172">
        <ele>2313.2</ele>
        <time>2020-08-11T10:36:45Z</time>
      </trkpt>
      <trkpt lat="45.1637" lon="5.96169">
        <ele>2313</ele>
        <time>2020-08-11T10:36:46Z</time>
      </trkpt>
      <trkpt lat="45.16369" lon="5.96167">
        <ele>2312.6</ele>
        <time>2020-08-11T10:36:47Z</time>
      </trkpt>
      <trkpt lat="45.16367" lon="5.96164">
        <ele>2312.8</ele>
        <time>2020-08-11T10:36:48Z</time>
      </trkpt>
      <trkpt lat="45.16366" lon="5.96162">
        <ele>2312.6</ele>
        <time>2020-08-11T10:36:49Z</time>
      </trkpt>
      <trkpt lat="45.16365" lon="5.96158">
        <ele>2313</ele>
        <time>2020-08-11T10:36:50Z</time>
      </trkpt>
      <trkpt lat="45.16364" lon="5.96155">
        <ele>2312.6</ele>
        <time>2020-08-11T10:36:51Z</time>
      </trkpt>
      <trkpt lat="45.16363" lon="5.96152">
        <ele>2312.8</ele>
        <time>2020-08-11T10:36:52Z</time>
      </trkpt>
      <trkpt lat="45.16362" lon="5.96148">
        <ele>2312.2</ele>
        <time>2020-08-11T10:36:53Z</time>
      </trkpt>
      <trkpt lat="45.1636" lon="5.96144">
        <ele>2312</ele>
        <time>2020-08-11T10:36:54Z</time>
      </trkpt>
      <trkpt lat="45.16358" lon="5.96141">
        <ele>2311.8</ele>
        <time>2020-08-11T10:36:55Z</time>
      </trkpt>
      <trkpt lat="45.16357" lon="5.96137">
        <ele>2311</ele>
        <time>2020-08-11T10:36:56Z</time>
      </trkpt>
      <trkpt lat="45.16355" lon="5.96133">
        <ele>2311.4</ele>
        <time>2020-08-11T10:36:57Z</time>
      </trkpt>
      <trkpt lat="45.16355" lon="5.96133">
        <ele>2311</ele>
        <time>2020-08-11T10:36:58Z</time>
      </trkpt>
      <trkpt lat="45.16353" lon="5.9613">
        <ele>2311</ele>
        <time>2020-08-11T10:36:59Z</time>
      </trkpt>
      <trkpt lat="45.16352" lon="5.96128">
        <ele>2310.4</ele>
        <time>2020-08-11T10:37:00Z</time>
      </trkpt>
      <trkpt lat="45.1635" lon="5.96125">
        <ele>2310</ele>
        <time>2020-08-11T10:37:01Z</time>
      </trkpt>
      <trkpt lat="45.16348" lon="5.96122">
        <ele>2310.4</ele>
        <time>2020-08-11T10:37:02Z</time>
      </trkpt>
      <trkpt lat="45.16347" lon="5.96119">
        <ele>2309.8</ele>
        <time>2020-08-11T10:37:03Z</time>
      </trkpt>
      <trkpt lat="45.16346" lon="5.96115">
        <ele>2310</ele>
        <time>2020-08-11T10:37:04Z</time>
      </trkpt>
      <trkpt lat="45.16345" lon="5.96112">
        <ele>2309.4</ele>
        <time>2020-08-11T10:37:05Z</time>
      </trkpt>
      <trkpt lat="45.16343" lon="5.96108">
        <ele>2308.6</ele>
        <time>2020-08-11T10:37:06Z</time>
      </trkpt>
      <trkpt lat="45.16342" lon="5.96105">
        <ele>2308</ele>
        <time>2020-08-11T10:37:07Z</time>
      </trkpt>
      <trkpt lat="45.16341" lon="5.96101">
        <ele>2307.6</ele>
        <time>2020-08-11T10:37:08Z</time>
      </trkpt>
      <trkpt lat="45.16341" lon="5.96096">
        <ele>2307</ele>
        <time>2020-08-11T10:37:09Z</time>
      </trkpt>
      <trkpt lat="45.1634" lon="5.96091">
        <ele>2306.6</ele>
        <time>2020-08-11T10:37:10Z</time>
      </trkpt>
      <trkpt lat="45.1634" lon="5.96086">
        <ele>2306.8</ele>
        <time>2020-08-11T10:37:11Z</time>
      </trkpt>
      <trkpt lat="45.16339" lon="5.96082">
        <ele>2306.4</ele>
        <time>2020-08-11T10:37:12Z</time>
      </trkpt>
      <trkpt lat="45.16339" lon="5.96078">
        <ele>2306.4</ele>
        <time>2020-08-11T10:37:13Z</time>
      </trkpt>
      <trkpt lat="45.16338" lon="5.96075">
        <ele>2305.8</ele>
        <time>2020-08-11T10:37:14Z</time>
      </trkpt>
      <trkpt lat="45.16338" lon="5.96071">
        <ele>2305.6</ele>
        <time>2020-08-11T10:37:15Z</time>
      </trkpt>
      <trkpt lat="45.16337" lon="5.96067">
        <ele>2305</ele>
        <time>2020-08-11T10:37:16Z</time>
      </trkpt>
      <trkpt lat="45.16337" lon="5.96064">
        <ele>2304.8</ele>
        <time>2020-08-11T10:37:17Z</time>
      </trkpt>
      <trkpt lat="45.16337" lon="5.9606">
        <ele>2304.4</ele>
        <time>2020-08-11T10:37:18Z</time>
      </trkpt>
      <trkpt lat="45.16336" lon="5.96056">
        <ele>2304.2</ele>
        <time>2020-08-11T10:37:19Z</time>
      </trkpt>
      <trkpt lat="45.16336" lon="5.96052">
        <ele>2304</ele>
        <time>2020-08-11T10:37:20Z</time>
      </trkpt>
      <trkpt lat="45.16335" lon="5.96048">
        <ele>2303.6</ele>
        <time>2020-08-11T10:37:21Z</time>
      </trkpt>
      <trkpt lat="45.16335" lon="5.96044">
        <ele>2304.4</ele>
        <time>2020-08-11T10:37:22Z</time>
      </trkpt>
      <trkpt lat="45.16334" lon="5.96041">
        <ele>2304.2</ele>
        <time>2020-08-11T10:37:23Z</time>
      </trkpt>
      <trkpt lat="45.16333" lon="5.96037">
        <ele>2304.4</ele>
        <time>2020-08-11T10:37:24Z</time>
      </trkpt>
      <trkpt lat="45.16333" lon="5.96033">
        <ele>2304</ele>
        <time>2020-08-11T10:37:25Z</time>
      </trkpt>
      <trkpt lat="45.16332" lon="5.9603">
        <ele>2303.6</ele>
        <time>2020-08-11T10:37:26Z</time>
      </trkpt>
      <trkpt lat="45.16331" lon="5.96026">
        <ele>2303.8</ele>
        <time>2020-08-11T10:37:27Z</time>
      </trkpt>
      <trkpt lat="45.16333" lon="5.96022">
        <ele>2303.4</ele>
        <time>2020-08-11T10:37:28Z</time>
      </trkpt>
      <trkpt lat="45.16335" lon="5.96017">
        <ele>2303.8</ele>
        <time>2020-08-11T10:37:29Z</time>
      </trkpt>
      <trkpt lat="45.16337" lon="5.96013">
        <ele>2303.2</ele>
        <time>2020-08-11T10:37:30Z</time>
      </trkpt>
      <trkpt lat="45.16339" lon="5.96009">
        <ele>2303.4</ele>
        <time>2020-08-11T10:37:31Z</time>
      </trkpt>
      <trkpt lat="45.16339" lon="5.96006">
        <ele>2302.8</ele>
        <time>2020-08-11T10:37:32Z</time>
      </trkpt>
      <trkpt lat="45.16338" lon="5.96003">
        <ele>2302.2</ele>
        <time>2020-08-11T10:37:33Z</time>
      </trkpt>
      <trkpt lat="45.16338" lon="5.95997">
        <ele>2302.2</ele>
        <time>2020-08-11T10:37:34Z</time>
      </trkpt>
      <trkpt lat="45.16337" lon="5.95991">
        <ele>2301.8</ele>
        <time>2020-08-11T10:37:35Z</time>
      </trkpt>
      <trkpt lat="45.16335" lon="5.95984">
        <ele>2301.8</ele>
        <time>2020-08-11T10:37:36Z</time>
      </trkpt>
      <trkpt lat="45.16334" lon="5.9598">
        <ele>2301.6</ele>
        <time>2020-08-11T10:37:37Z</time>
      </trkpt>
      <trkpt lat="45.16334" lon="5.95975">
        <ele>2301.2</ele>
        <time>2020-08-11T10:37:38Z</time>
      </trkpt>
      <trkpt lat="45.16333" lon="5.95972">
        <ele>2301.4</ele>
        <time>2020-08-11T10:37:39Z</time>
      </trkpt>
      <trkpt lat="45.16333" lon="5.95969">
        <ele>2300.8</ele>
        <time>2020-08-11T10:37:40Z</time>
      </trkpt>
      <trkpt lat="45.16333" lon="5.95967">
        <ele>2300.8</ele>
        <time>2020-08-11T10:37:41Z</time>
      </trkpt>
      <trkpt lat="45.16332" lon="5.95963">
        <ele>2300</ele>
        <time>2020-08-11T10:37:42Z</time>
      </trkpt>
      <trkpt lat="45.16332" lon="5.95959">
        <ele>2299.6</ele>
        <time>2020-08-11T10:37:43Z</time>
      </trkpt>
      <trkpt lat="45.16332" lon="5.95959">
        <ele>2300</ele>
        <time>2020-08-11T10:37:44Z</time>
      </trkpt>
      <trkpt lat="45.16331" lon="5.95955">
        <ele>2299.4</ele>
        <time>2020-08-11T10:37:45Z</time>
      </trkpt>
      <trkpt lat="45.1633" lon="5.95951">
        <ele>2299.4</ele>
        <time>2020-08-11T10:37:46Z</time>
      </trkpt>
      <trkpt lat="45.16329" lon="5.95947">
        <ele>2298.8</ele>
        <time>2020-08-11T10:37:47Z</time>
      </trkpt>
      <trkpt lat="45.16326" lon="5.95939">
        <ele>2298.2</ele>
        <time>2020-08-11T10:37:48Z</time>
      </trkpt>
      <trkpt lat="45.16326" lon="5.95937">
        <ele>2298.4</ele>
        <time>2020-08-11T10:37:49Z</time>
      </trkpt>
      <trkpt lat="45.16325" lon="5.95933">
        <ele>2298</ele>
        <time>2020-08-11T10:37:50Z</time>
      </trkpt>
      <trkpt lat="45.16324" lon="5.95931">
        <ele>2298.4</ele>
        <time>2020-08-11T10:37:51Z</time>
      </trkpt>
      <trkpt lat="45.16323" lon="5.95927">
        <ele>2297.8</ele>
        <time>2020-08-11T10:37:52Z</time>
      </trkpt>
      <trkpt lat="45.16322" lon="5.95924">
        <ele>2298</ele>
        <time>2020-08-11T10:37:53Z</time>
      </trkpt>
      <trkpt lat="45.16321" lon="5.95921">
        <ele>2297.6</ele>
        <time>2020-08-11T10:37:54Z</time>
      </trkpt>
      <trkpt lat="45.1632" lon="5.95918">
        <ele>2297</ele>
        <time>2020-08-11T10:37:55Z</time>
      </trkpt>
      <trkpt lat="45.16319" lon="5.95914">
        <ele>2297</ele>
        <time>2020-08-11T10:37:56Z</time>
      </trkpt>
      <trkpt lat="45.16317" lon="5.9591">
        <ele>2296.6</ele>
        <time>2020-08-11T10:37:57Z</time>
      </trkpt>
      <trkpt lat="45.16316" lon="5.95907">
        <ele>2296.4</ele>
        <time>2020-08-11T10:37:58Z</time>
      </trkpt>
      <trkpt lat="45.16316" lon="5.95903">
        <ele>2296</ele>
        <time>2020-08-11T10:37:59Z</time>
      </trkpt>
      <trkpt lat="45.16317" lon="5.95899">
        <ele>2295.8</ele>
        <time>2020-08-11T10:38:00Z</time>
      </trkpt>
      <trkpt lat="45.16318" lon="5.95896">
        <ele>2295.2</ele>
        <time>2020-08-11T10:38:01Z</time>
      </trkpt>
      <trkpt lat="45.16318" lon="5.95895">
        <ele>2295</ele>
        <time>2020-08-11T10:38:02Z</time>
      </trkpt>
      <trkpt lat="45.16318" lon="5.95891">
        <ele>2294.6</ele>
        <time>2020-08-11T10:38:03Z</time>
      </trkpt>
      <trkpt lat="45.16319" lon="5.95884">
        <ele>2294</ele>
        <time>2020-08-11T10:38:04Z</time>
      </trkpt>
      <trkpt lat="45.16319" lon="5.95884">
        <ele>2294.4</ele>
        <time>2020-08-11T10:38:05Z</time>
      </trkpt>
      <trkpt lat="45.1632" lon="5.9588">
        <ele>2294</ele>
        <time>2020-08-11T10:38:06Z</time>
      </trkpt>
      <trkpt lat="45.1632" lon="5.95877">
        <ele>2293.8</ele>
        <time>2020-08-11T10:38:07Z</time>
      </trkpt>
      <trkpt lat="45.1632" lon="5.95871">
        <ele>2293.6</ele>
        <time>2020-08-11T10:38:08Z</time>
      </trkpt>
      <trkpt lat="45.1632" lon="5.95871">
        <ele>2293.4</ele>
        <time>2020-08-11T10:38:09Z</time>
      </trkpt>
      <trkpt lat="45.16321" lon="5.95867">
        <ele>2292.6</ele>
        <time>2020-08-11T10:38:10Z</time>
      </trkpt>
      <trkpt lat="45.16321" lon="5.95865">
        <ele>2292.6</ele>
        <time>2020-08-11T10:38:11Z</time>
      </trkpt>
      <trkpt lat="45.16322" lon="5.95862">
        <ele>2292.4</ele>
        <time>2020-08-11T10:38:12Z</time>
      </trkpt>
      <trkpt lat="45.16322" lon="5.9586">
        <ele>2292</ele>
        <time>2020-08-11T10:38:13Z</time>
      </trkpt>
      <trkpt lat="45.16325" lon="5.95856">
        <ele>2291.8</ele>
        <time>2020-08-11T10:38:14Z</time>
      </trkpt>
      <trkpt lat="45.16325" lon="5.95856">
        <ele>2291.4</ele>
        <time>2020-08-11T10:38:15Z</time>
      </trkpt>
      <trkpt lat="45.16325" lon="5.95856">
        <ele>2291.6</ele>
        <time>2020-08-11T10:38:16Z</time>
      </trkpt>
      <trkpt lat="45.16326" lon="5.95854">
        <ele>2291.8</ele>
        <time>2020-08-11T10:38:17Z</time>
      </trkpt>
      <trkpt lat="45.16326" lon="5.95854">
        <ele>2291.8</ele>
        <time>2020-08-11T10:38:18Z</time>
      </trkpt>
      <trkpt lat="45.16327" lon="5.95851">
        <ele>2292</ele>
        <time>2020-08-11T10:38:19Z</time>
      </trkpt>
      <trkpt lat="45.16327" lon="5.95851">
        <ele>2292.2</ele>
        <time>2020-08-11T10:38:20Z</time>
      </trkpt>
      <trkpt lat="45.16328" lon="5.95849">
        <ele>2292</ele>
        <time>2020-08-11T10:38:21Z</time>
      </trkpt>
      <trkpt lat="45.16329" lon="5.95846">
        <ele>2291.6</ele>
        <time>2020-08-11T10:38:22Z</time>
      </trkpt>
      <trkpt lat="45.16329" lon="5.95846">
        <ele>2290.8</ele>
        <time>2020-08-11T10:38:23Z</time>
      </trkpt>
      <trkpt lat="45.1633" lon="5.95841">
        <ele>2291.2</ele>
        <time>2020-08-11T10:38:24Z</time>
      </trkpt>
      <trkpt lat="45.16331" lon="5.95836">
        <ele>2290.4</ele>
        <time>2020-08-11T10:38:25Z</time>
      </trkpt>
      <trkpt lat="45.16332" lon="5.95833">
        <ele>2290.8</ele>
        <time>2020-08-11T10:38:26Z</time>
      </trkpt>
      <trkpt lat="45.16332" lon="5.9583">
        <ele>2290.4</ele>
        <time>2020-08-11T10:38:27Z</time>
      </trkpt>
      <trkpt lat="45.16332" lon="5.9583">
        <ele>2290.4</ele>
        <time>2020-08-11T10:38:28Z</time>
      </trkpt>
      <trkpt lat="45.16334" lon="5.95827">
        <ele>2289.4</ele>
        <time>2020-08-11T10:38:29Z</time>
      </trkpt>
      <trkpt lat="45.16334" lon="5.95827">
        <ele>2289</ele>
        <time>2020-08-11T10:38:30Z</time>
      </trkpt>
      <trkpt lat="45.16335" lon="5.95824">
        <ele>2288.6</ele>
        <time>2020-08-11T10:38:31Z</time>
      </trkpt>
      <trkpt lat="45.16335" lon="5.95824">
        <ele>2288</ele>
        <time>2020-08-11T10:38:32Z</time>
      </trkpt>
      <trkpt lat="45.16336" lon="5.9582">
        <ele>2288.2</ele>
        <time>2020-08-11T10:38:33Z</time>
      </trkpt>
      <trkpt lat="45.16339" lon="5.95814">
        <ele>2287.8</ele>
        <time>2020-08-11T10:38:34Z</time>
      </trkpt>
      <trkpt lat="45.16341" lon="5.9581">
        <ele>2288</ele>
        <time>2020-08-11T10:38:35Z</time>
      </trkpt>
      <trkpt lat="45.16342" lon="5.95807">
        <ele>2287.6</ele>
        <time>2020-08-11T10:38:36Z</time>
      </trkpt>
      <trkpt lat="45.16344" lon="5.95804">
        <ele>2287.6</ele>
        <time>2020-08-11T10:38:37Z</time>
      </trkpt>
      <trkpt lat="45.16345" lon="5.95801">
        <ele>2287.2</ele>
        <time>2020-08-11T10:38:38Z</time>
      </trkpt>
      <trkpt lat="45.16345" lon="5.95801">
        <ele>2286.6</ele>
        <time>2020-08-11T10:38:39Z</time>
      </trkpt>
      <trkpt lat="45.16346" lon="5.95798">
        <ele>2287</ele>
        <time>2020-08-11T10:38:40Z</time>
      </trkpt>
      <trkpt lat="45.16348" lon="5.95794">
        <ele>2286.2</ele>
        <time>2020-08-11T10:38:41Z</time>
      </trkpt>
      <trkpt lat="45.1635" lon="5.95788">
        <ele>2286.4</ele>
        <time>2020-08-11T10:38:42Z</time>
      </trkpt>
      <trkpt lat="45.16351" lon="5.95785">
        <ele>2285.4</ele>
        <time>2020-08-11T10:38:43Z</time>
      </trkpt>
      <trkpt lat="45.16353" lon="5.95781">
        <ele>2284.8</ele>
        <time>2020-08-11T10:38:44Z</time>
      </trkpt>
      <trkpt lat="45.16353" lon="5.95781">
        <ele>2285</ele>
        <time>2020-08-11T10:38:45Z</time>
      </trkpt>
      <trkpt lat="45.16355" lon="5.95778">
        <ele>2284.4</ele>
        <time>2020-08-11T10:38:46Z</time>
      </trkpt>
      <trkpt lat="45.16359" lon="5.95773">
        <ele>2284.4</ele>
        <time>2020-08-11T10:38:47Z</time>
      </trkpt>
      <trkpt lat="45.16359" lon="5.95773">
        <ele>2283.6</ele>
        <time>2020-08-11T10:38:48Z</time>
      </trkpt>
      <trkpt lat="45.16361" lon="5.95772">
        <ele>2283.6</ele>
        <time>2020-08-11T10:38:49Z</time>
      </trkpt>
      <trkpt lat="45.16367" lon="5.95768">
        <ele>2283.2</ele>
        <time>2020-08-11T10:38:50Z</time>
      </trkpt>
      <trkpt lat="45.1637" lon="5.95767">
        <ele>2283.4</ele>
        <time>2020-08-11T10:38:51Z</time>
      </trkpt>
      <trkpt lat="45.16373" lon="5.95764">
        <ele>2283</ele>
        <time>2020-08-11T10:38:52Z</time>
      </trkpt>
      <trkpt lat="45.16375" lon="5.95761">
        <ele>2282.8</ele>
        <time>2020-08-11T10:38:53Z</time>
      </trkpt>
      <trkpt lat="45.16375" lon="5.95761">
        <ele>2282.4</ele>
        <time>2020-08-11T10:38:54Z</time>
      </trkpt>
      <trkpt lat="45.16377" lon="5.95758">
        <ele>2282.2</ele>
        <time>2020-08-11T10:38:55Z</time>
      </trkpt>
      <trkpt lat="45.16381" lon="5.95752">
        <ele>2282.6</ele>
        <time>2020-08-11T10:38:56Z</time>
      </trkpt>
      <trkpt lat="45.16384" lon="5.95749">
        <ele>2282</ele>
        <time>2020-08-11T10:38:57Z</time>
      </trkpt>
      <trkpt lat="45.16386" lon="5.95747">
        <ele>2282</ele>
        <time>2020-08-11T10:38:58Z</time>
      </trkpt>
      <trkpt lat="45.16389" lon="5.95745">
        <ele>2281.8</ele>
        <time>2020-08-11T10:38:59Z</time>
      </trkpt>
      <trkpt lat="45.16391" lon="5.95742">
        <ele>2281.2</ele>
        <time>2020-08-11T10:39:00Z</time>
      </trkpt>
      <trkpt lat="45.16393" lon="5.95739">
        <ele>2281</ele>
        <time>2020-08-11T10:39:01Z</time>
      </trkpt>
      <trkpt lat="45.16395" lon="5.95736">
        <ele>2280.6</ele>
        <time>2020-08-11T10:39:02Z</time>
      </trkpt>
      <trkpt lat="45.16397" lon="5.95733">
        <ele>2281.2</ele>
        <time>2020-08-11T10:39:03Z</time>
      </trkpt>
      <trkpt lat="45.16398" lon="5.9573">
        <ele>2280.8</ele>
        <time>2020-08-11T10:39:04Z</time>
      </trkpt>
      <trkpt lat="45.164" lon="5.95726">
        <ele>2281</ele>
        <time>2020-08-11T10:39:05Z</time>
      </trkpt>
      <trkpt lat="45.16402" lon="5.95723">
        <ele>2280.2</ele>
        <time>2020-08-11T10:39:06Z</time>
      </trkpt>
      <trkpt lat="45.16402" lon="5.95723">
        <ele>2279.2</ele>
        <time>2020-08-11T10:39:07Z</time>
      </trkpt>
      <trkpt lat="45.16403" lon="5.95719">
        <ele>2279.8</ele>
        <time>2020-08-11T10:39:08Z</time>
      </trkpt>
      <trkpt lat="45.16406" lon="5.95712">
        <ele>2279.6</ele>
        <time>2020-08-11T10:39:09Z</time>
      </trkpt>
      <trkpt lat="45.16406" lon="5.95712">
        <ele>2279.6</ele>
        <time>2020-08-11T10:39:10Z</time>
      </trkpt>
      <trkpt lat="45.16407" lon="5.95708">
        <ele>2279</ele>
        <time>2020-08-11T10:39:11Z</time>
      </trkpt>
      <trkpt lat="45.16408" lon="5.95701">
        <ele>2278.6</ele>
        <time>2020-08-11T10:39:12Z</time>
      </trkpt>
      <trkpt lat="45.16409" lon="5.95697">
        <ele>2278.8</ele>
        <time>2020-08-11T10:39:13Z</time>
      </trkpt>
      <trkpt lat="45.1641" lon="5.95694">
        <ele>2278.4</ele>
        <time>2020-08-11T10:39:14Z</time>
      </trkpt>
      <trkpt lat="45.1641" lon="5.95694">
        <ele>2278.6</ele>
        <time>2020-08-11T10:39:15Z</time>
      </trkpt>
      <trkpt lat="45.16411" lon="5.95691">
        <ele>2278.4</ele>
        <time>2020-08-11T10:39:16Z</time>
      </trkpt>
      <trkpt lat="45.16412" lon="5.95688">
        <ele>2278.2</ele>
        <time>2020-08-11T10:39:17Z</time>
      </trkpt>
      <trkpt lat="45.16413" lon="5.95685">
        <ele>2277.6</ele>
        <time>2020-08-11T10:39:18Z</time>
      </trkpt>
      <trkpt lat="45.16415" lon="5.95679">
        <ele>2277.2</ele>
        <time>2020-08-11T10:39:19Z</time>
      </trkpt>
      <trkpt lat="45.16415" lon="5.95679">
        <ele>2277</ele>
        <time>2020-08-11T10:39:20Z</time>
      </trkpt>
      <trkpt lat="45.16416" lon="5.95675">
        <ele>2276.6</ele>
        <time>2020-08-11T10:39:21Z</time>
      </trkpt>
      <trkpt lat="45.16418" lon="5.95669">
        <ele>2276.8</ele>
        <time>2020-08-11T10:39:22Z</time>
      </trkpt>
      <trkpt lat="45.16418" lon="5.95669">
        <ele>2276.8</ele>
        <time>2020-08-11T10:39:23Z</time>
      </trkpt>
      <trkpt lat="45.16419" lon="5.95666">
        <ele>2277.4</ele>
        <time>2020-08-11T10:39:24Z</time>
      </trkpt>
      <trkpt lat="45.16421" lon="5.95662">
        <ele>2277.2</ele>
        <time>2020-08-11T10:39:25Z</time>
      </trkpt>
      <trkpt lat="45.16424" lon="5.95657">
        <ele>2277.2</ele>
        <time>2020-08-11T10:39:26Z</time>
      </trkpt>
      <trkpt lat="45.16425" lon="5.95654">
        <ele>2276.8</ele>
        <time>2020-08-11T10:39:27Z</time>
      </trkpt>
      <trkpt lat="45.16425" lon="5.95651">
        <ele>2276.6</ele>
        <time>2020-08-11T10:39:28Z</time>
      </trkpt>
      <trkpt lat="45.16427" lon="5.95648">
        <ele>2276.6</ele>
        <time>2020-08-11T10:39:29Z</time>
      </trkpt>
      <trkpt lat="45.16427" lon="5.95648">
        <ele>2276.4</ele>
        <time>2020-08-11T10:39:30Z</time>
      </trkpt>
      <trkpt lat="45.16427" lon="5.95645">
        <ele>2276.8</ele>
        <time>2020-08-11T10:39:31Z</time>
      </trkpt>
      <trkpt lat="45.16427" lon="5.95645">
        <ele>2277.6</ele>
        <time>2020-08-11T10:39:32Z</time>
      </trkpt>
      <trkpt lat="45.16427" lon="5.95641">
        <ele>2277.4</ele>
        <time>2020-08-11T10:39:33Z</time>
      </trkpt>
      <trkpt lat="45.16427" lon="5.95641">
        <ele>2277.2</ele>
        <time>2020-08-11T10:39:34Z</time>
      </trkpt>
      <trkpt lat="45.16427" lon="5.95636">
        <ele>2277.2</ele>
        <time>2020-08-11T10:39:35Z</time>
      </trkpt>
      <trkpt lat="45.16427" lon="5.95636">
        <ele>2277.2</ele>
        <time>2020-08-11T10:39:36Z</time>
      </trkpt>
      <trkpt lat="45.16426" lon="5.95633">
        <ele>2277.2</ele>
        <time>2020-08-11T10:39:37Z</time>
      </trkpt>
      <trkpt lat="45.16426" lon="5.95629">
        <ele>2277.4</ele>
        <time>2020-08-11T10:39:38Z</time>
      </trkpt>
      <trkpt lat="45.16426" lon="5.95629">
        <ele>2277.6</ele>
        <time>2020-08-11T10:39:39Z</time>
      </trkpt>
      <trkpt lat="45.16426" lon="5.95629">
        <ele>2277.8</ele>
        <time>2020-08-11T10:39:40Z</time>
      </trkpt>
      <trkpt lat="45.16426" lon="5.95626">
        <ele>2277.8</ele>
        <time>2020-08-11T10:39:41Z</time>
      </trkpt>
      <trkpt lat="45.16426" lon="5.95626">
        <ele>2278.2</ele>
        <time>2020-08-11T10:39:42Z</time>
      </trkpt>
      <trkpt lat="45.16425" lon="5.95623">
        <ele>2278.4</ele>
        <time>2020-08-11T10:39:43Z</time>
      </trkpt>
      <trkpt lat="45.16425" lon="5.95623">
        <ele>2278.4</ele>
        <time>2020-08-11T10:39:44Z</time>
      </trkpt>
      <trkpt lat="45.16425" lon="5.9562">
        <ele>2278.8</ele>
        <time>2020-08-11T10:39:45Z</time>
      </trkpt>
      <trkpt lat="45.16425" lon="5.9562">
        <ele>2279</ele>
        <time>2020-08-11T10:39:46Z</time>
      </trkpt>
      <trkpt lat="45.16426" lon="5.95618">
        <ele>2279.2</ele>
        <time>2020-08-11T10:39:47Z</time>
      </trkpt>
      <trkpt lat="45.16426" lon="5.95617">
        <ele>2279.2</ele>
        <time>2020-08-11T10:39:48Z</time>
      </trkpt>
      <trkpt lat="45.16426" lon="5.95615">
        <ele>2279.2</ele>
        <time>2020-08-11T10:39:49Z</time>
      </trkpt>
      <trkpt lat="45.16427" lon="5.95614">
        <ele>2279</ele>
        <time>2020-08-11T10:39:50Z</time>
      </trkpt>
      <trkpt lat="45.16427" lon="5.95612">
        <ele>2278.8</ele>
        <time>2020-08-11T10:39:51Z</time>
      </trkpt>
      <trkpt lat="45.16427" lon="5.95611">
        <ele>2278.8</ele>
        <time>2020-08-11T10:39:52Z</time>
      </trkpt>
      <trkpt lat="45.16428" lon="5.95609">
        <ele>2279</ele>
        <time>2020-08-11T10:39:53Z</time>
      </trkpt>
      <trkpt lat="45.16428" lon="5.95608">
        <ele>2279.2</ele>
        <time>2020-08-11T10:39:54Z</time>
      </trkpt>
      <trkpt lat="45.16428" lon="5.95606">
        <ele>2279.4</ele>
        <time>2020-08-11T10:39:55Z</time>
      </trkpt>
      <trkpt lat="45.16429" lon="5.95605">
        <ele>2279.6</ele>
        <time>2020-08-11T10:39:56Z</time>
      </trkpt>
      <trkpt lat="45.16429" lon="5.95603">
        <ele>2279.8</ele>
        <time>2020-08-11T10:39:57Z</time>
      </trkpt>
      <trkpt lat="45.16429" lon="5.95602">
        <ele>2279.8</ele>
        <time>2020-08-11T10:39:58Z</time>
      </trkpt>
      <trkpt lat="45.16429" lon="5.95601">
        <ele>2280</ele>
        <time>2020-08-11T10:39:59Z</time>
      </trkpt>
      <trkpt lat="45.1643" lon="5.95599">
        <ele>2280</ele>
        <time>2020-08-11T10:40:01Z</time>
      </trkpt>
      <trkpt lat="45.1643" lon="5.95598">
        <ele>2280</ele>
        <time>2020-08-11T10:40:02Z</time>
      </trkpt>
      <trkpt lat="45.1643" lon="5.95597">
        <ele>2280</ele>
        <time>2020-08-11T10:40:03Z</time>
      </trkpt>
      <trkpt lat="45.1643" lon="5.95595">
        <ele>2279.8</ele>
        <time>2020-08-11T10:40:04Z</time>
      </trkpt>
      <trkpt lat="45.16431" lon="5.95594">
        <ele>2280.2</ele>
        <time>2020-08-11T10:40:05Z</time>
      </trkpt>
      <trkpt lat="45.16431" lon="5.95593">
        <ele>2280.6</ele>
        <time>2020-08-11T10:40:06Z</time>
      </trkpt>
      <trkpt lat="45.16432" lon="5.95588">
        <ele>2280.8</ele>
        <time>2020-08-11T10:40:07Z</time>
      </trkpt>
      <trkpt lat="45.16432" lon="5.95586">
        <ele>2280.6</ele>
        <time>2020-08-11T10:40:08Z</time>
      </trkpt>
      <trkpt lat="45.16432" lon="5.95586">
        <ele>2280.6</ele>
        <time>2020-08-11T10:40:09Z</time>
      </trkpt>
      <trkpt lat="45.16433" lon="5.95581">
        <ele>2280.6</ele>
        <time>2020-08-11T10:40:10Z</time>
      </trkpt>
      <trkpt lat="45.16433" lon="5.95581">
        <ele>2280.6</ele>
        <time>2020-08-11T10:40:11Z</time>
      </trkpt>
      <trkpt lat="45.16433" lon="5.95577">
        <ele>2280.8</ele>
        <time>2020-08-11T10:40:12Z</time>
      </trkpt>
      <trkpt lat="45.16433" lon="5.95577">
        <ele>2281</ele>
        <time>2020-08-11T10:40:14Z</time>
      </trkpt>
      <trkpt lat="45.16433" lon="5.95577">
        <ele>2281</ele>
        <time>2020-08-11T10:40:15Z</time>
      </trkpt>
      <trkpt lat="45.16433" lon="5.95574">
        <ele>2281</ele>
        <time>2020-08-11T10:40:16Z</time>
      </trkpt>
      <trkpt lat="45.16433" lon="5.95574">
        <ele>2281</ele>
        <time>2020-08-11T10:40:17Z</time>
      </trkpt>
      <trkpt lat="45.16434" lon="5.95569">
        <ele>2281</ele>
        <time>2020-08-11T10:40:18Z</time>
      </trkpt>
      <trkpt lat="45.16434" lon="5.95569">
        <ele>2281</ele>
        <time>2020-08-11T10:40:19Z</time>
      </trkpt>
      <trkpt lat="45.16434" lon="5.95569">
        <ele>2281.2</ele>
        <time>2020-08-11T10:40:20Z</time>
      </trkpt>
      <trkpt lat="45.16434" lon="5.95567">
        <ele>2281.2</ele>
        <time>2020-08-11T10:40:21Z</time>
      </trkpt>
      <trkpt lat="45.16434" lon="5.95567">
        <ele>2281.2</ele>
        <time>2020-08-11T10:40:22Z</time>
      </trkpt>
      <trkpt lat="45.16435" lon="5.95563">
        <ele>2281.2</ele>
        <time>2020-08-11T10:40:23Z</time>
      </trkpt>
      <trkpt lat="45.16435" lon="5.95563">
        <ele>2281.4</ele>
        <time>2020-08-11T10:40:24Z</time>
      </trkpt>
      <trkpt lat="45.16436" lon="5.9556">
        <ele>2281.6</ele>
        <time>2020-08-11T10:40:25Z</time>
      </trkpt>
      <trkpt lat="45.16436" lon="5.9556">
        <ele>2281.8</ele>
        <time>2020-08-11T10:40:26Z</time>
      </trkpt>
      <trkpt lat="45.16437" lon="5.95556">
        <ele>2281.6</ele>
        <time>2020-08-11T10:40:27Z</time>
      </trkpt>
      <trkpt lat="45.16438" lon="5.95553">
        <ele>2282</ele>
        <time>2020-08-11T10:40:28Z</time>
      </trkpt>
      <trkpt lat="45.16438" lon="5.95551">
        <ele>2282</ele>
        <time>2020-08-11T10:40:29Z</time>
      </trkpt>
      <trkpt lat="45.16438" lon="5.95551">
        <ele>2281.8</ele>
        <time>2020-08-11T10:40:30Z</time>
      </trkpt>
      <trkpt lat="45.16439" lon="5.95547">
        <ele>2281.6</ele>
        <time>2020-08-11T10:40:31Z</time>
      </trkpt>
      <trkpt lat="45.16438" lon="5.95542">
        <ele>2281.6</ele>
        <time>2020-08-11T10:40:32Z</time>
      </trkpt>
      <trkpt lat="45.16437" lon="5.9554">
        <ele>2281.4</ele>
        <time>2020-08-11T10:40:33Z</time>
      </trkpt>
      <trkpt lat="45.16437" lon="5.95537">
        <ele>2280.4</ele>
        <time>2020-08-11T10:40:34Z</time>
      </trkpt>
      <trkpt lat="45.16436" lon="5.95535">
        <ele>2280.6</ele>
        <time>2020-08-11T10:40:35Z</time>
      </trkpt>
      <trkpt lat="45.16435" lon="5.95533">
        <ele>2280.2</ele>
        <time>2020-08-11T10:40:36Z</time>
      </trkpt>
      <trkpt lat="45.16435" lon="5.95532">
        <ele>2279.6</ele>
        <time>2020-08-11T10:40:37Z</time>
      </trkpt>
      <trkpt lat="45.16434" lon="5.9553">
        <ele>2279.2</ele>
        <time>2020-08-11T10:40:38Z</time>
      </trkpt>
      <trkpt lat="45.16434" lon="5.9553">
        <ele>2278.8</ele>
        <time>2020-08-11T10:40:39Z</time>
      </trkpt>
      <trkpt lat="45.16434" lon="5.95525">
        <ele>2279</ele>
        <time>2020-08-11T10:40:40Z</time>
      </trkpt>
      <trkpt lat="45.16434" lon="5.95525">
        <ele>2278.2</ele>
        <time>2020-08-11T10:40:41Z</time>
      </trkpt>
      <trkpt lat="45.16434" lon="5.95522">
        <ele>2278.4</ele>
        <time>2020-08-11T10:40:42Z</time>
      </trkpt>
      <trkpt lat="45.16434" lon="5.95522">
        <ele>2278.2</ele>
        <time>2020-08-11T10:40:43Z</time>
      </trkpt>
      <trkpt lat="45.16434" lon="5.95518">
        <ele>2278.4</ele>
        <time>2020-08-11T10:40:44Z</time>
      </trkpt>
      <trkpt lat="45.16435" lon="5.95515">
        <ele>2278</ele>
        <time>2020-08-11T10:40:45Z</time>
      </trkpt>
      <trkpt lat="45.16435" lon="5.95512">
        <ele>2278.2</ele>
        <time>2020-08-11T10:40:46Z</time>
      </trkpt>
      <trkpt lat="45.16436" lon="5.95509">
        <ele>2278</ele>
        <time>2020-08-11T10:40:47Z</time>
      </trkpt>
      <trkpt lat="45.16437" lon="5.95506">
        <ele>2278.2</ele>
        <time>2020-08-11T10:40:48Z</time>
      </trkpt>
      <trkpt lat="45.16438" lon="5.95503">
        <ele>2277.8</ele>
        <time>2020-08-11T10:40:49Z</time>
      </trkpt>
      <trkpt lat="45.16439" lon="5.955">
        <ele>2278</ele>
        <time>2020-08-11T10:40:50Z</time>
      </trkpt>
      <trkpt lat="45.1644" lon="5.95498">
        <ele>2277.8</ele>
        <time>2020-08-11T10:40:51Z</time>
      </trkpt>
      <trkpt lat="45.16442" lon="5.95495">
        <ele>2278.2</ele>
        <time>2020-08-11T10:40:52Z</time>
      </trkpt>
      <trkpt lat="45.16443" lon="5.95493">
        <ele>2278</ele>
        <time>2020-08-11T10:40:53Z</time>
      </trkpt>
      <trkpt lat="45.16443" lon="5.95493">
        <ele>2278.2</ele>
        <time>2020-08-11T10:40:54Z</time>
      </trkpt>
      <trkpt lat="45.16443" lon="5.95493">
        <ele>2278</ele>
        <time>2020-08-11T10:40:55Z</time>
      </trkpt>
      <trkpt lat="45.16446" lon="5.9549">
        <ele>2278.2</ele>
        <time>2020-08-11T10:40:56Z</time>
      </trkpt>
      <trkpt lat="45.16448" lon="5.95488">
        <ele>2277.8</ele>
        <time>2020-08-11T10:40:57Z</time>
      </trkpt>
      <trkpt lat="45.16451" lon="5.95485">
        <ele>2278</ele>
        <time>2020-08-11T10:40:58Z</time>
      </trkpt>
      <trkpt lat="45.16454" lon="5.95482">
        <ele>2277.6</ele>
        <time>2020-08-11T10:40:59Z</time>
      </trkpt>
      <trkpt lat="45.16456" lon="5.95479">
        <ele>2277.6</ele>
        <time>2020-08-11T10:41:00Z</time>
      </trkpt>
      <trkpt lat="45.16459" lon="5.95475">
        <ele>2277.4</ele>
        <time>2020-08-11T10:41:01Z</time>
      </trkpt>
      <trkpt lat="45.16462" lon="5.95471">
        <ele>2277.6</ele>
        <time>2020-08-11T10:41:02Z</time>
      </trkpt>
      <trkpt lat="45.16464" lon="5.95468">
        <ele>2277.4</ele>
        <time>2020-08-11T10:41:03Z</time>
      </trkpt>
      <trkpt lat="45.16465" lon="5.95465">
        <ele>2277.6</ele>
        <time>2020-08-11T10:41:04Z</time>
      </trkpt>
      <trkpt lat="45.16467" lon="5.95462">
        <ele>2277.4</ele>
        <time>2020-08-11T10:41:05Z</time>
      </trkpt>
      <trkpt lat="45.16469" lon="5.95458">
        <ele>2277.8</ele>
        <time>2020-08-11T10:41:06Z</time>
      </trkpt>
      <trkpt lat="45.1647" lon="5.95453">
        <ele>2277.6</ele>
        <time>2020-08-11T10:41:07Z</time>
      </trkpt>
      <trkpt lat="45.16472" lon="5.95449">
        <ele>2277.8</ele>
        <time>2020-08-11T10:41:08Z</time>
      </trkpt>
      <trkpt lat="45.16473" lon="5.95444">
        <ele>2277.4</ele>
        <time>2020-08-11T10:41:09Z</time>
      </trkpt>
      <trkpt lat="45.16474" lon="5.95439">
        <ele>2277.2</ele>
        <time>2020-08-11T10:41:10Z</time>
      </trkpt>
      <trkpt lat="45.16476" lon="5.95434">
        <ele>2276.8</ele>
        <time>2020-08-11T10:41:11Z</time>
      </trkpt>
      <trkpt lat="45.16476" lon="5.95434">
        <ele>2277</ele>
        <time>2020-08-11T10:41:12Z</time>
      </trkpt>
      <trkpt lat="45.16478" lon="5.9543">
        <ele>2276.8</ele>
        <time>2020-08-11T10:41:13Z</time>
      </trkpt>
      <trkpt lat="45.16481" lon="5.95424">
        <ele>2277.2</ele>
        <time>2020-08-11T10:41:14Z</time>
      </trkpt>
      <trkpt lat="45.16483" lon="5.95422">
        <ele>2277</ele>
        <time>2020-08-11T10:41:15Z</time>
      </trkpt>
      <trkpt lat="45.16483" lon="5.95422">
        <ele>2277.2</ele>
        <time>2020-08-11T10:41:16Z</time>
      </trkpt>
      <trkpt lat="45.16485" lon="5.9542">
        <ele>2277</ele>
        <time>2020-08-11T10:41:17Z</time>
      </trkpt>
      <trkpt lat="45.16487" lon="5.95419">
        <ele>2277.2</ele>
        <time>2020-08-11T10:41:18Z</time>
      </trkpt>
      <trkpt lat="45.16489" lon="5.95418">
        <ele>2277</ele>
        <time>2020-08-11T10:41:19Z</time>
      </trkpt>
      <trkpt lat="45.16492" lon="5.95416">
        <ele>2276.8</ele>
        <time>2020-08-11T10:41:20Z</time>
      </trkpt>
      <trkpt lat="45.16495" lon="5.95414">
        <ele>2276.6</ele>
        <time>2020-08-11T10:41:21Z</time>
      </trkpt>
      <trkpt lat="45.16497" lon="5.95413">
        <ele>2275.6</ele>
        <time>2020-08-11T10:41:22Z</time>
      </trkpt>
      <trkpt lat="45.16499" lon="5.95411">
        <ele>2276.6</ele>
        <time>2020-08-11T10:41:23Z</time>
      </trkpt>
      <trkpt lat="45.16499" lon="5.95411">
        <ele>2276.4</ele>
        <time>2020-08-11T10:41:24Z</time>
      </trkpt>
      <trkpt lat="45.16501" lon="5.9541">
        <ele>2277</ele>
        <time>2020-08-11T10:41:25Z</time>
      </trkpt>
      <trkpt lat="45.16504" lon="5.95408">
        <ele>2276.6</ele>
        <time>2020-08-11T10:41:26Z</time>
      </trkpt>
      <trkpt lat="45.16506" lon="5.95403">
        <ele>2277</ele>
        <time>2020-08-11T10:41:27Z</time>
      </trkpt>
      <trkpt lat="45.16506" lon="5.95403">
        <ele>2277</ele>
        <time>2020-08-11T10:41:28Z</time>
      </trkpt>
      <trkpt lat="45.16507" lon="5.95401">
        <ele>2276.2</ele>
        <time>2020-08-11T10:41:29Z</time>
      </trkpt>
      <trkpt lat="45.16508" lon="5.95394">
        <ele>2276.6</ele>
        <time>2020-08-11T10:41:30Z</time>
      </trkpt>
      <trkpt lat="45.16508" lon="5.95394">
        <ele>2276.4</ele>
        <time>2020-08-11T10:41:31Z</time>
      </trkpt>
      <trkpt lat="45.16507" lon="5.95391">
        <ele>2276.4</ele>
        <time>2020-08-11T10:41:32Z</time>
      </trkpt>
      <trkpt lat="45.16508" lon="5.95387">
        <ele>2276</ele>
        <time>2020-08-11T10:41:33Z</time>
      </trkpt>
      <trkpt lat="45.16508" lon="5.95387">
        <ele>2276.6</ele>
        <time>2020-08-11T10:41:34Z</time>
      </trkpt>
      <trkpt lat="45.1651" lon="5.95384">
        <ele>2276.6</ele>
        <time>2020-08-11T10:41:35Z</time>
      </trkpt>
      <trkpt lat="45.1651" lon="5.95384">
        <ele>2277.2</ele>
        <time>2020-08-11T10:41:36Z</time>
      </trkpt>
      <trkpt lat="45.1651" lon="5.95384">
        <ele>2277.2</ele>
        <time>2020-08-11T10:41:37Z</time>
      </trkpt>
      <trkpt lat="45.16511" lon="5.95381">
        <ele>2277.8</ele>
        <time>2020-08-11T10:41:38Z</time>
      </trkpt>
      <trkpt lat="45.16513" lon="5.95378">
        <ele>2277.8</ele>
        <time>2020-08-11T10:41:39Z</time>
      </trkpt>
      <trkpt lat="45.16515" lon="5.95376">
        <ele>2277.8</ele>
        <time>2020-08-11T10:41:40Z</time>
      </trkpt>
      <trkpt lat="45.16517" lon="5.95374">
        <ele>2278.2</ele>
        <time>2020-08-11T10:41:41Z</time>
      </trkpt>
      <trkpt lat="45.16517" lon="5.95374">
        <ele>2278.2</ele>
        <time>2020-08-11T10:41:42Z</time>
      </trkpt>
      <trkpt lat="45.16517" lon="5.95374">
        <ele>2278.6</ele>
        <time>2020-08-11T10:41:43Z</time>
      </trkpt>
      <trkpt lat="45.1652" lon="5.95371">
        <ele>2278.2</ele>
        <time>2020-08-11T10:41:44Z</time>
      </trkpt>
      <trkpt lat="45.1652" lon="5.95371">
        <ele>2277.8</ele>
        <time>2020-08-11T10:41:45Z</time>
      </trkpt>
      <trkpt lat="45.16523" lon="5.9537">
        <ele>2277.4</ele>
        <time>2020-08-11T10:41:46Z</time>
      </trkpt>
      <trkpt lat="45.16525" lon="5.95369">
        <ele>2276.8</ele>
        <time>2020-08-11T10:41:47Z</time>
      </trkpt>
      <trkpt lat="45.16527" lon="5.95368">
        <ele>2277.2</ele>
        <time>2020-08-11T10:41:48Z</time>
      </trkpt>
      <trkpt lat="45.16529" lon="5.95367">
        <ele>2276.8</ele>
        <time>2020-08-11T10:41:49Z</time>
      </trkpt>
      <trkpt lat="45.1653" lon="5.95365">
        <ele>2277</ele>
        <time>2020-08-11T10:41:50Z</time>
      </trkpt>
      <trkpt lat="45.16531" lon="5.95364">
        <ele>2276</ele>
        <time>2020-08-11T10:41:51Z</time>
      </trkpt>
      <trkpt lat="45.16533" lon="5.95363">
        <ele>2275.8</ele>
        <time>2020-08-11T10:41:52Z</time>
      </trkpt>
      <trkpt lat="45.16533" lon="5.95363">
        <ele>2275.8</ele>
        <time>2020-08-11T10:41:53Z</time>
      </trkpt>
      <trkpt lat="45.16535" lon="5.95363">
        <ele>2275.6</ele>
        <time>2020-08-11T10:41:54Z</time>
      </trkpt>
      <trkpt lat="45.16535" lon="5.95363">
        <ele>2275.2</ele>
        <time>2020-08-11T10:41:55Z</time>
      </trkpt>
      <trkpt lat="45.16535" lon="5.95363">
        <ele>2275</ele>
        <time>2020-08-11T10:41:56Z</time>
      </trkpt>
      <trkpt lat="45.16535" lon="5.95363">
        <ele>2274.8</ele>
        <time>2020-08-11T10:41:57Z</time>
      </trkpt>
      <trkpt lat="45.16538" lon="5.95362">
        <ele>2274.6</ele>
        <time>2020-08-11T10:41:58Z</time>
      </trkpt>
      <trkpt lat="45.16538" lon="5.95362">
        <ele>2275</ele>
        <time>2020-08-11T10:41:59Z</time>
      </trkpt>
      <trkpt lat="45.1654" lon="5.95362">
        <ele>2274.8</ele>
        <time>2020-08-11T10:42:00Z</time>
      </trkpt>
      <trkpt lat="45.16543" lon="5.95362">
        <ele>2274.6</ele>
        <time>2020-08-11T10:42:01Z</time>
      </trkpt>
      <trkpt lat="45.16545" lon="5.95362">
        <ele>2274.2</ele>
        <time>2020-08-11T10:42:02Z</time>
      </trkpt>
      <trkpt lat="45.16545" lon="5.95362">
        <ele>2274.2</ele>
        <time>2020-08-11T10:42:03Z</time>
      </trkpt>
      <trkpt lat="45.16546" lon="5.95362">
        <ele>2273.8</ele>
        <time>2020-08-11T10:42:04Z</time>
      </trkpt>
      <trkpt lat="45.16547" lon="5.95363">
        <ele>2273.8</ele>
        <time>2020-08-11T10:42:05Z</time>
      </trkpt>
      <trkpt lat="45.16548" lon="5.95363">
        <ele>2274</ele>
        <time>2020-08-11T10:42:06Z</time>
      </trkpt>
      <trkpt lat="45.16548" lon="5.95364">
        <ele>2273.8</ele>
        <time>2020-08-11T10:42:07Z</time>
      </trkpt>
      <trkpt lat="45.16549" lon="5.95365">
        <ele>2273.6</ele>
        <time>2020-08-11T10:42:08Z</time>
      </trkpt>
      <trkpt lat="45.1655" lon="5.95365">
        <ele>2273.8</ele>
        <time>2020-08-11T10:42:09Z</time>
      </trkpt>
      <trkpt lat="45.16551" lon="5.95366">
        <ele>2274</ele>
        <time>2020-08-11T10:42:10Z</time>
      </trkpt>
      <trkpt lat="45.16551" lon="5.95366">
        <ele>2273.8</ele>
        <time>2020-08-11T10:42:11Z</time>
      </trkpt>
      <trkpt lat="45.16552" lon="5.95367">
        <ele>2274</ele>
        <time>2020-08-11T10:42:12Z</time>
      </trkpt>
      <trkpt lat="45.16553" lon="5.95367">
        <ele>2274.2</ele>
        <time>2020-08-11T10:42:13Z</time>
      </trkpt>
      <trkpt lat="45.16553" lon="5.95367">
        <ele>2274.2</ele>
        <time>2020-08-11T10:42:14Z</time>
      </trkpt>
      <trkpt lat="45.16553" lon="5.95367">
        <ele>2273.8</ele>
        <time>2020-08-11T10:42:15Z</time>
      </trkpt>
      <trkpt lat="45.16553" lon="5.95367">
        <ele>2273.6</ele>
        <time>2020-08-11T10:42:16Z</time>
      </trkpt>
      <trkpt lat="45.16553" lon="5.95367">
        <ele>2273.4</ele>
        <time>2020-08-11T10:42:17Z</time>
      </trkpt>
      <trkpt lat="45.16553" lon="5.95367">
        <ele>2273.8</ele>
        <time>2020-08-11T10:42:18Z</time>
      </trkpt>
      <trkpt lat="45.16553" lon="5.95367">
        <ele>2273.6</ele>
        <time>2020-08-11T10:42:19Z</time>
      </trkpt>
      <trkpt lat="45.16553" lon="5.95367">
        <ele>2273.6</ele>
        <time>2020-08-11T10:42:20Z</time>
      </trkpt>
      <trkpt lat="45.16552" lon="5.95372">
        <ele>2273.2</ele>
        <time>2020-08-11T10:42:21Z</time>
      </trkpt>
      <trkpt lat="45.16552" lon="5.95372">
        <ele>2273.2</ele>
        <time>2020-08-11T10:42:22Z</time>
      </trkpt>
      <trkpt lat="45.16553" lon="5.95371">
        <ele>2272.8</ele>
        <time>2020-08-11T10:42:23Z</time>
      </trkpt>
      <trkpt lat="45.16554" lon="5.95371">
        <ele>2272.4</ele>
        <time>2020-08-11T10:42:24Z</time>
      </trkpt>
      <trkpt lat="45.16554" lon="5.95371">
        <ele>2272</ele>
        <time>2020-08-11T10:42:25Z</time>
      </trkpt>
      <trkpt lat="45.16555" lon="5.9537">
        <ele>2271.8</ele>
        <time>2020-08-11T10:42:26Z</time>
      </trkpt>
      <trkpt lat="45.16556" lon="5.9537">
        <ele>2271.8</ele>
        <time>2020-08-11T10:42:27Z</time>
      </trkpt>
      <trkpt lat="45.16557" lon="5.9537">
        <ele>2271.6</ele>
        <time>2020-08-11T10:42:28Z</time>
      </trkpt>
      <trkpt lat="45.16559" lon="5.95368">
        <ele>2271.4</ele>
        <time>2020-08-11T10:42:29Z</time>
      </trkpt>
      <trkpt lat="45.16559" lon="5.95368">
        <ele>2271.6</ele>
        <time>2020-08-11T10:42:30Z</time>
      </trkpt>
      <trkpt lat="45.16559" lon="5.95368">
        <ele>2271</ele>
        <time>2020-08-11T10:42:31Z</time>
      </trkpt>
      <trkpt lat="45.1656" lon="5.95365">
        <ele>2271.2</ele>
        <time>2020-08-11T10:42:32Z</time>
      </trkpt>
      <trkpt lat="45.1656" lon="5.95365">
        <ele>2271</ele>
        <time>2020-08-11T10:42:33Z</time>
      </trkpt>
      <trkpt lat="45.1656" lon="5.95365">
        <ele>2271</ele>
        <time>2020-08-11T10:42:34Z</time>
      </trkpt>
      <trkpt lat="45.16562" lon="5.95366">
        <ele>2271</ele>
        <time>2020-08-11T10:42:35Z</time>
      </trkpt>
      <trkpt lat="45.16562" lon="5.95366">
        <ele>2270.2</ele>
        <time>2020-08-11T10:42:36Z</time>
      </trkpt>
      <trkpt lat="45.16562" lon="5.95365">
        <ele>2270.2</ele>
        <time>2020-08-11T10:42:37Z</time>
      </trkpt>
      <trkpt lat="45.16562" lon="5.95364">
        <ele>2270.2</ele>
        <time>2020-08-11T10:42:38Z</time>
      </trkpt>
      <trkpt lat="45.16563" lon="5.95363">
        <ele>2270.4</ele>
        <time>2020-08-11T10:42:39Z</time>
      </trkpt>
      <trkpt lat="45.16563" lon="5.95362">
        <ele>2270.4</ele>
        <time>2020-08-11T10:42:40Z</time>
      </trkpt>
      <trkpt lat="45.16564" lon="5.95361">
        <ele>2270.6</ele>
        <time>2020-08-11T10:42:41Z</time>
      </trkpt>
      <trkpt lat="45.16564" lon="5.9536">
        <ele>2270.4</ele>
        <time>2020-08-11T10:42:42Z</time>
      </trkpt>
      <trkpt lat="45.16564" lon="5.9536">
        <ele>2270.4</ele>
        <time>2020-08-11T10:42:43Z</time>
      </trkpt>
      <trkpt lat="45.16565" lon="5.95358">
        <ele>2270.4</ele>
        <time>2020-08-11T10:42:44Z</time>
      </trkpt>
      <trkpt lat="45.16565" lon="5.95358">
        <ele>2270.6</ele>
        <time>2020-08-11T10:42:45Z</time>
      </trkpt>
      <trkpt lat="45.16565" lon="5.95358">
        <ele>2270.2</ele>
        <time>2020-08-11T10:42:46Z</time>
      </trkpt>
      <trkpt lat="45.16567" lon="5.95355">
        <ele>2270.4</ele>
        <time>2020-08-11T10:42:47Z</time>
      </trkpt>
      <trkpt lat="45.16567" lon="5.95355">
        <ele>2270</ele>
        <time>2020-08-11T10:42:48Z</time>
      </trkpt>
      <trkpt lat="45.1657" lon="5.95354">
        <ele>2269.6</ele>
        <time>2020-08-11T10:42:49Z</time>
      </trkpt>
      <trkpt lat="45.1657" lon="5.95354">
        <ele>2269.2</ele>
        <time>2020-08-11T10:42:50Z</time>
      </trkpt>
      <trkpt lat="45.1657" lon="5.95354">
        <ele>2269</ele>
        <time>2020-08-11T10:42:51Z</time>
      </trkpt>
      <trkpt lat="45.16572" lon="5.95355">
        <ele>2268.6</ele>
        <time>2020-08-11T10:42:52Z</time>
      </trkpt>
      <trkpt lat="45.16573" lon="5.95356">
        <ele>2268.4</ele>
        <time>2020-08-11T10:42:53Z</time>
      </trkpt>
      <trkpt lat="45.16574" lon="5.95356">
        <ele>2267.8</ele>
        <time>2020-08-11T10:42:54Z</time>
      </trkpt>
      <trkpt lat="45.16576" lon="5.95356">
        <ele>2267.6</ele>
        <time>2020-08-11T10:42:55Z</time>
      </trkpt>
      <trkpt lat="45.16579" lon="5.95356">
        <ele>2267.2</ele>
        <time>2020-08-11T10:42:56Z</time>
      </trkpt>
      <trkpt lat="45.16579" lon="5.95356">
        <ele>2266.8</ele>
        <time>2020-08-11T10:42:57Z</time>
      </trkpt>
      <trkpt lat="45.16579" lon="5.95356">
        <ele>2266.8</ele>
        <time>2020-08-11T10:42:58Z</time>
      </trkpt>
      <trkpt lat="45.16581" lon="5.95357">
        <ele>2266.8</ele>
        <time>2020-08-11T10:42:59Z</time>
      </trkpt>
      <trkpt lat="45.16581" lon="5.95357">
        <ele>2266.4</ele>
        <time>2020-08-11T10:43:00Z</time>
      </trkpt>
      <trkpt lat="45.16581" lon="5.95357">
        <ele>2266</ele>
        <time>2020-08-11T10:43:01Z</time>
      </trkpt>
      <trkpt lat="45.16581" lon="5.95357">
        <ele>2266</ele>
        <time>2020-08-11T10:43:02Z</time>
      </trkpt>
      <trkpt lat="45.16581" lon="5.95357">
        <ele>2265.4</ele>
        <time>2020-08-11T10:43:03Z</time>
      </trkpt>
      <trkpt lat="45.16581" lon="5.95357">
        <ele>2265.2</ele>
        <time>2020-08-11T10:43:04Z</time>
      </trkpt>
      <trkpt lat="45.16584" lon="5.95358">
        <ele>2264.8</ele>
        <time>2020-08-11T10:43:05Z</time>
      </trkpt>
      <trkpt lat="45.16584" lon="5.95358">
        <ele>2264.6</ele>
        <time>2020-08-11T10:43:06Z</time>
      </trkpt>
      <trkpt lat="45.16584" lon="5.95358">
        <ele>2264.2</ele>
        <time>2020-08-11T10:43:07Z</time>
      </trkpt>
      <trkpt lat="45.16584" lon="5.95358">
        <ele>2264</ele>
        <time>2020-08-11T10:43:08Z</time>
      </trkpt>
      <trkpt lat="45.16584" lon="5.95358">
        <ele>2263.8</ele>
        <time>2020-08-11T10:43:09Z</time>
      </trkpt>
      <trkpt lat="45.16584" lon="5.95358">
        <ele>2263.8</ele>
        <time>2020-08-11T10:43:10Z</time>
      </trkpt>
      <trkpt lat="45.16584" lon="5.95358">
        <ele>2263.6</ele>
        <time>2020-08-11T10:43:11Z</time>
      </trkpt>
      <trkpt lat="45.16584" lon="5.95358">
        <ele>2263.6</ele>
        <time>2020-08-11T10:43:12Z</time>
      </trkpt>
      <trkpt lat="45.16584" lon="5.95358">
        <ele>2263.2</ele>
        <time>2020-08-11T10:43:13Z</time>
      </trkpt>
      <trkpt lat="45.16584" lon="5.95358">
        <ele>2263</ele>
        <time>2020-08-11T10:43:14Z</time>
      </trkpt>
      <trkpt lat="45.16584" lon="5.95358">
        <ele>2262.8</ele>
        <time>2020-08-11T10:43:15Z</time>
      </trkpt>
      <trkpt lat="45.16584" lon="5.95358">
        <ele>2263</ele>
        <time>2020-08-11T10:43:16Z</time>
      </trkpt>
      <trkpt lat="45.16587" lon="5.95358">
        <ele>2262.6</ele>
        <time>2020-08-11T10:43:17Z</time>
      </trkpt>
      <trkpt lat="45.16587" lon="5.95358">
        <ele>2262.2</ele>
        <time>2020-08-11T10:43:18Z</time>
      </trkpt>
      <trkpt lat="45.16587" lon="5.95357">
        <ele>2262.6</ele>
        <time>2020-08-11T10:43:19Z</time>
      </trkpt>
      <trkpt lat="45.16587" lon="5.95357">
        <ele>2262.4</ele>
        <time>2020-08-11T10:43:20Z</time>
      </trkpt>
      <trkpt lat="45.16587" lon="5.95356">
        <ele>2262.2</ele>
        <time>2020-08-11T10:43:21Z</time>
      </trkpt>
      <trkpt lat="45.16587" lon="5.95355">
        <ele>2262.4</ele>
        <time>2020-08-11T10:43:22Z</time>
      </trkpt>
      <trkpt lat="45.16587" lon="5.95355">
        <ele>2262.6</ele>
        <time>2020-08-11T10:43:23Z</time>
      </trkpt>
      <trkpt lat="45.16587" lon="5.95354">
        <ele>2262.6</ele>
        <time>2020-08-11T10:43:24Z</time>
      </trkpt>
      <trkpt lat="45.16587" lon="5.95354">
        <ele>2262.4</ele>
        <time>2020-08-11T10:43:25Z</time>
      </trkpt>
      <trkpt lat="45.16587" lon="5.95353">
        <ele>2262.2</ele>
        <time>2020-08-11T10:43:26Z</time>
      </trkpt>
      <trkpt lat="45.16587" lon="5.95353">
        <ele>2261.6</ele>
        <time>2020-08-11T10:43:27Z</time>
      </trkpt>
      <trkpt lat="45.16587" lon="5.95352">
        <ele>2261.4</ele>
        <time>2020-08-11T10:43:28Z</time>
      </trkpt>
      <trkpt lat="45.16587" lon="5.95352">
        <ele>2261.2</ele>
        <time>2020-08-11T10:43:29Z</time>
      </trkpt>
      <trkpt lat="45.16587" lon="5.95351">
        <ele>2261.2</ele>
        <time>2020-08-11T10:43:30Z</time>
      </trkpt>
      <trkpt lat="45.16587" lon="5.95351">
        <ele>2260.6</ele>
        <time>2020-08-11T10:43:31Z</time>
      </trkpt>
      <trkpt lat="45.16587" lon="5.9535">
        <ele>2260.4</ele>
        <time>2020-08-11T10:43:32Z</time>
      </trkpt>
      <trkpt lat="45.16587" lon="5.9535">
        <ele>2260.2</ele>
        <time>2020-08-11T10:43:33Z</time>
      </trkpt>
      <trkpt lat="45.16587" lon="5.95349">
        <ele>2260</ele>
        <time>2020-08-11T10:43:34Z</time>
      </trkpt>
      <trkpt lat="45.16587" lon="5.95348">
        <ele>2259.6</ele>
        <time>2020-08-11T10:43:35Z</time>
      </trkpt>
      <trkpt lat="45.16587" lon="5.95348">
        <ele>2259</ele>
        <time>2020-08-11T10:43:36Z</time>
      </trkpt>
      <trkpt lat="45.16587" lon="5.95347">
        <ele>2258.4</ele>
        <time>2020-08-11T10:43:37Z</time>
      </trkpt>
      <trkpt lat="45.16587" lon="5.95347">
        <ele>2258</ele>
        <time>2020-08-11T10:43:38Z</time>
      </trkpt>
      <trkpt lat="45.16586" lon="5.95346">
        <ele>2257.8</ele>
        <time>2020-08-11T10:43:39Z</time>
      </trkpt>
      <trkpt lat="45.16586" lon="5.95346">
        <ele>2257.4</ele>
        <time>2020-08-11T10:43:40Z</time>
      </trkpt>
      <trkpt lat="45.16586" lon="5.95345">
        <ele>2257.4</ele>
        <time>2020-08-11T10:43:41Z</time>
      </trkpt>
      <trkpt lat="45.16586" lon="5.95345">
        <ele>2257</ele>
        <time>2020-08-11T10:43:42Z</time>
      </trkpt>
      <trkpt lat="45.16586" lon="5.95344">
        <ele>2256.2</ele>
        <time>2020-08-11T10:43:43Z</time>
      </trkpt>
      <trkpt lat="45.16586" lon="5.95344">
        <ele>2255.8</ele>
        <time>2020-08-11T10:43:44Z</time>
      </trkpt>
      <trkpt lat="45.16586" lon="5.95343">
        <ele>2255.6</ele>
        <time>2020-08-11T10:43:45Z</time>
      </trkpt>
      <trkpt lat="45.16586" lon="5.95343">
        <ele>2255</ele>
        <time>2020-08-11T10:43:46Z</time>
      </trkpt>
      <trkpt lat="45.16586" lon="5.95343">
        <ele>2254.6</ele>
        <time>2020-08-11T10:43:47Z</time>
      </trkpt>
      <trkpt lat="45.16586" lon="5.95343">
        <ele>2254.6</ele>
        <time>2020-08-11T10:43:48Z</time>
      </trkpt>
      <trkpt lat="45.16586" lon="5.95343">
        <ele>2254.6</ele>
        <time>2020-08-11T10:43:49Z</time>
      </trkpt>
      <trkpt lat="45.16586" lon="5.95343">
        <ele>2254.4</ele>
        <time>2020-08-11T10:43:50Z</time>
      </trkpt>
      <trkpt lat="45.16586" lon="5.95343">
        <ele>2254</ele>
        <time>2020-08-11T10:43:51Z</time>
      </trkpt>
      <trkpt lat="45.16583" lon="5.95342">
        <ele>2253.8</ele>
        <time>2020-08-11T10:43:52Z</time>
      </trkpt>
      <trkpt lat="45.16583" lon="5.95342">
        <ele>2253.6</ele>
        <time>2020-08-11T10:43:53Z</time>
      </trkpt>
      <trkpt lat="45.16583" lon="5.95342">
        <ele>2253.2</ele>
        <time>2020-08-11T10:43:54Z</time>
      </trkpt>
      <trkpt lat="45.16583" lon="5.95342">
        <ele>2252.6</ele>
        <time>2020-08-11T10:43:55Z</time>
      </trkpt>
      <trkpt lat="45.16583" lon="5.95342">
        <ele>2252</ele>
        <time>2020-08-11T10:43:56Z</time>
      </trkpt>
      <trkpt lat="45.16583" lon="5.95342">
        <ele>2251.8</ele>
        <time>2020-08-11T10:43:57Z</time>
      </trkpt>
      <trkpt lat="45.16581" lon="5.95339">
        <ele>2251.4</ele>
        <time>2020-08-11T10:43:58Z</time>
      </trkpt>
      <trkpt lat="45.16581" lon="5.95339">
        <ele>2251</ele>
        <time>2020-08-11T10:43:59Z</time>
      </trkpt>
      <trkpt lat="45.16581" lon="5.95339">
        <ele>2250.6</ele>
        <time>2020-08-11T10:44:00Z</time>
      </trkpt>
      <trkpt lat="45.1658" lon="5.95338">
        <ele>2249.8</ele>
        <time>2020-08-11T10:44:01Z</time>
      </trkpt>
      <trkpt lat="45.1658" lon="5.95336">
        <ele>2249.6</ele>
        <time>2020-08-11T10:44:02Z</time>
      </trkpt>
      <trkpt lat="45.16579" lon="5.95335">
        <ele>2249.4</ele>
        <time>2020-08-11T10:44:03Z</time>
      </trkpt>
      <trkpt lat="45.16578" lon="5.95334">
        <ele>2248.4</ele>
        <time>2020-08-11T10:44:04Z</time>
      </trkpt>
      <trkpt lat="45.16578" lon="5.95333">
        <ele>2248</ele>
        <time>2020-08-11T10:44:05Z</time>
      </trkpt>
      <trkpt lat="45.16576" lon="5.95329">
        <ele>2247.6</ele>
        <time>2020-08-11T10:44:06Z</time>
      </trkpt>
      <trkpt lat="45.16576" lon="5.95329">
        <ele>2247</ele>
        <time>2020-08-11T10:44:07Z</time>
      </trkpt>
      <trkpt lat="45.16576" lon="5.95328">
        <ele>2246.8</ele>
        <time>2020-08-11T10:44:08Z</time>
      </trkpt>
      <trkpt lat="45.16575" lon="5.95327">
        <ele>2246.2</ele>
        <time>2020-08-11T10:44:09Z</time>
      </trkpt>
      <trkpt lat="45.16575" lon="5.95326">
        <ele>2245</ele>
        <time>2020-08-11T10:44:10Z</time>
      </trkpt>
      <trkpt lat="45.16574" lon="5.95325">
        <ele>2244.6</ele>
        <time>2020-08-11T10:44:11Z</time>
      </trkpt>
      <trkpt lat="45.16573" lon="5.95324">
        <ele>2244.2</ele>
        <time>2020-08-11T10:44:12Z</time>
      </trkpt>
      <trkpt lat="45.16573" lon="5.95322">
        <ele>2244</ele>
        <time>2020-08-11T10:44:13Z</time>
      </trkpt>
      <trkpt lat="45.16573" lon="5.95322">
        <ele>2243.2</ele>
        <time>2020-08-11T10:44:14Z</time>
      </trkpt>
      <trkpt lat="45.16574" lon="5.9532">
        <ele>2243.4</ele>
        <time>2020-08-11T10:44:15Z</time>
      </trkpt>
      <trkpt lat="45.16574" lon="5.9532">
        <ele>2242.8</ele>
        <time>2020-08-11T10:44:16Z</time>
      </trkpt>
      <trkpt lat="45.16574" lon="5.95317">
        <ele>2242.4</ele>
        <time>2020-08-11T10:44:17Z</time>
      </trkpt>
      <trkpt lat="45.16574" lon="5.95317">
        <ele>2242.2</ele>
        <time>2020-08-11T10:44:18Z</time>
      </trkpt>
      <trkpt lat="45.16574" lon="5.95314">
        <ele>2241.8</ele>
        <time>2020-08-11T10:44:19Z</time>
      </trkpt>
      <trkpt lat="45.16574" lon="5.95314">
        <ele>2241</ele>
        <time>2020-08-11T10:44:20Z</time>
      </trkpt>
      <trkpt lat="45.16574" lon="5.95314">
        <ele>2240.4</ele>
        <time>2020-08-11T10:44:21Z</time>
      </trkpt>
      <trkpt lat="45.16574" lon="5.95314">
        <ele>2240.2</ele>
        <time>2020-08-11T10:44:22Z</time>
      </trkpt>
      <trkpt lat="45.16573" lon="5.95311">
        <ele>2239.6</ele>
        <time>2020-08-11T10:44:23Z</time>
      </trkpt>
      <trkpt lat="45.16573" lon="5.95311">
        <ele>2239.2</ele>
        <time>2020-08-11T10:44:24Z</time>
      </trkpt>
      <trkpt lat="45.16573" lon="5.95311">
        <ele>2238.8</ele>
        <time>2020-08-11T10:44:25Z</time>
      </trkpt>
      <trkpt lat="45.1657" lon="5.95311">
        <ele>2238.8</ele>
        <time>2020-08-11T10:44:26Z</time>
      </trkpt>
      <trkpt lat="45.1657" lon="5.95311">
        <ele>2238.2</ele>
        <time>2020-08-11T10:44:27Z</time>
      </trkpt>
      <trkpt lat="45.1657" lon="5.95311">
        <ele>2237.4</ele>
        <time>2020-08-11T10:44:28Z</time>
      </trkpt>
      <trkpt lat="45.16568" lon="5.95309">
        <ele>2236.8</ele>
        <time>2020-08-11T10:44:29Z</time>
      </trkpt>
      <trkpt lat="45.16568" lon="5.95309">
        <ele>2236.8</ele>
        <time>2020-08-11T10:44:30Z</time>
      </trkpt>
      <trkpt lat="45.16568" lon="5.95307">
        <ele>2236.2</ele>
        <time>2020-08-11T10:44:31Z</time>
      </trkpt>
      <trkpt lat="45.16568" lon="5.95306">
        <ele>2235.6</ele>
        <time>2020-08-11T10:44:32Z</time>
      </trkpt>
      <trkpt lat="45.16568" lon="5.95304">
        <ele>2235.4</ele>
        <time>2020-08-11T10:44:33Z</time>
      </trkpt>
      <trkpt lat="45.16568" lon="5.95302">
        <ele>2235</ele>
        <time>2020-08-11T10:44:34Z</time>
      </trkpt>
      <trkpt lat="45.16568" lon="5.953">
        <ele>2235</ele>
        <time>2020-08-11T10:44:35Z</time>
      </trkpt>
      <trkpt lat="45.16568" lon="5.953">
        <ele>2234.6</ele>
        <time>2020-08-11T10:44:36Z</time>
      </trkpt>
      <trkpt lat="45.16568" lon="5.953">
        <ele>2234.2</ele>
        <time>2020-08-11T10:44:37Z</time>
      </trkpt>
      <trkpt lat="45.16568" lon="5.953">
        <ele>2234</ele>
        <time>2020-08-11T10:44:38Z</time>
      </trkpt>
      <trkpt lat="45.16568" lon="5.953">
        <ele>2232.4</ele>
        <time>2020-08-11T10:44:39Z</time>
      </trkpt>
      <trkpt lat="45.16568" lon="5.953">
        <ele>2232.2</ele>
        <time>2020-08-11T10:44:40Z</time>
      </trkpt>
      <trkpt lat="45.16567" lon="5.95296">
        <ele>2232.2</ele>
        <time>2020-08-11T10:44:41Z</time>
      </trkpt>
      <trkpt lat="45.16567" lon="5.95296">
        <ele>2231.6</ele>
        <time>2020-08-11T10:44:42Z</time>
      </trkpt>
      <trkpt lat="45.16567" lon="5.95296">
        <ele>2231.2</ele>
        <time>2020-08-11T10:44:43Z</time>
      </trkpt>
      <trkpt lat="45.16567" lon="5.95296">
        <ele>2231.2</ele>
        <time>2020-08-11T10:44:44Z</time>
      </trkpt>
      <trkpt lat="45.16567" lon="5.95296">
        <ele>2230.6</ele>
        <time>2020-08-11T10:44:45Z</time>
      </trkpt>
      <trkpt lat="45.16567" lon="5.95296">
        <ele>2230.2</ele>
        <time>2020-08-11T10:44:46Z</time>
      </trkpt>
      <trkpt lat="45.16568" lon="5.95294">
        <ele>2230</ele>
        <time>2020-08-11T10:44:47Z</time>
      </trkpt>
      <trkpt lat="45.16568" lon="5.95294">
        <ele>2229.4</ele>
        <time>2020-08-11T10:44:48Z</time>
      </trkpt>
      <trkpt lat="45.16568" lon="5.95294">
        <ele>2228.8</ele>
        <time>2020-08-11T10:44:49Z</time>
      </trkpt>
      <trkpt lat="45.16566" lon="5.95291">
        <ele>2228.4</ele>
        <time>2020-08-11T10:44:50Z</time>
      </trkpt>
      <trkpt lat="45.16566" lon="5.95291">
        <ele>2227.4</ele>
        <time>2020-08-11T10:44:51Z</time>
      </trkpt>
      <trkpt lat="45.16566" lon="5.95289">
        <ele>2227</ele>
        <time>2020-08-11T10:44:52Z</time>
      </trkpt>
      <trkpt lat="45.16566" lon="5.95289">
        <ele>2226.6</ele>
        <time>2020-08-11T10:44:53Z</time>
      </trkpt>
      <trkpt lat="45.16567" lon="5.95286">
        <ele>2226.2</ele>
        <time>2020-08-11T10:44:54Z</time>
      </trkpt>
      <trkpt lat="45.16567" lon="5.95286">
        <ele>2225.6</ele>
        <time>2020-08-11T10:44:55Z</time>
      </trkpt>
      <trkpt lat="45.16566" lon="5.95283">
        <ele>2225.8</ele>
        <time>2020-08-11T10:44:56Z</time>
      </trkpt>
      <trkpt lat="45.16564" lon="5.95281">
        <ele>2225.2</ele>
        <time>2020-08-11T10:44:57Z</time>
      </trkpt>
      <trkpt lat="45.16564" lon="5.95281">
        <ele>2224.6</ele>
        <time>2020-08-11T10:44:58Z</time>
      </trkpt>
      <trkpt lat="45.16563" lon="5.95278">
        <ele>2224.4</ele>
        <time>2020-08-11T10:44:59Z</time>
      </trkpt>
      <trkpt lat="45.16563" lon="5.95278">
        <ele>2223.6</ele>
        <time>2020-08-11T10:45:00Z</time>
      </trkpt>
      <trkpt lat="45.16563" lon="5.95278">
        <ele>2223.2</ele>
        <time>2020-08-11T10:45:01Z</time>
      </trkpt>
      <trkpt lat="45.16562" lon="5.95275">
        <ele>2222.2</ele>
        <time>2020-08-11T10:45:02Z</time>
      </trkpt>
      <trkpt lat="45.16562" lon="5.95271">
        <ele>2222.4</ele>
        <time>2020-08-11T10:45:03Z</time>
      </trkpt>
      <trkpt lat="45.16562" lon="5.95271">
        <ele>2221.8</ele>
        <time>2020-08-11T10:45:04Z</time>
      </trkpt>
      <trkpt lat="45.16562" lon="5.95267">
        <ele>2221.6</ele>
        <time>2020-08-11T10:45:05Z</time>
      </trkpt>
      <trkpt lat="45.16562" lon="5.95267">
        <ele>2221.6</ele>
        <time>2020-08-11T10:45:06Z</time>
      </trkpt>
      <trkpt lat="45.16562" lon="5.95267">
        <ele>2221.2</ele>
        <time>2020-08-11T10:45:07Z</time>
      </trkpt>
      <trkpt lat="45.16562" lon="5.95263">
        <ele>2220.4</ele>
        <time>2020-08-11T10:45:08Z</time>
      </trkpt>
      <trkpt lat="45.16562" lon="5.95263">
        <ele>2219.8</ele>
        <time>2020-08-11T10:45:09Z</time>
      </trkpt>
      <trkpt lat="45.1656" lon="5.9526">
        <ele>2219.2</ele>
        <time>2020-08-11T10:45:10Z</time>
      </trkpt>
      <trkpt lat="45.16561" lon="5.95257">
        <ele>2218.8</ele>
        <time>2020-08-11T10:45:11Z</time>
      </trkpt>
      <trkpt lat="45.16561" lon="5.95257">
        <ele>2218.6</ele>
        <time>2020-08-11T10:45:12Z</time>
      </trkpt>
      <trkpt lat="45.16561" lon="5.95257">
        <ele>2218.4</ele>
        <time>2020-08-11T10:45:13Z</time>
      </trkpt>
      <trkpt lat="45.16562" lon="5.95254">
        <ele>2218.2</ele>
        <time>2020-08-11T10:45:14Z</time>
      </trkpt>
      <trkpt lat="45.16563" lon="5.95252">
        <ele>2217.8</ele>
        <time>2020-08-11T10:45:15Z</time>
      </trkpt>
      <trkpt lat="45.16565" lon="5.95251">
        <ele>2217.4</ele>
        <time>2020-08-11T10:45:16Z</time>
      </trkpt>
      <trkpt lat="45.16566" lon="5.9525">
        <ele>2217</ele>
        <time>2020-08-11T10:45:17Z</time>
      </trkpt>
      <trkpt lat="45.16567" lon="5.95249">
        <ele>2216.6</ele>
        <time>2020-08-11T10:45:18Z</time>
      </trkpt>
      <trkpt lat="45.16567" lon="5.95249">
        <ele>2216.2</ele>
        <time>2020-08-11T10:45:19Z</time>
      </trkpt>
      <trkpt lat="45.16567" lon="5.95249">
        <ele>2216.2</ele>
        <time>2020-08-11T10:45:20Z</time>
      </trkpt>
      <trkpt lat="45.16569" lon="5.95247">
        <ele>2216</ele>
        <time>2020-08-11T10:45:21Z</time>
      </trkpt>
      <trkpt lat="45.16569" lon="5.95247">
        <ele>2215.6</ele>
        <time>2020-08-11T10:45:22Z</time>
      </trkpt>
      <trkpt lat="45.16569" lon="5.95247">
        <ele>2215.6</ele>
        <time>2020-08-11T10:45:23Z</time>
      </trkpt>
      <trkpt lat="45.1657" lon="5.95245">
        <ele>2215.4</ele>
        <time>2020-08-11T10:45:24Z</time>
      </trkpt>
      <trkpt lat="45.1657" lon="5.95245">
        <ele>2215.6</ele>
        <time>2020-08-11T10:45:25Z</time>
      </trkpt>
      <trkpt lat="45.16572" lon="5.95244">
        <ele>2215.8</ele>
        <time>2020-08-11T10:45:26Z</time>
      </trkpt>
      <trkpt lat="45.16572" lon="5.95244">
        <ele>2215.8</ele>
        <time>2020-08-11T10:45:27Z</time>
      </trkpt>
      <trkpt lat="45.16572" lon="5.95244">
        <ele>2215.4</ele>
        <time>2020-08-11T10:45:28Z</time>
      </trkpt>
      <trkpt lat="45.16573" lon="5.95242">
        <ele>2215</ele>
        <time>2020-08-11T10:45:29Z</time>
      </trkpt>
      <trkpt lat="45.16573" lon="5.95242">
        <ele>2214.6</ele>
        <time>2020-08-11T10:45:30Z</time>
      </trkpt>
      <trkpt lat="45.16573" lon="5.95242">
        <ele>2214.2</ele>
        <time>2020-08-11T10:45:31Z</time>
      </trkpt>
      <trkpt lat="45.16575" lon="5.95242">
        <ele>2214</ele>
        <time>2020-08-11T10:45:32Z</time>
      </trkpt>
      <trkpt lat="45.16575" lon="5.95242">
        <ele>2214</ele>
        <time>2020-08-11T10:45:33Z</time>
      </trkpt>
      <trkpt lat="45.16578" lon="5.95242">
        <ele>2213.6</ele>
        <time>2020-08-11T10:45:34Z</time>
      </trkpt>
      <trkpt lat="45.16578" lon="5.95242">
        <ele>2213.6</ele>
        <time>2020-08-11T10:45:35Z</time>
      </trkpt>
      <trkpt lat="45.1658" lon="5.95241">
        <ele>2213.6</ele>
        <time>2020-08-11T10:45:36Z</time>
      </trkpt>
      <trkpt lat="45.1658" lon="5.95241">
        <ele>2213.6</ele>
        <time>2020-08-11T10:45:37Z</time>
      </trkpt>
      <trkpt lat="45.1658" lon="5.95241">
        <ele>2213.8</ele>
        <time>2020-08-11T10:45:38Z</time>
      </trkpt>
      <trkpt lat="45.16582" lon="5.9524">
        <ele>2213.8</ele>
        <time>2020-08-11T10:45:39Z</time>
      </trkpt>
      <trkpt lat="45.16582" lon="5.9524">
        <ele>2213.8</ele>
        <time>2020-08-11T10:45:40Z</time>
      </trkpt>
      <trkpt lat="45.16586" lon="5.95242">
        <ele>2213.6</ele>
        <time>2020-08-11T10:45:41Z</time>
      </trkpt>
      <trkpt lat="45.16586" lon="5.95242">
        <ele>2213.4</ele>
        <time>2020-08-11T10:45:42Z</time>
      </trkpt>
      <trkpt lat="45.16587" lon="5.95244">
        <ele>2213.4</ele>
        <time>2020-08-11T10:45:43Z</time>
      </trkpt>
      <trkpt lat="45.16587" lon="5.95244">
        <ele>2213.2</ele>
        <time>2020-08-11T10:45:44Z</time>
      </trkpt>
      <trkpt lat="45.16588" lon="5.95244">
        <ele>2213</ele>
        <time>2020-08-11T10:45:45Z</time>
      </trkpt>
      <trkpt lat="45.16589" lon="5.95243">
        <ele>2213</ele>
        <time>2020-08-11T10:45:46Z</time>
      </trkpt>
      <trkpt lat="45.16591" lon="5.95243">
        <ele>2212.6</ele>
        <time>2020-08-11T10:45:47Z</time>
      </trkpt>
      <trkpt lat="45.16592" lon="5.95243">
        <ele>2212.4</ele>
        <time>2020-08-11T10:45:48Z</time>
      </trkpt>
      <trkpt lat="45.16593" lon="5.95242">
        <ele>2212.4</ele>
        <time>2020-08-11T10:45:49Z</time>
      </trkpt>
      <trkpt lat="45.16594" lon="5.95242">
        <ele>2212.2</ele>
        <time>2020-08-11T10:45:50Z</time>
      </trkpt>
      <trkpt lat="45.16595" lon="5.95242">
        <ele>2211.6</ele>
        <time>2020-08-11T10:45:51Z</time>
      </trkpt>
      <trkpt lat="45.16596" lon="5.95241">
        <ele>2211.6</ele>
        <time>2020-08-11T10:45:52Z</time>
      </trkpt>
      <trkpt lat="45.16596" lon="5.95241">
        <ele>2211.2</ele>
        <time>2020-08-11T10:45:53Z</time>
      </trkpt>
      <trkpt lat="45.16599" lon="5.95238">
        <ele>2211</ele>
        <time>2020-08-11T10:45:54Z</time>
      </trkpt>
      <trkpt lat="45.16599" lon="5.95238">
        <ele>2210.8</ele>
        <time>2020-08-11T10:45:55Z</time>
      </trkpt>
      <trkpt lat="45.16601" lon="5.95235">
        <ele>2210.8</ele>
        <time>2020-08-11T10:45:56Z</time>
      </trkpt>
      <trkpt lat="45.16603" lon="5.95231">
        <ele>2210.6</ele>
        <time>2020-08-11T10:45:57Z</time>
      </trkpt>
      <trkpt lat="45.16603" lon="5.95231">
        <ele>2210</ele>
        <time>2020-08-11T10:45:58Z</time>
      </trkpt>
      <trkpt lat="45.16603" lon="5.95231">
        <ele>2210</ele>
        <time>2020-08-11T10:45:59Z</time>
      </trkpt>
      <trkpt lat="45.16605" lon="5.95227">
        <ele>2209.8</ele>
        <time>2020-08-11T10:46:00Z</time>
      </trkpt>
      <trkpt lat="45.16605" lon="5.95227">
        <ele>2209.4</ele>
        <time>2020-08-11T10:46:01Z</time>
      </trkpt>
      <trkpt lat="45.16605" lon="5.95227">
        <ele>2209.2</ele>
        <time>2020-08-11T10:46:02Z</time>
      </trkpt>
      <trkpt lat="45.16605" lon="5.95227">
        <ele>2208.8</ele>
        <time>2020-08-11T10:46:03Z</time>
      </trkpt>
      <trkpt lat="45.16605" lon="5.95224">
        <ele>2208.6</ele>
        <time>2020-08-11T10:46:04Z</time>
      </trkpt>
      <trkpt lat="45.16605" lon="5.95224">
        <ele>2208.4</ele>
        <time>2020-08-11T10:46:05Z</time>
      </trkpt>
      <trkpt lat="45.16605" lon="5.95224">
        <ele>2207.8</ele>
        <time>2020-08-11T10:46:06Z</time>
      </trkpt>
      <trkpt lat="45.16605" lon="5.9522">
        <ele>2207.2</ele>
        <time>2020-08-11T10:46:07Z</time>
      </trkpt>
      <trkpt lat="45.16605" lon="5.9522">
        <ele>2206.6</ele>
        <time>2020-08-11T10:46:08Z</time>
      </trkpt>
      <trkpt lat="45.16605" lon="5.9522">
        <ele>2206.4</ele>
        <time>2020-08-11T10:46:09Z</time>
      </trkpt>
      <trkpt lat="45.16604" lon="5.95217">
        <ele>2206</ele>
        <time>2020-08-11T10:46:10Z</time>
      </trkpt>
      <trkpt lat="45.16604" lon="5.95217">
        <ele>2205.8</ele>
        <time>2020-08-11T10:46:11Z</time>
      </trkpt>
      <trkpt lat="45.16604" lon="5.95217">
        <ele>2205.2</ele>
        <time>2020-08-11T10:46:12Z</time>
      </trkpt>
      <trkpt lat="45.16603" lon="5.95215">
        <ele>2205</ele>
        <time>2020-08-11T10:46:13Z</time>
      </trkpt>
      <trkpt lat="45.16603" lon="5.95215">
        <ele>2203.8</ele>
        <time>2020-08-11T10:46:14Z</time>
      </trkpt>
      <trkpt lat="45.16603" lon="5.95215">
        <ele>2203.8</ele>
        <time>2020-08-11T10:46:15Z</time>
      </trkpt>
      <trkpt lat="45.16603" lon="5.95215">
        <ele>2203.4</ele>
        <time>2020-08-11T10:46:16Z</time>
      </trkpt>
      <trkpt lat="45.16604" lon="5.95211">
        <ele>2203.2</ele>
        <time>2020-08-11T10:46:17Z</time>
      </trkpt>
      <trkpt lat="45.16604" lon="5.95211">
        <ele>2202.6</ele>
        <time>2020-08-11T10:46:18Z</time>
      </trkpt>
      <trkpt lat="45.16605" lon="5.95209">
        <ele>2201.2</ele>
        <time>2020-08-11T10:46:19Z</time>
      </trkpt>
      <trkpt lat="45.16605" lon="5.95209">
        <ele>2200.8</ele>
        <time>2020-08-11T10:46:20Z</time>
      </trkpt>
      <trkpt lat="45.16605" lon="5.95209">
        <ele>2201</ele>
        <time>2020-08-11T10:46:21Z</time>
      </trkpt>
      <trkpt lat="45.16606" lon="5.95204">
        <ele>2201</ele>
        <time>2020-08-11T10:46:22Z</time>
      </trkpt>
      <trkpt lat="45.16606" lon="5.95204">
        <ele>2200.6</ele>
        <time>2020-08-11T10:46:23Z</time>
      </trkpt>
      <trkpt lat="45.16606" lon="5.95204">
        <ele>2200.4</ele>
        <time>2020-08-11T10:46:24Z</time>
      </trkpt>
      <trkpt lat="45.16606" lon="5.95201">
        <ele>2200.4</ele>
        <time>2020-08-11T10:46:25Z</time>
      </trkpt>
      <trkpt lat="45.16608" lon="5.95197">
        <ele>2200.2</ele>
        <time>2020-08-11T10:46:26Z</time>
      </trkpt>
      <trkpt lat="45.16608" lon="5.95197">
        <ele>2200</ele>
        <time>2020-08-11T10:46:27Z</time>
      </trkpt>
      <trkpt lat="45.16608" lon="5.95197">
        <ele>2199.8</ele>
        <time>2020-08-11T10:46:28Z</time>
      </trkpt>
      <trkpt lat="45.16609" lon="5.95195">
        <ele>2199.4</ele>
        <time>2020-08-11T10:46:29Z</time>
      </trkpt>
      <trkpt lat="45.16609" lon="5.95195">
        <ele>2199.2</ele>
        <time>2020-08-11T10:46:30Z</time>
      </trkpt>
      <trkpt lat="45.16609" lon="5.95192">
        <ele>2199</ele>
        <time>2020-08-11T10:46:31Z</time>
      </trkpt>
      <trkpt lat="45.16609" lon="5.95192">
        <ele>2198.4</ele>
        <time>2020-08-11T10:46:32Z</time>
      </trkpt>
      <trkpt lat="45.16609" lon="5.95192">
        <ele>2197.8</ele>
        <time>2020-08-11T10:46:33Z</time>
      </trkpt>
      <trkpt lat="45.16609" lon="5.95192">
        <ele>2197.6</ele>
        <time>2020-08-11T10:46:34Z</time>
      </trkpt>
      <trkpt lat="45.16609" lon="5.95189">
        <ele>2197.6</ele>
        <time>2020-08-11T10:46:35Z</time>
      </trkpt>
      <trkpt lat="45.16609" lon="5.95189">
        <ele>2197.8</ele>
        <time>2020-08-11T10:46:36Z</time>
      </trkpt>
      <trkpt lat="45.16609" lon="5.95186">
        <ele>2197.6</ele>
        <time>2020-08-11T10:46:37Z</time>
      </trkpt>
      <trkpt lat="45.16609" lon="5.95186">
        <ele>2197.8</ele>
        <time>2020-08-11T10:46:38Z</time>
      </trkpt>
      <trkpt lat="45.16609" lon="5.95186">
        <ele>2197.6</ele>
        <time>2020-08-11T10:46:39Z</time>
      </trkpt>
      <trkpt lat="45.16609" lon="5.95182">
        <ele>2197.2</ele>
        <time>2020-08-11T10:46:40Z</time>
      </trkpt>
      <trkpt lat="45.16607" lon="5.95178">
        <ele>2196.8</ele>
        <time>2020-08-11T10:46:41Z</time>
      </trkpt>
      <trkpt lat="45.16607" lon="5.95178">
        <ele>2196.2</ele>
        <time>2020-08-11T10:46:42Z</time>
      </trkpt>
      <trkpt lat="45.16606" lon="5.95176">
        <ele>2195.8</ele>
        <time>2020-08-11T10:46:43Z</time>
      </trkpt>
      <trkpt lat="45.16606" lon="5.95176">
        <ele>2196</ele>
        <time>2020-08-11T10:46:44Z</time>
      </trkpt>
      <trkpt lat="45.16605" lon="5.95173">
        <ele>2195.8</ele>
        <time>2020-08-11T10:46:45Z</time>
      </trkpt>
      <trkpt lat="45.16603" lon="5.95169">
        <ele>2195</ele>
        <time>2020-08-11T10:46:46Z</time>
      </trkpt>
      <trkpt lat="45.16603" lon="5.95169">
        <ele>2195</ele>
        <time>2020-08-11T10:46:47Z</time>
      </trkpt>
      <trkpt lat="45.16603" lon="5.95169">
        <ele>2194.4</ele>
        <time>2020-08-11T10:46:48Z</time>
      </trkpt>
      <trkpt lat="45.16603" lon="5.95166">
        <ele>2194.2</ele>
        <time>2020-08-11T10:46:49Z</time>
      </trkpt>
      <trkpt lat="45.16602" lon="5.95163">
        <ele>2193.6</ele>
        <time>2020-08-11T10:46:50Z</time>
      </trkpt>
      <trkpt lat="45.166" lon="5.95159">
        <ele>2192.8</ele>
        <time>2020-08-11T10:46:51Z</time>
      </trkpt>
      <trkpt lat="45.166" lon="5.95155">
        <ele>2192.2</ele>
        <time>2020-08-11T10:46:52Z</time>
      </trkpt>
      <trkpt lat="45.16599" lon="5.95152">
        <ele>2190.6</ele>
        <time>2020-08-11T10:46:53Z</time>
      </trkpt>
      <trkpt lat="45.16599" lon="5.95152">
        <ele>2190.8</ele>
        <time>2020-08-11T10:46:54Z</time>
      </trkpt>
      <trkpt lat="45.16598" lon="5.95148">
        <ele>2190.4</ele>
        <time>2020-08-11T10:46:55Z</time>
      </trkpt>
      <trkpt lat="45.16596" lon="5.95142">
        <ele>2190.6</ele>
        <time>2020-08-11T10:46:56Z</time>
      </trkpt>
      <trkpt lat="45.16596" lon="5.95141">
        <ele>2189.8</ele>
        <time>2020-08-11T10:46:57Z</time>
      </trkpt>
      <trkpt lat="45.16595" lon="5.9514">
        <ele>2188.8</ele>
        <time>2020-08-11T10:46:58Z</time>
      </trkpt>
      <trkpt lat="45.16593" lon="5.95138">
        <ele>2189</ele>
        <time>2020-08-11T10:46:59Z</time>
      </trkpt>
      <trkpt lat="45.16591" lon="5.95136">
        <ele>2189</ele>
        <time>2020-08-11T10:47:00Z</time>
      </trkpt>
      <trkpt lat="45.16591" lon="5.95136">
        <ele>2189.2</ele>
        <time>2020-08-11T10:47:01Z</time>
      </trkpt>
      <trkpt lat="45.16589" lon="5.95133">
        <ele>2188</ele>
        <time>2020-08-11T10:47:02Z</time>
      </trkpt>
      <trkpt lat="45.16587" lon="5.95131">
        <ele>2187.6</ele>
        <time>2020-08-11T10:47:03Z</time>
      </trkpt>
      <trkpt lat="45.16586" lon="5.95129">
        <ele>2187.6</ele>
        <time>2020-08-11T10:47:04Z</time>
      </trkpt>
      <trkpt lat="45.16584" lon="5.95128">
        <ele>2187.4</ele>
        <time>2020-08-11T10:47:05Z</time>
      </trkpt>
      <trkpt lat="45.16581" lon="5.95124">
        <ele>2187.4</ele>
        <time>2020-08-11T10:47:06Z</time>
      </trkpt>
      <trkpt lat="45.16581" lon="5.95124">
        <ele>2186.6</ele>
        <time>2020-08-11T10:47:07Z</time>
      </trkpt>
      <trkpt lat="45.16581" lon="5.95124">
        <ele>2186.4</ele>
        <time>2020-08-11T10:47:08Z</time>
      </trkpt>
      <trkpt lat="45.1658" lon="5.95121">
        <ele>2185.6</ele>
        <time>2020-08-11T10:47:09Z</time>
      </trkpt>
      <trkpt lat="45.16577" lon="5.95118">
        <ele>2186.2</ele>
        <time>2020-08-11T10:47:10Z</time>
      </trkpt>
      <trkpt lat="45.16577" lon="5.95118">
        <ele>2185.8</ele>
        <time>2020-08-11T10:47:11Z</time>
      </trkpt>
      <trkpt lat="45.16575" lon="5.95117">
        <ele>2186.2</ele>
        <time>2020-08-11T10:47:12Z</time>
      </trkpt>
      <trkpt lat="45.16575" lon="5.95117">
        <ele>2185.8</ele>
        <time>2020-08-11T10:47:13Z</time>
      </trkpt>
      <trkpt lat="45.16575" lon="5.95112">
        <ele>2186.2</ele>
        <time>2020-08-11T10:47:14Z</time>
      </trkpt>
      <trkpt lat="45.16575" lon="5.95109">
        <ele>2185.8</ele>
        <time>2020-08-11T10:47:15Z</time>
      </trkpt>
      <trkpt lat="45.16575" lon="5.95109">
        <ele>2186</ele>
        <time>2020-08-11T10:47:16Z</time>
      </trkpt>
      <trkpt lat="45.16575" lon="5.95109">
        <ele>2186</ele>
        <time>2020-08-11T10:47:17Z</time>
      </trkpt>
      <trkpt lat="45.16574" lon="5.95107">
        <ele>2186</ele>
        <time>2020-08-11T10:47:18Z</time>
      </trkpt>
      <trkpt lat="45.16574" lon="5.95107">
        <ele>2185.6</ele>
        <time>2020-08-11T10:47:19Z</time>
      </trkpt>
      <trkpt lat="45.16573" lon="5.95103">
        <ele>2185.6</ele>
        <time>2020-08-11T10:47:20Z</time>
      </trkpt>
      <trkpt lat="45.16573" lon="5.951">
        <ele>2185.6</ele>
        <time>2020-08-11T10:47:21Z</time>
      </trkpt>
      <trkpt lat="45.16573" lon="5.951">
        <ele>2185.2</ele>
        <time>2020-08-11T10:47:22Z</time>
      </trkpt>
      <trkpt lat="45.16571" lon="5.95099">
        <ele>2184.8</ele>
        <time>2020-08-11T10:47:23Z</time>
      </trkpt>
      <trkpt lat="45.16571" lon="5.95099">
        <ele>2184.6</ele>
        <time>2020-08-11T10:47:24Z</time>
      </trkpt>
      <trkpt lat="45.16571" lon="5.95099">
        <ele>2184.2</ele>
        <time>2020-08-11T10:47:25Z</time>
      </trkpt>
      <trkpt lat="45.16568" lon="5.95097">
        <ele>2184.2</ele>
        <time>2020-08-11T10:47:26Z</time>
      </trkpt>
      <trkpt lat="45.16568" lon="5.95097">
        <ele>2184</ele>
        <time>2020-08-11T10:47:27Z</time>
      </trkpt>
      <trkpt lat="45.16565" lon="5.95096">
        <ele>2183.4</ele>
        <time>2020-08-11T10:47:28Z</time>
      </trkpt>
      <trkpt lat="45.16565" lon="5.95096">
        <ele>2182.8</ele>
        <time>2020-08-11T10:47:29Z</time>
      </trkpt>
      <trkpt lat="45.16562" lon="5.95094">
        <ele>2183</ele>
        <time>2020-08-11T10:47:30Z</time>
      </trkpt>
      <trkpt lat="45.16562" lon="5.95091">
        <ele>2182.4</ele>
        <time>2020-08-11T10:47:31Z</time>
      </trkpt>
      <trkpt lat="45.16562" lon="5.95091">
        <ele>2182.6</ele>
        <time>2020-08-11T10:47:32Z</time>
      </trkpt>
      <trkpt lat="45.16562" lon="5.95088">
        <ele>2182.4</ele>
        <time>2020-08-11T10:47:33Z</time>
      </trkpt>
      <trkpt lat="45.16565" lon="5.95084">
        <ele>2182.4</ele>
        <time>2020-08-11T10:47:34Z</time>
      </trkpt>
      <trkpt lat="45.16569" lon="5.9508">
        <ele>2181.8</ele>
        <time>2020-08-11T10:47:35Z</time>
      </trkpt>
      <trkpt lat="45.16577" lon="5.95072">
        <ele>2181.6</ele>
        <time>2020-08-11T10:47:36Z</time>
      </trkpt>
      <trkpt lat="45.16584" lon="5.95064">
        <ele>2181.2</ele>
        <time>2020-08-11T10:47:37Z</time>
      </trkpt>
      <trkpt lat="45.16592" lon="5.95056">
        <ele>2180.8</ele>
        <time>2020-08-11T10:47:38Z</time>
      </trkpt>
      <trkpt lat="45.16592" lon="5.95054">
        <ele>2179.8</ele>
        <time>2020-08-11T10:47:39Z</time>
      </trkpt>
      <trkpt lat="45.16592" lon="5.95053">
        <ele>2180</ele>
        <time>2020-08-11T10:47:40Z</time>
      </trkpt>
      <trkpt lat="45.16591" lon="5.95052">
        <ele>2179.6</ele>
        <time>2020-08-11T10:47:41Z</time>
      </trkpt>
      <trkpt lat="45.16591" lon="5.9505">
        <ele>2179.6</ele>
        <time>2020-08-11T10:47:42Z</time>
      </trkpt>
      <trkpt lat="45.16591" lon="5.95049">
        <ele>2179.4</ele>
        <time>2020-08-11T10:47:43Z</time>
      </trkpt>
      <trkpt lat="45.16591" lon="5.95048">
        <ele>2179.6</ele>
        <time>2020-08-11T10:47:44Z</time>
      </trkpt>
      <trkpt lat="45.16591" lon="5.95046">
        <ele>2179.6</ele>
        <time>2020-08-11T10:47:45Z</time>
      </trkpt>
      <trkpt lat="45.16591" lon="5.95045">
        <ele>2180.2</ele>
        <time>2020-08-11T10:47:46Z</time>
      </trkpt>
      <trkpt lat="45.16591" lon="5.95044">
        <ele>2180.4</ele>
        <time>2020-08-11T10:47:47Z</time>
      </trkpt>
      <trkpt lat="45.16591" lon="5.95042">
        <ele>2181.2</ele>
        <time>2020-08-11T10:47:48Z</time>
      </trkpt>
      <trkpt lat="45.1659" lon="5.9504">
        <ele>2181.2</ele>
        <time>2020-08-11T10:47:49Z</time>
      </trkpt>
      <trkpt lat="45.16589" lon="5.95038">
        <ele>2181.4</ele>
        <time>2020-08-11T10:47:50Z</time>
      </trkpt>
      <trkpt lat="45.16588" lon="5.95035">
        <ele>2181.2</ele>
        <time>2020-08-11T10:47:51Z</time>
      </trkpt>
      <trkpt lat="45.16587" lon="5.95033">
        <ele>2181.2</ele>
        <time>2020-08-11T10:47:52Z</time>
      </trkpt>
      <trkpt lat="45.16586" lon="5.95031">
        <ele>2181.2</ele>
        <time>2020-08-11T10:47:53Z</time>
      </trkpt>
      <trkpt lat="45.16584" lon="5.95027">
        <ele>2181.2</ele>
        <time>2020-08-11T10:47:54Z</time>
      </trkpt>
      <trkpt lat="45.16583" lon="5.95024">
        <ele>2181.4</ele>
        <time>2020-08-11T10:47:55Z</time>
      </trkpt>
      <trkpt lat="45.16582" lon="5.95022">
        <ele>2180.8</ele>
        <time>2020-08-11T10:47:56Z</time>
      </trkpt>
      <trkpt lat="45.16581" lon="5.95019">
        <ele>2180.6</ele>
        <time>2020-08-11T10:47:57Z</time>
      </trkpt>
      <trkpt lat="45.1658" lon="5.95017">
        <ele>2180.6</ele>
        <time>2020-08-11T10:47:58Z</time>
      </trkpt>
      <trkpt lat="45.1658" lon="5.95015">
        <ele>2180.4</ele>
        <time>2020-08-11T10:47:59Z</time>
      </trkpt>
      <trkpt lat="45.16579" lon="5.95012">
        <ele>2180.6</ele>
        <time>2020-08-11T10:48:00Z</time>
      </trkpt>
      <trkpt lat="45.16578" lon="5.9501">
        <ele>2180.4</ele>
        <time>2020-08-11T10:48:01Z</time>
      </trkpt>
      <trkpt lat="45.16577" lon="5.95007">
        <ele>2180</ele>
        <time>2020-08-11T10:48:02Z</time>
      </trkpt>
      <trkpt lat="45.16577" lon="5.95005">
        <ele>2180.2</ele>
        <time>2020-08-11T10:48:03Z</time>
      </trkpt>
      <trkpt lat="45.16576" lon="5.95002">
        <ele>2179.8</ele>
        <time>2020-08-11T10:48:04Z</time>
      </trkpt>
      <trkpt lat="45.16575" lon="5.95">
        <ele>2179.8</ele>
        <time>2020-08-11T10:48:05Z</time>
      </trkpt>
      <trkpt lat="45.16574" lon="5.94998">
        <ele>2179.2</ele>
        <time>2020-08-11T10:48:06Z</time>
      </trkpt>
      <trkpt lat="45.16573" lon="5.94995">
        <ele>2179</ele>
        <time>2020-08-11T10:48:07Z</time>
      </trkpt>
      <trkpt lat="45.16573" lon="5.94993">
        <ele>2178.2</ele>
        <time>2020-08-11T10:48:08Z</time>
      </trkpt>
      <trkpt lat="45.16572" lon="5.9499">
        <ele>2177.4</ele>
        <time>2020-08-11T10:48:09Z</time>
      </trkpt>
      <trkpt lat="45.16571" lon="5.94988">
        <ele>2177.4</ele>
        <time>2020-08-11T10:48:10Z</time>
      </trkpt>
      <trkpt lat="45.1657" lon="5.94985">
        <ele>2176.8</ele>
        <time>2020-08-11T10:48:11Z</time>
      </trkpt>
      <trkpt lat="45.1657" lon="5.94983">
        <ele>2176.8</ele>
        <time>2020-08-11T10:48:12Z</time>
      </trkpt>
      <trkpt lat="45.1657" lon="5.94981">
        <ele>2176.4</ele>
        <time>2020-08-11T10:48:13Z</time>
      </trkpt>
      <trkpt lat="45.16571" lon="5.94977">
        <ele>2176.6</ele>
        <time>2020-08-11T10:48:14Z</time>
      </trkpt>
      <trkpt lat="45.16571" lon="5.94973">
        <ele>2176</ele>
        <time>2020-08-11T10:48:15Z</time>
      </trkpt>
      <trkpt lat="45.16572" lon="5.9497">
        <ele>2176.2</ele>
        <time>2020-08-11T10:48:16Z</time>
      </trkpt>
      <trkpt lat="45.16572" lon="5.94966">
        <ele>2175.8</ele>
        <time>2020-08-11T10:48:17Z</time>
      </trkpt>
      <trkpt lat="45.16573" lon="5.94963">
        <ele>2176</ele>
        <time>2020-08-11T10:48:18Z</time>
      </trkpt>
      <trkpt lat="45.16573" lon="5.94959">
        <ele>2175.8</ele>
        <time>2020-08-11T10:48:19Z</time>
      </trkpt>
      <trkpt lat="45.16573" lon="5.94959">
        <ele>2176</ele>
        <time>2020-08-11T10:48:20Z</time>
      </trkpt>
      <trkpt lat="45.16573" lon="5.94956">
        <ele>2175.6</ele>
        <time>2020-08-11T10:48:21Z</time>
      </trkpt>
      <trkpt lat="45.16573" lon="5.9495">
        <ele>2175.8</ele>
        <time>2020-08-11T10:48:22Z</time>
      </trkpt>
      <trkpt lat="45.16573" lon="5.94949">
        <ele>2175.2</ele>
        <time>2020-08-11T10:48:23Z</time>
      </trkpt>
      <trkpt lat="45.16572" lon="5.94947">
        <ele>2175.6</ele>
        <time>2020-08-11T10:48:24Z</time>
      </trkpt>
      <trkpt lat="45.16572" lon="5.94945">
        <ele>2175.2</ele>
        <time>2020-08-11T10:48:25Z</time>
      </trkpt>
      <trkpt lat="45.16571" lon="5.9494">
        <ele>2175.4</ele>
        <time>2020-08-11T10:48:26Z</time>
      </trkpt>
      <trkpt lat="45.1657" lon="5.94937">
        <ele>2175</ele>
        <time>2020-08-11T10:48:27Z</time>
      </trkpt>
      <trkpt lat="45.16568" lon="5.94935">
        <ele>2175.4</ele>
        <time>2020-08-11T10:48:28Z</time>
      </trkpt>
      <trkpt lat="45.16567" lon="5.94932">
        <ele>2175</ele>
        <time>2020-08-11T10:48:29Z</time>
      </trkpt>
      <trkpt lat="45.16566" lon="5.9493">
        <ele>2175.2</ele>
        <time>2020-08-11T10:48:30Z</time>
      </trkpt>
      <trkpt lat="45.16566" lon="5.9493">
        <ele>2175.8</ele>
        <time>2020-08-11T10:48:31Z</time>
      </trkpt>
      <trkpt lat="45.16566" lon="5.9493">
        <ele>2176</ele>
        <time>2020-08-11T10:48:32Z</time>
      </trkpt>
      <trkpt lat="45.16566" lon="5.94928">
        <ele>2175.8</ele>
        <time>2020-08-11T10:48:33Z</time>
      </trkpt>
      <trkpt lat="45.16566" lon="5.94927">
        <ele>2175.4</ele>
        <time>2020-08-11T10:48:34Z</time>
      </trkpt>
      <trkpt lat="45.16566" lon="5.94925">
        <ele>2175.6</ele>
        <time>2020-08-11T10:48:35Z</time>
      </trkpt>
      <trkpt lat="45.16566" lon="5.94924">
        <ele>2175.8</ele>
        <time>2020-08-11T10:48:36Z</time>
      </trkpt>
      <trkpt lat="45.16566" lon="5.94922">
        <ele>2176</ele>
        <time>2020-08-11T10:48:37Z</time>
      </trkpt>
      <trkpt lat="45.16566" lon="5.94921">
        <ele>2176</ele>
        <time>2020-08-11T10:48:38Z</time>
      </trkpt>
      <trkpt lat="45.16566" lon="5.94921">
        <ele>2176.4</ele>
        <time>2020-08-11T10:48:39Z</time>
      </trkpt>
      <trkpt lat="45.16566" lon="5.94918">
        <ele>2176.6</ele>
        <time>2020-08-11T10:48:40Z</time>
      </trkpt>
      <trkpt lat="45.16566" lon="5.94918">
        <ele>2176.6</ele>
        <time>2020-08-11T10:48:41Z</time>
      </trkpt>
      <trkpt lat="45.16566" lon="5.94915">
        <ele>2176.8</ele>
        <time>2020-08-11T10:48:42Z</time>
      </trkpt>
      <trkpt lat="45.16566" lon="5.94915">
        <ele>2176.8</ele>
        <time>2020-08-11T10:48:43Z</time>
      </trkpt>
      <trkpt lat="45.16566" lon="5.94914">
        <ele>2177</ele>
        <time>2020-08-11T10:48:44Z</time>
      </trkpt>
      <trkpt lat="45.16566" lon="5.94913">
        <ele>2177</ele>
        <time>2020-08-11T10:48:45Z</time>
      </trkpt>
      <trkpt lat="45.16566" lon="5.94911">
        <ele>2177.4</ele>
        <time>2020-08-11T10:48:46Z</time>
      </trkpt>
      <trkpt lat="45.16566" lon="5.9491">
        <ele>2177.6</ele>
        <time>2020-08-11T10:48:47Z</time>
      </trkpt>
      <trkpt lat="45.16566" lon="5.94909">
        <ele>2178</ele>
        <time>2020-08-11T10:48:48Z</time>
      </trkpt>
      <trkpt lat="45.16566" lon="5.94909">
        <ele>2178.4</ele>
        <time>2020-08-11T10:48:49Z</time>
      </trkpt>
      <trkpt lat="45.16564" lon="5.94907">
        <ele>2178.4</ele>
        <time>2020-08-11T10:48:50Z</time>
      </trkpt>
      <trkpt lat="45.16564" lon="5.94907">
        <ele>2178.6</ele>
        <time>2020-08-11T10:48:51Z</time>
      </trkpt>
      <trkpt lat="45.16564" lon="5.94907">
        <ele>2178.4</ele>
        <time>2020-08-11T10:48:52Z</time>
      </trkpt>
      <trkpt lat="45.16564" lon="5.94903">
        <ele>2178.4</ele>
        <time>2020-08-11T10:48:53Z</time>
      </trkpt>
      <trkpt lat="45.16564" lon="5.94899">
        <ele>2178.2</ele>
        <time>2020-08-11T10:48:54Z</time>
      </trkpt>
      <trkpt lat="45.16564" lon="5.94895">
        <ele>2178</ele>
        <time>2020-08-11T10:48:55Z</time>
      </trkpt>
      <trkpt lat="45.16564" lon="5.94891">
        <ele>2177.8</ele>
        <time>2020-08-11T10:48:56Z</time>
      </trkpt>
      <trkpt lat="45.16564" lon="5.94889">
        <ele>2177.4</ele>
        <time>2020-08-11T10:48:57Z</time>
      </trkpt>
      <trkpt lat="45.16564" lon="5.94887">
        <ele>2177.6</ele>
        <time>2020-08-11T10:48:58Z</time>
      </trkpt>
      <trkpt lat="45.16564" lon="5.94885">
        <ele>2177.4</ele>
        <time>2020-08-11T10:48:59Z</time>
      </trkpt>
      <trkpt lat="45.16565" lon="5.94882">
        <ele>2177</ele>
        <time>2020-08-11T10:49:00Z</time>
      </trkpt>
      <trkpt lat="45.16565" lon="5.94882">
        <ele>2177.2</ele>
        <time>2020-08-11T10:49:01Z</time>
      </trkpt>
      <trkpt lat="45.16566" lon="5.9488">
        <ele>2177</ele>
        <time>2020-08-11T10:49:02Z</time>
      </trkpt>
      <trkpt lat="45.16566" lon="5.9488">
        <ele>2177</ele>
        <time>2020-08-11T10:49:03Z</time>
      </trkpt>
      <trkpt lat="45.16568" lon="5.94877">
        <ele>2176.8</ele>
        <time>2020-08-11T10:49:04Z</time>
      </trkpt>
      <trkpt lat="45.16568" lon="5.94877">
        <ele>2176.8</ele>
        <time>2020-08-11T10:49:05Z</time>
      </trkpt>
      <trkpt lat="45.16569" lon="5.94874">
        <ele>2176.6</ele>
        <time>2020-08-11T10:49:06Z</time>
      </trkpt>
      <trkpt lat="45.16569" lon="5.94874">
        <ele>2176.6</ele>
        <time>2020-08-11T10:49:07Z</time>
      </trkpt>
      <trkpt lat="45.16568" lon="5.94871">
        <ele>2176.6</ele>
        <time>2020-08-11T10:49:08Z</time>
      </trkpt>
      <trkpt lat="45.16568" lon="5.94871">
        <ele>2177</ele>
        <time>2020-08-11T10:49:09Z</time>
      </trkpt>
      <trkpt lat="45.16568" lon="5.94871">
        <ele>2176.6</ele>
        <time>2020-08-11T10:49:10Z</time>
      </trkpt>
      <trkpt lat="45.16567" lon="5.94869">
        <ele>2176</ele>
        <time>2020-08-11T10:49:11Z</time>
      </trkpt>
      <trkpt lat="45.16567" lon="5.94869">
        <ele>2176</ele>
        <time>2020-08-11T10:49:12Z</time>
      </trkpt>
      <trkpt lat="45.16565" lon="5.94867">
        <ele>2176</ele>
        <time>2020-08-11T10:49:13Z</time>
      </trkpt>
      <trkpt lat="45.16565" lon="5.94867">
        <ele>2175.8</ele>
        <time>2020-08-11T10:49:14Z</time>
      </trkpt>
      <trkpt lat="45.16565" lon="5.94867">
        <ele>2175.6</ele>
        <time>2020-08-11T10:49:15Z</time>
      </trkpt>
      <trkpt lat="45.16565" lon="5.94867">
        <ele>2175.2</ele>
        <time>2020-08-11T10:49:16Z</time>
      </trkpt>
      <trkpt lat="45.16563" lon="5.94865">
        <ele>2175</ele>
        <time>2020-08-11T10:49:17Z</time>
      </trkpt>
      <trkpt lat="45.16563" lon="5.94865">
        <ele>2174.6</ele>
        <time>2020-08-11T10:49:18Z</time>
      </trkpt>
      <trkpt lat="45.16563" lon="5.94865">
        <ele>2174.2</ele>
        <time>2020-08-11T10:49:19Z</time>
      </trkpt>
      <trkpt lat="45.16563" lon="5.94864">
        <ele>2173.6</ele>
        <time>2020-08-11T10:49:20Z</time>
      </trkpt>
      <trkpt lat="45.16563" lon="5.94863">
        <ele>2173.4</ele>
        <time>2020-08-11T10:49:21Z</time>
      </trkpt>
      <trkpt lat="45.16563" lon="5.94862">
        <ele>2173</ele>
        <time>2020-08-11T10:49:22Z</time>
      </trkpt>
      <trkpt lat="45.16563" lon="5.94861">
        <ele>2172.8</ele>
        <time>2020-08-11T10:49:23Z</time>
      </trkpt>
      <trkpt lat="45.16563" lon="5.9486">
        <ele>2172.6</ele>
        <time>2020-08-11T10:49:24Z</time>
      </trkpt>
      <trkpt lat="45.16563" lon="5.94859">
        <ele>2172</ele>
        <time>2020-08-11T10:49:25Z</time>
      </trkpt>
      <trkpt lat="45.16563" lon="5.94858">
        <ele>2171.8</ele>
        <time>2020-08-11T10:49:26Z</time>
      </trkpt>
      <trkpt lat="45.16563" lon="5.94858">
        <ele>2171.6</ele>
        <time>2020-08-11T10:49:27Z</time>
      </trkpt>
      <trkpt lat="45.16564" lon="5.94856">
        <ele>2171.4</ele>
        <time>2020-08-11T10:49:28Z</time>
      </trkpt>
      <trkpt lat="45.16565" lon="5.94854">
        <ele>2171.2</ele>
        <time>2020-08-11T10:49:29Z</time>
      </trkpt>
      <trkpt lat="45.16567" lon="5.94851">
        <ele>2171</ele>
        <time>2020-08-11T10:49:30Z</time>
      </trkpt>
      <trkpt lat="45.16569" lon="5.9485">
        <ele>2170.4</ele>
        <time>2020-08-11T10:49:31Z</time>
      </trkpt>
      <trkpt lat="45.16571" lon="5.94848">
        <ele>2170</ele>
        <time>2020-08-11T10:49:32Z</time>
      </trkpt>
      <trkpt lat="45.16571" lon="5.94848">
        <ele>2169.8</ele>
        <time>2020-08-11T10:49:33Z</time>
      </trkpt>
      <trkpt lat="45.16572" lon="5.94847">
        <ele>2169.8</ele>
        <time>2020-08-11T10:49:34Z</time>
      </trkpt>
      <trkpt lat="45.16573" lon="5.94845">
        <ele>2169.8</ele>
        <time>2020-08-11T10:49:35Z</time>
      </trkpt>
      <trkpt lat="45.16573" lon="5.94844">
        <ele>2170.2</ele>
        <time>2020-08-11T10:49:36Z</time>
      </trkpt>
      <trkpt lat="45.16574" lon="5.94842">
        <ele>2170.2</ele>
        <time>2020-08-11T10:49:37Z</time>
      </trkpt>
      <trkpt lat="45.16575" lon="5.94841">
        <ele>2170.2</ele>
        <time>2020-08-11T10:49:38Z</time>
      </trkpt>
      <trkpt lat="45.16576" lon="5.94839">
        <ele>2170</ele>
        <time>2020-08-11T10:49:39Z</time>
      </trkpt>
      <trkpt lat="45.16576" lon="5.94839">
        <ele>2169.8</ele>
        <time>2020-08-11T10:49:40Z</time>
      </trkpt>
      <trkpt lat="45.16577" lon="5.94836">
        <ele>2169.6</ele>
        <time>2020-08-11T10:49:41Z</time>
      </trkpt>
      <trkpt lat="45.16578" lon="5.94834">
        <ele>2169.6</ele>
        <time>2020-08-11T10:49:42Z</time>
      </trkpt>
      <trkpt lat="45.16578" lon="5.94834">
        <ele>2169.6</ele>
        <time>2020-08-11T10:49:43Z</time>
      </trkpt>
      <trkpt lat="45.1658" lon="5.94832">
        <ele>2169.6</ele>
        <time>2020-08-11T10:49:44Z</time>
      </trkpt>
      <trkpt lat="45.1658" lon="5.9483">
        <ele>2169.4</ele>
        <time>2020-08-11T10:49:45Z</time>
      </trkpt>
      <trkpt lat="45.1658" lon="5.9483">
        <ele>2169.6</ele>
        <time>2020-08-11T10:49:46Z</time>
      </trkpt>
      <trkpt lat="45.1658" lon="5.9483">
        <ele>2169.6</ele>
        <time>2020-08-11T10:49:47Z</time>
      </trkpt>
      <trkpt lat="45.1658" lon="5.9483">
        <ele>2169.6</ele>
        <time>2020-08-11T10:49:48Z</time>
      </trkpt>
      <trkpt lat="45.1658" lon="5.9483">
        <ele>2169.4</ele>
        <time>2020-08-11T10:49:49Z</time>
      </trkpt>
      <trkpt lat="45.1658" lon="5.9483">
        <ele>2169</ele>
        <time>2020-08-11T10:49:50Z</time>
      </trkpt>
      <trkpt lat="45.1658" lon="5.9483">
        <ele>2169</ele>
        <time>2020-08-11T10:49:51Z</time>
      </trkpt>
      <trkpt lat="45.1658" lon="5.9483">
        <ele>2167.6</ele>
        <time>2020-08-11T10:49:52Z</time>
      </trkpt>
      <trkpt lat="45.1658" lon="5.94825">
        <ele>2167.2</ele>
        <time>2020-08-11T10:49:53Z</time>
      </trkpt>
      <trkpt lat="45.1658" lon="5.94825">
        <ele>2167.4</ele>
        <time>2020-08-11T10:49:54Z</time>
      </trkpt>
      <trkpt lat="45.1658" lon="5.94825">
        <ele>2166.6</ele>
        <time>2020-08-11T10:49:55Z</time>
      </trkpt>
      <trkpt lat="45.1658" lon="5.94825">
        <ele>2166.6</ele>
        <time>2020-08-11T10:49:56Z</time>
      </trkpt>
      <trkpt lat="45.1658" lon="5.94822">
        <ele>2166.4</ele>
        <time>2020-08-11T10:49:57Z</time>
      </trkpt>
      <trkpt lat="45.1658" lon="5.94818">
        <ele>2165.8</ele>
        <time>2020-08-11T10:49:58Z</time>
      </trkpt>
      <trkpt lat="45.1658" lon="5.94818">
        <ele>2165.6</ele>
        <time>2020-08-11T10:49:59Z</time>
      </trkpt>
      <trkpt lat="45.16582" lon="5.94814">
        <ele>2165.6</ele>
        <time>2020-08-11T10:50:00Z</time>
      </trkpt>
      <trkpt lat="45.16582" lon="5.94812">
        <ele>2165</ele>
        <time>2020-08-11T10:50:01Z</time>
      </trkpt>
      <trkpt lat="45.16581" lon="5.94811">
        <ele>2164.6</ele>
        <time>2020-08-11T10:50:02Z</time>
      </trkpt>
      <trkpt lat="45.16581" lon="5.9481">
        <ele>2164.2</ele>
        <time>2020-08-11T10:50:03Z</time>
      </trkpt>
      <trkpt lat="45.16581" lon="5.94808">
        <ele>2164</ele>
        <time>2020-08-11T10:50:04Z</time>
      </trkpt>
      <trkpt lat="45.16581" lon="5.94808">
        <ele>2163.6</ele>
        <time>2020-08-11T10:50:05Z</time>
      </trkpt>
      <trkpt lat="45.16581" lon="5.94808">
        <ele>2163.4</ele>
        <time>2020-08-11T10:50:06Z</time>
      </trkpt>
      <trkpt lat="45.16583" lon="5.94807">
        <ele>2163</ele>
        <time>2020-08-11T10:50:07Z</time>
      </trkpt>
      <trkpt lat="45.16583" lon="5.94807">
        <ele>2162.2</ele>
        <time>2020-08-11T10:50:08Z</time>
      </trkpt>
      <trkpt lat="45.16583" lon="5.94807">
        <ele>2162</ele>
        <time>2020-08-11T10:50:09Z</time>
      </trkpt>
      <trkpt lat="45.16582" lon="5.94802">
        <ele>2162</ele>
        <time>2020-08-11T10:50:10Z</time>
      </trkpt>
      <trkpt lat="45.16582" lon="5.94802">
        <ele>2161.6</ele>
        <time>2020-08-11T10:50:11Z</time>
      </trkpt>
      <trkpt lat="45.16582" lon="5.94802">
        <ele>2161</ele>
        <time>2020-08-11T10:50:12Z</time>
      </trkpt>
      <trkpt lat="45.16582" lon="5.94798">
        <ele>2160.6</ele>
        <time>2020-08-11T10:50:13Z</time>
      </trkpt>
      <trkpt lat="45.16582" lon="5.94798">
        <ele>2160.2</ele>
        <time>2020-08-11T10:50:14Z</time>
      </trkpt>
      <trkpt lat="45.16583" lon="5.94795">
        <ele>2159.8</ele>
        <time>2020-08-11T10:50:15Z</time>
      </trkpt>
      <trkpt lat="45.16583" lon="5.94791">
        <ele>2159.6</ele>
        <time>2020-08-11T10:50:16Z</time>
      </trkpt>
      <trkpt lat="45.16582" lon="5.94788">
        <ele>2158.6</ele>
        <time>2020-08-11T10:50:17Z</time>
      </trkpt>
      <trkpt lat="45.16581" lon="5.94785">
        <ele>2158.2</ele>
        <time>2020-08-11T10:50:18Z</time>
      </trkpt>
      <trkpt lat="45.1658" lon="5.94782">
        <ele>2157.8</ele>
        <time>2020-08-11T10:50:19Z</time>
      </trkpt>
      <trkpt lat="45.1658" lon="5.94782">
        <ele>2157.8</ele>
        <time>2020-08-11T10:50:20Z</time>
      </trkpt>
      <trkpt lat="45.1658" lon="5.94781">
        <ele>2155.6</ele>
        <time>2020-08-11T10:50:21Z</time>
      </trkpt>
      <trkpt lat="45.16578" lon="5.94778">
        <ele>2154.8</ele>
        <time>2020-08-11T10:50:22Z</time>
      </trkpt>
      <trkpt lat="45.16577" lon="5.94772">
        <ele>2153.8</ele>
        <time>2020-08-11T10:50:23Z</time>
      </trkpt>
      <trkpt lat="45.16576" lon="5.94771">
        <ele>2153.6</ele>
        <time>2020-08-11T10:50:24Z</time>
      </trkpt>
      <trkpt lat="45.16575" lon="5.94769">
        <ele>2152.8</ele>
        <time>2020-08-11T10:50:25Z</time>
      </trkpt>
      <trkpt lat="45.16575" lon="5.94767">
        <ele>2153.2</ele>
        <time>2020-08-11T10:50:26Z</time>
      </trkpt>
      <trkpt lat="45.16574" lon="5.94765">
        <ele>2153</ele>
        <time>2020-08-11T10:50:27Z</time>
      </trkpt>
      <trkpt lat="45.16574" lon="5.94765">
        <ele>2153</ele>
        <time>2020-08-11T10:50:28Z</time>
      </trkpt>
      <trkpt lat="45.16574" lon="5.9476">
        <ele>2152.4</ele>
        <time>2020-08-11T10:50:29Z</time>
      </trkpt>
      <trkpt lat="45.16572" lon="5.94755">
        <ele>2151.8</ele>
        <time>2020-08-11T10:50:30Z</time>
      </trkpt>
      <trkpt lat="45.16572" lon="5.94755">
        <ele>2151</ele>
        <time>2020-08-11T10:50:31Z</time>
      </trkpt>
      <trkpt lat="45.16571" lon="5.94753">
        <ele>2150.8</ele>
        <time>2020-08-11T10:50:32Z</time>
      </trkpt>
      <trkpt lat="45.16571" lon="5.94753">
        <ele>2150.4</ele>
        <time>2020-08-11T10:50:33Z</time>
      </trkpt>
      <trkpt lat="45.16571" lon="5.94748">
        <ele>2150</ele>
        <time>2020-08-11T10:50:34Z</time>
      </trkpt>
      <trkpt lat="45.16571" lon="5.94748">
        <ele>2149.4</ele>
        <time>2020-08-11T10:50:35Z</time>
      </trkpt>
      <trkpt lat="45.16571" lon="5.94748">
        <ele>2149.2</ele>
        <time>2020-08-11T10:50:36Z</time>
      </trkpt>
      <trkpt lat="45.16569" lon="5.94746">
        <ele>2149.2</ele>
        <time>2020-08-11T10:50:37Z</time>
      </trkpt>
      <trkpt lat="45.16569" lon="5.94746">
        <ele>2149</ele>
        <time>2020-08-11T10:50:38Z</time>
      </trkpt>
      <trkpt lat="45.16568" lon="5.94743">
        <ele>2148.8</ele>
        <time>2020-08-11T10:50:39Z</time>
      </trkpt>
      <trkpt lat="45.16568" lon="5.94743">
        <ele>2148.6</ele>
        <time>2020-08-11T10:50:40Z</time>
      </trkpt>
      <trkpt lat="45.16568" lon="5.94739">
        <ele>2148.4</ele>
        <time>2020-08-11T10:50:41Z</time>
      </trkpt>
      <trkpt lat="45.16566" lon="5.94736">
        <ele>2148.2</ele>
        <time>2020-08-11T10:50:42Z</time>
      </trkpt>
      <trkpt lat="45.16566" lon="5.94736">
        <ele>2147.8</ele>
        <time>2020-08-11T10:50:43Z</time>
      </trkpt>
      <trkpt lat="45.16565" lon="5.94732">
        <ele>2147.2</ele>
        <time>2020-08-11T10:50:44Z</time>
      </trkpt>
      <trkpt lat="45.16565" lon="5.94732">
        <ele>2147.2</ele>
        <time>2020-08-11T10:50:45Z</time>
      </trkpt>
      <trkpt lat="45.16565" lon="5.94732">
        <ele>2147.4</ele>
        <time>2020-08-11T10:50:46Z</time>
      </trkpt>
      <trkpt lat="45.16565" lon="5.94729">
        <ele>2147.4</ele>
        <time>2020-08-11T10:50:47Z</time>
      </trkpt>
      <trkpt lat="45.16565" lon="5.94729">
        <ele>2147.8</ele>
        <time>2020-08-11T10:50:48Z</time>
      </trkpt>
      <trkpt lat="45.16565" lon="5.94729">
        <ele>2147.8</ele>
        <time>2020-08-11T10:50:49Z</time>
      </trkpt>
      <trkpt lat="45.16564" lon="5.94726">
        <ele>2147.8</ele>
        <time>2020-08-11T10:50:50Z</time>
      </trkpt>
      <trkpt lat="45.16564" lon="5.94726">
        <ele>2146.8</ele>
        <time>2020-08-11T10:50:51Z</time>
      </trkpt>
      <trkpt lat="45.16563" lon="5.94724">
        <ele>2146.6</ele>
        <time>2020-08-11T10:50:52Z</time>
      </trkpt>
      <trkpt lat="45.16561" lon="5.94722">
        <ele>2147</ele>
        <time>2020-08-11T10:50:53Z</time>
      </trkpt>
      <trkpt lat="45.16561" lon="5.94722">
        <ele>2146.8</ele>
        <time>2020-08-11T10:50:54Z</time>
      </trkpt>
      <trkpt lat="45.16559" lon="5.94721">
        <ele>2146.8</ele>
        <time>2020-08-11T10:50:55Z</time>
      </trkpt>
      <trkpt lat="45.16556" lon="5.94718">
        <ele>2146</ele>
        <time>2020-08-11T10:50:56Z</time>
      </trkpt>
      <trkpt lat="45.16556" lon="5.94718">
        <ele>2145.4</ele>
        <time>2020-08-11T10:50:57Z</time>
      </trkpt>
      <trkpt lat="45.16554" lon="5.94715">
        <ele>2145</ele>
        <time>2020-08-11T10:50:58Z</time>
      </trkpt>
      <trkpt lat="45.16554" lon="5.94715">
        <ele>2145</ele>
        <time>2020-08-11T10:50:59Z</time>
      </trkpt>
      <trkpt lat="45.16554" lon="5.94715">
        <ele>2144.6</ele>
        <time>2020-08-11T10:51:00Z</time>
      </trkpt>
      <trkpt lat="45.16551" lon="5.94712">
        <ele>2144.2</ele>
        <time>2020-08-11T10:51:01Z</time>
      </trkpt>
      <trkpt lat="45.16549" lon="5.94711">
        <ele>2143.8</ele>
        <time>2020-08-11T10:51:02Z</time>
      </trkpt>
      <trkpt lat="45.16548" lon="5.94709">
        <ele>2143.4</ele>
        <time>2020-08-11T10:51:03Z</time>
      </trkpt>
      <trkpt lat="45.16546" lon="5.9471">
        <ele>2142.8</ele>
        <time>2020-08-11T10:51:04Z</time>
      </trkpt>
      <trkpt lat="45.16544" lon="5.94711">
        <ele>2141.6</ele>
        <time>2020-08-11T10:51:05Z</time>
      </trkpt>
      <trkpt lat="45.16543" lon="5.94711">
        <ele>2141.6</ele>
        <time>2020-08-11T10:51:06Z</time>
      </trkpt>
      <trkpt lat="45.16541" lon="5.94712">
        <ele>2141.4</ele>
        <time>2020-08-11T10:51:07Z</time>
      </trkpt>
      <trkpt lat="45.1654" lon="5.94712">
        <ele>2141.2</ele>
        <time>2020-08-11T10:51:08Z</time>
      </trkpt>
      <trkpt lat="45.16538" lon="5.94713">
        <ele>2140.4</ele>
        <time>2020-08-11T10:51:09Z</time>
      </trkpt>
      <trkpt lat="45.16537" lon="5.94713">
        <ele>2140</ele>
        <time>2020-08-11T10:51:10Z</time>
      </trkpt>
      <trkpt lat="45.16535" lon="5.94714">
        <ele>2139.8</ele>
        <time>2020-08-11T10:51:11Z</time>
      </trkpt>
      <trkpt lat="45.16533" lon="5.94714">
        <ele>2139.4</ele>
        <time>2020-08-11T10:51:12Z</time>
      </trkpt>
      <trkpt lat="45.16533" lon="5.94714">
        <ele>2138.8</ele>
        <time>2020-08-11T10:51:13Z</time>
      </trkpt>
      <trkpt lat="45.16531" lon="5.94714">
        <ele>2138</ele>
        <time>2020-08-11T10:51:14Z</time>
      </trkpt>
      <trkpt lat="45.16531" lon="5.94714">
        <ele>2137.8</ele>
        <time>2020-08-11T10:51:15Z</time>
      </trkpt>
      <trkpt lat="45.16531" lon="5.94714">
        <ele>2137.6</ele>
        <time>2020-08-11T10:51:16Z</time>
      </trkpt>
      <trkpt lat="45.16528" lon="5.94714">
        <ele>2137</ele>
        <time>2020-08-11T10:51:17Z</time>
      </trkpt>
      <trkpt lat="45.16528" lon="5.94714">
        <ele>2136.6</ele>
        <time>2020-08-11T10:51:18Z</time>
      </trkpt>
      <trkpt lat="45.16524" lon="5.94714">
        <ele>2136.2</ele>
        <time>2020-08-11T10:51:19Z</time>
      </trkpt>
      <trkpt lat="45.16523" lon="5.94713">
        <ele>2135.4</ele>
        <time>2020-08-11T10:51:20Z</time>
      </trkpt>
      <trkpt lat="45.16522" lon="5.94713">
        <ele>2135</ele>
        <time>2020-08-11T10:51:21Z</time>
      </trkpt>
      <trkpt lat="45.16521" lon="5.94712">
        <ele>2134.6</ele>
        <time>2020-08-11T10:51:22Z</time>
      </trkpt>
      <trkpt lat="45.16521" lon="5.94712">
        <ele>2134.4</ele>
        <time>2020-08-11T10:51:23Z</time>
      </trkpt>
      <trkpt lat="45.16518" lon="5.94713">
        <ele>2134</ele>
        <time>2020-08-11T10:51:24Z</time>
      </trkpt>
      <trkpt lat="45.16515" lon="5.94715">
        <ele>2133.8</ele>
        <time>2020-08-11T10:51:25Z</time>
      </trkpt>
      <trkpt lat="45.16515" lon="5.94715">
        <ele>2133.6</ele>
        <time>2020-08-11T10:51:26Z</time>
      </trkpt>
      <trkpt lat="45.16512" lon="5.94716">
        <ele>2133.4</ele>
        <time>2020-08-11T10:51:27Z</time>
      </trkpt>
      <trkpt lat="45.16512" lon="5.94716">
        <ele>2133</ele>
        <time>2020-08-11T10:51:28Z</time>
      </trkpt>
      <trkpt lat="45.16512" lon="5.94716">
        <ele>2132.6</ele>
        <time>2020-08-11T10:51:29Z</time>
      </trkpt>
      <trkpt lat="45.16511" lon="5.94716">
        <ele>2132.2</ele>
        <time>2020-08-11T10:51:30Z</time>
      </trkpt>
      <trkpt lat="45.16511" lon="5.94716">
        <ele>2132</ele>
        <time>2020-08-11T10:51:31Z</time>
      </trkpt>
      <trkpt lat="45.16511" lon="5.94716">
        <ele>2131.8</ele>
        <time>2020-08-11T10:51:32Z</time>
      </trkpt>
      <trkpt lat="45.16511" lon="5.94716">
        <ele>2131.6</ele>
        <time>2020-08-11T10:51:33Z</time>
      </trkpt>
      <trkpt lat="45.16511" lon="5.94716">
        <ele>2131.4</ele>
        <time>2020-08-11T10:51:34Z</time>
      </trkpt>
      <trkpt lat="45.16511" lon="5.94716">
        <ele>2131.2</ele>
        <time>2020-08-11T10:51:35Z</time>
      </trkpt>
      <trkpt lat="45.16511" lon="5.94716">
        <ele>2131.2</ele>
        <time>2020-08-11T10:51:36Z</time>
      </trkpt>
      <trkpt lat="45.16511" lon="5.94716">
        <ele>2131.2</ele>
        <time>2020-08-11T10:51:37Z</time>
      </trkpt>
      <trkpt lat="45.16508" lon="5.94717">
        <ele>2130.8</ele>
        <time>2020-08-11T10:51:38Z</time>
      </trkpt>
      <trkpt lat="45.16508" lon="5.94717">
        <ele>2130.6</ele>
        <time>2020-08-11T10:51:39Z</time>
      </trkpt>
      <trkpt lat="45.16506" lon="5.94716">
        <ele>2130.6</ele>
        <time>2020-08-11T10:51:40Z</time>
      </trkpt>
      <trkpt lat="45.16506" lon="5.94716">
        <ele>2130.4</ele>
        <time>2020-08-11T10:51:41Z</time>
      </trkpt>
      <trkpt lat="45.16504" lon="5.94715">
        <ele>2130.2</ele>
        <time>2020-08-11T10:51:42Z</time>
      </trkpt>
      <trkpt lat="45.16502" lon="5.94715">
        <ele>2130.2</ele>
        <time>2020-08-11T10:51:43Z</time>
      </trkpt>
      <trkpt lat="45.16502" lon="5.94715">
        <ele>2130.2</ele>
        <time>2020-08-11T10:51:44Z</time>
      </trkpt>
      <trkpt lat="45.165" lon="5.94715">
        <ele>2130</ele>
        <time>2020-08-11T10:51:45Z</time>
      </trkpt>
      <trkpt lat="45.165" lon="5.94715">
        <ele>2129.8</ele>
        <time>2020-08-11T10:51:46Z</time>
      </trkpt>
      <trkpt lat="45.165" lon="5.94715">
        <ele>2129.4</ele>
        <time>2020-08-11T10:51:47Z</time>
      </trkpt>
      <trkpt lat="45.16498" lon="5.94714">
        <ele>2129</ele>
        <time>2020-08-11T10:51:48Z</time>
      </trkpt>
      <trkpt lat="45.16498" lon="5.94714">
        <ele>2129.2</ele>
        <time>2020-08-11T10:51:49Z</time>
      </trkpt>
      <trkpt lat="45.16498" lon="5.94714">
        <ele>2129</ele>
        <time>2020-08-11T10:51:50Z</time>
      </trkpt>
      <trkpt lat="45.16497" lon="5.94714">
        <ele>2128.6</ele>
        <time>2020-08-11T10:51:51Z</time>
      </trkpt>
      <trkpt lat="45.16496" lon="5.94714">
        <ele>2128</ele>
        <time>2020-08-11T10:51:52Z</time>
      </trkpt>
      <trkpt lat="45.16495" lon="5.94713">
        <ele>2127.4</ele>
        <time>2020-08-11T10:51:53Z</time>
      </trkpt>
      <trkpt lat="45.16494" lon="5.94713">
        <ele>2127.2</ele>
        <time>2020-08-11T10:51:54Z</time>
      </trkpt>
      <trkpt lat="45.16494" lon="5.94709">
        <ele>2126.8</ele>
        <time>2020-08-11T10:51:55Z</time>
      </trkpt>
      <trkpt lat="45.16494" lon="5.94709">
        <ele>2126.6</ele>
        <time>2020-08-11T10:51:56Z</time>
      </trkpt>
      <trkpt lat="45.16494" lon="5.94709">
        <ele>2126.2</ele>
        <time>2020-08-11T10:51:57Z</time>
      </trkpt>
      <trkpt lat="45.16494" lon="5.94709">
        <ele>2126.2</ele>
        <time>2020-08-11T10:51:58Z</time>
      </trkpt>
      <trkpt lat="45.16492" lon="5.94708">
        <ele>2125.8</ele>
        <time>2020-08-11T10:51:59Z</time>
      </trkpt>
      <trkpt lat="45.16492" lon="5.94708">
        <ele>2125.4</ele>
        <time>2020-08-11T10:52:00Z</time>
      </trkpt>
      <trkpt lat="45.16489" lon="5.9471">
        <ele>2125.2</ele>
        <time>2020-08-11T10:52:01Z</time>
      </trkpt>
      <trkpt lat="45.16488" lon="5.94711">
        <ele>2124.8</ele>
        <time>2020-08-11T10:52:02Z</time>
      </trkpt>
      <trkpt lat="45.16487" lon="5.94711">
        <ele>2124.6</ele>
        <time>2020-08-11T10:52:03Z</time>
      </trkpt>
      <trkpt lat="45.16486" lon="5.94712">
        <ele>2124.4</ele>
        <time>2020-08-11T10:52:04Z</time>
      </trkpt>
      <trkpt lat="45.16484" lon="5.94714">
        <ele>2124.2</ele>
        <time>2020-08-11T10:52:05Z</time>
      </trkpt>
      <trkpt lat="45.16484" lon="5.94714">
        <ele>2124</ele>
        <time>2020-08-11T10:52:06Z</time>
      </trkpt>
      <trkpt lat="45.16484" lon="5.94714">
        <ele>2124</ele>
        <time>2020-08-11T10:52:07Z</time>
      </trkpt>
      <trkpt lat="45.16482" lon="5.94714">
        <ele>2123.6</ele>
        <time>2020-08-11T10:52:08Z</time>
      </trkpt>
      <trkpt lat="45.16481" lon="5.94714">
        <ele>2123.6</ele>
        <time>2020-08-11T10:52:09Z</time>
      </trkpt>
      <trkpt lat="45.1648" lon="5.94714">
        <ele>2123.4</ele>
        <time>2020-08-11T10:52:10Z</time>
      </trkpt>
      <trkpt lat="45.16478" lon="5.94714">
        <ele>2123.2</ele>
        <time>2020-08-11T10:52:11Z</time>
      </trkpt>
      <trkpt lat="45.16477" lon="5.94714">
        <ele>2123</ele>
        <time>2020-08-11T10:52:12Z</time>
      </trkpt>
      <trkpt lat="45.16476" lon="5.94715">
        <ele>2123</ele>
        <time>2020-08-11T10:52:13Z</time>
      </trkpt>
      <trkpt lat="45.16475" lon="5.94715">
        <ele>2123</ele>
        <time>2020-08-11T10:52:14Z</time>
      </trkpt>
      <trkpt lat="45.16473" lon="5.94712">
        <ele>2123</ele>
        <time>2020-08-11T10:52:15Z</time>
      </trkpt>
      <trkpt lat="45.16474" lon="5.94709">
        <ele>2123.2</ele>
        <time>2020-08-11T10:52:16Z</time>
      </trkpt>
      <trkpt lat="45.16475" lon="5.94706">
        <ele>2123.2</ele>
        <time>2020-08-11T10:52:17Z</time>
      </trkpt>
      <trkpt lat="45.16477" lon="5.94701">
        <ele>2123.2</ele>
        <time>2020-08-11T10:52:18Z</time>
      </trkpt>
      <trkpt lat="45.16479" lon="5.94695">
        <ele>2123</ele>
        <time>2020-08-11T10:52:19Z</time>
      </trkpt>
      <trkpt lat="45.16481" lon="5.94689">
        <ele>2123</ele>
        <time>2020-08-11T10:52:20Z</time>
      </trkpt>
      <trkpt lat="45.1648" lon="5.94689">
        <ele>2123</ele>
        <time>2020-08-11T10:52:21Z</time>
      </trkpt>
      <trkpt lat="45.16478" lon="5.94688">
        <ele>2122.6</ele>
        <time>2020-08-11T10:52:22Z</time>
      </trkpt>
      <trkpt lat="45.16477" lon="5.94687">
        <ele>2122.6</ele>
        <time>2020-08-11T10:52:23Z</time>
      </trkpt>
      <trkpt lat="45.16476" lon="5.94687">
        <ele>2122.6</ele>
        <time>2020-08-11T10:52:24Z</time>
      </trkpt>
      <trkpt lat="45.16475" lon="5.94686">
        <ele>2122.6</ele>
        <time>2020-08-11T10:52:25Z</time>
      </trkpt>
      <trkpt lat="45.16473" lon="5.94685">
        <ele>2122.4</ele>
        <time>2020-08-11T10:52:26Z</time>
      </trkpt>
      <trkpt lat="45.16472" lon="5.94684">
        <ele>2122.2</ele>
        <time>2020-08-11T10:52:27Z</time>
      </trkpt>
      <trkpt lat="45.16471" lon="5.94684">
        <ele>2122.4</ele>
        <time>2020-08-11T10:52:28Z</time>
      </trkpt>
      <trkpt lat="45.16471" lon="5.94684">
        <ele>2122.6</ele>
        <time>2020-08-11T10:52:29Z</time>
      </trkpt>
      <trkpt lat="45.1647" lon="5.94683">
        <ele>2122.6</ele>
        <time>2020-08-11T10:52:30Z</time>
      </trkpt>
      <trkpt lat="45.16469" lon="5.94683">
        <ele>2122.4</ele>
        <time>2020-08-11T10:52:31Z</time>
      </trkpt>
      <trkpt lat="45.16469" lon="5.94682">
        <ele>2122.2</ele>
        <time>2020-08-11T10:52:32Z</time>
      </trkpt>
      <trkpt lat="45.16468" lon="5.94682">
        <ele>2122</ele>
        <time>2020-08-11T10:52:33Z</time>
      </trkpt>
      <trkpt lat="45.16467" lon="5.94682">
        <ele>2121.8</ele>
        <time>2020-08-11T10:52:34Z</time>
      </trkpt>
      <trkpt lat="45.16467" lon="5.94681">
        <ele>2121.8</ele>
        <time>2020-08-11T10:52:35Z</time>
      </trkpt>
      <trkpt lat="45.16466" lon="5.94681">
        <ele>2121.8</ele>
        <time>2020-08-11T10:52:36Z</time>
      </trkpt>
      <trkpt lat="45.16465" lon="5.9468">
        <ele>2121.8</ele>
        <time>2020-08-11T10:52:37Z</time>
      </trkpt>
      <trkpt lat="45.16465" lon="5.9468">
        <ele>2121.8</ele>
        <time>2020-08-11T10:52:38Z</time>
      </trkpt>
      <trkpt lat="45.16464" lon="5.9468">
        <ele>2121.8</ele>
        <time>2020-08-11T10:52:39Z</time>
      </trkpt>
      <trkpt lat="45.16463" lon="5.94679">
        <ele>2121.6</ele>
        <time>2020-08-11T10:52:40Z</time>
      </trkpt>
      <trkpt lat="45.16462" lon="5.94679">
        <ele>2121.6</ele>
        <time>2020-08-11T10:52:41Z</time>
      </trkpt>
      <trkpt lat="45.16462" lon="5.94679">
        <ele>2121.6</ele>
        <time>2020-08-11T10:52:42Z</time>
      </trkpt>
      <trkpt lat="45.16461" lon="5.94678">
        <ele>2121.4</ele>
        <time>2020-08-11T10:52:43Z</time>
      </trkpt>
      <trkpt lat="45.1646" lon="5.94678">
        <ele>2121.4</ele>
        <time>2020-08-11T10:52:44Z</time>
      </trkpt>
      <trkpt lat="45.16459" lon="5.94678">
        <ele>2121.4</ele>
        <time>2020-08-11T10:52:45Z</time>
      </trkpt>
      <trkpt lat="45.16458" lon="5.94678">
        <ele>2121.2</ele>
        <time>2020-08-11T10:52:46Z</time>
      </trkpt>
      <trkpt lat="45.16458" lon="5.94678">
        <ele>2121</ele>
        <time>2020-08-11T10:52:47Z</time>
      </trkpt>
      <trkpt lat="45.16457" lon="5.94677">
        <ele>2120.6</ele>
        <time>2020-08-11T10:52:48Z</time>
      </trkpt>
      <trkpt lat="45.16456" lon="5.94677">
        <ele>2119.8</ele>
        <time>2020-08-11T10:52:49Z</time>
      </trkpt>
      <trkpt lat="45.16455" lon="5.94677">
        <ele>2119.8</ele>
        <time>2020-08-11T10:52:50Z</time>
      </trkpt>
      <trkpt lat="45.16454" lon="5.94677">
        <ele>2119.4</ele>
        <time>2020-08-11T10:52:51Z</time>
      </trkpt>
      <trkpt lat="45.16453" lon="5.94676">
        <ele>2119.6</ele>
        <time>2020-08-11T10:52:52Z</time>
      </trkpt>
      <trkpt lat="45.16453" lon="5.94676">
        <ele>2119.4</ele>
        <time>2020-08-11T10:52:53Z</time>
      </trkpt>
      <trkpt lat="45.16451" lon="5.94675">
        <ele>2119.4</ele>
        <time>2020-08-11T10:52:54Z</time>
      </trkpt>
      <trkpt lat="45.1645" lon="5.94674">
        <ele>2119.4</ele>
        <time>2020-08-11T10:52:55Z</time>
      </trkpt>
      <trkpt lat="45.16448" lon="5.94673">
        <ele>2119.6</ele>
        <time>2020-08-11T10:52:56Z</time>
      </trkpt>
      <trkpt lat="45.16446" lon="5.94673">
        <ele>2119.2</ele>
        <time>2020-08-11T10:52:57Z</time>
      </trkpt>
      <trkpt lat="45.16445" lon="5.94672">
        <ele>2118.8</ele>
        <time>2020-08-11T10:52:58Z</time>
      </trkpt>
      <trkpt lat="45.16443" lon="5.94671">
        <ele>2118.4</ele>
        <time>2020-08-11T10:52:59Z</time>
      </trkpt>
      <trkpt lat="45.16441" lon="5.94669">
        <ele>2118</ele>
        <time>2020-08-11T10:53:00Z</time>
      </trkpt>
      <trkpt lat="45.16439" lon="5.94667">
        <ele>2118.4</ele>
        <time>2020-08-11T10:53:01Z</time>
      </trkpt>
      <trkpt lat="45.16437" lon="5.94665">
        <ele>2118</ele>
        <time>2020-08-11T10:53:02Z</time>
      </trkpt>
      <trkpt lat="45.16435" lon="5.94663">
        <ele>2118.2</ele>
        <time>2020-08-11T10:53:03Z</time>
      </trkpt>
      <trkpt lat="45.16433" lon="5.94662">
        <ele>2118</ele>
        <time>2020-08-11T10:53:04Z</time>
      </trkpt>
      <trkpt lat="45.16431" lon="5.9466">
        <ele>2118.4</ele>
        <time>2020-08-11T10:53:05Z</time>
      </trkpt>
      <trkpt lat="45.16429" lon="5.94658">
        <ele>2118.2</ele>
        <time>2020-08-11T10:53:06Z</time>
      </trkpt>
      <trkpt lat="45.16427" lon="5.94656">
        <ele>2118.4</ele>
        <time>2020-08-11T10:53:07Z</time>
      </trkpt>
      <trkpt lat="45.16425" lon="5.94655">
        <ele>2117.8</ele>
        <time>2020-08-11T10:53:08Z</time>
      </trkpt>
      <trkpt lat="45.16424" lon="5.94653">
        <ele>2118.2</ele>
        <time>2020-08-11T10:53:09Z</time>
      </trkpt>
      <trkpt lat="45.16422" lon="5.94651">
        <ele>2118.2</ele>
        <time>2020-08-11T10:53:10Z</time>
      </trkpt>
      <trkpt lat="45.1642" lon="5.94649">
        <ele>2118.4</ele>
        <time>2020-08-11T10:53:11Z</time>
      </trkpt>
      <trkpt lat="45.16418" lon="5.94647">
        <ele>2118.2</ele>
        <time>2020-08-11T10:53:12Z</time>
      </trkpt>
      <trkpt lat="45.16417" lon="5.94645">
        <ele>2118.6</ele>
        <time>2020-08-11T10:53:13Z</time>
      </trkpt>
      <trkpt lat="45.16416" lon="5.94642">
        <ele>2118.2</ele>
        <time>2020-08-11T10:53:14Z</time>
      </trkpt>
      <trkpt lat="45.16414" lon="5.94639">
        <ele>2118.4</ele>
        <time>2020-08-11T10:53:15Z</time>
      </trkpt>
      <trkpt lat="45.16413" lon="5.94637">
        <ele>2118</ele>
        <time>2020-08-11T10:53:16Z</time>
      </trkpt>
      <trkpt lat="45.16412" lon="5.94634">
        <ele>2118</ele>
        <time>2020-08-11T10:53:17Z</time>
      </trkpt>
      <trkpt lat="45.16411" lon="5.94633">
        <ele>2117.8</ele>
        <time>2020-08-11T10:53:18Z</time>
      </trkpt>
      <trkpt lat="45.16409" lon="5.94631">
        <ele>2117.6</ele>
        <time>2020-08-11T10:53:19Z</time>
      </trkpt>
      <trkpt lat="45.16408" lon="5.94629">
        <ele>2117.6</ele>
        <time>2020-08-11T10:53:20Z</time>
      </trkpt>
      <trkpt lat="45.16407" lon="5.94627">
        <ele>2117.4</ele>
        <time>2020-08-11T10:53:21Z</time>
      </trkpt>
      <trkpt lat="45.16406" lon="5.94626">
        <ele>2117.2</ele>
        <time>2020-08-11T10:53:22Z</time>
      </trkpt>
      <trkpt lat="45.16404" lon="5.94624">
        <ele>2116.8</ele>
        <time>2020-08-11T10:53:23Z</time>
      </trkpt>
      <trkpt lat="45.16405" lon="5.94623">
        <ele>2116.2</ele>
        <time>2020-08-11T10:53:24Z</time>
      </trkpt>
      <trkpt lat="45.16406" lon="5.94621">
        <ele>2115.8</ele>
        <time>2020-08-11T10:53:25Z</time>
      </trkpt>
      <trkpt lat="45.16407" lon="5.9462">
        <ele>2115.2</ele>
        <time>2020-08-11T10:53:26Z</time>
      </trkpt>
      <trkpt lat="45.16408" lon="5.94618">
        <ele>2114.6</ele>
        <time>2020-08-11T10:53:27Z</time>
      </trkpt>
      <trkpt lat="45.16409" lon="5.94616">
        <ele>2114.4</ele>
        <time>2020-08-11T10:53:28Z</time>
      </trkpt>
      <trkpt lat="45.16409" lon="5.94615">
        <ele>2114.6</ele>
        <time>2020-08-11T10:53:29Z</time>
      </trkpt>
      <trkpt lat="45.1641" lon="5.94613">
        <ele>2114.4</ele>
        <time>2020-08-11T10:53:30Z</time>
      </trkpt>
      <trkpt lat="45.16412" lon="5.9461">
        <ele>2114.6</ele>
        <time>2020-08-11T10:53:31Z</time>
      </trkpt>
      <trkpt lat="45.16413" lon="5.94607">
        <ele>2114.2</ele>
        <time>2020-08-11T10:53:32Z</time>
      </trkpt>
      <trkpt lat="45.16415" lon="5.94604">
        <ele>2113.8</ele>
        <time>2020-08-11T10:53:33Z</time>
      </trkpt>
      <trkpt lat="45.16416" lon="5.94601">
        <ele>2113.2</ele>
        <time>2020-08-11T10:53:34Z</time>
      </trkpt>
      <trkpt lat="45.16418" lon="5.946">
        <ele>2113</ele>
        <time>2020-08-11T10:53:35Z</time>
      </trkpt>
      <trkpt lat="45.16419" lon="5.94599">
        <ele>2112.8</ele>
        <time>2020-08-11T10:53:36Z</time>
      </trkpt>
      <trkpt lat="45.1642" lon="5.94598">
        <ele>2112.4</ele>
        <time>2020-08-11T10:53:37Z</time>
      </trkpt>
      <trkpt lat="45.16422" lon="5.94597">
        <ele>2111.8</ele>
        <time>2020-08-11T10:53:38Z</time>
      </trkpt>
      <trkpt lat="45.16423" lon="5.94596">
        <ele>2111.2</ele>
        <time>2020-08-11T10:53:39Z</time>
      </trkpt>
      <trkpt lat="45.16424" lon="5.94595">
        <ele>2111</ele>
        <time>2020-08-11T10:53:40Z</time>
      </trkpt>
      <trkpt lat="45.16421" lon="5.94592">
        <ele>2110.8</ele>
        <time>2020-08-11T10:53:41Z</time>
      </trkpt>
      <trkpt lat="45.16419" lon="5.94589">
        <ele>2110.8</ele>
        <time>2020-08-11T10:53:42Z</time>
      </trkpt>
      <trkpt lat="45.16417" lon="5.94587">
        <ele>2110</ele>
        <time>2020-08-11T10:53:43Z</time>
      </trkpt>
      <trkpt lat="45.16415" lon="5.94586">
        <ele>2109.4</ele>
        <time>2020-08-11T10:53:44Z</time>
      </trkpt>
      <trkpt lat="45.16414" lon="5.94585">
        <ele>2109</ele>
        <time>2020-08-11T10:53:45Z</time>
      </trkpt>
      <trkpt lat="45.16412" lon="5.94584">
        <ele>2108.4</ele>
        <time>2020-08-11T10:53:46Z</time>
      </trkpt>
      <trkpt lat="45.16411" lon="5.94582">
        <ele>2107.6</ele>
        <time>2020-08-11T10:53:47Z</time>
      </trkpt>
      <trkpt lat="45.16409" lon="5.9458">
        <ele>2106.6</ele>
        <time>2020-08-11T10:53:48Z</time>
      </trkpt>
      <trkpt lat="45.16407" lon="5.94579">
        <ele>2105.8</ele>
        <time>2020-08-11T10:53:49Z</time>
      </trkpt>
      <trkpt lat="45.16407" lon="5.94579">
        <ele>2105.8</ele>
        <time>2020-08-11T10:53:50Z</time>
      </trkpt>
      <trkpt lat="45.16407" lon="5.94579">
        <ele>2105.2</ele>
        <time>2020-08-11T10:53:51Z</time>
      </trkpt>
      <trkpt lat="45.16405" lon="5.94576">
        <ele>2105</ele>
        <time>2020-08-11T10:53:52Z</time>
      </trkpt>
      <trkpt lat="45.16404" lon="5.94575">
        <ele>2104.6</ele>
        <time>2020-08-11T10:53:53Z</time>
      </trkpt>
      <trkpt lat="45.16403" lon="5.94575">
        <ele>2104.4</ele>
        <time>2020-08-11T10:53:54Z</time>
      </trkpt>
      <trkpt lat="45.16402" lon="5.94574">
        <ele>2104.2</ele>
        <time>2020-08-11T10:53:55Z</time>
      </trkpt>
      <trkpt lat="45.16401" lon="5.94573">
        <ele>2103.8</ele>
        <time>2020-08-11T10:53:56Z</time>
      </trkpt>
      <trkpt lat="45.164" lon="5.94571">
        <ele>2103.6</ele>
        <time>2020-08-11T10:53:57Z</time>
      </trkpt>
      <trkpt lat="45.164" lon="5.94571">
        <ele>2103.4</ele>
        <time>2020-08-11T10:53:58Z</time>
      </trkpt>
      <trkpt lat="45.164" lon="5.94571">
        <ele>2103.2</ele>
        <time>2020-08-11T10:53:59Z</time>
      </trkpt>
      <trkpt lat="45.164" lon="5.94571">
        <ele>2103</ele>
        <time>2020-08-11T10:54:00Z</time>
      </trkpt>
      <trkpt lat="45.164" lon="5.94571">
        <ele>2103.2</ele>
        <time>2020-08-11T10:54:01Z</time>
      </trkpt>
      <trkpt lat="45.164" lon="5.94571">
        <ele>2102.8</ele>
        <time>2020-08-11T10:54:02Z</time>
      </trkpt>
      <trkpt lat="45.16398" lon="5.94569">
        <ele>2102.6</ele>
        <time>2020-08-11T10:54:03Z</time>
      </trkpt>
      <trkpt lat="45.16398" lon="5.94569">
        <ele>2102.6</ele>
        <time>2020-08-11T10:54:04Z</time>
      </trkpt>
      <trkpt lat="45.16398" lon="5.94569">
        <ele>2102.2</ele>
        <time>2020-08-11T10:54:05Z</time>
      </trkpt>
      <trkpt lat="45.16398" lon="5.94569">
        <ele>2102.2</ele>
        <time>2020-08-11T10:54:06Z</time>
      </trkpt>
      <trkpt lat="45.16398" lon="5.94569">
        <ele>2102</ele>
        <time>2020-08-11T10:54:07Z</time>
      </trkpt>
      <trkpt lat="45.16398" lon="5.94569">
        <ele>2101.8</ele>
        <time>2020-08-11T10:54:08Z</time>
      </trkpt>
      <trkpt lat="45.16398" lon="5.94569">
        <ele>2102</ele>
        <time>2020-08-11T10:54:09Z</time>
      </trkpt>
      <trkpt lat="45.16398" lon="5.94569">
        <ele>2101.8</ele>
        <time>2020-08-11T10:54:10Z</time>
      </trkpt>
      <trkpt lat="45.16398" lon="5.94569">
        <ele>2101.8</ele>
        <time>2020-08-11T10:54:11Z</time>
      </trkpt>
      <trkpt lat="45.16398" lon="5.94569">
        <ele>2101.8</ele>
        <time>2020-08-11T10:54:12Z</time>
      </trkpt>
      <trkpt lat="45.16397" lon="5.94569">
        <ele>2101.8</ele>
        <time>2020-08-11T10:54:13Z</time>
      </trkpt>
      <trkpt lat="45.16397" lon="5.94569">
        <ele>2101.8</ele>
        <time>2020-08-11T10:54:14Z</time>
      </trkpt>
      <trkpt lat="45.16397" lon="5.94569">
        <ele>2101.8</ele>
        <time>2020-08-11T10:54:15Z</time>
      </trkpt>
      <trkpt lat="45.16397" lon="5.94569">
        <ele>2102</ele>
        <time>2020-08-11T10:54:16Z</time>
      </trkpt>
      <trkpt lat="45.16397" lon="5.94569">
        <ele>2102</ele>
        <time>2020-08-11T10:54:17Z</time>
      </trkpt>
      <trkpt lat="45.16397" lon="5.94569">
        <ele>2102</ele>
        <time>2020-08-11T10:54:18Z</time>
      </trkpt>
      <trkpt lat="45.16395" lon="5.94567">
        <ele>2102.2</ele>
        <time>2020-08-11T10:54:19Z</time>
      </trkpt>
      <trkpt lat="45.16395" lon="5.94567">
        <ele>2102</ele>
        <time>2020-08-11T10:54:20Z</time>
      </trkpt>
      <trkpt lat="45.16395" lon="5.94567">
        <ele>2102</ele>
        <time>2020-08-11T10:54:21Z</time>
      </trkpt>
      <trkpt lat="45.16395" lon="5.94567">
        <ele>2101.8</ele>
        <time>2020-08-11T10:54:22Z</time>
      </trkpt>
      <trkpt lat="45.16395" lon="5.94567">
        <ele>2101.6</ele>
        <time>2020-08-11T10:54:23Z</time>
      </trkpt>
      <trkpt lat="45.16393" lon="5.94566">
        <ele>2101.4</ele>
        <time>2020-08-11T10:54:24Z</time>
      </trkpt>
      <trkpt lat="45.16393" lon="5.94566">
        <ele>2101</ele>
        <time>2020-08-11T10:54:25Z</time>
      </trkpt>
      <trkpt lat="45.16391" lon="5.94565">
        <ele>2101</ele>
        <time>2020-08-11T10:54:26Z</time>
      </trkpt>
      <trkpt lat="45.1639" lon="5.94565">
        <ele>2100.6</ele>
        <time>2020-08-11T10:54:27Z</time>
      </trkpt>
      <trkpt lat="45.16388" lon="5.94564">
        <ele>2100.4</ele>
        <time>2020-08-11T10:54:28Z</time>
      </trkpt>
      <trkpt lat="45.16387" lon="5.94564">
        <ele>2100.2</ele>
        <time>2020-08-11T10:54:29Z</time>
      </trkpt>
      <trkpt lat="45.16387" lon="5.94564">
        <ele>2100</ele>
        <time>2020-08-11T10:54:30Z</time>
      </trkpt>
      <trkpt lat="45.16385" lon="5.94562">
        <ele>2099.8</ele>
        <time>2020-08-11T10:54:31Z</time>
      </trkpt>
      <trkpt lat="45.16385" lon="5.94562">
        <ele>2098.8</ele>
        <time>2020-08-11T10:54:32Z</time>
      </trkpt>
      <trkpt lat="45.16383" lon="5.94561">
        <ele>2098.8</ele>
        <time>2020-08-11T10:54:33Z</time>
      </trkpt>
      <trkpt lat="45.16383" lon="5.94561">
        <ele>2098.6</ele>
        <time>2020-08-11T10:54:34Z</time>
      </trkpt>
      <trkpt lat="45.16382" lon="5.9456">
        <ele>2098.8</ele>
        <time>2020-08-11T10:54:35Z</time>
      </trkpt>
      <trkpt lat="45.16381" lon="5.94559">
        <ele>2098.4</ele>
        <time>2020-08-11T10:54:36Z</time>
      </trkpt>
      <trkpt lat="45.1638" lon="5.94558">
        <ele>2098.2</ele>
        <time>2020-08-11T10:54:37Z</time>
      </trkpt>
      <trkpt lat="45.16378" lon="5.94557">
        <ele>2097.6</ele>
        <time>2020-08-11T10:54:38Z</time>
      </trkpt>
      <trkpt lat="45.16377" lon="5.94557">
        <ele>2097.6</ele>
        <time>2020-08-11T10:54:39Z</time>
      </trkpt>
      <trkpt lat="45.16376" lon="5.94556">
        <ele>2097.4</ele>
        <time>2020-08-11T10:54:40Z</time>
      </trkpt>
      <trkpt lat="45.16373" lon="5.94555">
        <ele>2097.4</ele>
        <time>2020-08-11T10:54:41Z</time>
      </trkpt>
      <trkpt lat="45.16373" lon="5.94555">
        <ele>2097</ele>
        <time>2020-08-11T10:54:42Z</time>
      </trkpt>
      <trkpt lat="45.16372" lon="5.94554">
        <ele>2096.6</ele>
        <time>2020-08-11T10:54:43Z</time>
      </trkpt>
      <trkpt lat="45.16371" lon="5.94553">
        <ele>2096.2</ele>
        <time>2020-08-11T10:54:44Z</time>
      </trkpt>
      <trkpt lat="45.1637" lon="5.94552">
        <ele>2096</ele>
        <time>2020-08-11T10:54:45Z</time>
      </trkpt>
      <trkpt lat="45.16369" lon="5.94551">
        <ele>2095.6</ele>
        <time>2020-08-11T10:54:46Z</time>
      </trkpt>
      <trkpt lat="45.16368" lon="5.9455">
        <ele>2095.2</ele>
        <time>2020-08-11T10:54:47Z</time>
      </trkpt>
      <trkpt lat="45.16367" lon="5.94549">
        <ele>2095.2</ele>
        <time>2020-08-11T10:54:48Z</time>
      </trkpt>
      <trkpt lat="45.16366" lon="5.94548">
        <ele>2094.8</ele>
        <time>2020-08-11T10:54:49Z</time>
      </trkpt>
      <trkpt lat="45.16365" lon="5.94548">
        <ele>2094.6</ele>
        <time>2020-08-11T10:54:50Z</time>
      </trkpt>
      <trkpt lat="45.16364" lon="5.94547">
        <ele>2094.2</ele>
        <time>2020-08-11T10:54:51Z</time>
      </trkpt>
      <trkpt lat="45.16363" lon="5.94547">
        <ele>2093.8</ele>
        <time>2020-08-11T10:54:52Z</time>
      </trkpt>
      <trkpt lat="45.16361" lon="5.94546">
        <ele>2093.6</ele>
        <time>2020-08-11T10:54:53Z</time>
      </trkpt>
      <trkpt lat="45.1636" lon="5.94546">
        <ele>2093.4</ele>
        <time>2020-08-11T10:54:54Z</time>
      </trkpt>
      <trkpt lat="45.16359" lon="5.94545">
        <ele>2093.4</ele>
        <time>2020-08-11T10:54:55Z</time>
      </trkpt>
      <trkpt lat="45.16357" lon="5.94545">
        <ele>2093</ele>
        <time>2020-08-11T10:54:56Z</time>
      </trkpt>
      <trkpt lat="45.16357" lon="5.94545">
        <ele>2092.6</ele>
        <time>2020-08-11T10:54:57Z</time>
      </trkpt>
      <trkpt lat="45.16357" lon="5.94542">
        <ele>2092</ele>
        <time>2020-08-11T10:54:58Z</time>
      </trkpt>
      <trkpt lat="45.16357" lon="5.94542">
        <ele>2091.8</ele>
        <time>2020-08-11T10:54:59Z</time>
      </trkpt>
      <trkpt lat="45.16357" lon="5.94542">
        <ele>2091.6</ele>
        <time>2020-08-11T10:55:00Z</time>
      </trkpt>
      <trkpt lat="45.16356" lon="5.94539">
        <ele>2091.4</ele>
        <time>2020-08-11T10:55:01Z</time>
      </trkpt>
      <trkpt lat="45.16356" lon="5.94539">
        <ele>2090.8</ele>
        <time>2020-08-11T10:55:02Z</time>
      </trkpt>
      <trkpt lat="45.16354" lon="5.94536">
        <ele>2090.4</ele>
        <time>2020-08-11T10:55:03Z</time>
      </trkpt>
      <trkpt lat="45.16352" lon="5.94534">
        <ele>2090.2</ele>
        <time>2020-08-11T10:55:04Z</time>
      </trkpt>
      <trkpt lat="45.1635" lon="5.94531">
        <ele>2090</ele>
        <time>2020-08-11T10:55:05Z</time>
      </trkpt>
      <trkpt lat="45.16349" lon="5.94528">
        <ele>2089.8</ele>
        <time>2020-08-11T10:55:06Z</time>
      </trkpt>
      <trkpt lat="45.16349" lon="5.94528">
        <ele>2089.4</ele>
        <time>2020-08-11T10:55:07Z</time>
      </trkpt>
      <trkpt lat="45.16347" lon="5.94527">
        <ele>2089</ele>
        <time>2020-08-11T10:55:08Z</time>
      </trkpt>
      <trkpt lat="45.16344" lon="5.94524">
        <ele>2089</ele>
        <time>2020-08-11T10:55:09Z</time>
      </trkpt>
      <trkpt lat="45.16342" lon="5.94522">
        <ele>2088.8</ele>
        <time>2020-08-11T10:55:10Z</time>
      </trkpt>
      <trkpt lat="45.1634" lon="5.94521">
        <ele>2088.8</ele>
        <time>2020-08-11T10:55:11Z</time>
      </trkpt>
      <trkpt lat="45.16338" lon="5.9452">
        <ele>2088.8</ele>
        <time>2020-08-11T10:55:12Z</time>
      </trkpt>
      <trkpt lat="45.16336" lon="5.94518">
        <ele>2088.8</ele>
        <time>2020-08-11T10:55:13Z</time>
      </trkpt>
      <trkpt lat="45.16335" lon="5.94517">
        <ele>2089</ele>
        <time>2020-08-11T10:55:14Z</time>
      </trkpt>
      <trkpt lat="45.16333" lon="5.94516">
        <ele>2088.8</ele>
        <time>2020-08-11T10:55:15Z</time>
      </trkpt>
      <trkpt lat="45.16332" lon="5.94514">
        <ele>2088.6</ele>
        <time>2020-08-11T10:55:16Z</time>
      </trkpt>
      <trkpt lat="45.16331" lon="5.94513">
        <ele>2088.4</ele>
        <time>2020-08-11T10:55:17Z</time>
      </trkpt>
      <trkpt lat="45.16329" lon="5.94511">
        <ele>2088.6</ele>
        <time>2020-08-11T10:55:18Z</time>
      </trkpt>
      <trkpt lat="45.16329" lon="5.94511">
        <ele>2088.6</ele>
        <time>2020-08-11T10:55:19Z</time>
      </trkpt>
      <trkpt lat="45.16328" lon="5.94508">
        <ele>2088.6</ele>
        <time>2020-08-11T10:55:20Z</time>
      </trkpt>
      <trkpt lat="45.16328" lon="5.94508">
        <ele>2088.4</ele>
        <time>2020-08-11T10:55:21Z</time>
      </trkpt>
      <trkpt lat="45.16328" lon="5.94508">
        <ele>2088.2</ele>
        <time>2020-08-11T10:55:22Z</time>
      </trkpt>
      <trkpt lat="45.16326" lon="5.94506">
        <ele>2088.2</ele>
        <time>2020-08-11T10:55:23Z</time>
      </trkpt>
      <trkpt lat="45.16324" lon="5.94505">
        <ele>2088</ele>
        <time>2020-08-11T10:55:24Z</time>
      </trkpt>
      <trkpt lat="45.16324" lon="5.94505">
        <ele>2088</ele>
        <time>2020-08-11T10:55:25Z</time>
      </trkpt>
      <trkpt lat="45.16324" lon="5.94505">
        <ele>2088</ele>
        <time>2020-08-11T10:55:26Z</time>
      </trkpt>
      <trkpt lat="45.16324" lon="5.94505">
        <ele>2087.6</ele>
        <time>2020-08-11T10:55:27Z</time>
      </trkpt>
      <trkpt lat="45.16323" lon="5.94503">
        <ele>2087.6</ele>
        <time>2020-08-11T10:55:28Z</time>
      </trkpt>
      <trkpt lat="45.16323" lon="5.94503">
        <ele>2087.4</ele>
        <time>2020-08-11T10:55:29Z</time>
      </trkpt>
      <trkpt lat="45.1632" lon="5.94504">
        <ele>2087.4</ele>
        <time>2020-08-11T10:55:30Z</time>
      </trkpt>
      <trkpt lat="45.1632" lon="5.94504">
        <ele>2087.6</ele>
        <time>2020-08-11T10:55:31Z</time>
      </trkpt>
      <trkpt lat="45.1632" lon="5.94504">
        <ele>2087.6</ele>
        <time>2020-08-11T10:55:32Z</time>
      </trkpt>
      <trkpt lat="45.16319" lon="5.94504">
        <ele>2087.8</ele>
        <time>2020-08-11T10:55:33Z</time>
      </trkpt>
      <trkpt lat="45.16318" lon="5.94504">
        <ele>2087.8</ele>
        <time>2020-08-11T10:55:34Z</time>
      </trkpt>
      <trkpt lat="45.16317" lon="5.94504">
        <ele>2087.6</ele>
        <time>2020-08-11T10:55:35Z</time>
      </trkpt>
      <trkpt lat="45.16316" lon="5.94504">
        <ele>2087.4</ele>
        <time>2020-08-11T10:55:36Z</time>
      </trkpt>
      <trkpt lat="45.16315" lon="5.94504">
        <ele>2087.2</ele>
        <time>2020-08-11T10:55:37Z</time>
      </trkpt>
      <trkpt lat="45.16313" lon="5.94504">
        <ele>2086.8</ele>
        <time>2020-08-11T10:55:38Z</time>
      </trkpt>
      <trkpt lat="45.16312" lon="5.94504">
        <ele>2086.4</ele>
        <time>2020-08-11T10:55:39Z</time>
      </trkpt>
      <trkpt lat="45.16311" lon="5.94504">
        <ele>2086</ele>
        <time>2020-08-11T10:55:40Z</time>
      </trkpt>
      <trkpt lat="45.1631" lon="5.94505">
        <ele>2085.8</ele>
        <time>2020-08-11T10:55:41Z</time>
      </trkpt>
      <trkpt lat="45.1631" lon="5.94505">
        <ele>2085.8</ele>
        <time>2020-08-11T10:55:42Z</time>
      </trkpt>
      <trkpt lat="45.1631" lon="5.94505">
        <ele>2085.6</ele>
        <time>2020-08-11T10:55:43Z</time>
      </trkpt>
      <trkpt lat="45.16308" lon="5.94505">
        <ele>2084.8</ele>
        <time>2020-08-11T10:55:44Z</time>
      </trkpt>
      <trkpt lat="45.16306" lon="5.94505">
        <ele>2084.2</ele>
        <time>2020-08-11T10:55:45Z</time>
      </trkpt>
      <trkpt lat="45.16306" lon="5.94505">
        <ele>2084.2</ele>
        <time>2020-08-11T10:55:46Z</time>
      </trkpt>
      <trkpt lat="45.16306" lon="5.94505">
        <ele>2083.8</ele>
        <time>2020-08-11T10:55:47Z</time>
      </trkpt>
      <trkpt lat="45.16303" lon="5.94506">
        <ele>2083.2</ele>
        <time>2020-08-11T10:55:48Z</time>
      </trkpt>
      <trkpt lat="45.16303" lon="5.94506">
        <ele>2083.2</ele>
        <time>2020-08-11T10:55:49Z</time>
      </trkpt>
      <trkpt lat="45.163" lon="5.94508">
        <ele>2082.6</ele>
        <time>2020-08-11T10:55:50Z</time>
      </trkpt>
      <trkpt lat="45.16296" lon="5.94509">
        <ele>2082.2</ele>
        <time>2020-08-11T10:55:51Z</time>
      </trkpt>
      <trkpt lat="45.16293" lon="5.94511">
        <ele>2081.6</ele>
        <time>2020-08-11T10:55:52Z</time>
      </trkpt>
      <trkpt lat="45.16293" lon="5.94511">
        <ele>2081.2</ele>
        <time>2020-08-11T10:55:53Z</time>
      </trkpt>
      <trkpt lat="45.16293" lon="5.94511">
        <ele>2081</ele>
        <time>2020-08-11T10:55:54Z</time>
      </trkpt>
      <trkpt lat="45.16292" lon="5.94512">
        <ele>2081</ele>
        <time>2020-08-11T10:55:55Z</time>
      </trkpt>
      <trkpt lat="45.1629" lon="5.94512">
        <ele>2080.6</ele>
        <time>2020-08-11T10:55:56Z</time>
      </trkpt>
      <trkpt lat="45.16289" lon="5.94513">
        <ele>2080.4</ele>
        <time>2020-08-11T10:55:57Z</time>
      </trkpt>
      <trkpt lat="45.16285" lon="5.94514">
        <ele>2079.4</ele>
        <time>2020-08-11T10:55:58Z</time>
      </trkpt>
      <trkpt lat="45.16285" lon="5.94514">
        <ele>2079</ele>
        <time>2020-08-11T10:55:59Z</time>
      </trkpt>
      <trkpt lat="45.16284" lon="5.94514">
        <ele>2078.8</ele>
        <time>2020-08-11T10:56:00Z</time>
      </trkpt>
      <trkpt lat="45.16282" lon="5.94515">
        <ele>2078.4</ele>
        <time>2020-08-11T10:56:01Z</time>
      </trkpt>
      <trkpt lat="45.1628" lon="5.94515">
        <ele>2078.2</ele>
        <time>2020-08-11T10:56:02Z</time>
      </trkpt>
      <trkpt lat="45.16279" lon="5.94515">
        <ele>2077.6</ele>
        <time>2020-08-11T10:56:03Z</time>
      </trkpt>
      <trkpt lat="45.16277" lon="5.94516">
        <ele>2077.2</ele>
        <time>2020-08-11T10:56:04Z</time>
      </trkpt>
      <trkpt lat="45.16275" lon="5.94517">
        <ele>2076.6</ele>
        <time>2020-08-11T10:56:05Z</time>
      </trkpt>
      <trkpt lat="45.16275" lon="5.94517">
        <ele>2076.4</ele>
        <time>2020-08-11T10:56:06Z</time>
      </trkpt>
      <trkpt lat="45.16273" lon="5.94518">
        <ele>2076</ele>
        <time>2020-08-11T10:56:07Z</time>
      </trkpt>
      <trkpt lat="45.16273" lon="5.94518">
        <ele>2075.4</ele>
        <time>2020-08-11T10:56:08Z</time>
      </trkpt>
      <trkpt lat="45.1627" lon="5.94519">
        <ele>2075</ele>
        <time>2020-08-11T10:56:09Z</time>
      </trkpt>
      <trkpt lat="45.1627" lon="5.94519">
        <ele>2074.8</ele>
        <time>2020-08-11T10:56:10Z</time>
      </trkpt>
      <trkpt lat="45.1627" lon="5.94519">
        <ele>2074.6</ele>
        <time>2020-08-11T10:56:11Z</time>
      </trkpt>
      <trkpt lat="45.1627" lon="5.94519">
        <ele>2074.6</ele>
        <time>2020-08-11T10:56:12Z</time>
      </trkpt>
      <trkpt lat="45.1627" lon="5.94519">
        <ele>2074.2</ele>
        <time>2020-08-11T10:56:13Z</time>
      </trkpt>
      <trkpt lat="45.16268" lon="5.9452">
        <ele>2074</ele>
        <time>2020-08-11T10:56:14Z</time>
      </trkpt>
      <trkpt lat="45.16268" lon="5.9452">
        <ele>2073.8</ele>
        <time>2020-08-11T10:56:15Z</time>
      </trkpt>
      <trkpt lat="45.16267" lon="5.9452">
        <ele>2073.4</ele>
        <time>2020-08-11T10:56:16Z</time>
      </trkpt>
      <trkpt lat="45.16266" lon="5.94519">
        <ele>2072.8</ele>
        <time>2020-08-11T10:56:17Z</time>
      </trkpt>
      <trkpt lat="45.16265" lon="5.94518">
        <ele>2072.4</ele>
        <time>2020-08-11T10:56:18Z</time>
      </trkpt>
      <trkpt lat="45.16264" lon="5.94517">
        <ele>2072.2</ele>
        <time>2020-08-11T10:56:19Z</time>
      </trkpt>
      <trkpt lat="45.16263" lon="5.94517">
        <ele>2071.8</ele>
        <time>2020-08-11T10:56:20Z</time>
      </trkpt>
      <trkpt lat="45.16263" lon="5.94517">
        <ele>2071.6</ele>
        <time>2020-08-11T10:56:21Z</time>
      </trkpt>
      <trkpt lat="45.16262" lon="5.94514">
        <ele>2071.6</ele>
        <time>2020-08-11T10:56:22Z</time>
      </trkpt>
      <trkpt lat="45.16262" lon="5.94514">
        <ele>2071.2</ele>
        <time>2020-08-11T10:56:23Z</time>
      </trkpt>
      <trkpt lat="45.16262" lon="5.94514">
        <ele>2070.8</ele>
        <time>2020-08-11T10:56:24Z</time>
      </trkpt>
      <trkpt lat="45.16262" lon="5.94514">
        <ele>2070.4</ele>
        <time>2020-08-11T10:56:25Z</time>
      </trkpt>
      <trkpt lat="45.16262" lon="5.94514">
        <ele>2070.2</ele>
        <time>2020-08-11T10:56:26Z</time>
      </trkpt>
      <trkpt lat="45.16262" lon="5.94514">
        <ele>2069.8</ele>
        <time>2020-08-11T10:56:27Z</time>
      </trkpt>
      <trkpt lat="45.16259" lon="5.94515">
        <ele>2069.8</ele>
        <time>2020-08-11T10:56:28Z</time>
      </trkpt>
      <trkpt lat="45.16259" lon="5.94515">
        <ele>2069.6</ele>
        <time>2020-08-11T10:56:29Z</time>
      </trkpt>
      <trkpt lat="45.16259" lon="5.94515">
        <ele>2069.4</ele>
        <time>2020-08-11T10:56:30Z</time>
      </trkpt>
      <trkpt lat="45.16258" lon="5.94519">
        <ele>2068.4</ele>
        <time>2020-08-11T10:56:31Z</time>
      </trkpt>
      <trkpt lat="45.16258" lon="5.94519">
        <ele>2068.4</ele>
        <time>2020-08-11T10:56:32Z</time>
      </trkpt>
      <trkpt lat="45.16257" lon="5.94521">
        <ele>2068</ele>
        <time>2020-08-11T10:56:33Z</time>
      </trkpt>
      <trkpt lat="45.16257" lon="5.94522">
        <ele>2067.4</ele>
        <time>2020-08-11T10:56:34Z</time>
      </trkpt>
      <trkpt lat="45.16257" lon="5.94524">
        <ele>2067.4</ele>
        <time>2020-08-11T10:56:35Z</time>
      </trkpt>
      <trkpt lat="45.16256" lon="5.94526">
        <ele>2067</ele>
        <time>2020-08-11T10:56:36Z</time>
      </trkpt>
      <trkpt lat="45.16254" lon="5.94529">
        <ele>2066.6</ele>
        <time>2020-08-11T10:56:37Z</time>
      </trkpt>
      <trkpt lat="45.16253" lon="5.9453">
        <ele>2066.2</ele>
        <time>2020-08-11T10:56:38Z</time>
      </trkpt>
      <trkpt lat="45.16251" lon="5.94531">
        <ele>2066</ele>
        <time>2020-08-11T10:56:39Z</time>
      </trkpt>
      <trkpt lat="45.16251" lon="5.94531">
        <ele>2065.6</ele>
        <time>2020-08-11T10:56:40Z</time>
      </trkpt>
      <trkpt lat="45.16248" lon="5.9453">
        <ele>2064.8</ele>
        <time>2020-08-11T10:56:41Z</time>
      </trkpt>
      <trkpt lat="45.16246" lon="5.9453">
        <ele>2064.8</ele>
        <time>2020-08-11T10:56:42Z</time>
      </trkpt>
      <trkpt lat="45.16244" lon="5.9453">
        <ele>2064.4</ele>
        <time>2020-08-11T10:56:43Z</time>
      </trkpt>
      <trkpt lat="45.16243" lon="5.94529">
        <ele>2063.6</ele>
        <time>2020-08-11T10:56:44Z</time>
      </trkpt>
      <trkpt lat="45.16241" lon="5.94529">
        <ele>2063.6</ele>
        <time>2020-08-11T10:56:45Z</time>
      </trkpt>
      <trkpt lat="45.16241" lon="5.94529">
        <ele>2063.4</ele>
        <time>2020-08-11T10:56:46Z</time>
      </trkpt>
      <trkpt lat="45.16241" lon="5.94529">
        <ele>2063</ele>
        <time>2020-08-11T10:56:47Z</time>
      </trkpt>
      <trkpt lat="45.16239" lon="5.94527">
        <ele>2062.2</ele>
        <time>2020-08-11T10:56:48Z</time>
      </trkpt>
      <trkpt lat="45.16237" lon="5.94526">
        <ele>2061.8</ele>
        <time>2020-08-11T10:56:49Z</time>
      </trkpt>
      <trkpt lat="45.16235" lon="5.94524">
        <ele>2062</ele>
        <time>2020-08-11T10:56:50Z</time>
      </trkpt>
      <trkpt lat="45.16231" lon="5.94521">
        <ele>2061.6</ele>
        <time>2020-08-11T10:56:51Z</time>
      </trkpt>
      <trkpt lat="45.16231" lon="5.94521">
        <ele>2061.4</ele>
        <time>2020-08-11T10:56:52Z</time>
      </trkpt>
      <trkpt lat="45.16229" lon="5.9452">
        <ele>2061</ele>
        <time>2020-08-11T10:56:53Z</time>
      </trkpt>
      <trkpt lat="45.16227" lon="5.94519">
        <ele>2060.8</ele>
        <time>2020-08-11T10:56:54Z</time>
      </trkpt>
      <trkpt lat="45.16225" lon="5.94518">
        <ele>2060.4</ele>
        <time>2020-08-11T10:56:55Z</time>
      </trkpt>
      <trkpt lat="45.16222" lon="5.94516">
        <ele>2060.6</ele>
        <time>2020-08-11T10:56:56Z</time>
      </trkpt>
      <trkpt lat="45.16222" lon="5.94516">
        <ele>2060</ele>
        <time>2020-08-11T10:56:57Z</time>
      </trkpt>
      <trkpt lat="45.16222" lon="5.94516">
        <ele>2060</ele>
        <time>2020-08-11T10:56:58Z</time>
      </trkpt>
      <trkpt lat="45.16219" lon="5.94515">
        <ele>2059</ele>
        <time>2020-08-11T10:56:59Z</time>
      </trkpt>
      <trkpt lat="45.16219" lon="5.94515">
        <ele>2058.2</ele>
        <time>2020-08-11T10:57:00Z</time>
      </trkpt>
      <trkpt lat="45.16216" lon="5.94515">
        <ele>2058</ele>
        <time>2020-08-11T10:57:01Z</time>
      </trkpt>
      <trkpt lat="45.16216" lon="5.94515">
        <ele>2057.8</ele>
        <time>2020-08-11T10:57:02Z</time>
      </trkpt>
      <trkpt lat="45.16214" lon="5.94515">
        <ele>2057.2</ele>
        <time>2020-08-11T10:57:03Z</time>
      </trkpt>
      <trkpt lat="45.16212" lon="5.94515">
        <ele>2056.6</ele>
        <time>2020-08-11T10:57:04Z</time>
      </trkpt>
      <trkpt lat="45.1621" lon="5.94515">
        <ele>2056.4</ele>
        <time>2020-08-11T10:57:05Z</time>
      </trkpt>
      <trkpt lat="45.16206" lon="5.94515">
        <ele>2055.6</ele>
        <time>2020-08-11T10:57:06Z</time>
      </trkpt>
      <trkpt lat="45.16202" lon="5.94514">
        <ele>2055.6</ele>
        <time>2020-08-11T10:57:07Z</time>
      </trkpt>
      <trkpt lat="45.16202" lon="5.94514">
        <ele>2054.6</ele>
        <time>2020-08-11T10:57:08Z</time>
      </trkpt>
      <trkpt lat="45.162" lon="5.94514">
        <ele>2054</ele>
        <time>2020-08-11T10:57:09Z</time>
      </trkpt>
      <trkpt lat="45.16195" lon="5.94515">
        <ele>2053.4</ele>
        <time>2020-08-11T10:57:10Z</time>
      </trkpt>
      <trkpt lat="45.16195" lon="5.94515">
        <ele>2052.8</ele>
        <time>2020-08-11T10:57:11Z</time>
      </trkpt>
      <trkpt lat="45.16193" lon="5.94515">
        <ele>2052</ele>
        <time>2020-08-11T10:57:12Z</time>
      </trkpt>
      <trkpt lat="45.16189" lon="5.94514">
        <ele>2052.2</ele>
        <time>2020-08-11T10:57:13Z</time>
      </trkpt>
      <trkpt lat="45.16186" lon="5.94514">
        <ele>2051.8</ele>
        <time>2020-08-11T10:57:14Z</time>
      </trkpt>
      <trkpt lat="45.16184" lon="5.94514">
        <ele>2051.8</ele>
        <time>2020-08-11T10:57:15Z</time>
      </trkpt>
      <trkpt lat="45.16183" lon="5.94513">
        <ele>2051.6</ele>
        <time>2020-08-11T10:57:16Z</time>
      </trkpt>
      <trkpt lat="45.16181" lon="5.94513">
        <ele>2051.6</ele>
        <time>2020-08-11T10:57:17Z</time>
      </trkpt>
      <trkpt lat="45.16178" lon="5.94512">
        <ele>2051.2</ele>
        <time>2020-08-11T10:57:18Z</time>
      </trkpt>
      <trkpt lat="45.16175" lon="5.94511">
        <ele>2051.4</ele>
        <time>2020-08-11T10:57:19Z</time>
      </trkpt>
      <trkpt lat="45.16173" lon="5.9451">
        <ele>2051.2</ele>
        <time>2020-08-11T10:57:20Z</time>
      </trkpt>
      <trkpt lat="45.16173" lon="5.9451">
        <ele>2051.2</ele>
        <time>2020-08-11T10:57:21Z</time>
      </trkpt>
      <trkpt lat="45.1617" lon="5.94508">
        <ele>2050.8</ele>
        <time>2020-08-11T10:57:22Z</time>
      </trkpt>
      <trkpt lat="45.16166" lon="5.94507">
        <ele>2050.4</ele>
        <time>2020-08-11T10:57:23Z</time>
      </trkpt>
      <trkpt lat="45.16163" lon="5.94505">
        <ele>2050.2</ele>
        <time>2020-08-11T10:57:24Z</time>
      </trkpt>
      <trkpt lat="45.16161" lon="5.94504">
        <ele>2050.2</ele>
        <time>2020-08-11T10:57:25Z</time>
      </trkpt>
      <trkpt lat="45.16159" lon="5.94501">
        <ele>2050.8</ele>
        <time>2020-08-11T10:57:26Z</time>
      </trkpt>
      <trkpt lat="45.16157" lon="5.94499">
        <ele>2050.6</ele>
        <time>2020-08-11T10:57:27Z</time>
      </trkpt>
      <trkpt lat="45.16156" lon="5.94498">
        <ele>2050.4</ele>
        <time>2020-08-11T10:57:28Z</time>
      </trkpt>
      <trkpt lat="45.16154" lon="5.94496">
        <ele>2050.6</ele>
        <time>2020-08-11T10:57:29Z</time>
      </trkpt>
      <trkpt lat="45.16154" lon="5.94493">
        <ele>2050.2</ele>
        <time>2020-08-11T10:57:30Z</time>
      </trkpt>
      <trkpt lat="45.16153" lon="5.9449">
        <ele>2050.2</ele>
        <time>2020-08-11T10:57:31Z</time>
      </trkpt>
      <trkpt lat="45.16153" lon="5.94488">
        <ele>2050</ele>
        <time>2020-08-11T10:57:32Z</time>
      </trkpt>
      <trkpt lat="45.16152" lon="5.94485">
        <ele>2049.6</ele>
        <time>2020-08-11T10:57:33Z</time>
      </trkpt>
      <trkpt lat="45.1615" lon="5.94482">
        <ele>2049</ele>
        <time>2020-08-11T10:57:34Z</time>
      </trkpt>
      <trkpt lat="45.16149" lon="5.94479">
        <ele>2048.2</ele>
        <time>2020-08-11T10:57:35Z</time>
      </trkpt>
      <trkpt lat="45.16147" lon="5.94477">
        <ele>2048.2</ele>
        <time>2020-08-11T10:57:36Z</time>
      </trkpt>
      <trkpt lat="45.16146" lon="5.94476">
        <ele>2047.6</ele>
        <time>2020-08-11T10:57:37Z</time>
      </trkpt>
      <trkpt lat="45.16145" lon="5.94473">
        <ele>2047.6</ele>
        <time>2020-08-11T10:57:38Z</time>
      </trkpt>
      <trkpt lat="45.16143" lon="5.9447">
        <ele>2047</ele>
        <time>2020-08-11T10:57:39Z</time>
      </trkpt>
      <trkpt lat="45.16142" lon="5.94467">
        <ele>2047</ele>
        <time>2020-08-11T10:57:40Z</time>
      </trkpt>
      <trkpt lat="45.1614" lon="5.94465">
        <ele>2046.6</ele>
        <time>2020-08-11T10:57:41Z</time>
      </trkpt>
      <trkpt lat="45.16139" lon="5.94462">
        <ele>2046.2</ele>
        <time>2020-08-11T10:57:42Z</time>
      </trkpt>
      <trkpt lat="45.16138" lon="5.9446">
        <ele>2045.6</ele>
        <time>2020-08-11T10:57:43Z</time>
      </trkpt>
      <trkpt lat="45.16137" lon="5.94458">
        <ele>2045.2</ele>
        <time>2020-08-11T10:57:44Z</time>
      </trkpt>
      <trkpt lat="45.16136" lon="5.94456">
        <ele>2044.2</ele>
        <time>2020-08-11T10:57:45Z</time>
      </trkpt>
      <trkpt lat="45.16135" lon="5.94454">
        <ele>2043.2</ele>
        <time>2020-08-11T10:57:46Z</time>
      </trkpt>
      <trkpt lat="45.16133" lon="5.94452">
        <ele>2042.2</ele>
        <time>2020-08-11T10:57:47Z</time>
      </trkpt>
      <trkpt lat="45.16132" lon="5.9445">
        <ele>2041.8</ele>
        <time>2020-08-11T10:57:48Z</time>
      </trkpt>
      <trkpt lat="45.16132" lon="5.9445">
        <ele>2041.8</ele>
        <time>2020-08-11T10:57:49Z</time>
      </trkpt>
      <trkpt lat="45.1613" lon="5.94448">
        <ele>2041.6</ele>
        <time>2020-08-11T10:57:50Z</time>
      </trkpt>
      <trkpt lat="45.16129" lon="5.94447">
        <ele>2041.2</ele>
        <time>2020-08-11T10:57:51Z</time>
      </trkpt>
      <trkpt lat="45.16127" lon="5.94445">
        <ele>2040.8</ele>
        <time>2020-08-11T10:57:52Z</time>
      </trkpt>
      <trkpt lat="45.16125" lon="5.94443">
        <ele>2040</ele>
        <time>2020-08-11T10:57:53Z</time>
      </trkpt>
      <trkpt lat="45.16123" lon="5.9444">
        <ele>2039.4</ele>
        <time>2020-08-11T10:57:54Z</time>
      </trkpt>
      <trkpt lat="45.16121" lon="5.94438">
        <ele>2039</ele>
        <time>2020-08-11T10:57:55Z</time>
      </trkpt>
      <trkpt lat="45.1612" lon="5.94436">
        <ele>2039.2</ele>
        <time>2020-08-11T10:57:56Z</time>
      </trkpt>
      <trkpt lat="45.16118" lon="5.94434">
        <ele>2038.8</ele>
        <time>2020-08-11T10:57:57Z</time>
      </trkpt>
      <trkpt lat="45.16117" lon="5.94432">
        <ele>2038.8</ele>
        <time>2020-08-11T10:57:58Z</time>
      </trkpt>
      <trkpt lat="45.16117" lon="5.94432">
        <ele>2038.2</ele>
        <time>2020-08-11T10:57:59Z</time>
      </trkpt>
      <trkpt lat="45.16117" lon="5.94432">
        <ele>2037.8</ele>
        <time>2020-08-11T10:58:00Z</time>
      </trkpt>
      <trkpt lat="45.16114" lon="5.94428">
        <ele>2036.6</ele>
        <time>2020-08-11T10:58:01Z</time>
      </trkpt>
      <trkpt lat="45.16112" lon="5.94426">
        <ele>2035.8</ele>
        <time>2020-08-11T10:58:02Z</time>
      </trkpt>
      <trkpt lat="45.16111" lon="5.94423">
        <ele>2036</ele>
        <time>2020-08-11T10:58:03Z</time>
      </trkpt>
      <trkpt lat="45.16111" lon="5.94423">
        <ele>2035.6</ele>
        <time>2020-08-11T10:58:04Z</time>
      </trkpt>
      <trkpt lat="45.16111" lon="5.94423">
        <ele>2035.2</ele>
        <time>2020-08-11T10:58:05Z</time>
      </trkpt>
      <trkpt lat="45.16109" lon="5.9442">
        <ele>2034.4</ele>
        <time>2020-08-11T10:58:06Z</time>
      </trkpt>
      <trkpt lat="45.16108" lon="5.94417">
        <ele>2033.6</ele>
        <time>2020-08-11T10:58:07Z</time>
      </trkpt>
      <trkpt lat="45.16107" lon="5.94414">
        <ele>2033.6</ele>
        <time>2020-08-11T10:58:08Z</time>
      </trkpt>
      <trkpt lat="45.16106" lon="5.94412">
        <ele>2033.2</ele>
        <time>2020-08-11T10:58:09Z</time>
      </trkpt>
      <trkpt lat="45.16104" lon="5.94409">
        <ele>2032.6</ele>
        <time>2020-08-11T10:58:10Z</time>
      </trkpt>
      <trkpt lat="45.16104" lon="5.94409">
        <ele>2032.6</ele>
        <time>2020-08-11T10:58:11Z</time>
      </trkpt>
      <trkpt lat="45.16104" lon="5.94406">
        <ele>2032.4</ele>
        <time>2020-08-11T10:58:12Z</time>
      </trkpt>
      <trkpt lat="45.16103" lon="5.94403">
        <ele>2032</ele>
        <time>2020-08-11T10:58:13Z</time>
      </trkpt>
      <trkpt lat="45.16103" lon="5.94403">
        <ele>2031.4</ele>
        <time>2020-08-11T10:58:14Z</time>
      </trkpt>
      <trkpt lat="45.16103" lon="5.944">
        <ele>2031.2</ele>
        <time>2020-08-11T10:58:15Z</time>
      </trkpt>
      <trkpt lat="45.161" lon="5.94398">
        <ele>2030.6</ele>
        <time>2020-08-11T10:58:16Z</time>
      </trkpt>
      <trkpt lat="45.16098" lon="5.94396">
        <ele>2030.6</ele>
        <time>2020-08-11T10:58:17Z</time>
      </trkpt>
      <trkpt lat="45.16097" lon="5.94396">
        <ele>2030.6</ele>
        <time>2020-08-11T10:58:18Z</time>
      </trkpt>
      <trkpt lat="45.16095" lon="5.94394">
        <ele>2030.4</ele>
        <time>2020-08-11T10:58:19Z</time>
      </trkpt>
      <trkpt lat="45.16093" lon="5.94388">
        <ele>2030.6</ele>
        <time>2020-08-11T10:58:20Z</time>
      </trkpt>
      <trkpt lat="45.16093" lon="5.94388">
        <ele>2029.8</ele>
        <time>2020-08-11T10:58:21Z</time>
      </trkpt>
      <trkpt lat="45.16093" lon="5.94388">
        <ele>2029.2</ele>
        <time>2020-08-11T10:58:22Z</time>
      </trkpt>
      <trkpt lat="45.16092" lon="5.94383">
        <ele>2029.4</ele>
        <time>2020-08-11T10:58:23Z</time>
      </trkpt>
      <trkpt lat="45.16091" lon="5.94381">
        <ele>2028.8</ele>
        <time>2020-08-11T10:58:24Z</time>
      </trkpt>
      <trkpt lat="45.1609" lon="5.94373">
        <ele>2029.2</ele>
        <time>2020-08-11T10:58:25Z</time>
      </trkpt>
      <trkpt lat="45.1609" lon="5.9437">
        <ele>2029</ele>
        <time>2020-08-11T10:58:26Z</time>
      </trkpt>
      <trkpt lat="45.1609" lon="5.94366">
        <ele>2029.2</ele>
        <time>2020-08-11T10:58:27Z</time>
      </trkpt>
      <trkpt lat="45.16091" lon="5.94363">
        <ele>2029</ele>
        <time>2020-08-11T10:58:28Z</time>
      </trkpt>
      <trkpt lat="45.16091" lon="5.9436">
        <ele>2029</ele>
        <time>2020-08-11T10:58:29Z</time>
      </trkpt>
      <trkpt lat="45.16091" lon="5.9436">
        <ele>2028.6</ele>
        <time>2020-08-11T10:58:30Z</time>
      </trkpt>
      <trkpt lat="45.16091" lon="5.9436">
        <ele>2028.2</ele>
        <time>2020-08-11T10:58:31Z</time>
      </trkpt>
      <trkpt lat="45.16092" lon="5.94356">
        <ele>2028</ele>
        <time>2020-08-11T10:58:32Z</time>
      </trkpt>
      <trkpt lat="45.16091" lon="5.94352">
        <ele>2027</ele>
        <time>2020-08-11T10:58:33Z</time>
      </trkpt>
      <trkpt lat="45.16089" lon="5.94348">
        <ele>2027.2</ele>
        <time>2020-08-11T10:58:34Z</time>
      </trkpt>
      <trkpt lat="45.16089" lon="5.94348">
        <ele>2026.8</ele>
        <time>2020-08-11T10:58:35Z</time>
      </trkpt>
      <trkpt lat="45.16088" lon="5.94344">
        <ele>2026.6</ele>
        <time>2020-08-11T10:58:36Z</time>
      </trkpt>
      <trkpt lat="45.16088" lon="5.94344">
        <ele>2026</ele>
        <time>2020-08-11T10:58:37Z</time>
      </trkpt>
      <trkpt lat="45.16087" lon="5.94341">
        <ele>2025.6</ele>
        <time>2020-08-11T10:58:38Z</time>
      </trkpt>
      <trkpt lat="45.16086" lon="5.94335">
        <ele>2025.8</ele>
        <time>2020-08-11T10:58:39Z</time>
      </trkpt>
      <trkpt lat="45.16087" lon="5.94332">
        <ele>2025.2</ele>
        <time>2020-08-11T10:58:40Z</time>
      </trkpt>
      <trkpt lat="45.16087" lon="5.94328">
        <ele>2024.8</ele>
        <time>2020-08-11T10:58:41Z</time>
      </trkpt>
      <trkpt lat="45.16088" lon="5.94327">
        <ele>2024</ele>
        <time>2020-08-11T10:58:42Z</time>
      </trkpt>
      <trkpt lat="45.16088" lon="5.94326">
        <ele>2023.6</ele>
        <time>2020-08-11T10:58:43Z</time>
      </trkpt>
      <trkpt lat="45.16088" lon="5.94323">
        <ele>2023</ele>
        <time>2020-08-11T10:58:44Z</time>
      </trkpt>
      <trkpt lat="45.1609" lon="5.94317">
        <ele>2023.2</ele>
        <time>2020-08-11T10:58:45Z</time>
      </trkpt>
      <trkpt lat="45.1609" lon="5.94314">
        <ele>2022.2</ele>
        <time>2020-08-11T10:58:46Z</time>
      </trkpt>
      <trkpt lat="45.1609" lon="5.94311">
        <ele>2022.4</ele>
        <time>2020-08-11T10:58:47Z</time>
      </trkpt>
      <trkpt lat="45.1609" lon="5.94308">
        <ele>2022.2</ele>
        <time>2020-08-11T10:58:48Z</time>
      </trkpt>
      <trkpt lat="45.16089" lon="5.94305">
        <ele>2021.4</ele>
        <time>2020-08-11T10:58:49Z</time>
      </trkpt>
      <trkpt lat="45.16089" lon="5.94302">
        <ele>2020.6</ele>
        <time>2020-08-11T10:58:50Z</time>
      </trkpt>
      <trkpt lat="45.16089" lon="5.94299">
        <ele>2019.8</ele>
        <time>2020-08-11T10:58:51Z</time>
      </trkpt>
      <trkpt lat="45.16088" lon="5.94296">
        <ele>2019</ele>
        <time>2020-08-11T10:58:52Z</time>
      </trkpt>
      <trkpt lat="45.16087" lon="5.94293">
        <ele>2019</ele>
        <time>2020-08-11T10:58:53Z</time>
      </trkpt>
      <trkpt lat="45.16086" lon="5.9429">
        <ele>2018.4</ele>
        <time>2020-08-11T10:58:54Z</time>
      </trkpt>
      <trkpt lat="45.16085" lon="5.94288">
        <ele>2018.4</ele>
        <time>2020-08-11T10:58:55Z</time>
      </trkpt>
      <trkpt lat="45.16085" lon="5.94288">
        <ele>2017.8</ele>
        <time>2020-08-11T10:58:56Z</time>
      </trkpt>
      <trkpt lat="45.16085" lon="5.94288">
        <ele>2017.4</ele>
        <time>2020-08-11T10:58:57Z</time>
      </trkpt>
      <trkpt lat="45.16084" lon="5.94284">
        <ele>2016.6</ele>
        <time>2020-08-11T10:58:58Z</time>
      </trkpt>
      <trkpt lat="45.16083" lon="5.94279">
        <ele>2015.8</ele>
        <time>2020-08-11T10:58:59Z</time>
      </trkpt>
      <trkpt lat="45.16082" lon="5.94275">
        <ele>2015.6</ele>
        <time>2020-08-11T10:59:00Z</time>
      </trkpt>
      <trkpt lat="45.16082" lon="5.94272">
        <ele>2014.8</ele>
        <time>2020-08-11T10:59:01Z</time>
      </trkpt>
      <trkpt lat="45.16083" lon="5.94268">
        <ele>2014.6</ele>
        <time>2020-08-11T10:59:02Z</time>
      </trkpt>
      <trkpt lat="45.16083" lon="5.94268">
        <ele>2014.4</ele>
        <time>2020-08-11T10:59:03Z</time>
      </trkpt>
      <trkpt lat="45.16083" lon="5.94264">
        <ele>2014.4</ele>
        <time>2020-08-11T10:59:04Z</time>
      </trkpt>
      <trkpt lat="45.16085" lon="5.94259">
        <ele>2014.4</ele>
        <time>2020-08-11T10:59:05Z</time>
      </trkpt>
      <trkpt lat="45.16085" lon="5.94259">
        <ele>2014.6</ele>
        <time>2020-08-11T10:59:06Z</time>
      </trkpt>
      <trkpt lat="45.16085" lon="5.94259">
        <ele>2014.4</ele>
        <time>2020-08-11T10:59:07Z</time>
      </trkpt>
      <trkpt lat="45.16085" lon="5.94254">
        <ele>2014.8</ele>
        <time>2020-08-11T10:59:08Z</time>
      </trkpt>
      <trkpt lat="45.16084" lon="5.94251">
        <ele>2014.8</ele>
        <time>2020-08-11T10:59:09Z</time>
      </trkpt>
      <trkpt lat="45.16084" lon="5.94251">
        <ele>2015.2</ele>
        <time>2020-08-11T10:59:10Z</time>
      </trkpt>
      <trkpt lat="45.16084" lon="5.94251">
        <ele>2015</ele>
        <time>2020-08-11T10:59:11Z</time>
      </trkpt>
      <trkpt lat="45.16084" lon="5.94246">
        <ele>2015.4</ele>
        <time>2020-08-11T10:59:12Z</time>
      </trkpt>
      <trkpt lat="45.16084" lon="5.94246">
        <ele>2015.4</ele>
        <time>2020-08-11T10:59:13Z</time>
      </trkpt>
      <trkpt lat="45.16082" lon="5.94244">
        <ele>2015.2</ele>
        <time>2020-08-11T10:59:14Z</time>
      </trkpt>
      <trkpt lat="45.16079" lon="5.9424">
        <ele>2015</ele>
        <time>2020-08-11T10:59:15Z</time>
      </trkpt>
      <trkpt lat="45.16077" lon="5.94237">
        <ele>2014.2</ele>
        <time>2020-08-11T10:59:16Z</time>
      </trkpt>
      <trkpt lat="45.16076" lon="5.94235">
        <ele>2013.8</ele>
        <time>2020-08-11T10:59:17Z</time>
      </trkpt>
      <trkpt lat="45.16075" lon="5.94233">
        <ele>2013.8</ele>
        <time>2020-08-11T10:59:18Z</time>
      </trkpt>
      <trkpt lat="45.16074" lon="5.94231">
        <ele>2013.4</ele>
        <time>2020-08-11T10:59:19Z</time>
      </trkpt>
      <trkpt lat="45.16073" lon="5.94229">
        <ele>2013.2</ele>
        <time>2020-08-11T10:59:20Z</time>
      </trkpt>
      <trkpt lat="45.16071" lon="5.94227">
        <ele>2013.4</ele>
        <time>2020-08-11T10:59:21Z</time>
      </trkpt>
      <trkpt lat="45.1607" lon="5.94224">
        <ele>2012.8</ele>
        <time>2020-08-11T10:59:22Z</time>
      </trkpt>
      <trkpt lat="45.16069" lon="5.94222">
        <ele>2012.2</ele>
        <time>2020-08-11T10:59:23Z</time>
      </trkpt>
      <trkpt lat="45.16067" lon="5.94219">
        <ele>2012.2</ele>
        <time>2020-08-11T10:59:24Z</time>
      </trkpt>
      <trkpt lat="45.16066" lon="5.94216">
        <ele>2011.4</ele>
        <time>2020-08-11T10:59:25Z</time>
      </trkpt>
      <trkpt lat="45.16064" lon="5.94213">
        <ele>2011</ele>
        <time>2020-08-11T10:59:26Z</time>
      </trkpt>
      <trkpt lat="45.16062" lon="5.94209">
        <ele>2011.2</ele>
        <time>2020-08-11T10:59:27Z</time>
      </trkpt>
      <trkpt lat="45.16061" lon="5.94207">
        <ele>2011.2</ele>
        <time>2020-08-11T10:59:28Z</time>
      </trkpt>
      <trkpt lat="45.1606" lon="5.94204">
        <ele>2010.6</ele>
        <time>2020-08-11T10:59:29Z</time>
      </trkpt>
      <trkpt lat="45.16058" lon="5.94202">
        <ele>2010.2</ele>
        <time>2020-08-11T10:59:30Z</time>
      </trkpt>
      <trkpt lat="45.16057" lon="5.94199">
        <ele>2009.8</ele>
        <time>2020-08-11T10:59:31Z</time>
      </trkpt>
      <trkpt lat="45.16055" lon="5.94196">
        <ele>2009.8</ele>
        <time>2020-08-11T10:59:32Z</time>
      </trkpt>
      <trkpt lat="45.16053" lon="5.94193">
        <ele>2009.6</ele>
        <time>2020-08-11T10:59:33Z</time>
      </trkpt>
      <trkpt lat="45.16052" lon="5.94191">
        <ele>2009.6</ele>
        <time>2020-08-11T10:59:34Z</time>
      </trkpt>
      <trkpt lat="45.16051" lon="5.94188">
        <ele>2009.2</ele>
        <time>2020-08-11T10:59:35Z</time>
      </trkpt>
      <trkpt lat="45.16049" lon="5.94186">
        <ele>2009</ele>
        <time>2020-08-11T10:59:36Z</time>
      </trkpt>
      <trkpt lat="45.16047" lon="5.94184">
        <ele>2009.2</ele>
        <time>2020-08-11T10:59:37Z</time>
      </trkpt>
      <trkpt lat="45.16045" lon="5.94182">
        <ele>2009.8</ele>
        <time>2020-08-11T10:59:38Z</time>
      </trkpt>
      <trkpt lat="45.16043" lon="5.9418">
        <ele>2009.8</ele>
        <time>2020-08-11T10:59:39Z</time>
      </trkpt>
      <trkpt lat="45.1604" lon="5.94177">
        <ele>2010.4</ele>
        <time>2020-08-11T10:59:40Z</time>
      </trkpt>
      <trkpt lat="45.16038" lon="5.94175">
        <ele>2010.2</ele>
        <time>2020-08-11T10:59:41Z</time>
      </trkpt>
      <trkpt lat="45.16036" lon="5.94173">
        <ele>2010.2</ele>
        <time>2020-08-11T10:59:42Z</time>
      </trkpt>
      <trkpt lat="45.16035" lon="5.94171">
        <ele>2009.8</ele>
        <time>2020-08-11T10:59:43Z</time>
      </trkpt>
      <trkpt lat="45.16034" lon="5.94171">
        <ele>2010.2</ele>
        <time>2020-08-11T10:59:44Z</time>
      </trkpt>
      <trkpt lat="45.16033" lon="5.9417">
        <ele>2010.4</ele>
        <time>2020-08-11T10:59:45Z</time>
      </trkpt>
      <trkpt lat="45.1603" lon="5.94168">
        <ele>2010</ele>
        <time>2020-08-11T10:59:46Z</time>
      </trkpt>
      <trkpt lat="45.16026" lon="5.94164">
        <ele>2010.2</ele>
        <time>2020-08-11T10:59:47Z</time>
      </trkpt>
      <trkpt lat="45.16025" lon="5.94162">
        <ele>2010</ele>
        <time>2020-08-11T10:59:48Z</time>
      </trkpt>
      <trkpt lat="45.16023" lon="5.9416">
        <ele>2010.2</ele>
        <time>2020-08-11T10:59:49Z</time>
      </trkpt>
      <trkpt lat="45.16022" lon="5.94157">
        <ele>2010</ele>
        <time>2020-08-11T10:59:50Z</time>
      </trkpt>
      <trkpt lat="45.16019" lon="5.94155">
        <ele>2010</ele>
        <time>2020-08-11T10:59:51Z</time>
      </trkpt>
      <trkpt lat="45.16017" lon="5.94153">
        <ele>2010</ele>
        <time>2020-08-11T10:59:52Z</time>
      </trkpt>
      <trkpt lat="45.16016" lon="5.94151">
        <ele>2010</ele>
        <time>2020-08-11T10:59:53Z</time>
      </trkpt>
      <trkpt lat="45.16014" lon="5.94149">
        <ele>2009.8</ele>
        <time>2020-08-11T10:59:54Z</time>
      </trkpt>
      <trkpt lat="45.16011" lon="5.94146">
        <ele>2009.8</ele>
        <time>2020-08-11T10:59:55Z</time>
      </trkpt>
      <trkpt lat="45.1601" lon="5.94145">
        <ele>2010.4</ele>
        <time>2020-08-11T10:59:56Z</time>
      </trkpt>
      <trkpt lat="45.16009" lon="5.94144">
        <ele>2010.4</ele>
        <time>2020-08-11T10:59:57Z</time>
      </trkpt>
      <trkpt lat="45.16007" lon="5.94143">
        <ele>2010.8</ele>
        <time>2020-08-11T10:59:58Z</time>
      </trkpt>
      <trkpt lat="45.16004" lon="5.94142">
        <ele>2010.6</ele>
        <time>2020-08-11T10:59:59Z</time>
      </trkpt>
      <trkpt lat="45.16" lon="5.94142">
        <ele>2010.6</ele>
        <time>2020-08-11T11:00:00Z</time>
      </trkpt>
      <trkpt lat="45.16" lon="5.94142">
        <ele>2010.2</ele>
        <time>2020-08-11T11:00:01Z</time>
      </trkpt>
      <trkpt lat="45.16" lon="5.94142">
        <ele>2010.4</ele>
        <time>2020-08-11T11:00:02Z</time>
      </trkpt>
      <trkpt lat="45.15997" lon="5.94143">
        <ele>2010</ele>
        <time>2020-08-11T11:00:03Z</time>
      </trkpt>
      <trkpt lat="45.15993" lon="5.94143">
        <ele>2010</ele>
        <time>2020-08-11T11:00:04Z</time>
      </trkpt>
      <trkpt lat="45.1599" lon="5.94144">
        <ele>2009.4</ele>
        <time>2020-08-11T11:00:05Z</time>
      </trkpt>
      <trkpt lat="45.15988" lon="5.94144">
        <ele>2009.4</ele>
        <time>2020-08-11T11:00:06Z</time>
      </trkpt>
      <trkpt lat="45.15986" lon="5.94145">
        <ele>2009.6</ele>
        <time>2020-08-11T11:00:07Z</time>
      </trkpt>
      <trkpt lat="45.15986" lon="5.94145">
        <ele>2009.4</ele>
        <time>2020-08-11T11:00:08Z</time>
      </trkpt>
      <trkpt lat="45.15984" lon="5.94146">
        <ele>2009.4</ele>
        <time>2020-08-11T11:00:09Z</time>
      </trkpt>
      <trkpt lat="45.15984" lon="5.94146">
        <ele>2009.2</ele>
        <time>2020-08-11T11:00:10Z</time>
      </trkpt>
      <trkpt lat="45.15981" lon="5.94145">
        <ele>2009.2</ele>
        <time>2020-08-11T11:00:11Z</time>
      </trkpt>
      <trkpt lat="45.15979" lon="5.94145">
        <ele>2009.2</ele>
        <time>2020-08-11T11:00:12Z</time>
      </trkpt>
      <trkpt lat="45.15977" lon="5.94145">
        <ele>2009.2</ele>
        <time>2020-08-11T11:00:13Z</time>
      </trkpt>
      <trkpt lat="45.15974" lon="5.94145">
        <ele>2009.2</ele>
        <time>2020-08-11T11:00:14Z</time>
      </trkpt>
      <trkpt lat="45.15971" lon="5.94142">
        <ele>2009.4</ele>
        <time>2020-08-11T11:00:15Z</time>
      </trkpt>
      <trkpt lat="45.15969" lon="5.94141">
        <ele>2009.6</ele>
        <time>2020-08-11T11:00:16Z</time>
      </trkpt>
      <trkpt lat="45.15968" lon="5.9414">
        <ele>2009.6</ele>
        <time>2020-08-11T11:00:17Z</time>
      </trkpt>
      <trkpt lat="45.15966" lon="5.94139">
        <ele>2009.6</ele>
        <time>2020-08-11T11:00:18Z</time>
      </trkpt>
      <trkpt lat="45.15966" lon="5.94139">
        <ele>2009.8</ele>
        <time>2020-08-11T11:00:19Z</time>
      </trkpt>
      <trkpt lat="45.15966" lon="5.94139">
        <ele>2009.8</ele>
        <time>2020-08-11T11:00:20Z</time>
      </trkpt>
      <trkpt lat="45.15965" lon="5.94137">
        <ele>2010.2</ele>
        <time>2020-08-11T11:00:21Z</time>
      </trkpt>
      <trkpt lat="45.15965" lon="5.94137">
        <ele>2010.2</ele>
        <time>2020-08-11T11:00:22Z</time>
      </trkpt>
      <trkpt lat="45.15965" lon="5.94136">
        <ele>2010.2</ele>
        <time>2020-08-11T11:00:23Z</time>
      </trkpt>
      <trkpt lat="45.15964" lon="5.94135">
        <ele>2010.6</ele>
        <time>2020-08-11T11:00:24Z</time>
      </trkpt>
      <trkpt lat="45.15964" lon="5.94134">
        <ele>2010.8</ele>
        <time>2020-08-11T11:00:25Z</time>
      </trkpt>
      <trkpt lat="45.15964" lon="5.94133">
        <ele>2011</ele>
        <time>2020-08-11T11:00:26Z</time>
      </trkpt>
      <trkpt lat="45.15963" lon="5.94132">
        <ele>2010.8</ele>
        <time>2020-08-11T11:00:27Z</time>
      </trkpt>
      <trkpt lat="45.15962" lon="5.94129">
        <ele>2011</ele>
        <time>2020-08-11T11:00:28Z</time>
      </trkpt>
      <trkpt lat="45.1596" lon="5.94128">
        <ele>2011</ele>
        <time>2020-08-11T11:00:29Z</time>
      </trkpt>
      <trkpt lat="45.15959" lon="5.94126">
        <ele>2011</ele>
        <time>2020-08-11T11:00:30Z</time>
      </trkpt>
      <trkpt lat="45.15957" lon="5.94124">
        <ele>2011.2</ele>
        <time>2020-08-11T11:00:31Z</time>
      </trkpt>
      <trkpt lat="45.15956" lon="5.94123">
        <ele>2011.4</ele>
        <time>2020-08-11T11:00:32Z</time>
      </trkpt>
      <trkpt lat="45.15954" lon="5.9412">
        <ele>2011.6</ele>
        <time>2020-08-11T11:00:34Z</time>
      </trkpt>
      <trkpt lat="45.15954" lon="5.9412">
        <ele>2011.8</ele>
        <time>2020-08-11T11:00:35Z</time>
      </trkpt>
      <trkpt lat="45.15954" lon="5.9412">
        <ele>2012</ele>
        <time>2020-08-11T11:00:36Z</time>
      </trkpt>
      <trkpt lat="45.15954" lon="5.9412">
        <ele>2012.2</ele>
        <time>2020-08-11T11:00:37Z</time>
      </trkpt>
      <trkpt lat="45.15952" lon="5.94116">
        <ele>2012.6</ele>
        <time>2020-08-11T11:00:38Z</time>
      </trkpt>
      <trkpt lat="45.15952" lon="5.94116">
        <ele>2012.6</ele>
        <time>2020-08-11T11:00:39Z</time>
      </trkpt>
      <trkpt lat="45.15951" lon="5.94113">
        <ele>2012.8</ele>
        <time>2020-08-11T11:00:40Z</time>
      </trkpt>
      <trkpt lat="45.15951" lon="5.94113">
        <ele>2013</ele>
        <time>2020-08-11T11:00:41Z</time>
      </trkpt>
      <trkpt lat="45.1595" lon="5.94109">
        <ele>2013.4</ele>
        <time>2020-08-11T11:00:42Z</time>
      </trkpt>
      <trkpt lat="45.15949" lon="5.94106">
        <ele>2013.6</ele>
        <time>2020-08-11T11:00:43Z</time>
      </trkpt>
      <trkpt lat="45.15949" lon="5.94106">
        <ele>2013.8</ele>
        <time>2020-08-11T11:00:44Z</time>
      </trkpt>
      <trkpt lat="45.15949" lon="5.94106">
        <ele>2014</ele>
        <time>2020-08-11T11:00:45Z</time>
      </trkpt>
      <trkpt lat="45.15948" lon="5.94102">
        <ele>2014.2</ele>
        <time>2020-08-11T11:00:46Z</time>
      </trkpt>
      <trkpt lat="45.15948" lon="5.94102">
        <ele>2014.2</ele>
        <time>2020-08-11T11:00:47Z</time>
      </trkpt>
      <trkpt lat="45.15947" lon="5.941">
        <ele>2014.4</ele>
        <time>2020-08-11T11:00:48Z</time>
      </trkpt>
      <trkpt lat="45.15946" lon="5.94097">
        <ele>2014.6</ele>
        <time>2020-08-11T11:00:49Z</time>
      </trkpt>
      <trkpt lat="45.15946" lon="5.94097">
        <ele>2014.8</ele>
        <time>2020-08-11T11:00:50Z</time>
      </trkpt>
      <trkpt lat="45.15946" lon="5.94097">
        <ele>2015</ele>
        <time>2020-08-11T11:00:51Z</time>
      </trkpt>
      <trkpt lat="45.15944" lon="5.94095">
        <ele>2015.2</ele>
        <time>2020-08-11T11:00:52Z</time>
      </trkpt>
      <trkpt lat="45.15943" lon="5.94093">
        <ele>2015.4</ele>
        <time>2020-08-11T11:00:53Z</time>
      </trkpt>
      <trkpt lat="45.15943" lon="5.94093">
        <ele>2015.6</ele>
        <time>2020-08-11T11:00:54Z</time>
      </trkpt>
      <trkpt lat="45.15943" lon="5.94093">
        <ele>2015.8</ele>
        <time>2020-08-11T11:00:55Z</time>
      </trkpt>
      <trkpt lat="45.15943" lon="5.94093">
        <ele>2016.2</ele>
        <time>2020-08-11T11:00:56Z</time>
      </trkpt>
      <trkpt lat="45.1594" lon="5.9409">
        <ele>2016.4</ele>
        <time>2020-08-11T11:00:57Z</time>
      </trkpt>
      <trkpt lat="45.1594" lon="5.9409">
        <ele>2016.2</ele>
        <time>2020-08-11T11:00:58Z</time>
      </trkpt>
      <trkpt lat="45.1594" lon="5.9409">
        <ele>2016.6</ele>
        <time>2020-08-11T11:00:59Z</time>
      </trkpt>
      <trkpt lat="45.15939" lon="5.94087">
        <ele>2016.8</ele>
        <time>2020-08-11T11:01:00Z</time>
      </trkpt>
      <trkpt lat="45.15939" lon="5.94087">
        <ele>2016.8</ele>
        <time>2020-08-11T11:01:01Z</time>
      </trkpt>
      <trkpt lat="45.15938" lon="5.94087">
        <ele>2017</ele>
        <time>2020-08-11T11:01:02Z</time>
      </trkpt>
      <trkpt lat="45.15938" lon="5.94086">
        <ele>2017</ele>
        <time>2020-08-11T11:01:03Z</time>
      </trkpt>
      <trkpt lat="45.15937" lon="5.94085">
        <ele>2017.2</ele>
        <time>2020-08-11T11:01:04Z</time>
      </trkpt>
      <trkpt lat="45.15937" lon="5.94084">
        <ele>2017.4</ele>
        <time>2020-08-11T11:01:05Z</time>
      </trkpt>
      <trkpt lat="45.15937" lon="5.94083">
        <ele>2017.6</ele>
        <time>2020-08-11T11:01:06Z</time>
      </trkpt>
      <trkpt lat="45.15936" lon="5.94082">
        <ele>2018</ele>
        <time>2020-08-11T11:01:07Z</time>
      </trkpt>
      <trkpt lat="45.15936" lon="5.94082">
        <ele>2018.2</ele>
        <time>2020-08-11T11:01:08Z</time>
      </trkpt>
      <trkpt lat="45.15935" lon="5.94079">
        <ele>2018.2</ele>
        <time>2020-08-11T11:01:09Z</time>
      </trkpt>
      <trkpt lat="45.15934" lon="5.94075">
        <ele>2018.2</ele>
        <time>2020-08-11T11:01:10Z</time>
      </trkpt>
      <trkpt lat="45.15933" lon="5.94073">
        <ele>2018.6</ele>
        <time>2020-08-11T11:01:11Z</time>
      </trkpt>
      <trkpt lat="45.15931" lon="5.9407">
        <ele>2018.8</ele>
        <time>2020-08-11T11:01:12Z</time>
      </trkpt>
      <trkpt lat="45.1593" lon="5.94067">
        <ele>2018.8</ele>
        <time>2020-08-11T11:01:13Z</time>
      </trkpt>
      <trkpt lat="45.15929" lon="5.94065">
        <ele>2019</ele>
        <time>2020-08-11T11:01:14Z</time>
      </trkpt>
      <trkpt lat="45.15928" lon="5.94062">
        <ele>2019.2</ele>
        <time>2020-08-11T11:01:15Z</time>
      </trkpt>
      <trkpt lat="45.15927" lon="5.9406">
        <ele>2019.2</ele>
        <time>2020-08-11T11:01:16Z</time>
      </trkpt>
      <trkpt lat="45.15927" lon="5.9406">
        <ele>2019</ele>
        <time>2020-08-11T11:01:17Z</time>
      </trkpt>
      <trkpt lat="45.15926" lon="5.94058">
        <ele>2018.8</ele>
        <time>2020-08-11T11:01:18Z</time>
      </trkpt>
      <trkpt lat="45.15925" lon="5.94055">
        <ele>2018.8</ele>
        <time>2020-08-11T11:01:19Z</time>
      </trkpt>
      <trkpt lat="45.15924" lon="5.94052">
        <ele>2018.8</ele>
        <time>2020-08-11T11:01:20Z</time>
      </trkpt>
      <trkpt lat="45.15924" lon="5.94052">
        <ele>2018.6</ele>
        <time>2020-08-11T11:01:21Z</time>
      </trkpt>
      <trkpt lat="45.15924" lon="5.94052">
        <ele>2018.6</ele>
        <time>2020-08-11T11:01:22Z</time>
      </trkpt>
      <trkpt lat="45.15923" lon="5.94051">
        <ele>2018.8</ele>
        <time>2020-08-11T11:01:23Z</time>
      </trkpt>
      <trkpt lat="45.15923" lon="5.9405">
        <ele>2018.6</ele>
        <time>2020-08-11T11:01:24Z</time>
      </trkpt>
      <trkpt lat="45.15923" lon="5.94049">
        <ele>2018.4</ele>
        <time>2020-08-11T11:01:25Z</time>
      </trkpt>
      <trkpt lat="45.15922" lon="5.94048">
        <ele>2018.4</ele>
        <time>2020-08-11T11:01:26Z</time>
      </trkpt>
      <trkpt lat="45.15922" lon="5.94048">
        <ele>2018.2</ele>
        <time>2020-08-11T11:01:27Z</time>
      </trkpt>
      <trkpt lat="45.15921" lon="5.94047">
        <ele>2018.2</ele>
        <time>2020-08-11T11:01:28Z</time>
      </trkpt>
      <trkpt lat="45.15919" lon="5.94046">
        <ele>2018.6</ele>
        <time>2020-08-11T11:01:29Z</time>
      </trkpt>
      <trkpt lat="45.15918" lon="5.94044">
        <ele>2018.6</ele>
        <time>2020-08-11T11:01:30Z</time>
      </trkpt>
      <trkpt lat="45.15918" lon="5.94044">
        <ele>2018.4</ele>
        <time>2020-08-11T11:01:31Z</time>
      </trkpt>
      <trkpt lat="45.15918" lon="5.94044">
        <ele>2018.2</ele>
        <time>2020-08-11T11:01:32Z</time>
      </trkpt>
      <trkpt lat="45.15918" lon="5.94044">
        <ele>2018.2</ele>
        <time>2020-08-11T11:01:33Z</time>
      </trkpt>
      <trkpt lat="45.15917" lon="5.94042">
        <ele>2018.4</ele>
        <time>2020-08-11T11:01:34Z</time>
      </trkpt>
      <trkpt lat="45.15917" lon="5.94042">
        <ele>2018.6</ele>
        <time>2020-08-11T11:01:35Z</time>
      </trkpt>
      <trkpt lat="45.15915" lon="5.94039">
        <ele>2018.6</ele>
        <time>2020-08-11T11:01:36Z</time>
      </trkpt>
      <trkpt lat="45.15915" lon="5.94039">
        <ele>2019</ele>
        <time>2020-08-11T11:01:37Z</time>
      </trkpt>
      <trkpt lat="45.15915" lon="5.94039">
        <ele>2019</ele>
        <time>2020-08-11T11:01:38Z</time>
      </trkpt>
      <trkpt lat="45.15915" lon="5.94039">
        <ele>2019</ele>
        <time>2020-08-11T11:01:39Z</time>
      </trkpt>
      <trkpt lat="45.15913" lon="5.94038">
        <ele>2018.8</ele>
        <time>2020-08-11T11:01:40Z</time>
      </trkpt>
      <trkpt lat="45.15913" lon="5.94038">
        <ele>2018.8</ele>
        <time>2020-08-11T11:01:41Z</time>
      </trkpt>
      <trkpt lat="45.15912" lon="5.94037">
        <ele>2018.6</ele>
        <time>2020-08-11T11:01:42Z</time>
      </trkpt>
      <trkpt lat="45.15912" lon="5.94037">
        <ele>2019.2</ele>
        <time>2020-08-11T11:01:43Z</time>
      </trkpt>
      <trkpt lat="45.15909" lon="5.94037">
        <ele>2019</ele>
        <time>2020-08-11T11:01:44Z</time>
      </trkpt>
      <trkpt lat="45.15909" lon="5.94037">
        <ele>2019.2</ele>
        <time>2020-08-11T11:01:45Z</time>
      </trkpt>
      <trkpt lat="45.15909" lon="5.94037">
        <ele>2018.8</ele>
        <time>2020-08-11T11:01:46Z</time>
      </trkpt>
      <trkpt lat="45.15907" lon="5.94034">
        <ele>2018.6</ele>
        <time>2020-08-11T11:01:47Z</time>
      </trkpt>
      <trkpt lat="45.15905" lon="5.94033">
        <ele>2018.4</ele>
        <time>2020-08-11T11:01:48Z</time>
      </trkpt>
      <trkpt lat="45.15905" lon="5.94033">
        <ele>2018.8</ele>
        <time>2020-08-11T11:01:49Z</time>
      </trkpt>
      <trkpt lat="45.15903" lon="5.94033">
        <ele>2018.4</ele>
        <time>2020-08-11T11:01:50Z</time>
      </trkpt>
      <trkpt lat="45.15899" lon="5.94031">
        <ele>2018.4</ele>
        <time>2020-08-11T11:01:51Z</time>
      </trkpt>
      <trkpt lat="45.15898" lon="5.9403">
        <ele>2018</ele>
        <time>2020-08-11T11:01:52Z</time>
      </trkpt>
      <trkpt lat="45.15896" lon="5.94028">
        <ele>2017.6</ele>
        <time>2020-08-11T11:01:53Z</time>
      </trkpt>
      <trkpt lat="45.15895" lon="5.94027">
        <ele>2018</ele>
        <time>2020-08-11T11:01:54Z</time>
      </trkpt>
      <trkpt lat="45.15894" lon="5.94026">
        <ele>2017.8</ele>
        <time>2020-08-11T11:01:55Z</time>
      </trkpt>
      <trkpt lat="45.15893" lon="5.94025">
        <ele>2018</ele>
        <time>2020-08-11T11:01:56Z</time>
      </trkpt>
      <trkpt lat="45.15891" lon="5.94024">
        <ele>2017.4</ele>
        <time>2020-08-11T11:01:57Z</time>
      </trkpt>
      <trkpt lat="45.1589" lon="5.94023">
        <ele>2017.4</ele>
        <time>2020-08-11T11:01:58Z</time>
      </trkpt>
      <trkpt lat="45.15889" lon="5.94021">
        <ele>2017</ele>
        <time>2020-08-11T11:01:59Z</time>
      </trkpt>
      <trkpt lat="45.15886" lon="5.94018">
        <ele>2017.4</ele>
        <time>2020-08-11T11:02:00Z</time>
      </trkpt>
      <trkpt lat="45.15885" lon="5.94017">
        <ele>2017</ele>
        <time>2020-08-11T11:02:01Z</time>
      </trkpt>
      <trkpt lat="45.15884" lon="5.94016">
        <ele>2017.2</ele>
        <time>2020-08-11T11:02:02Z</time>
      </trkpt>
      <trkpt lat="45.15883" lon="5.94015">
        <ele>2016.8</ele>
        <time>2020-08-11T11:02:03Z</time>
      </trkpt>
      <trkpt lat="45.15881" lon="5.94013">
        <ele>2016.4</ele>
        <time>2020-08-11T11:02:04Z</time>
      </trkpt>
      <trkpt lat="45.1588" lon="5.94011">
        <ele>2015.8</ele>
        <time>2020-08-11T11:02:05Z</time>
      </trkpt>
      <trkpt lat="45.15878" lon="5.94009">
        <ele>2015.8</ele>
        <time>2020-08-11T11:02:06Z</time>
      </trkpt>
      <trkpt lat="45.15874" lon="5.94004">
        <ele>2016.2</ele>
        <time>2020-08-11T11:02:07Z</time>
      </trkpt>
      <trkpt lat="45.15874" lon="5.94004">
        <ele>2015.8</ele>
        <time>2020-08-11T11:02:08Z</time>
      </trkpt>
      <trkpt lat="45.15872" lon="5.94001">
        <ele>2016.2</ele>
        <time>2020-08-11T11:02:09Z</time>
      </trkpt>
      <trkpt lat="45.15871" lon="5.93998">
        <ele>2016</ele>
        <time>2020-08-11T11:02:10Z</time>
      </trkpt>
      <trkpt lat="45.15868" lon="5.93992">
        <ele>2016.2</ele>
        <time>2020-08-11T11:02:11Z</time>
      </trkpt>
      <trkpt lat="45.15866" lon="5.93989">
        <ele>2015.8</ele>
        <time>2020-08-11T11:02:12Z</time>
      </trkpt>
      <trkpt lat="45.15865" lon="5.93986">
        <ele>2015.6</ele>
        <time>2020-08-11T11:02:13Z</time>
      </trkpt>
      <trkpt lat="45.15863" lon="5.93984">
        <ele>2015.2</ele>
        <time>2020-08-11T11:02:14Z</time>
      </trkpt>
      <trkpt lat="45.15862" lon="5.93982">
        <ele>2014.8</ele>
        <time>2020-08-11T11:02:15Z</time>
      </trkpt>
      <trkpt lat="45.15861" lon="5.93979">
        <ele>2015</ele>
        <time>2020-08-11T11:02:16Z</time>
      </trkpt>
      <trkpt lat="45.15859" lon="5.93977">
        <ele>2014.6</ele>
        <time>2020-08-11T11:02:17Z</time>
      </trkpt>
      <trkpt lat="45.15857" lon="5.93974">
        <ele>2015</ele>
        <time>2020-08-11T11:02:18Z</time>
      </trkpt>
      <trkpt lat="45.15855" lon="5.93972">
        <ele>2014.6</ele>
        <time>2020-08-11T11:02:19Z</time>
      </trkpt>
      <trkpt lat="45.15853" lon="5.93969">
        <ele>2014.6</ele>
        <time>2020-08-11T11:02:20Z</time>
      </trkpt>
      <trkpt lat="45.15853" lon="5.93969">
        <ele>2014.2</ele>
        <time>2020-08-11T11:02:21Z</time>
      </trkpt>
      <trkpt lat="45.15851" lon="5.93967">
        <ele>2014</ele>
        <time>2020-08-11T11:02:22Z</time>
      </trkpt>
      <trkpt lat="45.1585" lon="5.93965">
        <ele>2013.4</ele>
        <time>2020-08-11T11:02:23Z</time>
      </trkpt>
      <trkpt lat="45.15848" lon="5.93962">
        <ele>2012.8</ele>
        <time>2020-08-11T11:02:24Z</time>
      </trkpt>
      <trkpt lat="45.15844" lon="5.93958">
        <ele>2013</ele>
        <time>2020-08-11T11:02:25Z</time>
      </trkpt>
      <trkpt lat="45.15842" lon="5.93955">
        <ele>2012.4</ele>
        <time>2020-08-11T11:02:26Z</time>
      </trkpt>
      <trkpt lat="45.1584" lon="5.93953">
        <ele>2013</ele>
        <time>2020-08-11T11:02:27Z</time>
      </trkpt>
      <trkpt lat="45.15838" lon="5.93951">
        <ele>2012.8</ele>
        <time>2020-08-11T11:02:28Z</time>
      </trkpt>
      <trkpt lat="45.15836" lon="5.93948">
        <ele>2013.2</ele>
        <time>2020-08-11T11:02:29Z</time>
      </trkpt>
      <trkpt lat="45.15834" lon="5.93946">
        <ele>2013</ele>
        <time>2020-08-11T11:02:30Z</time>
      </trkpt>
      <trkpt lat="45.15833" lon="5.93943">
        <ele>2013</ele>
        <time>2020-08-11T11:02:31Z</time>
      </trkpt>
      <trkpt lat="45.15831" lon="5.9394">
        <ele>2012.8</ele>
        <time>2020-08-11T11:02:32Z</time>
      </trkpt>
      <trkpt lat="45.15829" lon="5.93937">
        <ele>2013.2</ele>
        <time>2020-08-11T11:02:33Z</time>
      </trkpt>
      <trkpt lat="45.15829" lon="5.93937">
        <ele>2012.8</ele>
        <time>2020-08-11T11:02:34Z</time>
      </trkpt>
      <trkpt lat="45.15829" lon="5.93937">
        <ele>2012.8</ele>
        <time>2020-08-11T11:02:35Z</time>
      </trkpt>
      <trkpt lat="45.15831" lon="5.93934">
        <ele>2012.4</ele>
        <time>2020-08-11T11:02:36Z</time>
      </trkpt>
      <trkpt lat="45.15832" lon="5.93931">
        <ele>2012.4</ele>
        <time>2020-08-11T11:02:37Z</time>
      </trkpt>
      <trkpt lat="45.15834" lon="5.93927">
        <ele>2012</ele>
        <time>2020-08-11T11:02:38Z</time>
      </trkpt>
      <trkpt lat="45.15835" lon="5.93924">
        <ele>2012</ele>
        <time>2020-08-11T11:02:39Z</time>
      </trkpt>
      <trkpt lat="45.15835" lon="5.9392">
        <ele>2011.8</ele>
        <time>2020-08-11T11:02:40Z</time>
      </trkpt>
      <trkpt lat="45.15836" lon="5.93916">
        <ele>2011.4</ele>
        <time>2020-08-11T11:02:41Z</time>
      </trkpt>
      <trkpt lat="45.15836" lon="5.93913">
        <ele>2011.4</ele>
        <time>2020-08-11T11:02:42Z</time>
      </trkpt>
      <trkpt lat="45.15836" lon="5.93909">
        <ele>2010.8</ele>
        <time>2020-08-11T11:02:43Z</time>
      </trkpt>
      <trkpt lat="45.15835" lon="5.93905">
        <ele>2011.4</ele>
        <time>2020-08-11T11:02:44Z</time>
      </trkpt>
      <trkpt lat="45.15834" lon="5.93901">
        <ele>2011.4</ele>
        <time>2020-08-11T11:02:45Z</time>
      </trkpt>
      <trkpt lat="45.15833" lon="5.93898">
        <ele>2012</ele>
        <time>2020-08-11T11:02:46Z</time>
      </trkpt>
      <trkpt lat="45.15832" lon="5.93894">
        <ele>2011.8</ele>
        <time>2020-08-11T11:02:47Z</time>
      </trkpt>
      <trkpt lat="45.1583" lon="5.9389">
        <ele>2012.2</ele>
        <time>2020-08-11T11:02:48Z</time>
      </trkpt>
      <trkpt lat="45.15829" lon="5.93885">
        <ele>2012</ele>
        <time>2020-08-11T11:02:49Z</time>
      </trkpt>
      <trkpt lat="45.15827" lon="5.93881">
        <ele>2012.4</ele>
        <time>2020-08-11T11:02:50Z</time>
      </trkpt>
      <trkpt lat="45.15826" lon="5.93877">
        <ele>2012.4</ele>
        <time>2020-08-11T11:02:51Z</time>
      </trkpt>
      <trkpt lat="45.15826" lon="5.93877">
        <ele>2013</ele>
        <time>2020-08-11T11:02:52Z</time>
      </trkpt>
      <trkpt lat="45.15825" lon="5.93873">
        <ele>2012.8</ele>
        <time>2020-08-11T11:02:53Z</time>
      </trkpt>
      <trkpt lat="45.15824" lon="5.93869">
        <ele>2012.6</ele>
        <time>2020-08-11T11:02:54Z</time>
      </trkpt>
      <trkpt lat="45.15822" lon="5.93865">
        <ele>2012.2</ele>
        <time>2020-08-11T11:02:55Z</time>
      </trkpt>
      <trkpt lat="45.15821" lon="5.93861">
        <ele>2011.2</ele>
        <time>2020-08-11T11:02:56Z</time>
      </trkpt>
      <trkpt lat="45.15821" lon="5.93858">
        <ele>2011.6</ele>
        <time>2020-08-11T11:02:57Z</time>
      </trkpt>
      <trkpt lat="45.15821" lon="5.93858">
        <ele>2011.2</ele>
        <time>2020-08-11T11:02:58Z</time>
      </trkpt>
      <trkpt lat="45.1582" lon="5.93854">
        <ele>2011.6</ele>
        <time>2020-08-11T11:02:59Z</time>
      </trkpt>
      <trkpt lat="45.1582" lon="5.93851">
        <ele>2011</ele>
        <time>2020-08-11T11:03:00Z</time>
      </trkpt>
      <trkpt lat="45.15819" lon="5.93847">
        <ele>2011.2</ele>
        <time>2020-08-11T11:03:01Z</time>
      </trkpt>
      <trkpt lat="45.15818" lon="5.93843">
        <ele>2010.8</ele>
        <time>2020-08-11T11:03:02Z</time>
      </trkpt>
      <trkpt lat="45.15818" lon="5.9384">
        <ele>2011.2</ele>
        <time>2020-08-11T11:03:03Z</time>
      </trkpt>
      <trkpt lat="45.15817" lon="5.93836">
        <ele>2010.8</ele>
        <time>2020-08-11T11:03:04Z</time>
      </trkpt>
      <trkpt lat="45.15816" lon="5.93833">
        <ele>2011</ele>
        <time>2020-08-11T11:03:05Z</time>
      </trkpt>
      <trkpt lat="45.15815" lon="5.93829">
        <ele>2010.6</ele>
        <time>2020-08-11T11:03:06Z</time>
      </trkpt>
      <trkpt lat="45.15814" lon="5.93827">
        <ele>2010.6</ele>
        <time>2020-08-11T11:03:07Z</time>
      </trkpt>
      <trkpt lat="45.15813" lon="5.93824">
        <ele>2010.4</ele>
        <time>2020-08-11T11:03:08Z</time>
      </trkpt>
      <trkpt lat="45.15812" lon="5.93821">
        <ele>2010.2</ele>
        <time>2020-08-11T11:03:09Z</time>
      </trkpt>
      <trkpt lat="45.15811" lon="5.93819">
        <ele>2010.6</ele>
        <time>2020-08-11T11:03:10Z</time>
      </trkpt>
      <trkpt lat="45.1581" lon="5.93816">
        <ele>2010.4</ele>
        <time>2020-08-11T11:03:11Z</time>
      </trkpt>
      <trkpt lat="45.15809" lon="5.93812">
        <ele>2010.4</ele>
        <time>2020-08-11T11:03:12Z</time>
      </trkpt>
      <trkpt lat="45.15808" lon="5.93809">
        <ele>2009.8</ele>
        <time>2020-08-11T11:03:13Z</time>
      </trkpt>
      <trkpt lat="45.15807" lon="5.93806">
        <ele>2009.4</ele>
        <time>2020-08-11T11:03:14Z</time>
      </trkpt>
      <trkpt lat="45.15807" lon="5.93806">
        <ele>2008.8</ele>
        <time>2020-08-11T11:03:15Z</time>
      </trkpt>
      <trkpt lat="45.15807" lon="5.93806">
        <ele>2008.6</ele>
        <time>2020-08-11T11:03:16Z</time>
      </trkpt>
      <trkpt lat="45.15805" lon="5.93801">
        <ele>2008.6</ele>
        <time>2020-08-11T11:03:17Z</time>
      </trkpt>
      <trkpt lat="45.15804" lon="5.93797">
        <ele>2008.4</ele>
        <time>2020-08-11T11:03:18Z</time>
      </trkpt>
      <trkpt lat="45.15802" lon="5.93792">
        <ele>2008.6</ele>
        <time>2020-08-11T11:03:19Z</time>
      </trkpt>
      <trkpt lat="45.15801" lon="5.9379">
        <ele>2008.2</ele>
        <time>2020-08-11T11:03:20Z</time>
      </trkpt>
      <trkpt lat="45.15801" lon="5.93788">
        <ele>2007.2</ele>
        <time>2020-08-11T11:03:21Z</time>
      </trkpt>
      <trkpt lat="45.15801" lon="5.93785">
        <ele>2007.6</ele>
        <time>2020-08-11T11:03:22Z</time>
      </trkpt>
      <trkpt lat="45.158" lon="5.93782">
        <ele>2007</ele>
        <time>2020-08-11T11:03:23Z</time>
      </trkpt>
      <trkpt lat="45.15799" lon="5.93779">
        <ele>2007.2</ele>
        <time>2020-08-11T11:03:24Z</time>
      </trkpt>
      <trkpt lat="45.15798" lon="5.93778">
        <ele>2006.6</ele>
        <time>2020-08-11T11:03:25Z</time>
      </trkpt>
      <trkpt lat="45.15797" lon="5.93776">
        <ele>2005.8</ele>
        <time>2020-08-11T11:03:26Z</time>
      </trkpt>
      <trkpt lat="45.15796" lon="5.9377">
        <ele>2006.4</ele>
        <time>2020-08-11T11:03:27Z</time>
      </trkpt>
      <trkpt lat="45.15796" lon="5.93768">
        <ele>2006.4</ele>
        <time>2020-08-11T11:03:28Z</time>
      </trkpt>
      <trkpt lat="45.15796" lon="5.93766">
        <ele>2006.4</ele>
        <time>2020-08-11T11:03:29Z</time>
      </trkpt>
      <trkpt lat="45.15797" lon="5.93764">
        <ele>2006.2</ele>
        <time>2020-08-11T11:03:30Z</time>
      </trkpt>
      <trkpt lat="45.15798" lon="5.93758">
        <ele>2006</ele>
        <time>2020-08-11T11:03:31Z</time>
      </trkpt>
      <trkpt lat="45.15798" lon="5.93756">
        <ele>2005.4</ele>
        <time>2020-08-11T11:03:32Z</time>
      </trkpt>
      <trkpt lat="45.15798" lon="5.93755">
        <ele>2005.2</ele>
        <time>2020-08-11T11:03:33Z</time>
      </trkpt>
      <trkpt lat="45.15798" lon="5.93755">
        <ele>2005.2</ele>
        <time>2020-08-11T11:03:34Z</time>
      </trkpt>
      <trkpt lat="45.15798" lon="5.9375">
        <ele>2004.8</ele>
        <time>2020-08-11T11:03:35Z</time>
      </trkpt>
      <trkpt lat="45.15798" lon="5.93745">
        <ele>2005.6</ele>
        <time>2020-08-11T11:03:36Z</time>
      </trkpt>
      <trkpt lat="45.15798" lon="5.9374">
        <ele>2005</ele>
        <time>2020-08-11T11:03:37Z</time>
      </trkpt>
      <trkpt lat="45.15798" lon="5.93735">
        <ele>2005.2</ele>
        <time>2020-08-11T11:03:38Z</time>
      </trkpt>
      <trkpt lat="45.15798" lon="5.93731">
        <ele>2004.6</ele>
        <time>2020-08-11T11:03:39Z</time>
      </trkpt>
      <trkpt lat="45.15797" lon="5.93728">
        <ele>2004.6</ele>
        <time>2020-08-11T11:03:40Z</time>
      </trkpt>
      <trkpt lat="45.15797" lon="5.93724">
        <ele>2004</ele>
        <time>2020-08-11T11:03:41Z</time>
      </trkpt>
      <trkpt lat="45.15796" lon="5.93721">
        <ele>2003.8</ele>
        <time>2020-08-11T11:03:42Z</time>
      </trkpt>
      <trkpt lat="45.15796" lon="5.93717">
        <ele>2003.4</ele>
        <time>2020-08-11T11:03:43Z</time>
      </trkpt>
      <trkpt lat="45.15795" lon="5.93714">
        <ele>2002.6</ele>
        <time>2020-08-11T11:03:44Z</time>
      </trkpt>
      <trkpt lat="45.15794" lon="5.93711">
        <ele>2003.2</ele>
        <time>2020-08-11T11:03:45Z</time>
      </trkpt>
      <trkpt lat="45.15793" lon="5.93707">
        <ele>2003</ele>
        <time>2020-08-11T11:03:46Z</time>
      </trkpt>
      <trkpt lat="45.15793" lon="5.93703">
        <ele>2003.2</ele>
        <time>2020-08-11T11:03:47Z</time>
      </trkpt>
      <trkpt lat="45.15793" lon="5.93703">
        <ele>2002.8</ele>
        <time>2020-08-11T11:03:48Z</time>
      </trkpt>
      <trkpt lat="45.15793" lon="5.93703">
        <ele>2003</ele>
        <time>2020-08-11T11:03:49Z</time>
      </trkpt>
      <trkpt lat="45.15792" lon="5.93699">
        <ele>2002.6</ele>
        <time>2020-08-11T11:03:50Z</time>
      </trkpt>
      <trkpt lat="45.15792" lon="5.93694">
        <ele>2002.4</ele>
        <time>2020-08-11T11:03:51Z</time>
      </trkpt>
      <trkpt lat="45.15791" lon="5.93689">
        <ele>2002.6</ele>
        <time>2020-08-11T11:03:52Z</time>
      </trkpt>
      <trkpt lat="45.1579" lon="5.93685">
        <ele>2002.2</ele>
        <time>2020-08-11T11:03:53Z</time>
      </trkpt>
      <trkpt lat="45.15789" lon="5.9368">
        <ele>2002.2</ele>
        <time>2020-08-11T11:03:54Z</time>
      </trkpt>
      <trkpt lat="45.15789" lon="5.93679">
        <ele>2002.2</ele>
        <time>2020-08-11T11:03:55Z</time>
      </trkpt>
      <trkpt lat="45.15789" lon="5.93678">
        <ele>2001.8</ele>
        <time>2020-08-11T11:03:56Z</time>
      </trkpt>
      <trkpt lat="45.15789" lon="5.93678">
        <ele>2001.2</ele>
        <time>2020-08-11T11:03:57Z</time>
      </trkpt>
      <trkpt lat="45.15789" lon="5.93675">
        <ele>2001.4</ele>
        <time>2020-08-11T11:03:58Z</time>
      </trkpt>
      <trkpt lat="45.15789" lon="5.93673">
        <ele>2001</ele>
        <time>2020-08-11T11:03:59Z</time>
      </trkpt>
      <trkpt lat="45.15789" lon="5.9367">
        <ele>2001</ele>
        <time>2020-08-11T11:04:00Z</time>
      </trkpt>
      <trkpt lat="45.15789" lon="5.93668">
        <ele>2000.2</ele>
        <time>2020-08-11T11:04:01Z</time>
      </trkpt>
      <trkpt lat="45.1579" lon="5.93665">
        <ele>1999.6</ele>
        <time>2020-08-11T11:04:02Z</time>
      </trkpt>
      <trkpt lat="45.15789" lon="5.93662">
        <ele>1999.8</ele>
        <time>2020-08-11T11:04:03Z</time>
      </trkpt>
      <trkpt lat="45.15789" lon="5.9366">
        <ele>1999.4</ele>
        <time>2020-08-11T11:04:04Z</time>
      </trkpt>
      <trkpt lat="45.15789" lon="5.93657">
        <ele>1999.8</ele>
        <time>2020-08-11T11:04:05Z</time>
      </trkpt>
      <trkpt lat="45.15788" lon="5.93655">
        <ele>1999.2</ele>
        <time>2020-08-11T11:04:06Z</time>
      </trkpt>
      <trkpt lat="45.15788" lon="5.93652">
        <ele>1999</ele>
        <time>2020-08-11T11:04:07Z</time>
      </trkpt>
      <trkpt lat="45.15787" lon="5.9365">
        <ele>1998</ele>
        <time>2020-08-11T11:04:08Z</time>
      </trkpt>
      <trkpt lat="45.15786" lon="5.93647">
        <ele>1997.6</ele>
        <time>2020-08-11T11:04:09Z</time>
      </trkpt>
      <trkpt lat="45.15786" lon="5.93647">
        <ele>1997.8</ele>
        <time>2020-08-11T11:04:10Z</time>
      </trkpt>
      <trkpt lat="45.15785" lon="5.93646">
        <ele>1997.4</ele>
        <time>2020-08-11T11:04:11Z</time>
      </trkpt>
      <trkpt lat="45.15784" lon="5.93644">
        <ele>1997</ele>
        <time>2020-08-11T11:04:12Z</time>
      </trkpt>
      <trkpt lat="45.15783" lon="5.93643">
        <ele>1997</ele>
        <time>2020-08-11T11:04:13Z</time>
      </trkpt>
      <trkpt lat="45.15782" lon="5.93641">
        <ele>1996.6</ele>
        <time>2020-08-11T11:04:14Z</time>
      </trkpt>
      <trkpt lat="45.15781" lon="5.93639">
        <ele>1996.6</ele>
        <time>2020-08-11T11:04:15Z</time>
      </trkpt>
      <trkpt lat="45.1578" lon="5.93638">
        <ele>1996.6</ele>
        <time>2020-08-11T11:04:16Z</time>
      </trkpt>
      <trkpt lat="45.15779" lon="5.93636">
        <ele>1996.2</ele>
        <time>2020-08-11T11:04:17Z</time>
      </trkpt>
      <trkpt lat="45.15778" lon="5.93635">
        <ele>1995.8</ele>
        <time>2020-08-11T11:04:18Z</time>
      </trkpt>
      <trkpt lat="45.15777" lon="5.93634">
        <ele>1995.6</ele>
        <time>2020-08-11T11:04:19Z</time>
      </trkpt>
      <trkpt lat="45.15777" lon="5.93632">
        <ele>1995.2</ele>
        <time>2020-08-11T11:04:20Z</time>
      </trkpt>
      <trkpt lat="45.15776" lon="5.93631">
        <ele>1995</ele>
        <time>2020-08-11T11:04:21Z</time>
      </trkpt>
      <trkpt lat="45.15775" lon="5.93629">
        <ele>1994.2</ele>
        <time>2020-08-11T11:04:22Z</time>
      </trkpt>
      <trkpt lat="45.15774" lon="5.93628">
        <ele>1994</ele>
        <time>2020-08-11T11:04:23Z</time>
      </trkpt>
      <trkpt lat="45.15774" lon="5.93626">
        <ele>1993.2</ele>
        <time>2020-08-11T11:04:24Z</time>
      </trkpt>
      <trkpt lat="45.15773" lon="5.93625">
        <ele>1993</ele>
        <time>2020-08-11T11:04:25Z</time>
      </trkpt>
      <trkpt lat="45.15772" lon="5.93624">
        <ele>1992.4</ele>
        <time>2020-08-11T11:04:26Z</time>
      </trkpt>
      <trkpt lat="45.15771" lon="5.93622">
        <ele>1992.4</ele>
        <time>2020-08-11T11:04:27Z</time>
      </trkpt>
      <trkpt lat="45.15771" lon="5.93621">
        <ele>1992.4</ele>
        <time>2020-08-11T11:04:28Z</time>
      </trkpt>
      <trkpt lat="45.1577" lon="5.93619">
        <ele>1991.4</ele>
        <time>2020-08-11T11:04:29Z</time>
      </trkpt>
      <trkpt lat="45.15769" lon="5.93618">
        <ele>1991.6</ele>
        <time>2020-08-11T11:04:30Z</time>
      </trkpt>
      <trkpt lat="45.15769" lon="5.93616">
        <ele>1991.2</ele>
        <time>2020-08-11T11:04:31Z</time>
      </trkpt>
      <trkpt lat="45.15769" lon="5.93613">
        <ele>1990.8</ele>
        <time>2020-08-11T11:04:32Z</time>
      </trkpt>
      <trkpt lat="45.15769" lon="5.93611">
        <ele>1991</ele>
        <time>2020-08-11T11:04:33Z</time>
      </trkpt>
      <trkpt lat="45.15769" lon="5.9361">
        <ele>1990.8</ele>
        <time>2020-08-11T11:04:34Z</time>
      </trkpt>
      <trkpt lat="45.15769" lon="5.93609">
        <ele>1990</ele>
        <time>2020-08-11T11:04:35Z</time>
      </trkpt>
      <trkpt lat="45.15769" lon="5.93608">
        <ele>1989.2</ele>
        <time>2020-08-11T11:04:36Z</time>
      </trkpt>
      <trkpt lat="45.15769" lon="5.93607">
        <ele>1989.2</ele>
        <time>2020-08-11T11:04:37Z</time>
      </trkpt>
      <trkpt lat="45.1577" lon="5.93606">
        <ele>1988.8</ele>
        <time>2020-08-11T11:04:38Z</time>
      </trkpt>
      <trkpt lat="45.1577" lon="5.93605">
        <ele>1988</ele>
        <time>2020-08-11T11:04:39Z</time>
      </trkpt>
      <trkpt lat="45.1577" lon="5.93603">
        <ele>1987.8</ele>
        <time>2020-08-11T11:04:40Z</time>
      </trkpt>
      <trkpt lat="45.1577" lon="5.93603">
        <ele>1987.6</ele>
        <time>2020-08-11T11:04:41Z</time>
      </trkpt>
      <trkpt lat="45.15768" lon="5.93599">
        <ele>1987.4</ele>
        <time>2020-08-11T11:04:42Z</time>
      </trkpt>
      <trkpt lat="45.15768" lon="5.93597">
        <ele>1986.4</ele>
        <time>2020-08-11T11:04:43Z</time>
      </trkpt>
      <trkpt lat="45.15768" lon="5.93597">
        <ele>1986</ele>
        <time>2020-08-11T11:04:44Z</time>
      </trkpt>
      <trkpt lat="45.15768" lon="5.93593">
        <ele>1985.4</ele>
        <time>2020-08-11T11:04:45Z</time>
      </trkpt>
      <trkpt lat="45.15768" lon="5.93593">
        <ele>1985.4</ele>
        <time>2020-08-11T11:04:46Z</time>
      </trkpt>
      <trkpt lat="45.15767" lon="5.9359">
        <ele>1984.8</ele>
        <time>2020-08-11T11:04:47Z</time>
      </trkpt>
      <trkpt lat="45.15768" lon="5.93585">
        <ele>1984.6</ele>
        <time>2020-08-11T11:04:48Z</time>
      </trkpt>
      <trkpt lat="45.15768" lon="5.93585">
        <ele>1983.8</ele>
        <time>2020-08-11T11:04:49Z</time>
      </trkpt>
      <trkpt lat="45.15768" lon="5.93585">
        <ele>1983.2</ele>
        <time>2020-08-11T11:04:50Z</time>
      </trkpt>
      <trkpt lat="45.15767" lon="5.93581">
        <ele>1982.8</ele>
        <time>2020-08-11T11:04:51Z</time>
      </trkpt>
      <trkpt lat="45.15767" lon="5.93576">
        <ele>1982</ele>
        <time>2020-08-11T11:04:52Z</time>
      </trkpt>
      <trkpt lat="45.15767" lon="5.93576">
        <ele>1981.4</ele>
        <time>2020-08-11T11:04:53Z</time>
      </trkpt>
      <trkpt lat="45.15767" lon="5.93576">
        <ele>1981</ele>
        <time>2020-08-11T11:04:54Z</time>
      </trkpt>
      <trkpt lat="45.15766" lon="5.93571">
        <ele>1980.4</ele>
        <time>2020-08-11T11:04:55Z</time>
      </trkpt>
      <trkpt lat="45.15766" lon="5.93571">
        <ele>1980.2</ele>
        <time>2020-08-11T11:04:56Z</time>
      </trkpt>
      <trkpt lat="45.15766" lon="5.93566">
        <ele>1979.6</ele>
        <time>2020-08-11T11:04:57Z</time>
      </trkpt>
      <trkpt lat="45.15766" lon="5.93566">
        <ele>1978.8</ele>
        <time>2020-08-11T11:04:58Z</time>
      </trkpt>
      <trkpt lat="45.15766" lon="5.93561">
        <ele>1979</ele>
        <time>2020-08-11T11:04:59Z</time>
      </trkpt>
      <trkpt lat="45.15766" lon="5.93558">
        <ele>1978.4</ele>
        <time>2020-08-11T11:05:00Z</time>
      </trkpt>
      <trkpt lat="45.15766" lon="5.93555">
        <ele>1977.8</ele>
        <time>2020-08-11T11:05:01Z</time>
      </trkpt>
      <trkpt lat="45.15765" lon="5.93552">
        <ele>1978</ele>
        <time>2020-08-11T11:05:02Z</time>
      </trkpt>
      <trkpt lat="45.15763" lon="5.93551">
        <ele>1977.8</ele>
        <time>2020-08-11T11:05:03Z</time>
      </trkpt>
      <trkpt lat="45.15761" lon="5.93549">
        <ele>1977.4</ele>
        <time>2020-08-11T11:05:04Z</time>
      </trkpt>
      <trkpt lat="45.15761" lon="5.93549">
        <ele>1977.4</ele>
        <time>2020-08-11T11:05:05Z</time>
      </trkpt>
      <trkpt lat="45.1576" lon="5.93547">
        <ele>1976.6</ele>
        <time>2020-08-11T11:05:06Z</time>
      </trkpt>
      <trkpt lat="45.15757" lon="5.93545">
        <ele>1976.2</ele>
        <time>2020-08-11T11:05:07Z</time>
      </trkpt>
      <trkpt lat="45.15754" lon="5.93541">
        <ele>1975.6</ele>
        <time>2020-08-11T11:05:08Z</time>
      </trkpt>
      <trkpt lat="45.15754" lon="5.93541">
        <ele>1975</ele>
        <time>2020-08-11T11:05:09Z</time>
      </trkpt>
      <trkpt lat="45.15751" lon="5.93538">
        <ele>1975</ele>
        <time>2020-08-11T11:05:10Z</time>
      </trkpt>
      <trkpt lat="45.15751" lon="5.93538">
        <ele>1974.6</ele>
        <time>2020-08-11T11:05:11Z</time>
      </trkpt>
      <trkpt lat="45.15749" lon="5.93535">
        <ele>1974</ele>
        <time>2020-08-11T11:05:12Z</time>
      </trkpt>
      <trkpt lat="45.15749" lon="5.93535">
        <ele>1973.6</ele>
        <time>2020-08-11T11:05:13Z</time>
      </trkpt>
      <trkpt lat="45.15749" lon="5.93535">
        <ele>1972.6</ele>
        <time>2020-08-11T11:05:14Z</time>
      </trkpt>
      <trkpt lat="45.15747" lon="5.93533">
        <ele>1972.8</ele>
        <time>2020-08-11T11:05:15Z</time>
      </trkpt>
      <trkpt lat="45.15745" lon="5.93531">
        <ele>1972</ele>
        <time>2020-08-11T11:05:16Z</time>
      </trkpt>
      <trkpt lat="45.15743" lon="5.93528">
        <ele>1971.6</ele>
        <time>2020-08-11T11:05:17Z</time>
      </trkpt>
      <trkpt lat="45.15742" lon="5.93526">
        <ele>1971</ele>
        <time>2020-08-11T11:05:18Z</time>
      </trkpt>
      <trkpt lat="45.1574" lon="5.93524">
        <ele>1970.4</ele>
        <time>2020-08-11T11:05:19Z</time>
      </trkpt>
      <trkpt lat="45.15739" lon="5.93522">
        <ele>1970.4</ele>
        <time>2020-08-11T11:05:20Z</time>
      </trkpt>
      <trkpt lat="45.15739" lon="5.93522">
        <ele>1970.4</ele>
        <time>2020-08-11T11:05:21Z</time>
      </trkpt>
      <trkpt lat="45.15739" lon="5.93519">
        <ele>1970.2</ele>
        <time>2020-08-11T11:05:22Z</time>
      </trkpt>
      <trkpt lat="45.15737" lon="5.93516">
        <ele>1970</ele>
        <time>2020-08-11T11:05:23Z</time>
      </trkpt>
      <trkpt lat="45.15736" lon="5.93513">
        <ele>1969.4</ele>
        <time>2020-08-11T11:05:24Z</time>
      </trkpt>
      <trkpt lat="45.15736" lon="5.93513">
        <ele>1969</ele>
        <time>2020-08-11T11:05:25Z</time>
      </trkpt>
      <trkpt lat="45.15734" lon="5.9351">
        <ele>1968.8</ele>
        <time>2020-08-11T11:05:26Z</time>
      </trkpt>
      <trkpt lat="45.15732" lon="5.93508">
        <ele>1968.6</ele>
        <time>2020-08-11T11:05:27Z</time>
      </trkpt>
      <trkpt lat="45.1573" lon="5.93506">
        <ele>1968.8</ele>
        <time>2020-08-11T11:05:28Z</time>
      </trkpt>
      <trkpt lat="45.15728" lon="5.93503">
        <ele>1968.4</ele>
        <time>2020-08-11T11:05:29Z</time>
      </trkpt>
      <trkpt lat="45.15724" lon="5.93498">
        <ele>1968.4</ele>
        <time>2020-08-11T11:05:30Z</time>
      </trkpt>
      <trkpt lat="45.15724" lon="5.93498">
        <ele>1968</ele>
        <time>2020-08-11T11:05:31Z</time>
      </trkpt>
      <trkpt lat="45.15723" lon="5.93495">
        <ele>1967.8</ele>
        <time>2020-08-11T11:05:32Z</time>
      </trkpt>
      <trkpt lat="45.15721" lon="5.93491">
        <ele>1967.4</ele>
        <time>2020-08-11T11:05:33Z</time>
      </trkpt>
      <trkpt lat="45.15718" lon="5.93485">
        <ele>1967.4</ele>
        <time>2020-08-11T11:05:34Z</time>
      </trkpt>
      <trkpt lat="45.15718" lon="5.93485">
        <ele>1967</ele>
        <time>2020-08-11T11:05:35Z</time>
      </trkpt>
      <trkpt lat="45.15716" lon="5.93482">
        <ele>1966.6</ele>
        <time>2020-08-11T11:05:36Z</time>
      </trkpt>
      <trkpt lat="45.15713" lon="5.93477">
        <ele>1966.4</ele>
        <time>2020-08-11T11:05:37Z</time>
      </trkpt>
      <trkpt lat="45.15711" lon="5.93474">
        <ele>1966</ele>
        <time>2020-08-11T11:05:38Z</time>
      </trkpt>
      <trkpt lat="45.15709" lon="5.93471">
        <ele>1966.4</ele>
        <time>2020-08-11T11:05:39Z</time>
      </trkpt>
      <trkpt lat="45.15709" lon="5.93471">
        <ele>1966.2</ele>
        <time>2020-08-11T11:05:40Z</time>
      </trkpt>
      <trkpt lat="45.15708" lon="5.93469">
        <ele>1966.4</ele>
        <time>2020-08-11T11:05:41Z</time>
      </trkpt>
      <trkpt lat="45.15705" lon="5.93466">
        <ele>1966.4</ele>
        <time>2020-08-11T11:05:42Z</time>
      </trkpt>
      <trkpt lat="45.15705" lon="5.93466">
        <ele>1966.8</ele>
        <time>2020-08-11T11:05:43Z</time>
      </trkpt>
      <trkpt lat="45.15705" lon="5.93466">
        <ele>1966.8</ele>
        <time>2020-08-11T11:05:44Z</time>
      </trkpt>
      <trkpt lat="45.15704" lon="5.93464">
        <ele>1966.6</ele>
        <time>2020-08-11T11:05:45Z</time>
      </trkpt>
      <trkpt lat="45.15704" lon="5.93464">
        <ele>1966</ele>
        <time>2020-08-11T11:05:46Z</time>
      </trkpt>
      <trkpt lat="45.15704" lon="5.93464">
        <ele>1965.8</ele>
        <time>2020-08-11T11:05:47Z</time>
      </trkpt>
      <trkpt lat="45.15704" lon="5.93464">
        <ele>1965.6</ele>
        <time>2020-08-11T11:05:48Z</time>
      </trkpt>
      <trkpt lat="45.15705" lon="5.93461">
        <ele>1965.6</ele>
        <time>2020-08-11T11:05:49Z</time>
      </trkpt>
      <trkpt lat="45.15705" lon="5.93461">
        <ele>1965.4</ele>
        <time>2020-08-11T11:05:50Z</time>
      </trkpt>
      <trkpt lat="45.15705" lon="5.93461">
        <ele>1965.4</ele>
        <time>2020-08-11T11:05:51Z</time>
      </trkpt>
      <trkpt lat="45.15705" lon="5.93461">
        <ele>1965.2</ele>
        <time>2020-08-11T11:05:52Z</time>
      </trkpt>
      <trkpt lat="45.15706" lon="5.93459">
        <ele>1965.2</ele>
        <time>2020-08-11T11:05:53Z</time>
      </trkpt>
      <trkpt lat="45.15706" lon="5.93459">
        <ele>1965.2</ele>
        <time>2020-08-11T11:05:54Z</time>
      </trkpt>
      <trkpt lat="45.15706" lon="5.93459">
        <ele>1965</ele>
        <time>2020-08-11T11:05:55Z</time>
      </trkpt>
      <trkpt lat="45.15706" lon="5.93459">
        <ele>1965.4</ele>
        <time>2020-08-11T11:05:56Z</time>
      </trkpt>
      <trkpt lat="45.15703" lon="5.93458">
        <ele>1965.6</ele>
        <time>2020-08-11T11:05:57Z</time>
      </trkpt>
      <trkpt lat="45.15702" lon="5.93458">
        <ele>1966</ele>
        <time>2020-08-11T11:05:58Z</time>
      </trkpt>
      <trkpt lat="45.15702" lon="5.93458">
        <ele>1966</ele>
        <time>2020-08-11T11:05:59Z</time>
      </trkpt>
      <trkpt lat="45.15702" lon="5.93458">
        <ele>1965.8</ele>
        <time>2020-08-11T11:06:00Z</time>
      </trkpt>
      <trkpt lat="45.15702" lon="5.93458">
        <ele>1965.6</ele>
        <time>2020-08-11T11:06:01Z</time>
      </trkpt>
      <trkpt lat="45.157" lon="5.93458">
        <ele>1965.6</ele>
        <time>2020-08-11T11:06:02Z</time>
      </trkpt>
      <trkpt lat="45.157" lon="5.93458">
        <ele>1965.6</ele>
        <time>2020-08-11T11:06:03Z</time>
      </trkpt>
      <trkpt lat="45.157" lon="5.93458">
        <ele>1965.4</ele>
        <time>2020-08-11T11:06:04Z</time>
      </trkpt>
      <trkpt lat="45.157" lon="5.93458">
        <ele>1965.2</ele>
        <time>2020-08-11T11:06:05Z</time>
      </trkpt>
      <trkpt lat="45.157" lon="5.93458">
        <ele>1965</ele>
        <time>2020-08-11T11:06:06Z</time>
      </trkpt>
      <trkpt lat="45.15698" lon="5.93457">
        <ele>1964.8</ele>
        <time>2020-08-11T11:06:07Z</time>
      </trkpt>
      <trkpt lat="45.15698" lon="5.93457">
        <ele>1964.8</ele>
        <time>2020-08-11T11:06:08Z</time>
      </trkpt>
      <trkpt lat="45.15698" lon="5.93457">
        <ele>1965.2</ele>
        <time>2020-08-11T11:06:09Z</time>
      </trkpt>
      <trkpt lat="45.15695" lon="5.93458">
        <ele>1965.2</ele>
        <time>2020-08-11T11:06:10Z</time>
      </trkpt>
      <trkpt lat="45.15695" lon="5.93458">
        <ele>1965.2</ele>
        <time>2020-08-11T11:06:11Z</time>
      </trkpt>
      <trkpt lat="45.15695" lon="5.93458">
        <ele>1965</ele>
        <time>2020-08-11T11:06:12Z</time>
      </trkpt>
      <trkpt lat="45.15693" lon="5.93458">
        <ele>1965</ele>
        <time>2020-08-11T11:06:13Z</time>
      </trkpt>
      <trkpt lat="45.15693" lon="5.93458">
        <ele>1964.6</ele>
        <time>2020-08-11T11:06:14Z</time>
      </trkpt>
      <trkpt lat="45.15691" lon="5.93456">
        <ele>1964.2</ele>
        <time>2020-08-11T11:06:15Z</time>
      </trkpt>
      <trkpt lat="45.15689" lon="5.93454">
        <ele>1964.2</ele>
        <time>2020-08-11T11:06:16Z</time>
      </trkpt>
      <trkpt lat="45.15687" lon="5.93452">
        <ele>1964</ele>
        <time>2020-08-11T11:06:17Z</time>
      </trkpt>
      <trkpt lat="45.15686" lon="5.93451">
        <ele>1963.6</ele>
        <time>2020-08-11T11:06:18Z</time>
      </trkpt>
      <trkpt lat="45.15686" lon="5.93451">
        <ele>1963.2</ele>
        <time>2020-08-11T11:06:19Z</time>
      </trkpt>
      <trkpt lat="45.15685" lon="5.93448">
        <ele>1963.4</ele>
        <time>2020-08-11T11:06:20Z</time>
      </trkpt>
      <trkpt lat="45.15684" lon="5.93446">
        <ele>1963.4</ele>
        <time>2020-08-11T11:06:21Z</time>
      </trkpt>
      <trkpt lat="45.15683" lon="5.93445">
        <ele>1963.2</ele>
        <time>2020-08-11T11:06:22Z</time>
      </trkpt>
      <trkpt lat="45.15681" lon="5.93443">
        <ele>1963</ele>
        <time>2020-08-11T11:06:23Z</time>
      </trkpt>
      <trkpt lat="45.1568" lon="5.93442">
        <ele>1963.2</ele>
        <time>2020-08-11T11:06:24Z</time>
      </trkpt>
      <trkpt lat="45.15678" lon="5.9344">
        <ele>1963.2</ele>
        <time>2020-08-11T11:06:25Z</time>
      </trkpt>
      <trkpt lat="45.15678" lon="5.9344">
        <ele>1963.8</ele>
        <time>2020-08-11T11:06:26Z</time>
      </trkpt>
      <trkpt lat="45.15676" lon="5.93439">
        <ele>1963.6</ele>
        <time>2020-08-11T11:06:27Z</time>
      </trkpt>
      <trkpt lat="45.15672" lon="5.93436">
        <ele>1963.6</ele>
        <time>2020-08-11T11:06:28Z</time>
      </trkpt>
      <trkpt lat="45.1567" lon="5.93433">
        <ele>1963.2</ele>
        <time>2020-08-11T11:06:29Z</time>
      </trkpt>
      <trkpt lat="45.1567" lon="5.93433">
        <ele>1963</ele>
        <time>2020-08-11T11:06:30Z</time>
      </trkpt>
      <trkpt lat="45.15668" lon="5.93432">
        <ele>1963.2</ele>
        <time>2020-08-11T11:06:31Z</time>
      </trkpt>
      <trkpt lat="45.15667" lon="5.93431">
        <ele>1963</ele>
        <time>2020-08-11T11:06:32Z</time>
      </trkpt>
      <trkpt lat="45.15667" lon="5.93431">
        <ele>1962.8</ele>
        <time>2020-08-11T11:06:33Z</time>
      </trkpt>
      <trkpt lat="45.15664" lon="5.93429">
        <ele>1962.2</ele>
        <time>2020-08-11T11:06:34Z</time>
      </trkpt>
      <trkpt lat="45.15661" lon="5.93427">
        <ele>1962</ele>
        <time>2020-08-11T11:06:35Z</time>
      </trkpt>
      <trkpt lat="45.15661" lon="5.93427">
        <ele>1961.6</ele>
        <time>2020-08-11T11:06:36Z</time>
      </trkpt>
      <trkpt lat="45.15661" lon="5.93427">
        <ele>1962</ele>
        <time>2020-08-11T11:06:37Z</time>
      </trkpt>
      <trkpt lat="45.15659" lon="5.93425">
        <ele>1961.8</ele>
        <time>2020-08-11T11:06:38Z</time>
      </trkpt>
      <trkpt lat="45.15659" lon="5.93425">
        <ele>1961.8</ele>
        <time>2020-08-11T11:06:39Z</time>
      </trkpt>
      <trkpt lat="45.15656" lon="5.93423">
        <ele>1961</ele>
        <time>2020-08-11T11:06:40Z</time>
      </trkpt>
      <trkpt lat="45.15653" lon="5.93421">
        <ele>1960.8</ele>
        <time>2020-08-11T11:06:41Z</time>
      </trkpt>
      <trkpt lat="45.15653" lon="5.93421">
        <ele>1961</ele>
        <time>2020-08-11T11:06:42Z</time>
      </trkpt>
      <trkpt lat="45.15651" lon="5.93418">
        <ele>1960.2</ele>
        <time>2020-08-11T11:06:43Z</time>
      </trkpt>
      <trkpt lat="45.1565" lon="5.93416">
        <ele>1960.2</ele>
        <time>2020-08-11T11:06:44Z</time>
      </trkpt>
      <trkpt lat="45.15649" lon="5.93414">
        <ele>1960</ele>
        <time>2020-08-11T11:06:45Z</time>
      </trkpt>
      <trkpt lat="45.15649" lon="5.93414">
        <ele>1959.8</ele>
        <time>2020-08-11T11:06:46Z</time>
      </trkpt>
      <trkpt lat="45.15647" lon="5.93411">
        <ele>1960</ele>
        <time>2020-08-11T11:06:47Z</time>
      </trkpt>
      <trkpt lat="45.15647" lon="5.93411">
        <ele>1960</ele>
        <time>2020-08-11T11:06:48Z</time>
      </trkpt>
      <trkpt lat="45.15644" lon="5.93408">
        <ele>1959.4</ele>
        <time>2020-08-11T11:06:49Z</time>
      </trkpt>
      <trkpt lat="45.15642" lon="5.93406">
        <ele>1959.8</ele>
        <time>2020-08-11T11:06:50Z</time>
      </trkpt>
      <trkpt lat="45.1564" lon="5.93404">
        <ele>1960</ele>
        <time>2020-08-11T11:06:51Z</time>
      </trkpt>
      <trkpt lat="45.1564" lon="5.93404">
        <ele>1959.8</ele>
        <time>2020-08-11T11:06:52Z</time>
      </trkpt>
      <trkpt lat="45.15638" lon="5.93402">
        <ele>1959.2</ele>
        <time>2020-08-11T11:06:53Z</time>
      </trkpt>
      <trkpt lat="45.15638" lon="5.93402">
        <ele>1959</ele>
        <time>2020-08-11T11:06:54Z</time>
      </trkpt>
      <trkpt lat="45.15636" lon="5.93401">
        <ele>1959</ele>
        <time>2020-08-11T11:06:55Z</time>
      </trkpt>
      <trkpt lat="45.15636" lon="5.93401">
        <ele>1958.6</ele>
        <time>2020-08-11T11:06:56Z</time>
      </trkpt>
      <trkpt lat="45.15633" lon="5.93399">
        <ele>1958.4</ele>
        <time>2020-08-11T11:06:57Z</time>
      </trkpt>
      <trkpt lat="45.15633" lon="5.93399">
        <ele>1958</ele>
        <time>2020-08-11T11:06:58Z</time>
      </trkpt>
      <trkpt lat="45.1563" lon="5.93396">
        <ele>1958</ele>
        <time>2020-08-11T11:06:59Z</time>
      </trkpt>
      <trkpt lat="45.15628" lon="5.93393">
        <ele>1957.4</ele>
        <time>2020-08-11T11:07:00Z</time>
      </trkpt>
      <trkpt lat="45.15628" lon="5.93393">
        <ele>1957</ele>
        <time>2020-08-11T11:07:01Z</time>
      </trkpt>
      <trkpt lat="45.15626" lon="5.93391">
        <ele>1956.8</ele>
        <time>2020-08-11T11:07:02Z</time>
      </trkpt>
      <trkpt lat="45.15626" lon="5.93391">
        <ele>1956.4</ele>
        <time>2020-08-11T11:07:03Z</time>
      </trkpt>
      <trkpt lat="45.15626" lon="5.93391">
        <ele>1956.2</ele>
        <time>2020-08-11T11:07:04Z</time>
      </trkpt>
      <trkpt lat="45.15626" lon="5.93391">
        <ele>1956</ele>
        <time>2020-08-11T11:07:05Z</time>
      </trkpt>
      <trkpt lat="45.15626" lon="5.93391">
        <ele>1955.6</ele>
        <time>2020-08-11T11:07:06Z</time>
      </trkpt>
      <trkpt lat="45.15626" lon="5.93391">
        <ele>1955.6</ele>
        <time>2020-08-11T11:07:07Z</time>
      </trkpt>
      <trkpt lat="45.15626" lon="5.93391">
        <ele>1955.4</ele>
        <time>2020-08-11T11:07:08Z</time>
      </trkpt>
      <trkpt lat="45.15626" lon="5.93391">
        <ele>1955.4</ele>
        <time>2020-08-11T11:07:09Z</time>
      </trkpt>
      <trkpt lat="45.15626" lon="5.93391">
        <ele>1955.4</ele>
        <time>2020-08-11T11:07:10Z</time>
      </trkpt>
      <trkpt lat="45.15626" lon="5.93391">
        <ele>1955.2</ele>
        <time>2020-08-11T11:07:11Z</time>
      </trkpt>
      <trkpt lat="45.15626" lon="5.93391">
        <ele>1955.4</ele>
        <time>2020-08-11T11:07:12Z</time>
      </trkpt>
      <trkpt lat="45.15626" lon="5.93391">
        <ele>1955.4</ele>
        <time>2020-08-11T11:07:13Z</time>
      </trkpt>
      <trkpt lat="45.15625" lon="5.93389">
        <ele>1955.6</ele>
        <time>2020-08-11T11:07:14Z</time>
      </trkpt>
      <trkpt lat="45.15625" lon="5.93389">
        <ele>1955.6</ele>
        <time>2020-08-11T11:07:15Z</time>
      </trkpt>
      <trkpt lat="45.15623" lon="5.93388">
        <ele>1955.4</ele>
        <time>2020-08-11T11:07:16Z</time>
      </trkpt>
      <trkpt lat="45.15623" lon="5.93388">
        <ele>1955.2</ele>
        <time>2020-08-11T11:07:17Z</time>
      </trkpt>
      <trkpt lat="45.15623" lon="5.93388">
        <ele>1954.8</ele>
        <time>2020-08-11T11:07:18Z</time>
      </trkpt>
      <trkpt lat="45.15623" lon="5.93388">
        <ele>1954.6</ele>
        <time>2020-08-11T11:07:19Z</time>
      </trkpt>
      <trkpt lat="45.15621" lon="5.93387">
        <ele>1954.4</ele>
        <time>2020-08-11T11:07:20Z</time>
      </trkpt>
      <trkpt lat="45.15621" lon="5.93387">
        <ele>1953.4</ele>
        <time>2020-08-11T11:07:21Z</time>
      </trkpt>
      <trkpt lat="45.15621" lon="5.93387">
        <ele>1953.4</ele>
        <time>2020-08-11T11:07:22Z</time>
      </trkpt>
      <trkpt lat="45.1562" lon="5.93383">
        <ele>1953</ele>
        <time>2020-08-11T11:07:23Z</time>
      </trkpt>
      <trkpt lat="45.15618" lon="5.9338">
        <ele>1952.2</ele>
        <time>2020-08-11T11:07:24Z</time>
      </trkpt>
      <trkpt lat="45.15618" lon="5.9338">
        <ele>1951.4</ele>
        <time>2020-08-11T11:07:25Z</time>
      </trkpt>
      <trkpt lat="45.15618" lon="5.9338">
        <ele>1950.8</ele>
        <time>2020-08-11T11:07:26Z</time>
      </trkpt>
      <trkpt lat="45.15617" lon="5.93378">
        <ele>1950.4</ele>
        <time>2020-08-11T11:07:27Z</time>
      </trkpt>
      <trkpt lat="45.15617" lon="5.93378">
        <ele>1950.2</ele>
        <time>2020-08-11T11:07:28Z</time>
      </trkpt>
      <trkpt lat="45.15615" lon="5.93376">
        <ele>1949.6</ele>
        <time>2020-08-11T11:07:29Z</time>
      </trkpt>
      <trkpt lat="45.15612" lon="5.93374">
        <ele>1948.8</ele>
        <time>2020-08-11T11:07:30Z</time>
      </trkpt>
      <trkpt lat="45.15612" lon="5.93374">
        <ele>1948.8</ele>
        <time>2020-08-11T11:07:31Z</time>
      </trkpt>
      <trkpt lat="45.15612" lon="5.93374">
        <ele>1948.6</ele>
        <time>2020-08-11T11:07:32Z</time>
      </trkpt>
      <trkpt lat="45.1561" lon="5.93371">
        <ele>1948</ele>
        <time>2020-08-11T11:07:33Z</time>
      </trkpt>
      <trkpt lat="45.1561" lon="5.93371">
        <ele>1947.6</ele>
        <time>2020-08-11T11:07:34Z</time>
      </trkpt>
      <trkpt lat="45.1561" lon="5.93371">
        <ele>1947</ele>
        <time>2020-08-11T11:07:35Z</time>
      </trkpt>
      <trkpt lat="45.15608" lon="5.93369">
        <ele>1946.6</ele>
        <time>2020-08-11T11:07:36Z</time>
      </trkpt>
      <trkpt lat="45.15608" lon="5.93369">
        <ele>1946</ele>
        <time>2020-08-11T11:07:37Z</time>
      </trkpt>
      <trkpt lat="45.15605" lon="5.93367">
        <ele>1946.2</ele>
        <time>2020-08-11T11:07:38Z</time>
      </trkpt>
      <trkpt lat="45.15605" lon="5.93367">
        <ele>1945.6</ele>
        <time>2020-08-11T11:07:39Z</time>
      </trkpt>
      <trkpt lat="45.15605" lon="5.93367">
        <ele>1945.4</ele>
        <time>2020-08-11T11:07:40Z</time>
      </trkpt>
      <trkpt lat="45.15603" lon="5.93365">
        <ele>1944.8</ele>
        <time>2020-08-11T11:07:41Z</time>
      </trkpt>
      <trkpt lat="45.15603" lon="5.93365">
        <ele>1945</ele>
        <time>2020-08-11T11:07:42Z</time>
      </trkpt>
      <trkpt lat="45.15601" lon="5.93362">
        <ele>1944.4</ele>
        <time>2020-08-11T11:07:43Z</time>
      </trkpt>
      <trkpt lat="45.15601" lon="5.93362">
        <ele>1944.2</ele>
        <time>2020-08-11T11:07:44Z</time>
      </trkpt>
      <trkpt lat="45.15601" lon="5.93362">
        <ele>1943.8</ele>
        <time>2020-08-11T11:07:45Z</time>
      </trkpt>
      <trkpt lat="45.156" lon="5.93359">
        <ele>1943.6</ele>
        <time>2020-08-11T11:07:46Z</time>
      </trkpt>
      <trkpt lat="45.156" lon="5.93359">
        <ele>1943.2</ele>
        <time>2020-08-11T11:07:47Z</time>
      </trkpt>
      <trkpt lat="45.156" lon="5.93359">
        <ele>1943</ele>
        <time>2020-08-11T11:07:48Z</time>
      </trkpt>
      <trkpt lat="45.15598" lon="5.93355">
        <ele>1942.2</ele>
        <time>2020-08-11T11:07:49Z</time>
      </trkpt>
      <trkpt lat="45.15598" lon="5.93355">
        <ele>1941.8</ele>
        <time>2020-08-11T11:07:50Z</time>
      </trkpt>
      <trkpt lat="45.15597" lon="5.93352">
        <ele>1941.4</ele>
        <time>2020-08-11T11:07:51Z</time>
      </trkpt>
      <trkpt lat="45.15597" lon="5.93352">
        <ele>1941</ele>
        <time>2020-08-11T11:07:52Z</time>
      </trkpt>
      <trkpt lat="45.15597" lon="5.93349">
        <ele>1940.8</ele>
        <time>2020-08-11T11:07:53Z</time>
      </trkpt>
      <trkpt lat="45.15597" lon="5.93349">
        <ele>1940.2</ele>
        <time>2020-08-11T11:07:54Z</time>
      </trkpt>
      <trkpt lat="45.15596" lon="5.93346">
        <ele>1940.2</ele>
        <time>2020-08-11T11:07:55Z</time>
      </trkpt>
      <trkpt lat="45.15596" lon="5.93346">
        <ele>1939.6</ele>
        <time>2020-08-11T11:07:56Z</time>
      </trkpt>
      <trkpt lat="45.15594" lon="5.93343">
        <ele>1939.2</ele>
        <time>2020-08-11T11:07:57Z</time>
      </trkpt>
      <trkpt lat="45.15594" lon="5.93343">
        <ele>1938.8</ele>
        <time>2020-08-11T11:07:58Z</time>
      </trkpt>
      <trkpt lat="45.15592" lon="5.9334">
        <ele>1938.8</ele>
        <time>2020-08-11T11:07:59Z</time>
      </trkpt>
      <trkpt lat="45.15592" lon="5.9334">
        <ele>1938.4</ele>
        <time>2020-08-11T11:08:00Z</time>
      </trkpt>
      <trkpt lat="45.1559" lon="5.93338">
        <ele>1937.6</ele>
        <time>2020-08-11T11:08:01Z</time>
      </trkpt>
      <trkpt lat="45.1559" lon="5.93338">
        <ele>1937.4</ele>
        <time>2020-08-11T11:08:02Z</time>
      </trkpt>
      <trkpt lat="45.15588" lon="5.93336">
        <ele>1936.8</ele>
        <time>2020-08-11T11:08:03Z</time>
      </trkpt>
      <trkpt lat="45.15588" lon="5.93336">
        <ele>1936.8</ele>
        <time>2020-08-11T11:08:04Z</time>
      </trkpt>
      <trkpt lat="45.15587" lon="5.93332">
        <ele>1935.6</ele>
        <time>2020-08-11T11:08:05Z</time>
      </trkpt>
      <trkpt lat="45.15587" lon="5.93332">
        <ele>1935.4</ele>
        <time>2020-08-11T11:08:06Z</time>
      </trkpt>
      <trkpt lat="45.15585" lon="5.9333">
        <ele>1935.4</ele>
        <time>2020-08-11T11:08:07Z</time>
      </trkpt>
      <trkpt lat="45.15585" lon="5.9333">
        <ele>1934.6</ele>
        <time>2020-08-11T11:08:08Z</time>
      </trkpt>
      <trkpt lat="45.15584" lon="5.93328">
        <ele>1934.2</ele>
        <time>2020-08-11T11:08:09Z</time>
      </trkpt>
      <trkpt lat="45.15584" lon="5.93328">
        <ele>1934</ele>
        <time>2020-08-11T11:08:10Z</time>
      </trkpt>
      <trkpt lat="45.15582" lon="5.93326">
        <ele>1933.2</ele>
        <time>2020-08-11T11:08:11Z</time>
      </trkpt>
      <trkpt lat="45.15582" lon="5.93326">
        <ele>1932.8</ele>
        <time>2020-08-11T11:08:12Z</time>
      </trkpt>
      <trkpt lat="45.15582" lon="5.93326">
        <ele>1932.4</ele>
        <time>2020-08-11T11:08:13Z</time>
      </trkpt>
      <trkpt lat="45.15581" lon="5.93324">
        <ele>1932.2</ele>
        <time>2020-08-11T11:08:14Z</time>
      </trkpt>
      <trkpt lat="45.15581" lon="5.93324">
        <ele>1931.8</ele>
        <time>2020-08-11T11:08:15Z</time>
      </trkpt>
      <trkpt lat="45.15578" lon="5.93322">
        <ele>1931.4</ele>
        <time>2020-08-11T11:08:16Z</time>
      </trkpt>
      <trkpt lat="45.15578" lon="5.93322">
        <ele>1931.4</ele>
        <time>2020-08-11T11:08:17Z</time>
      </trkpt>
      <trkpt lat="45.15578" lon="5.93322">
        <ele>1930.4</ele>
        <time>2020-08-11T11:08:18Z</time>
      </trkpt>
      <trkpt lat="45.15577" lon="5.93319">
        <ele>1930.2</ele>
        <time>2020-08-11T11:08:19Z</time>
      </trkpt>
      <trkpt lat="45.15575" lon="5.93317">
        <ele>1929.8</ele>
        <time>2020-08-11T11:08:20Z</time>
      </trkpt>
      <trkpt lat="45.15575" lon="5.93317">
        <ele>1929.6</ele>
        <time>2020-08-11T11:08:21Z</time>
      </trkpt>
      <trkpt lat="45.15575" lon="5.93317">
        <ele>1929</ele>
        <time>2020-08-11T11:08:22Z</time>
      </trkpt>
      <trkpt lat="45.15575" lon="5.93317">
        <ele>1928.8</ele>
        <time>2020-08-11T11:08:23Z</time>
      </trkpt>
      <trkpt lat="45.15574" lon="5.93315">
        <ele>1928.4</ele>
        <time>2020-08-11T11:08:24Z</time>
      </trkpt>
      <trkpt lat="45.15574" lon="5.93315">
        <ele>1928.4</ele>
        <time>2020-08-11T11:08:25Z</time>
      </trkpt>
      <trkpt lat="45.15572" lon="5.93313">
        <ele>1928</ele>
        <time>2020-08-11T11:08:26Z</time>
      </trkpt>
      <trkpt lat="45.15571" lon="5.93312">
        <ele>1927.8</ele>
        <time>2020-08-11T11:08:27Z</time>
      </trkpt>
      <trkpt lat="45.15571" lon="5.93312">
        <ele>1927.2</ele>
        <time>2020-08-11T11:08:28Z</time>
      </trkpt>
      <trkpt lat="45.15571" lon="5.93312">
        <ele>1927.2</ele>
        <time>2020-08-11T11:08:29Z</time>
      </trkpt>
      <trkpt lat="45.15569" lon="5.93311">
        <ele>1926.6</ele>
        <time>2020-08-11T11:08:30Z</time>
      </trkpt>
      <trkpt lat="45.15569" lon="5.93311">
        <ele>1926.6</ele>
        <time>2020-08-11T11:08:31Z</time>
      </trkpt>
      <trkpt lat="45.15569" lon="5.93311">
        <ele>1925.8</ele>
        <time>2020-08-11T11:08:32Z</time>
      </trkpt>
      <trkpt lat="45.15567" lon="5.9331">
        <ele>1925.6</ele>
        <time>2020-08-11T11:08:33Z</time>
      </trkpt>
      <trkpt lat="45.15565" lon="5.93309">
        <ele>1925.2</ele>
        <time>2020-08-11T11:08:34Z</time>
      </trkpt>
      <trkpt lat="45.15565" lon="5.93309">
        <ele>1924.4</ele>
        <time>2020-08-11T11:08:35Z</time>
      </trkpt>
      <trkpt lat="45.15565" lon="5.93309">
        <ele>1923.6</ele>
        <time>2020-08-11T11:08:36Z</time>
      </trkpt>
      <trkpt lat="45.15563" lon="5.93308">
        <ele>1923.4</ele>
        <time>2020-08-11T11:08:37Z</time>
      </trkpt>
      <trkpt lat="45.15563" lon="5.93308">
        <ele>1923.2</ele>
        <time>2020-08-11T11:08:38Z</time>
      </trkpt>
      <trkpt lat="45.15561" lon="5.93306">
        <ele>1923</ele>
        <time>2020-08-11T11:08:39Z</time>
      </trkpt>
      <trkpt lat="45.15561" lon="5.93306">
        <ele>1922.6</ele>
        <time>2020-08-11T11:08:40Z</time>
      </trkpt>
      <trkpt lat="45.1556" lon="5.93305">
        <ele>1922</ele>
        <time>2020-08-11T11:08:41Z</time>
      </trkpt>
      <trkpt lat="45.1556" lon="5.93305">
        <ele>1921.8</ele>
        <time>2020-08-11T11:08:42Z</time>
      </trkpt>
      <trkpt lat="45.15558" lon="5.93303">
        <ele>1921.4</ele>
        <time>2020-08-11T11:08:43Z</time>
      </trkpt>
      <trkpt lat="45.15558" lon="5.93303">
        <ele>1921</ele>
        <time>2020-08-11T11:08:44Z</time>
      </trkpt>
      <trkpt lat="45.15555" lon="5.93302">
        <ele>1920.8</ele>
        <time>2020-08-11T11:08:45Z</time>
      </trkpt>
      <trkpt lat="45.15555" lon="5.93302">
        <ele>1920.4</ele>
        <time>2020-08-11T11:08:46Z</time>
      </trkpt>
      <trkpt lat="45.15553" lon="5.93302">
        <ele>1920.2</ele>
        <time>2020-08-11T11:08:47Z</time>
      </trkpt>
      <trkpt lat="45.1555" lon="5.93302">
        <ele>1919.8</ele>
        <time>2020-08-11T11:08:48Z</time>
      </trkpt>
      <trkpt lat="45.1555" lon="5.93302">
        <ele>1919.4</ele>
        <time>2020-08-11T11:08:49Z</time>
      </trkpt>
      <trkpt lat="45.1555" lon="5.93302">
        <ele>1919</ele>
        <time>2020-08-11T11:08:50Z</time>
      </trkpt>
      <trkpt lat="45.15548" lon="5.933">
        <ele>1918.6</ele>
        <time>2020-08-11T11:08:51Z</time>
      </trkpt>
      <trkpt lat="45.15546" lon="5.93299">
        <ele>1918.2</ele>
        <time>2020-08-11T11:08:52Z</time>
      </trkpt>
      <trkpt lat="45.15546" lon="5.93299">
        <ele>1918</ele>
        <time>2020-08-11T11:08:53Z</time>
      </trkpt>
      <trkpt lat="45.15546" lon="5.93299">
        <ele>1917</ele>
        <time>2020-08-11T11:08:54Z</time>
      </trkpt>
      <trkpt lat="45.15544" lon="5.93296">
        <ele>1917.2</ele>
        <time>2020-08-11T11:08:55Z</time>
      </trkpt>
      <trkpt lat="45.15542" lon="5.93294">
        <ele>1917</ele>
        <time>2020-08-11T11:08:56Z</time>
      </trkpt>
      <trkpt lat="45.15541" lon="5.93292">
        <ele>1917.2</ele>
        <time>2020-08-11T11:08:57Z</time>
      </trkpt>
      <trkpt lat="45.1554" lon="5.93291">
        <ele>1917</ele>
        <time>2020-08-11T11:08:58Z</time>
      </trkpt>
      <trkpt lat="45.15539" lon="5.9329">
        <ele>1917.2</ele>
        <time>2020-08-11T11:08:59Z</time>
      </trkpt>
      <trkpt lat="45.15539" lon="5.9329">
        <ele>1916.8</ele>
        <time>2020-08-11T11:09:00Z</time>
      </trkpt>
      <trkpt lat="45.15537" lon="5.93287">
        <ele>1916.8</ele>
        <time>2020-08-11T11:09:01Z</time>
      </trkpt>
      <trkpt lat="45.15537" lon="5.93287">
        <ele>1916.6</ele>
        <time>2020-08-11T11:09:02Z</time>
      </trkpt>
      <trkpt lat="45.15536" lon="5.93285">
        <ele>1916.2</ele>
        <time>2020-08-11T11:09:03Z</time>
      </trkpt>
      <trkpt lat="45.15536" lon="5.93285">
        <ele>1916</ele>
        <time>2020-08-11T11:09:04Z</time>
      </trkpt>
      <trkpt lat="45.15536" lon="5.93285">
        <ele>1915.6</ele>
        <time>2020-08-11T11:09:05Z</time>
      </trkpt>
      <trkpt lat="45.15533" lon="5.93283">
        <ele>1915</ele>
        <time>2020-08-11T11:09:06Z</time>
      </trkpt>
      <trkpt lat="45.15531" lon="5.93282">
        <ele>1914.6</ele>
        <time>2020-08-11T11:09:07Z</time>
      </trkpt>
      <trkpt lat="45.15531" lon="5.93282">
        <ele>1914</ele>
        <time>2020-08-11T11:09:08Z</time>
      </trkpt>
      <trkpt lat="45.15531" lon="5.93282">
        <ele>1913.6</ele>
        <time>2020-08-11T11:09:09Z</time>
      </trkpt>
      <trkpt lat="45.15531" lon="5.93282">
        <ele>1912.8</ele>
        <time>2020-08-11T11:09:10Z</time>
      </trkpt>
      <trkpt lat="45.15529" lon="5.93282">
        <ele>1912.2</ele>
        <time>2020-08-11T11:09:11Z</time>
      </trkpt>
      <trkpt lat="45.15529" lon="5.93282">
        <ele>1911.6</ele>
        <time>2020-08-11T11:09:12Z</time>
      </trkpt>
      <trkpt lat="45.15527" lon="5.93281">
        <ele>1911.2</ele>
        <time>2020-08-11T11:09:13Z</time>
      </trkpt>
      <trkpt lat="45.15527" lon="5.93281">
        <ele>1911.4</ele>
        <time>2020-08-11T11:09:14Z</time>
      </trkpt>
      <trkpt lat="45.15527" lon="5.93281">
        <ele>1911.4</ele>
        <time>2020-08-11T11:09:15Z</time>
      </trkpt>
      <trkpt lat="45.15527" lon="5.93281">
        <ele>1911.2</ele>
        <time>2020-08-11T11:09:16Z</time>
      </trkpt>
      <trkpt lat="45.15525" lon="5.93281">
        <ele>1910.8</ele>
        <time>2020-08-11T11:09:17Z</time>
      </trkpt>
      <trkpt lat="45.15525" lon="5.93281">
        <ele>1910.6</ele>
        <time>2020-08-11T11:09:18Z</time>
      </trkpt>
      <trkpt lat="45.15525" lon="5.93281">
        <ele>1910.4</ele>
        <time>2020-08-11T11:09:19Z</time>
      </trkpt>
      <trkpt lat="45.15525" lon="5.93281">
        <ele>1910.4</ele>
        <time>2020-08-11T11:09:20Z</time>
      </trkpt>
      <trkpt lat="45.15525" lon="5.93281">
        <ele>1909.4</ele>
        <time>2020-08-11T11:09:21Z</time>
      </trkpt>
      <trkpt lat="45.15522" lon="5.9328">
        <ele>1909</ele>
        <time>2020-08-11T11:09:22Z</time>
      </trkpt>
      <trkpt lat="45.15522" lon="5.9328">
        <ele>1908.6</ele>
        <time>2020-08-11T11:09:23Z</time>
      </trkpt>
      <trkpt lat="45.15519" lon="5.93279">
        <ele>1908.4</ele>
        <time>2020-08-11T11:09:24Z</time>
      </trkpt>
      <trkpt lat="45.15519" lon="5.93279">
        <ele>1908</ele>
        <time>2020-08-11T11:09:25Z</time>
      </trkpt>
      <trkpt lat="45.15519" lon="5.93279">
        <ele>1907.6</ele>
        <time>2020-08-11T11:09:26Z</time>
      </trkpt>
      <trkpt lat="45.15517" lon="5.93277">
        <ele>1907</ele>
        <time>2020-08-11T11:09:27Z</time>
      </trkpt>
      <trkpt lat="45.15517" lon="5.93277">
        <ele>1906.6</ele>
        <time>2020-08-11T11:09:28Z</time>
      </trkpt>
      <trkpt lat="45.15515" lon="5.93275">
        <ele>1906</ele>
        <time>2020-08-11T11:09:29Z</time>
      </trkpt>
      <trkpt lat="45.15515" lon="5.93275">
        <ele>1905.8</ele>
        <time>2020-08-11T11:09:30Z</time>
      </trkpt>
      <trkpt lat="45.15515" lon="5.93275">
        <ele>1905.6</ele>
        <time>2020-08-11T11:09:31Z</time>
      </trkpt>
      <trkpt lat="45.15513" lon="5.93277">
        <ele>1905.2</ele>
        <time>2020-08-11T11:09:32Z</time>
      </trkpt>
      <trkpt lat="45.15511" lon="5.93279">
        <ele>1905</ele>
        <time>2020-08-11T11:09:33Z</time>
      </trkpt>
      <trkpt lat="45.15511" lon="5.93279">
        <ele>1904.6</ele>
        <time>2020-08-11T11:09:34Z</time>
      </trkpt>
      <trkpt lat="45.15508" lon="5.93281">
        <ele>1904.6</ele>
        <time>2020-08-11T11:09:35Z</time>
      </trkpt>
      <trkpt lat="45.15508" lon="5.93281">
        <ele>1904.2</ele>
        <time>2020-08-11T11:09:36Z</time>
      </trkpt>
      <trkpt lat="45.15505" lon="5.93281">
        <ele>1903.8</ele>
        <time>2020-08-11T11:09:37Z</time>
      </trkpt>
      <trkpt lat="45.15505" lon="5.93281">
        <ele>1903.4</ele>
        <time>2020-08-11T11:09:38Z</time>
      </trkpt>
      <trkpt lat="45.15505" lon="5.93281">
        <ele>1903</ele>
        <time>2020-08-11T11:09:39Z</time>
      </trkpt>
      <trkpt lat="45.15505" lon="5.93281">
        <ele>1903</ele>
        <time>2020-08-11T11:09:40Z</time>
      </trkpt>
      <trkpt lat="45.15503" lon="5.93281">
        <ele>1902.8</ele>
        <time>2020-08-11T11:09:41Z</time>
      </trkpt>
      <trkpt lat="45.15503" lon="5.93281">
        <ele>1902.2</ele>
        <time>2020-08-11T11:09:42Z</time>
      </trkpt>
      <trkpt lat="45.155" lon="5.93281">
        <ele>1902.2</ele>
        <time>2020-08-11T11:09:43Z</time>
      </trkpt>
      <trkpt lat="45.15498" lon="5.9328">
        <ele>1902</ele>
        <time>2020-08-11T11:09:44Z</time>
      </trkpt>
      <trkpt lat="45.15498" lon="5.9328">
        <ele>1901.8</ele>
        <time>2020-08-11T11:09:45Z</time>
      </trkpt>
      <trkpt lat="45.15498" lon="5.9328">
        <ele>1901.4</ele>
        <time>2020-08-11T11:09:46Z</time>
      </trkpt>
      <trkpt lat="45.15495" lon="5.9328">
        <ele>1901.2</ele>
        <time>2020-08-11T11:09:47Z</time>
      </trkpt>
      <trkpt lat="45.15494" lon="5.93279">
        <ele>1900.8</ele>
        <time>2020-08-11T11:09:48Z</time>
      </trkpt>
      <trkpt lat="45.15492" lon="5.93279">
        <ele>1900.4</ele>
        <time>2020-08-11T11:09:49Z</time>
      </trkpt>
      <trkpt lat="45.1549" lon="5.93279">
        <ele>1899.6</ele>
        <time>2020-08-11T11:09:50Z</time>
      </trkpt>
      <trkpt lat="45.1549" lon="5.93279">
        <ele>1899.2</ele>
        <time>2020-08-11T11:09:51Z</time>
      </trkpt>
      <trkpt lat="45.15487" lon="5.93278">
        <ele>1899</ele>
        <time>2020-08-11T11:09:52Z</time>
      </trkpt>
      <trkpt lat="45.15486" lon="5.93278">
        <ele>1898.6</ele>
        <time>2020-08-11T11:09:53Z</time>
      </trkpt>
      <trkpt lat="45.15484" lon="5.93279">
        <ele>1898.6</ele>
        <time>2020-08-11T11:09:54Z</time>
      </trkpt>
      <trkpt lat="45.15483" lon="5.93279">
        <ele>1898.2</ele>
        <time>2020-08-11T11:09:55Z</time>
      </trkpt>
      <trkpt lat="45.15483" lon="5.93279">
        <ele>1897.8</ele>
        <time>2020-08-11T11:09:56Z</time>
      </trkpt>
      <trkpt lat="45.1548" lon="5.9328">
        <ele>1897.4</ele>
        <time>2020-08-11T11:09:57Z</time>
      </trkpt>
      <trkpt lat="45.15478" lon="5.93281">
        <ele>1896.8</ele>
        <time>2020-08-11T11:09:58Z</time>
      </trkpt>
      <trkpt lat="45.15478" lon="5.93281">
        <ele>1896.2</ele>
        <time>2020-08-11T11:09:59Z</time>
      </trkpt>
      <trkpt lat="45.15476" lon="5.93281">
        <ele>1895.6</ele>
        <time>2020-08-11T11:10:01Z</time>
      </trkpt>
      <trkpt lat="45.15473" lon="5.93281">
        <ele>1895.2</ele>
        <time>2020-08-11T11:10:02Z</time>
      </trkpt>
      <trkpt lat="45.15471" lon="5.93282">
        <ele>1894.8</ele>
        <time>2020-08-11T11:10:03Z</time>
      </trkpt>
      <trkpt lat="45.15471" lon="5.93282">
        <ele>1894.8</ele>
        <time>2020-08-11T11:10:04Z</time>
      </trkpt>
      <trkpt lat="45.15471" lon="5.93282">
        <ele>1894.6</ele>
        <time>2020-08-11T11:10:05Z</time>
      </trkpt>
      <trkpt lat="45.15468" lon="5.93281">
        <ele>1894.4</ele>
        <time>2020-08-11T11:10:06Z</time>
      </trkpt>
      <trkpt lat="45.15468" lon="5.93281">
        <ele>1894</ele>
        <time>2020-08-11T11:10:07Z</time>
      </trkpt>
      <trkpt lat="45.15465" lon="5.93279">
        <ele>1894</ele>
        <time>2020-08-11T11:10:08Z</time>
      </trkpt>
      <trkpt lat="45.15465" lon="5.93279">
        <ele>1893.4</ele>
        <time>2020-08-11T11:10:09Z</time>
      </trkpt>
      <trkpt lat="45.15465" lon="5.93279">
        <ele>1893.2</ele>
        <time>2020-08-11T11:10:10Z</time>
      </trkpt>
      <trkpt lat="45.15463" lon="5.93278">
        <ele>1893.4</ele>
        <time>2020-08-11T11:10:11Z</time>
      </trkpt>
      <trkpt lat="45.1546" lon="5.93277">
        <ele>1893.4</ele>
        <time>2020-08-11T11:10:12Z</time>
      </trkpt>
      <trkpt lat="45.15458" lon="5.93275">
        <ele>1893.2</ele>
        <time>2020-08-11T11:10:13Z</time>
      </trkpt>
      <trkpt lat="45.15457" lon="5.93275">
        <ele>1893.2</ele>
        <time>2020-08-11T11:10:14Z</time>
      </trkpt>
      <trkpt lat="45.15456" lon="5.93275">
        <ele>1892.2</ele>
        <time>2020-08-11T11:10:15Z</time>
      </trkpt>
      <trkpt lat="45.15454" lon="5.93273">
        <ele>1892.2</ele>
        <time>2020-08-11T11:10:16Z</time>
      </trkpt>
      <trkpt lat="45.15454" lon="5.93273">
        <ele>1891.6</ele>
        <time>2020-08-11T11:10:17Z</time>
      </trkpt>
      <trkpt lat="45.15452" lon="5.93272">
        <ele>1891.2</ele>
        <time>2020-08-11T11:10:18Z</time>
      </trkpt>
      <trkpt lat="45.1545" lon="5.9327">
        <ele>1891</ele>
        <time>2020-08-11T11:10:19Z</time>
      </trkpt>
      <trkpt lat="45.1545" lon="5.9327">
        <ele>1890.8</ele>
        <time>2020-08-11T11:10:20Z</time>
      </trkpt>
      <trkpt lat="45.1545" lon="5.9327">
        <ele>1890.4</ele>
        <time>2020-08-11T11:10:21Z</time>
      </trkpt>
      <trkpt lat="45.15447" lon="5.9327">
        <ele>1890.4</ele>
        <time>2020-08-11T11:10:22Z</time>
      </trkpt>
      <trkpt lat="45.15447" lon="5.9327">
        <ele>1890.4</ele>
        <time>2020-08-11T11:10:23Z</time>
      </trkpt>
      <trkpt lat="45.15446" lon="5.93271">
        <ele>1890</ele>
        <time>2020-08-11T11:10:24Z</time>
      </trkpt>
      <trkpt lat="45.15446" lon="5.93271">
        <ele>1889.4</ele>
        <time>2020-08-11T11:10:25Z</time>
      </trkpt>
      <trkpt lat="45.15446" lon="5.93271">
        <ele>1888.8</ele>
        <time>2020-08-11T11:10:26Z</time>
      </trkpt>
      <trkpt lat="45.15446" lon="5.93271">
        <ele>1888.8</ele>
        <time>2020-08-11T11:10:27Z</time>
      </trkpt>
      <trkpt lat="45.15443" lon="5.93272">
        <ele>1888.2</ele>
        <time>2020-08-11T11:10:28Z</time>
      </trkpt>
      <trkpt lat="45.15441" lon="5.93271">
        <ele>1887.8</ele>
        <time>2020-08-11T11:10:29Z</time>
      </trkpt>
      <trkpt lat="45.15441" lon="5.93271">
        <ele>1887.6</ele>
        <time>2020-08-11T11:10:30Z</time>
      </trkpt>
      <trkpt lat="45.15438" lon="5.93271">
        <ele>1887.8</ele>
        <time>2020-08-11T11:10:31Z</time>
      </trkpt>
      <trkpt lat="45.15438" lon="5.93271">
        <ele>1887.4</ele>
        <time>2020-08-11T11:10:32Z</time>
      </trkpt>
      <trkpt lat="45.15435" lon="5.93271">
        <ele>1887</ele>
        <time>2020-08-11T11:10:33Z</time>
      </trkpt>
      <trkpt lat="45.15435" lon="5.93271">
        <ele>1886.4</ele>
        <time>2020-08-11T11:10:34Z</time>
      </trkpt>
      <trkpt lat="45.15435" lon="5.93271">
        <ele>1886.2</ele>
        <time>2020-08-11T11:10:35Z</time>
      </trkpt>
      <trkpt lat="45.15432" lon="5.93272">
        <ele>1886.2</ele>
        <time>2020-08-11T11:10:36Z</time>
      </trkpt>
      <trkpt lat="45.15432" lon="5.93272">
        <ele>1885.8</ele>
        <time>2020-08-11T11:10:37Z</time>
      </trkpt>
      <trkpt lat="45.1543" lon="5.93272">
        <ele>1885.6</ele>
        <time>2020-08-11T11:10:38Z</time>
      </trkpt>
      <trkpt lat="45.15427" lon="5.93272">
        <ele>1885</ele>
        <time>2020-08-11T11:10:39Z</time>
      </trkpt>
      <trkpt lat="45.15424" lon="5.93273">
        <ele>1885</ele>
        <time>2020-08-11T11:10:40Z</time>
      </trkpt>
      <trkpt lat="45.15421" lon="5.93273">
        <ele>1885</ele>
        <time>2020-08-11T11:10:41Z</time>
      </trkpt>
      <trkpt lat="45.15419" lon="5.93274">
        <ele>1885.2</ele>
        <time>2020-08-11T11:10:42Z</time>
      </trkpt>
      <trkpt lat="45.15417" lon="5.93275">
        <ele>1885</ele>
        <time>2020-08-11T11:10:43Z</time>
      </trkpt>
      <trkpt lat="45.15417" lon="5.93275">
        <ele>1885</ele>
        <time>2020-08-11T11:10:44Z</time>
      </trkpt>
      <trkpt lat="45.15414" lon="5.93275">
        <ele>1884.6</ele>
        <time>2020-08-11T11:10:45Z</time>
      </trkpt>
      <trkpt lat="45.15414" lon="5.93275">
        <ele>1884.2</ele>
        <time>2020-08-11T11:10:46Z</time>
      </trkpt>
      <trkpt lat="45.15411" lon="5.93275">
        <ele>1883.8</ele>
        <time>2020-08-11T11:10:47Z</time>
      </trkpt>
      <trkpt lat="45.15407" lon="5.93276">
        <ele>1883.4</ele>
        <time>2020-08-11T11:10:48Z</time>
      </trkpt>
      <trkpt lat="45.15404" lon="5.93277">
        <ele>1883.8</ele>
        <time>2020-08-11T11:10:49Z</time>
      </trkpt>
      <trkpt lat="45.15403" lon="5.93277">
        <ele>1883.8</ele>
        <time>2020-08-11T11:10:50Z</time>
      </trkpt>
      <trkpt lat="45.15403" lon="5.93277">
        <ele>1884.6</ele>
        <time>2020-08-11T11:10:51Z</time>
      </trkpt>
      <trkpt lat="45.154" lon="5.93276">
        <ele>1884.2</ele>
        <time>2020-08-11T11:10:52Z</time>
      </trkpt>
      <trkpt lat="45.15398" lon="5.93275">
        <ele>1884.6</ele>
        <time>2020-08-11T11:10:53Z</time>
      </trkpt>
      <trkpt lat="45.15396" lon="5.93274">
        <ele>1884.4</ele>
        <time>2020-08-11T11:10:54Z</time>
      </trkpt>
      <trkpt lat="45.15396" lon="5.93274">
        <ele>1884.8</ele>
        <time>2020-08-11T11:10:55Z</time>
      </trkpt>
      <trkpt lat="45.15394" lon="5.93272">
        <ele>1884.6</ele>
        <time>2020-08-11T11:10:56Z</time>
      </trkpt>
      <trkpt lat="45.15389" lon="5.93269">
        <ele>1885</ele>
        <time>2020-08-11T11:10:57Z</time>
      </trkpt>
      <trkpt lat="45.15387" lon="5.93267">
        <ele>1884.6</ele>
        <time>2020-08-11T11:10:58Z</time>
      </trkpt>
      <trkpt lat="45.15385" lon="5.93266">
        <ele>1884.8</ele>
        <time>2020-08-11T11:10:59Z</time>
      </trkpt>
      <trkpt lat="45.15383" lon="5.93265">
        <ele>1884.4</ele>
        <time>2020-08-11T11:11:00Z</time>
      </trkpt>
      <trkpt lat="45.15383" lon="5.93265">
        <ele>1884.4</ele>
        <time>2020-08-11T11:11:01Z</time>
      </trkpt>
      <trkpt lat="45.15381" lon="5.93263">
        <ele>1884.4</ele>
        <time>2020-08-11T11:11:02Z</time>
      </trkpt>
      <trkpt lat="45.15381" lon="5.93263">
        <ele>1883.6</ele>
        <time>2020-08-11T11:11:03Z</time>
      </trkpt>
      <trkpt lat="45.15378" lon="5.93262">
        <ele>1884.2</ele>
        <time>2020-08-11T11:11:04Z</time>
      </trkpt>
      <trkpt lat="45.15374" lon="5.93259">
        <ele>1884</ele>
        <time>2020-08-11T11:11:05Z</time>
      </trkpt>
      <trkpt lat="45.15373" lon="5.93258">
        <ele>1884.4</ele>
        <time>2020-08-11T11:11:06Z</time>
      </trkpt>
      <trkpt lat="45.15371" lon="5.93256">
        <ele>1884.2</ele>
        <time>2020-08-11T11:11:07Z</time>
      </trkpt>
      <trkpt lat="45.15371" lon="5.93256">
        <ele>1884.4</ele>
        <time>2020-08-11T11:11:08Z</time>
      </trkpt>
      <trkpt lat="45.15369" lon="5.93254">
        <ele>1884.4</ele>
        <time>2020-08-11T11:11:09Z</time>
      </trkpt>
      <trkpt lat="45.15364" lon="5.93251">
        <ele>1884.8</ele>
        <time>2020-08-11T11:11:10Z</time>
      </trkpt>
      <trkpt lat="45.15363" lon="5.93249">
        <ele>1884.2</ele>
        <time>2020-08-11T11:11:11Z</time>
      </trkpt>
      <trkpt lat="45.15362" lon="5.93248">
        <ele>1884.2</ele>
        <time>2020-08-11T11:11:12Z</time>
      </trkpt>
      <trkpt lat="45.15361" lon="5.93246">
        <ele>1884</ele>
        <time>2020-08-11T11:11:13Z</time>
      </trkpt>
      <trkpt lat="45.15359" lon="5.93243">
        <ele>1884.2</ele>
        <time>2020-08-11T11:11:14Z</time>
      </trkpt>
      <trkpt lat="45.15357" lon="5.9324">
        <ele>1884</ele>
        <time>2020-08-11T11:11:15Z</time>
      </trkpt>
      <trkpt lat="45.15355" lon="5.93238">
        <ele>1883.8</ele>
        <time>2020-08-11T11:11:16Z</time>
      </trkpt>
      <trkpt lat="45.15355" lon="5.93238">
        <ele>1883.6</ele>
        <time>2020-08-11T11:11:17Z</time>
      </trkpt>
      <trkpt lat="45.15353" lon="5.93236">
        <ele>1883.2</ele>
        <time>2020-08-11T11:11:18Z</time>
      </trkpt>
      <trkpt lat="45.1535" lon="5.93231">
        <ele>1883.6</ele>
        <time>2020-08-11T11:11:19Z</time>
      </trkpt>
      <trkpt lat="45.1535" lon="5.93231">
        <ele>1883.2</ele>
        <time>2020-08-11T11:11:20Z</time>
      </trkpt>
      <trkpt lat="45.15348" lon="5.93228">
        <ele>1883.4</ele>
        <time>2020-08-11T11:11:21Z</time>
      </trkpt>
      <trkpt lat="45.15346" lon="5.93225">
        <ele>1882.4</ele>
        <time>2020-08-11T11:11:22Z</time>
      </trkpt>
      <trkpt lat="45.15343" lon="5.93218">
        <ele>1882.8</ele>
        <time>2020-08-11T11:11:23Z</time>
      </trkpt>
      <trkpt lat="45.15343" lon="5.93218">
        <ele>1882.2</ele>
        <time>2020-08-11T11:11:24Z</time>
      </trkpt>
      <trkpt lat="45.15342" lon="5.93216">
        <ele>1882.4</ele>
        <time>2020-08-11T11:11:25Z</time>
      </trkpt>
      <trkpt lat="45.1534" lon="5.93212">
        <ele>1881.8</ele>
        <time>2020-08-11T11:11:26Z</time>
      </trkpt>
      <trkpt lat="45.15339" lon="5.9321">
        <ele>1882</ele>
        <time>2020-08-11T11:11:27Z</time>
      </trkpt>
      <trkpt lat="45.15336" lon="5.93205">
        <ele>1881.8</ele>
        <time>2020-08-11T11:11:28Z</time>
      </trkpt>
      <trkpt lat="45.15333" lon="5.93202">
        <ele>1881.6</ele>
        <time>2020-08-11T11:11:29Z</time>
      </trkpt>
      <trkpt lat="45.15332" lon="5.932">
        <ele>1881.8</ele>
        <time>2020-08-11T11:11:30Z</time>
      </trkpt>
      <trkpt lat="45.1533" lon="5.93199">
        <ele>1881</ele>
        <time>2020-08-11T11:11:31Z</time>
      </trkpt>
      <trkpt lat="45.15328" lon="5.93197">
        <ele>1881.6</ele>
        <time>2020-08-11T11:11:32Z</time>
      </trkpt>
      <trkpt lat="45.15328" lon="5.93197">
        <ele>1881.2</ele>
        <time>2020-08-11T11:11:33Z</time>
      </trkpt>
      <trkpt lat="45.15326" lon="5.93195">
        <ele>1881.6</ele>
        <time>2020-08-11T11:11:34Z</time>
      </trkpt>
      <trkpt lat="45.15322" lon="5.93191">
        <ele>1881.2</ele>
        <time>2020-08-11T11:11:35Z</time>
      </trkpt>
      <trkpt lat="45.1532" lon="5.9319">
        <ele>1881.2</ele>
        <time>2020-08-11T11:11:36Z</time>
      </trkpt>
      <trkpt lat="45.1532" lon="5.9319">
        <ele>1880.8</ele>
        <time>2020-08-11T11:11:37Z</time>
      </trkpt>
      <trkpt lat="45.15318" lon="5.93188">
        <ele>1880.6</ele>
        <time>2020-08-11T11:11:38Z</time>
      </trkpt>
      <trkpt lat="45.15318" lon="5.93188">
        <ele>1881</ele>
        <time>2020-08-11T11:11:39Z</time>
      </trkpt>
      <trkpt lat="45.15315" lon="5.93188">
        <ele>1881.2</ele>
        <time>2020-08-11T11:11:40Z</time>
      </trkpt>
      <trkpt lat="45.15315" lon="5.93188">
        <ele>1881</ele>
        <time>2020-08-11T11:11:41Z</time>
      </trkpt>
      <trkpt lat="45.15315" lon="5.93188">
        <ele>1880.8</ele>
        <time>2020-08-11T11:11:42Z</time>
      </trkpt>
      <trkpt lat="45.15313" lon="5.93189">
        <ele>1880.6</ele>
        <time>2020-08-11T11:11:43Z</time>
      </trkpt>
      <trkpt lat="45.15313" lon="5.93189">
        <ele>1880.4</ele>
        <time>2020-08-11T11:11:44Z</time>
      </trkpt>
      <trkpt lat="45.15313" lon="5.93189">
        <ele>1880.6</ele>
        <time>2020-08-11T11:11:45Z</time>
      </trkpt>
      <trkpt lat="45.15311" lon="5.93191">
        <ele>1881</ele>
        <time>2020-08-11T11:11:46Z</time>
      </trkpt>
      <trkpt lat="45.15311" lon="5.93191">
        <ele>1881.2</ele>
        <time>2020-08-11T11:11:47Z</time>
      </trkpt>
      <trkpt lat="45.15311" lon="5.93191">
        <ele>1881</ele>
        <time>2020-08-11T11:11:48Z</time>
      </trkpt>
      <trkpt lat="45.15311" lon="5.93191">
        <ele>1880.8</ele>
        <time>2020-08-11T11:11:49Z</time>
      </trkpt>
      <trkpt lat="45.15309" lon="5.93193">
        <ele>1880.6</ele>
        <time>2020-08-11T11:11:50Z</time>
      </trkpt>
      <trkpt lat="45.15309" lon="5.93193">
        <ele>1880.4</ele>
        <time>2020-08-11T11:11:51Z</time>
      </trkpt>
      <trkpt lat="45.15309" lon="5.93193">
        <ele>1880.2</ele>
        <time>2020-08-11T11:11:52Z</time>
      </trkpt>
      <trkpt lat="45.15309" lon="5.93193">
        <ele>1880</ele>
        <time>2020-08-11T11:11:53Z</time>
      </trkpt>
      <trkpt lat="45.15309" lon="5.93193">
        <ele>1879.8</ele>
        <time>2020-08-11T11:11:54Z</time>
      </trkpt>
      <trkpt lat="45.15309" lon="5.93193">
        <ele>1879.6</ele>
        <time>2020-08-11T11:11:55Z</time>
      </trkpt>
      <trkpt lat="45.15309" lon="5.93193">
        <ele>1879.4</ele>
        <time>2020-08-11T11:11:56Z</time>
      </trkpt>
      <trkpt lat="45.15309" lon="5.93193">
        <ele>1879.4</ele>
        <time>2020-08-11T11:11:57Z</time>
      </trkpt>
      <trkpt lat="45.15309" lon="5.93193">
        <ele>1879.2</ele>
        <time>2020-08-11T11:11:58Z</time>
      </trkpt>
      <trkpt lat="45.15309" lon="5.93193">
        <ele>1879.2</ele>
        <time>2020-08-11T11:11:59Z</time>
      </trkpt>
      <trkpt lat="45.15309" lon="5.93193">
        <ele>1879.4</ele>
        <time>2020-08-11T11:12:00Z</time>
      </trkpt>
      <trkpt lat="45.15309" lon="5.93193">
        <ele>1879.6</ele>
        <time>2020-08-11T11:12:01Z</time>
      </trkpt>
      <trkpt lat="45.15309" lon="5.93193">
        <ele>1879.6</ele>
        <time>2020-08-11T11:12:02Z</time>
      </trkpt>
      <trkpt lat="45.15309" lon="5.93193">
        <ele>1880</ele>
        <time>2020-08-11T11:12:03Z</time>
      </trkpt>
      <trkpt lat="45.15309" lon="5.93193">
        <ele>1879.8</ele>
        <time>2020-08-11T11:12:04Z</time>
      </trkpt>
      <trkpt lat="45.15309" lon="5.93193">
        <ele>1879.4</ele>
        <time>2020-08-11T11:12:05Z</time>
      </trkpt>
      <trkpt lat="45.15309" lon="5.93193">
        <ele>1879.4</ele>
        <time>2020-08-11T11:12:06Z</time>
      </trkpt>
      <trkpt lat="45.15309" lon="5.93193">
        <ele>1879.2</ele>
        <time>2020-08-11T11:12:07Z</time>
      </trkpt>
      <trkpt lat="45.15309" lon="5.93193">
        <ele>1879.4</ele>
        <time>2020-08-11T11:12:08Z</time>
      </trkpt>
      <trkpt lat="45.15309" lon="5.93193">
        <ele>1879.8</ele>
        <time>2020-08-11T11:12:09Z</time>
      </trkpt>
      <trkpt lat="45.15309" lon="5.93193">
        <ele>1879.8</ele>
        <time>2020-08-11T11:12:10Z</time>
      </trkpt>
      <trkpt lat="45.15309" lon="5.93193">
        <ele>1879.8</ele>
        <time>2020-08-11T11:12:11Z</time>
      </trkpt>
      <trkpt lat="45.15307" lon="5.93193">
        <ele>1879.6</ele>
        <time>2020-08-11T11:12:12Z</time>
      </trkpt>
      <trkpt lat="45.15307" lon="5.93193">
        <ele>1879.4</ele>
        <time>2020-08-11T11:12:13Z</time>
      </trkpt>
      <trkpt lat="45.15307" lon="5.93193">
        <ele>1879.4</ele>
        <time>2020-08-11T11:12:14Z</time>
      </trkpt>
      <trkpt lat="45.15307" lon="5.93193">
        <ele>1879</ele>
        <time>2020-08-11T11:12:15Z</time>
      </trkpt>
      <trkpt lat="45.15307" lon="5.93193">
        <ele>1878.8</ele>
        <time>2020-08-11T11:12:16Z</time>
      </trkpt>
      <trkpt lat="45.15307" lon="5.93193">
        <ele>1878.8</ele>
        <time>2020-08-11T11:12:17Z</time>
      </trkpt>
      <trkpt lat="45.15306" lon="5.93195">
        <ele>1878.8</ele>
        <time>2020-08-11T11:12:18Z</time>
      </trkpt>
      <trkpt lat="45.15306" lon="5.93195">
        <ele>1878.8</ele>
        <time>2020-08-11T11:12:19Z</time>
      </trkpt>
      <trkpt lat="45.15306" lon="5.93195">
        <ele>1878.8</ele>
        <time>2020-08-11T11:12:20Z</time>
      </trkpt>
      <trkpt lat="45.15306" lon="5.93195">
        <ele>1878.8</ele>
        <time>2020-08-11T11:12:21Z</time>
      </trkpt>
      <trkpt lat="45.15305" lon="5.93198">
        <ele>1879</ele>
        <time>2020-08-11T11:12:22Z</time>
      </trkpt>
      <trkpt lat="45.15305" lon="5.93198">
        <ele>1879.2</ele>
        <time>2020-08-11T11:12:23Z</time>
      </trkpt>
      <trkpt lat="45.15305" lon="5.93198">
        <ele>1879.2</ele>
        <time>2020-08-11T11:12:24Z</time>
      </trkpt>
      <trkpt lat="45.15305" lon="5.93198">
        <ele>1879.4</ele>
        <time>2020-08-11T11:12:25Z</time>
      </trkpt>
      <trkpt lat="45.15305" lon="5.93198">
        <ele>1879.8</ele>
        <time>2020-08-11T11:12:26Z</time>
      </trkpt>
      <trkpt lat="45.15305" lon="5.93198">
        <ele>1879.8</ele>
        <time>2020-08-11T11:12:27Z</time>
      </trkpt>
      <trkpt lat="45.15305" lon="5.93198">
        <ele>1879.8</ele>
        <time>2020-08-11T11:12:28Z</time>
      </trkpt>
      <trkpt lat="45.15305" lon="5.93198">
        <ele>1880</ele>
        <time>2020-08-11T11:12:29Z</time>
      </trkpt>
      <trkpt lat="45.15303" lon="5.93196">
        <ele>1880.2</ele>
        <time>2020-08-11T11:12:30Z</time>
      </trkpt>
      <trkpt lat="45.15303" lon="5.93196">
        <ele>1880.2</ele>
        <time>2020-08-11T11:12:31Z</time>
      </trkpt>
      <trkpt lat="45.15303" lon="5.93196">
        <ele>1880</ele>
        <time>2020-08-11T11:12:32Z</time>
      </trkpt>
      <trkpt lat="45.15303" lon="5.93196">
        <ele>1880</ele>
        <time>2020-08-11T11:12:33Z</time>
      </trkpt>
      <trkpt lat="45.15301" lon="5.93196">
        <ele>1880</ele>
        <time>2020-08-11T11:12:34Z</time>
      </trkpt>
      <trkpt lat="45.15301" lon="5.93196">
        <ele>1880</ele>
        <time>2020-08-11T11:12:35Z</time>
      </trkpt>
      <trkpt lat="45.15301" lon="5.93196">
        <ele>1879.8</ele>
        <time>2020-08-11T11:12:36Z</time>
      </trkpt>
      <trkpt lat="45.15301" lon="5.93196">
        <ele>1879.8</ele>
        <time>2020-08-11T11:12:37Z</time>
      </trkpt>
      <trkpt lat="45.15301" lon="5.93196">
        <ele>1879.8</ele>
        <time>2020-08-11T11:12:38Z</time>
      </trkpt>
      <trkpt lat="45.15299" lon="5.93194">
        <ele>1879.8</ele>
        <time>2020-08-11T11:12:39Z</time>
      </trkpt>
      <trkpt lat="45.15299" lon="5.93194">
        <ele>1879.8</ele>
        <time>2020-08-11T11:12:40Z</time>
      </trkpt>
      <trkpt lat="45.15299" lon="5.93194">
        <ele>1879.6</ele>
        <time>2020-08-11T11:12:41Z</time>
      </trkpt>
      <trkpt lat="45.15299" lon="5.93194">
        <ele>1879.4</ele>
        <time>2020-08-11T11:12:42Z</time>
      </trkpt>
      <trkpt lat="45.15299" lon="5.93194">
        <ele>1879.6</ele>
        <time>2020-08-11T11:12:43Z</time>
      </trkpt>
      <trkpt lat="45.15299" lon="5.93194">
        <ele>1879.4</ele>
        <time>2020-08-11T11:12:44Z</time>
      </trkpt>
      <trkpt lat="45.15297" lon="5.93191">
        <ele>1879.4</ele>
        <time>2020-08-11T11:12:45Z</time>
      </trkpt>
      <trkpt lat="45.15298" lon="5.93189">
        <ele>1879.4</ele>
        <time>2020-08-11T11:12:46Z</time>
      </trkpt>
      <trkpt lat="45.15298" lon="5.93188">
        <ele>1879.4</ele>
        <time>2020-08-11T11:12:47Z</time>
      </trkpt>
      <trkpt lat="45.15298" lon="5.93186">
        <ele>1879.4</ele>
        <time>2020-08-11T11:12:48Z</time>
      </trkpt>
      <trkpt lat="45.15298" lon="5.93184">
        <ele>1879.4</ele>
        <time>2020-08-11T11:12:49Z</time>
      </trkpt>
      <trkpt lat="45.15299" lon="5.93182">
        <ele>1879.2</ele>
        <time>2020-08-11T11:12:50Z</time>
      </trkpt>
      <trkpt lat="45.15299" lon="5.93181">
        <ele>1879.2</ele>
        <time>2020-08-11T11:12:51Z</time>
      </trkpt>
      <trkpt lat="45.15299" lon="5.93179">
        <ele>1879.2</ele>
        <time>2020-08-11T11:12:52Z</time>
      </trkpt>
      <trkpt lat="45.15299" lon="5.93177">
        <ele>1879.4</ele>
        <time>2020-08-11T11:12:53Z</time>
      </trkpt>
      <trkpt lat="45.153" lon="5.93176">
        <ele>1879.4</ele>
        <time>2020-08-11T11:12:54Z</time>
      </trkpt>
      <trkpt lat="45.153" lon="5.93174">
        <ele>1879.4</ele>
        <time>2020-08-11T11:12:55Z</time>
      </trkpt>
      <trkpt lat="45.153" lon="5.93172">
        <ele>1879.4</ele>
        <time>2020-08-11T11:12:56Z</time>
      </trkpt>
      <trkpt lat="45.153" lon="5.9317">
        <ele>1879.4</ele>
        <time>2020-08-11T11:12:57Z</time>
      </trkpt>
      <trkpt lat="45.15301" lon="5.93169">
        <ele>1879.4</ele>
        <time>2020-08-11T11:12:58Z</time>
      </trkpt>
      <trkpt lat="45.15301" lon="5.93167">
        <ele>1879.4</ele>
        <time>2020-08-11T11:12:59Z</time>
      </trkpt>
      <trkpt lat="45.15301" lon="5.93165">
        <ele>1879.4</ele>
        <time>2020-08-11T11:13:00Z</time>
      </trkpt>
      <trkpt lat="45.15301" lon="5.93164">
        <ele>1879.4</ele>
        <time>2020-08-11T11:13:01Z</time>
      </trkpt>
      <trkpt lat="45.15302" lon="5.93162">
        <ele>1879.4</ele>
        <time>2020-08-11T11:13:02Z</time>
      </trkpt>
      <trkpt lat="45.15302" lon="5.9316">
        <ele>1879.4</ele>
        <time>2020-08-11T11:13:03Z</time>
      </trkpt>
      <trkpt lat="45.15302" lon="5.93159">
        <ele>1879.2</ele>
        <time>2020-08-11T11:13:04Z</time>
      </trkpt>
      <trkpt lat="45.15302" lon="5.93157">
        <ele>1878.8</ele>
        <time>2020-08-11T11:13:05Z</time>
      </trkpt>
      <trkpt lat="45.15303" lon="5.93155">
        <ele>1878.8</ele>
        <time>2020-08-11T11:13:06Z</time>
      </trkpt>
      <trkpt lat="45.15303" lon="5.93153">
        <ele>1878.8</ele>
        <time>2020-08-11T11:13:07Z</time>
      </trkpt>
      <trkpt lat="45.15303" lon="5.93152">
        <ele>1878.6</ele>
        <time>2020-08-11T11:13:08Z</time>
      </trkpt>
      <trkpt lat="45.15303" lon="5.9315">
        <ele>1878.8</ele>
        <time>2020-08-11T11:13:09Z</time>
      </trkpt>
      <trkpt lat="45.15304" lon="5.93149">
        <ele>1879</ele>
        <time>2020-08-11T11:13:10Z</time>
      </trkpt>
      <trkpt lat="45.15304" lon="5.93148">
        <ele>1879.2</ele>
        <time>2020-08-11T11:13:11Z</time>
      </trkpt>
      <trkpt lat="45.15304" lon="5.93147">
        <ele>1879.2</ele>
        <time>2020-08-11T11:13:12Z</time>
      </trkpt>
      <trkpt lat="45.15304" lon="5.93146">
        <ele>1879.2</ele>
        <time>2020-08-11T11:13:13Z</time>
      </trkpt>
      <trkpt lat="45.15305" lon="5.93144">
        <ele>1879.2</ele>
        <time>2020-08-11T11:13:14Z</time>
      </trkpt>
      <trkpt lat="45.15305" lon="5.93143">
        <ele>1879</ele>
        <time>2020-08-11T11:13:15Z</time>
      </trkpt>
      <trkpt lat="45.15305" lon="5.93142">
        <ele>1878.8</ele>
        <time>2020-08-11T11:13:16Z</time>
      </trkpt>
      <trkpt lat="45.15305" lon="5.93141">
        <ele>1878.8</ele>
        <time>2020-08-11T11:13:17Z</time>
      </trkpt>
      <trkpt lat="45.15306" lon="5.93139">
        <ele>1878.8</ele>
        <time>2020-08-11T11:13:18Z</time>
      </trkpt>
      <trkpt lat="45.15306" lon="5.93138">
        <ele>1879</ele>
        <time>2020-08-11T11:13:19Z</time>
      </trkpt>
      <trkpt lat="45.15306" lon="5.93137">
        <ele>1879</ele>
        <time>2020-08-11T11:13:20Z</time>
      </trkpt>
      <trkpt lat="45.15306" lon="5.93137">
        <ele>1879</ele>
        <time>2020-08-11T11:13:21Z</time>
      </trkpt>
      <trkpt lat="45.15306" lon="5.93137">
        <ele>1878.8</ele>
        <time>2020-08-11T11:13:22Z</time>
      </trkpt>
      <trkpt lat="45.15306" lon="5.93137">
        <ele>1878.6</ele>
        <time>2020-08-11T11:13:23Z</time>
      </trkpt>
      <trkpt lat="45.15306" lon="5.93136">
        <ele>1878.6</ele>
        <time>2020-08-11T11:13:24Z</time>
      </trkpt>
      <trkpt lat="45.15306" lon="5.93136">
        <ele>1878.6</ele>
        <time>2020-08-11T11:13:25Z</time>
      </trkpt>
      <trkpt lat="45.15305" lon="5.93136">
        <ele>1878.6</ele>
        <time>2020-08-11T11:13:26Z</time>
      </trkpt>
      <trkpt lat="45.15305" lon="5.93136">
        <ele>1878.6</ele>
        <time>2020-08-11T11:13:27Z</time>
      </trkpt>
      <trkpt lat="45.15305" lon="5.93136">
        <ele>1878.4</ele>
        <time>2020-08-11T11:13:28Z</time>
      </trkpt>
      <trkpt lat="45.15305" lon="5.93135">
        <ele>1878.6</ele>
        <time>2020-08-11T11:13:29Z</time>
      </trkpt>
      <trkpt lat="45.15305" lon="5.93135">
        <ele>1878.6</ele>
        <time>2020-08-11T11:13:30Z</time>
      </trkpt>
      <trkpt lat="45.15305" lon="5.93135">
        <ele>1878.8</ele>
        <time>2020-08-11T11:13:31Z</time>
      </trkpt>
      <trkpt lat="45.15305" lon="5.93135">
        <ele>1878.8</ele>
        <time>2020-08-11T11:13:32Z</time>
      </trkpt>
      <trkpt lat="45.15304" lon="5.93135">
        <ele>1878.8</ele>
        <time>2020-08-11T11:13:33Z</time>
      </trkpt>
      <trkpt lat="45.15304" lon="5.93135">
        <ele>1878.8</ele>
        <time>2020-08-11T11:13:34Z</time>
      </trkpt>
      <trkpt lat="45.15304" lon="5.93134">
        <ele>1878.6</ele>
        <time>2020-08-11T11:13:35Z</time>
      </trkpt>
      <trkpt lat="45.15304" lon="5.93134">
        <ele>1878.8</ele>
        <time>2020-08-11T11:13:36Z</time>
      </trkpt>
      <trkpt lat="45.15304" lon="5.93134">
        <ele>1878.8</ele>
        <time>2020-08-11T11:13:37Z</time>
      </trkpt>
      <trkpt lat="45.15304" lon="5.93134">
        <ele>1878.8</ele>
        <time>2020-08-11T11:13:38Z</time>
      </trkpt>
      <trkpt lat="45.15304" lon="5.93134">
        <ele>1878.8</ele>
        <time>2020-08-11T11:13:39Z</time>
      </trkpt>
      <trkpt lat="45.15304" lon="5.93133">
        <ele>1879</ele>
        <time>2020-08-11T11:13:40Z</time>
      </trkpt>
      <trkpt lat="45.15303" lon="5.93133">
        <ele>1879.2</ele>
        <time>2020-08-11T11:13:41Z</time>
      </trkpt>
      <trkpt lat="45.15303" lon="5.93133">
        <ele>1879.2</ele>
        <time>2020-08-11T11:13:42Z</time>
      </trkpt>
      <trkpt lat="45.15303" lon="5.93133">
        <ele>1879.4</ele>
        <time>2020-08-11T11:13:43Z</time>
      </trkpt>
      <trkpt lat="45.15303" lon="5.93133">
        <ele>1879.2</ele>
        <time>2020-08-11T11:13:44Z</time>
      </trkpt>
      <trkpt lat="45.15303" lon="5.93133">
        <ele>1879.2</ele>
        <time>2020-08-11T11:13:45Z</time>
      </trkpt>
      <trkpt lat="45.15303" lon="5.93132">
        <ele>1879.2</ele>
        <time>2020-08-11T11:13:46Z</time>
      </trkpt>
      <trkpt lat="45.15303" lon="5.93132">
        <ele>1879.2</ele>
        <time>2020-08-11T11:13:47Z</time>
      </trkpt>
      <trkpt lat="45.15303" lon="5.93132">
        <ele>1879.2</ele>
        <time>2020-08-11T11:13:48Z</time>
      </trkpt>
      <trkpt lat="45.15302" lon="5.93132">
        <ele>1879.2</ele>
        <time>2020-08-11T11:13:49Z</time>
      </trkpt>
      <trkpt lat="45.15302" lon="5.93132">
        <ele>1879.2</ele>
        <time>2020-08-11T11:13:50Z</time>
      </trkpt>
      <trkpt lat="45.15302" lon="5.93131">
        <ele>1879.2</ele>
        <time>2020-08-11T11:13:51Z</time>
      </trkpt>
      <trkpt lat="45.15302" lon="5.93131">
        <ele>1879</ele>
        <time>2020-08-11T11:13:52Z</time>
      </trkpt>
      <trkpt lat="45.15302" lon="5.93131">
        <ele>1879</ele>
        <time>2020-08-11T11:13:53Z</time>
      </trkpt>
      <trkpt lat="45.15302" lon="5.93131">
        <ele>1878.8</ele>
        <time>2020-08-11T11:13:54Z</time>
      </trkpt>
      <trkpt lat="45.15302" lon="5.93131">
        <ele>1878.8</ele>
        <time>2020-08-11T11:13:55Z</time>
      </trkpt>
      <trkpt lat="45.15302" lon="5.93131">
        <ele>1878.8</ele>
        <time>2020-08-11T11:13:56Z</time>
      </trkpt>
      <trkpt lat="45.15302" lon="5.93131">
        <ele>1878.6</ele>
        <time>2020-08-11T11:13:57Z</time>
      </trkpt>
      <trkpt lat="45.15302" lon="5.93131">
        <ele>1878.6</ele>
        <time>2020-08-11T11:13:58Z</time>
      </trkpt>
      <trkpt lat="45.15301" lon="5.93134">
        <ele>1878.6</ele>
        <time>2020-08-11T11:13:59Z</time>
      </trkpt>
      <trkpt lat="45.15301" lon="5.93133">
        <ele>1878.6</ele>
        <time>2020-08-11T11:14:00Z</time>
      </trkpt>
      <trkpt lat="45.15301" lon="5.93133">
        <ele>1878.6</ele>
        <time>2020-08-11T11:14:01Z</time>
      </trkpt>
      <trkpt lat="45.15301" lon="5.93133">
        <ele>1878.6</ele>
        <time>2020-08-11T11:14:02Z</time>
      </trkpt>
      <trkpt lat="45.153" lon="5.93132">
        <ele>1878.6</ele>
        <time>2020-08-11T11:14:03Z</time>
      </trkpt>
      <trkpt lat="45.153" lon="5.93132">
        <ele>1878.6</ele>
        <time>2020-08-11T11:14:04Z</time>
      </trkpt>
      <trkpt lat="45.153" lon="5.93132">
        <ele>1878.6</ele>
        <time>2020-08-11T11:14:05Z</time>
      </trkpt>
      <trkpt lat="45.153" lon="5.93131">
        <ele>1878.6</ele>
        <time>2020-08-11T11:14:06Z</time>
      </trkpt>
      <trkpt lat="45.153" lon="5.93131">
        <ele>1878.6</ele>
        <time>2020-08-11T11:14:07Z</time>
      </trkpt>
      <trkpt lat="45.153" lon="5.93131">
        <ele>1878.4</ele>
        <time>2020-08-11T11:14:08Z</time>
      </trkpt>
      <trkpt lat="45.15299" lon="5.9313">
        <ele>1878.4</ele>
        <time>2020-08-11T11:14:09Z</time>
      </trkpt>
      <trkpt lat="45.15299" lon="5.9313">
        <ele>1878.4</ele>
        <time>2020-08-11T11:14:10Z</time>
      </trkpt>
      <trkpt lat="45.15299" lon="5.9313">
        <ele>1878.2</ele>
        <time>2020-08-11T11:14:11Z</time>
      </trkpt>
      <trkpt lat="45.15299" lon="5.93129">
        <ele>1878.6</ele>
        <time>2020-08-11T11:14:12Z</time>
      </trkpt>
      <trkpt lat="45.15299" lon="5.93129">
        <ele>1878.4</ele>
        <time>2020-08-11T11:14:13Z</time>
      </trkpt>
      <trkpt lat="45.15299" lon="5.93129">
        <ele>1878.6</ele>
        <time>2020-08-11T11:14:14Z</time>
      </trkpt>
      <trkpt lat="45.15298" lon="5.93128">
        <ele>1878.4</ele>
        <time>2020-08-11T11:14:15Z</time>
      </trkpt>
      <trkpt lat="45.15298" lon="5.93128">
        <ele>1878.4</ele>
        <time>2020-08-11T11:14:16Z</time>
      </trkpt>
      <trkpt lat="45.15298" lon="5.93128">
        <ele>1878.6</ele>
        <time>2020-08-11T11:14:17Z</time>
      </trkpt>
      <trkpt lat="45.15298" lon="5.93127">
        <ele>1878.8</ele>
        <time>2020-08-11T11:14:18Z</time>
      </trkpt>
      <trkpt lat="45.15298" lon="5.93127">
        <ele>1879</ele>
        <time>2020-08-11T11:14:19Z</time>
      </trkpt>
      <trkpt lat="45.15298" lon="5.93127">
        <ele>1879</ele>
        <time>2020-08-11T11:14:20Z</time>
      </trkpt>
      <trkpt lat="45.15297" lon="5.93127">
        <ele>1878.8</ele>
        <time>2020-08-11T11:14:21Z</time>
      </trkpt>
      <trkpt lat="45.15297" lon="5.93126">
        <ele>1878.8</ele>
        <time>2020-08-11T11:14:22Z</time>
      </trkpt>
      <trkpt lat="45.15297" lon="5.93126">
        <ele>1878.8</ele>
        <time>2020-08-11T11:14:23Z</time>
      </trkpt>
      <trkpt lat="45.15297" lon="5.93126">
        <ele>1878.8</ele>
        <time>2020-08-11T11:14:24Z</time>
      </trkpt>
      <trkpt lat="45.15297" lon="5.93125">
        <ele>1879</ele>
        <time>2020-08-11T11:14:25Z</time>
      </trkpt>
      <trkpt lat="45.15296" lon="5.93125">
        <ele>1879.2</ele>
        <time>2020-08-11T11:14:26Z</time>
      </trkpt>
      <trkpt lat="45.15296" lon="5.93125">
        <ele>1879</ele>
        <time>2020-08-11T11:14:27Z</time>
      </trkpt>
      <trkpt lat="45.15296" lon="5.93124">
        <ele>1878.8</ele>
        <time>2020-08-11T11:14:28Z</time>
      </trkpt>
      <trkpt lat="45.15296" lon="5.93124">
        <ele>1878.8</ele>
        <time>2020-08-11T11:14:29Z</time>
      </trkpt>
      <trkpt lat="45.15296" lon="5.93124">
        <ele>1878.6</ele>
        <time>2020-08-11T11:14:30Z</time>
      </trkpt>
      <trkpt lat="45.15295" lon="5.93122">
        <ele>1878.4</ele>
        <time>2020-08-11T11:14:31Z</time>
      </trkpt>
      <trkpt lat="45.15295" lon="5.93122">
        <ele>1878.8</ele>
        <time>2020-08-11T11:14:32Z</time>
      </trkpt>
      <trkpt lat="45.15295" lon="5.93122">
        <ele>1879</ele>
        <time>2020-08-11T11:14:33Z</time>
      </trkpt>
      <trkpt lat="45.15292" lon="5.9312">
        <ele>1879</ele>
        <time>2020-08-11T11:14:34Z</time>
      </trkpt>
      <trkpt lat="45.15292" lon="5.9312">
        <ele>1879</ele>
        <time>2020-08-11T11:14:35Z</time>
      </trkpt>
      <trkpt lat="45.15292" lon="5.9312">
        <ele>1878.8</ele>
        <time>2020-08-11T11:14:36Z</time>
      </trkpt>
      <trkpt lat="45.15292" lon="5.9312">
        <ele>1878.8</ele>
        <time>2020-08-11T11:14:37Z</time>
      </trkpt>
      <trkpt lat="45.15292" lon="5.9312">
        <ele>1878.6</ele>
        <time>2020-08-11T11:14:38Z</time>
      </trkpt>
      <trkpt lat="45.15292" lon="5.9312">
        <ele>1878.6</ele>
        <time>2020-08-11T11:14:39Z</time>
      </trkpt>
      <trkpt lat="45.1529" lon="5.93118">
        <ele>1878.4</ele>
        <time>2020-08-11T11:14:40Z</time>
      </trkpt>
      <trkpt lat="45.1529" lon="5.93118">
        <ele>1878.6</ele>
        <time>2020-08-11T11:14:41Z</time>
      </trkpt>
      <trkpt lat="45.1529" lon="5.93117">
        <ele>1878.8</ele>
        <time>2020-08-11T11:14:42Z</time>
      </trkpt>
      <trkpt lat="45.15289" lon="5.93116">
        <ele>1878.8</ele>
        <time>2020-08-11T11:14:43Z</time>
      </trkpt>
      <trkpt lat="45.15288" lon="5.93115">
        <ele>1878.8</ele>
        <time>2020-08-11T11:14:44Z</time>
      </trkpt>
      <trkpt lat="45.15287" lon="5.93114">
        <ele>1878.8</ele>
        <time>2020-08-11T11:14:45Z</time>
      </trkpt>
      <trkpt lat="45.15285" lon="5.93113">
        <ele>1878.6</ele>
        <time>2020-08-11T11:14:46Z</time>
      </trkpt>
      <trkpt lat="45.15284" lon="5.93111">
        <ele>1878.6</ele>
        <time>2020-08-11T11:14:47Z</time>
      </trkpt>
      <trkpt lat="45.15283" lon="5.93109">
        <ele>1878.4</ele>
        <time>2020-08-11T11:14:48Z</time>
      </trkpt>
      <trkpt lat="45.15281" lon="5.93107">
        <ele>1878.4</ele>
        <time>2020-08-11T11:14:49Z</time>
      </trkpt>
      <trkpt lat="45.1528" lon="5.93105">
        <ele>1878</ele>
        <time>2020-08-11T11:14:50Z</time>
      </trkpt>
      <trkpt lat="45.1528" lon="5.93105">
        <ele>1878</ele>
        <time>2020-08-11T11:14:51Z</time>
      </trkpt>
      <trkpt lat="45.1528" lon="5.93105">
        <ele>1877.8</ele>
        <time>2020-08-11T11:14:52Z</time>
      </trkpt>
      <trkpt lat="45.15279" lon="5.93103">
        <ele>1877.8</ele>
        <time>2020-08-11T11:14:53Z</time>
      </trkpt>
      <trkpt lat="45.15279" lon="5.93103">
        <ele>1877.8</ele>
        <time>2020-08-11T11:14:54Z</time>
      </trkpt>
      <trkpt lat="45.15279" lon="5.93103">
        <ele>1877.8</ele>
        <time>2020-08-11T11:14:55Z</time>
      </trkpt>
      <trkpt lat="45.15277" lon="5.931">
        <ele>1877.8</ele>
        <time>2020-08-11T11:14:56Z</time>
      </trkpt>
      <trkpt lat="45.15276" lon="5.93096">
        <ele>1878.2</ele>
        <time>2020-08-11T11:14:57Z</time>
      </trkpt>
      <trkpt lat="45.15276" lon="5.93096">
        <ele>1878.4</ele>
        <time>2020-08-11T11:14:58Z</time>
      </trkpt>
      <trkpt lat="45.15276" lon="5.93096">
        <ele>1878</ele>
        <time>2020-08-11T11:14:59Z</time>
      </trkpt>
      <trkpt lat="45.15274" lon="5.93093">
        <ele>1877.8</ele>
        <time>2020-08-11T11:15:00Z</time>
      </trkpt>
      <trkpt lat="45.15274" lon="5.93093">
        <ele>1877.8</ele>
        <time>2020-08-11T11:15:01Z</time>
      </trkpt>
      <trkpt lat="45.15273" lon="5.9309">
        <ele>1877.8</ele>
        <time>2020-08-11T11:15:02Z</time>
      </trkpt>
      <trkpt lat="45.15273" lon="5.9309">
        <ele>1877.6</ele>
        <time>2020-08-11T11:15:03Z</time>
      </trkpt>
      <trkpt lat="45.15273" lon="5.9309">
        <ele>1877.8</ele>
        <time>2020-08-11T11:15:04Z</time>
      </trkpt>
      <trkpt lat="45.15271" lon="5.93086">
        <ele>1877.6</ele>
        <time>2020-08-11T11:15:05Z</time>
      </trkpt>
      <trkpt lat="45.1527" lon="5.93084">
        <ele>1877.8</ele>
        <time>2020-08-11T11:15:06Z</time>
      </trkpt>
      <trkpt lat="45.15269" lon="5.93082">
        <ele>1878</ele>
        <time>2020-08-11T11:15:07Z</time>
      </trkpt>
      <trkpt lat="45.15269" lon="5.93082">
        <ele>1878</ele>
        <time>2020-08-11T11:15:08Z</time>
      </trkpt>
      <trkpt lat="45.15268" lon="5.9308">
        <ele>1878</ele>
        <time>2020-08-11T11:15:09Z</time>
      </trkpt>
      <trkpt lat="45.15267" lon="5.93078">
        <ele>1878.2</ele>
        <time>2020-08-11T11:15:10Z</time>
      </trkpt>
      <trkpt lat="45.15266" lon="5.93076">
        <ele>1878.4</ele>
        <time>2020-08-11T11:15:11Z</time>
      </trkpt>
      <trkpt lat="45.15265" lon="5.93073">
        <ele>1878.2</ele>
        <time>2020-08-11T11:15:12Z</time>
      </trkpt>
      <trkpt lat="45.15263" lon="5.93071">
        <ele>1878.2</ele>
        <time>2020-08-11T11:15:13Z</time>
      </trkpt>
      <trkpt lat="45.15262" lon="5.9307">
        <ele>1878.2</ele>
        <time>2020-08-11T11:15:14Z</time>
      </trkpt>
      <trkpt lat="45.15261" lon="5.93069">
        <ele>1878.4</ele>
        <time>2020-08-11T11:15:15Z</time>
      </trkpt>
      <trkpt lat="45.15261" lon="5.93067">
        <ele>1878.4</ele>
        <time>2020-08-11T11:15:16Z</time>
      </trkpt>
      <trkpt lat="45.1526" lon="5.93064">
        <ele>1878.4</ele>
        <time>2020-08-11T11:15:17Z</time>
      </trkpt>
      <trkpt lat="45.15259" lon="5.93062">
        <ele>1878</ele>
        <time>2020-08-11T11:15:18Z</time>
      </trkpt>
      <trkpt lat="45.15258" lon="5.93059">
        <ele>1878</ele>
        <time>2020-08-11T11:15:19Z</time>
      </trkpt>
      <trkpt lat="45.15258" lon="5.93059">
        <ele>1877.6</ele>
        <time>2020-08-11T11:15:20Z</time>
      </trkpt>
      <trkpt lat="45.15258" lon="5.93059">
        <ele>1877.8</ele>
        <time>2020-08-11T11:15:21Z</time>
      </trkpt>
      <trkpt lat="45.15257" lon="5.93054">
        <ele>1877.6</ele>
        <time>2020-08-11T11:15:22Z</time>
      </trkpt>
      <trkpt lat="45.15255" lon="5.93051">
        <ele>1877.6</ele>
        <time>2020-08-11T11:15:23Z</time>
      </trkpt>
      <trkpt lat="45.15255" lon="5.93051">
        <ele>1877.4</ele>
        <time>2020-08-11T11:15:24Z</time>
      </trkpt>
      <trkpt lat="45.15254" lon="5.93047">
        <ele>1877.4</ele>
        <time>2020-08-11T11:15:25Z</time>
      </trkpt>
      <trkpt lat="45.15254" lon="5.93047">
        <ele>1877.2</ele>
        <time>2020-08-11T11:15:26Z</time>
      </trkpt>
      <trkpt lat="45.15254" lon="5.93047">
        <ele>1877</ele>
        <time>2020-08-11T11:15:27Z</time>
      </trkpt>
      <trkpt lat="45.15252" lon="5.93044">
        <ele>1877</ele>
        <time>2020-08-11T11:15:28Z</time>
      </trkpt>
      <trkpt lat="45.15252" lon="5.93044">
        <ele>1877</ele>
        <time>2020-08-11T11:15:29Z</time>
      </trkpt>
      <trkpt lat="45.1525" lon="5.9304">
        <ele>1877</ele>
        <time>2020-08-11T11:15:30Z</time>
      </trkpt>
      <trkpt lat="45.15248" lon="5.93037">
        <ele>1876.8</ele>
        <time>2020-08-11T11:15:31Z</time>
      </trkpt>
      <trkpt lat="45.15248" lon="5.93037">
        <ele>1876.6</ele>
        <time>2020-08-11T11:15:32Z</time>
      </trkpt>
      <trkpt lat="45.15247" lon="5.93034">
        <ele>1876.4</ele>
        <time>2020-08-11T11:15:33Z</time>
      </trkpt>
      <trkpt lat="45.15247" lon="5.93034">
        <ele>1876.6</ele>
        <time>2020-08-11T11:15:34Z</time>
      </trkpt>
      <trkpt lat="45.15247" lon="5.93034">
        <ele>1876.6</ele>
        <time>2020-08-11T11:15:35Z</time>
      </trkpt>
      <trkpt lat="45.15246" lon="5.93032">
        <ele>1876.4</ele>
        <time>2020-08-11T11:15:36Z</time>
      </trkpt>
      <trkpt lat="45.15246" lon="5.93032">
        <ele>1876.6</ele>
        <time>2020-08-11T11:15:37Z</time>
      </trkpt>
      <trkpt lat="45.15245" lon="5.93029">
        <ele>1876.6</ele>
        <time>2020-08-11T11:15:38Z</time>
      </trkpt>
      <trkpt lat="45.15244" lon="5.93027">
        <ele>1876.6</ele>
        <time>2020-08-11T11:15:39Z</time>
      </trkpt>
      <trkpt lat="45.15243" lon="5.93024">
        <ele>1876.8</ele>
        <time>2020-08-11T11:15:40Z</time>
      </trkpt>
      <trkpt lat="45.15242" lon="5.93021">
        <ele>1876.8</ele>
        <time>2020-08-11T11:15:41Z</time>
      </trkpt>
      <trkpt lat="45.15241" lon="5.93019">
        <ele>1876.6</ele>
        <time>2020-08-11T11:15:42Z</time>
      </trkpt>
      <trkpt lat="45.1524" lon="5.93016">
        <ele>1876.6</ele>
        <time>2020-08-11T11:15:43Z</time>
      </trkpt>
      <trkpt lat="45.1524" lon="5.93016">
        <ele>1876.2</ele>
        <time>2020-08-11T11:15:44Z</time>
      </trkpt>
      <trkpt lat="45.15238" lon="5.93015">
        <ele>1876.2</ele>
        <time>2020-08-11T11:15:45Z</time>
      </trkpt>
      <trkpt lat="45.15237" lon="5.93013">
        <ele>1876.2</ele>
        <time>2020-08-11T11:15:46Z</time>
      </trkpt>
      <trkpt lat="45.15236" lon="5.93012">
        <ele>1876.4</ele>
        <time>2020-08-11T11:15:47Z</time>
      </trkpt>
      <trkpt lat="45.15235" lon="5.9301">
        <ele>1876.2</ele>
        <time>2020-08-11T11:15:48Z</time>
      </trkpt>
      <trkpt lat="45.15234" lon="5.93009">
        <ele>1876</ele>
        <time>2020-08-11T11:15:49Z</time>
      </trkpt>
      <trkpt lat="45.15232" lon="5.93007">
        <ele>1876</ele>
        <time>2020-08-11T11:15:50Z</time>
      </trkpt>
      <trkpt lat="45.15231" lon="5.93006">
        <ele>1876</ele>
        <time>2020-08-11T11:15:51Z</time>
      </trkpt>
      <trkpt lat="45.1523" lon="5.93004">
        <ele>1876</ele>
        <time>2020-08-11T11:15:52Z</time>
      </trkpt>
      <trkpt lat="45.15229" lon="5.93003">
        <ele>1876.2</ele>
        <time>2020-08-11T11:15:53Z</time>
      </trkpt>
      <trkpt lat="45.15228" lon="5.93001">
        <ele>1876.2</ele>
        <time>2020-08-11T11:15:54Z</time>
      </trkpt>
      <trkpt lat="45.15227" lon="5.93001">
        <ele>1876.2</ele>
        <time>2020-08-11T11:15:55Z</time>
      </trkpt>
      <trkpt lat="45.15226" lon="5.93">
        <ele>1876.2</ele>
        <time>2020-08-11T11:15:56Z</time>
      </trkpt>
      <trkpt lat="45.15226" lon="5.93">
        <ele>1876.2</ele>
        <time>2020-08-11T11:15:57Z</time>
      </trkpt>
      <trkpt lat="45.15225" lon="5.92998">
        <ele>1876</ele>
        <time>2020-08-11T11:15:58Z</time>
      </trkpt>
      <trkpt lat="45.15225" lon="5.92998">
        <ele>1876</ele>
        <time>2020-08-11T11:15:59Z</time>
      </trkpt>
      <trkpt lat="45.15222" lon="5.92996">
        <ele>1875.8</ele>
        <time>2020-08-11T11:16:00Z</time>
      </trkpt>
      <trkpt lat="45.15222" lon="5.92996">
        <ele>1875.6</ele>
        <time>2020-08-11T11:16:01Z</time>
      </trkpt>
      <trkpt lat="45.1522" lon="5.92992">
        <ele>1876.2</ele>
        <time>2020-08-11T11:16:02Z</time>
      </trkpt>
      <trkpt lat="45.1522" lon="5.92992">
        <ele>1876</ele>
        <time>2020-08-11T11:16:03Z</time>
      </trkpt>
      <trkpt lat="45.15219" lon="5.9299">
        <ele>1875.6</ele>
        <time>2020-08-11T11:16:04Z</time>
      </trkpt>
      <trkpt lat="45.15219" lon="5.9299">
        <ele>1875.4</ele>
        <time>2020-08-11T11:16:05Z</time>
      </trkpt>
      <trkpt lat="45.15217" lon="5.92988">
        <ele>1875.2</ele>
        <time>2020-08-11T11:16:06Z</time>
      </trkpt>
      <trkpt lat="45.15215" lon="5.92986">
        <ele>1875.4</ele>
        <time>2020-08-11T11:16:07Z</time>
      </trkpt>
      <trkpt lat="45.15215" lon="5.92986">
        <ele>1875.6</ele>
        <time>2020-08-11T11:16:08Z</time>
      </trkpt>
      <trkpt lat="45.15214" lon="5.92984">
        <ele>1875.8</ele>
        <time>2020-08-11T11:16:09Z</time>
      </trkpt>
      <trkpt lat="45.15214" lon="5.92984">
        <ele>1875.8</ele>
        <time>2020-08-11T11:16:10Z</time>
      </trkpt>
      <trkpt lat="45.15213" lon="5.92981">
        <ele>1875.8</ele>
        <time>2020-08-11T11:16:11Z</time>
      </trkpt>
      <trkpt lat="45.15213" lon="5.92981">
        <ele>1876</ele>
        <time>2020-08-11T11:16:12Z</time>
      </trkpt>
      <trkpt lat="45.1521" lon="5.92978">
        <ele>1876</ele>
        <time>2020-08-11T11:16:13Z</time>
      </trkpt>
      <trkpt lat="45.1521" lon="5.92978">
        <ele>1876.2</ele>
        <time>2020-08-11T11:16:14Z</time>
      </trkpt>
      <trkpt lat="45.15209" lon="5.92976">
        <ele>1876.2</ele>
        <time>2020-08-11T11:16:15Z</time>
      </trkpt>
      <trkpt lat="45.15207" lon="5.92971">
        <ele>1876.4</ele>
        <time>2020-08-11T11:16:16Z</time>
      </trkpt>
      <trkpt lat="45.15207" lon="5.92971">
        <ele>1876.4</ele>
        <time>2020-08-11T11:16:17Z</time>
      </trkpt>
      <trkpt lat="45.15205" lon="5.92968">
        <ele>1876.6</ele>
        <time>2020-08-11T11:16:18Z</time>
      </trkpt>
      <trkpt lat="45.15205" lon="5.92968">
        <ele>1876.8</ele>
        <time>2020-08-11T11:16:19Z</time>
      </trkpt>
      <trkpt lat="45.15205" lon="5.92968">
        <ele>1876.8</ele>
        <time>2020-08-11T11:16:20Z</time>
      </trkpt>
      <trkpt lat="45.15205" lon="5.92964">
        <ele>1877</ele>
        <time>2020-08-11T11:16:21Z</time>
      </trkpt>
      <trkpt lat="45.15204" lon="5.92961">
        <ele>1877.2</ele>
        <time>2020-08-11T11:16:22Z</time>
      </trkpt>
      <trkpt lat="45.15204" lon="5.92961">
        <ele>1877.2</ele>
        <time>2020-08-11T11:16:23Z</time>
      </trkpt>
      <trkpt lat="45.15204" lon="5.92961">
        <ele>1877.4</ele>
        <time>2020-08-11T11:16:24Z</time>
      </trkpt>
      <trkpt lat="45.15204" lon="5.92958">
        <ele>1877.6</ele>
        <time>2020-08-11T11:16:25Z</time>
      </trkpt>
      <trkpt lat="45.15204" lon="5.92958">
        <ele>1877.8</ele>
        <time>2020-08-11T11:16:26Z</time>
      </trkpt>
      <trkpt lat="45.15204" lon="5.92958">
        <ele>1878.2</ele>
        <time>2020-08-11T11:16:27Z</time>
      </trkpt>
      <trkpt lat="45.15204" lon="5.92958">
        <ele>1878</ele>
        <time>2020-08-11T11:16:28Z</time>
      </trkpt>
      <trkpt lat="45.15203" lon="5.92956">
        <ele>1878.4</ele>
        <time>2020-08-11T11:16:29Z</time>
      </trkpt>
      <trkpt lat="45.15202" lon="5.92954">
        <ele>1878.6</ele>
        <time>2020-08-11T11:16:30Z</time>
      </trkpt>
      <trkpt lat="45.15202" lon="5.92954">
        <ele>1878.8</ele>
        <time>2020-08-11T11:16:31Z</time>
      </trkpt>
      <trkpt lat="45.15202" lon="5.92954">
        <ele>1879</ele>
        <time>2020-08-11T11:16:32Z</time>
      </trkpt>
      <trkpt lat="45.15201" lon="5.92952">
        <ele>1879.4</ele>
        <time>2020-08-11T11:16:33Z</time>
      </trkpt>
      <trkpt lat="45.15201" lon="5.92952">
        <ele>1879.8</ele>
        <time>2020-08-11T11:16:34Z</time>
      </trkpt>
      <trkpt lat="45.15201" lon="5.92952">
        <ele>1880</ele>
        <time>2020-08-11T11:16:35Z</time>
      </trkpt>
      <trkpt lat="45.15201" lon="5.92952">
        <ele>1880.4</ele>
        <time>2020-08-11T11:16:36Z</time>
      </trkpt>
      <trkpt lat="45.152" lon="5.92949">
        <ele>1880.6</ele>
        <time>2020-08-11T11:16:37Z</time>
      </trkpt>
      <trkpt lat="45.152" lon="5.92949">
        <ele>1880.6</ele>
        <time>2020-08-11T11:16:38Z</time>
      </trkpt>
      <trkpt lat="45.152" lon="5.92949">
        <ele>1880.8</ele>
        <time>2020-08-11T11:16:39Z</time>
      </trkpt>
      <trkpt lat="45.152" lon="5.92949">
        <ele>1880.8</ele>
        <time>2020-08-11T11:16:40Z</time>
      </trkpt>
      <trkpt lat="45.15198" lon="5.92946">
        <ele>1881</ele>
        <time>2020-08-11T11:16:41Z</time>
      </trkpt>
      <trkpt lat="45.15196" lon="5.92943">
        <ele>1881.2</ele>
        <time>2020-08-11T11:16:42Z</time>
      </trkpt>
      <trkpt lat="45.15193" lon="5.92941">
        <ele>1881.4</ele>
        <time>2020-08-11T11:16:43Z</time>
      </trkpt>
      <trkpt lat="45.15192" lon="5.9294">
        <ele>1881.4</ele>
        <time>2020-08-11T11:16:44Z</time>
      </trkpt>
      <trkpt lat="45.15192" lon="5.9294">
        <ele>1881.6</ele>
        <time>2020-08-11T11:16:45Z</time>
      </trkpt>
      <trkpt lat="45.1519" lon="5.92938">
        <ele>1882</ele>
        <time>2020-08-11T11:16:46Z</time>
      </trkpt>
      <trkpt lat="45.15187" lon="5.92934">
        <ele>1882</ele>
        <time>2020-08-11T11:16:47Z</time>
      </trkpt>
      <trkpt lat="45.15185" lon="5.9293">
        <ele>1882</ele>
        <time>2020-08-11T11:16:48Z</time>
      </trkpt>
      <trkpt lat="45.15184" lon="5.9293">
        <ele>1881.6</ele>
        <time>2020-08-11T11:16:49Z</time>
      </trkpt>
      <trkpt lat="45.15184" lon="5.9293">
        <ele>1881.6</ele>
        <time>2020-08-11T11:16:50Z</time>
      </trkpt>
      <trkpt lat="45.15184" lon="5.9293">
        <ele>1881.4</ele>
        <time>2020-08-11T11:16:51Z</time>
      </trkpt>
      <trkpt lat="45.15182" lon="5.92926">
        <ele>1881</ele>
        <time>2020-08-11T11:16:52Z</time>
      </trkpt>
      <trkpt lat="45.15182" lon="5.92926">
        <ele>1881</ele>
        <time>2020-08-11T11:16:53Z</time>
      </trkpt>
      <trkpt lat="45.1518" lon="5.92925">
        <ele>1881</ele>
        <time>2020-08-11T11:16:54Z</time>
      </trkpt>
      <trkpt lat="45.15178" lon="5.92923">
        <ele>1881</ele>
        <time>2020-08-11T11:16:55Z</time>
      </trkpt>
      <trkpt lat="45.15177" lon="5.92922">
        <ele>1881</ele>
        <time>2020-08-11T11:16:56Z</time>
      </trkpt>
      <trkpt lat="45.15175" lon="5.9292">
        <ele>1881</ele>
        <time>2020-08-11T11:16:57Z</time>
      </trkpt>
      <trkpt lat="45.15173" lon="5.92919">
        <ele>1881.4</ele>
        <time>2020-08-11T11:16:58Z</time>
      </trkpt>
      <trkpt lat="45.15171" lon="5.92917">
        <ele>1881.6</ele>
        <time>2020-08-11T11:16:59Z</time>
      </trkpt>
      <trkpt lat="45.15171" lon="5.92917">
        <ele>1881.6</ele>
        <time>2020-08-11T11:17:00Z</time>
      </trkpt>
      <trkpt lat="45.15169" lon="5.92916">
        <ele>1881.6</ele>
        <time>2020-08-11T11:17:01Z</time>
      </trkpt>
      <trkpt lat="45.15166" lon="5.9291">
        <ele>1881.8</ele>
        <time>2020-08-11T11:17:02Z</time>
      </trkpt>
      <trkpt lat="45.15164" lon="5.92907">
        <ele>1882</ele>
        <time>2020-08-11T11:17:03Z</time>
      </trkpt>
      <trkpt lat="45.15163" lon="5.92905">
        <ele>1882.2</ele>
        <time>2020-08-11T11:17:04Z</time>
      </trkpt>
      <trkpt lat="45.15161" lon="5.92904">
        <ele>1882.2</ele>
        <time>2020-08-11T11:17:05Z</time>
      </trkpt>
      <trkpt lat="45.1516" lon="5.92901">
        <ele>1882.4</ele>
        <time>2020-08-11T11:17:06Z</time>
      </trkpt>
      <trkpt lat="45.15158" lon="5.92899">
        <ele>1882.6</ele>
        <time>2020-08-11T11:17:07Z</time>
      </trkpt>
      <trkpt lat="45.15157" lon="5.92897">
        <ele>1882.6</ele>
        <time>2020-08-11T11:17:08Z</time>
      </trkpt>
      <trkpt lat="45.15157" lon="5.92897">
        <ele>1882.4</ele>
        <time>2020-08-11T11:17:09Z</time>
      </trkpt>
      <trkpt lat="45.15157" lon="5.92897">
        <ele>1882.2</ele>
        <time>2020-08-11T11:17:10Z</time>
      </trkpt>
      <trkpt lat="45.15155" lon="5.92894">
        <ele>1882.2</ele>
        <time>2020-08-11T11:17:11Z</time>
      </trkpt>
      <trkpt lat="45.15154" lon="5.92891">
        <ele>1882.2</ele>
        <time>2020-08-11T11:17:12Z</time>
      </trkpt>
      <trkpt lat="45.15154" lon="5.92891">
        <ele>1882.2</ele>
        <time>2020-08-11T11:17:13Z</time>
      </trkpt>
      <trkpt lat="45.15154" lon="5.92891">
        <ele>1882.4</ele>
        <time>2020-08-11T11:17:14Z</time>
      </trkpt>
      <trkpt lat="45.15152" lon="5.9289">
        <ele>1882.4</ele>
        <time>2020-08-11T11:17:15Z</time>
      </trkpt>
      <trkpt lat="45.15152" lon="5.9289">
        <ele>1882.6</ele>
        <time>2020-08-11T11:17:16Z</time>
      </trkpt>
      <trkpt lat="45.1515" lon="5.92889">
        <ele>1882.6</ele>
        <time>2020-08-11T11:17:17Z</time>
      </trkpt>
      <trkpt lat="45.1515" lon="5.92889">
        <ele>1882.6</ele>
        <time>2020-08-11T11:17:18Z</time>
      </trkpt>
      <trkpt lat="45.1515" lon="5.92889">
        <ele>1882.4</ele>
        <time>2020-08-11T11:17:19Z</time>
      </trkpt>
      <trkpt lat="45.15148" lon="5.92887">
        <ele>1882.6</ele>
        <time>2020-08-11T11:17:20Z</time>
      </trkpt>
      <trkpt lat="45.15145" lon="5.92886">
        <ele>1882.8</ele>
        <time>2020-08-11T11:17:21Z</time>
      </trkpt>
      <trkpt lat="45.15145" lon="5.92886">
        <ele>1883.2</ele>
        <time>2020-08-11T11:17:22Z</time>
      </trkpt>
      <trkpt lat="45.15143" lon="5.92884">
        <ele>1883.2</ele>
        <time>2020-08-11T11:17:23Z</time>
      </trkpt>
      <trkpt lat="45.15141" lon="5.92883">
        <ele>1883</ele>
        <time>2020-08-11T11:17:24Z</time>
      </trkpt>
      <trkpt lat="45.15139" lon="5.92882">
        <ele>1883</ele>
        <time>2020-08-11T11:17:25Z</time>
      </trkpt>
      <trkpt lat="45.15137" lon="5.92881">
        <ele>1883.2</ele>
        <time>2020-08-11T11:17:26Z</time>
      </trkpt>
      <trkpt lat="45.15135" lon="5.92879">
        <ele>1883.4</ele>
        <time>2020-08-11T11:17:27Z</time>
      </trkpt>
      <trkpt lat="45.15133" lon="5.92878">
        <ele>1883.6</ele>
        <time>2020-08-11T11:17:28Z</time>
      </trkpt>
      <trkpt lat="45.15131" lon="5.92876">
        <ele>1884</ele>
        <time>2020-08-11T11:17:29Z</time>
      </trkpt>
      <trkpt lat="45.15129" lon="5.92875">
        <ele>1884</ele>
        <time>2020-08-11T11:17:30Z</time>
      </trkpt>
      <trkpt lat="45.15128" lon="5.92873">
        <ele>1884.6</ele>
        <time>2020-08-11T11:17:31Z</time>
      </trkpt>
      <trkpt lat="45.15126" lon="5.92871">
        <ele>1884.8</ele>
        <time>2020-08-11T11:17:32Z</time>
      </trkpt>
      <trkpt lat="45.15125" lon="5.92869">
        <ele>1884.6</ele>
        <time>2020-08-11T11:17:33Z</time>
      </trkpt>
      <trkpt lat="45.15125" lon="5.92869">
        <ele>1884.6</ele>
        <time>2020-08-11T11:17:34Z</time>
      </trkpt>
      <trkpt lat="45.15122" lon="5.92867">
        <ele>1884.6</ele>
        <time>2020-08-11T11:17:35Z</time>
      </trkpt>
      <trkpt lat="45.15122" lon="5.92867">
        <ele>1885</ele>
        <time>2020-08-11T11:17:36Z</time>
      </trkpt>
      <trkpt lat="45.15122" lon="5.92867">
        <ele>1885.2</ele>
        <time>2020-08-11T11:17:37Z</time>
      </trkpt>
      <trkpt lat="45.15122" lon="5.92867">
        <ele>1885.4</ele>
        <time>2020-08-11T11:17:38Z</time>
      </trkpt>
      <trkpt lat="45.15122" lon="5.92867">
        <ele>1885.2</ele>
        <time>2020-08-11T11:17:39Z</time>
      </trkpt>
      <trkpt lat="45.1512" lon="5.92867">
        <ele>1885</ele>
        <time>2020-08-11T11:17:40Z</time>
      </trkpt>
      <trkpt lat="45.1512" lon="5.92867">
        <ele>1885</ele>
        <time>2020-08-11T11:17:41Z</time>
      </trkpt>
      <trkpt lat="45.1512" lon="5.92867">
        <ele>1884.8</ele>
        <time>2020-08-11T11:17:42Z</time>
      </trkpt>
      <trkpt lat="45.1512" lon="5.92864">
        <ele>1884.8</ele>
        <time>2020-08-11T11:17:43Z</time>
      </trkpt>
      <trkpt lat="45.1512" lon="5.92864">
        <ele>1885</ele>
        <time>2020-08-11T11:17:44Z</time>
      </trkpt>
      <trkpt lat="45.1512" lon="5.92864">
        <ele>1884.8</ele>
        <time>2020-08-11T11:17:45Z</time>
      </trkpt>
      <trkpt lat="45.15118" lon="5.92862">
        <ele>1884.8</ele>
        <time>2020-08-11T11:17:46Z</time>
      </trkpt>
      <trkpt lat="45.15118" lon="5.92862">
        <ele>1884.8</ele>
        <time>2020-08-11T11:17:47Z</time>
      </trkpt>
      <trkpt lat="45.15118" lon="5.92862">
        <ele>1885</ele>
        <time>2020-08-11T11:17:48Z</time>
      </trkpt>
      <trkpt lat="45.15116" lon="5.9286">
        <ele>1884.8</ele>
        <time>2020-08-11T11:17:49Z</time>
      </trkpt>
      <trkpt lat="45.15114" lon="5.92857">
        <ele>1884.2</ele>
        <time>2020-08-11T11:17:50Z</time>
      </trkpt>
      <trkpt lat="45.15113" lon="5.92855">
        <ele>1883.8</ele>
        <time>2020-08-11T11:17:51Z</time>
      </trkpt>
      <trkpt lat="45.15112" lon="5.92853">
        <ele>1883.8</ele>
        <time>2020-08-11T11:17:52Z</time>
      </trkpt>
      <trkpt lat="45.15112" lon="5.92851">
        <ele>1883.4</ele>
        <time>2020-08-11T11:17:53Z</time>
      </trkpt>
      <trkpt lat="45.15111" lon="5.9285">
        <ele>1883.2</ele>
        <time>2020-08-11T11:17:54Z</time>
      </trkpt>
      <trkpt lat="45.15111" lon="5.92846">
        <ele>1883</ele>
        <time>2020-08-11T11:17:55Z</time>
      </trkpt>
      <trkpt lat="45.1511" lon="5.92844">
        <ele>1882.6</ele>
        <time>2020-08-11T11:17:56Z</time>
      </trkpt>
      <trkpt lat="45.15109" lon="5.92841">
        <ele>1881.6</ele>
        <time>2020-08-11T11:17:57Z</time>
      </trkpt>
      <trkpt lat="45.15108" lon="5.92839">
        <ele>1881.8</ele>
        <time>2020-08-11T11:17:58Z</time>
      </trkpt>
      <trkpt lat="45.15107" lon="5.92837">
        <ele>1881.8</ele>
        <time>2020-08-11T11:17:59Z</time>
      </trkpt>
      <trkpt lat="45.15106" lon="5.92834">
        <ele>1882</ele>
        <time>2020-08-11T11:18:00Z</time>
      </trkpt>
      <trkpt lat="45.15105" lon="5.92832">
        <ele>1881.6</ele>
        <time>2020-08-11T11:18:01Z</time>
      </trkpt>
      <trkpt lat="45.15103" lon="5.92829">
        <ele>1881.4</ele>
        <time>2020-08-11T11:18:02Z</time>
      </trkpt>
      <trkpt lat="45.15101" lon="5.92825">
        <ele>1880.8</ele>
        <time>2020-08-11T11:18:03Z</time>
      </trkpt>
      <trkpt lat="45.15101" lon="5.92824">
        <ele>1880.4</ele>
        <time>2020-08-11T11:18:04Z</time>
      </trkpt>
      <trkpt lat="45.15099" lon="5.92822">
        <ele>1880.6</ele>
        <time>2020-08-11T11:18:05Z</time>
      </trkpt>
      <trkpt lat="45.15099" lon="5.92822">
        <ele>1880.2</ele>
        <time>2020-08-11T11:18:06Z</time>
      </trkpt>
      <trkpt lat="45.15098" lon="5.92819">
        <ele>1880.4</ele>
        <time>2020-08-11T11:18:07Z</time>
      </trkpt>
      <trkpt lat="45.15096" lon="5.92815">
        <ele>1880.2</ele>
        <time>2020-08-11T11:18:08Z</time>
      </trkpt>
      <trkpt lat="45.15095" lon="5.92812">
        <ele>1880.4</ele>
        <time>2020-08-11T11:18:09Z</time>
      </trkpt>
      <trkpt lat="45.15094" lon="5.9281">
        <ele>1880.4</ele>
        <time>2020-08-11T11:18:10Z</time>
      </trkpt>
      <trkpt lat="45.15093" lon="5.92807">
        <ele>1880.6</ele>
        <time>2020-08-11T11:18:11Z</time>
      </trkpt>
      <trkpt lat="45.15092" lon="5.92804">
        <ele>1880.2</ele>
        <time>2020-08-11T11:18:12Z</time>
      </trkpt>
      <trkpt lat="45.15091" lon="5.92802">
        <ele>1880.4</ele>
        <time>2020-08-11T11:18:13Z</time>
      </trkpt>
      <trkpt lat="45.1509" lon="5.92799">
        <ele>1879.4</ele>
        <time>2020-08-11T11:18:14Z</time>
      </trkpt>
      <trkpt lat="45.1509" lon="5.92797">
        <ele>1879.4</ele>
        <time>2020-08-11T11:18:15Z</time>
      </trkpt>
      <trkpt lat="45.15089" lon="5.92793">
        <ele>1879.8</ele>
        <time>2020-08-11T11:18:16Z</time>
      </trkpt>
      <trkpt lat="45.15088" lon="5.9279">
        <ele>1879.4</ele>
        <time>2020-08-11T11:18:17Z</time>
      </trkpt>
      <trkpt lat="45.15087" lon="5.92787">
        <ele>1878.6</ele>
        <time>2020-08-11T11:18:18Z</time>
      </trkpt>
      <trkpt lat="45.15086" lon="5.92784">
        <ele>1879</ele>
        <time>2020-08-11T11:18:19Z</time>
      </trkpt>
      <trkpt lat="45.15084" lon="5.92782">
        <ele>1879</ele>
        <time>2020-08-11T11:18:20Z</time>
      </trkpt>
      <trkpt lat="45.15083" lon="5.92779">
        <ele>1879.2</ele>
        <time>2020-08-11T11:18:21Z</time>
      </trkpt>
      <trkpt lat="45.15082" lon="5.92776">
        <ele>1878.8</ele>
        <time>2020-08-11T11:18:22Z</time>
      </trkpt>
      <trkpt lat="45.15081" lon="5.92773">
        <ele>1878</ele>
        <time>2020-08-11T11:18:23Z</time>
      </trkpt>
      <trkpt lat="45.15079" lon="5.92771">
        <ele>1877.6</ele>
        <time>2020-08-11T11:18:24Z</time>
      </trkpt>
      <trkpt lat="45.15077" lon="5.92768">
        <ele>1877.6</ele>
        <time>2020-08-11T11:18:25Z</time>
      </trkpt>
      <trkpt lat="45.15077" lon="5.92764">
        <ele>1878</ele>
        <time>2020-08-11T11:18:26Z</time>
      </trkpt>
      <trkpt lat="45.15076" lon="5.9276">
        <ele>1877.8</ele>
        <time>2020-08-11T11:18:27Z</time>
      </trkpt>
      <trkpt lat="45.15075" lon="5.92757">
        <ele>1877.8</ele>
        <time>2020-08-11T11:18:28Z</time>
      </trkpt>
      <trkpt lat="45.15074" lon="5.92753">
        <ele>1877.2</ele>
        <time>2020-08-11T11:18:29Z</time>
      </trkpt>
      <trkpt lat="45.15073" lon="5.9275">
        <ele>1877.2</ele>
        <time>2020-08-11T11:18:30Z</time>
      </trkpt>
      <trkpt lat="45.15072" lon="5.92747">
        <ele>1877.4</ele>
        <time>2020-08-11T11:18:31Z</time>
      </trkpt>
      <trkpt lat="45.15071" lon="5.92743">
        <ele>1876.4</ele>
        <time>2020-08-11T11:18:32Z</time>
      </trkpt>
      <trkpt lat="45.15071" lon="5.92739">
        <ele>1875.8</ele>
        <time>2020-08-11T11:18:33Z</time>
      </trkpt>
      <trkpt lat="45.1507" lon="5.92736">
        <ele>1875.8</ele>
        <time>2020-08-11T11:18:34Z</time>
      </trkpt>
      <trkpt lat="45.15069" lon="5.92732">
        <ele>1876</ele>
        <time>2020-08-11T11:18:35Z</time>
      </trkpt>
      <trkpt lat="45.15069" lon="5.92729">
        <ele>1876</ele>
        <time>2020-08-11T11:18:36Z</time>
      </trkpt>
      <trkpt lat="45.15068" lon="5.92727">
        <ele>1876</ele>
        <time>2020-08-11T11:18:37Z</time>
      </trkpt>
      <trkpt lat="45.15068" lon="5.92727">
        <ele>1875.6</ele>
        <time>2020-08-11T11:18:38Z</time>
      </trkpt>
      <trkpt lat="45.15068" lon="5.92727">
        <ele>1875.6</ele>
        <time>2020-08-11T11:18:39Z</time>
      </trkpt>
      <trkpt lat="45.15067" lon="5.92723">
        <ele>1874.8</ele>
        <time>2020-08-11T11:18:40Z</time>
      </trkpt>
      <trkpt lat="45.15065" lon="5.92718">
        <ele>1874.4</ele>
        <time>2020-08-11T11:18:41Z</time>
      </trkpt>
      <trkpt lat="45.15063" lon="5.92715">
        <ele>1873.8</ele>
        <time>2020-08-11T11:18:42Z</time>
      </trkpt>
      <trkpt lat="45.15062" lon="5.92715">
        <ele>1872.8</ele>
        <time>2020-08-11T11:18:43Z</time>
      </trkpt>
      <trkpt lat="45.15062" lon="5.92715">
        <ele>1873</ele>
        <time>2020-08-11T11:18:44Z</time>
      </trkpt>
      <trkpt lat="45.1506" lon="5.92715">
        <ele>1873</ele>
        <time>2020-08-11T11:18:45Z</time>
      </trkpt>
      <trkpt lat="45.15056" lon="5.92718">
        <ele>1873</ele>
        <time>2020-08-11T11:18:46Z</time>
      </trkpt>
      <trkpt lat="45.15054" lon="5.92719">
        <ele>1872.4</ele>
        <time>2020-08-11T11:18:47Z</time>
      </trkpt>
      <trkpt lat="45.15052" lon="5.92721">
        <ele>1872</ele>
        <time>2020-08-11T11:18:48Z</time>
      </trkpt>
      <trkpt lat="45.15051" lon="5.92722">
        <ele>1871.8</ele>
        <time>2020-08-11T11:18:49Z</time>
      </trkpt>
      <trkpt lat="45.1505" lon="5.92723">
        <ele>1870</ele>
        <time>2020-08-11T11:18:50Z</time>
      </trkpt>
      <trkpt lat="45.15047" lon="5.92727">
        <ele>1869.6</ele>
        <time>2020-08-11T11:18:51Z</time>
      </trkpt>
      <trkpt lat="45.15047" lon="5.92727">
        <ele>1868.8</ele>
        <time>2020-08-11T11:18:52Z</time>
      </trkpt>
      <trkpt lat="45.15045" lon="5.92728">
        <ele>1869.2</ele>
        <time>2020-08-11T11:18:53Z</time>
      </trkpt>
      <trkpt lat="45.15041" lon="5.92726">
        <ele>1868.8</ele>
        <time>2020-08-11T11:18:54Z</time>
      </trkpt>
      <trkpt lat="45.15039" lon="5.92723">
        <ele>1868.4</ele>
        <time>2020-08-11T11:18:55Z</time>
      </trkpt>
      <trkpt lat="45.15037" lon="5.92721">
        <ele>1867.4</ele>
        <time>2020-08-11T11:18:56Z</time>
      </trkpt>
      <trkpt lat="45.15037" lon="5.92716">
        <ele>1866.8</ele>
        <time>2020-08-11T11:18:57Z</time>
      </trkpt>
      <trkpt lat="45.15036" lon="5.92712">
        <ele>1866.4</ele>
        <time>2020-08-11T11:18:58Z</time>
      </trkpt>
      <trkpt lat="45.15035" lon="5.92709">
        <ele>1865.6</ele>
        <time>2020-08-11T11:18:59Z</time>
      </trkpt>
      <trkpt lat="45.15033" lon="5.92705">
        <ele>1864.6</ele>
        <time>2020-08-11T11:19:00Z</time>
      </trkpt>
      <trkpt lat="45.15031" lon="5.92701">
        <ele>1865</ele>
        <time>2020-08-11T11:19:01Z</time>
      </trkpt>
      <trkpt lat="45.15029" lon="5.92698">
        <ele>1865</ele>
        <time>2020-08-11T11:19:02Z</time>
      </trkpt>
      <trkpt lat="45.15028" lon="5.92695">
        <ele>1865.4</ele>
        <time>2020-08-11T11:19:03Z</time>
      </trkpt>
      <trkpt lat="45.15026" lon="5.92694">
        <ele>1864.8</ele>
        <time>2020-08-11T11:19:04Z</time>
      </trkpt>
      <trkpt lat="45.15024" lon="5.92692">
        <ele>1864.6</ele>
        <time>2020-08-11T11:19:05Z</time>
      </trkpt>
      <trkpt lat="45.15024" lon="5.92692">
        <ele>1865</ele>
        <time>2020-08-11T11:19:06Z</time>
      </trkpt>
      <trkpt lat="45.15022" lon="5.92691">
        <ele>1864.6</ele>
        <time>2020-08-11T11:19:07Z</time>
      </trkpt>
      <trkpt lat="45.15018" lon="5.92692">
        <ele>1864.2</ele>
        <time>2020-08-11T11:19:08Z</time>
      </trkpt>
      <trkpt lat="45.15018" lon="5.92692">
        <ele>1864</ele>
        <time>2020-08-11T11:19:09Z</time>
      </trkpt>
      <trkpt lat="45.15016" lon="5.92693">
        <ele>1863.4</ele>
        <time>2020-08-11T11:19:10Z</time>
      </trkpt>
      <trkpt lat="45.15016" lon="5.92693">
        <ele>1862</ele>
        <time>2020-08-11T11:19:11Z</time>
      </trkpt>
      <trkpt lat="45.15016" lon="5.92696">
        <ele>1861.2</ele>
        <time>2020-08-11T11:19:12Z</time>
      </trkpt>
      <trkpt lat="45.15015" lon="5.92699">
        <ele>1861.4</ele>
        <time>2020-08-11T11:19:13Z</time>
      </trkpt>
      <trkpt lat="45.15015" lon="5.92703">
        <ele>1861.6</ele>
        <time>2020-08-11T11:19:14Z</time>
      </trkpt>
      <trkpt lat="45.15014" lon="5.92704">
        <ele>1861.4</ele>
        <time>2020-08-11T11:19:15Z</time>
      </trkpt>
      <trkpt lat="45.15013" lon="5.92706">
        <ele>1861</ele>
        <time>2020-08-11T11:19:16Z</time>
      </trkpt>
      <trkpt lat="45.15013" lon="5.92708">
        <ele>1860.4</ele>
        <time>2020-08-11T11:19:17Z</time>
      </trkpt>
      <trkpt lat="45.15012" lon="5.92712">
        <ele>1859.8</ele>
        <time>2020-08-11T11:19:18Z</time>
      </trkpt>
      <trkpt lat="45.15011" lon="5.92717">
        <ele>1860</ele>
        <time>2020-08-11T11:19:19Z</time>
      </trkpt>
      <trkpt lat="45.15011" lon="5.9272">
        <ele>1859.8</ele>
        <time>2020-08-11T11:19:20Z</time>
      </trkpt>
      <trkpt lat="45.15011" lon="5.92724">
        <ele>1860</ele>
        <time>2020-08-11T11:19:21Z</time>
      </trkpt>
      <trkpt lat="45.15011" lon="5.92727">
        <ele>1859.6</ele>
        <time>2020-08-11T11:19:22Z</time>
      </trkpt>
      <trkpt lat="45.15011" lon="5.9273">
        <ele>1859.6</ele>
        <time>2020-08-11T11:19:23Z</time>
      </trkpt>
      <trkpt lat="45.1501" lon="5.92734">
        <ele>1859</ele>
        <time>2020-08-11T11:19:24Z</time>
      </trkpt>
      <trkpt lat="45.1501" lon="5.92737">
        <ele>1858.8</ele>
        <time>2020-08-11T11:19:25Z</time>
      </trkpt>
      <trkpt lat="45.1501" lon="5.92737">
        <ele>1858.6</ele>
        <time>2020-08-11T11:19:26Z</time>
      </trkpt>
      <trkpt lat="45.1501" lon="5.92739">
        <ele>1857.4</ele>
        <time>2020-08-11T11:19:27Z</time>
      </trkpt>
      <trkpt lat="45.15011" lon="5.92742">
        <ele>1857.4</ele>
        <time>2020-08-11T11:19:28Z</time>
      </trkpt>
      <trkpt lat="45.15011" lon="5.92742">
        <ele>1857.2</ele>
        <time>2020-08-11T11:19:29Z</time>
      </trkpt>
      <trkpt lat="45.15012" lon="5.92747">
        <ele>1856.4</ele>
        <time>2020-08-11T11:19:30Z</time>
      </trkpt>
      <trkpt lat="45.15012" lon="5.92751">
        <ele>1856.2</ele>
        <time>2020-08-11T11:19:31Z</time>
      </trkpt>
      <trkpt lat="45.15012" lon="5.92755">
        <ele>1855.8</ele>
        <time>2020-08-11T11:19:32Z</time>
      </trkpt>
      <trkpt lat="45.15012" lon="5.92759">
        <ele>1855.6</ele>
        <time>2020-08-11T11:19:33Z</time>
      </trkpt>
      <trkpt lat="45.15012" lon="5.92762">
        <ele>1855.4</ele>
        <time>2020-08-11T11:19:34Z</time>
      </trkpt>
      <trkpt lat="45.15012" lon="5.92766">
        <ele>1854.6</ele>
        <time>2020-08-11T11:19:35Z</time>
      </trkpt>
      <trkpt lat="45.15012" lon="5.92769">
        <ele>1854.2</ele>
        <time>2020-08-11T11:19:36Z</time>
      </trkpt>
      <trkpt lat="45.15012" lon="5.92772">
        <ele>1854.4</ele>
        <time>2020-08-11T11:19:37Z</time>
      </trkpt>
      <trkpt lat="45.15012" lon="5.92776">
        <ele>1854</ele>
        <time>2020-08-11T11:19:38Z</time>
      </trkpt>
      <trkpt lat="45.15012" lon="5.9278">
        <ele>1853.6</ele>
        <time>2020-08-11T11:19:39Z</time>
      </trkpt>
      <trkpt lat="45.15011" lon="5.92783">
        <ele>1853.4</ele>
        <time>2020-08-11T11:19:40Z</time>
      </trkpt>
      <trkpt lat="45.15011" lon="5.92786">
        <ele>1852.8</ele>
        <time>2020-08-11T11:19:41Z</time>
      </trkpt>
      <trkpt lat="45.15011" lon="5.92786">
        <ele>1852.8</ele>
        <time>2020-08-11T11:19:42Z</time>
      </trkpt>
      <trkpt lat="45.15012" lon="5.9279">
        <ele>1852.4</ele>
        <time>2020-08-11T11:19:43Z</time>
      </trkpt>
      <trkpt lat="45.15012" lon="5.92796">
        <ele>1852</ele>
        <time>2020-08-11T11:19:44Z</time>
      </trkpt>
      <trkpt lat="45.15012" lon="5.92796">
        <ele>1851.2</ele>
        <time>2020-08-11T11:19:45Z</time>
      </trkpt>
      <trkpt lat="45.15012" lon="5.92799">
        <ele>1850.8</ele>
        <time>2020-08-11T11:19:46Z</time>
      </trkpt>
      <trkpt lat="45.15012" lon="5.92799">
        <ele>1850.8</ele>
        <time>2020-08-11T11:19:47Z</time>
      </trkpt>
      <trkpt lat="45.15013" lon="5.92803">
        <ele>1850.4</ele>
        <time>2020-08-11T11:19:48Z</time>
      </trkpt>
      <trkpt lat="45.15012" lon="5.92806">
        <ele>1849.6</ele>
        <time>2020-08-11T11:19:49Z</time>
      </trkpt>
      <trkpt lat="45.15012" lon="5.92806">
        <ele>1848.8</ele>
        <time>2020-08-11T11:19:50Z</time>
      </trkpt>
      <trkpt lat="45.15011" lon="5.92807">
        <ele>1848.8</ele>
        <time>2020-08-11T11:19:51Z</time>
      </trkpt>
      <trkpt lat="45.15011" lon="5.92807">
        <ele>1848.8</ele>
        <time>2020-08-11T11:19:52Z</time>
      </trkpt>
      <trkpt lat="45.15011" lon="5.92804">
        <ele>1848.2</ele>
        <time>2020-08-11T11:19:53Z</time>
      </trkpt>
      <trkpt lat="45.1501" lon="5.928">
        <ele>1848</ele>
        <time>2020-08-11T11:19:54Z</time>
      </trkpt>
      <trkpt lat="45.1501" lon="5.92797">
        <ele>1847.4</ele>
        <time>2020-08-11T11:19:55Z</time>
      </trkpt>
      <trkpt lat="45.15009" lon="5.92795">
        <ele>1847.2</ele>
        <time>2020-08-11T11:19:56Z</time>
      </trkpt>
      <trkpt lat="45.15007" lon="5.9279">
        <ele>1847.4</ele>
        <time>2020-08-11T11:19:57Z</time>
      </trkpt>
      <trkpt lat="45.15006" lon="5.92788">
        <ele>1846.6</ele>
        <time>2020-08-11T11:19:58Z</time>
      </trkpt>
      <trkpt lat="45.15005" lon="5.92785">
        <ele>1845.8</ele>
        <time>2020-08-11T11:19:59Z</time>
      </trkpt>
      <trkpt lat="45.15004" lon="5.92782">
        <ele>1845.8</ele>
        <time>2020-08-11T11:20:00Z</time>
      </trkpt>
      <trkpt lat="45.15003" lon="5.92779">
        <ele>1845.6</ele>
        <time>2020-08-11T11:20:01Z</time>
      </trkpt>
      <trkpt lat="45.15002" lon="5.92776">
        <ele>1845.6</ele>
        <time>2020-08-11T11:20:02Z</time>
      </trkpt>
      <trkpt lat="45.15002" lon="5.92776">
        <ele>1845.6</ele>
        <time>2020-08-11T11:20:03Z</time>
      </trkpt>
      <trkpt lat="45.15001" lon="5.92772">
        <ele>1844.8</ele>
        <time>2020-08-11T11:20:04Z</time>
      </trkpt>
      <trkpt lat="45.15001" lon="5.92772">
        <ele>1845.2</ele>
        <time>2020-08-11T11:20:05Z</time>
      </trkpt>
      <trkpt lat="45.14999" lon="5.92768">
        <ele>1844.8</ele>
        <time>2020-08-11T11:20:06Z</time>
      </trkpt>
      <trkpt lat="45.14998" lon="5.92765">
        <ele>1844.4</ele>
        <time>2020-08-11T11:20:07Z</time>
      </trkpt>
      <trkpt lat="45.14998" lon="5.92765">
        <ele>1843.4</ele>
        <time>2020-08-11T11:20:08Z</time>
      </trkpt>
      <trkpt lat="45.14998" lon="5.92765">
        <ele>1842.8</ele>
        <time>2020-08-11T11:20:09Z</time>
      </trkpt>
      <trkpt lat="45.14996" lon="5.9276">
        <ele>1841.8</ele>
        <time>2020-08-11T11:20:10Z</time>
      </trkpt>
      <trkpt lat="45.14996" lon="5.9276">
        <ele>1841.2</ele>
        <time>2020-08-11T11:20:11Z</time>
      </trkpt>
      <trkpt lat="45.14994" lon="5.92757">
        <ele>1840.6</ele>
        <time>2020-08-11T11:20:12Z</time>
      </trkpt>
      <trkpt lat="45.14994" lon="5.92757">
        <ele>1839.4</ele>
        <time>2020-08-11T11:20:13Z</time>
      </trkpt>
      <trkpt lat="45.14992" lon="5.9276">
        <ele>1840</ele>
        <time>2020-08-11T11:20:14Z</time>
      </trkpt>
      <trkpt lat="45.14991" lon="5.92762">
        <ele>1839.6</ele>
        <time>2020-08-11T11:20:15Z</time>
      </trkpt>
      <trkpt lat="45.14991" lon="5.92764">
        <ele>1839</ele>
        <time>2020-08-11T11:20:16Z</time>
      </trkpt>
      <trkpt lat="45.1499" lon="5.92765">
        <ele>1838.4</ele>
        <time>2020-08-11T11:20:17Z</time>
      </trkpt>
      <trkpt lat="45.1499" lon="5.92765">
        <ele>1837.4</ele>
        <time>2020-08-11T11:20:18Z</time>
      </trkpt>
      <trkpt lat="45.14989" lon="5.92769">
        <ele>1837.6</ele>
        <time>2020-08-11T11:20:19Z</time>
      </trkpt>
      <trkpt lat="45.14989" lon="5.92769">
        <ele>1837.6</ele>
        <time>2020-08-11T11:20:20Z</time>
      </trkpt>
      <trkpt lat="45.14988" lon="5.92771">
        <ele>1837.8</ele>
        <time>2020-08-11T11:20:21Z</time>
      </trkpt>
      <trkpt lat="45.14987" lon="5.92774">
        <ele>1837</ele>
        <time>2020-08-11T11:20:22Z</time>
      </trkpt>
      <trkpt lat="45.14987" lon="5.92774">
        <ele>1837</ele>
        <time>2020-08-11T11:20:23Z</time>
      </trkpt>
      <trkpt lat="45.14987" lon="5.92774">
        <ele>1836.2</ele>
        <time>2020-08-11T11:20:24Z</time>
      </trkpt>
      <trkpt lat="45.14986" lon="5.92778">
        <ele>1835.2</ele>
        <time>2020-08-11T11:20:25Z</time>
      </trkpt>
      <trkpt lat="45.14986" lon="5.92781">
        <ele>1835.4</ele>
        <time>2020-08-11T11:20:26Z</time>
      </trkpt>
      <trkpt lat="45.14985" lon="5.92783">
        <ele>1835</ele>
        <time>2020-08-11T11:20:27Z</time>
      </trkpt>
      <trkpt lat="45.14985" lon="5.92786">
        <ele>1835</ele>
        <time>2020-08-11T11:20:28Z</time>
      </trkpt>
      <trkpt lat="45.14985" lon="5.92786">
        <ele>1834.4</ele>
        <time>2020-08-11T11:20:29Z</time>
      </trkpt>
      <trkpt lat="45.14985" lon="5.92786">
        <ele>1833.8</ele>
        <time>2020-08-11T11:20:30Z</time>
      </trkpt>
      <trkpt lat="45.14984" lon="5.92788">
        <ele>1833.8</ele>
        <time>2020-08-11T11:20:31Z</time>
      </trkpt>
      <trkpt lat="45.14984" lon="5.92788">
        <ele>1833.2</ele>
        <time>2020-08-11T11:20:32Z</time>
      </trkpt>
      <trkpt lat="45.14982" lon="5.92791">
        <ele>1832.8</ele>
        <time>2020-08-11T11:20:33Z</time>
      </trkpt>
      <trkpt lat="45.14982" lon="5.92791">
        <ele>1832.6</ele>
        <time>2020-08-11T11:20:34Z</time>
      </trkpt>
      <trkpt lat="45.14982" lon="5.92791">
        <ele>1832.2</ele>
        <time>2020-08-11T11:20:35Z</time>
      </trkpt>
      <trkpt lat="45.1498" lon="5.92792">
        <ele>1831.6</ele>
        <time>2020-08-11T11:20:36Z</time>
      </trkpt>
      <trkpt lat="45.1498" lon="5.92792">
        <ele>1830.8</ele>
        <time>2020-08-11T11:20:37Z</time>
      </trkpt>
      <trkpt lat="45.14978" lon="5.92793">
        <ele>1830.6</ele>
        <time>2020-08-11T11:20:38Z</time>
      </trkpt>
      <trkpt lat="45.14978" lon="5.92793">
        <ele>1830.6</ele>
        <time>2020-08-11T11:20:39Z</time>
      </trkpt>
      <trkpt lat="45.14976" lon="5.92793">
        <ele>1830.4</ele>
        <time>2020-08-11T11:20:40Z</time>
      </trkpt>
      <trkpt lat="45.14974" lon="5.92792">
        <ele>1830</ele>
        <time>2020-08-11T11:20:41Z</time>
      </trkpt>
      <trkpt lat="45.14973" lon="5.9279">
        <ele>1829</ele>
        <time>2020-08-11T11:20:42Z</time>
      </trkpt>
      <trkpt lat="45.14972" lon="5.92789">
        <ele>1828.4</ele>
        <time>2020-08-11T11:20:43Z</time>
      </trkpt>
      <trkpt lat="45.1497" lon="5.92788">
        <ele>1828.8</ele>
        <time>2020-08-11T11:20:44Z</time>
      </trkpt>
      <trkpt lat="45.14969" lon="5.92786">
        <ele>1828.4</ele>
        <time>2020-08-11T11:20:45Z</time>
      </trkpt>
      <trkpt lat="45.14968" lon="5.92785">
        <ele>1828</ele>
        <time>2020-08-11T11:20:46Z</time>
      </trkpt>
      <trkpt lat="45.14966" lon="5.92784">
        <ele>1827.4</ele>
        <time>2020-08-11T11:20:47Z</time>
      </trkpt>
      <trkpt lat="45.14965" lon="5.92782">
        <ele>1826.2</ele>
        <time>2020-08-11T11:20:48Z</time>
      </trkpt>
      <trkpt lat="45.14964" lon="5.92781">
        <ele>1826.6</ele>
        <time>2020-08-11T11:20:49Z</time>
      </trkpt>
      <trkpt lat="45.14963" lon="5.9278">
        <ele>1826</ele>
        <time>2020-08-11T11:20:50Z</time>
      </trkpt>
      <trkpt lat="45.14961" lon="5.92778">
        <ele>1825.6</ele>
        <time>2020-08-11T11:20:51Z</time>
      </trkpt>
      <trkpt lat="45.1496" lon="5.92777">
        <ele>1824.8</ele>
        <time>2020-08-11T11:20:52Z</time>
      </trkpt>
      <trkpt lat="45.1496" lon="5.92774">
        <ele>1823.4</ele>
        <time>2020-08-11T11:20:53Z</time>
      </trkpt>
      <trkpt lat="45.1496" lon="5.92771">
        <ele>1824</ele>
        <time>2020-08-11T11:20:54Z</time>
      </trkpt>
      <trkpt lat="45.1496" lon="5.92767">
        <ele>1823.8</ele>
        <time>2020-08-11T11:20:55Z</time>
      </trkpt>
      <trkpt lat="45.1496" lon="5.92764">
        <ele>1824</ele>
        <time>2020-08-11T11:20:56Z</time>
      </trkpt>
      <trkpt lat="45.1496" lon="5.92764">
        <ele>1823</ele>
        <time>2020-08-11T11:20:58Z</time>
      </trkpt>
      <trkpt lat="45.14959" lon="5.92764">
        <ele>1822.2</ele>
        <time>2020-08-11T11:20:59Z</time>
      </trkpt>
      <trkpt lat="45.14958" lon="5.92763">
        <ele>1822</ele>
        <time>2020-08-11T11:21:00Z</time>
      </trkpt>
      <trkpt lat="45.14957" lon="5.92763">
        <ele>1821.4</ele>
        <time>2020-08-11T11:21:01Z</time>
      </trkpt>
      <trkpt lat="45.14955" lon="5.92763">
        <ele>1820.4</ele>
        <time>2020-08-11T11:21:02Z</time>
      </trkpt>
      <trkpt lat="45.14954" lon="5.92763">
        <ele>1819.8</ele>
        <time>2020-08-11T11:21:03Z</time>
      </trkpt>
      <trkpt lat="45.14953" lon="5.92762">
        <ele>1818.8</ele>
        <time>2020-08-11T11:21:04Z</time>
      </trkpt>
      <trkpt lat="45.14952" lon="5.92762">
        <ele>1818.8</ele>
        <time>2020-08-11T11:21:05Z</time>
      </trkpt>
      <trkpt lat="45.14951" lon="5.92762">
        <ele>1818.8</ele>
        <time>2020-08-11T11:21:06Z</time>
      </trkpt>
      <trkpt lat="45.1495" lon="5.92762">
        <ele>1818.6</ele>
        <time>2020-08-11T11:21:07Z</time>
      </trkpt>
      <trkpt lat="45.14949" lon="5.92761">
        <ele>1818.4</ele>
        <time>2020-08-11T11:21:08Z</time>
      </trkpt>
      <trkpt lat="45.14948" lon="5.92761">
        <ele>1818.4</ele>
        <time>2020-08-11T11:21:09Z</time>
      </trkpt>
      <trkpt lat="45.14947" lon="5.9276">
        <ele>1818.2</ele>
        <time>2020-08-11T11:21:10Z</time>
      </trkpt>
      <trkpt lat="45.14946" lon="5.92759">
        <ele>1818.2</ele>
        <time>2020-08-11T11:21:11Z</time>
      </trkpt>
      <trkpt lat="45.14945" lon="5.92758">
        <ele>1817.4</ele>
        <time>2020-08-11T11:21:12Z</time>
      </trkpt>
      <trkpt lat="45.14944" lon="5.92756">
        <ele>1817.2</ele>
        <time>2020-08-11T11:21:13Z</time>
      </trkpt>
      <trkpt lat="45.14943" lon="5.92755">
        <ele>1816.4</ele>
        <time>2020-08-11T11:21:14Z</time>
      </trkpt>
      <trkpt lat="45.14942" lon="5.92754">
        <ele>1816.2</ele>
        <time>2020-08-11T11:21:15Z</time>
      </trkpt>
      <trkpt lat="45.14941" lon="5.92753">
        <ele>1815.6</ele>
        <time>2020-08-11T11:21:16Z</time>
      </trkpt>
      <trkpt lat="45.1494" lon="5.92752">
        <ele>1815.2</ele>
        <time>2020-08-11T11:21:17Z</time>
      </trkpt>
      <trkpt lat="45.14939" lon="5.92752">
        <ele>1814.4</ele>
        <time>2020-08-11T11:21:18Z</time>
      </trkpt>
      <trkpt lat="45.14939" lon="5.92751">
        <ele>1813.8</ele>
        <time>2020-08-11T11:21:19Z</time>
      </trkpt>
      <trkpt lat="45.14938" lon="5.92751">
        <ele>1813.4</ele>
        <time>2020-08-11T11:21:20Z</time>
      </trkpt>
      <trkpt lat="45.14937" lon="5.9275">
        <ele>1813.2</ele>
        <time>2020-08-11T11:21:21Z</time>
      </trkpt>
      <trkpt lat="45.14937" lon="5.92749">
        <ele>1812.6</ele>
        <time>2020-08-11T11:21:22Z</time>
      </trkpt>
      <trkpt lat="45.14936" lon="5.92749">
        <ele>1812</ele>
        <time>2020-08-11T11:21:23Z</time>
      </trkpt>
      <trkpt lat="45.14935" lon="5.92748">
        <ele>1811.6</ele>
        <time>2020-08-11T11:21:24Z</time>
      </trkpt>
      <trkpt lat="45.14934" lon="5.92748">
        <ele>1811.4</ele>
        <time>2020-08-11T11:21:25Z</time>
      </trkpt>
      <trkpt lat="45.14934" lon="5.92747">
        <ele>1811</ele>
        <time>2020-08-11T11:21:26Z</time>
      </trkpt>
      <trkpt lat="45.14933" lon="5.92747">
        <ele>1810.2</ele>
        <time>2020-08-11T11:21:27Z</time>
      </trkpt>
      <trkpt lat="45.14932" lon="5.92746">
        <ele>1809</ele>
        <time>2020-08-11T11:21:28Z</time>
      </trkpt>
      <trkpt lat="45.14931" lon="5.92746">
        <ele>1808.2</ele>
        <time>2020-08-11T11:21:29Z</time>
      </trkpt>
      <trkpt lat="45.1493" lon="5.92745">
        <ele>1808.2</ele>
        <time>2020-08-11T11:21:30Z</time>
      </trkpt>
      <trkpt lat="45.14929" lon="5.92745">
        <ele>1807.8</ele>
        <time>2020-08-11T11:21:31Z</time>
      </trkpt>
      <trkpt lat="45.14928" lon="5.92744">
        <ele>1807.4</ele>
        <time>2020-08-11T11:21:32Z</time>
      </trkpt>
      <trkpt lat="45.14928" lon="5.92743">
        <ele>1806.4</ele>
        <time>2020-08-11T11:21:33Z</time>
      </trkpt>
      <trkpt lat="45.14927" lon="5.92743">
        <ele>1805.8</ele>
        <time>2020-08-11T11:21:34Z</time>
      </trkpt>
      <trkpt lat="45.14926" lon="5.92742">
        <ele>1805.4</ele>
        <time>2020-08-11T11:21:35Z</time>
      </trkpt>
      <trkpt lat="45.14925" lon="5.92742">
        <ele>1805.2</ele>
        <time>2020-08-11T11:21:36Z</time>
      </trkpt>
      <trkpt lat="45.14924" lon="5.92741">
        <ele>1804.6</ele>
        <time>2020-08-11T11:21:37Z</time>
      </trkpt>
      <trkpt lat="45.14923" lon="5.9274">
        <ele>1804.6</ele>
        <time>2020-08-11T11:21:38Z</time>
      </trkpt>
      <trkpt lat="45.14921" lon="5.92741">
        <ele>1803.6</ele>
        <time>2020-08-11T11:21:39Z</time>
      </trkpt>
      <trkpt lat="45.1492" lon="5.92741">
        <ele>1803.2</ele>
        <time>2020-08-11T11:21:40Z</time>
      </trkpt>
      <trkpt lat="45.14919" lon="5.92741">
        <ele>1802.4</ele>
        <time>2020-08-11T11:21:41Z</time>
      </trkpt>
      <trkpt lat="45.14917" lon="5.92742">
        <ele>1802</ele>
        <time>2020-08-11T11:21:42Z</time>
      </trkpt>
      <trkpt lat="45.14916" lon="5.92742">
        <ele>1801.4</ele>
        <time>2020-08-11T11:21:43Z</time>
      </trkpt>
      <trkpt lat="45.14914" lon="5.92742">
        <ele>1801</ele>
        <time>2020-08-11T11:21:44Z</time>
      </trkpt>
      <trkpt lat="45.14913" lon="5.92743">
        <ele>1800.2</ele>
        <time>2020-08-11T11:21:45Z</time>
      </trkpt>
      <trkpt lat="45.14911" lon="5.92743">
        <ele>1799.8</ele>
        <time>2020-08-11T11:21:46Z</time>
      </trkpt>
      <trkpt lat="45.1491" lon="5.92744">
        <ele>1799.2</ele>
        <time>2020-08-11T11:21:47Z</time>
      </trkpt>
      <trkpt lat="45.14908" lon="5.92745">
        <ele>1798.6</ele>
        <time>2020-08-11T11:21:48Z</time>
      </trkpt>
      <trkpt lat="45.14906" lon="5.92746">
        <ele>1797.4</ele>
        <time>2020-08-11T11:21:49Z</time>
      </trkpt>
      <trkpt lat="45.14905" lon="5.92747">
        <ele>1796.8</ele>
        <time>2020-08-11T11:21:50Z</time>
      </trkpt>
      <trkpt lat="45.14903" lon="5.92748">
        <ele>1797</ele>
        <time>2020-08-11T11:21:51Z</time>
      </trkpt>
      <trkpt lat="45.14903" lon="5.92745">
        <ele>1796.4</ele>
        <time>2020-08-11T11:21:52Z</time>
      </trkpt>
      <trkpt lat="45.14903" lon="5.92742">
        <ele>1796</ele>
        <time>2020-08-11T11:21:53Z</time>
      </trkpt>
      <trkpt lat="45.14903" lon="5.92739">
        <ele>1795.8</ele>
        <time>2020-08-11T11:21:54Z</time>
      </trkpt>
      <trkpt lat="45.14904" lon="5.92735">
        <ele>1795</ele>
        <time>2020-08-11T11:21:55Z</time>
      </trkpt>
      <trkpt lat="45.14903" lon="5.92734">
        <ele>1794</ele>
        <time>2020-08-11T11:21:56Z</time>
      </trkpt>
      <trkpt lat="45.14903" lon="5.92732">
        <ele>1793.6</ele>
        <time>2020-08-11T11:21:57Z</time>
      </trkpt>
      <trkpt lat="45.14903" lon="5.92731">
        <ele>1793.6</ele>
        <time>2020-08-11T11:21:58Z</time>
      </trkpt>
      <trkpt lat="45.14903" lon="5.92729">
        <ele>1792.6</ele>
        <time>2020-08-11T11:21:59Z</time>
      </trkpt>
      <trkpt lat="45.14903" lon="5.92728">
        <ele>1792.2</ele>
        <time>2020-08-11T11:22:00Z</time>
      </trkpt>
      <trkpt lat="45.14903" lon="5.92726">
        <ele>1791.8</ele>
        <time>2020-08-11T11:22:01Z</time>
      </trkpt>
      <trkpt lat="45.14903" lon="5.92724">
        <ele>1791.2</ele>
        <time>2020-08-11T11:22:02Z</time>
      </trkpt>
      <trkpt lat="45.14902" lon="5.92723">
        <ele>1790.2</ele>
        <time>2020-08-11T11:22:03Z</time>
      </trkpt>
      <trkpt lat="45.14902" lon="5.92721">
        <ele>1790.6</ele>
        <time>2020-08-11T11:22:04Z</time>
      </trkpt>
      <trkpt lat="45.14902" lon="5.92719">
        <ele>1790</ele>
        <time>2020-08-11T11:22:05Z</time>
      </trkpt>
      <trkpt lat="45.14902" lon="5.92717">
        <ele>1789.8</ele>
        <time>2020-08-11T11:22:06Z</time>
      </trkpt>
      <trkpt lat="45.14903" lon="5.92714">
        <ele>1789.2</ele>
        <time>2020-08-11T11:22:07Z</time>
      </trkpt>
      <trkpt lat="45.14903" lon="5.92712">
        <ele>1788.6</ele>
        <time>2020-08-11T11:22:08Z</time>
      </trkpt>
      <trkpt lat="45.14903" lon="5.9271">
        <ele>1788.2</ele>
        <time>2020-08-11T11:22:09Z</time>
      </trkpt>
      <trkpt lat="45.14903" lon="5.92707">
        <ele>1788.2</ele>
        <time>2020-08-11T11:22:10Z</time>
      </trkpt>
      <trkpt lat="45.14902" lon="5.92706">
        <ele>1787.4</ele>
        <time>2020-08-11T11:22:11Z</time>
      </trkpt>
      <trkpt lat="45.14902" lon="5.92705">
        <ele>1786.6</ele>
        <time>2020-08-11T11:22:12Z</time>
      </trkpt>
      <trkpt lat="45.14902" lon="5.92704">
        <ele>1786.8</ele>
        <time>2020-08-11T11:22:13Z</time>
      </trkpt>
      <trkpt lat="45.14901" lon="5.92703">
        <ele>1786.2</ele>
        <time>2020-08-11T11:22:14Z</time>
      </trkpt>
      <trkpt lat="45.14901" lon="5.92702">
        <ele>1786.2</ele>
        <time>2020-08-11T11:22:15Z</time>
      </trkpt>
      <trkpt lat="45.14901" lon="5.92701">
        <ele>1786</ele>
        <time>2020-08-11T11:22:16Z</time>
      </trkpt>
      <trkpt lat="45.149" lon="5.927">
        <ele>1785.8</ele>
        <time>2020-08-11T11:22:17Z</time>
      </trkpt>
      <trkpt lat="45.149" lon="5.92699">
        <ele>1785.4</ele>
        <time>2020-08-11T11:22:18Z</time>
      </trkpt>
      <trkpt lat="45.149" lon="5.92698">
        <ele>1784.6</ele>
        <time>2020-08-11T11:22:19Z</time>
      </trkpt>
      <trkpt lat="45.14899" lon="5.92696">
        <ele>1784.4</ele>
        <time>2020-08-11T11:22:20Z</time>
      </trkpt>
      <trkpt lat="45.14899" lon="5.92695">
        <ele>1784.2</ele>
        <time>2020-08-11T11:22:21Z</time>
      </trkpt>
      <trkpt lat="45.14899" lon="5.92694">
        <ele>1783.6</ele>
        <time>2020-08-11T11:22:22Z</time>
      </trkpt>
      <trkpt lat="45.14897" lon="5.92695">
        <ele>1783.2</ele>
        <time>2020-08-11T11:22:23Z</time>
      </trkpt>
      <trkpt lat="45.14896" lon="5.92695">
        <ele>1783</ele>
        <time>2020-08-11T11:22:24Z</time>
      </trkpt>
      <trkpt lat="45.14895" lon="5.92695">
        <ele>1782.4</ele>
        <time>2020-08-11T11:22:25Z</time>
      </trkpt>
      <trkpt lat="45.14894" lon="5.92695">
        <ele>1782.4</ele>
        <time>2020-08-11T11:22:26Z</time>
      </trkpt>
      <trkpt lat="45.14893" lon="5.92696">
        <ele>1782.2</ele>
        <time>2020-08-11T11:22:27Z</time>
      </trkpt>
      <trkpt lat="45.14891" lon="5.92696">
        <ele>1781.6</ele>
        <time>2020-08-11T11:22:28Z</time>
      </trkpt>
      <trkpt lat="45.1489" lon="5.92696">
        <ele>1781</ele>
        <time>2020-08-11T11:22:29Z</time>
      </trkpt>
      <trkpt lat="45.14889" lon="5.92696">
        <ele>1780.4</ele>
        <time>2020-08-11T11:22:30Z</time>
      </trkpt>
      <trkpt lat="45.14888" lon="5.92697">
        <ele>1779.8</ele>
        <time>2020-08-11T11:22:31Z</time>
      </trkpt>
      <trkpt lat="45.14887" lon="5.92697">
        <ele>1779.2</ele>
        <time>2020-08-11T11:22:32Z</time>
      </trkpt>
      <trkpt lat="45.14886" lon="5.92698">
        <ele>1778.4</ele>
        <time>2020-08-11T11:22:33Z</time>
      </trkpt>
      <trkpt lat="45.14885" lon="5.92698">
        <ele>1778.4</ele>
        <time>2020-08-11T11:22:34Z</time>
      </trkpt>
      <trkpt lat="45.14884" lon="5.92699">
        <ele>1777.8</ele>
        <time>2020-08-11T11:22:35Z</time>
      </trkpt>
      <trkpt lat="45.14883" lon="5.927">
        <ele>1777.4</ele>
        <time>2020-08-11T11:22:36Z</time>
      </trkpt>
      <trkpt lat="45.14882" lon="5.927">
        <ele>1776.2</ele>
        <time>2020-08-11T11:22:37Z</time>
      </trkpt>
      <trkpt lat="45.14881" lon="5.92701">
        <ele>1776</ele>
        <time>2020-08-11T11:22:38Z</time>
      </trkpt>
      <trkpt lat="45.1488" lon="5.92701">
        <ele>1775.6</ele>
        <time>2020-08-11T11:22:39Z</time>
      </trkpt>
      <trkpt lat="45.1488" lon="5.927">
        <ele>1775.6</ele>
        <time>2020-08-11T11:22:40Z</time>
      </trkpt>
      <trkpt lat="45.1488" lon="5.92699">
        <ele>1775.4</ele>
        <time>2020-08-11T11:22:41Z</time>
      </trkpt>
      <trkpt lat="45.14881" lon="5.92699">
        <ele>1775</ele>
        <time>2020-08-11T11:22:42Z</time>
      </trkpt>
      <trkpt lat="45.14881" lon="5.92698">
        <ele>1774.2</ele>
        <time>2020-08-11T11:22:43Z</time>
      </trkpt>
      <trkpt lat="45.14881" lon="5.92697">
        <ele>1774</ele>
        <time>2020-08-11T11:22:44Z</time>
      </trkpt>
      <trkpt lat="45.14882" lon="5.92696">
        <ele>1773.8</ele>
        <time>2020-08-11T11:22:45Z</time>
      </trkpt>
      <trkpt lat="45.14882" lon="5.92695">
        <ele>1773.6</ele>
        <time>2020-08-11T11:22:46Z</time>
      </trkpt>
      <trkpt lat="45.14882" lon="5.92695">
        <ele>1773.2</ele>
        <time>2020-08-11T11:22:47Z</time>
      </trkpt>
      <trkpt lat="45.14882" lon="5.92694">
        <ele>1772.8</ele>
        <time>2020-08-11T11:22:48Z</time>
      </trkpt>
      <trkpt lat="45.14883" lon="5.92693">
        <ele>1772.6</ele>
        <time>2020-08-11T11:22:49Z</time>
      </trkpt>
      <trkpt lat="45.14883" lon="5.92692">
        <ele>1772.2</ele>
        <time>2020-08-11T11:22:50Z</time>
      </trkpt>
      <trkpt lat="45.14883" lon="5.92692">
        <ele>1771.4</ele>
        <time>2020-08-11T11:22:51Z</time>
      </trkpt>
      <trkpt lat="45.14884" lon="5.92691">
        <ele>1771.6</ele>
        <time>2020-08-11T11:22:52Z</time>
      </trkpt>
      <trkpt lat="45.14884" lon="5.9269">
        <ele>1771</ele>
        <time>2020-08-11T11:22:53Z</time>
      </trkpt>
      <trkpt lat="45.14884" lon="5.92689">
        <ele>1770.8</ele>
        <time>2020-08-11T11:22:54Z</time>
      </trkpt>
      <trkpt lat="45.14884" lon="5.92688">
        <ele>1770</ele>
        <time>2020-08-11T11:22:55Z</time>
      </trkpt>
      <trkpt lat="45.14884" lon="5.92685">
        <ele>1770.2</ele>
        <time>2020-08-11T11:22:56Z</time>
      </trkpt>
      <trkpt lat="45.14884" lon="5.92682">
        <ele>1769.8</ele>
        <time>2020-08-11T11:22:57Z</time>
      </trkpt>
      <trkpt lat="45.14884" lon="5.92679">
        <ele>1769</ele>
        <time>2020-08-11T11:22:58Z</time>
      </trkpt>
      <trkpt lat="45.14884" lon="5.92676">
        <ele>1768.8</ele>
        <time>2020-08-11T11:22:59Z</time>
      </trkpt>
      <trkpt lat="45.14884" lon="5.92673">
        <ele>1769</ele>
        <time>2020-08-11T11:23:00Z</time>
      </trkpt>
      <trkpt lat="45.14883" lon="5.92672">
        <ele>1768.6</ele>
        <time>2020-08-11T11:23:01Z</time>
      </trkpt>
      <trkpt lat="45.14882" lon="5.92671">
        <ele>1768.4</ele>
        <time>2020-08-11T11:23:02Z</time>
      </trkpt>
      <trkpt lat="45.14882" lon="5.9267">
        <ele>1767.8</ele>
        <time>2020-08-11T11:23:03Z</time>
      </trkpt>
      <trkpt lat="45.14881" lon="5.92669">
        <ele>1767.8</ele>
        <time>2020-08-11T11:23:04Z</time>
      </trkpt>
      <trkpt lat="45.1488" lon="5.92668">
        <ele>1767.6</ele>
        <time>2020-08-11T11:23:05Z</time>
      </trkpt>
      <trkpt lat="45.1488" lon="5.92667">
        <ele>1766.8</ele>
        <time>2020-08-11T11:23:06Z</time>
      </trkpt>
      <trkpt lat="45.14879" lon="5.92666">
        <ele>1766.4</ele>
        <time>2020-08-11T11:23:07Z</time>
      </trkpt>
      <trkpt lat="45.14879" lon="5.92665">
        <ele>1765.4</ele>
        <time>2020-08-11T11:23:08Z</time>
      </trkpt>
      <trkpt lat="45.14878" lon="5.92663">
        <ele>1764.4</ele>
        <time>2020-08-11T11:23:09Z</time>
      </trkpt>
      <trkpt lat="45.14877" lon="5.92668">
        <ele>1763.6</ele>
        <time>2020-08-11T11:23:10Z</time>
      </trkpt>
      <trkpt lat="45.14876" lon="5.92673">
        <ele>1762.8</ele>
        <time>2020-08-11T11:23:11Z</time>
      </trkpt>
      <trkpt lat="45.14876" lon="5.92678">
        <ele>1762.4</ele>
        <time>2020-08-11T11:23:12Z</time>
      </trkpt>
      <trkpt lat="45.14875" lon="5.92682">
        <ele>1762.4</ele>
        <time>2020-08-11T11:23:13Z</time>
      </trkpt>
      <trkpt lat="45.14874" lon="5.92687">
        <ele>1762</ele>
        <time>2020-08-11T11:23:14Z</time>
      </trkpt>
      <trkpt lat="45.14873" lon="5.92692">
        <ele>1761.8</ele>
        <time>2020-08-11T11:23:15Z</time>
      </trkpt>
      <trkpt lat="45.14872" lon="5.92699">
        <ele>1761</ele>
        <time>2020-08-11T11:23:16Z</time>
      </trkpt>
      <trkpt lat="45.14872" lon="5.92699">
        <ele>1760.4</ele>
        <time>2020-08-11T11:23:17Z</time>
      </trkpt>
      <trkpt lat="45.14873" lon="5.92703">
        <ele>1760.2</ele>
        <time>2020-08-11T11:23:18Z</time>
      </trkpt>
      <trkpt lat="45.14874" lon="5.92707">
        <ele>1759.8</ele>
        <time>2020-08-11T11:23:19Z</time>
      </trkpt>
      <trkpt lat="45.14875" lon="5.92711">
        <ele>1759.8</ele>
        <time>2020-08-11T11:23:20Z</time>
      </trkpt>
      <trkpt lat="45.14875" lon="5.9271">
        <ele>1759.4</ele>
        <time>2020-08-11T11:23:21Z</time>
      </trkpt>
      <trkpt lat="45.14874" lon="5.92708">
        <ele>1759.2</ele>
        <time>2020-08-11T11:23:22Z</time>
      </trkpt>
      <trkpt lat="45.14874" lon="5.92706">
        <ele>1758.6</ele>
        <time>2020-08-11T11:23:23Z</time>
      </trkpt>
      <trkpt lat="45.14874" lon="5.92705">
        <ele>1758.4</ele>
        <time>2020-08-11T11:23:24Z</time>
      </trkpt>
      <trkpt lat="45.14874" lon="5.92703">
        <ele>1758</ele>
        <time>2020-08-11T11:23:25Z</time>
      </trkpt>
      <trkpt lat="45.14873" lon="5.92702">
        <ele>1757.6</ele>
        <time>2020-08-11T11:23:26Z</time>
      </trkpt>
      <trkpt lat="45.14873" lon="5.927">
        <ele>1756.6</ele>
        <time>2020-08-11T11:23:27Z</time>
      </trkpt>
      <trkpt lat="45.14873" lon="5.92699">
        <ele>1755.8</ele>
        <time>2020-08-11T11:23:28Z</time>
      </trkpt>
      <trkpt lat="45.14873" lon="5.92697">
        <ele>1756</ele>
        <time>2020-08-11T11:23:29Z</time>
      </trkpt>
      <trkpt lat="45.14873" lon="5.92695">
        <ele>1755.6</ele>
        <time>2020-08-11T11:23:30Z</time>
      </trkpt>
      <trkpt lat="45.14872" lon="5.92692">
        <ele>1755.6</ele>
        <time>2020-08-11T11:23:31Z</time>
      </trkpt>
      <trkpt lat="45.14872" lon="5.9269">
        <ele>1754.6</ele>
        <time>2020-08-11T11:23:32Z</time>
      </trkpt>
      <trkpt lat="45.14872" lon="5.92687">
        <ele>1754</ele>
        <time>2020-08-11T11:23:33Z</time>
      </trkpt>
      <trkpt lat="45.14872" lon="5.92685">
        <ele>1754.2</ele>
        <time>2020-08-11T11:23:34Z</time>
      </trkpt>
      <trkpt lat="45.14872" lon="5.92683">
        <ele>1753.6</ele>
        <time>2020-08-11T11:23:35Z</time>
      </trkpt>
      <trkpt lat="45.14872" lon="5.9268">
        <ele>1753.2</ele>
        <time>2020-08-11T11:23:36Z</time>
      </trkpt>
      <trkpt lat="45.14872" lon="5.92678">
        <ele>1753</ele>
        <time>2020-08-11T11:23:37Z</time>
      </trkpt>
      <trkpt lat="45.14874" lon="5.92681">
        <ele>1752.6</ele>
        <time>2020-08-11T11:23:38Z</time>
      </trkpt>
      <trkpt lat="45.14876" lon="5.92684">
        <ele>1752.4</ele>
        <time>2020-08-11T11:23:39Z</time>
      </trkpt>
      <trkpt lat="45.14878" lon="5.92687">
        <ele>1751.4</ele>
        <time>2020-08-11T11:23:40Z</time>
      </trkpt>
      <trkpt lat="45.1488" lon="5.9269">
        <ele>1750.8</ele>
        <time>2020-08-11T11:23:41Z</time>
      </trkpt>
      <trkpt lat="45.14882" lon="5.92694">
        <ele>1750.6</ele>
        <time>2020-08-11T11:23:42Z</time>
      </trkpt>
      <trkpt lat="45.14884" lon="5.92697">
        <ele>1750.2</ele>
        <time>2020-08-11T11:23:43Z</time>
      </trkpt>
      <trkpt lat="45.14887" lon="5.92701">
        <ele>1750.2</ele>
        <time>2020-08-11T11:23:44Z</time>
      </trkpt>
      <trkpt lat="45.14896" lon="5.92717">
        <ele>1750</ele>
        <time>2020-08-11T11:23:45Z</time>
      </trkpt>
      <trkpt lat="45.14896" lon="5.92717">
        <ele>1749.6</ele>
        <time>2020-08-11T11:23:46Z</time>
      </trkpt>
      <trkpt lat="45.14894" lon="5.92718">
        <ele>1749.2</ele>
        <time>2020-08-11T11:23:47Z</time>
      </trkpt>
      <trkpt lat="45.14892" lon="5.92719">
        <ele>1749.4</ele>
        <time>2020-08-11T11:23:48Z</time>
      </trkpt>
      <trkpt lat="45.14891" lon="5.9272">
        <ele>1749</ele>
        <time>2020-08-11T11:23:49Z</time>
      </trkpt>
      <trkpt lat="45.14889" lon="5.92722">
        <ele>1749</ele>
        <time>2020-08-11T11:23:50Z</time>
      </trkpt>
      <trkpt lat="45.14887" lon="5.92723">
        <ele>1748.4</ele>
        <time>2020-08-11T11:23:51Z</time>
      </trkpt>
      <trkpt lat="45.14886" lon="5.92724">
        <ele>1748.2</ele>
        <time>2020-08-11T11:23:52Z</time>
      </trkpt>
      <trkpt lat="45.14883" lon="5.92724">
        <ele>1747.6</ele>
        <time>2020-08-11T11:23:53Z</time>
      </trkpt>
      <trkpt lat="45.14881" lon="5.92724">
        <ele>1747</ele>
        <time>2020-08-11T11:23:54Z</time>
      </trkpt>
      <trkpt lat="45.14879" lon="5.92723">
        <ele>1746.6</ele>
        <time>2020-08-11T11:23:55Z</time>
      </trkpt>
      <trkpt lat="45.14877" lon="5.92723">
        <ele>1746.6</ele>
        <time>2020-08-11T11:23:56Z</time>
      </trkpt>
      <trkpt lat="45.14875" lon="5.92723">
        <ele>1746.2</ele>
        <time>2020-08-11T11:23:57Z</time>
      </trkpt>
      <trkpt lat="45.14872" lon="5.92723">
        <ele>1746.2</ele>
        <time>2020-08-11T11:23:58Z</time>
      </trkpt>
      <trkpt lat="45.1487" lon="5.92722">
        <ele>1745.6</ele>
        <time>2020-08-11T11:23:59Z</time>
      </trkpt>
      <trkpt lat="45.14868" lon="5.92722">
        <ele>1745.2</ele>
        <time>2020-08-11T11:24:00Z</time>
      </trkpt>
      <trkpt lat="45.14863" lon="5.92716">
        <ele>1744.6</ele>
        <time>2020-08-11T11:24:01Z</time>
      </trkpt>
      <trkpt lat="45.14861" lon="5.92714">
        <ele>1744.2</ele>
        <time>2020-08-11T11:24:02Z</time>
      </trkpt>
      <trkpt lat="45.1486" lon="5.92713">
        <ele>1744.2</ele>
        <time>2020-08-11T11:24:03Z</time>
      </trkpt>
      <trkpt lat="45.14857" lon="5.9271">
        <ele>1743.8</ele>
        <time>2020-08-11T11:24:04Z</time>
      </trkpt>
      <trkpt lat="45.14853" lon="5.92707">
        <ele>1743.6</ele>
        <time>2020-08-11T11:24:05Z</time>
      </trkpt>
      <trkpt lat="45.14851" lon="5.92704">
        <ele>1743.4</ele>
        <time>2020-08-11T11:24:06Z</time>
      </trkpt>
      <trkpt lat="45.14849" lon="5.92701">
        <ele>1743</ele>
        <time>2020-08-11T11:24:07Z</time>
      </trkpt>
      <trkpt lat="45.14847" lon="5.92698">
        <ele>1742.4</ele>
        <time>2020-08-11T11:24:08Z</time>
      </trkpt>
      <trkpt lat="45.14844" lon="5.92694">
        <ele>1742.4</ele>
        <time>2020-08-11T11:24:09Z</time>
      </trkpt>
      <trkpt lat="45.14842" lon="5.9269">
        <ele>1742</ele>
        <time>2020-08-11T11:24:10Z</time>
      </trkpt>
      <trkpt lat="45.1484" lon="5.92686">
        <ele>1741</ele>
        <time>2020-08-11T11:24:11Z</time>
      </trkpt>
      <trkpt lat="45.14838" lon="5.92682">
        <ele>1740.8</ele>
        <time>2020-08-11T11:24:12Z</time>
      </trkpt>
      <trkpt lat="45.14837" lon="5.92679">
        <ele>1740.8</ele>
        <time>2020-08-11T11:24:13Z</time>
      </trkpt>
      <trkpt lat="45.14835" lon="5.92676">
        <ele>1740</ele>
        <time>2020-08-11T11:24:14Z</time>
      </trkpt>
      <trkpt lat="45.14832" lon="5.92671">
        <ele>1739.6</ele>
        <time>2020-08-11T11:24:15Z</time>
      </trkpt>
      <trkpt lat="45.14828" lon="5.92667">
        <ele>1739</ele>
        <time>2020-08-11T11:24:16Z</time>
      </trkpt>
      <trkpt lat="45.14825" lon="5.92662">
        <ele>1738.2</ele>
        <time>2020-08-11T11:24:17Z</time>
      </trkpt>
      <trkpt lat="45.14821" lon="5.92656">
        <ele>1738.4</ele>
        <time>2020-08-11T11:24:18Z</time>
      </trkpt>
      <trkpt lat="45.14817" lon="5.92649">
        <ele>1738</ele>
        <time>2020-08-11T11:24:19Z</time>
      </trkpt>
      <trkpt lat="45.14813" lon="5.92643">
        <ele>1737.2</ele>
        <time>2020-08-11T11:24:20Z</time>
      </trkpt>
      <trkpt lat="45.14807" lon="5.9264">
        <ele>1737</ele>
        <time>2020-08-11T11:24:21Z</time>
      </trkpt>
      <trkpt lat="45.14807" lon="5.9264">
        <ele>1737</ele>
        <time>2020-08-11T11:24:22Z</time>
      </trkpt>
      <trkpt lat="45.14807" lon="5.9264">
        <ele>1736.4</ele>
        <time>2020-08-11T11:24:23Z</time>
      </trkpt>
      <trkpt lat="45.14804" lon="5.92638">
        <ele>1736.4</ele>
        <time>2020-08-11T11:24:24Z</time>
      </trkpt>
      <trkpt lat="45.14801" lon="5.92636">
        <ele>1736</ele>
        <time>2020-08-11T11:24:25Z</time>
      </trkpt>
      <trkpt lat="45.14798" lon="5.92633">
        <ele>1735.8</ele>
        <time>2020-08-11T11:24:26Z</time>
      </trkpt>
      <trkpt lat="45.14797" lon="5.92632">
        <ele>1735</ele>
        <time>2020-08-11T11:24:27Z</time>
      </trkpt>
      <trkpt lat="45.14796" lon="5.92631">
        <ele>1734.4</ele>
        <time>2020-08-11T11:24:28Z</time>
      </trkpt>
      <trkpt lat="45.14795" lon="5.92629">
        <ele>1734.4</ele>
        <time>2020-08-11T11:24:29Z</time>
      </trkpt>
      <trkpt lat="45.14795" lon="5.92628">
        <ele>1734.4</ele>
        <time>2020-08-11T11:24:30Z</time>
      </trkpt>
      <trkpt lat="45.14794" lon="5.92626">
        <ele>1733.8</ele>
        <time>2020-08-11T11:24:31Z</time>
      </trkpt>
      <trkpt lat="45.14793" lon="5.92625">
        <ele>1733.6</ele>
        <time>2020-08-11T11:24:32Z</time>
      </trkpt>
      <trkpt lat="45.14792" lon="5.92623">
        <ele>1733.6</ele>
        <time>2020-08-11T11:24:33Z</time>
      </trkpt>
      <trkpt lat="45.14792" lon="5.92622">
        <ele>1733.2</ele>
        <time>2020-08-11T11:24:34Z</time>
      </trkpt>
      <trkpt lat="45.14793" lon="5.9262">
        <ele>1733</ele>
        <time>2020-08-11T11:24:35Z</time>
      </trkpt>
      <trkpt lat="45.14793" lon="5.92619">
        <ele>1733</ele>
        <time>2020-08-11T11:24:36Z</time>
      </trkpt>
      <trkpt lat="45.14793" lon="5.92617">
        <ele>1732.6</ele>
        <time>2020-08-11T11:24:37Z</time>
      </trkpt>
      <trkpt lat="45.14794" lon="5.92616">
        <ele>1731.6</ele>
        <time>2020-08-11T11:24:38Z</time>
      </trkpt>
      <trkpt lat="45.14794" lon="5.92614">
        <ele>1731.2</ele>
        <time>2020-08-11T11:24:39Z</time>
      </trkpt>
      <trkpt lat="45.14794" lon="5.92612">
        <ele>1731.2</ele>
        <time>2020-08-11T11:24:40Z</time>
      </trkpt>
      <trkpt lat="45.14795" lon="5.92611">
        <ele>1731.2</ele>
        <time>2020-08-11T11:24:41Z</time>
      </trkpt>
      <trkpt lat="45.14795" lon="5.92609">
        <ele>1730.6</ele>
        <time>2020-08-11T11:24:42Z</time>
      </trkpt>
      <trkpt lat="45.14796" lon="5.92608">
        <ele>1729.8</ele>
        <time>2020-08-11T11:24:43Z</time>
      </trkpt>
      <trkpt lat="45.14797" lon="5.92606">
        <ele>1729.4</ele>
        <time>2020-08-11T11:24:44Z</time>
      </trkpt>
      <trkpt lat="45.14798" lon="5.92605">
        <ele>1728.6</ele>
        <time>2020-08-11T11:24:45Z</time>
      </trkpt>
      <trkpt lat="45.148" lon="5.92603">
        <ele>1728.4</ele>
        <time>2020-08-11T11:24:46Z</time>
      </trkpt>
      <trkpt lat="45.14801" lon="5.92602">
        <ele>1728.4</ele>
        <time>2020-08-11T11:24:47Z</time>
      </trkpt>
      <trkpt lat="45.14802" lon="5.926">
        <ele>1728</ele>
        <time>2020-08-11T11:24:48Z</time>
      </trkpt>
      <trkpt lat="45.14803" lon="5.92599">
        <ele>1727.4</ele>
        <time>2020-08-11T11:24:49Z</time>
      </trkpt>
      <trkpt lat="45.14804" lon="5.92597">
        <ele>1726</ele>
        <time>2020-08-11T11:24:50Z</time>
      </trkpt>
      <trkpt lat="45.14805" lon="5.92595">
        <ele>1726</ele>
        <time>2020-08-11T11:24:51Z</time>
      </trkpt>
      <trkpt lat="45.14806" lon="5.92593">
        <ele>1726</ele>
        <time>2020-08-11T11:24:52Z</time>
      </trkpt>
      <trkpt lat="45.14806" lon="5.92592">
        <ele>1725.4</ele>
        <time>2020-08-11T11:24:53Z</time>
      </trkpt>
      <trkpt lat="45.14807" lon="5.9259">
        <ele>1725</ele>
        <time>2020-08-11T11:24:54Z</time>
      </trkpt>
      <trkpt lat="45.14808" lon="5.9259">
        <ele>1724.2</ele>
        <time>2020-08-11T11:24:55Z</time>
      </trkpt>
      <trkpt lat="45.14809" lon="5.92591">
        <ele>1723.4</ele>
        <time>2020-08-11T11:24:56Z</time>
      </trkpt>
      <trkpt lat="45.14809" lon="5.92591">
        <ele>1723.6</ele>
        <time>2020-08-11T11:24:57Z</time>
      </trkpt>
      <trkpt lat="45.1481" lon="5.92592">
        <ele>1723.6</ele>
        <time>2020-08-11T11:24:58Z</time>
      </trkpt>
      <trkpt lat="45.14811" lon="5.92592">
        <ele>1723.4</ele>
        <time>2020-08-11T11:24:59Z</time>
      </trkpt>
      <trkpt lat="45.14811" lon="5.92592">
        <ele>1722.4</ele>
        <time>2020-08-11T11:25:00Z</time>
      </trkpt>
      <trkpt lat="45.14812" lon="5.92593">
        <ele>1722.2</ele>
        <time>2020-08-11T11:25:01Z</time>
      </trkpt>
      <trkpt lat="45.14813" lon="5.92593">
        <ele>1721.8</ele>
        <time>2020-08-11T11:25:02Z</time>
      </trkpt>
      <trkpt lat="45.14814" lon="5.92594">
        <ele>1721.6</ele>
        <time>2020-08-11T11:25:03Z</time>
      </trkpt>
      <trkpt lat="45.14814" lon="5.92594">
        <ele>1721.4</ele>
        <time>2020-08-11T11:25:04Z</time>
      </trkpt>
      <trkpt lat="45.14815" lon="5.92595">
        <ele>1721.2</ele>
        <time>2020-08-11T11:25:05Z</time>
      </trkpt>
      <trkpt lat="45.14816" lon="5.92595">
        <ele>1720.8</ele>
        <time>2020-08-11T11:25:06Z</time>
      </trkpt>
      <trkpt lat="45.14816" lon="5.92596">
        <ele>1720.2</ele>
        <time>2020-08-11T11:25:07Z</time>
      </trkpt>
      <trkpt lat="45.14816" lon="5.92598">
        <ele>1720.4</ele>
        <time>2020-08-11T11:25:08Z</time>
      </trkpt>
      <trkpt lat="45.14816" lon="5.92601">
        <ele>1720.2</ele>
        <time>2020-08-11T11:25:09Z</time>
      </trkpt>
      <trkpt lat="45.14816" lon="5.92603">
        <ele>1719.6</ele>
        <time>2020-08-11T11:25:10Z</time>
      </trkpt>
      <trkpt lat="45.14815" lon="5.92606">
        <ele>1719</ele>
        <time>2020-08-11T11:25:11Z</time>
      </trkpt>
      <trkpt lat="45.14815" lon="5.92608">
        <ele>1718.6</ele>
        <time>2020-08-11T11:25:12Z</time>
      </trkpt>
      <trkpt lat="45.14815" lon="5.92611">
        <ele>1717.8</ele>
        <time>2020-08-11T11:25:13Z</time>
      </trkpt>
      <trkpt lat="45.14815" lon="5.92613">
        <ele>1716.8</ele>
        <time>2020-08-11T11:25:14Z</time>
      </trkpt>
      <trkpt lat="45.14814" lon="5.92616">
        <ele>1717</ele>
        <time>2020-08-11T11:25:15Z</time>
      </trkpt>
      <trkpt lat="45.14816" lon="5.92622">
        <ele>1716.6</ele>
        <time>2020-08-11T11:25:16Z</time>
      </trkpt>
      <trkpt lat="45.14819" lon="5.92626">
        <ele>1716.2</ele>
        <time>2020-08-11T11:25:17Z</time>
      </trkpt>
      <trkpt lat="45.14821" lon="5.9263">
        <ele>1716.6</ele>
        <time>2020-08-11T11:25:18Z</time>
      </trkpt>
      <trkpt lat="45.14826" lon="5.92638">
        <ele>1716.6</ele>
        <time>2020-08-11T11:25:19Z</time>
      </trkpt>
      <trkpt lat="45.14829" lon="5.92643">
        <ele>1716.4</ele>
        <time>2020-08-11T11:25:20Z</time>
      </trkpt>
      <trkpt lat="45.14829" lon="5.92643">
        <ele>1716.2</ele>
        <time>2020-08-11T11:25:21Z</time>
      </trkpt>
      <trkpt lat="45.1483" lon="5.92644">
        <ele>1716</ele>
        <time>2020-08-11T11:25:22Z</time>
      </trkpt>
      <trkpt lat="45.14831" lon="5.92644">
        <ele>1715.8</ele>
        <time>2020-08-11T11:25:23Z</time>
      </trkpt>
      <trkpt lat="45.14831" lon="5.92645">
        <ele>1715.8</ele>
        <time>2020-08-11T11:25:24Z</time>
      </trkpt>
      <trkpt lat="45.14832" lon="5.92645">
        <ele>1715.6</ele>
        <time>2020-08-11T11:25:25Z</time>
      </trkpt>
      <trkpt lat="45.14833" lon="5.92646">
        <ele>1715.4</ele>
        <time>2020-08-11T11:25:26Z</time>
      </trkpt>
      <trkpt lat="45.14834" lon="5.92646">
        <ele>1714.6</ele>
        <time>2020-08-11T11:25:27Z</time>
      </trkpt>
      <trkpt lat="45.14834" lon="5.92646">
        <ele>1714</ele>
        <time>2020-08-11T11:25:28Z</time>
      </trkpt>
      <trkpt lat="45.14835" lon="5.92647">
        <ele>1714</ele>
        <time>2020-08-11T11:25:29Z</time>
      </trkpt>
      <trkpt lat="45.14836" lon="5.92647">
        <ele>1712.4</ele>
        <time>2020-08-11T11:25:30Z</time>
      </trkpt>
      <trkpt lat="45.14836" lon="5.92648">
        <ele>1711.6</ele>
        <time>2020-08-11T11:25:31Z</time>
      </trkpt>
      <trkpt lat="45.14837" lon="5.92648">
        <ele>1711.6</ele>
        <time>2020-08-11T11:25:32Z</time>
      </trkpt>
      <trkpt lat="45.14838" lon="5.92649">
        <ele>1711.6</ele>
        <time>2020-08-11T11:25:33Z</time>
      </trkpt>
      <trkpt lat="45.1484" lon="5.92648">
        <ele>1711.6</ele>
        <time>2020-08-11T11:25:34Z</time>
      </trkpt>
      <trkpt lat="45.14842" lon="5.92647">
        <ele>1711</ele>
        <time>2020-08-11T11:25:35Z</time>
      </trkpt>
      <trkpt lat="45.14844" lon="5.92645">
        <ele>1710.8</ele>
        <time>2020-08-11T11:25:36Z</time>
      </trkpt>
      <trkpt lat="45.14846" lon="5.92644">
        <ele>1711</ele>
        <time>2020-08-11T11:25:37Z</time>
      </trkpt>
      <trkpt lat="45.14848" lon="5.92643">
        <ele>1710.6</ele>
        <time>2020-08-11T11:25:38Z</time>
      </trkpt>
      <trkpt lat="45.14849" lon="5.92642">
        <ele>1710.2</ele>
        <time>2020-08-11T11:25:39Z</time>
      </trkpt>
      <trkpt lat="45.14851" lon="5.92641">
        <ele>1709.6</ele>
        <time>2020-08-11T11:25:40Z</time>
      </trkpt>
      <trkpt lat="45.14852" lon="5.9264">
        <ele>1709.4</ele>
        <time>2020-08-11T11:25:41Z</time>
      </trkpt>
      <trkpt lat="45.14854" lon="5.92639">
        <ele>1708.8</ele>
        <time>2020-08-11T11:25:42Z</time>
      </trkpt>
      <trkpt lat="45.14855" lon="5.92638">
        <ele>1709.2</ele>
        <time>2020-08-11T11:25:43Z</time>
      </trkpt>
      <trkpt lat="45.14857" lon="5.92637">
        <ele>1708.8</ele>
        <time>2020-08-11T11:25:44Z</time>
      </trkpt>
      <trkpt lat="45.14856" lon="5.92637">
        <ele>1708</ele>
        <time>2020-08-11T11:25:45Z</time>
      </trkpt>
      <trkpt lat="45.14855" lon="5.92636">
        <ele>1707.2</ele>
        <time>2020-08-11T11:25:46Z</time>
      </trkpt>
      <trkpt lat="45.14855" lon="5.92636">
        <ele>1707.2</ele>
        <time>2020-08-11T11:25:47Z</time>
      </trkpt>
      <trkpt lat="45.14854" lon="5.92635">
        <ele>1706.4</ele>
        <time>2020-08-11T11:25:48Z</time>
      </trkpt>
      <trkpt lat="45.14853" lon="5.92635">
        <ele>1706.4</ele>
        <time>2020-08-11T11:25:49Z</time>
      </trkpt>
      <trkpt lat="45.14853" lon="5.92635">
        <ele>1706</ele>
        <time>2020-08-11T11:25:50Z</time>
      </trkpt>
      <trkpt lat="45.14852" lon="5.92634">
        <ele>1706.2</ele>
        <time>2020-08-11T11:25:51Z</time>
      </trkpt>
      <trkpt lat="45.14851" lon="5.92634">
        <ele>1705.8</ele>
        <time>2020-08-11T11:25:52Z</time>
      </trkpt>
      <trkpt lat="45.14851" lon="5.92634">
        <ele>1705.6</ele>
        <time>2020-08-11T11:25:53Z</time>
      </trkpt>
      <trkpt lat="45.1485" lon="5.92633">
        <ele>1705.2</ele>
        <time>2020-08-11T11:25:54Z</time>
      </trkpt>
      <trkpt lat="45.1485" lon="5.92633">
        <ele>1704.6</ele>
        <time>2020-08-11T11:25:55Z</time>
      </trkpt>
      <trkpt lat="45.14849" lon="5.92633">
        <ele>1704.2</ele>
        <time>2020-08-11T11:25:56Z</time>
      </trkpt>
      <trkpt lat="45.14848" lon="5.92632">
        <ele>1703.6</ele>
        <time>2020-08-11T11:25:57Z</time>
      </trkpt>
      <trkpt lat="45.14848" lon="5.92632">
        <ele>1703</ele>
        <time>2020-08-11T11:25:58Z</time>
      </trkpt>
      <trkpt lat="45.14847" lon="5.92632">
        <ele>1703</ele>
        <time>2020-08-11T11:25:59Z</time>
      </trkpt>
      <trkpt lat="45.14846" lon="5.92631">
        <ele>1702.6</ele>
        <time>2020-08-11T11:26:00Z</time>
      </trkpt>
      <trkpt lat="45.14844" lon="5.92631">
        <ele>1702.2</ele>
        <time>2020-08-11T11:26:01Z</time>
      </trkpt>
      <trkpt lat="45.14843" lon="5.92631">
        <ele>1701.8</ele>
        <time>2020-08-11T11:26:02Z</time>
      </trkpt>
      <trkpt lat="45.14841" lon="5.92631">
        <ele>1702.2</ele>
        <time>2020-08-11T11:26:03Z</time>
      </trkpt>
      <trkpt lat="45.1484" lon="5.9263">
        <ele>1701.8</ele>
        <time>2020-08-11T11:26:04Z</time>
      </trkpt>
      <trkpt lat="45.14839" lon="5.9263">
        <ele>1701.6</ele>
        <time>2020-08-11T11:26:05Z</time>
      </trkpt>
      <trkpt lat="45.14837" lon="5.9263">
        <ele>1701.8</ele>
        <time>2020-08-11T11:26:06Z</time>
      </trkpt>
      <trkpt lat="45.14836" lon="5.92629">
        <ele>1701.4</ele>
        <time>2020-08-11T11:26:07Z</time>
      </trkpt>
      <trkpt lat="45.14835" lon="5.92629">
        <ele>1701.2</ele>
        <time>2020-08-11T11:26:08Z</time>
      </trkpt>
      <trkpt lat="45.14834" lon="5.92628">
        <ele>1700.8</ele>
        <time>2020-08-11T11:26:09Z</time>
      </trkpt>
      <trkpt lat="45.14833" lon="5.92627">
        <ele>1699.8</ele>
        <time>2020-08-11T11:26:10Z</time>
      </trkpt>
      <trkpt lat="45.14831" lon="5.92627">
        <ele>1699.8</ele>
        <time>2020-08-11T11:26:11Z</time>
      </trkpt>
      <trkpt lat="45.1483" lon="5.92626">
        <ele>1699.6</ele>
        <time>2020-08-11T11:26:12Z</time>
      </trkpt>
      <trkpt lat="45.14829" lon="5.92626">
        <ele>1699.6</ele>
        <time>2020-08-11T11:26:13Z</time>
      </trkpt>
      <trkpt lat="45.14828" lon="5.92625">
        <ele>1699.6</ele>
        <time>2020-08-11T11:26:14Z</time>
      </trkpt>
      <trkpt lat="45.14827" lon="5.92626">
        <ele>1699.2</ele>
        <time>2020-08-11T11:26:15Z</time>
      </trkpt>
      <trkpt lat="45.14826" lon="5.92627">
        <ele>1698.8</ele>
        <time>2020-08-11T11:26:16Z</time>
      </trkpt>
      <trkpt lat="45.14825" lon="5.92628">
        <ele>1698.6</ele>
        <time>2020-08-11T11:26:17Z</time>
      </trkpt>
      <trkpt lat="45.14824" lon="5.92629">
        <ele>1698</ele>
        <time>2020-08-11T11:26:18Z</time>
      </trkpt>
      <trkpt lat="45.14823" lon="5.9263">
        <ele>1697.8</ele>
        <time>2020-08-11T11:26:19Z</time>
      </trkpt>
      <trkpt lat="45.14822" lon="5.92631">
        <ele>1698</ele>
        <time>2020-08-11T11:26:20Z</time>
      </trkpt>
      <trkpt lat="45.14821" lon="5.92632">
        <ele>1697.4</ele>
        <time>2020-08-11T11:26:21Z</time>
      </trkpt>
      <trkpt lat="45.1482" lon="5.92632">
        <ele>1697.2</ele>
        <time>2020-08-11T11:26:22Z</time>
      </trkpt>
      <trkpt lat="45.14818" lon="5.92634">
        <ele>1696.8</ele>
        <time>2020-08-11T11:26:23Z</time>
      </trkpt>
      <trkpt lat="45.14815" lon="5.92635">
        <ele>1696.4</ele>
        <time>2020-08-11T11:26:24Z</time>
      </trkpt>
      <trkpt lat="45.14813" lon="5.92636">
        <ele>1695.8</ele>
        <time>2020-08-11T11:26:25Z</time>
      </trkpt>
      <trkpt lat="45.1481" lon="5.92637">
        <ele>1695.4</ele>
        <time>2020-08-11T11:26:26Z</time>
      </trkpt>
      <trkpt lat="45.14808" lon="5.92637">
        <ele>1695.4</ele>
        <time>2020-08-11T11:26:27Z</time>
      </trkpt>
      <trkpt lat="45.14805" lon="5.92638">
        <ele>1695</ele>
        <time>2020-08-11T11:26:28Z</time>
      </trkpt>
      <trkpt lat="45.14803" lon="5.92639">
        <ele>1694.6</ele>
        <time>2020-08-11T11:26:29Z</time>
      </trkpt>
      <trkpt lat="45.148" lon="5.92639">
        <ele>1694.8</ele>
        <time>2020-08-11T11:26:30Z</time>
      </trkpt>
      <trkpt lat="45.14799" lon="5.9264">
        <ele>1694.4</ele>
        <time>2020-08-11T11:26:31Z</time>
      </trkpt>
      <trkpt lat="45.14798" lon="5.92641">
        <ele>1694</ele>
        <time>2020-08-11T11:26:32Z</time>
      </trkpt>
      <trkpt lat="45.14796" lon="5.92642">
        <ele>1693.8</ele>
        <time>2020-08-11T11:26:33Z</time>
      </trkpt>
      <trkpt lat="45.14795" lon="5.92643">
        <ele>1693.6</ele>
        <time>2020-08-11T11:26:34Z</time>
      </trkpt>
      <trkpt lat="45.14793" lon="5.92644">
        <ele>1693.8</ele>
        <time>2020-08-11T11:26:35Z</time>
      </trkpt>
      <trkpt lat="45.14792" lon="5.92645">
        <ele>1693.6</ele>
        <time>2020-08-11T11:26:36Z</time>
      </trkpt>
      <trkpt lat="45.1479" lon="5.92646">
        <ele>1693.4</ele>
        <time>2020-08-11T11:26:37Z</time>
      </trkpt>
      <trkpt lat="45.14789" lon="5.92647">
        <ele>1693.2</ele>
        <time>2020-08-11T11:26:38Z</time>
      </trkpt>
      <trkpt lat="45.14787" lon="5.92649">
        <ele>1692.8</ele>
        <time>2020-08-11T11:26:39Z</time>
      </trkpt>
      <trkpt lat="45.14785" lon="5.9265">
        <ele>1692.8</ele>
        <time>2020-08-11T11:26:40Z</time>
      </trkpt>
      <trkpt lat="45.14784" lon="5.92651">
        <ele>1692.6</ele>
        <time>2020-08-11T11:26:41Z</time>
      </trkpt>
      <trkpt lat="45.14782" lon="5.92652">
        <ele>1692.4</ele>
        <time>2020-08-11T11:26:42Z</time>
      </trkpt>
      <trkpt lat="45.14779" lon="5.92652">
        <ele>1691.6</ele>
        <time>2020-08-11T11:26:43Z</time>
      </trkpt>
      <trkpt lat="45.14776" lon="5.92651">
        <ele>1691.2</ele>
        <time>2020-08-11T11:26:44Z</time>
      </trkpt>
      <trkpt lat="45.14772" lon="5.92651">
        <ele>1691.4</ele>
        <time>2020-08-11T11:26:45Z</time>
      </trkpt>
      <trkpt lat="45.14769" lon="5.9265">
        <ele>1691</ele>
        <time>2020-08-11T11:26:46Z</time>
      </trkpt>
      <trkpt lat="45.14766" lon="5.92649">
        <ele>1691.2</ele>
        <time>2020-08-11T11:26:47Z</time>
      </trkpt>
      <trkpt lat="45.14763" lon="5.92649">
        <ele>1691</ele>
        <time>2020-08-11T11:26:48Z</time>
      </trkpt>
      <trkpt lat="45.14759" lon="5.92647">
        <ele>1690.6</ele>
        <time>2020-08-11T11:26:49Z</time>
      </trkpt>
      <trkpt lat="45.14756" lon="5.92646">
        <ele>1689.6</ele>
        <time>2020-08-11T11:26:50Z</time>
      </trkpt>
      <trkpt lat="45.14752" lon="5.92644">
        <ele>1690.2</ele>
        <time>2020-08-11T11:26:51Z</time>
      </trkpt>
      <trkpt lat="45.14749" lon="5.92642">
        <ele>1689.8</ele>
        <time>2020-08-11T11:26:52Z</time>
      </trkpt>
      <trkpt lat="45.14745" lon="5.92641">
        <ele>1690.4</ele>
        <time>2020-08-11T11:26:53Z</time>
      </trkpt>
      <trkpt lat="45.14741" lon="5.92639">
        <ele>1689.8</ele>
        <time>2020-08-11T11:26:54Z</time>
      </trkpt>
      <trkpt lat="45.14739" lon="5.92637">
        <ele>1689.4</ele>
        <time>2020-08-11T11:26:55Z</time>
      </trkpt>
      <trkpt lat="45.14736" lon="5.92635">
        <ele>1689.4</ele>
        <time>2020-08-11T11:26:56Z</time>
      </trkpt>
      <trkpt lat="45.14733" lon="5.92633">
        <ele>1688.6</ele>
        <time>2020-08-11T11:26:57Z</time>
      </trkpt>
      <trkpt lat="45.1473" lon="5.92632">
        <ele>1688.8</ele>
        <time>2020-08-11T11:26:58Z</time>
      </trkpt>
      <trkpt lat="45.14727" lon="5.92631">
        <ele>1688.6</ele>
        <time>2020-08-11T11:26:59Z</time>
      </trkpt>
      <trkpt lat="45.14724" lon="5.9263">
        <ele>1688.8</ele>
        <time>2020-08-11T11:27:00Z</time>
      </trkpt>
      <trkpt lat="45.14721" lon="5.92629">
        <ele>1688.4</ele>
        <time>2020-08-11T11:27:01Z</time>
      </trkpt>
      <trkpt lat="45.14719" lon="5.92629">
        <ele>1688.2</ele>
        <time>2020-08-11T11:27:02Z</time>
      </trkpt>
      <trkpt lat="45.14716" lon="5.92628">
        <ele>1687.8</ele>
        <time>2020-08-11T11:27:03Z</time>
      </trkpt>
      <trkpt lat="45.14714" lon="5.92627">
        <ele>1688</ele>
        <time>2020-08-11T11:27:04Z</time>
      </trkpt>
      <trkpt lat="45.14712" lon="5.92629">
        <ele>1687.6</ele>
        <time>2020-08-11T11:27:05Z</time>
      </trkpt>
      <trkpt lat="45.14711" lon="5.9263">
        <ele>1687.6</ele>
        <time>2020-08-11T11:27:06Z</time>
      </trkpt>
      <trkpt lat="45.1471" lon="5.92631">
        <ele>1687.2</ele>
        <time>2020-08-11T11:27:07Z</time>
      </trkpt>
      <trkpt lat="45.14708" lon="5.92632">
        <ele>1687.2</ele>
        <time>2020-08-11T11:27:08Z</time>
      </trkpt>
      <trkpt lat="45.14707" lon="5.92633">
        <ele>1686.6</ele>
        <time>2020-08-11T11:27:09Z</time>
      </trkpt>
      <trkpt lat="45.14705" lon="5.92634">
        <ele>1686.6</ele>
        <time>2020-08-11T11:27:10Z</time>
      </trkpt>
      <trkpt lat="45.14704" lon="5.92635">
        <ele>1686.2</ele>
        <time>2020-08-11T11:27:11Z</time>
      </trkpt>
      <trkpt lat="45.14702" lon="5.92636">
        <ele>1685.6</ele>
        <time>2020-08-11T11:27:12Z</time>
      </trkpt>
      <trkpt lat="45.147" lon="5.92637">
        <ele>1685.8</ele>
        <time>2020-08-11T11:27:13Z</time>
      </trkpt>
      <trkpt lat="45.14699" lon="5.92638">
        <ele>1685.6</ele>
        <time>2020-08-11T11:27:14Z</time>
      </trkpt>
      <trkpt lat="45.14697" lon="5.92639">
        <ele>1685.4</ele>
        <time>2020-08-11T11:27:15Z</time>
      </trkpt>
      <trkpt lat="45.14694" lon="5.92638">
        <ele>1685.4</ele>
        <time>2020-08-11T11:27:16Z</time>
      </trkpt>
      <trkpt lat="45.14692" lon="5.92637">
        <ele>1685.4</ele>
        <time>2020-08-11T11:27:17Z</time>
      </trkpt>
      <trkpt lat="45.1469" lon="5.92636">
        <ele>1684.8</ele>
        <time>2020-08-11T11:27:18Z</time>
      </trkpt>
      <trkpt lat="45.14687" lon="5.92635">
        <ele>1684.2</ele>
        <time>2020-08-11T11:27:19Z</time>
      </trkpt>
      <trkpt lat="45.14685" lon="5.92634">
        <ele>1683.4</ele>
        <time>2020-08-11T11:27:20Z</time>
      </trkpt>
      <trkpt lat="45.14684" lon="5.92634">
        <ele>1682.8</ele>
        <time>2020-08-11T11:27:21Z</time>
      </trkpt>
      <trkpt lat="45.14683" lon="5.92633">
        <ele>1682.4</ele>
        <time>2020-08-11T11:27:22Z</time>
      </trkpt>
      <trkpt lat="45.14681" lon="5.92632">
        <ele>1682.6</ele>
        <time>2020-08-11T11:27:23Z</time>
      </trkpt>
      <trkpt lat="45.1468" lon="5.92632">
        <ele>1682.6</ele>
        <time>2020-08-11T11:27:24Z</time>
      </trkpt>
      <trkpt lat="45.14679" lon="5.92631">
        <ele>1682.4</ele>
        <time>2020-08-11T11:27:25Z</time>
      </trkpt>
      <trkpt lat="45.14678" lon="5.9263">
        <ele>1681.6</ele>
        <time>2020-08-11T11:27:26Z</time>
      </trkpt>
      <trkpt lat="45.14676" lon="5.92629">
        <ele>1681.4</ele>
        <time>2020-08-11T11:27:27Z</time>
      </trkpt>
      <trkpt lat="45.14675" lon="5.92629">
        <ele>1681</ele>
        <time>2020-08-11T11:27:28Z</time>
      </trkpt>
      <trkpt lat="45.14673" lon="5.92627">
        <ele>1680.4</ele>
        <time>2020-08-11T11:27:29Z</time>
      </trkpt>
      <trkpt lat="45.1467" lon="5.92625">
        <ele>1679.8</ele>
        <time>2020-08-11T11:27:30Z</time>
      </trkpt>
      <trkpt lat="45.14668" lon="5.92623">
        <ele>1679.6</ele>
        <time>2020-08-11T11:27:31Z</time>
      </trkpt>
      <trkpt lat="45.14666" lon="5.92622">
        <ele>1678.8</ele>
        <time>2020-08-11T11:27:32Z</time>
      </trkpt>
      <trkpt lat="45.14665" lon="5.9262">
        <ele>1678.2</ele>
        <time>2020-08-11T11:27:33Z</time>
      </trkpt>
      <trkpt lat="45.14663" lon="5.92619">
        <ele>1678</ele>
        <time>2020-08-11T11:27:34Z</time>
      </trkpt>
      <trkpt lat="45.14662" lon="5.92618">
        <ele>1677.4</ele>
        <time>2020-08-11T11:27:35Z</time>
      </trkpt>
      <trkpt lat="45.14661" lon="5.92617">
        <ele>1677.4</ele>
        <time>2020-08-11T11:27:36Z</time>
      </trkpt>
      <trkpt lat="45.1466" lon="5.92615">
        <ele>1677</ele>
        <time>2020-08-11T11:27:37Z</time>
      </trkpt>
      <trkpt lat="45.14659" lon="5.92614">
        <ele>1676.6</ele>
        <time>2020-08-11T11:27:38Z</time>
      </trkpt>
      <trkpt lat="45.14658" lon="5.92613">
        <ele>1676.2</ele>
        <time>2020-08-11T11:27:39Z</time>
      </trkpt>
      <trkpt lat="45.14657" lon="5.92611">
        <ele>1675.8</ele>
        <time>2020-08-11T11:27:40Z</time>
      </trkpt>
      <trkpt lat="45.14656" lon="5.92609">
        <ele>1675.2</ele>
        <time>2020-08-11T11:27:41Z</time>
      </trkpt>
      <trkpt lat="45.14655" lon="5.92607">
        <ele>1675.2</ele>
        <time>2020-08-11T11:27:42Z</time>
      </trkpt>
      <trkpt lat="45.14654" lon="5.92605">
        <ele>1674.8</ele>
        <time>2020-08-11T11:27:43Z</time>
      </trkpt>
      <trkpt lat="45.14654" lon="5.92603">
        <ele>1674.8</ele>
        <time>2020-08-11T11:27:44Z</time>
      </trkpt>
      <trkpt lat="45.14653" lon="5.92601">
        <ele>1674.4</ele>
        <time>2020-08-11T11:27:45Z</time>
      </trkpt>
      <trkpt lat="45.14653" lon="5.92599">
        <ele>1674</ele>
        <time>2020-08-11T11:27:46Z</time>
      </trkpt>
      <trkpt lat="45.14654" lon="5.92598">
        <ele>1673</ele>
        <time>2020-08-11T11:27:47Z</time>
      </trkpt>
      <trkpt lat="45.14654" lon="5.92596">
        <ele>1672.6</ele>
        <time>2020-08-11T11:27:48Z</time>
      </trkpt>
      <trkpt lat="45.14654" lon="5.92594">
        <ele>1672.4</ele>
        <time>2020-08-11T11:27:49Z</time>
      </trkpt>
      <trkpt lat="45.14655" lon="5.92593">
        <ele>1671.6</ele>
        <time>2020-08-11T11:27:50Z</time>
      </trkpt>
      <trkpt lat="45.14655" lon="5.92591">
        <ele>1670.8</ele>
        <time>2020-08-11T11:27:51Z</time>
      </trkpt>
      <trkpt lat="45.14656" lon="5.9259">
        <ele>1671</ele>
        <time>2020-08-11T11:27:52Z</time>
      </trkpt>
      <trkpt lat="45.14656" lon="5.92588">
        <ele>1670.6</ele>
        <time>2020-08-11T11:27:53Z</time>
      </trkpt>
      <trkpt lat="45.14656" lon="5.92586">
        <ele>1670.4</ele>
        <time>2020-08-11T11:27:54Z</time>
      </trkpt>
      <trkpt lat="45.14656" lon="5.92584">
        <ele>1670.2</ele>
        <time>2020-08-11T11:27:55Z</time>
      </trkpt>
      <trkpt lat="45.14655" lon="5.92582">
        <ele>1669.8</ele>
        <time>2020-08-11T11:27:56Z</time>
      </trkpt>
      <trkpt lat="45.14655" lon="5.9258">
        <ele>1669</ele>
        <time>2020-08-11T11:27:57Z</time>
      </trkpt>
      <trkpt lat="45.14655" lon="5.92578">
        <ele>1668.2</ele>
        <time>2020-08-11T11:27:58Z</time>
      </trkpt>
      <trkpt lat="45.14655" lon="5.92577">
        <ele>1667.6</ele>
        <time>2020-08-11T11:27:59Z</time>
      </trkpt>
      <trkpt lat="45.14655" lon="5.92575">
        <ele>1667.2</ele>
        <time>2020-08-11T11:28:00Z</time>
      </trkpt>
      <trkpt lat="45.14655" lon="5.92574">
        <ele>1666.6</ele>
        <time>2020-08-11T11:28:01Z</time>
      </trkpt>
      <trkpt lat="45.14655" lon="5.92572">
        <ele>1665.8</ele>
        <time>2020-08-11T11:28:02Z</time>
      </trkpt>
      <trkpt lat="45.14655" lon="5.9257">
        <ele>1665</ele>
        <time>2020-08-11T11:28:03Z</time>
      </trkpt>
      <trkpt lat="45.14655" lon="5.92569">
        <ele>1664.8</ele>
        <time>2020-08-11T11:28:04Z</time>
      </trkpt>
      <trkpt lat="45.14655" lon="5.92567">
        <ele>1664.8</ele>
        <time>2020-08-11T11:28:05Z</time>
      </trkpt>
      <trkpt lat="45.14655" lon="5.92566">
        <ele>1664.4</ele>
        <time>2020-08-11T11:28:06Z</time>
      </trkpt>
      <trkpt lat="45.14654" lon="5.92563">
        <ele>1663.8</ele>
        <time>2020-08-11T11:28:07Z</time>
      </trkpt>
      <trkpt lat="45.14654" lon="5.92561">
        <ele>1663.8</ele>
        <time>2020-08-11T11:28:08Z</time>
      </trkpt>
      <trkpt lat="45.14653" lon="5.92559">
        <ele>1663.2</ele>
        <time>2020-08-11T11:28:09Z</time>
      </trkpt>
      <trkpt lat="45.14652" lon="5.92556">
        <ele>1662.8</ele>
        <time>2020-08-11T11:28:10Z</time>
      </trkpt>
      <trkpt lat="45.14651" lon="5.92554">
        <ele>1662.2</ele>
        <time>2020-08-11T11:28:11Z</time>
      </trkpt>
      <trkpt lat="45.14651" lon="5.92552">
        <ele>1661.8</ele>
        <time>2020-08-11T11:28:12Z</time>
      </trkpt>
      <trkpt lat="45.1465" lon="5.9255">
        <ele>1661.4</ele>
        <time>2020-08-11T11:28:13Z</time>
      </trkpt>
      <trkpt lat="45.14648" lon="5.92548">
        <ele>1661.4</ele>
        <time>2020-08-11T11:28:14Z</time>
      </trkpt>
      <trkpt lat="45.14647" lon="5.92545">
        <ele>1660.8</ele>
        <time>2020-08-11T11:28:15Z</time>
      </trkpt>
      <trkpt lat="45.14646" lon="5.92543">
        <ele>1660.2</ele>
        <time>2020-08-11T11:28:16Z</time>
      </trkpt>
      <trkpt lat="45.14645" lon="5.92541">
        <ele>1659.4</ele>
        <time>2020-08-11T11:28:17Z</time>
      </trkpt>
      <trkpt lat="45.14643" lon="5.9254">
        <ele>1658.6</ele>
        <time>2020-08-11T11:28:18Z</time>
      </trkpt>
      <trkpt lat="45.14642" lon="5.92538">
        <ele>1658.8</ele>
        <time>2020-08-11T11:28:19Z</time>
      </trkpt>
      <trkpt lat="45.1464" lon="5.92537">
        <ele>1658.4</ele>
        <time>2020-08-11T11:28:20Z</time>
      </trkpt>
      <trkpt lat="45.14639" lon="5.92535">
        <ele>1656.8</ele>
        <time>2020-08-11T11:28:21Z</time>
      </trkpt>
      <trkpt lat="45.14637" lon="5.92534">
        <ele>1656.6</ele>
        <time>2020-08-11T11:28:22Z</time>
      </trkpt>
      <trkpt lat="45.14636" lon="5.92533">
        <ele>1656.2</ele>
        <time>2020-08-11T11:28:23Z</time>
      </trkpt>
      <trkpt lat="45.14635" lon="5.92532">
        <ele>1656</ele>
        <time>2020-08-11T11:28:24Z</time>
      </trkpt>
      <trkpt lat="45.14633" lon="5.92531">
        <ele>1655.6</ele>
        <time>2020-08-11T11:28:25Z</time>
      </trkpt>
      <trkpt lat="45.14632" lon="5.9253">
        <ele>1655.4</ele>
        <time>2020-08-11T11:28:26Z</time>
      </trkpt>
      <trkpt lat="45.1463" lon="5.92529">
        <ele>1655</ele>
        <time>2020-08-11T11:28:27Z</time>
      </trkpt>
      <trkpt lat="45.14629" lon="5.92528">
        <ele>1654.4</ele>
        <time>2020-08-11T11:28:28Z</time>
      </trkpt>
      <trkpt lat="45.14627" lon="5.92527">
        <ele>1653.2</ele>
        <time>2020-08-11T11:28:29Z</time>
      </trkpt>
      <trkpt lat="45.14626" lon="5.92526">
        <ele>1653.2</ele>
        <time>2020-08-11T11:28:30Z</time>
      </trkpt>
      <trkpt lat="45.14624" lon="5.92525">
        <ele>1652.6</ele>
        <time>2020-08-11T11:28:31Z</time>
      </trkpt>
      <trkpt lat="45.14623" lon="5.92524">
        <ele>1652.2</ele>
        <time>2020-08-11T11:28:32Z</time>
      </trkpt>
      <trkpt lat="45.14621" lon="5.92523">
        <ele>1652.4</ele>
        <time>2020-08-11T11:28:33Z</time>
      </trkpt>
      <trkpt lat="45.1462" lon="5.92522">
        <ele>1652.4</ele>
        <time>2020-08-11T11:28:34Z</time>
      </trkpt>
      <trkpt lat="45.14619" lon="5.92521">
        <ele>1652.4</ele>
        <time>2020-08-11T11:28:35Z</time>
      </trkpt>
      <trkpt lat="45.14618" lon="5.92519">
        <ele>1652.2</ele>
        <time>2020-08-11T11:28:36Z</time>
      </trkpt>
      <trkpt lat="45.14617" lon="5.92518">
        <ele>1651.8</ele>
        <time>2020-08-11T11:28:37Z</time>
      </trkpt>
      <trkpt lat="45.14616" lon="5.92516">
        <ele>1651.4</ele>
        <time>2020-08-11T11:28:38Z</time>
      </trkpt>
      <trkpt lat="45.14615" lon="5.92515">
        <ele>1651.4</ele>
        <time>2020-08-11T11:28:39Z</time>
      </trkpt>
      <trkpt lat="45.14615" lon="5.92513">
        <ele>1650.8</ele>
        <time>2020-08-11T11:28:40Z</time>
      </trkpt>
      <trkpt lat="45.14614" lon="5.92512">
        <ele>1650.6</ele>
        <time>2020-08-11T11:28:41Z</time>
      </trkpt>
      <trkpt lat="45.14614" lon="5.92511">
        <ele>1650</ele>
        <time>2020-08-11T11:28:42Z</time>
      </trkpt>
      <trkpt lat="45.14613" lon="5.92509">
        <ele>1649.6</ele>
        <time>2020-08-11T11:28:43Z</time>
      </trkpt>
      <trkpt lat="45.14613" lon="5.92508">
        <ele>1649.8</ele>
        <time>2020-08-11T11:28:44Z</time>
      </trkpt>
      <trkpt lat="45.14613" lon="5.92506">
        <ele>1649</ele>
        <time>2020-08-11T11:28:45Z</time>
      </trkpt>
      <trkpt lat="45.14613" lon="5.92505">
        <ele>1649</ele>
        <time>2020-08-11T11:28:46Z</time>
      </trkpt>
      <trkpt lat="45.14613" lon="5.92503">
        <ele>1648.8</ele>
        <time>2020-08-11T11:28:47Z</time>
      </trkpt>
      <trkpt lat="45.14613" lon="5.92502">
        <ele>1648.6</ele>
        <time>2020-08-11T11:28:48Z</time>
      </trkpt>
      <trkpt lat="45.14613" lon="5.925">
        <ele>1648.2</ele>
        <time>2020-08-11T11:28:49Z</time>
      </trkpt>
      <trkpt lat="45.14613" lon="5.925">
        <ele>1647.6</ele>
        <time>2020-08-11T11:28:50Z</time>
      </trkpt>
      <trkpt lat="45.14613" lon="5.92498">
        <ele>1647.2</ele>
        <time>2020-08-11T11:28:51Z</time>
      </trkpt>
      <trkpt lat="45.14614" lon="5.92497">
        <ele>1646.6</ele>
        <time>2020-08-11T11:28:52Z</time>
      </trkpt>
      <trkpt lat="45.14614" lon="5.92495">
        <ele>1645.8</ele>
        <time>2020-08-11T11:28:53Z</time>
      </trkpt>
      <trkpt lat="45.14615" lon="5.92494">
        <ele>1645</ele>
        <time>2020-08-11T11:28:54Z</time>
      </trkpt>
      <trkpt lat="45.14615" lon="5.92492">
        <ele>1644.6</ele>
        <time>2020-08-11T11:28:55Z</time>
      </trkpt>
      <trkpt lat="45.14616" lon="5.92491">
        <ele>1643.6</ele>
        <time>2020-08-11T11:28:56Z</time>
      </trkpt>
      <trkpt lat="45.14616" lon="5.92489">
        <ele>1643.4</ele>
        <time>2020-08-11T11:28:57Z</time>
      </trkpt>
      <trkpt lat="45.14617" lon="5.92488">
        <ele>1643</ele>
        <time>2020-08-11T11:28:58Z</time>
      </trkpt>
      <trkpt lat="45.14617" lon="5.92487">
        <ele>1642.6</ele>
        <time>2020-08-11T11:28:59Z</time>
      </trkpt>
      <trkpt lat="45.14617" lon="5.92485">
        <ele>1642.2</ele>
        <time>2020-08-11T11:29:00Z</time>
      </trkpt>
      <trkpt lat="45.14618" lon="5.92484">
        <ele>1641.8</ele>
        <time>2020-08-11T11:29:01Z</time>
      </trkpt>
      <trkpt lat="45.14618" lon="5.92483">
        <ele>1641.4</ele>
        <time>2020-08-11T11:29:02Z</time>
      </trkpt>
      <trkpt lat="45.14618" lon="5.92481">
        <ele>1640.8</ele>
        <time>2020-08-11T11:29:03Z</time>
      </trkpt>
      <trkpt lat="45.14619" lon="5.9248">
        <ele>1640</ele>
        <time>2020-08-11T11:29:04Z</time>
      </trkpt>
      <trkpt lat="45.14619" lon="5.92479">
        <ele>1639.2</ele>
        <time>2020-08-11T11:29:05Z</time>
      </trkpt>
      <trkpt lat="45.14619" lon="5.92477">
        <ele>1638.8</ele>
        <time>2020-08-11T11:29:06Z</time>
      </trkpt>
      <trkpt lat="45.14619" lon="5.92476">
        <ele>1638.4</ele>
        <time>2020-08-11T11:29:07Z</time>
      </trkpt>
      <trkpt lat="45.1462" lon="5.92474">
        <ele>1637.8</ele>
        <time>2020-08-11T11:29:08Z</time>
      </trkpt>
      <trkpt lat="45.14621" lon="5.92474">
        <ele>1637.6</ele>
        <time>2020-08-11T11:29:09Z</time>
      </trkpt>
      <trkpt lat="45.14622" lon="5.92473">
        <ele>1637.2</ele>
        <time>2020-08-11T11:29:10Z</time>
      </trkpt>
      <trkpt lat="45.14622" lon="5.92472">
        <ele>1636.8</ele>
        <time>2020-08-11T11:29:11Z</time>
      </trkpt>
      <trkpt lat="45.14623" lon="5.92471">
        <ele>1635.6</ele>
        <time>2020-08-11T11:29:12Z</time>
      </trkpt>
      <trkpt lat="45.14624" lon="5.9247">
        <ele>1634.2</ele>
        <time>2020-08-11T11:29:13Z</time>
      </trkpt>
      <trkpt lat="45.14624" lon="5.92469">
        <ele>1633</ele>
        <time>2020-08-11T11:29:14Z</time>
      </trkpt>
      <trkpt lat="45.14624" lon="5.92468">
        <ele>1633.6</ele>
        <time>2020-08-11T11:29:15Z</time>
      </trkpt>
      <trkpt lat="45.14624" lon="5.92468">
        <ele>1633.4</ele>
        <time>2020-08-11T11:29:16Z</time>
      </trkpt>
      <trkpt lat="45.14623" lon="5.92467">
        <ele>1633</ele>
        <time>2020-08-11T11:29:17Z</time>
      </trkpt>
      <trkpt lat="45.14623" lon="5.92466">
        <ele>1632.6</ele>
        <time>2020-08-11T11:29:18Z</time>
      </trkpt>
      <trkpt lat="45.14623" lon="5.92465">
        <ele>1632.4</ele>
        <time>2020-08-11T11:29:19Z</time>
      </trkpt>
      <trkpt lat="45.14623" lon="5.92465">
        <ele>1631.6</ele>
        <time>2020-08-11T11:29:20Z</time>
      </trkpt>
      <trkpt lat="45.14623" lon="5.92464">
        <ele>1630.4</ele>
        <time>2020-08-11T11:29:21Z</time>
      </trkpt>
      <trkpt lat="45.14622" lon="5.92463">
        <ele>1630.2</ele>
        <time>2020-08-11T11:29:22Z</time>
      </trkpt>
      <trkpt lat="45.14625" lon="5.9246">
        <ele>1630</ele>
        <time>2020-08-11T11:29:23Z</time>
      </trkpt>
      <trkpt lat="45.14625" lon="5.9246">
        <ele>1629.4</ele>
        <time>2020-08-11T11:29:24Z</time>
      </trkpt>
      <trkpt lat="45.14627" lon="5.92458">
        <ele>1629</ele>
        <time>2020-08-11T11:29:25Z</time>
      </trkpt>
      <trkpt lat="45.14627" lon="5.92458">
        <ele>1628.4</ele>
        <time>2020-08-11T11:29:26Z</time>
      </trkpt>
      <trkpt lat="45.14629" lon="5.92456">
        <ele>1628</ele>
        <time>2020-08-11T11:29:27Z</time>
      </trkpt>
      <trkpt lat="45.14629" lon="5.92456">
        <ele>1627.4</ele>
        <time>2020-08-11T11:29:28Z</time>
      </trkpt>
      <trkpt lat="45.14628" lon="5.92455">
        <ele>1626.6</ele>
        <time>2020-08-11T11:29:29Z</time>
      </trkpt>
      <trkpt lat="45.14628" lon="5.92454">
        <ele>1625.2</ele>
        <time>2020-08-11T11:29:30Z</time>
      </trkpt>
      <trkpt lat="45.14628" lon="5.92453">
        <ele>1625</ele>
        <time>2020-08-11T11:29:31Z</time>
      </trkpt>
      <trkpt lat="45.14628" lon="5.92452">
        <ele>1624.6</ele>
        <time>2020-08-11T11:29:32Z</time>
      </trkpt>
      <trkpt lat="45.14628" lon="5.92451">
        <ele>1624</ele>
        <time>2020-08-11T11:29:33Z</time>
      </trkpt>
      <trkpt lat="45.14628" lon="5.9245">
        <ele>1623.8</ele>
        <time>2020-08-11T11:29:34Z</time>
      </trkpt>
      <trkpt lat="45.14628" lon="5.92449">
        <ele>1623.4</ele>
        <time>2020-08-11T11:29:35Z</time>
      </trkpt>
      <trkpt lat="45.14628" lon="5.92448">
        <ele>1622.8</ele>
        <time>2020-08-11T11:29:36Z</time>
      </trkpt>
      <trkpt lat="45.14628" lon="5.92447">
        <ele>1622</ele>
        <time>2020-08-11T11:29:37Z</time>
      </trkpt>
      <trkpt lat="45.14627" lon="5.92445">
        <ele>1621.2</ele>
        <time>2020-08-11T11:29:38Z</time>
      </trkpt>
      <trkpt lat="45.14627" lon="5.92444">
        <ele>1620.4</ele>
        <time>2020-08-11T11:29:39Z</time>
      </trkpt>
      <trkpt lat="45.14627" lon="5.92443">
        <ele>1619.8</ele>
        <time>2020-08-11T11:29:40Z</time>
      </trkpt>
      <trkpt lat="45.14627" lon="5.92442">
        <ele>1619.6</ele>
        <time>2020-08-11T11:29:41Z</time>
      </trkpt>
      <trkpt lat="45.14627" lon="5.92441">
        <ele>1619.4</ele>
        <time>2020-08-11T11:29:42Z</time>
      </trkpt>
      <trkpt lat="45.14628" lon="5.92439">
        <ele>1618.6</ele>
        <time>2020-08-11T11:29:43Z</time>
      </trkpt>
      <trkpt lat="45.14628" lon="5.92438">
        <ele>1617.6</ele>
        <time>2020-08-11T11:29:44Z</time>
      </trkpt>
      <trkpt lat="45.14628" lon="5.92436">
        <ele>1617.6</ele>
        <time>2020-08-11T11:29:45Z</time>
      </trkpt>
      <trkpt lat="45.14628" lon="5.92435">
        <ele>1617</ele>
        <time>2020-08-11T11:29:46Z</time>
      </trkpt>
      <trkpt lat="45.14629" lon="5.92433">
        <ele>1617</ele>
        <time>2020-08-11T11:29:47Z</time>
      </trkpt>
      <trkpt lat="45.14629" lon="5.92432">
        <ele>1616.8</ele>
        <time>2020-08-11T11:29:48Z</time>
      </trkpt>
      <trkpt lat="45.14629" lon="5.92431">
        <ele>1616.4</ele>
        <time>2020-08-11T11:29:49Z</time>
      </trkpt>
      <trkpt lat="45.14629" lon="5.92429">
        <ele>1616</ele>
        <time>2020-08-11T11:29:50Z</time>
      </trkpt>
      <trkpt lat="45.14629" lon="5.92426">
        <ele>1615</ele>
        <time>2020-08-11T11:29:51Z</time>
      </trkpt>
      <trkpt lat="45.1463" lon="5.92424">
        <ele>1614</ele>
        <time>2020-08-11T11:29:52Z</time>
      </trkpt>
      <trkpt lat="45.1463" lon="5.92421">
        <ele>1614</ele>
        <time>2020-08-11T11:29:53Z</time>
      </trkpt>
      <trkpt lat="45.1463" lon="5.92419">
        <ele>1613.8</ele>
        <time>2020-08-11T11:29:54Z</time>
      </trkpt>
      <trkpt lat="45.1463" lon="5.92416">
        <ele>1613.6</ele>
        <time>2020-08-11T11:29:55Z</time>
      </trkpt>
      <trkpt lat="45.1463" lon="5.92414">
        <ele>1613</ele>
        <time>2020-08-11T11:29:56Z</time>
      </trkpt>
      <trkpt lat="45.1463" lon="5.92412">
        <ele>1612.4</ele>
        <time>2020-08-11T11:29:57Z</time>
      </trkpt>
      <trkpt lat="45.1463" lon="5.9241">
        <ele>1612.2</ele>
        <time>2020-08-11T11:29:58Z</time>
      </trkpt>
      <trkpt lat="45.1463" lon="5.92408">
        <ele>1611.8</ele>
        <time>2020-08-11T11:29:59Z</time>
      </trkpt>
      <trkpt lat="45.14631" lon="5.92406">
        <ele>1611.8</ele>
        <time>2020-08-11T11:30:00Z</time>
      </trkpt>
      <trkpt lat="45.14631" lon="5.92404">
        <ele>1610.8</ele>
        <time>2020-08-11T11:30:01Z</time>
      </trkpt>
      <trkpt lat="45.14631" lon="5.92402">
        <ele>1609.4</ele>
        <time>2020-08-11T11:30:02Z</time>
      </trkpt>
      <trkpt lat="45.14631" lon="5.924">
        <ele>1609.4</ele>
        <time>2020-08-11T11:30:03Z</time>
      </trkpt>
      <trkpt lat="45.14631" lon="5.92398">
        <ele>1609</ele>
        <time>2020-08-11T11:30:04Z</time>
      </trkpt>
      <trkpt lat="45.14631" lon="5.92396">
        <ele>1608.6</ele>
        <time>2020-08-11T11:30:05Z</time>
      </trkpt>
      <trkpt lat="45.14631" lon="5.92394">
        <ele>1607.8</ele>
        <time>2020-08-11T11:30:06Z</time>
      </trkpt>
      <trkpt lat="45.14632" lon="5.92392">
        <ele>1607.6</ele>
        <time>2020-08-11T11:30:07Z</time>
      </trkpt>
      <trkpt lat="45.14632" lon="5.9239">
        <ele>1607.4</ele>
        <time>2020-08-11T11:30:08Z</time>
      </trkpt>
      <trkpt lat="45.14632" lon="5.92388">
        <ele>1606.8</ele>
        <time>2020-08-11T11:30:09Z</time>
      </trkpt>
      <trkpt lat="45.14632" lon="5.92387">
        <ele>1606.4</ele>
        <time>2020-08-11T11:30:10Z</time>
      </trkpt>
      <trkpt lat="45.14633" lon="5.92385">
        <ele>1606</ele>
        <time>2020-08-11T11:30:11Z</time>
      </trkpt>
      <trkpt lat="45.14633" lon="5.92383">
        <ele>1605.4</ele>
        <time>2020-08-11T11:30:12Z</time>
      </trkpt>
      <trkpt lat="45.14634" lon="5.92382">
        <ele>1605.2</ele>
        <time>2020-08-11T11:30:13Z</time>
      </trkpt>
      <trkpt lat="45.14634" lon="5.9238">
        <ele>1604.6</ele>
        <time>2020-08-11T11:30:14Z</time>
      </trkpt>
      <trkpt lat="45.14634" lon="5.92378">
        <ele>1604</ele>
        <time>2020-08-11T11:30:15Z</time>
      </trkpt>
      <trkpt lat="45.14635" lon="5.92377">
        <ele>1603.4</ele>
        <time>2020-08-11T11:30:16Z</time>
      </trkpt>
      <trkpt lat="45.14635" lon="5.92375">
        <ele>1602.8</ele>
        <time>2020-08-11T11:30:17Z</time>
      </trkpt>
      <trkpt lat="45.14636" lon="5.92372">
        <ele>1602.2</ele>
        <time>2020-08-11T11:30:18Z</time>
      </trkpt>
      <trkpt lat="45.14636" lon="5.92369">
        <ele>1601.6</ele>
        <time>2020-08-11T11:30:19Z</time>
      </trkpt>
      <trkpt lat="45.14637" lon="5.92367">
        <ele>1601</ele>
        <time>2020-08-11T11:30:20Z</time>
      </trkpt>
      <trkpt lat="45.14637" lon="5.92364">
        <ele>1600</ele>
        <time>2020-08-11T11:30:21Z</time>
      </trkpt>
      <trkpt lat="45.14638" lon="5.92361">
        <ele>1599.8</ele>
        <time>2020-08-11T11:30:22Z</time>
      </trkpt>
      <trkpt lat="45.14639" lon="5.92357">
        <ele>1599.8</ele>
        <time>2020-08-11T11:30:23Z</time>
      </trkpt>
      <trkpt lat="45.14639" lon="5.92357">
        <ele>1599.2</ele>
        <time>2020-08-11T11:30:24Z</time>
      </trkpt>
      <trkpt lat="45.14638" lon="5.92353">
        <ele>1599.4</ele>
        <time>2020-08-11T11:30:25Z</time>
      </trkpt>
      <trkpt lat="45.14638" lon="5.92353">
        <ele>1598.8</ele>
        <time>2020-08-11T11:30:27Z</time>
      </trkpt>
      <trkpt lat="45.14636" lon="5.92351">
        <ele>1598.4</ele>
        <time>2020-08-11T11:30:28Z</time>
      </trkpt>
      <trkpt lat="45.14635" lon="5.92348">
        <ele>1598.2</ele>
        <time>2020-08-11T11:30:29Z</time>
      </trkpt>
      <trkpt lat="45.14633" lon="5.92346">
        <ele>1597.4</ele>
        <time>2020-08-11T11:30:30Z</time>
      </trkpt>
      <trkpt lat="45.14632" lon="5.92345">
        <ele>1597</ele>
        <time>2020-08-11T11:30:31Z</time>
      </trkpt>
      <trkpt lat="45.14631" lon="5.92344">
        <ele>1596.4</ele>
        <time>2020-08-11T11:30:32Z</time>
      </trkpt>
      <trkpt lat="45.14631" lon="5.92343">
        <ele>1596.4</ele>
        <time>2020-08-11T11:30:33Z</time>
      </trkpt>
      <trkpt lat="45.1463" lon="5.92342">
        <ele>1595.8</ele>
        <time>2020-08-11T11:30:34Z</time>
      </trkpt>
      <trkpt lat="45.14629" lon="5.9234">
        <ele>1595.8</ele>
        <time>2020-08-11T11:30:35Z</time>
      </trkpt>
      <trkpt lat="45.14628" lon="5.92339">
        <ele>1595.2</ele>
        <time>2020-08-11T11:30:36Z</time>
      </trkpt>
      <trkpt lat="45.14627" lon="5.92338">
        <ele>1594.4</ele>
        <time>2020-08-11T11:30:37Z</time>
      </trkpt>
      <trkpt lat="45.14626" lon="5.92337">
        <ele>1593.8</ele>
        <time>2020-08-11T11:30:38Z</time>
      </trkpt>
      <trkpt lat="45.14626" lon="5.92336">
        <ele>1592.8</ele>
        <time>2020-08-11T11:30:39Z</time>
      </trkpt>
      <trkpt lat="45.14625" lon="5.92334">
        <ele>1592.6</ele>
        <time>2020-08-11T11:30:40Z</time>
      </trkpt>
      <trkpt lat="45.14625" lon="5.92333">
        <ele>1592.2</ele>
        <time>2020-08-11T11:30:41Z</time>
      </trkpt>
      <trkpt lat="45.14625" lon="5.92331">
        <ele>1592.4</ele>
        <time>2020-08-11T11:30:42Z</time>
      </trkpt>
      <trkpt lat="45.14624" lon="5.92329">
        <ele>1591.8</ele>
        <time>2020-08-11T11:30:43Z</time>
      </trkpt>
      <trkpt lat="45.14624" lon="5.92328">
        <ele>1591.8</ele>
        <time>2020-08-11T11:30:44Z</time>
      </trkpt>
      <trkpt lat="45.14624" lon="5.92326">
        <ele>1591</ele>
        <time>2020-08-11T11:30:45Z</time>
      </trkpt>
      <trkpt lat="45.14624" lon="5.92325">
        <ele>1590.6</ele>
        <time>2020-08-11T11:30:46Z</time>
      </trkpt>
      <trkpt lat="45.14623" lon="5.92323">
        <ele>1590.8</ele>
        <time>2020-08-11T11:30:47Z</time>
      </trkpt>
      <trkpt lat="45.14623" lon="5.92321">
        <ele>1590.6</ele>
        <time>2020-08-11T11:30:48Z</time>
      </trkpt>
      <trkpt lat="45.14623" lon="5.9232">
        <ele>1590.4</ele>
        <time>2020-08-11T11:30:49Z</time>
      </trkpt>
      <trkpt lat="45.14622" lon="5.92318">
        <ele>1590</ele>
        <time>2020-08-11T11:30:50Z</time>
      </trkpt>
      <trkpt lat="45.14622" lon="5.92316">
        <ele>1589.6</ele>
        <time>2020-08-11T11:30:51Z</time>
      </trkpt>
      <trkpt lat="45.14621" lon="5.92315">
        <ele>1589.2</ele>
        <time>2020-08-11T11:30:52Z</time>
      </trkpt>
      <trkpt lat="45.14621" lon="5.92313">
        <ele>1589</ele>
        <time>2020-08-11T11:30:53Z</time>
      </trkpt>
      <trkpt lat="45.14621" lon="5.92311">
        <ele>1589.4</ele>
        <time>2020-08-11T11:30:54Z</time>
      </trkpt>
      <trkpt lat="45.1462" lon="5.9231">
        <ele>1589.2</ele>
        <time>2020-08-11T11:30:55Z</time>
      </trkpt>
      <trkpt lat="45.1462" lon="5.92308">
        <ele>1589.2</ele>
        <time>2020-08-11T11:30:56Z</time>
      </trkpt>
      <trkpt lat="45.1462" lon="5.92307">
        <ele>1589.2</ele>
        <time>2020-08-11T11:30:57Z</time>
      </trkpt>
      <trkpt lat="45.1462" lon="5.92306">
        <ele>1588.6</ele>
        <time>2020-08-11T11:30:58Z</time>
      </trkpt>
      <trkpt lat="45.1462" lon="5.92304">
        <ele>1588.6</ele>
        <time>2020-08-11T11:30:59Z</time>
      </trkpt>
      <trkpt lat="45.1462" lon="5.92303">
        <ele>1588</ele>
        <time>2020-08-11T11:31:00Z</time>
      </trkpt>
      <trkpt lat="45.1462" lon="5.92301">
        <ele>1588</ele>
        <time>2020-08-11T11:31:01Z</time>
      </trkpt>
      <trkpt lat="45.1462" lon="5.923">
        <ele>1588</ele>
        <time>2020-08-11T11:31:02Z</time>
      </trkpt>
      <trkpt lat="45.1462" lon="5.92298">
        <ele>1587.4</ele>
        <time>2020-08-11T11:31:03Z</time>
      </trkpt>
      <trkpt lat="45.1462" lon="5.92297">
        <ele>1586.6</ele>
        <time>2020-08-11T11:31:04Z</time>
      </trkpt>
      <trkpt lat="45.1462" lon="5.92296">
        <ele>1586.4</ele>
        <time>2020-08-11T11:31:05Z</time>
      </trkpt>
      <trkpt lat="45.14621" lon="5.92293">
        <ele>1586</ele>
        <time>2020-08-11T11:31:06Z</time>
      </trkpt>
      <trkpt lat="45.14621" lon="5.9229">
        <ele>1586</ele>
        <time>2020-08-11T11:31:07Z</time>
      </trkpt>
      <trkpt lat="45.14622" lon="5.92288">
        <ele>1585.2</ele>
        <time>2020-08-11T11:31:08Z</time>
      </trkpt>
      <trkpt lat="45.14622" lon="5.92285">
        <ele>1584.2</ele>
        <time>2020-08-11T11:31:09Z</time>
      </trkpt>
      <trkpt lat="45.14623" lon="5.92282">
        <ele>1583.8</ele>
        <time>2020-08-11T11:31:10Z</time>
      </trkpt>
      <trkpt lat="45.14623" lon="5.92279">
        <ele>1583.2</ele>
        <time>2020-08-11T11:31:11Z</time>
      </trkpt>
      <trkpt lat="45.14623" lon="5.92276">
        <ele>1582.6</ele>
        <time>2020-08-11T11:31:12Z</time>
      </trkpt>
      <trkpt lat="45.14623" lon="5.92273">
        <ele>1582.4</ele>
        <time>2020-08-11T11:31:13Z</time>
      </trkpt>
      <trkpt lat="45.14623" lon="5.92269">
        <ele>1581.8</ele>
        <time>2020-08-11T11:31:14Z</time>
      </trkpt>
      <trkpt lat="45.14623" lon="5.92267">
        <ele>1581.8</ele>
        <time>2020-08-11T11:31:15Z</time>
      </trkpt>
      <trkpt lat="45.14623" lon="5.92264">
        <ele>1581.4</ele>
        <time>2020-08-11T11:31:16Z</time>
      </trkpt>
      <trkpt lat="45.14623" lon="5.92261">
        <ele>1581.2</ele>
        <time>2020-08-11T11:31:17Z</time>
      </trkpt>
      <trkpt lat="45.14623" lon="5.92258">
        <ele>1581</ele>
        <time>2020-08-11T11:31:18Z</time>
      </trkpt>
      <trkpt lat="45.14623" lon="5.92256">
        <ele>1580.8</ele>
        <time>2020-08-11T11:31:19Z</time>
      </trkpt>
      <trkpt lat="45.14622" lon="5.92253">
        <ele>1580.4</ele>
        <time>2020-08-11T11:31:20Z</time>
      </trkpt>
      <trkpt lat="45.14622" lon="5.92251">
        <ele>1579.8</ele>
        <time>2020-08-11T11:31:21Z</time>
      </trkpt>
      <trkpt lat="45.14622" lon="5.92249">
        <ele>1578.8</ele>
        <time>2020-08-11T11:31:22Z</time>
      </trkpt>
      <trkpt lat="45.14622" lon="5.92247">
        <ele>1578.2</ele>
        <time>2020-08-11T11:31:23Z</time>
      </trkpt>
      <trkpt lat="45.14622" lon="5.92244">
        <ele>1577.6</ele>
        <time>2020-08-11T11:31:24Z</time>
      </trkpt>
      <trkpt lat="45.14622" lon="5.92242">
        <ele>1577.4</ele>
        <time>2020-08-11T11:31:25Z</time>
      </trkpt>
      <trkpt lat="45.14621" lon="5.9224">
        <ele>1577.4</ele>
        <time>2020-08-11T11:31:26Z</time>
      </trkpt>
      <trkpt lat="45.1462" lon="5.92238">
        <ele>1577.2</ele>
        <time>2020-08-11T11:31:27Z</time>
      </trkpt>
      <trkpt lat="45.14619" lon="5.92236">
        <ele>1577.2</ele>
        <time>2020-08-11T11:31:28Z</time>
      </trkpt>
      <trkpt lat="45.14617" lon="5.92234">
        <ele>1576.8</ele>
        <time>2020-08-11T11:31:29Z</time>
      </trkpt>
      <trkpt lat="45.14616" lon="5.92232">
        <ele>1576.4</ele>
        <time>2020-08-11T11:31:30Z</time>
      </trkpt>
      <trkpt lat="45.14615" lon="5.9223">
        <ele>1576</ele>
        <time>2020-08-11T11:31:31Z</time>
      </trkpt>
      <trkpt lat="45.14615" lon="5.92228">
        <ele>1575.8</ele>
        <time>2020-08-11T11:31:32Z</time>
      </trkpt>
      <trkpt lat="45.14616" lon="5.92225">
        <ele>1575.2</ele>
        <time>2020-08-11T11:31:33Z</time>
      </trkpt>
      <trkpt lat="45.14616" lon="5.92222">
        <ele>1574.6</ele>
        <time>2020-08-11T11:31:34Z</time>
      </trkpt>
      <trkpt lat="45.14617" lon="5.9222">
        <ele>1574.4</ele>
        <time>2020-08-11T11:31:35Z</time>
      </trkpt>
      <trkpt lat="45.14617" lon="5.92217">
        <ele>1574.2</ele>
        <time>2020-08-11T11:31:36Z</time>
      </trkpt>
      <trkpt lat="45.14617" lon="5.92215">
        <ele>1573.8</ele>
        <time>2020-08-11T11:31:37Z</time>
      </trkpt>
      <trkpt lat="45.14618" lon="5.92214">
        <ele>1573.2</ele>
        <time>2020-08-11T11:31:38Z</time>
      </trkpt>
      <trkpt lat="45.14618" lon="5.92212">
        <ele>1572.8</ele>
        <time>2020-08-11T11:31:39Z</time>
      </trkpt>
      <trkpt lat="45.14618" lon="5.9221">
        <ele>1572.8</ele>
        <time>2020-08-11T11:31:40Z</time>
      </trkpt>
      <trkpt lat="45.14619" lon="5.92208">
        <ele>1572.2</ele>
        <time>2020-08-11T11:31:41Z</time>
      </trkpt>
      <trkpt lat="45.14619" lon="5.92206">
        <ele>1572.2</ele>
        <time>2020-08-11T11:31:42Z</time>
      </trkpt>
      <trkpt lat="45.14619" lon="5.92205">
        <ele>1572</ele>
        <time>2020-08-11T11:31:43Z</time>
      </trkpt>
      <trkpt lat="45.14619" lon="5.92203">
        <ele>1571.2</ele>
        <time>2020-08-11T11:31:44Z</time>
      </trkpt>
      <trkpt lat="45.14619" lon="5.92201">
        <ele>1571</ele>
        <time>2020-08-11T11:31:45Z</time>
      </trkpt>
      <trkpt lat="45.1462" lon="5.922">
        <ele>1570.6</ele>
        <time>2020-08-11T11:31:46Z</time>
      </trkpt>
      <trkpt lat="45.1462" lon="5.92198">
        <ele>1570.4</ele>
        <time>2020-08-11T11:31:47Z</time>
      </trkpt>
      <trkpt lat="45.1462" lon="5.92196">
        <ele>1570</ele>
        <time>2020-08-11T11:31:48Z</time>
      </trkpt>
      <trkpt lat="45.1462" lon="5.92195">
        <ele>1569.4</ele>
        <time>2020-08-11T11:31:49Z</time>
      </trkpt>
      <trkpt lat="45.1462" lon="5.92193">
        <ele>1569.2</ele>
        <time>2020-08-11T11:31:50Z</time>
      </trkpt>
      <trkpt lat="45.1462" lon="5.92191">
        <ele>1569.2</ele>
        <time>2020-08-11T11:31:51Z</time>
      </trkpt>
      <trkpt lat="45.1462" lon="5.9219">
        <ele>1568.6</ele>
        <time>2020-08-11T11:31:52Z</time>
      </trkpt>
      <trkpt lat="45.1462" lon="5.92187">
        <ele>1568</ele>
        <time>2020-08-11T11:31:53Z</time>
      </trkpt>
      <trkpt lat="45.1462" lon="5.92184">
        <ele>1568</ele>
        <time>2020-08-11T11:31:54Z</time>
      </trkpt>
      <trkpt lat="45.14619" lon="5.92182">
        <ele>1567.8</ele>
        <time>2020-08-11T11:31:55Z</time>
      </trkpt>
      <trkpt lat="45.14619" lon="5.92179">
        <ele>1567.2</ele>
        <time>2020-08-11T11:31:56Z</time>
      </trkpt>
      <trkpt lat="45.14619" lon="5.92176">
        <ele>1566.8</ele>
        <time>2020-08-11T11:31:57Z</time>
      </trkpt>
      <trkpt lat="45.14617" lon="5.92171">
        <ele>1566.2</ele>
        <time>2020-08-11T11:31:58Z</time>
      </trkpt>
      <trkpt lat="45.14615" lon="5.92165">
        <ele>1566</ele>
        <time>2020-08-11T11:31:59Z</time>
      </trkpt>
      <trkpt lat="45.14613" lon="5.9216">
        <ele>1565.8</ele>
        <time>2020-08-11T11:32:00Z</time>
      </trkpt>
      <trkpt lat="45.14611" lon="5.92154">
        <ele>1565.6</ele>
        <time>2020-08-11T11:32:01Z</time>
      </trkpt>
      <trkpt lat="45.14609" lon="5.92149">
        <ele>1565</ele>
        <time>2020-08-11T11:32:02Z</time>
      </trkpt>
      <trkpt lat="45.14603" lon="5.92136">
        <ele>1564.6</ele>
        <time>2020-08-11T11:32:03Z</time>
      </trkpt>
      <trkpt lat="45.14602" lon="5.92134">
        <ele>1564.6</ele>
        <time>2020-08-11T11:32:04Z</time>
      </trkpt>
      <trkpt lat="45.14601" lon="5.92132">
        <ele>1564.2</ele>
        <time>2020-08-11T11:32:05Z</time>
      </trkpt>
      <trkpt lat="45.14599" lon="5.92127">
        <ele>1563.8</ele>
        <time>2020-08-11T11:32:06Z</time>
      </trkpt>
      <trkpt lat="45.14597" lon="5.92123">
        <ele>1563.2</ele>
        <time>2020-08-11T11:32:07Z</time>
      </trkpt>
      <trkpt lat="45.14596" lon="5.92121">
        <ele>1562.8</ele>
        <time>2020-08-11T11:32:08Z</time>
      </trkpt>
      <trkpt lat="45.14595" lon="5.9212">
        <ele>1562.6</ele>
        <time>2020-08-11T11:32:09Z</time>
      </trkpt>
      <trkpt lat="45.14595" lon="5.92118">
        <ele>1562.4</ele>
        <time>2020-08-11T11:32:10Z</time>
      </trkpt>
      <trkpt lat="45.14594" lon="5.92117">
        <ele>1562.4</ele>
        <time>2020-08-11T11:32:11Z</time>
      </trkpt>
      <trkpt lat="45.14594" lon="5.92115">
        <ele>1561.8</ele>
        <time>2020-08-11T11:32:12Z</time>
      </trkpt>
      <trkpt lat="45.14593" lon="5.92114">
        <ele>1562</ele>
        <time>2020-08-11T11:32:13Z</time>
      </trkpt>
      <trkpt lat="45.14592" lon="5.92112">
        <ele>1561.8</ele>
        <time>2020-08-11T11:32:14Z</time>
      </trkpt>
      <trkpt lat="45.14592" lon="5.92111">
        <ele>1561.6</ele>
        <time>2020-08-11T11:32:15Z</time>
      </trkpt>
      <trkpt lat="45.14591" lon="5.92108">
        <ele>1561.2</ele>
        <time>2020-08-11T11:32:16Z</time>
      </trkpt>
      <trkpt lat="45.1459" lon="5.92106">
        <ele>1560.6</ele>
        <time>2020-08-11T11:32:17Z</time>
      </trkpt>
      <trkpt lat="45.14588" lon="5.92104">
        <ele>1560.8</ele>
        <time>2020-08-11T11:32:18Z</time>
      </trkpt>
      <trkpt lat="45.14587" lon="5.92102">
        <ele>1560.4</ele>
        <time>2020-08-11T11:32:19Z</time>
      </trkpt>
      <trkpt lat="45.14586" lon="5.921">
        <ele>1560.4</ele>
        <time>2020-08-11T11:32:20Z</time>
      </trkpt>
      <trkpt lat="45.14585" lon="5.92098">
        <ele>1560</ele>
        <time>2020-08-11T11:32:21Z</time>
      </trkpt>
      <trkpt lat="45.14584" lon="5.92096">
        <ele>1559.6</ele>
        <time>2020-08-11T11:32:22Z</time>
      </trkpt>
      <trkpt lat="45.14583" lon="5.92094">
        <ele>1559.8</ele>
        <time>2020-08-11T11:32:23Z</time>
      </trkpt>
      <trkpt lat="45.14582" lon="5.92092">
        <ele>1559.8</ele>
        <time>2020-08-11T11:32:24Z</time>
      </trkpt>
      <trkpt lat="45.1458" lon="5.9209">
        <ele>1559.8</ele>
        <time>2020-08-11T11:32:25Z</time>
      </trkpt>
      <trkpt lat="45.14579" lon="5.92089">
        <ele>1559.6</ele>
        <time>2020-08-11T11:32:26Z</time>
      </trkpt>
      <trkpt lat="45.14578" lon="5.92087">
        <ele>1559.6</ele>
        <time>2020-08-11T11:32:27Z</time>
      </trkpt>
      <trkpt lat="45.14577" lon="5.92086">
        <ele>1559.4</ele>
        <time>2020-08-11T11:32:28Z</time>
      </trkpt>
      <trkpt lat="45.14576" lon="5.92084">
        <ele>1559.4</ele>
        <time>2020-08-11T11:32:29Z</time>
      </trkpt>
      <trkpt lat="45.14576" lon="5.92083">
        <ele>1559.6</ele>
        <time>2020-08-11T11:32:30Z</time>
      </trkpt>
      <trkpt lat="45.14575" lon="5.92082">
        <ele>1559.6</ele>
        <time>2020-08-11T11:32:31Z</time>
      </trkpt>
      <trkpt lat="45.14574" lon="5.9208">
        <ele>1559.4</ele>
        <time>2020-08-11T11:32:32Z</time>
      </trkpt>
      <trkpt lat="45.14573" lon="5.92079">
        <ele>1559.4</ele>
        <time>2020-08-11T11:32:33Z</time>
      </trkpt>
      <trkpt lat="45.14572" lon="5.92077">
        <ele>1559.4</ele>
        <time>2020-08-11T11:32:34Z</time>
      </trkpt>
      <trkpt lat="45.14572" lon="5.92076">
        <ele>1559.2</ele>
        <time>2020-08-11T11:32:35Z</time>
      </trkpt>
      <trkpt lat="45.14571" lon="5.92074">
        <ele>1559</ele>
        <time>2020-08-11T11:32:36Z</time>
      </trkpt>
      <trkpt lat="45.14571" lon="5.92072">
        <ele>1558.8</ele>
        <time>2020-08-11T11:32:37Z</time>
      </trkpt>
      <trkpt lat="45.1457" lon="5.92071">
        <ele>1559.2</ele>
        <time>2020-08-11T11:32:38Z</time>
      </trkpt>
      <trkpt lat="45.1457" lon="5.92069">
        <ele>1559</ele>
        <time>2020-08-11T11:32:39Z</time>
      </trkpt>
      <trkpt lat="45.14569" lon="5.92067">
        <ele>1558.8</ele>
        <time>2020-08-11T11:32:40Z</time>
      </trkpt>
      <trkpt lat="45.14569" lon="5.92066">
        <ele>1558.6</ele>
        <time>2020-08-11T11:32:41Z</time>
      </trkpt>
      <trkpt lat="45.14568" lon="5.92064">
        <ele>1558.6</ele>
        <time>2020-08-11T11:32:42Z</time>
      </trkpt>
      <trkpt lat="45.14567" lon="5.92064">
        <ele>1558.2</ele>
        <time>2020-08-11T11:32:43Z</time>
      </trkpt>
      <trkpt lat="45.14566" lon="5.92063">
        <ele>1558.4</ele>
        <time>2020-08-11T11:32:44Z</time>
      </trkpt>
      <trkpt lat="45.14565" lon="5.92063">
        <ele>1558.4</ele>
        <time>2020-08-11T11:32:45Z</time>
      </trkpt>
      <trkpt lat="45.14564" lon="5.92063">
        <ele>1558.2</ele>
        <time>2020-08-11T11:32:46Z</time>
      </trkpt>
      <trkpt lat="45.14563" lon="5.92062">
        <ele>1558.2</ele>
        <time>2020-08-11T11:32:47Z</time>
      </trkpt>
      <trkpt lat="45.14562" lon="5.92062">
        <ele>1558.2</ele>
        <time>2020-08-11T11:32:48Z</time>
      </trkpt>
      <trkpt lat="45.14561" lon="5.92062">
        <ele>1558.4</ele>
        <time>2020-08-11T11:32:49Z</time>
      </trkpt>
      <trkpt lat="45.1456" lon="5.92061">
        <ele>1558.2</ele>
        <time>2020-08-11T11:32:50Z</time>
      </trkpt>
      <trkpt lat="45.14559" lon="5.92061">
        <ele>1558.2</ele>
        <time>2020-08-11T11:32:51Z</time>
      </trkpt>
      <trkpt lat="45.14558" lon="5.9206">
        <ele>1558.2</ele>
        <time>2020-08-11T11:32:52Z</time>
      </trkpt>
      <trkpt lat="45.14557" lon="5.9206">
        <ele>1558.2</ele>
        <time>2020-08-11T11:32:53Z</time>
      </trkpt>
      <trkpt lat="45.14556" lon="5.9206">
        <ele>1558.2</ele>
        <time>2020-08-11T11:32:54Z</time>
      </trkpt>
      <trkpt lat="45.14556" lon="5.92059">
        <ele>1558.4</ele>
        <time>2020-08-11T11:32:55Z</time>
      </trkpt>
      <trkpt lat="45.14555" lon="5.92059">
        <ele>1558.6</ele>
        <time>2020-08-11T11:32:56Z</time>
      </trkpt>
      <trkpt lat="45.14554" lon="5.92059">
        <ele>1558.6</ele>
        <time>2020-08-11T11:32:57Z</time>
      </trkpt>
      <trkpt lat="45.14553" lon="5.92058">
        <ele>1558.8</ele>
        <time>2020-08-11T11:32:58Z</time>
      </trkpt>
      <trkpt lat="45.14552" lon="5.92058">
        <ele>1558.6</ele>
        <time>2020-08-11T11:32:59Z</time>
      </trkpt>
      <trkpt lat="45.14551" lon="5.92057">
        <ele>1558.4</ele>
        <time>2020-08-11T11:33:00Z</time>
      </trkpt>
      <trkpt lat="45.1455" lon="5.92057">
        <ele>1557.8</ele>
        <time>2020-08-11T11:33:01Z</time>
      </trkpt>
      <trkpt lat="45.14549" lon="5.92057">
        <ele>1557.8</ele>
        <time>2020-08-11T11:33:02Z</time>
      </trkpt>
      <trkpt lat="45.14548" lon="5.92056">
        <ele>1557.8</ele>
        <time>2020-08-11T11:33:03Z</time>
      </trkpt>
      <trkpt lat="45.14548" lon="5.92054">
        <ele>1557.2</ele>
        <time>2020-08-11T11:33:04Z</time>
      </trkpt>
      <trkpt lat="45.14547" lon="5.92053">
        <ele>1557.4</ele>
        <time>2020-08-11T11:33:05Z</time>
      </trkpt>
      <trkpt lat="45.14546" lon="5.92052">
        <ele>1557.2</ele>
        <time>2020-08-11T11:33:06Z</time>
      </trkpt>
      <trkpt lat="45.14545" lon="5.92051">
        <ele>1557.2</ele>
        <time>2020-08-11T11:33:07Z</time>
      </trkpt>
      <trkpt lat="45.14544" lon="5.9205">
        <ele>1557</ele>
        <time>2020-08-11T11:33:08Z</time>
      </trkpt>
      <trkpt lat="45.14543" lon="5.92049">
        <ele>1557</ele>
        <time>2020-08-11T11:33:09Z</time>
      </trkpt>
      <trkpt lat="45.14542" lon="5.92048">
        <ele>1557</ele>
        <time>2020-08-11T11:33:10Z</time>
      </trkpt>
      <trkpt lat="45.14541" lon="5.92047">
        <ele>1557.2</ele>
        <time>2020-08-11T11:33:11Z</time>
      </trkpt>
      <trkpt lat="45.14541" lon="5.92046">
        <ele>1557.6</ele>
        <time>2020-08-11T11:33:12Z</time>
      </trkpt>
      <trkpt lat="45.1454" lon="5.92045">
        <ele>1557.4</ele>
        <time>2020-08-11T11:33:13Z</time>
      </trkpt>
      <trkpt lat="45.14539" lon="5.92044">
        <ele>1557.6</ele>
        <time>2020-08-11T11:33:14Z</time>
      </trkpt>
      <trkpt lat="45.14538" lon="5.92043">
        <ele>1557.8</ele>
        <time>2020-08-11T11:33:15Z</time>
      </trkpt>
      <trkpt lat="45.14538" lon="5.92042">
        <ele>1557.8</ele>
        <time>2020-08-11T11:33:16Z</time>
      </trkpt>
      <trkpt lat="45.14537" lon="5.92041">
        <ele>1557.6</ele>
        <time>2020-08-11T11:33:17Z</time>
      </trkpt>
      <trkpt lat="45.14536" lon="5.9204">
        <ele>1557.4</ele>
        <time>2020-08-11T11:33:18Z</time>
      </trkpt>
      <trkpt lat="45.14535" lon="5.92038">
        <ele>1557.4</ele>
        <time>2020-08-11T11:33:19Z</time>
      </trkpt>
      <trkpt lat="45.14535" lon="5.92037">
        <ele>1557.4</ele>
        <time>2020-08-11T11:33:20Z</time>
      </trkpt>
      <trkpt lat="45.14534" lon="5.92037">
        <ele>1557.4</ele>
        <time>2020-08-11T11:33:21Z</time>
      </trkpt>
      <trkpt lat="45.14534" lon="5.92036">
        <ele>1557.6</ele>
        <time>2020-08-11T11:33:22Z</time>
      </trkpt>
      <trkpt lat="45.14533" lon="5.92035">
        <ele>1557.8</ele>
        <time>2020-08-11T11:33:23Z</time>
      </trkpt>
      <trkpt lat="45.14532" lon="5.92034">
        <ele>1557.8</ele>
        <time>2020-08-11T11:33:24Z</time>
      </trkpt>
      <trkpt lat="45.14532" lon="5.92033">
        <ele>1557.6</ele>
        <time>2020-08-11T11:33:25Z</time>
      </trkpt>
      <trkpt lat="45.14531" lon="5.92032">
        <ele>1557.6</ele>
        <time>2020-08-11T11:33:26Z</time>
      </trkpt>
      <trkpt lat="45.1453" lon="5.92031">
        <ele>1557.8</ele>
        <time>2020-08-11T11:33:27Z</time>
      </trkpt>
      <trkpt lat="45.1453" lon="5.9203">
        <ele>1557.6</ele>
        <time>2020-08-11T11:33:28Z</time>
      </trkpt>
      <trkpt lat="45.14529" lon="5.92028">
        <ele>1557.4</ele>
        <time>2020-08-11T11:33:29Z</time>
      </trkpt>
      <trkpt lat="45.14529" lon="5.92027">
        <ele>1557.4</ele>
        <time>2020-08-11T11:33:30Z</time>
      </trkpt>
      <trkpt lat="45.14528" lon="5.92026">
        <ele>1557.4</ele>
        <time>2020-08-11T11:33:31Z</time>
      </trkpt>
      <trkpt lat="45.14528" lon="5.92026">
        <ele>1557.4</ele>
        <time>2020-08-11T11:33:32Z</time>
      </trkpt>
      <trkpt lat="45.14528" lon="5.92026">
        <ele>1557</ele>
        <time>2020-08-11T11:33:33Z</time>
      </trkpt>
      <trkpt lat="45.14528" lon="5.92026">
        <ele>1556.6</ele>
        <time>2020-08-11T11:33:34Z</time>
      </trkpt>
      <trkpt lat="45.14527" lon="5.92023">
        <ele>1556.4</ele>
        <time>2020-08-11T11:33:35Z</time>
      </trkpt>
      <trkpt lat="45.14527" lon="5.92023">
        <ele>1556</ele>
        <time>2020-08-11T11:33:36Z</time>
      </trkpt>
      <trkpt lat="45.14527" lon="5.92022">
        <ele>1556</ele>
        <time>2020-08-11T11:33:37Z</time>
      </trkpt>
      <trkpt lat="45.14527" lon="5.92022">
        <ele>1555.8</ele>
        <time>2020-08-11T11:33:38Z</time>
      </trkpt>
      <trkpt lat="45.14526" lon="5.92021">
        <ele>1556</ele>
        <time>2020-08-11T11:33:39Z</time>
      </trkpt>
      <trkpt lat="45.14526" lon="5.9202">
        <ele>1555.8</ele>
        <time>2020-08-11T11:33:40Z</time>
      </trkpt>
      <trkpt lat="45.14526" lon="5.9202">
        <ele>1555.6</ele>
        <time>2020-08-11T11:33:41Z</time>
      </trkpt>
      <trkpt lat="45.14525" lon="5.92019">
        <ele>1555.6</ele>
        <time>2020-08-11T11:33:42Z</time>
      </trkpt>
      <trkpt lat="45.14525" lon="5.92018">
        <ele>1555.4</ele>
        <time>2020-08-11T11:33:43Z</time>
      </trkpt>
      <trkpt lat="45.14525" lon="5.92017">
        <ele>1555.4</ele>
        <time>2020-08-11T11:33:44Z</time>
      </trkpt>
      <trkpt lat="45.14525" lon="5.92017">
        <ele>1554.8</ele>
        <time>2020-08-11T11:33:45Z</time>
      </trkpt>
      <trkpt lat="45.14525" lon="5.92017">
        <ele>1554.8</ele>
        <time>2020-08-11T11:33:46Z</time>
      </trkpt>
      <trkpt lat="45.14523" lon="5.92015">
        <ele>1554.8</ele>
        <time>2020-08-11T11:33:47Z</time>
      </trkpt>
      <trkpt lat="45.14523" lon="5.92015">
        <ele>1554.6</ele>
        <time>2020-08-11T11:33:48Z</time>
      </trkpt>
      <trkpt lat="45.14522" lon="5.92014">
        <ele>1554.2</ele>
        <time>2020-08-11T11:33:49Z</time>
      </trkpt>
      <trkpt lat="45.1452" lon="5.92013">
        <ele>1554</ele>
        <time>2020-08-11T11:33:50Z</time>
      </trkpt>
      <trkpt lat="45.14519" lon="5.92012">
        <ele>1554.2</ele>
        <time>2020-08-11T11:33:51Z</time>
      </trkpt>
      <trkpt lat="45.14517" lon="5.92012">
        <ele>1554.2</ele>
        <time>2020-08-11T11:33:52Z</time>
      </trkpt>
      <trkpt lat="45.14516" lon="5.92011">
        <ele>1554.2</ele>
        <time>2020-08-11T11:33:53Z</time>
      </trkpt>
      <trkpt lat="45.14514" lon="5.9201">
        <ele>1554</ele>
        <time>2020-08-11T11:33:54Z</time>
      </trkpt>
      <trkpt lat="45.14513" lon="5.92009">
        <ele>1553.8</ele>
        <time>2020-08-11T11:33:55Z</time>
      </trkpt>
      <trkpt lat="45.14513" lon="5.92009">
        <ele>1554</ele>
        <time>2020-08-11T11:33:56Z</time>
      </trkpt>
      <trkpt lat="45.14511" lon="5.92007">
        <ele>1554.2</ele>
        <time>2020-08-11T11:33:57Z</time>
      </trkpt>
      <trkpt lat="45.14511" lon="5.92007">
        <ele>1554</ele>
        <time>2020-08-11T11:33:58Z</time>
      </trkpt>
      <trkpt lat="45.1451" lon="5.92007">
        <ele>1554</ele>
        <time>2020-08-11T11:33:59Z</time>
      </trkpt>
      <trkpt lat="45.14509" lon="5.92007">
        <ele>1554</ele>
        <time>2020-08-11T11:34:00Z</time>
      </trkpt>
      <trkpt lat="45.14508" lon="5.92007">
        <ele>1554</ele>
        <time>2020-08-11T11:34:01Z</time>
      </trkpt>
      <trkpt lat="45.14506" lon="5.92007">
        <ele>1553.8</ele>
        <time>2020-08-11T11:34:02Z</time>
      </trkpt>
      <trkpt lat="45.14506" lon="5.92007">
        <ele>1553.6</ele>
        <time>2020-08-11T11:34:03Z</time>
      </trkpt>
      <trkpt lat="45.14506" lon="5.92007">
        <ele>1553.4</ele>
        <time>2020-08-11T11:34:04Z</time>
      </trkpt>
      <trkpt lat="45.14503" lon="5.92007">
        <ele>1553.4</ele>
        <time>2020-08-11T11:34:05Z</time>
      </trkpt>
      <trkpt lat="45.14503" lon="5.92007">
        <ele>1553.4</ele>
        <time>2020-08-11T11:34:06Z</time>
      </trkpt>
      <trkpt lat="45.14503" lon="5.92006">
        <ele>1553.6</ele>
        <time>2020-08-11T11:34:07Z</time>
      </trkpt>
      <trkpt lat="45.14502" lon="5.92005">
        <ele>1553.6</ele>
        <time>2020-08-11T11:34:08Z</time>
      </trkpt>
      <trkpt lat="45.14501" lon="5.92005">
        <ele>1553.8</ele>
        <time>2020-08-11T11:34:09Z</time>
      </trkpt>
      <trkpt lat="45.14501" lon="5.92004">
        <ele>1554</ele>
        <time>2020-08-11T11:34:10Z</time>
      </trkpt>
      <trkpt lat="45.145" lon="5.92004">
        <ele>1553.8</ele>
        <time>2020-08-11T11:34:11Z</time>
      </trkpt>
      <trkpt lat="45.14499" lon="5.92003">
        <ele>1554.4</ele>
        <time>2020-08-11T11:34:12Z</time>
      </trkpt>
      <trkpt lat="45.14499" lon="5.92002">
        <ele>1554.6</ele>
        <time>2020-08-11T11:34:13Z</time>
      </trkpt>
      <trkpt lat="45.145" lon="5.92001">
        <ele>1554.6</ele>
        <time>2020-08-11T11:34:14Z</time>
      </trkpt>
      <trkpt lat="45.145" lon="5.91999">
        <ele>1554.6</ele>
        <time>2020-08-11T11:34:15Z</time>
      </trkpt>
      <trkpt lat="45.145" lon="5.91998">
        <ele>1554.8</ele>
        <time>2020-08-11T11:34:16Z</time>
      </trkpt>
      <trkpt lat="45.145" lon="5.91997">
        <ele>1554.4</ele>
        <time>2020-08-11T11:34:17Z</time>
      </trkpt>
      <trkpt lat="45.14501" lon="5.91996">
        <ele>1554.4</ele>
        <time>2020-08-11T11:34:18Z</time>
      </trkpt>
      <trkpt lat="45.14501" lon="5.91994">
        <ele>1554.2</ele>
        <time>2020-08-11T11:34:19Z</time>
      </trkpt>
      <trkpt lat="45.14501" lon="5.91993">
        <ele>1553.8</ele>
        <time>2020-08-11T11:34:20Z</time>
      </trkpt>
      <trkpt lat="45.14501" lon="5.91992">
        <ele>1553.8</ele>
        <time>2020-08-11T11:34:21Z</time>
      </trkpt>
      <trkpt lat="45.14502" lon="5.91991">
        <ele>1553.8</ele>
        <time>2020-08-11T11:34:22Z</time>
      </trkpt>
      <trkpt lat="45.14502" lon="5.91988">
        <ele>1554.2</ele>
        <time>2020-08-11T11:34:23Z</time>
      </trkpt>
      <trkpt lat="45.14502" lon="5.91986">
        <ele>1554.2</ele>
        <time>2020-08-11T11:34:24Z</time>
      </trkpt>
      <trkpt lat="45.14503" lon="5.91984">
        <ele>1554.6</ele>
        <time>2020-08-11T11:34:25Z</time>
      </trkpt>
      <trkpt lat="45.14503" lon="5.91982">
        <ele>1554.4</ele>
        <time>2020-08-11T11:34:26Z</time>
      </trkpt>
      <trkpt lat="45.14503" lon="5.91982">
        <ele>1554.4</ele>
        <time>2020-08-11T11:34:27Z</time>
      </trkpt>
      <trkpt lat="45.14505" lon="5.91981">
        <ele>1554.4</ele>
        <time>2020-08-11T11:34:28Z</time>
      </trkpt>
      <trkpt lat="45.14505" lon="5.91981">
        <ele>1554.2</ele>
        <time>2020-08-11T11:34:29Z</time>
      </trkpt>
      <trkpt lat="45.14506" lon="5.91979">
        <ele>1553.8</ele>
        <time>2020-08-11T11:34:30Z</time>
      </trkpt>
      <trkpt lat="45.14506" lon="5.91978">
        <ele>1553.6</ele>
        <time>2020-08-11T11:34:31Z</time>
      </trkpt>
      <trkpt lat="45.14507" lon="5.91977">
        <ele>1553.4</ele>
        <time>2020-08-11T11:34:32Z</time>
      </trkpt>
      <trkpt lat="45.14507" lon="5.91976">
        <ele>1553.4</ele>
        <time>2020-08-11T11:34:33Z</time>
      </trkpt>
      <trkpt lat="45.14508" lon="5.91974">
        <ele>1553.4</ele>
        <time>2020-08-11T11:34:34Z</time>
      </trkpt>
      <trkpt lat="45.14508" lon="5.91973">
        <ele>1553.2</ele>
        <time>2020-08-11T11:34:35Z</time>
      </trkpt>
      <trkpt lat="45.14509" lon="5.91972">
        <ele>1553</ele>
        <time>2020-08-11T11:34:36Z</time>
      </trkpt>
      <trkpt lat="45.14509" lon="5.91971">
        <ele>1553</ele>
        <time>2020-08-11T11:34:37Z</time>
      </trkpt>
      <trkpt lat="45.1451" lon="5.91969">
        <ele>1553</ele>
        <time>2020-08-11T11:34:38Z</time>
      </trkpt>
      <trkpt lat="45.1451" lon="5.91969">
        <ele>1553</ele>
        <time>2020-08-11T11:34:39Z</time>
      </trkpt>
      <trkpt lat="45.1451" lon="5.91968">
        <ele>1553.2</ele>
        <time>2020-08-11T11:34:40Z</time>
      </trkpt>
      <trkpt lat="45.1451" lon="5.91967">
        <ele>1553.2</ele>
        <time>2020-08-11T11:34:41Z</time>
      </trkpt>
      <trkpt lat="45.1451" lon="5.91967">
        <ele>1553.2</ele>
        <time>2020-08-11T11:34:42Z</time>
      </trkpt>
      <trkpt lat="45.1451" lon="5.91966">
        <ele>1553.4</ele>
        <time>2020-08-11T11:34:43Z</time>
      </trkpt>
      <trkpt lat="45.1451" lon="5.91965">
        <ele>1553.2</ele>
        <time>2020-08-11T11:34:44Z</time>
      </trkpt>
      <trkpt lat="45.14511" lon="5.91965">
        <ele>1553</ele>
        <time>2020-08-11T11:34:45Z</time>
      </trkpt>
      <trkpt lat="45.14511" lon="5.91964">
        <ele>1553</ele>
        <time>2020-08-11T11:34:46Z</time>
      </trkpt>
      <trkpt lat="45.14511" lon="5.91963">
        <ele>1552.8</ele>
        <time>2020-08-11T11:34:47Z</time>
      </trkpt>
      <trkpt lat="45.14511" lon="5.91963">
        <ele>1552.8</ele>
        <time>2020-08-11T11:34:48Z</time>
      </trkpt>
      <trkpt lat="45.14511" lon="5.91962">
        <ele>1552.8</ele>
        <time>2020-08-11T11:34:49Z</time>
      </trkpt>
      <trkpt lat="45.14511" lon="5.91961">
        <ele>1553.2</ele>
        <time>2020-08-11T11:34:50Z</time>
      </trkpt>
      <trkpt lat="45.14511" lon="5.91961">
        <ele>1553.2</ele>
        <time>2020-08-11T11:34:51Z</time>
      </trkpt>
      <trkpt lat="45.14511" lon="5.9196">
        <ele>1553.2</ele>
        <time>2020-08-11T11:34:52Z</time>
      </trkpt>
      <trkpt lat="45.14511" lon="5.91959">
        <ele>1553.4</ele>
        <time>2020-08-11T11:34:53Z</time>
      </trkpt>
      <trkpt lat="45.14512" lon="5.91959">
        <ele>1553.4</ele>
        <time>2020-08-11T11:34:54Z</time>
      </trkpt>
      <trkpt lat="45.14512" lon="5.91958">
        <ele>1553.4</ele>
        <time>2020-08-11T11:34:55Z</time>
      </trkpt>
      <trkpt lat="45.14512" lon="5.91958">
        <ele>1553.6</ele>
        <time>2020-08-11T11:34:56Z</time>
      </trkpt>
      <trkpt lat="45.14512" lon="5.91957">
        <ele>1553.2</ele>
        <time>2020-08-11T11:34:57Z</time>
      </trkpt>
      <trkpt lat="45.14512" lon="5.91955">
        <ele>1553.2</ele>
        <time>2020-08-11T11:34:58Z</time>
      </trkpt>
      <trkpt lat="45.14512" lon="5.91953">
        <ele>1553</ele>
        <time>2020-08-11T11:34:59Z</time>
      </trkpt>
      <trkpt lat="45.14512" lon="5.91951">
        <ele>1552.8</ele>
        <time>2020-08-11T11:35:00Z</time>
      </trkpt>
      <trkpt lat="45.14513" lon="5.91949">
        <ele>1552.8</ele>
        <time>2020-08-11T11:35:01Z</time>
      </trkpt>
      <trkpt lat="45.14513" lon="5.91947">
        <ele>1552.8</ele>
        <time>2020-08-11T11:35:02Z</time>
      </trkpt>
      <trkpt lat="45.14513" lon="5.91945">
        <ele>1553</ele>
        <time>2020-08-11T11:35:03Z</time>
      </trkpt>
      <trkpt lat="45.14513" lon="5.91943">
        <ele>1553.4</ele>
        <time>2020-08-11T11:35:04Z</time>
      </trkpt>
      <trkpt lat="45.14513" lon="5.9194">
        <ele>1553.6</ele>
        <time>2020-08-11T11:35:05Z</time>
      </trkpt>
      <trkpt lat="45.14513" lon="5.91938">
        <ele>1554</ele>
        <time>2020-08-11T11:35:06Z</time>
      </trkpt>
      <trkpt lat="45.14513" lon="5.91936">
        <ele>1554.2</ele>
        <time>2020-08-11T11:35:07Z</time>
      </trkpt>
      <trkpt lat="45.14513" lon="5.91933">
        <ele>1553.8</ele>
        <time>2020-08-11T11:35:08Z</time>
      </trkpt>
      <trkpt lat="45.14513" lon="5.91931">
        <ele>1553.4</ele>
        <time>2020-08-11T11:35:09Z</time>
      </trkpt>
      <trkpt lat="45.14513" lon="5.91929">
        <ele>1553</ele>
        <time>2020-08-11T11:35:10Z</time>
      </trkpt>
      <trkpt lat="45.14513" lon="5.91928">
        <ele>1553</ele>
        <time>2020-08-11T11:35:11Z</time>
      </trkpt>
      <trkpt lat="45.14513" lon="5.91927">
        <ele>1553</ele>
        <time>2020-08-11T11:35:12Z</time>
      </trkpt>
      <trkpt lat="45.14513" lon="5.91925">
        <ele>1553.2</ele>
        <time>2020-08-11T11:35:13Z</time>
      </trkpt>
      <trkpt lat="45.14512" lon="5.91924">
        <ele>1553.6</ele>
        <time>2020-08-11T11:35:14Z</time>
      </trkpt>
      <trkpt lat="45.14512" lon="5.91923">
        <ele>1553.2</ele>
        <time>2020-08-11T11:35:15Z</time>
      </trkpt>
      <trkpt lat="45.14512" lon="5.91922">
        <ele>1553.2</ele>
        <time>2020-08-11T11:35:16Z</time>
      </trkpt>
      <trkpt lat="45.14512" lon="5.91921">
        <ele>1553</ele>
        <time>2020-08-11T11:35:17Z</time>
      </trkpt>
      <trkpt lat="45.14511" lon="5.9192">
        <ele>1553</ele>
        <time>2020-08-11T11:35:18Z</time>
      </trkpt>
      <trkpt lat="45.14511" lon="5.91919">
        <ele>1553.2</ele>
        <time>2020-08-11T11:35:19Z</time>
      </trkpt>
      <trkpt lat="45.14511" lon="5.91918">
        <ele>1553.4</ele>
        <time>2020-08-11T11:35:20Z</time>
      </trkpt>
      <trkpt lat="45.14511" lon="5.91917">
        <ele>1553.2</ele>
        <time>2020-08-11T11:35:21Z</time>
      </trkpt>
      <trkpt lat="45.14511" lon="5.91915">
        <ele>1553</ele>
        <time>2020-08-11T11:35:22Z</time>
      </trkpt>
      <trkpt lat="45.1451" lon="5.91914">
        <ele>1553</ele>
        <time>2020-08-11T11:35:23Z</time>
      </trkpt>
      <trkpt lat="45.14509" lon="5.91912">
        <ele>1552.8</ele>
        <time>2020-08-11T11:35:24Z</time>
      </trkpt>
      <trkpt lat="45.14509" lon="5.9191">
        <ele>1552.8</ele>
        <time>2020-08-11T11:35:25Z</time>
      </trkpt>
      <trkpt lat="45.14508" lon="5.91909">
        <ele>1552.6</ele>
        <time>2020-08-11T11:35:26Z</time>
      </trkpt>
      <trkpt lat="45.14507" lon="5.91907">
        <ele>1552.8</ele>
        <time>2020-08-11T11:35:27Z</time>
      </trkpt>
      <trkpt lat="45.14507" lon="5.91905">
        <ele>1553</ele>
        <time>2020-08-11T11:35:28Z</time>
      </trkpt>
      <trkpt lat="45.14506" lon="5.91904">
        <ele>1553.2</ele>
        <time>2020-08-11T11:35:29Z</time>
      </trkpt>
      <trkpt lat="45.14507" lon="5.91902">
        <ele>1553</ele>
        <time>2020-08-11T11:35:30Z</time>
      </trkpt>
      <trkpt lat="45.14507" lon="5.91901">
        <ele>1553.2</ele>
        <time>2020-08-11T11:35:31Z</time>
      </trkpt>
      <trkpt lat="45.14507" lon="5.91899">
        <ele>1553</ele>
        <time>2020-08-11T11:35:32Z</time>
      </trkpt>
      <trkpt lat="45.14508" lon="5.91898">
        <ele>1552.8</ele>
        <time>2020-08-11T11:35:33Z</time>
      </trkpt>
      <trkpt lat="45.14508" lon="5.91896">
        <ele>1552.8</ele>
        <time>2020-08-11T11:35:34Z</time>
      </trkpt>
      <trkpt lat="45.14508" lon="5.91895">
        <ele>1552.8</ele>
        <time>2020-08-11T11:35:35Z</time>
      </trkpt>
      <trkpt lat="45.14509" lon="5.91893">
        <ele>1552.6</ele>
        <time>2020-08-11T11:35:36Z</time>
      </trkpt>
      <trkpt lat="45.14509" lon="5.91891">
        <ele>1552.4</ele>
        <time>2020-08-11T11:35:37Z</time>
      </trkpt>
      <trkpt lat="45.14509" lon="5.9189">
        <ele>1552.2</ele>
        <time>2020-08-11T11:35:38Z</time>
      </trkpt>
      <trkpt lat="45.1451" lon="5.91889">
        <ele>1552.2</ele>
        <time>2020-08-11T11:35:39Z</time>
      </trkpt>
      <trkpt lat="45.1451" lon="5.91889">
        <ele>1552.2</ele>
        <time>2020-08-11T11:35:40Z</time>
      </trkpt>
      <trkpt lat="45.1451" lon="5.91888">
        <ele>1552.4</ele>
        <time>2020-08-11T11:35:41Z</time>
      </trkpt>
      <trkpt lat="45.1451" lon="5.91887">
        <ele>1552.6</ele>
        <time>2020-08-11T11:35:42Z</time>
      </trkpt>
      <trkpt lat="45.14511" lon="5.91886">
        <ele>1552.4</ele>
        <time>2020-08-11T11:35:43Z</time>
      </trkpt>
      <trkpt lat="45.14511" lon="5.91885">
        <ele>1552.4</ele>
        <time>2020-08-11T11:35:44Z</time>
      </trkpt>
      <trkpt lat="45.14511" lon="5.91884">
        <ele>1552.4</ele>
        <time>2020-08-11T11:35:45Z</time>
      </trkpt>
      <trkpt lat="45.14512" lon="5.91883">
        <ele>1552.6</ele>
        <time>2020-08-11T11:35:46Z</time>
      </trkpt>
      <trkpt lat="45.14512" lon="5.91882">
        <ele>1552.8</ele>
        <time>2020-08-11T11:35:47Z</time>
      </trkpt>
      <trkpt lat="45.14512" lon="5.91881">
        <ele>1552.8</ele>
        <time>2020-08-11T11:35:48Z</time>
      </trkpt>
      <trkpt lat="45.14513" lon="5.9188">
        <ele>1552.6</ele>
        <time>2020-08-11T11:35:49Z</time>
      </trkpt>
      <trkpt lat="45.14513" lon="5.91878">
        <ele>1552.6</ele>
        <time>2020-08-11T11:35:50Z</time>
      </trkpt>
      <trkpt lat="45.14512" lon="5.91876">
        <ele>1552.4</ele>
        <time>2020-08-11T11:35:51Z</time>
      </trkpt>
      <trkpt lat="45.14512" lon="5.91875">
        <ele>1552.4</ele>
        <time>2020-08-11T11:35:52Z</time>
      </trkpt>
      <trkpt lat="45.14512" lon="5.91873">
        <ele>1552.4</ele>
        <time>2020-08-11T11:35:53Z</time>
      </trkpt>
      <trkpt lat="45.14512" lon="5.91871">
        <ele>1552.2</ele>
        <time>2020-08-11T11:35:54Z</time>
      </trkpt>
      <trkpt lat="45.14512" lon="5.9187">
        <ele>1552.2</ele>
        <time>2020-08-11T11:35:55Z</time>
      </trkpt>
      <trkpt lat="45.14512" lon="5.91868">
        <ele>1552.4</ele>
        <time>2020-08-11T11:35:56Z</time>
      </trkpt>
      <trkpt lat="45.14512" lon="5.91867">
        <ele>1552.4</ele>
        <time>2020-08-11T11:35:57Z</time>
      </trkpt>
      <trkpt lat="45.14512" lon="5.91865">
        <ele>1552.2</ele>
        <time>2020-08-11T11:35:58Z</time>
      </trkpt>
      <trkpt lat="45.14512" lon="5.91863">
        <ele>1551.8</ele>
        <time>2020-08-11T11:35:59Z</time>
      </trkpt>
      <trkpt lat="45.14512" lon="5.91861">
        <ele>1551.4</ele>
        <time>2020-08-11T11:36:00Z</time>
      </trkpt>
      <trkpt lat="45.14512" lon="5.91859">
        <ele>1551.4</ele>
        <time>2020-08-11T11:36:01Z</time>
      </trkpt>
      <trkpt lat="45.14512" lon="5.91858">
        <ele>1551.2</ele>
        <time>2020-08-11T11:36:02Z</time>
      </trkpt>
      <trkpt lat="45.14512" lon="5.91856">
        <ele>1551.2</ele>
        <time>2020-08-11T11:36:03Z</time>
      </trkpt>
      <trkpt lat="45.14512" lon="5.91854">
        <ele>1551.2</ele>
        <time>2020-08-11T11:36:04Z</time>
      </trkpt>
      <trkpt lat="45.14512" lon="5.91852">
        <ele>1551</ele>
        <time>2020-08-11T11:36:05Z</time>
      </trkpt>
      <trkpt lat="45.14513" lon="5.9185">
        <ele>1551.2</ele>
        <time>2020-08-11T11:36:06Z</time>
      </trkpt>
      <trkpt lat="45.14513" lon="5.91848">
        <ele>1551</ele>
        <time>2020-08-11T11:36:07Z</time>
      </trkpt>
      <trkpt lat="45.14514" lon="5.91846">
        <ele>1551</ele>
        <time>2020-08-11T11:36:08Z</time>
      </trkpt>
      <trkpt lat="45.14515" lon="5.91844">
        <ele>1550.8</ele>
        <time>2020-08-11T11:36:09Z</time>
      </trkpt>
      <trkpt lat="45.14515" lon="5.91842">
        <ele>1550.8</ele>
        <time>2020-08-11T11:36:10Z</time>
      </trkpt>
      <trkpt lat="45.14516" lon="5.9184">
        <ele>1550.4</ele>
        <time>2020-08-11T11:36:11Z</time>
      </trkpt>
      <trkpt lat="45.14516" lon="5.91838">
        <ele>1550.2</ele>
        <time>2020-08-11T11:36:12Z</time>
      </trkpt>
      <trkpt lat="45.14516" lon="5.91837">
        <ele>1550</ele>
        <time>2020-08-11T11:36:13Z</time>
      </trkpt>
      <trkpt lat="45.14516" lon="5.91836">
        <ele>1549.8</ele>
        <time>2020-08-11T11:36:14Z</time>
      </trkpt>
      <trkpt lat="45.14517" lon="5.91835">
        <ele>1549.8</ele>
        <time>2020-08-11T11:36:15Z</time>
      </trkpt>
      <trkpt lat="45.14517" lon="5.91834">
        <ele>1549.6</ele>
        <time>2020-08-11T11:36:16Z</time>
      </trkpt>
      <trkpt lat="45.14517" lon="5.91833">
        <ele>1549.8</ele>
        <time>2020-08-11T11:36:17Z</time>
      </trkpt>
      <trkpt lat="45.14517" lon="5.91832">
        <ele>1549.8</ele>
        <time>2020-08-11T11:36:18Z</time>
      </trkpt>
      <trkpt lat="45.14517" lon="5.91831">
        <ele>1549.8</ele>
        <time>2020-08-11T11:36:19Z</time>
      </trkpt>
      <trkpt lat="45.14517" lon="5.91829">
        <ele>1549.4</ele>
        <time>2020-08-11T11:36:20Z</time>
      </trkpt>
      <trkpt lat="45.14517" lon="5.91828">
        <ele>1549.6</ele>
        <time>2020-08-11T11:36:21Z</time>
      </trkpt>
      <trkpt lat="45.14518" lon="5.91827">
        <ele>1549.6</ele>
        <time>2020-08-11T11:36:22Z</time>
      </trkpt>
      <trkpt lat="45.14518" lon="5.91826">
        <ele>1549.8</ele>
        <time>2020-08-11T11:36:23Z</time>
      </trkpt>
      <trkpt lat="45.14518" lon="5.91825">
        <ele>1550</ele>
        <time>2020-08-11T11:36:24Z</time>
      </trkpt>
      <trkpt lat="45.14519" lon="5.91823">
        <ele>1550</ele>
        <time>2020-08-11T11:36:25Z</time>
      </trkpt>
      <trkpt lat="45.14519" lon="5.91822">
        <ele>1550.2</ele>
        <time>2020-08-11T11:36:26Z</time>
      </trkpt>
      <trkpt lat="45.14519" lon="5.9182">
        <ele>1550.2</ele>
        <time>2020-08-11T11:36:27Z</time>
      </trkpt>
      <trkpt lat="45.1452" lon="5.91819">
        <ele>1550.2</ele>
        <time>2020-08-11T11:36:28Z</time>
      </trkpt>
      <trkpt lat="45.1452" lon="5.91817">
        <ele>1550.2</ele>
        <time>2020-08-11T11:36:29Z</time>
      </trkpt>
      <trkpt lat="45.14521" lon="5.91816">
        <ele>1550</ele>
        <time>2020-08-11T11:36:30Z</time>
      </trkpt>
      <trkpt lat="45.14521" lon="5.91814">
        <ele>1549.8</ele>
        <time>2020-08-11T11:36:31Z</time>
      </trkpt>
      <trkpt lat="45.14521" lon="5.91813">
        <ele>1549.6</ele>
        <time>2020-08-11T11:36:32Z</time>
      </trkpt>
      <trkpt lat="45.14521" lon="5.91812">
        <ele>1549.4</ele>
        <time>2020-08-11T11:36:33Z</time>
      </trkpt>
      <trkpt lat="45.14521" lon="5.91811">
        <ele>1549.2</ele>
        <time>2020-08-11T11:36:34Z</time>
      </trkpt>
      <trkpt lat="45.14522" lon="5.9181">
        <ele>1548.8</ele>
        <time>2020-08-11T11:36:35Z</time>
      </trkpt>
      <trkpt lat="45.14522" lon="5.91809">
        <ele>1548.8</ele>
        <time>2020-08-11T11:36:36Z</time>
      </trkpt>
      <trkpt lat="45.14522" lon="5.91808">
        <ele>1548.8</ele>
        <time>2020-08-11T11:36:37Z</time>
      </trkpt>
      <trkpt lat="45.14522" lon="5.91806">
        <ele>1549</ele>
        <time>2020-08-11T11:36:38Z</time>
      </trkpt>
      <trkpt lat="45.14522" lon="5.91805">
        <ele>1549</ele>
        <time>2020-08-11T11:36:39Z</time>
      </trkpt>
      <trkpt lat="45.14522" lon="5.91804">
        <ele>1548.8</ele>
        <time>2020-08-11T11:36:40Z</time>
      </trkpt>
      <trkpt lat="45.14522" lon="5.91803">
        <ele>1548.8</ele>
        <time>2020-08-11T11:36:41Z</time>
      </trkpt>
      <trkpt lat="45.14522" lon="5.91802">
        <ele>1549</ele>
        <time>2020-08-11T11:36:42Z</time>
      </trkpt>
      <trkpt lat="45.14522" lon="5.91801">
        <ele>1548.8</ele>
        <time>2020-08-11T11:36:43Z</time>
      </trkpt>
      <trkpt lat="45.14523" lon="5.91799">
        <ele>1548.8</ele>
        <time>2020-08-11T11:36:44Z</time>
      </trkpt>
      <trkpt lat="45.14523" lon="5.91796">
        <ele>1548.8</ele>
        <time>2020-08-11T11:36:45Z</time>
      </trkpt>
      <trkpt lat="45.14524" lon="5.91794">
        <ele>1548.6</ele>
        <time>2020-08-11T11:36:46Z</time>
      </trkpt>
      <trkpt lat="45.14524" lon="5.91792">
        <ele>1548.4</ele>
        <time>2020-08-11T11:36:47Z</time>
      </trkpt>
      <trkpt lat="45.14525" lon="5.9179">
        <ele>1548.4</ele>
        <time>2020-08-11T11:36:48Z</time>
      </trkpt>
      <trkpt lat="45.14525" lon="5.91788">
        <ele>1548.4</ele>
        <time>2020-08-11T11:36:49Z</time>
      </trkpt>
      <trkpt lat="45.14525" lon="5.91786">
        <ele>1548.2</ele>
        <time>2020-08-11T11:36:50Z</time>
      </trkpt>
      <trkpt lat="45.14525" lon="5.91784">
        <ele>1548</ele>
        <time>2020-08-11T11:36:51Z</time>
      </trkpt>
      <trkpt lat="45.14524" lon="5.91782">
        <ele>1547.8</ele>
        <time>2020-08-11T11:36:52Z</time>
      </trkpt>
      <trkpt lat="45.14524" lon="5.9178">
        <ele>1548</ele>
        <time>2020-08-11T11:36:53Z</time>
      </trkpt>
      <trkpt lat="45.14524" lon="5.91778">
        <ele>1548</ele>
        <time>2020-08-11T11:36:54Z</time>
      </trkpt>
      <trkpt lat="45.14524" lon="5.91776">
        <ele>1547.8</ele>
        <time>2020-08-11T11:36:55Z</time>
      </trkpt>
      <trkpt lat="45.14524" lon="5.91775">
        <ele>1547.8</ele>
        <time>2020-08-11T11:36:56Z</time>
      </trkpt>
      <trkpt lat="45.14524" lon="5.91773">
        <ele>1548.2</ele>
        <time>2020-08-11T11:36:57Z</time>
      </trkpt>
      <trkpt lat="45.14523" lon="5.9177">
        <ele>1548.4</ele>
        <time>2020-08-11T11:36:58Z</time>
      </trkpt>
      <trkpt lat="45.14523" lon="5.91767">
        <ele>1548.8</ele>
        <time>2020-08-11T11:36:59Z</time>
      </trkpt>
      <trkpt lat="45.14522" lon="5.91764">
        <ele>1548.4</ele>
        <time>2020-08-11T11:37:00Z</time>
      </trkpt>
      <trkpt lat="45.14522" lon="5.91761">
        <ele>1548.4</ele>
        <time>2020-08-11T11:37:01Z</time>
      </trkpt>
      <trkpt lat="45.14521" lon="5.91758">
        <ele>1548.4</ele>
        <time>2020-08-11T11:37:02Z</time>
      </trkpt>
      <trkpt lat="45.14521" lon="5.91757">
        <ele>1548.4</ele>
        <time>2020-08-11T11:37:03Z</time>
      </trkpt>
      <trkpt lat="45.14521" lon="5.91755">
        <ele>1548</ele>
        <time>2020-08-11T11:37:04Z</time>
      </trkpt>
      <trkpt lat="45.14521" lon="5.91754">
        <ele>1548</ele>
        <time>2020-08-11T11:37:05Z</time>
      </trkpt>
      <trkpt lat="45.14521" lon="5.91753">
        <ele>1548</ele>
        <time>2020-08-11T11:37:06Z</time>
      </trkpt>
      <trkpt lat="45.14521" lon="5.91751">
        <ele>1547.6</ele>
        <time>2020-08-11T11:37:07Z</time>
      </trkpt>
      <trkpt lat="45.14521" lon="5.9175">
        <ele>1547.4</ele>
        <time>2020-08-11T11:37:08Z</time>
      </trkpt>
      <trkpt lat="45.14521" lon="5.91748">
        <ele>1547.6</ele>
        <time>2020-08-11T11:37:09Z</time>
      </trkpt>
      <trkpt lat="45.14521" lon="5.91747">
        <ele>1547.2</ele>
        <time>2020-08-11T11:37:10Z</time>
      </trkpt>
      <trkpt lat="45.14521" lon="5.91745">
        <ele>1547.4</ele>
        <time>2020-08-11T11:37:11Z</time>
      </trkpt>
      <trkpt lat="45.14521" lon="5.91742">
        <ele>1547.4</ele>
        <time>2020-08-11T11:37:12Z</time>
      </trkpt>
      <trkpt lat="45.1452" lon="5.9174">
        <ele>1547.6</ele>
        <time>2020-08-11T11:37:13Z</time>
      </trkpt>
      <trkpt lat="45.14519" lon="5.91737">
        <ele>1547.4</ele>
        <time>2020-08-11T11:37:14Z</time>
      </trkpt>
      <trkpt lat="45.14519" lon="5.91734">
        <ele>1547.8</ele>
        <time>2020-08-11T11:37:15Z</time>
      </trkpt>
      <trkpt lat="45.14518" lon="5.91731">
        <ele>1547.6</ele>
        <time>2020-08-11T11:37:16Z</time>
      </trkpt>
      <trkpt lat="45.14517" lon="5.91728">
        <ele>1548</ele>
        <time>2020-08-11T11:37:17Z</time>
      </trkpt>
      <trkpt lat="45.14517" lon="5.91726">
        <ele>1547.8</ele>
        <time>2020-08-11T11:37:18Z</time>
      </trkpt>
      <trkpt lat="45.14516" lon="5.91723">
        <ele>1547.6</ele>
        <time>2020-08-11T11:37:19Z</time>
      </trkpt>
      <trkpt lat="45.14516" lon="5.91721">
        <ele>1547.8</ele>
        <time>2020-08-11T11:37:20Z</time>
      </trkpt>
      <trkpt lat="45.14515" lon="5.91718">
        <ele>1547.6</ele>
        <time>2020-08-11T11:37:21Z</time>
      </trkpt>
      <trkpt lat="45.14515" lon="5.91717">
        <ele>1547.6</ele>
        <time>2020-08-11T11:37:22Z</time>
      </trkpt>
      <trkpt lat="45.14514" lon="5.91715">
        <ele>1547.8</ele>
        <time>2020-08-11T11:37:23Z</time>
      </trkpt>
      <trkpt lat="45.14514" lon="5.91713">
        <ele>1547.8</ele>
        <time>2020-08-11T11:37:24Z</time>
      </trkpt>
      <trkpt lat="45.14514" lon="5.91711">
        <ele>1548</ele>
        <time>2020-08-11T11:37:25Z</time>
      </trkpt>
      <trkpt lat="45.14514" lon="5.9171">
        <ele>1548.2</ele>
        <time>2020-08-11T11:37:26Z</time>
      </trkpt>
      <trkpt lat="45.14513" lon="5.91708">
        <ele>1548</ele>
        <time>2020-08-11T11:37:27Z</time>
      </trkpt>
      <trkpt lat="45.14513" lon="5.91708">
        <ele>1547.8</ele>
        <time>2020-08-11T11:37:28Z</time>
      </trkpt>
      <trkpt lat="45.14514" lon="5.91705">
        <ele>1547.6</ele>
        <time>2020-08-11T11:37:29Z</time>
      </trkpt>
      <trkpt lat="45.14514" lon="5.91705">
        <ele>1547.6</ele>
        <time>2020-08-11T11:37:30Z</time>
      </trkpt>
      <trkpt lat="45.14514" lon="5.91705">
        <ele>1547.6</ele>
        <time>2020-08-11T11:37:31Z</time>
      </trkpt>
      <trkpt lat="45.14514" lon="5.91705">
        <ele>1547.6</ele>
        <time>2020-08-11T11:37:32Z</time>
      </trkpt>
      <trkpt lat="45.14513" lon="5.91702">
        <ele>1547.4</ele>
        <time>2020-08-11T11:37:33Z</time>
      </trkpt>
      <trkpt lat="45.14513" lon="5.91702">
        <ele>1547.6</ele>
        <time>2020-08-11T11:37:34Z</time>
      </trkpt>
      <trkpt lat="45.14513" lon="5.91702">
        <ele>1547.8</ele>
        <time>2020-08-11T11:37:35Z</time>
      </trkpt>
      <trkpt lat="45.14513" lon="5.917">
        <ele>1547.8</ele>
        <time>2020-08-11T11:37:36Z</time>
      </trkpt>
      <trkpt lat="45.14513" lon="5.91699">
        <ele>1547.8</ele>
        <time>2020-08-11T11:37:37Z</time>
      </trkpt>
      <trkpt lat="45.14514" lon="5.91697">
        <ele>1547.8</ele>
        <time>2020-08-11T11:37:38Z</time>
      </trkpt>
      <trkpt lat="45.14514" lon="5.91696">
        <ele>1547.8</ele>
        <time>2020-08-11T11:37:39Z</time>
      </trkpt>
      <trkpt lat="45.14514" lon="5.91694">
        <ele>1547.8</ele>
        <time>2020-08-11T11:37:40Z</time>
      </trkpt>
      <trkpt lat="45.14514" lon="5.91692">
        <ele>1547.6</ele>
        <time>2020-08-11T11:37:41Z</time>
      </trkpt>
      <trkpt lat="45.14515" lon="5.9169">
        <ele>1547.4</ele>
        <time>2020-08-11T11:37:42Z</time>
      </trkpt>
      <trkpt lat="45.14515" lon="5.91688">
        <ele>1547.4</ele>
        <time>2020-08-11T11:37:43Z</time>
      </trkpt>
      <trkpt lat="45.14515" lon="5.91685">
        <ele>1547.2</ele>
        <time>2020-08-11T11:37:44Z</time>
      </trkpt>
      <trkpt lat="45.14516" lon="5.91683">
        <ele>1547</ele>
        <time>2020-08-11T11:37:45Z</time>
      </trkpt>
      <trkpt lat="45.14516" lon="5.91683">
        <ele>1546.8</ele>
        <time>2020-08-11T11:37:46Z</time>
      </trkpt>
      <trkpt lat="45.14516" lon="5.91679">
        <ele>1547</ele>
        <time>2020-08-11T11:37:47Z</time>
      </trkpt>
      <trkpt lat="45.14516" lon="5.91679">
        <ele>1547</ele>
        <time>2020-08-11T11:37:48Z</time>
      </trkpt>
      <trkpt lat="45.14516" lon="5.91679">
        <ele>1546.8</ele>
        <time>2020-08-11T11:37:49Z</time>
      </trkpt>
      <trkpt lat="45.14516" lon="5.91679">
        <ele>1546.8</ele>
        <time>2020-08-11T11:37:50Z</time>
      </trkpt>
      <trkpt lat="45.14516" lon="5.91675">
        <ele>1547</ele>
        <time>2020-08-11T11:37:51Z</time>
      </trkpt>
      <trkpt lat="45.14516" lon="5.91674">
        <ele>1546.6</ele>
        <time>2020-08-11T11:37:52Z</time>
      </trkpt>
      <trkpt lat="45.14515" lon="5.91673">
        <ele>1546.2</ele>
        <time>2020-08-11T11:37:53Z</time>
      </trkpt>
      <trkpt lat="45.14515" lon="5.91672">
        <ele>1545.8</ele>
        <time>2020-08-11T11:37:54Z</time>
      </trkpt>
      <trkpt lat="45.14515" lon="5.91671">
        <ele>1545.8</ele>
        <time>2020-08-11T11:37:55Z</time>
      </trkpt>
      <trkpt lat="45.14515" lon="5.9167">
        <ele>1545.6</ele>
        <time>2020-08-11T11:37:56Z</time>
      </trkpt>
      <trkpt lat="45.14514" lon="5.91669">
        <ele>1545.6</ele>
        <time>2020-08-11T11:37:57Z</time>
      </trkpt>
      <trkpt lat="45.14514" lon="5.91668">
        <ele>1545.4</ele>
        <time>2020-08-11T11:37:58Z</time>
      </trkpt>
      <trkpt lat="45.14514" lon="5.91667">
        <ele>1545.6</ele>
        <time>2020-08-11T11:37:59Z</time>
      </trkpt>
      <trkpt lat="45.14514" lon="5.91666">
        <ele>1545.4</ele>
        <time>2020-08-11T11:38:00Z</time>
      </trkpt>
      <trkpt lat="45.14513" lon="5.91665">
        <ele>1545.6</ele>
        <time>2020-08-11T11:38:01Z</time>
      </trkpt>
      <trkpt lat="45.14513" lon="5.91664">
        <ele>1545.6</ele>
        <time>2020-08-11T11:38:02Z</time>
      </trkpt>
      <trkpt lat="45.14513" lon="5.91663">
        <ele>1545.4</ele>
        <time>2020-08-11T11:38:03Z</time>
      </trkpt>
      <trkpt lat="45.14513" lon="5.91662">
        <ele>1545.2</ele>
        <time>2020-08-11T11:38:04Z</time>
      </trkpt>
      <trkpt lat="45.14512" lon="5.91661">
        <ele>1545.2</ele>
        <time>2020-08-11T11:38:05Z</time>
      </trkpt>
      <trkpt lat="45.14512" lon="5.9166">
        <ele>1544.6</ele>
        <time>2020-08-11T11:38:06Z</time>
      </trkpt>
      <trkpt lat="45.14512" lon="5.91659">
        <ele>1544.6</ele>
        <time>2020-08-11T11:38:07Z</time>
      </trkpt>
      <trkpt lat="45.14512" lon="5.91658">
        <ele>1543.8</ele>
        <time>2020-08-11T11:38:08Z</time>
      </trkpt>
      <trkpt lat="45.14511" lon="5.91657">
        <ele>1544</ele>
        <time>2020-08-11T11:38:09Z</time>
      </trkpt>
      <trkpt lat="45.14511" lon="5.91656">
        <ele>1543.4</ele>
        <time>2020-08-11T11:38:10Z</time>
      </trkpt>
      <trkpt lat="45.14511" lon="5.91655">
        <ele>1542.8</ele>
        <time>2020-08-11T11:38:11Z</time>
      </trkpt>
      <trkpt lat="45.14511" lon="5.91654">
        <ele>1543</ele>
        <time>2020-08-11T11:38:12Z</time>
      </trkpt>
      <trkpt lat="45.1451" lon="5.91653">
        <ele>1542.4</ele>
        <time>2020-08-11T11:38:13Z</time>
      </trkpt>
      <trkpt lat="45.1451" lon="5.91652">
        <ele>1541.8</ele>
        <time>2020-08-11T11:38:14Z</time>
      </trkpt>
      <trkpt lat="45.1451" lon="5.91651">
        <ele>1541.4</ele>
        <time>2020-08-11T11:38:15Z</time>
      </trkpt>
      <trkpt lat="45.1451" lon="5.9165">
        <ele>1540.4</ele>
        <time>2020-08-11T11:38:16Z</time>
      </trkpt>
      <trkpt lat="45.14509" lon="5.9165">
        <ele>1539.6</ele>
        <time>2020-08-11T11:38:17Z</time>
      </trkpt>
      <trkpt lat="45.14509" lon="5.91649">
        <ele>1540</ele>
        <time>2020-08-11T11:38:18Z</time>
      </trkpt>
      <trkpt lat="45.14509" lon="5.91648">
        <ele>1539.8</ele>
        <time>2020-08-11T11:38:19Z</time>
      </trkpt>
      <trkpt lat="45.14509" lon="5.91647">
        <ele>1539.8</ele>
        <time>2020-08-11T11:38:20Z</time>
      </trkpt>
      <trkpt lat="45.14508" lon="5.91646">
        <ele>1539.6</ele>
        <time>2020-08-11T11:38:21Z</time>
      </trkpt>
      <trkpt lat="45.14508" lon="5.91645">
        <ele>1539</ele>
        <time>2020-08-11T11:38:22Z</time>
      </trkpt>
      <trkpt lat="45.14508" lon="5.91644">
        <ele>1538.6</ele>
        <time>2020-08-11T11:38:23Z</time>
      </trkpt>
      <trkpt lat="45.14508" lon="5.91643">
        <ele>1537.6</ele>
        <time>2020-08-11T11:38:24Z</time>
      </trkpt>
      <trkpt lat="45.14507" lon="5.91642">
        <ele>1537.2</ele>
        <time>2020-08-11T11:38:25Z</time>
      </trkpt>
      <trkpt lat="45.14507" lon="5.91641">
        <ele>1537.4</ele>
        <time>2020-08-11T11:38:26Z</time>
      </trkpt>
      <trkpt lat="45.14507" lon="5.9164">
        <ele>1537</ele>
        <time>2020-08-11T11:38:27Z</time>
      </trkpt>
      <trkpt lat="45.14507" lon="5.91639">
        <ele>1536.6</ele>
        <time>2020-08-11T11:38:28Z</time>
      </trkpt>
      <trkpt lat="45.14506" lon="5.91638">
        <ele>1536.4</ele>
        <time>2020-08-11T11:38:29Z</time>
      </trkpt>
      <trkpt lat="45.14506" lon="5.91637">
        <ele>1536</ele>
        <time>2020-08-11T11:38:30Z</time>
      </trkpt>
      <trkpt lat="45.14506" lon="5.91636">
        <ele>1535.8</ele>
        <time>2020-08-11T11:38:31Z</time>
      </trkpt>
      <trkpt lat="45.14506" lon="5.91635">
        <ele>1534.8</ele>
        <time>2020-08-11T11:38:32Z</time>
      </trkpt>
      <trkpt lat="45.14505" lon="5.91634">
        <ele>1534.6</ele>
        <time>2020-08-11T11:38:33Z</time>
      </trkpt>
      <trkpt lat="45.14505" lon="5.91633">
        <ele>1534</ele>
        <time>2020-08-11T11:38:34Z</time>
      </trkpt>
      <trkpt lat="45.14505" lon="5.91632">
        <ele>1533.8</ele>
        <time>2020-08-11T11:38:35Z</time>
      </trkpt>
      <trkpt lat="45.14505" lon="5.91631">
        <ele>1533.2</ele>
        <time>2020-08-11T11:38:36Z</time>
      </trkpt>
      <trkpt lat="45.14504" lon="5.9163">
        <ele>1532.8</ele>
        <time>2020-08-11T11:38:37Z</time>
      </trkpt>
      <trkpt lat="45.14504" lon="5.91629">
        <ele>1533</ele>
        <time>2020-08-11T11:38:38Z</time>
      </trkpt>
      <trkpt lat="45.14504" lon="5.91628">
        <ele>1533.4</ele>
        <time>2020-08-11T11:38:39Z</time>
      </trkpt>
      <trkpt lat="45.14504" lon="5.91627">
        <ele>1533.2</ele>
        <time>2020-08-11T11:38:40Z</time>
      </trkpt>
      <trkpt lat="45.14503" lon="5.91626">
        <ele>1533</ele>
        <time>2020-08-11T11:38:41Z</time>
      </trkpt>
      <trkpt lat="45.14503" lon="5.91625">
        <ele>1532</ele>
        <time>2020-08-11T11:38:42Z</time>
      </trkpt>
      <trkpt lat="45.14503" lon="5.91625">
        <ele>1531.6</ele>
        <time>2020-08-11T11:38:43Z</time>
      </trkpt>
      <trkpt lat="45.14503" lon="5.91624">
        <ele>1531</ele>
        <time>2020-08-11T11:38:44Z</time>
      </trkpt>
      <trkpt lat="45.14502" lon="5.91623">
        <ele>1530.2</ele>
        <time>2020-08-11T11:38:45Z</time>
      </trkpt>
      <trkpt lat="45.14502" lon="5.91622">
        <ele>1529.8</ele>
        <time>2020-08-11T11:38:46Z</time>
      </trkpt>
      <trkpt lat="45.14502" lon="5.91621">
        <ele>1528.8</ele>
        <time>2020-08-11T11:38:47Z</time>
      </trkpt>
      <trkpt lat="45.14502" lon="5.9162">
        <ele>1527.6</ele>
        <time>2020-08-11T11:38:48Z</time>
      </trkpt>
      <trkpt lat="45.14501" lon="5.91619">
        <ele>1527.2</ele>
        <time>2020-08-11T11:38:49Z</time>
      </trkpt>
      <trkpt lat="45.14501" lon="5.91618">
        <ele>1526.6</ele>
        <time>2020-08-11T11:38:50Z</time>
      </trkpt>
      <trkpt lat="45.14501" lon="5.91617">
        <ele>1526.2</ele>
        <time>2020-08-11T11:38:51Z</time>
      </trkpt>
      <trkpt lat="45.14501" lon="5.91616">
        <ele>1525.6</ele>
        <time>2020-08-11T11:38:52Z</time>
      </trkpt>
      <trkpt lat="45.145" lon="5.91615">
        <ele>1525.6</ele>
        <time>2020-08-11T11:38:53Z</time>
      </trkpt>
      <trkpt lat="45.145" lon="5.91614">
        <ele>1525.2</ele>
        <time>2020-08-11T11:38:54Z</time>
      </trkpt>
      <trkpt lat="45.145" lon="5.91613">
        <ele>1525</ele>
        <time>2020-08-11T11:38:55Z</time>
      </trkpt>
      <trkpt lat="45.145" lon="5.91612">
        <ele>1524.8</ele>
        <time>2020-08-11T11:38:56Z</time>
      </trkpt>
      <trkpt lat="45.14499" lon="5.91611">
        <ele>1524.6</ele>
        <time>2020-08-11T11:38:57Z</time>
      </trkpt>
      <trkpt lat="45.14499" lon="5.9161">
        <ele>1525</ele>
        <time>2020-08-11T11:38:58Z</time>
      </trkpt>
      <trkpt lat="45.14499" lon="5.91609">
        <ele>1524.8</ele>
        <time>2020-08-11T11:38:59Z</time>
      </trkpt>
      <trkpt lat="45.14499" lon="5.91608">
        <ele>1524.6</ele>
        <time>2020-08-11T11:39:00Z</time>
      </trkpt>
      <trkpt lat="45.14496" lon="5.91596">
        <ele>1524.4</ele>
        <time>2020-08-11T11:39:01Z</time>
      </trkpt>
      <trkpt lat="45.14494" lon="5.91583">
        <ele>1524</ele>
        <time>2020-08-11T11:39:02Z</time>
      </trkpt>
      <trkpt lat="45.14491" lon="5.91571">
        <ele>1524</ele>
        <time>2020-08-11T11:39:03Z</time>
      </trkpt>
      <trkpt lat="45.14489" lon="5.91562">
        <ele>1523.8</ele>
        <time>2020-08-11T11:39:04Z</time>
      </trkpt>
      <trkpt lat="45.14489" lon="5.91542">
        <ele>1523.2</ele>
        <time>2020-08-11T11:39:05Z</time>
      </trkpt>
      <trkpt lat="45.14489" lon="5.9154">
        <ele>1523</ele>
        <time>2020-08-11T11:39:06Z</time>
      </trkpt>
      <trkpt lat="45.14489" lon="5.91537">
        <ele>1522.8</ele>
        <time>2020-08-11T11:39:07Z</time>
      </trkpt>
      <trkpt lat="45.1449" lon="5.91531">
        <ele>1522.2</ele>
        <time>2020-08-11T11:39:08Z</time>
      </trkpt>
      <trkpt lat="45.14491" lon="5.91526">
        <ele>1521.8</ele>
        <time>2020-08-11T11:39:09Z</time>
      </trkpt>
      <trkpt lat="45.14493" lon="5.91522">
        <ele>1521.4</ele>
        <time>2020-08-11T11:39:10Z</time>
      </trkpt>
      <trkpt lat="45.14495" lon="5.91518">
        <ele>1521.4</ele>
        <time>2020-08-11T11:39:11Z</time>
      </trkpt>
      <trkpt lat="45.14496" lon="5.91514">
        <ele>1521</ele>
        <time>2020-08-11T11:39:12Z</time>
      </trkpt>
      <trkpt lat="45.14497" lon="5.91513">
        <ele>1520.8</ele>
        <time>2020-08-11T11:39:13Z</time>
      </trkpt>
      <trkpt lat="45.14497" lon="5.91512">
        <ele>1520.2</ele>
        <time>2020-08-11T11:39:14Z</time>
      </trkpt>
      <trkpt lat="45.14497" lon="5.91511">
        <ele>1520.2</ele>
        <time>2020-08-11T11:39:15Z</time>
      </trkpt>
      <trkpt lat="45.14497" lon="5.9151">
        <ele>1520</ele>
        <time>2020-08-11T11:39:16Z</time>
      </trkpt>
      <trkpt lat="45.14498" lon="5.91509">
        <ele>1519.6</ele>
        <time>2020-08-11T11:39:17Z</time>
      </trkpt>
      <trkpt lat="45.14498" lon="5.91508">
        <ele>1518.4</ele>
        <time>2020-08-11T11:39:18Z</time>
      </trkpt>
      <trkpt lat="45.14498" lon="5.91507">
        <ele>1518.2</ele>
        <time>2020-08-11T11:39:19Z</time>
      </trkpt>
      <trkpt lat="45.14499" lon="5.91506">
        <ele>1517</ele>
        <time>2020-08-11T11:39:20Z</time>
      </trkpt>
      <trkpt lat="45.14499" lon="5.91505">
        <ele>1516.2</ele>
        <time>2020-08-11T11:39:21Z</time>
      </trkpt>
      <trkpt lat="45.14499" lon="5.91504">
        <ele>1515.2</ele>
        <time>2020-08-11T11:39:22Z</time>
      </trkpt>
      <trkpt lat="45.145" lon="5.91503">
        <ele>1514.8</ele>
        <time>2020-08-11T11:39:23Z</time>
      </trkpt>
      <trkpt lat="45.145" lon="5.91502">
        <ele>1514.4</ele>
        <time>2020-08-11T11:39:24Z</time>
      </trkpt>
      <trkpt lat="45.145" lon="5.91501">
        <ele>1513.6</ele>
        <time>2020-08-11T11:39:25Z</time>
      </trkpt>
      <trkpt lat="45.145" lon="5.915">
        <ele>1513.4</ele>
        <time>2020-08-11T11:39:26Z</time>
      </trkpt>
      <trkpt lat="45.14501" lon="5.91499">
        <ele>1513.4</ele>
        <time>2020-08-11T11:39:27Z</time>
      </trkpt>
      <trkpt lat="45.14501" lon="5.91497">
        <ele>1513.2</ele>
        <time>2020-08-11T11:39:28Z</time>
      </trkpt>
      <trkpt lat="45.145" lon="5.91495">
        <ele>1512.2</ele>
        <time>2020-08-11T11:39:29Z</time>
      </trkpt>
      <trkpt lat="45.145" lon="5.91492">
        <ele>1512.2</ele>
        <time>2020-08-11T11:39:30Z</time>
      </trkpt>
      <trkpt lat="45.145" lon="5.9149">
        <ele>1512.2</ele>
        <time>2020-08-11T11:39:31Z</time>
      </trkpt>
      <trkpt lat="45.145" lon="5.91488">
        <ele>1511.4</ele>
        <time>2020-08-11T11:39:32Z</time>
      </trkpt>
      <trkpt lat="45.145" lon="5.91486">
        <ele>1511.2</ele>
        <time>2020-08-11T11:39:33Z</time>
      </trkpt>
      <trkpt lat="45.145" lon="5.91484">
        <ele>1510.8</ele>
        <time>2020-08-11T11:39:34Z</time>
      </trkpt>
      <trkpt lat="45.145" lon="5.91481">
        <ele>1509.8</ele>
        <time>2020-08-11T11:39:35Z</time>
      </trkpt>
      <trkpt lat="45.14499" lon="5.91478">
        <ele>1508.8</ele>
        <time>2020-08-11T11:39:36Z</time>
      </trkpt>
      <trkpt lat="45.14499" lon="5.91475">
        <ele>1508.2</ele>
        <time>2020-08-11T11:39:37Z</time>
      </trkpt>
      <trkpt lat="45.14499" lon="5.91472">
        <ele>1508</ele>
        <time>2020-08-11T11:39:38Z</time>
      </trkpt>
      <trkpt lat="45.14499" lon="5.91469">
        <ele>1507.6</ele>
        <time>2020-08-11T11:39:39Z</time>
      </trkpt>
      <trkpt lat="45.14499" lon="5.91468">
        <ele>1507.4</ele>
        <time>2020-08-11T11:39:40Z</time>
      </trkpt>
      <trkpt lat="45.14498" lon="5.91466">
        <ele>1506.8</ele>
        <time>2020-08-11T11:39:41Z</time>
      </trkpt>
      <trkpt lat="45.14498" lon="5.91464">
        <ele>1506.8</ele>
        <time>2020-08-11T11:39:42Z</time>
      </trkpt>
      <trkpt lat="45.14497" lon="5.91462">
        <ele>1506.2</ele>
        <time>2020-08-11T11:39:43Z</time>
      </trkpt>
      <trkpt lat="45.14497" lon="5.9146">
        <ele>1506.2</ele>
        <time>2020-08-11T11:39:44Z</time>
      </trkpt>
      <trkpt lat="45.14497" lon="5.91458">
        <ele>1505.6</ele>
        <time>2020-08-11T11:39:45Z</time>
      </trkpt>
      <trkpt lat="45.14496" lon="5.91457">
        <ele>1504.8</ele>
        <time>2020-08-11T11:39:46Z</time>
      </trkpt>
      <trkpt lat="45.14496" lon="5.91456">
        <ele>1504.2</ele>
        <time>2020-08-11T11:39:47Z</time>
      </trkpt>
      <trkpt lat="45.14497" lon="5.91456">
        <ele>1504</ele>
        <time>2020-08-11T11:39:48Z</time>
      </trkpt>
      <trkpt lat="45.14497" lon="5.91455">
        <ele>1503.6</ele>
        <time>2020-08-11T11:39:49Z</time>
      </trkpt>
      <trkpt lat="45.14497" lon="5.91455">
        <ele>1502</ele>
        <time>2020-08-11T11:39:50Z</time>
      </trkpt>
      <trkpt lat="45.14497" lon="5.91455">
        <ele>1501.2</ele>
        <time>2020-08-11T11:39:51Z</time>
      </trkpt>
      <trkpt lat="45.14498" lon="5.91454">
        <ele>1501.4</ele>
        <time>2020-08-11T11:39:52Z</time>
      </trkpt>
      <trkpt lat="45.14498" lon="5.91454">
        <ele>1501.2</ele>
        <time>2020-08-11T11:39:53Z</time>
      </trkpt>
      <trkpt lat="45.14498" lon="5.91453">
        <ele>1501</ele>
        <time>2020-08-11T11:39:54Z</time>
      </trkpt>
      <trkpt lat="45.14498" lon="5.91453">
        <ele>1500.6</ele>
        <time>2020-08-11T11:39:55Z</time>
      </trkpt>
      <trkpt lat="45.14499" lon="5.91453">
        <ele>1499.8</ele>
        <time>2020-08-11T11:39:56Z</time>
      </trkpt>
      <trkpt lat="45.14499" lon="5.91452">
        <ele>1499.8</ele>
        <time>2020-08-11T11:39:57Z</time>
      </trkpt>
      <trkpt lat="45.14499" lon="5.91452">
        <ele>1499.8</ele>
        <time>2020-08-11T11:39:58Z</time>
      </trkpt>
      <trkpt lat="45.145" lon="5.91451">
        <ele>1499.8</ele>
        <time>2020-08-11T11:39:59Z</time>
      </trkpt>
      <trkpt lat="45.145" lon="5.91451">
        <ele>1498.8</ele>
        <time>2020-08-11T11:40:01Z</time>
      </trkpt>
      <trkpt lat="45.145" lon="5.91451">
        <ele>1498.8</ele>
        <time>2020-08-11T11:40:02Z</time>
      </trkpt>
      <trkpt lat="45.145" lon="5.9145">
        <ele>1498.4</ele>
        <time>2020-08-11T11:40:03Z</time>
      </trkpt>
      <trkpt lat="45.14501" lon="5.9145">
        <ele>1498</ele>
        <time>2020-08-11T11:40:04Z</time>
      </trkpt>
      <trkpt lat="45.14501" lon="5.91449">
        <ele>1497.6</ele>
        <time>2020-08-11T11:40:05Z</time>
      </trkpt>
      <trkpt lat="45.14501" lon="5.91449">
        <ele>1497.4</ele>
        <time>2020-08-11T11:40:06Z</time>
      </trkpt>
      <trkpt lat="45.14501" lon="5.91449">
        <ele>1497.2</ele>
        <time>2020-08-11T11:40:07Z</time>
      </trkpt>
      <trkpt lat="45.14502" lon="5.91448">
        <ele>1496.4</ele>
        <time>2020-08-11T11:40:08Z</time>
      </trkpt>
      <trkpt lat="45.14502" lon="5.91448">
        <ele>1496</ele>
        <time>2020-08-11T11:40:09Z</time>
      </trkpt>
      <trkpt lat="45.14502" lon="5.91447">
        <ele>1495.8</ele>
        <time>2020-08-11T11:40:10Z</time>
      </trkpt>
      <trkpt lat="45.14502" lon="5.91447">
        <ele>1494.8</ele>
        <time>2020-08-11T11:40:11Z</time>
      </trkpt>
      <trkpt lat="45.14502" lon="5.91445">
        <ele>1494.6</ele>
        <time>2020-08-11T11:40:12Z</time>
      </trkpt>
      <trkpt lat="45.14502" lon="5.91443">
        <ele>1494.2</ele>
        <time>2020-08-11T11:40:13Z</time>
      </trkpt>
      <trkpt lat="45.14502" lon="5.9144">
        <ele>1493.8</ele>
        <time>2020-08-11T11:40:14Z</time>
      </trkpt>
      <trkpt lat="45.14501" lon="5.91438">
        <ele>1493</ele>
        <time>2020-08-11T11:40:15Z</time>
      </trkpt>
      <trkpt lat="45.14501" lon="5.91436">
        <ele>1492.2</ele>
        <time>2020-08-11T11:40:16Z</time>
      </trkpt>
      <trkpt lat="45.14501" lon="5.91434">
        <ele>1492.6</ele>
        <time>2020-08-11T11:40:17Z</time>
      </trkpt>
      <trkpt lat="45.14501" lon="5.91431">
        <ele>1492.4</ele>
        <time>2020-08-11T11:40:18Z</time>
      </trkpt>
      <trkpt lat="45.14501" lon="5.91429">
        <ele>1492.6</ele>
        <time>2020-08-11T11:40:19Z</time>
      </trkpt>
      <trkpt lat="45.14501" lon="5.91426">
        <ele>1492</ele>
        <time>2020-08-11T11:40:20Z</time>
      </trkpt>
      <trkpt lat="45.145" lon="5.91423">
        <ele>1491.4</ele>
        <time>2020-08-11T11:40:21Z</time>
      </trkpt>
      <trkpt lat="45.145" lon="5.91421">
        <ele>1491.4</ele>
        <time>2020-08-11T11:40:22Z</time>
      </trkpt>
      <trkpt lat="45.145" lon="5.91418">
        <ele>1490.8</ele>
        <time>2020-08-11T11:40:23Z</time>
      </trkpt>
      <trkpt lat="45.14499" lon="5.91415">
        <ele>1490.4</ele>
        <time>2020-08-11T11:40:24Z</time>
      </trkpt>
      <trkpt lat="45.14499" lon="5.91413">
        <ele>1489.8</ele>
        <time>2020-08-11T11:40:25Z</time>
      </trkpt>
      <trkpt lat="45.14498" lon="5.9141">
        <ele>1489.4</ele>
        <time>2020-08-11T11:40:26Z</time>
      </trkpt>
      <trkpt lat="45.14498" lon="5.91407">
        <ele>1489</ele>
        <time>2020-08-11T11:40:27Z</time>
      </trkpt>
      <trkpt lat="45.14497" lon="5.91404">
        <ele>1488.2</ele>
        <time>2020-08-11T11:40:28Z</time>
      </trkpt>
      <trkpt lat="45.14497" lon="5.91401">
        <ele>1486.8</ele>
        <time>2020-08-11T11:40:29Z</time>
      </trkpt>
      <trkpt lat="45.14496" lon="5.91399">
        <ele>1486.2</ele>
        <time>2020-08-11T11:40:30Z</time>
      </trkpt>
      <trkpt lat="45.14496" lon="5.91396">
        <ele>1485</ele>
        <time>2020-08-11T11:40:31Z</time>
      </trkpt>
      <trkpt lat="45.14495" lon="5.91393">
        <ele>1485.2</ele>
        <time>2020-08-11T11:40:32Z</time>
      </trkpt>
      <trkpt lat="45.14494" lon="5.9139">
        <ele>1484.4</ele>
        <time>2020-08-11T11:40:33Z</time>
      </trkpt>
      <trkpt lat="45.14494" lon="5.91388">
        <ele>1483.8</ele>
        <time>2020-08-11T11:40:34Z</time>
      </trkpt>
      <trkpt lat="45.14493" lon="5.91385">
        <ele>1483</ele>
        <time>2020-08-11T11:40:35Z</time>
      </trkpt>
      <trkpt lat="45.14493" lon="5.91382">
        <ele>1482.4</ele>
        <time>2020-08-11T11:40:36Z</time>
      </trkpt>
      <trkpt lat="45.14492" lon="5.9138">
        <ele>1482</ele>
        <time>2020-08-11T11:40:37Z</time>
      </trkpt>
      <trkpt lat="45.14493" lon="5.91381">
        <ele>1481.6</ele>
        <time>2020-08-11T11:40:38Z</time>
      </trkpt>
      <trkpt lat="45.14495" lon="5.91382">
        <ele>1481.6</ele>
        <time>2020-08-11T11:40:39Z</time>
      </trkpt>
      <trkpt lat="45.14496" lon="5.91383">
        <ele>1481</ele>
        <time>2020-08-11T11:40:40Z</time>
      </trkpt>
      <trkpt lat="45.14497" lon="5.91384">
        <ele>1480.8</ele>
        <time>2020-08-11T11:40:41Z</time>
      </trkpt>
      <trkpt lat="45.14498" lon="5.91385">
        <ele>1480</ele>
        <time>2020-08-11T11:40:42Z</time>
      </trkpt>
      <trkpt lat="45.145" lon="5.91386">
        <ele>1479.4</ele>
        <time>2020-08-11T11:40:43Z</time>
      </trkpt>
      <trkpt lat="45.14501" lon="5.91387">
        <ele>1479.4</ele>
        <time>2020-08-11T11:40:44Z</time>
      </trkpt>
      <trkpt lat="45.14501" lon="5.91385">
        <ele>1479</ele>
        <time>2020-08-11T11:40:45Z</time>
      </trkpt>
      <trkpt lat="45.14501" lon="5.91382">
        <ele>1478</ele>
        <time>2020-08-11T11:40:46Z</time>
      </trkpt>
      <trkpt lat="45.145" lon="5.9138">
        <ele>1477.8</ele>
        <time>2020-08-11T11:40:47Z</time>
      </trkpt>
      <trkpt lat="45.145" lon="5.91378">
        <ele>1477.2</ele>
        <time>2020-08-11T11:40:48Z</time>
      </trkpt>
      <trkpt lat="45.145" lon="5.91376">
        <ele>1477.2</ele>
        <time>2020-08-11T11:40:49Z</time>
      </trkpt>
      <trkpt lat="45.145" lon="5.91374">
        <ele>1476.6</ele>
        <time>2020-08-11T11:40:50Z</time>
      </trkpt>
      <trkpt lat="45.145" lon="5.91374">
        <ele>1476.2</ele>
        <time>2020-08-11T11:40:51Z</time>
      </trkpt>
      <trkpt lat="45.145" lon="5.91374">
        <ele>1475.4</ele>
        <time>2020-08-11T11:40:52Z</time>
      </trkpt>
      <trkpt lat="45.145" lon="5.91374">
        <ele>1475.2</ele>
        <time>2020-08-11T11:40:53Z</time>
      </trkpt>
      <trkpt lat="45.14497" lon="5.9137">
        <ele>1473.8</ele>
        <time>2020-08-11T11:40:54Z</time>
      </trkpt>
      <trkpt lat="45.14493" lon="5.91363">
        <ele>1472.6</ele>
        <time>2020-08-11T11:40:56Z</time>
      </trkpt>
      <trkpt lat="45.14495" lon="5.91362">
        <ele>1472.2</ele>
        <time>2020-08-11T11:40:57Z</time>
      </trkpt>
      <trkpt lat="45.14497" lon="5.91362">
        <ele>1471.8</ele>
        <time>2020-08-11T11:40:58Z</time>
      </trkpt>
      <trkpt lat="45.14499" lon="5.91361">
        <ele>1471.6</ele>
        <time>2020-08-11T11:40:59Z</time>
      </trkpt>
      <trkpt lat="45.14501" lon="5.9136">
        <ele>1471</ele>
        <time>2020-08-11T11:41:00Z</time>
      </trkpt>
      <trkpt lat="45.14504" lon="5.9136">
        <ele>1470.8</ele>
        <time>2020-08-11T11:41:01Z</time>
      </trkpt>
      <trkpt lat="45.14507" lon="5.91361">
        <ele>1470</ele>
        <time>2020-08-11T11:41:02Z</time>
      </trkpt>
      <trkpt lat="45.14509" lon="5.91361">
        <ele>1469.4</ele>
        <time>2020-08-11T11:41:03Z</time>
      </trkpt>
      <trkpt lat="45.14512" lon="5.91361">
        <ele>1468.6</ele>
        <time>2020-08-11T11:41:04Z</time>
      </trkpt>
      <trkpt lat="45.14512" lon="5.9136">
        <ele>1467.6</ele>
        <time>2020-08-11T11:41:05Z</time>
      </trkpt>
      <trkpt lat="45.14511" lon="5.91358">
        <ele>1467.8</ele>
        <time>2020-08-11T11:41:06Z</time>
      </trkpt>
      <trkpt lat="45.14511" lon="5.91357">
        <ele>1467.2</ele>
        <time>2020-08-11T11:41:07Z</time>
      </trkpt>
      <trkpt lat="45.14511" lon="5.91356">
        <ele>1467.4</ele>
        <time>2020-08-11T11:41:08Z</time>
      </trkpt>
      <trkpt lat="45.14511" lon="5.91354">
        <ele>1466.8</ele>
        <time>2020-08-11T11:41:09Z</time>
      </trkpt>
      <trkpt lat="45.1451" lon="5.91353">
        <ele>1466.4</ele>
        <time>2020-08-11T11:41:10Z</time>
      </trkpt>
      <trkpt lat="45.1451" lon="5.91351">
        <ele>1465.8</ele>
        <time>2020-08-11T11:41:11Z</time>
      </trkpt>
      <trkpt lat="45.1451" lon="5.9135">
        <ele>1465.4</ele>
        <time>2020-08-11T11:41:12Z</time>
      </trkpt>
      <trkpt lat="45.14509" lon="5.91348">
        <ele>1464.6</ele>
        <time>2020-08-11T11:41:13Z</time>
      </trkpt>
      <trkpt lat="45.14509" lon="5.91347">
        <ele>1464</ele>
        <time>2020-08-11T11:41:14Z</time>
      </trkpt>
      <trkpt lat="45.14507" lon="5.91345">
        <ele>1463.2</ele>
        <time>2020-08-11T11:41:15Z</time>
      </trkpt>
      <trkpt lat="45.14506" lon="5.91343">
        <ele>1462.8</ele>
        <time>2020-08-11T11:41:16Z</time>
      </trkpt>
      <trkpt lat="45.14504" lon="5.91341">
        <ele>1463</ele>
        <time>2020-08-11T11:41:17Z</time>
      </trkpt>
      <trkpt lat="45.14503" lon="5.91339">
        <ele>1462.4</ele>
        <time>2020-08-11T11:41:18Z</time>
      </trkpt>
      <trkpt lat="45.14501" lon="5.91336">
        <ele>1462.2</ele>
        <time>2020-08-11T11:41:19Z</time>
      </trkpt>
      <trkpt lat="45.145" lon="5.91335">
        <ele>1461.6</ele>
        <time>2020-08-11T11:41:20Z</time>
      </trkpt>
      <trkpt lat="45.14498" lon="5.91333">
        <ele>1460.8</ele>
        <time>2020-08-11T11:41:21Z</time>
      </trkpt>
      <trkpt lat="45.14497" lon="5.91332">
        <ele>1460.4</ele>
        <time>2020-08-11T11:41:22Z</time>
      </trkpt>
      <trkpt lat="45.14495" lon="5.9133">
        <ele>1460</ele>
        <time>2020-08-11T11:41:23Z</time>
      </trkpt>
      <trkpt lat="45.14494" lon="5.91329">
        <ele>1459</ele>
        <time>2020-08-11T11:41:24Z</time>
      </trkpt>
      <trkpt lat="45.14495" lon="5.91328">
        <ele>1458.8</ele>
        <time>2020-08-11T11:41:25Z</time>
      </trkpt>
      <trkpt lat="45.14495" lon="5.91327">
        <ele>1458.2</ele>
        <time>2020-08-11T11:41:26Z</time>
      </trkpt>
      <trkpt lat="45.14496" lon="5.91327">
        <ele>1457.8</ele>
        <time>2020-08-11T11:41:27Z</time>
      </trkpt>
      <trkpt lat="45.14497" lon="5.91326">
        <ele>1457.6</ele>
        <time>2020-08-11T11:41:28Z</time>
      </trkpt>
      <trkpt lat="45.14498" lon="5.91325">
        <ele>1457.2</ele>
        <time>2020-08-11T11:41:29Z</time>
      </trkpt>
      <trkpt lat="45.14498" lon="5.91324">
        <ele>1456.6</ele>
        <time>2020-08-11T11:41:30Z</time>
      </trkpt>
      <trkpt lat="45.14499" lon="5.91324">
        <ele>1455.4</ele>
        <time>2020-08-11T11:41:31Z</time>
      </trkpt>
      <trkpt lat="45.145" lon="5.91323">
        <ele>1454.6</ele>
        <time>2020-08-11T11:41:32Z</time>
      </trkpt>
      <trkpt lat="45.145" lon="5.91322">
        <ele>1453.6</ele>
        <time>2020-08-11T11:41:33Z</time>
      </trkpt>
      <trkpt lat="45.14501" lon="5.91321">
        <ele>1453.6</ele>
        <time>2020-08-11T11:41:34Z</time>
      </trkpt>
      <trkpt lat="45.14502" lon="5.91321">
        <ele>1453.2</ele>
        <time>2020-08-11T11:41:35Z</time>
      </trkpt>
      <trkpt lat="45.14503" lon="5.9132">
        <ele>1453.2</ele>
        <time>2020-08-11T11:41:36Z</time>
      </trkpt>
      <trkpt lat="45.14503" lon="5.91319">
        <ele>1452.8</ele>
        <time>2020-08-11T11:41:37Z</time>
      </trkpt>
      <trkpt lat="45.14505" lon="5.91318">
        <ele>1452.4</ele>
        <time>2020-08-11T11:41:38Z</time>
      </trkpt>
      <trkpt lat="45.14507" lon="5.91317">
        <ele>1451.8</ele>
        <time>2020-08-11T11:41:39Z</time>
      </trkpt>
      <trkpt lat="45.14509" lon="5.91315">
        <ele>1451.4</ele>
        <time>2020-08-11T11:41:40Z</time>
      </trkpt>
      <trkpt lat="45.14511" lon="5.91314">
        <ele>1450.8</ele>
        <time>2020-08-11T11:41:41Z</time>
      </trkpt>
      <trkpt lat="45.14513" lon="5.91313">
        <ele>1450.2</ele>
        <time>2020-08-11T11:41:42Z</time>
      </trkpt>
      <trkpt lat="45.14515" lon="5.91313">
        <ele>1449.2</ele>
        <time>2020-08-11T11:41:43Z</time>
      </trkpt>
      <trkpt lat="45.14517" lon="5.91313">
        <ele>1449</ele>
        <time>2020-08-11T11:41:44Z</time>
      </trkpt>
      <trkpt lat="45.14518" lon="5.91313">
        <ele>1449</ele>
        <time>2020-08-11T11:41:45Z</time>
      </trkpt>
      <trkpt lat="45.1452" lon="5.91312">
        <ele>1448.6</ele>
        <time>2020-08-11T11:41:46Z</time>
      </trkpt>
      <trkpt lat="45.14522" lon="5.91312">
        <ele>1448.8</ele>
        <time>2020-08-11T11:41:47Z</time>
      </trkpt>
      <trkpt lat="45.14523" lon="5.91315">
        <ele>1448.8</ele>
        <time>2020-08-11T11:41:48Z</time>
      </trkpt>
      <trkpt lat="45.14523" lon="5.91317">
        <ele>1448.8</ele>
        <time>2020-08-11T11:41:49Z</time>
      </trkpt>
      <trkpt lat="45.14524" lon="5.9132">
        <ele>1448.2</ele>
        <time>2020-08-11T11:41:50Z</time>
      </trkpt>
      <trkpt lat="45.14524" lon="5.91323">
        <ele>1448</ele>
        <time>2020-08-11T11:41:51Z</time>
      </trkpt>
      <trkpt lat="45.14525" lon="5.91325">
        <ele>1447.8</ele>
        <time>2020-08-11T11:41:52Z</time>
      </trkpt>
      <trkpt lat="45.14524" lon="5.91329">
        <ele>1446.6</ele>
        <time>2020-08-11T11:41:53Z</time>
      </trkpt>
      <trkpt lat="45.14524" lon="5.91332">
        <ele>1447</ele>
        <time>2020-08-11T11:41:54Z</time>
      </trkpt>
      <trkpt lat="45.14523" lon="5.91336">
        <ele>1446.6</ele>
        <time>2020-08-11T11:41:55Z</time>
      </trkpt>
      <trkpt lat="45.14522" lon="5.91339">
        <ele>1446.6</ele>
        <time>2020-08-11T11:41:56Z</time>
      </trkpt>
      <trkpt lat="45.14522" lon="5.91341">
        <ele>1446</ele>
        <time>2020-08-11T11:41:57Z</time>
      </trkpt>
      <trkpt lat="45.14522" lon="5.91343">
        <ele>1445.8</ele>
        <time>2020-08-11T11:41:58Z</time>
      </trkpt>
      <trkpt lat="45.14522" lon="5.91345">
        <ele>1445.2</ele>
        <time>2020-08-11T11:41:59Z</time>
      </trkpt>
      <trkpt lat="45.14522" lon="5.91347">
        <ele>1444.8</ele>
        <time>2020-08-11T11:42:00Z</time>
      </trkpt>
      <trkpt lat="45.14522" lon="5.91349">
        <ele>1444.2</ele>
        <time>2020-08-11T11:42:01Z</time>
      </trkpt>
      <trkpt lat="45.14522" lon="5.91351">
        <ele>1444</ele>
        <time>2020-08-11T11:42:02Z</time>
      </trkpt>
      <trkpt lat="45.14522" lon="5.91353">
        <ele>1443.8</ele>
        <time>2020-08-11T11:42:03Z</time>
      </trkpt>
      <trkpt lat="45.14523" lon="5.91355">
        <ele>1445.2</ele>
        <time>2020-08-11T11:42:04Z</time>
      </trkpt>
      <trkpt lat="45.14523" lon="5.91357">
        <ele>1445.2</ele>
        <time>2020-08-11T11:42:05Z</time>
      </trkpt>
      <trkpt lat="45.14523" lon="5.91358">
        <ele>1445.8</ele>
        <time>2020-08-11T11:42:06Z</time>
      </trkpt>
      <trkpt lat="45.14524" lon="5.9136">
        <ele>1445.6</ele>
        <time>2020-08-11T11:42:07Z</time>
      </trkpt>
      <trkpt lat="45.14524" lon="5.91361">
        <ele>1446</ele>
        <time>2020-08-11T11:42:08Z</time>
      </trkpt>
      <trkpt lat="45.14524" lon="5.91363">
        <ele>1445.8</ele>
        <time>2020-08-11T11:42:09Z</time>
      </trkpt>
      <trkpt lat="45.14524" lon="5.91365">
        <ele>1446.2</ele>
        <time>2020-08-11T11:42:10Z</time>
      </trkpt>
      <trkpt lat="45.14525" lon="5.91366">
        <ele>1446.2</ele>
        <time>2020-08-11T11:42:11Z</time>
      </trkpt>
      <trkpt lat="45.14525" lon="5.91368">
        <ele>1446.6</ele>
        <time>2020-08-11T11:42:12Z</time>
      </trkpt>
      <trkpt lat="45.14526" lon="5.9137">
        <ele>1446.4</ele>
        <time>2020-08-11T11:42:13Z</time>
      </trkpt>
      <trkpt lat="45.14527" lon="5.91372">
        <ele>1446.6</ele>
        <time>2020-08-11T11:42:14Z</time>
      </trkpt>
      <trkpt lat="45.14527" lon="5.91374">
        <ele>1446.2</ele>
        <time>2020-08-11T11:42:15Z</time>
      </trkpt>
      <trkpt lat="45.14528" lon="5.91376">
        <ele>1446.2</ele>
        <time>2020-08-11T11:42:16Z</time>
      </trkpt>
      <trkpt lat="45.14528" lon="5.91378">
        <ele>1445.8</ele>
        <time>2020-08-11T11:42:17Z</time>
      </trkpt>
      <trkpt lat="45.14529" lon="5.9138">
        <ele>1445.6</ele>
        <time>2020-08-11T11:42:18Z</time>
      </trkpt>
      <trkpt lat="45.1453" lon="5.91382">
        <ele>1445.2</ele>
        <time>2020-08-11T11:42:19Z</time>
      </trkpt>
      <trkpt lat="45.14531" lon="5.91384">
        <ele>1445.6</ele>
        <time>2020-08-11T11:42:20Z</time>
      </trkpt>
      <trkpt lat="45.14532" lon="5.91386">
        <ele>1446.2</ele>
        <time>2020-08-11T11:42:21Z</time>
      </trkpt>
      <trkpt lat="45.14532" lon="5.91388">
        <ele>1445.8</ele>
        <time>2020-08-11T11:42:22Z</time>
      </trkpt>
      <trkpt lat="45.14533" lon="5.9139">
        <ele>1444.8</ele>
        <time>2020-08-11T11:42:23Z</time>
      </trkpt>
      <trkpt lat="45.14534" lon="5.91392">
        <ele>1444.8</ele>
        <time>2020-08-11T11:42:24Z</time>
      </trkpt>
      <trkpt lat="45.14535" lon="5.91392">
        <ele>1444.6</ele>
        <time>2020-08-11T11:42:25Z</time>
      </trkpt>
      <trkpt lat="45.14535" lon="5.91392">
        <ele>1443.2</ele>
        <time>2020-08-11T11:42:26Z</time>
      </trkpt>
      <trkpt lat="45.14535" lon="5.91392">
        <ele>1443</ele>
        <time>2020-08-11T11:42:27Z</time>
      </trkpt>
      <trkpt lat="45.14536" lon="5.91393">
        <ele>1442.6</ele>
        <time>2020-08-11T11:42:28Z</time>
      </trkpt>
      <trkpt lat="45.14536" lon="5.91393">
        <ele>1442.2</ele>
        <time>2020-08-11T11:42:29Z</time>
      </trkpt>
      <trkpt lat="45.14536" lon="5.91393">
        <ele>1441.8</ele>
        <time>2020-08-11T11:42:30Z</time>
      </trkpt>
      <trkpt lat="45.14537" lon="5.91394">
        <ele>1441.4</ele>
        <time>2020-08-11T11:42:31Z</time>
      </trkpt>
      <trkpt lat="45.14537" lon="5.91394">
        <ele>1441</ele>
        <time>2020-08-11T11:42:32Z</time>
      </trkpt>
      <trkpt lat="45.14537" lon="5.91394">
        <ele>1440.8</ele>
        <time>2020-08-11T11:42:33Z</time>
      </trkpt>
      <trkpt lat="45.14538" lon="5.91395">
        <ele>1440.6</ele>
        <time>2020-08-11T11:42:34Z</time>
      </trkpt>
      <trkpt lat="45.14538" lon="5.91395">
        <ele>1440.6</ele>
        <time>2020-08-11T11:42:35Z</time>
      </trkpt>
      <trkpt lat="45.14538" lon="5.91395">
        <ele>1440.4</ele>
        <time>2020-08-11T11:42:36Z</time>
      </trkpt>
      <trkpt lat="45.14539" lon="5.91396">
        <ele>1440.2</ele>
        <time>2020-08-11T11:42:37Z</time>
      </trkpt>
      <trkpt lat="45.14539" lon="5.91396">
        <ele>1440.2</ele>
        <time>2020-08-11T11:42:38Z</time>
      </trkpt>
      <trkpt lat="45.1454" lon="5.91396">
        <ele>1440</ele>
        <time>2020-08-11T11:42:39Z</time>
      </trkpt>
      <trkpt lat="45.1454" lon="5.91396">
        <ele>1439.8</ele>
        <time>2020-08-11T11:42:40Z</time>
      </trkpt>
      <trkpt lat="45.1454" lon="5.91397">
        <ele>1439.6</ele>
        <time>2020-08-11T11:42:41Z</time>
      </trkpt>
      <trkpt lat="45.14541" lon="5.91397">
        <ele>1439.4</ele>
        <time>2020-08-11T11:42:42Z</time>
      </trkpt>
      <trkpt lat="45.14541" lon="5.91397">
        <ele>1439.6</ele>
        <time>2020-08-11T11:42:43Z</time>
      </trkpt>
      <trkpt lat="45.14541" lon="5.91398">
        <ele>1439.6</ele>
        <time>2020-08-11T11:42:44Z</time>
      </trkpt>
      <trkpt lat="45.14542" lon="5.91398">
        <ele>1439.8</ele>
        <time>2020-08-11T11:42:45Z</time>
      </trkpt>
      <trkpt lat="45.14542" lon="5.91398">
        <ele>1439.8</ele>
        <time>2020-08-11T11:42:46Z</time>
      </trkpt>
      <trkpt lat="45.14542" lon="5.91399">
        <ele>1439.8</ele>
        <time>2020-08-11T11:42:47Z</time>
      </trkpt>
      <trkpt lat="45.14543" lon="5.91399">
        <ele>1439.8</ele>
        <time>2020-08-11T11:42:48Z</time>
      </trkpt>
      <trkpt lat="45.14543" lon="5.91399">
        <ele>1439.4</ele>
        <time>2020-08-11T11:42:49Z</time>
      </trkpt>
      <trkpt lat="45.14543" lon="5.914">
        <ele>1439.2</ele>
        <time>2020-08-11T11:42:50Z</time>
      </trkpt>
      <trkpt lat="45.14544" lon="5.914">
        <ele>1439.2</ele>
        <time>2020-08-11T11:42:51Z</time>
      </trkpt>
      <trkpt lat="45.14544" lon="5.914">
        <ele>1439.2</ele>
        <time>2020-08-11T11:42:52Z</time>
      </trkpt>
      <trkpt lat="45.14546" lon="5.91401">
        <ele>1438.8</ele>
        <time>2020-08-11T11:42:53Z</time>
      </trkpt>
      <trkpt lat="45.14548" lon="5.91402">
        <ele>1438.4</ele>
        <time>2020-08-11T11:42:54Z</time>
      </trkpt>
      <trkpt lat="45.14549" lon="5.91403">
        <ele>1438.4</ele>
        <time>2020-08-11T11:42:55Z</time>
      </trkpt>
      <trkpt lat="45.14551" lon="5.91404">
        <ele>1438.2</ele>
        <time>2020-08-11T11:42:56Z</time>
      </trkpt>
      <trkpt lat="45.14553" lon="5.91405">
        <ele>1438</ele>
        <time>2020-08-11T11:42:57Z</time>
      </trkpt>
      <trkpt lat="45.14553" lon="5.91404">
        <ele>1437.8</ele>
        <time>2020-08-11T11:42:58Z</time>
      </trkpt>
      <trkpt lat="45.14553" lon="5.91403">
        <ele>1437.6</ele>
        <time>2020-08-11T11:42:59Z</time>
      </trkpt>
      <trkpt lat="45.14553" lon="5.91402">
        <ele>1437.2</ele>
        <time>2020-08-11T11:43:00Z</time>
      </trkpt>
      <trkpt lat="45.14554" lon="5.91401">
        <ele>1437</ele>
        <time>2020-08-11T11:43:01Z</time>
      </trkpt>
      <trkpt lat="45.14554" lon="5.914">
        <ele>1436.4</ele>
        <time>2020-08-11T11:43:02Z</time>
      </trkpt>
      <trkpt lat="45.14554" lon="5.91399">
        <ele>1436.2</ele>
        <time>2020-08-11T11:43:03Z</time>
      </trkpt>
      <trkpt lat="45.14554" lon="5.91398">
        <ele>1435.4</ele>
        <time>2020-08-11T11:43:04Z</time>
      </trkpt>
      <trkpt lat="45.14554" lon="5.91397">
        <ele>1435.4</ele>
        <time>2020-08-11T11:43:05Z</time>
      </trkpt>
      <trkpt lat="45.14555" lon="5.91396">
        <ele>1435.2</ele>
        <time>2020-08-11T11:43:06Z</time>
      </trkpt>
      <trkpt lat="45.14555" lon="5.91395">
        <ele>1435.2</ele>
        <time>2020-08-11T11:43:07Z</time>
      </trkpt>
      <trkpt lat="45.14555" lon="5.91394">
        <ele>1435</ele>
        <time>2020-08-11T11:43:08Z</time>
      </trkpt>
      <trkpt lat="45.14555" lon="5.91393">
        <ele>1434.8</ele>
        <time>2020-08-11T11:43:09Z</time>
      </trkpt>
      <trkpt lat="45.14555" lon="5.91392">
        <ele>1434.2</ele>
        <time>2020-08-11T11:43:10Z</time>
      </trkpt>
      <trkpt lat="45.14556" lon="5.91391">
        <ele>1433.4</ele>
        <time>2020-08-11T11:43:11Z</time>
      </trkpt>
      <trkpt lat="45.14556" lon="5.91389">
        <ele>1432.6</ele>
        <time>2020-08-11T11:43:12Z</time>
      </trkpt>
      <trkpt lat="45.14556" lon="5.91387">
        <ele>1431.6</ele>
        <time>2020-08-11T11:43:13Z</time>
      </trkpt>
      <trkpt lat="45.14556" lon="5.91385">
        <ele>1431.2</ele>
        <time>2020-08-11T11:43:14Z</time>
      </trkpt>
      <trkpt lat="45.14557" lon="5.91383">
        <ele>1431.2</ele>
        <time>2020-08-11T11:43:15Z</time>
      </trkpt>
      <trkpt lat="45.14557" lon="5.91381">
        <ele>1430.8</ele>
        <time>2020-08-11T11:43:16Z</time>
      </trkpt>
      <trkpt lat="45.14557" lon="5.91379">
        <ele>1430.2</ele>
        <time>2020-08-11T11:43:17Z</time>
      </trkpt>
      <trkpt lat="45.14557" lon="5.91377">
        <ele>1429.4</ele>
        <time>2020-08-11T11:43:18Z</time>
      </trkpt>
      <trkpt lat="45.14558" lon="5.91375">
        <ele>1428.8</ele>
        <time>2020-08-11T11:43:19Z</time>
      </trkpt>
      <trkpt lat="45.14558" lon="5.91371">
        <ele>1428.4</ele>
        <time>2020-08-11T11:43:20Z</time>
      </trkpt>
      <trkpt lat="45.14559" lon="5.91368">
        <ele>1427.8</ele>
        <time>2020-08-11T11:43:21Z</time>
      </trkpt>
      <trkpt lat="45.14559" lon="5.91365">
        <ele>1427</ele>
        <time>2020-08-11T11:43:22Z</time>
      </trkpt>
      <trkpt lat="45.14559" lon="5.91361">
        <ele>1426.2</ele>
        <time>2020-08-11T11:43:23Z</time>
      </trkpt>
      <trkpt lat="45.14559" lon="5.91359">
        <ele>1425.4</ele>
        <time>2020-08-11T11:43:24Z</time>
      </trkpt>
      <trkpt lat="45.14558" lon="5.91357">
        <ele>1425.6</ele>
        <time>2020-08-11T11:43:25Z</time>
      </trkpt>
      <trkpt lat="45.14558" lon="5.91355">
        <ele>1425.2</ele>
        <time>2020-08-11T11:43:26Z</time>
      </trkpt>
      <trkpt lat="45.14557" lon="5.91353">
        <ele>1425</ele>
        <time>2020-08-11T11:43:27Z</time>
      </trkpt>
      <trkpt lat="45.14557" lon="5.91351">
        <ele>1424.4</ele>
        <time>2020-08-11T11:43:28Z</time>
      </trkpt>
      <trkpt lat="45.14556" lon="5.91349">
        <ele>1424</ele>
        <time>2020-08-11T11:43:29Z</time>
      </trkpt>
      <trkpt lat="45.14555" lon="5.91347">
        <ele>1423.4</ele>
        <time>2020-08-11T11:43:30Z</time>
      </trkpt>
      <trkpt lat="45.14554" lon="5.91345">
        <ele>1422.6</ele>
        <time>2020-08-11T11:43:31Z</time>
      </trkpt>
      <trkpt lat="45.14554" lon="5.91344">
        <ele>1422.4</ele>
        <time>2020-08-11T11:43:32Z</time>
      </trkpt>
      <trkpt lat="45.14553" lon="5.91342">
        <ele>1421.6</ele>
        <time>2020-08-11T11:43:33Z</time>
      </trkpt>
      <trkpt lat="45.14552" lon="5.9134">
        <ele>1421.2</ele>
        <time>2020-08-11T11:43:34Z</time>
      </trkpt>
      <trkpt lat="45.14551" lon="5.91338">
        <ele>1420.4</ele>
        <time>2020-08-11T11:43:35Z</time>
      </trkpt>
      <trkpt lat="45.14551" lon="5.91336">
        <ele>1420</ele>
        <time>2020-08-11T11:43:36Z</time>
      </trkpt>
      <trkpt lat="45.1455" lon="5.91335">
        <ele>1419.2</ele>
        <time>2020-08-11T11:43:37Z</time>
      </trkpt>
      <trkpt lat="45.1455" lon="5.91333">
        <ele>1418.4</ele>
        <time>2020-08-11T11:43:38Z</time>
      </trkpt>
      <trkpt lat="45.14549" lon="5.91331">
        <ele>1417.8</ele>
        <time>2020-08-11T11:43:39Z</time>
      </trkpt>
      <trkpt lat="45.14549" lon="5.91329">
        <ele>1417.6</ele>
        <time>2020-08-11T11:43:40Z</time>
      </trkpt>
      <trkpt lat="45.14548" lon="5.91327">
        <ele>1416.6</ele>
        <time>2020-08-11T11:43:41Z</time>
      </trkpt>
      <trkpt lat="45.14548" lon="5.91326">
        <ele>1416.6</ele>
        <time>2020-08-11T11:43:42Z</time>
      </trkpt>
      <trkpt lat="45.14548" lon="5.91323">
        <ele>1414.8</ele>
        <time>2020-08-11T11:43:43Z</time>
      </trkpt>
      <trkpt lat="45.14549" lon="5.91321">
        <ele>1413.8</ele>
        <time>2020-08-11T11:43:44Z</time>
      </trkpt>
      <trkpt lat="45.14549" lon="5.91319">
        <ele>1413.2</ele>
        <time>2020-08-11T11:43:45Z</time>
      </trkpt>
      <trkpt lat="45.14549" lon="5.91316">
        <ele>1412.2</ele>
        <time>2020-08-11T11:43:46Z</time>
      </trkpt>
      <trkpt lat="45.14549" lon="5.91314">
        <ele>1411.8</ele>
        <time>2020-08-11T11:43:47Z</time>
      </trkpt>
      <trkpt lat="45.1455" lon="5.91311">
        <ele>1410.8</ele>
        <time>2020-08-11T11:43:48Z</time>
      </trkpt>
      <trkpt lat="45.14548" lon="5.91307">
        <ele>1410.2</ele>
        <time>2020-08-11T11:43:49Z</time>
      </trkpt>
      <trkpt lat="45.14547" lon="5.91303">
        <ele>1409.8</ele>
        <time>2020-08-11T11:43:50Z</time>
      </trkpt>
      <trkpt lat="45.14545" lon="5.91299">
        <ele>1408.8</ele>
        <time>2020-08-11T11:43:51Z</time>
      </trkpt>
      <trkpt lat="45.14544" lon="5.91294">
        <ele>1408.2</ele>
        <time>2020-08-11T11:43:52Z</time>
      </trkpt>
      <trkpt lat="45.14542" lon="5.91289">
        <ele>1408.4</ele>
        <time>2020-08-11T11:43:53Z</time>
      </trkpt>
      <trkpt lat="45.14541" lon="5.91285">
        <ele>1407.8</ele>
        <time>2020-08-11T11:43:54Z</time>
      </trkpt>
      <trkpt lat="45.1454" lon="5.9128">
        <ele>1407.4</ele>
        <time>2020-08-11T11:43:55Z</time>
      </trkpt>
      <trkpt lat="45.14539" lon="5.91276">
        <ele>1406.6</ele>
        <time>2020-08-11T11:43:56Z</time>
      </trkpt>
      <trkpt lat="45.14538" lon="5.91272">
        <ele>1406.4</ele>
        <time>2020-08-11T11:43:57Z</time>
      </trkpt>
      <trkpt lat="45.14538" lon="5.91269">
        <ele>1405.8</ele>
        <time>2020-08-11T11:43:58Z</time>
      </trkpt>
      <trkpt lat="45.14538" lon="5.91266">
        <ele>1405.6</ele>
        <time>2020-08-11T11:43:59Z</time>
      </trkpt>
      <trkpt lat="45.14538" lon="5.91262">
        <ele>1404.8</ele>
        <time>2020-08-11T11:44:00Z</time>
      </trkpt>
      <trkpt lat="45.14539" lon="5.91259">
        <ele>1404.8</ele>
        <time>2020-08-11T11:44:01Z</time>
      </trkpt>
      <trkpt lat="45.14538" lon="5.91255">
        <ele>1403.4</ele>
        <time>2020-08-11T11:44:02Z</time>
      </trkpt>
      <trkpt lat="45.14538" lon="5.91252">
        <ele>1403</ele>
        <time>2020-08-11T11:44:03Z</time>
      </trkpt>
      <trkpt lat="45.14537" lon="5.91248">
        <ele>1402.2</ele>
        <time>2020-08-11T11:44:04Z</time>
      </trkpt>
      <trkpt lat="45.14537" lon="5.91244">
        <ele>1402.2</ele>
        <time>2020-08-11T11:44:05Z</time>
      </trkpt>
      <trkpt lat="45.14535" lon="5.9124">
        <ele>1401.6</ele>
        <time>2020-08-11T11:44:06Z</time>
      </trkpt>
      <trkpt lat="45.14532" lon="5.91235">
        <ele>1401.2</ele>
        <time>2020-08-11T11:44:07Z</time>
      </trkpt>
      <trkpt lat="45.1453" lon="5.91231">
        <ele>1400.6</ele>
        <time>2020-08-11T11:44:08Z</time>
      </trkpt>
      <trkpt lat="45.14529" lon="5.91227">
        <ele>1400</ele>
        <time>2020-08-11T11:44:09Z</time>
      </trkpt>
      <trkpt lat="45.14528" lon="5.91224">
        <ele>1399.2</ele>
        <time>2020-08-11T11:44:10Z</time>
      </trkpt>
      <trkpt lat="45.14527" lon="5.9122">
        <ele>1398.4</ele>
        <time>2020-08-11T11:44:11Z</time>
      </trkpt>
      <trkpt lat="45.14526" lon="5.91217">
        <ele>1398</ele>
        <time>2020-08-11T11:44:12Z</time>
      </trkpt>
      <trkpt lat="45.14525" lon="5.91213">
        <ele>1397.6</ele>
        <time>2020-08-11T11:44:13Z</time>
      </trkpt>
      <trkpt lat="45.14523" lon="5.9121">
        <ele>1396.8</ele>
        <time>2020-08-11T11:44:14Z</time>
      </trkpt>
      <trkpt lat="45.14522" lon="5.91207">
        <ele>1395.6</ele>
        <time>2020-08-11T11:44:15Z</time>
      </trkpt>
      <trkpt lat="45.14521" lon="5.91204">
        <ele>1395.4</ele>
        <time>2020-08-11T11:44:16Z</time>
      </trkpt>
      <trkpt lat="45.1452" lon="5.91201">
        <ele>1395.4</ele>
        <time>2020-08-11T11:44:17Z</time>
      </trkpt>
      <trkpt lat="45.14518" lon="5.91198">
        <ele>1395.2</ele>
        <time>2020-08-11T11:44:18Z</time>
      </trkpt>
      <trkpt lat="45.14516" lon="5.91194">
        <ele>1394.6</ele>
        <time>2020-08-11T11:44:19Z</time>
      </trkpt>
      <trkpt lat="45.14514" lon="5.91191">
        <ele>1394.6</ele>
        <time>2020-08-11T11:44:20Z</time>
      </trkpt>
      <trkpt lat="45.14512" lon="5.91189">
        <ele>1393.4</ele>
        <time>2020-08-11T11:44:21Z</time>
      </trkpt>
      <trkpt lat="45.1451" lon="5.91186">
        <ele>1393.2</ele>
        <time>2020-08-11T11:44:22Z</time>
      </trkpt>
      <trkpt lat="45.14508" lon="5.91184">
        <ele>1392.8</ele>
        <time>2020-08-11T11:44:23Z</time>
      </trkpt>
      <trkpt lat="45.14506" lon="5.91181">
        <ele>1392.6</ele>
        <time>2020-08-11T11:44:24Z</time>
      </trkpt>
      <trkpt lat="45.14504" lon="5.9118">
        <ele>1391.8</ele>
        <time>2020-08-11T11:44:25Z</time>
      </trkpt>
      <trkpt lat="45.14502" lon="5.91178">
        <ele>1391.6</ele>
        <time>2020-08-11T11:44:26Z</time>
      </trkpt>
      <trkpt lat="45.14501" lon="5.91176">
        <ele>1390.8</ele>
        <time>2020-08-11T11:44:27Z</time>
      </trkpt>
      <trkpt lat="45.14499" lon="5.91175">
        <ele>1390.2</ele>
        <time>2020-08-11T11:44:28Z</time>
      </trkpt>
      <trkpt lat="45.14497" lon="5.91173">
        <ele>1389.4</ele>
        <time>2020-08-11T11:44:29Z</time>
      </trkpt>
      <trkpt lat="45.14495" lon="5.91172">
        <ele>1388.8</ele>
        <time>2020-08-11T11:44:30Z</time>
      </trkpt>
      <trkpt lat="45.14492" lon="5.91171">
        <ele>1389.2</ele>
        <time>2020-08-11T11:44:31Z</time>
      </trkpt>
      <trkpt lat="45.1449" lon="5.91171">
        <ele>1388.8</ele>
        <time>2020-08-11T11:44:32Z</time>
      </trkpt>
      <trkpt lat="45.14488" lon="5.9117">
        <ele>1388.4</ele>
        <time>2020-08-11T11:44:33Z</time>
      </trkpt>
      <trkpt lat="45.14485" lon="5.91169">
        <ele>1388</ele>
        <time>2020-08-11T11:44:34Z</time>
      </trkpt>
      <trkpt lat="45.14483" lon="5.91169">
        <ele>1387.6</ele>
        <time>2020-08-11T11:44:35Z</time>
      </trkpt>
      <trkpt lat="45.1448" lon="5.91168">
        <ele>1387.6</ele>
        <time>2020-08-11T11:44:36Z</time>
      </trkpt>
      <trkpt lat="45.14478" lon="5.91167">
        <ele>1387.6</ele>
        <time>2020-08-11T11:44:37Z</time>
      </trkpt>
      <trkpt lat="45.14477" lon="5.91167">
        <ele>1387.4</ele>
        <time>2020-08-11T11:44:38Z</time>
      </trkpt>
      <trkpt lat="45.14477" lon="5.91166">
        <ele>1387.6</ele>
        <time>2020-08-11T11:44:39Z</time>
      </trkpt>
      <trkpt lat="45.14476" lon="5.91165">
        <ele>1387.4</ele>
        <time>2020-08-11T11:44:40Z</time>
      </trkpt>
      <trkpt lat="45.14476" lon="5.91164">
        <ele>1387.2</ele>
        <time>2020-08-11T11:44:41Z</time>
      </trkpt>
      <trkpt lat="45.14476" lon="5.91164">
        <ele>1387</ele>
        <time>2020-08-11T11:44:42Z</time>
      </trkpt>
      <trkpt lat="45.14475" lon="5.91163">
        <ele>1386.6</ele>
        <time>2020-08-11T11:44:43Z</time>
      </trkpt>
      <trkpt lat="45.14475" lon="5.91162">
        <ele>1387</ele>
        <time>2020-08-11T11:44:44Z</time>
      </trkpt>
      <trkpt lat="45.14474" lon="5.91162">
        <ele>1386.6</ele>
        <time>2020-08-11T11:44:45Z</time>
      </trkpt>
      <trkpt lat="45.14474" lon="5.91161">
        <ele>1385.8</ele>
        <time>2020-08-11T11:44:46Z</time>
      </trkpt>
      <trkpt lat="45.14474" lon="5.9116">
        <ele>1385.6</ele>
        <time>2020-08-11T11:44:47Z</time>
      </trkpt>
      <trkpt lat="45.14473" lon="5.91159">
        <ele>1385.4</ele>
        <time>2020-08-11T11:44:48Z</time>
      </trkpt>
      <trkpt lat="45.14473" lon="5.91159">
        <ele>1385.2</ele>
        <time>2020-08-11T11:44:49Z</time>
      </trkpt>
      <trkpt lat="45.14472" lon="5.91158">
        <ele>1385.2</ele>
        <time>2020-08-11T11:44:50Z</time>
      </trkpt>
      <trkpt lat="45.14472" lon="5.91157">
        <ele>1384.4</ele>
        <time>2020-08-11T11:44:51Z</time>
      </trkpt>
      <trkpt lat="45.14473" lon="5.91156">
        <ele>1384</ele>
        <time>2020-08-11T11:44:52Z</time>
      </trkpt>
      <trkpt lat="45.14473" lon="5.91154">
        <ele>1383.2</ele>
        <time>2020-08-11T11:44:53Z</time>
      </trkpt>
      <trkpt lat="45.14474" lon="5.91152">
        <ele>1382.8</ele>
        <time>2020-08-11T11:44:54Z</time>
      </trkpt>
      <trkpt lat="45.14475" lon="5.9115">
        <ele>1383.2</ele>
        <time>2020-08-11T11:44:55Z</time>
      </trkpt>
      <trkpt lat="45.14476" lon="5.91149">
        <ele>1383</ele>
        <time>2020-08-11T11:44:56Z</time>
      </trkpt>
      <trkpt lat="45.14476" lon="5.91147">
        <ele>1382.8</ele>
        <time>2020-08-11T11:44:57Z</time>
      </trkpt>
      <trkpt lat="45.14477" lon="5.91145">
        <ele>1382.4</ele>
        <time>2020-08-11T11:44:58Z</time>
      </trkpt>
      <trkpt lat="45.14479" lon="5.91142">
        <ele>1382.2</ele>
        <time>2020-08-11T11:44:59Z</time>
      </trkpt>
      <trkpt lat="45.14481" lon="5.91139">
        <ele>1381.4</ele>
        <time>2020-08-11T11:45:00Z</time>
      </trkpt>
      <trkpt lat="45.14482" lon="5.91136">
        <ele>1380</ele>
        <time>2020-08-11T11:45:01Z</time>
      </trkpt>
      <trkpt lat="45.14484" lon="5.91133">
        <ele>1378.8</ele>
        <time>2020-08-11T11:45:02Z</time>
      </trkpt>
      <trkpt lat="45.14485" lon="5.91131">
        <ele>1378.6</ele>
        <time>2020-08-11T11:45:03Z</time>
      </trkpt>
      <trkpt lat="45.14486" lon="5.91128">
        <ele>1378.8</ele>
        <time>2020-08-11T11:45:04Z</time>
      </trkpt>
      <trkpt lat="45.14488" lon="5.91125">
        <ele>1378.4</ele>
        <time>2020-08-11T11:45:05Z</time>
      </trkpt>
      <trkpt lat="45.14489" lon="5.91123">
        <ele>1377.6</ele>
        <time>2020-08-11T11:45:06Z</time>
      </trkpt>
      <trkpt lat="45.1449" lon="5.9112">
        <ele>1376.6</ele>
        <time>2020-08-11T11:45:07Z</time>
      </trkpt>
      <trkpt lat="45.14492" lon="5.91117">
        <ele>1376.8</ele>
        <time>2020-08-11T11:45:08Z</time>
      </trkpt>
      <trkpt lat="45.1449" lon="5.91112">
        <ele>1375.6</ele>
        <time>2020-08-11T11:45:09Z</time>
      </trkpt>
      <trkpt lat="45.14488" lon="5.91107">
        <ele>1374.4</ele>
        <time>2020-08-11T11:45:10Z</time>
      </trkpt>
      <trkpt lat="45.14486" lon="5.91102">
        <ele>1374.6</ele>
        <time>2020-08-11T11:45:11Z</time>
      </trkpt>
      <trkpt lat="45.14485" lon="5.91093">
        <ele>1374.4</ele>
        <time>2020-08-11T11:45:12Z</time>
      </trkpt>
      <trkpt lat="45.14484" lon="5.91084">
        <ele>1374</ele>
        <time>2020-08-11T11:45:13Z</time>
      </trkpt>
      <trkpt lat="45.14483" lon="5.91075">
        <ele>1373.2</ele>
        <time>2020-08-11T11:45:14Z</time>
      </trkpt>
      <trkpt lat="45.14482" lon="5.91067">
        <ele>1372.8</ele>
        <time>2020-08-11T11:45:15Z</time>
      </trkpt>
      <trkpt lat="45.14482" lon="5.91067">
        <ele>1372.2</ele>
        <time>2020-08-11T11:45:16Z</time>
      </trkpt>
      <trkpt lat="45.14483" lon="5.91064">
        <ele>1371.8</ele>
        <time>2020-08-11T11:45:17Z</time>
      </trkpt>
      <trkpt lat="45.14484" lon="5.91061">
        <ele>1371</ele>
        <time>2020-08-11T11:45:18Z</time>
      </trkpt>
      <trkpt lat="45.14485" lon="5.91057">
        <ele>1370.6</ele>
        <time>2020-08-11T11:45:19Z</time>
      </trkpt>
      <trkpt lat="45.14486" lon="5.91054">
        <ele>1369.6</ele>
        <time>2020-08-11T11:45:20Z</time>
      </trkpt>
      <trkpt lat="45.14487" lon="5.91051">
        <ele>1368.8</ele>
        <time>2020-08-11T11:45:21Z</time>
      </trkpt>
      <trkpt lat="45.14487" lon="5.91048">
        <ele>1368.8</ele>
        <time>2020-08-11T11:45:22Z</time>
      </trkpt>
      <trkpt lat="45.14487" lon="5.91045">
        <ele>1368</ele>
        <time>2020-08-11T11:45:23Z</time>
      </trkpt>
      <trkpt lat="45.14486" lon="5.91042">
        <ele>1367.4</ele>
        <time>2020-08-11T11:45:24Z</time>
      </trkpt>
      <trkpt lat="45.14485" lon="5.91039">
        <ele>1366.6</ele>
        <time>2020-08-11T11:45:25Z</time>
      </trkpt>
      <trkpt lat="45.14484" lon="5.91036">
        <ele>1366.4</ele>
        <time>2020-08-11T11:45:26Z</time>
      </trkpt>
      <trkpt lat="45.14483" lon="5.91033">
        <ele>1365.6</ele>
        <time>2020-08-11T11:45:27Z</time>
      </trkpt>
      <trkpt lat="45.14481" lon="5.9103">
        <ele>1364.8</ele>
        <time>2020-08-11T11:45:28Z</time>
      </trkpt>
      <trkpt lat="45.1448" lon="5.91027">
        <ele>1364</ele>
        <time>2020-08-11T11:45:29Z</time>
      </trkpt>
      <trkpt lat="45.14479" lon="5.91024">
        <ele>1363.4</ele>
        <time>2020-08-11T11:45:30Z</time>
      </trkpt>
      <trkpt lat="45.14478" lon="5.91022">
        <ele>1363</ele>
        <time>2020-08-11T11:45:31Z</time>
      </trkpt>
      <trkpt lat="45.14478" lon="5.91019">
        <ele>1362.2</ele>
        <time>2020-08-11T11:45:32Z</time>
      </trkpt>
      <trkpt lat="45.14477" lon="5.91017">
        <ele>1361.8</ele>
        <time>2020-08-11T11:45:33Z</time>
      </trkpt>
      <trkpt lat="45.14477" lon="5.91014">
        <ele>1361.4</ele>
        <time>2020-08-11T11:45:34Z</time>
      </trkpt>
      <trkpt lat="45.14476" lon="5.91012">
        <ele>1361</ele>
        <time>2020-08-11T11:45:35Z</time>
      </trkpt>
      <trkpt lat="45.14476" lon="5.91008">
        <ele>1359.6</ele>
        <time>2020-08-11T11:45:36Z</time>
      </trkpt>
      <trkpt lat="45.14475" lon="5.91005">
        <ele>1359</ele>
        <time>2020-08-11T11:45:37Z</time>
      </trkpt>
      <trkpt lat="45.14474" lon="5.91002">
        <ele>1358.6</ele>
        <time>2020-08-11T11:45:38Z</time>
      </trkpt>
      <trkpt lat="45.14473" lon="5.90999">
        <ele>1357.8</ele>
        <time>2020-08-11T11:45:39Z</time>
      </trkpt>
      <trkpt lat="45.14472" lon="5.90997">
        <ele>1357</ele>
        <time>2020-08-11T11:45:40Z</time>
      </trkpt>
      <trkpt lat="45.1447" lon="5.90994">
        <ele>1356.2</ele>
        <time>2020-08-11T11:45:41Z</time>
      </trkpt>
      <trkpt lat="45.14469" lon="5.90992">
        <ele>1355.6</ele>
        <time>2020-08-11T11:45:42Z</time>
      </trkpt>
      <trkpt lat="45.14467" lon="5.9099">
        <ele>1355.6</ele>
        <time>2020-08-11T11:45:43Z</time>
      </trkpt>
      <trkpt lat="45.14466" lon="5.90987">
        <ele>1355</ele>
        <time>2020-08-11T11:45:44Z</time>
      </trkpt>
      <trkpt lat="45.14465" lon="5.90985">
        <ele>1353.8</ele>
        <time>2020-08-11T11:45:45Z</time>
      </trkpt>
      <trkpt lat="45.14463" lon="5.90983">
        <ele>1353.4</ele>
        <time>2020-08-11T11:45:46Z</time>
      </trkpt>
      <trkpt lat="45.14462" lon="5.90981">
        <ele>1353</ele>
        <time>2020-08-11T11:45:47Z</time>
      </trkpt>
      <trkpt lat="45.14461" lon="5.90979">
        <ele>1352.2</ele>
        <time>2020-08-11T11:45:48Z</time>
      </trkpt>
      <trkpt lat="45.14459" lon="5.90977">
        <ele>1351.8</ele>
        <time>2020-08-11T11:45:49Z</time>
      </trkpt>
      <trkpt lat="45.14458" lon="5.90975">
        <ele>1351</ele>
        <time>2020-08-11T11:45:50Z</time>
      </trkpt>
      <trkpt lat="45.14456" lon="5.90972">
        <ele>1350.8</ele>
        <time>2020-08-11T11:45:51Z</time>
      </trkpt>
      <trkpt lat="45.14455" lon="5.9097">
        <ele>1349.6</ele>
        <time>2020-08-11T11:45:52Z</time>
      </trkpt>
      <trkpt lat="45.14454" lon="5.90968">
        <ele>1349.6</ele>
        <time>2020-08-11T11:45:53Z</time>
      </trkpt>
      <trkpt lat="45.14452" lon="5.90965">
        <ele>1349</ele>
        <time>2020-08-11T11:45:54Z</time>
      </trkpt>
      <trkpt lat="45.1445" lon="5.90963">
        <ele>1348.6</ele>
        <time>2020-08-11T11:45:55Z</time>
      </trkpt>
      <trkpt lat="45.14448" lon="5.90961">
        <ele>1348</ele>
        <time>2020-08-11T11:45:56Z</time>
      </trkpt>
      <trkpt lat="45.14446" lon="5.90958">
        <ele>1348</ele>
        <time>2020-08-11T11:45:57Z</time>
      </trkpt>
      <trkpt lat="45.14444" lon="5.90956">
        <ele>1347.4</ele>
        <time>2020-08-11T11:45:58Z</time>
      </trkpt>
      <trkpt lat="45.14443" lon="5.90955">
        <ele>1347.4</ele>
        <time>2020-08-11T11:45:59Z</time>
      </trkpt>
      <trkpt lat="45.14442" lon="5.90954">
        <ele>1347.2</ele>
        <time>2020-08-11T11:46:00Z</time>
      </trkpt>
      <trkpt lat="45.1444" lon="5.90952">
        <ele>1347.6</ele>
        <time>2020-08-11T11:46:01Z</time>
      </trkpt>
      <trkpt lat="45.14439" lon="5.90951">
        <ele>1347.4</ele>
        <time>2020-08-11T11:46:02Z</time>
      </trkpt>
      <trkpt lat="45.14438" lon="5.9095">
        <ele>1347.6</ele>
        <time>2020-08-11T11:46:03Z</time>
      </trkpt>
      <trkpt lat="45.14437" lon="5.90949">
        <ele>1347.2</ele>
        <time>2020-08-11T11:46:04Z</time>
      </trkpt>
      <trkpt lat="45.14435" lon="5.90948">
        <ele>1347.2</ele>
        <time>2020-08-11T11:46:05Z</time>
      </trkpt>
      <trkpt lat="45.14434" lon="5.90947">
        <ele>1347.2</ele>
        <time>2020-08-11T11:46:06Z</time>
      </trkpt>
      <trkpt lat="45.14432" lon="5.90944">
        <ele>1347.4</ele>
        <time>2020-08-11T11:46:07Z</time>
      </trkpt>
      <trkpt lat="45.14431" lon="5.90942">
        <ele>1346.8</ele>
        <time>2020-08-11T11:46:08Z</time>
      </trkpt>
      <trkpt lat="45.14429" lon="5.9094">
        <ele>1346.4</ele>
        <time>2020-08-11T11:46:09Z</time>
      </trkpt>
      <trkpt lat="45.14427" lon="5.90938">
        <ele>1345.6</ele>
        <time>2020-08-11T11:46:10Z</time>
      </trkpt>
      <trkpt lat="45.14425" lon="5.90936">
        <ele>1345.8</ele>
        <time>2020-08-11T11:46:11Z</time>
      </trkpt>
      <trkpt lat="45.14423" lon="5.90935">
        <ele>1345.4</ele>
        <time>2020-08-11T11:46:12Z</time>
      </trkpt>
      <trkpt lat="45.14421" lon="5.90933">
        <ele>1346</ele>
        <time>2020-08-11T11:46:13Z</time>
      </trkpt>
      <trkpt lat="45.14419" lon="5.90932">
        <ele>1346.2</ele>
        <time>2020-08-11T11:46:14Z</time>
      </trkpt>
      <trkpt lat="45.14417" lon="5.90931">
        <ele>1346.4</ele>
        <time>2020-08-11T11:46:15Z</time>
      </trkpt>
      <trkpt lat="45.14417" lon="5.90928">
        <ele>1346.4</ele>
        <time>2020-08-11T11:46:16Z</time>
      </trkpt>
      <trkpt lat="45.14416" lon="5.90926">
        <ele>1346.6</ele>
        <time>2020-08-11T11:46:17Z</time>
      </trkpt>
      <trkpt lat="45.14415" lon="5.90924">
        <ele>1346.4</ele>
        <time>2020-08-11T11:46:18Z</time>
      </trkpt>
      <trkpt lat="45.14415" lon="5.90922">
        <ele>1346.4</ele>
        <time>2020-08-11T11:46:19Z</time>
      </trkpt>
      <trkpt lat="45.14414" lon="5.9092">
        <ele>1346.6</ele>
        <time>2020-08-11T11:46:20Z</time>
      </trkpt>
      <trkpt lat="45.14414" lon="5.90917">
        <ele>1347</ele>
        <time>2020-08-11T11:46:21Z</time>
      </trkpt>
      <trkpt lat="45.14412" lon="5.90915">
        <ele>1346.4</ele>
        <time>2020-08-11T11:46:22Z</time>
      </trkpt>
      <trkpt lat="45.14411" lon="5.90913">
        <ele>1346.6</ele>
        <time>2020-08-11T11:46:23Z</time>
      </trkpt>
      <trkpt lat="45.14409" lon="5.90911">
        <ele>1346.6</ele>
        <time>2020-08-11T11:46:24Z</time>
      </trkpt>
      <trkpt lat="45.14408" lon="5.90908">
        <ele>1346.8</ele>
        <time>2020-08-11T11:46:25Z</time>
      </trkpt>
      <trkpt lat="45.14406" lon="5.90906">
        <ele>1347</ele>
        <time>2020-08-11T11:46:26Z</time>
      </trkpt>
      <trkpt lat="45.14405" lon="5.90905">
        <ele>1347.4</ele>
        <time>2020-08-11T11:46:27Z</time>
      </trkpt>
      <trkpt lat="45.14404" lon="5.90903">
        <ele>1347.4</ele>
        <time>2020-08-11T11:46:28Z</time>
      </trkpt>
      <trkpt lat="45.14402" lon="5.90902">
        <ele>1347.4</ele>
        <time>2020-08-11T11:46:29Z</time>
      </trkpt>
      <trkpt lat="45.14401" lon="5.90901">
        <ele>1346.8</ele>
        <time>2020-08-11T11:46:30Z</time>
      </trkpt>
      <trkpt lat="45.144" lon="5.909">
        <ele>1347.2</ele>
        <time>2020-08-11T11:46:31Z</time>
      </trkpt>
      <trkpt lat="45.14398" lon="5.90898">
        <ele>1347</ele>
        <time>2020-08-11T11:46:32Z</time>
      </trkpt>
      <trkpt lat="45.14398" lon="5.90896">
        <ele>1347</ele>
        <time>2020-08-11T11:46:33Z</time>
      </trkpt>
      <trkpt lat="45.14398" lon="5.90894">
        <ele>1347.2</ele>
        <time>2020-08-11T11:46:34Z</time>
      </trkpt>
      <trkpt lat="45.14398" lon="5.90891">
        <ele>1347.2</ele>
        <time>2020-08-11T11:46:35Z</time>
      </trkpt>
      <trkpt lat="45.14398" lon="5.90889">
        <ele>1347.2</ele>
        <time>2020-08-11T11:46:36Z</time>
      </trkpt>
      <trkpt lat="45.14398" lon="5.90887">
        <ele>1347.6</ele>
        <time>2020-08-11T11:46:37Z</time>
      </trkpt>
      <trkpt lat="45.14398" lon="5.90884">
        <ele>1347.8</ele>
        <time>2020-08-11T11:46:38Z</time>
      </trkpt>
      <trkpt lat="45.14398" lon="5.90882">
        <ele>1347.8</ele>
        <time>2020-08-11T11:46:39Z</time>
      </trkpt>
      <trkpt lat="45.14398" lon="5.9088">
        <ele>1348.4</ele>
        <time>2020-08-11T11:46:40Z</time>
      </trkpt>
      <trkpt lat="45.14398" lon="5.90879">
        <ele>1348.8</ele>
        <time>2020-08-11T11:46:41Z</time>
      </trkpt>
      <trkpt lat="45.14398" lon="5.90877">
        <ele>1349.2</ele>
        <time>2020-08-11T11:46:42Z</time>
      </trkpt>
      <trkpt lat="45.14398" lon="5.90875">
        <ele>1349.4</ele>
        <time>2020-08-11T11:46:43Z</time>
      </trkpt>
      <trkpt lat="45.14398" lon="5.90873">
        <ele>1349.4</ele>
        <time>2020-08-11T11:46:44Z</time>
      </trkpt>
      <trkpt lat="45.14398" lon="5.90872">
        <ele>1349.8</ele>
        <time>2020-08-11T11:46:45Z</time>
      </trkpt>
      <trkpt lat="45.14397" lon="5.9087">
        <ele>1350</ele>
        <time>2020-08-11T11:46:46Z</time>
      </trkpt>
      <trkpt lat="45.14397" lon="5.90868">
        <ele>1350</ele>
        <time>2020-08-11T11:46:47Z</time>
      </trkpt>
      <trkpt lat="45.14397" lon="5.90867">
        <ele>1350.2</ele>
        <time>2020-08-11T11:46:48Z</time>
      </trkpt>
      <trkpt lat="45.14397" lon="5.90865">
        <ele>1350.4</ele>
        <time>2020-08-11T11:46:49Z</time>
      </trkpt>
      <trkpt lat="45.14396" lon="5.90864">
        <ele>1350.6</ele>
        <time>2020-08-11T11:46:50Z</time>
      </trkpt>
      <trkpt lat="45.14396" lon="5.90862">
        <ele>1351</ele>
        <time>2020-08-11T11:46:51Z</time>
      </trkpt>
      <trkpt lat="45.14395" lon="5.90861">
        <ele>1351.4</ele>
        <time>2020-08-11T11:46:52Z</time>
      </trkpt>
      <trkpt lat="45.14395" lon="5.90859">
        <ele>1351.4</ele>
        <time>2020-08-11T11:46:53Z</time>
      </trkpt>
      <trkpt lat="45.14394" lon="5.90858">
        <ele>1351.6</ele>
        <time>2020-08-11T11:46:54Z</time>
      </trkpt>
      <trkpt lat="45.14394" lon="5.90856">
        <ele>1351.6</ele>
        <time>2020-08-11T11:46:55Z</time>
      </trkpt>
      <trkpt lat="45.14394" lon="5.90855">
        <ele>1352</ele>
        <time>2020-08-11T11:46:56Z</time>
      </trkpt>
      <trkpt lat="45.14394" lon="5.90853">
        <ele>1352</ele>
        <time>2020-08-11T11:46:57Z</time>
      </trkpt>
      <trkpt lat="45.14394" lon="5.90851">
        <ele>1352.6</ele>
        <time>2020-08-11T11:46:58Z</time>
      </trkpt>
      <trkpt lat="45.14395" lon="5.90849">
        <ele>1352.4</ele>
        <time>2020-08-11T11:46:59Z</time>
      </trkpt>
      <trkpt lat="45.14395" lon="5.90847">
        <ele>1352.2</ele>
        <time>2020-08-11T11:47:00Z</time>
      </trkpt>
      <trkpt lat="45.14396" lon="5.90845">
        <ele>1352</ele>
        <time>2020-08-11T11:47:01Z</time>
      </trkpt>
      <trkpt lat="45.14396" lon="5.90843">
        <ele>1352.2</ele>
        <time>2020-08-11T11:47:02Z</time>
      </trkpt>
      <trkpt lat="45.14397" lon="5.90842">
        <ele>1351.8</ele>
        <time>2020-08-11T11:47:03Z</time>
      </trkpt>
      <trkpt lat="45.14397" lon="5.90839">
        <ele>1351.6</ele>
        <time>2020-08-11T11:47:04Z</time>
      </trkpt>
      <trkpt lat="45.14397" lon="5.90836">
        <ele>1351.2</ele>
        <time>2020-08-11T11:47:05Z</time>
      </trkpt>
      <trkpt lat="45.14397" lon="5.90834">
        <ele>1350.4</ele>
        <time>2020-08-11T11:47:06Z</time>
      </trkpt>
      <trkpt lat="45.14397" lon="5.90831">
        <ele>1350.4</ele>
        <time>2020-08-11T11:47:07Z</time>
      </trkpt>
      <trkpt lat="45.14397" lon="5.90829">
        <ele>1348.4</ele>
        <time>2020-08-11T11:47:08Z</time>
      </trkpt>
      <trkpt lat="45.14398" lon="5.90826">
        <ele>1348.2</ele>
        <time>2020-08-11T11:47:09Z</time>
      </trkpt>
      <trkpt lat="45.14397" lon="5.90823">
        <ele>1348.2</ele>
        <time>2020-08-11T11:47:10Z</time>
      </trkpt>
      <trkpt lat="45.14397" lon="5.9082">
        <ele>1347.8</ele>
        <time>2020-08-11T11:47:11Z</time>
      </trkpt>
      <trkpt lat="45.14397" lon="5.90817">
        <ele>1347.4</ele>
        <time>2020-08-11T11:47:12Z</time>
      </trkpt>
      <trkpt lat="45.14397" lon="5.90815">
        <ele>1346.6</ele>
        <time>2020-08-11T11:47:13Z</time>
      </trkpt>
      <trkpt lat="45.14397" lon="5.90812">
        <ele>1346</ele>
        <time>2020-08-11T11:47:14Z</time>
      </trkpt>
      <trkpt lat="45.14397" lon="5.90809">
        <ele>1344.4</ele>
        <time>2020-08-11T11:47:15Z</time>
      </trkpt>
      <trkpt lat="45.14397" lon="5.90807">
        <ele>1343.8</ele>
        <time>2020-08-11T11:47:16Z</time>
      </trkpt>
      <trkpt lat="45.14397" lon="5.90804">
        <ele>1343.6</ele>
        <time>2020-08-11T11:47:17Z</time>
      </trkpt>
      <trkpt lat="45.14397" lon="5.90802">
        <ele>1342.8</ele>
        <time>2020-08-11T11:47:18Z</time>
      </trkpt>
      <trkpt lat="45.14397" lon="5.90799">
        <ele>1342</ele>
        <time>2020-08-11T11:47:19Z</time>
      </trkpt>
      <trkpt lat="45.14397" lon="5.90797">
        <ele>1341.4</ele>
        <time>2020-08-11T11:47:20Z</time>
      </trkpt>
      <trkpt lat="45.14397" lon="5.90793">
        <ele>1341</ele>
        <time>2020-08-11T11:47:21Z</time>
      </trkpt>
      <trkpt lat="45.14396" lon="5.9079">
        <ele>1340.4</ele>
        <time>2020-08-11T11:47:22Z</time>
      </trkpt>
      <trkpt lat="45.14396" lon="5.90787">
        <ele>1339.6</ele>
        <time>2020-08-11T11:47:23Z</time>
      </trkpt>
      <trkpt lat="45.14396" lon="5.90783">
        <ele>1339.2</ele>
        <time>2020-08-11T11:47:24Z</time>
      </trkpt>
      <trkpt lat="45.14396" lon="5.90782">
        <ele>1339.2</ele>
        <time>2020-08-11T11:47:25Z</time>
      </trkpt>
      <trkpt lat="45.14397" lon="5.9078">
        <ele>1338.8</ele>
        <time>2020-08-11T11:47:26Z</time>
      </trkpt>
      <trkpt lat="45.14397" lon="5.90778">
        <ele>1338.6</ele>
        <time>2020-08-11T11:47:27Z</time>
      </trkpt>
      <trkpt lat="45.14397" lon="5.90777">
        <ele>1338.2</ele>
        <time>2020-08-11T11:47:28Z</time>
      </trkpt>
      <trkpt lat="45.14397" lon="5.90775">
        <ele>1337.8</ele>
        <time>2020-08-11T11:47:29Z</time>
      </trkpt>
      <trkpt lat="45.14397" lon="5.90773">
        <ele>1337</ele>
        <time>2020-08-11T11:47:30Z</time>
      </trkpt>
      <trkpt lat="45.14397" lon="5.90772">
        <ele>1336</ele>
        <time>2020-08-11T11:47:31Z</time>
      </trkpt>
      <trkpt lat="45.14397" lon="5.9077">
        <ele>1335.4</ele>
        <time>2020-08-11T11:47:32Z</time>
      </trkpt>
      <trkpt lat="45.14398" lon="5.90768">
        <ele>1335.4</ele>
        <time>2020-08-11T11:47:33Z</time>
      </trkpt>
      <trkpt lat="45.14398" lon="5.90766">
        <ele>1335.2</ele>
        <time>2020-08-11T11:47:34Z</time>
      </trkpt>
      <trkpt lat="45.14399" lon="5.90764">
        <ele>1334.4</ele>
        <time>2020-08-11T11:47:35Z</time>
      </trkpt>
      <trkpt lat="45.14399" lon="5.90762">
        <ele>1334.4</ele>
        <time>2020-08-11T11:47:36Z</time>
      </trkpt>
      <trkpt lat="45.144" lon="5.9076">
        <ele>1333.8</ele>
        <time>2020-08-11T11:47:37Z</time>
      </trkpt>
      <trkpt lat="45.144" lon="5.90758">
        <ele>1333.6</ele>
        <time>2020-08-11T11:47:38Z</time>
      </trkpt>
      <trkpt lat="45.144" lon="5.90757">
        <ele>1333.2</ele>
        <time>2020-08-11T11:47:39Z</time>
      </trkpt>
      <trkpt lat="45.144" lon="5.90755">
        <ele>1333</ele>
        <time>2020-08-11T11:47:40Z</time>
      </trkpt>
      <trkpt lat="45.144" lon="5.90753">
        <ele>1332.6</ele>
        <time>2020-08-11T11:47:41Z</time>
      </trkpt>
      <trkpt lat="45.144" lon="5.90752">
        <ele>1332.4</ele>
        <time>2020-08-11T11:47:42Z</time>
      </trkpt>
      <trkpt lat="45.144" lon="5.9075">
        <ele>1332</ele>
        <time>2020-08-11T11:47:43Z</time>
      </trkpt>
      <trkpt lat="45.144" lon="5.90749">
        <ele>1330.8</ele>
        <time>2020-08-11T11:47:44Z</time>
      </trkpt>
      <trkpt lat="45.144" lon="5.90747">
        <ele>1330.2</ele>
        <time>2020-08-11T11:47:45Z</time>
      </trkpt>
      <trkpt lat="45.144" lon="5.90746">
        <ele>1330.2</ele>
        <time>2020-08-11T11:47:46Z</time>
      </trkpt>
      <trkpt lat="45.144" lon="5.90744">
        <ele>1329.8</ele>
        <time>2020-08-11T11:47:47Z</time>
      </trkpt>
      <trkpt lat="45.14399" lon="5.90743">
        <ele>1329.4</ele>
        <time>2020-08-11T11:47:48Z</time>
      </trkpt>
      <trkpt lat="45.14399" lon="5.90741">
        <ele>1329</ele>
        <time>2020-08-11T11:47:49Z</time>
      </trkpt>
      <trkpt lat="45.14399" lon="5.90739">
        <ele>1328.6</ele>
        <time>2020-08-11T11:47:50Z</time>
      </trkpt>
      <trkpt lat="45.14399" lon="5.90737">
        <ele>1328.4</ele>
        <time>2020-08-11T11:47:51Z</time>
      </trkpt>
      <trkpt lat="45.14399" lon="5.90735">
        <ele>1327.6</ele>
        <time>2020-08-11T11:47:52Z</time>
      </trkpt>
      <trkpt lat="45.14399" lon="5.90734">
        <ele>1327</ele>
        <time>2020-08-11T11:47:53Z</time>
      </trkpt>
      <trkpt lat="45.14399" lon="5.90732">
        <ele>1326.8</ele>
        <time>2020-08-11T11:47:54Z</time>
      </trkpt>
      <trkpt lat="45.144" lon="5.9073">
        <ele>1326.4</ele>
        <time>2020-08-11T11:47:55Z</time>
      </trkpt>
      <trkpt lat="45.144" lon="5.90728">
        <ele>1325.6</ele>
        <time>2020-08-11T11:47:56Z</time>
      </trkpt>
      <trkpt lat="45.14401" lon="5.90728">
        <ele>1324.6</ele>
        <time>2020-08-11T11:47:57Z</time>
      </trkpt>
      <trkpt lat="45.14401" lon="5.90728">
        <ele>1324</ele>
        <time>2020-08-11T11:47:58Z</time>
      </trkpt>
      <trkpt lat="45.14402" lon="5.90728">
        <ele>1323.4</ele>
        <time>2020-08-11T11:47:59Z</time>
      </trkpt>
      <trkpt lat="45.14403" lon="5.90728">
        <ele>1323</ele>
        <time>2020-08-11T11:48:00Z</time>
      </trkpt>
      <trkpt lat="45.14404" lon="5.90728">
        <ele>1322.6</ele>
        <time>2020-08-11T11:48:01Z</time>
      </trkpt>
      <trkpt lat="45.14405" lon="5.90728">
        <ele>1322.2</ele>
        <time>2020-08-11T11:48:02Z</time>
      </trkpt>
      <trkpt lat="45.14406" lon="5.90728">
        <ele>1321.6</ele>
        <time>2020-08-11T11:48:03Z</time>
      </trkpt>
      <trkpt lat="45.14407" lon="5.90729">
        <ele>1321.2</ele>
        <time>2020-08-11T11:48:04Z</time>
      </trkpt>
      <trkpt lat="45.14408" lon="5.90729">
        <ele>1320</ele>
        <time>2020-08-11T11:48:05Z</time>
      </trkpt>
      <trkpt lat="45.14409" lon="5.90729">
        <ele>1319.8</ele>
        <time>2020-08-11T11:48:06Z</time>
      </trkpt>
      <trkpt lat="45.1441" lon="5.90729">
        <ele>1318.8</ele>
        <time>2020-08-11T11:48:07Z</time>
      </trkpt>
      <trkpt lat="45.14411" lon="5.90729">
        <ele>1317.8</ele>
        <time>2020-08-11T11:48:08Z</time>
      </trkpt>
      <trkpt lat="45.14415" lon="5.90729">
        <ele>1316.6</ele>
        <time>2020-08-11T11:48:09Z</time>
      </trkpt>
      <trkpt lat="45.14418" lon="5.90728">
        <ele>1316.8</ele>
        <time>2020-08-11T11:48:10Z</time>
      </trkpt>
      <trkpt lat="45.14422" lon="5.90728">
        <ele>1316.8</ele>
        <time>2020-08-11T11:48:11Z</time>
      </trkpt>
      <trkpt lat="45.14423" lon="5.90729">
        <ele>1316.6</ele>
        <time>2020-08-11T11:48:12Z</time>
      </trkpt>
      <trkpt lat="45.14423" lon="5.9073">
        <ele>1316.2</ele>
        <time>2020-08-11T11:48:13Z</time>
      </trkpt>
      <trkpt lat="45.14424" lon="5.9073">
        <ele>1316</ele>
        <time>2020-08-11T11:48:14Z</time>
      </trkpt>
      <trkpt lat="45.14425" lon="5.90731">
        <ele>1315.4</ele>
        <time>2020-08-11T11:48:15Z</time>
      </trkpt>
      <trkpt lat="45.14426" lon="5.90732">
        <ele>1315.2</ele>
        <time>2020-08-11T11:48:16Z</time>
      </trkpt>
      <trkpt lat="45.14426" lon="5.90733">
        <ele>1314.6</ele>
        <time>2020-08-11T11:48:17Z</time>
      </trkpt>
      <trkpt lat="45.14427" lon="5.90733">
        <ele>1314.4</ele>
        <time>2020-08-11T11:48:18Z</time>
      </trkpt>
      <trkpt lat="45.14428" lon="5.90734">
        <ele>1314</ele>
        <time>2020-08-11T11:48:19Z</time>
      </trkpt>
      <trkpt lat="45.14429" lon="5.90735">
        <ele>1313.4</ele>
        <time>2020-08-11T11:48:20Z</time>
      </trkpt>
      <trkpt lat="45.14429" lon="5.90736">
        <ele>1312.8</ele>
        <time>2020-08-11T11:48:21Z</time>
      </trkpt>
      <trkpt lat="45.1443" lon="5.90737">
        <ele>1312.4</ele>
        <time>2020-08-11T11:48:22Z</time>
      </trkpt>
      <trkpt lat="45.14432" lon="5.90738">
        <ele>1312</ele>
        <time>2020-08-11T11:48:23Z</time>
      </trkpt>
      <trkpt lat="45.14433" lon="5.9074">
        <ele>1311.8</ele>
        <time>2020-08-11T11:48:24Z</time>
      </trkpt>
      <trkpt lat="45.14435" lon="5.90741">
        <ele>1312</ele>
        <time>2020-08-11T11:48:25Z</time>
      </trkpt>
      <trkpt lat="45.14436" lon="5.90743">
        <ele>1311.8</ele>
        <time>2020-08-11T11:48:26Z</time>
      </trkpt>
      <trkpt lat="45.14438" lon="5.90744">
        <ele>1311.6</ele>
        <time>2020-08-11T11:48:27Z</time>
      </trkpt>
      <trkpt lat="45.14437" lon="5.90743">
        <ele>1310.4</ele>
        <time>2020-08-11T11:48:28Z</time>
      </trkpt>
      <trkpt lat="45.14437" lon="5.90743">
        <ele>1309.6</ele>
        <time>2020-08-11T11:48:29Z</time>
      </trkpt>
      <trkpt lat="45.14436" lon="5.90742">
        <ele>1309.2</ele>
        <time>2020-08-11T11:48:30Z</time>
      </trkpt>
      <trkpt lat="45.14436" lon="5.90741">
        <ele>1309.4</ele>
        <time>2020-08-11T11:48:31Z</time>
      </trkpt>
      <trkpt lat="45.14435" lon="5.90741">
        <ele>1309.2</ele>
        <time>2020-08-11T11:48:32Z</time>
      </trkpt>
      <trkpt lat="45.14435" lon="5.9074">
        <ele>1309</ele>
        <time>2020-08-11T11:48:33Z</time>
      </trkpt>
      <trkpt lat="45.14434" lon="5.90739">
        <ele>1308</ele>
        <time>2020-08-11T11:48:34Z</time>
      </trkpt>
      <trkpt lat="45.14434" lon="5.90739">
        <ele>1307.8</ele>
        <time>2020-08-11T11:48:35Z</time>
      </trkpt>
      <trkpt lat="45.14433" lon="5.90738">
        <ele>1306.8</ele>
        <time>2020-08-11T11:48:36Z</time>
      </trkpt>
      <trkpt lat="45.14433" lon="5.90737">
        <ele>1306</ele>
        <time>2020-08-11T11:48:37Z</time>
      </trkpt>
      <trkpt lat="45.14432" lon="5.90737">
        <ele>1305.6</ele>
        <time>2020-08-11T11:48:38Z</time>
      </trkpt>
      <trkpt lat="45.14432" lon="5.90736">
        <ele>1303.8</ele>
        <time>2020-08-11T11:48:39Z</time>
      </trkpt>
      <trkpt lat="45.14431" lon="5.90735">
        <ele>1303.2</ele>
        <time>2020-08-11T11:48:40Z</time>
      </trkpt>
      <trkpt lat="45.1443" lon="5.90733">
        <ele>1302.6</ele>
        <time>2020-08-11T11:48:41Z</time>
      </trkpt>
      <trkpt lat="45.14429" lon="5.9073">
        <ele>1302.6</ele>
        <time>2020-08-11T11:48:42Z</time>
      </trkpt>
      <trkpt lat="45.14428" lon="5.90728">
        <ele>1301.8</ele>
        <time>2020-08-11T11:48:43Z</time>
      </trkpt>
      <trkpt lat="45.14428" lon="5.90726">
        <ele>1300.8</ele>
        <time>2020-08-11T11:48:44Z</time>
      </trkpt>
      <trkpt lat="45.14427" lon="5.90723">
        <ele>1300</ele>
        <time>2020-08-11T11:48:45Z</time>
      </trkpt>
      <trkpt lat="45.14426" lon="5.9072">
        <ele>1298.8</ele>
        <time>2020-08-11T11:48:46Z</time>
      </trkpt>
      <trkpt lat="45.14426" lon="5.90717">
        <ele>1298.4</ele>
        <time>2020-08-11T11:48:47Z</time>
      </trkpt>
      <trkpt lat="45.14425" lon="5.90714">
        <ele>1298</ele>
        <time>2020-08-11T11:48:48Z</time>
      </trkpt>
      <trkpt lat="45.14425" lon="5.90711">
        <ele>1298</ele>
        <time>2020-08-11T11:48:49Z</time>
      </trkpt>
      <trkpt lat="45.14424" lon="5.90708">
        <ele>1297.8</ele>
        <time>2020-08-11T11:48:50Z</time>
      </trkpt>
      <trkpt lat="45.14423" lon="5.90706">
        <ele>1298.2</ele>
        <time>2020-08-11T11:48:51Z</time>
      </trkpt>
      <trkpt lat="45.14423" lon="5.90703">
        <ele>1297.8</ele>
        <time>2020-08-11T11:48:52Z</time>
      </trkpt>
      <trkpt lat="45.14422" lon="5.90701">
        <ele>1297.2</ele>
        <time>2020-08-11T11:48:53Z</time>
      </trkpt>
      <trkpt lat="45.14421" lon="5.90698">
        <ele>1296.6</ele>
        <time>2020-08-11T11:48:54Z</time>
      </trkpt>
      <trkpt lat="45.14421" lon="5.90696">
        <ele>1296.4</ele>
        <time>2020-08-11T11:48:55Z</time>
      </trkpt>
      <trkpt lat="45.14422" lon="5.90696">
        <ele>1295</ele>
        <time>2020-08-11T11:48:56Z</time>
      </trkpt>
      <trkpt lat="45.14423" lon="5.90695">
        <ele>1294.2</ele>
        <time>2020-08-11T11:48:57Z</time>
      </trkpt>
      <trkpt lat="45.14425" lon="5.90695">
        <ele>1294</ele>
        <time>2020-08-11T11:48:58Z</time>
      </trkpt>
      <trkpt lat="45.14426" lon="5.90694">
        <ele>1293.6</ele>
        <time>2020-08-11T11:48:59Z</time>
      </trkpt>
      <trkpt lat="45.14427" lon="5.90694">
        <ele>1293.6</ele>
        <time>2020-08-11T11:49:00Z</time>
      </trkpt>
      <trkpt lat="45.14428" lon="5.90693">
        <ele>1292.6</ele>
        <time>2020-08-11T11:49:01Z</time>
      </trkpt>
      <trkpt lat="45.1443" lon="5.90693">
        <ele>1291</ele>
        <time>2020-08-11T11:49:02Z</time>
      </trkpt>
      <trkpt lat="45.14431" lon="5.90693">
        <ele>1290.6</ele>
        <time>2020-08-11T11:49:03Z</time>
      </trkpt>
      <trkpt lat="45.14432" lon="5.90693">
        <ele>1290.4</ele>
        <time>2020-08-11T11:49:04Z</time>
      </trkpt>
      <trkpt lat="45.14432" lon="5.90693">
        <ele>1290.2</ele>
        <time>2020-08-11T11:49:05Z</time>
      </trkpt>
      <trkpt lat="45.14433" lon="5.90694">
        <ele>1289.4</ele>
        <time>2020-08-11T11:49:06Z</time>
      </trkpt>
      <trkpt lat="45.14434" lon="5.90694">
        <ele>1288.8</ele>
        <time>2020-08-11T11:49:07Z</time>
      </trkpt>
      <trkpt lat="45.14435" lon="5.90695">
        <ele>1289</ele>
        <time>2020-08-11T11:49:08Z</time>
      </trkpt>
      <trkpt lat="45.14435" lon="5.90695">
        <ele>1288</ele>
        <time>2020-08-11T11:49:09Z</time>
      </trkpt>
      <trkpt lat="45.14436" lon="5.90696">
        <ele>1287.4</ele>
        <time>2020-08-11T11:49:10Z</time>
      </trkpt>
      <trkpt lat="45.14437" lon="5.90696">
        <ele>1287.4</ele>
        <time>2020-08-11T11:49:11Z</time>
      </trkpt>
      <trkpt lat="45.14438" lon="5.90697">
        <ele>1286.8</ele>
        <time>2020-08-11T11:49:12Z</time>
      </trkpt>
      <trkpt lat="45.14438" lon="5.90697">
        <ele>1285.6</ele>
        <time>2020-08-11T11:49:13Z</time>
      </trkpt>
      <trkpt lat="45.14439" lon="5.90698">
        <ele>1284.4</ele>
        <time>2020-08-11T11:49:14Z</time>
      </trkpt>
      <trkpt lat="45.14442" lon="5.90699">
        <ele>1283.4</ele>
        <time>2020-08-11T11:49:15Z</time>
      </trkpt>
      <trkpt lat="45.14444" lon="5.90701">
        <ele>1283</ele>
        <time>2020-08-11T11:49:16Z</time>
      </trkpt>
      <trkpt lat="45.14446" lon="5.90703">
        <ele>1282.6</ele>
        <time>2020-08-11T11:49:17Z</time>
      </trkpt>
      <trkpt lat="45.14448" lon="5.90704">
        <ele>1282.2</ele>
        <time>2020-08-11T11:49:18Z</time>
      </trkpt>
      <trkpt lat="45.1445" lon="5.90707">
        <ele>1281</ele>
        <time>2020-08-11T11:49:19Z</time>
      </trkpt>
      <trkpt lat="45.14452" lon="5.90709">
        <ele>1280.2</ele>
        <time>2020-08-11T11:49:20Z</time>
      </trkpt>
      <trkpt lat="45.14454" lon="5.90711">
        <ele>1279.2</ele>
        <time>2020-08-11T11:49:21Z</time>
      </trkpt>
      <trkpt lat="45.14456" lon="5.90714">
        <ele>1279.2</ele>
        <time>2020-08-11T11:49:22Z</time>
      </trkpt>
      <trkpt lat="45.14457" lon="5.90713">
        <ele>1278.8</ele>
        <time>2020-08-11T11:49:23Z</time>
      </trkpt>
      <trkpt lat="45.14458" lon="5.90713">
        <ele>1278</ele>
        <time>2020-08-11T11:49:24Z</time>
      </trkpt>
      <trkpt lat="45.1446" lon="5.90712">
        <ele>1277.4</ele>
        <time>2020-08-11T11:49:25Z</time>
      </trkpt>
      <trkpt lat="45.14461" lon="5.90711">
        <ele>1276.8</ele>
        <time>2020-08-11T11:49:26Z</time>
      </trkpt>
      <trkpt lat="45.14462" lon="5.90711">
        <ele>1276.6</ele>
        <time>2020-08-11T11:49:27Z</time>
      </trkpt>
      <trkpt lat="45.14463" lon="5.9071">
        <ele>1275.6</ele>
        <time>2020-08-11T11:49:28Z</time>
      </trkpt>
      <trkpt lat="45.14464" lon="5.9071">
        <ele>1274.6</ele>
        <time>2020-08-11T11:49:29Z</time>
      </trkpt>
      <trkpt lat="45.14465" lon="5.90709">
        <ele>1274.4</ele>
        <time>2020-08-11T11:49:30Z</time>
      </trkpt>
      <trkpt lat="45.14466" lon="5.90708">
        <ele>1274</ele>
        <time>2020-08-11T11:49:31Z</time>
      </trkpt>
      <trkpt lat="45.14466" lon="5.90706">
        <ele>1273.2</ele>
        <time>2020-08-11T11:49:32Z</time>
      </trkpt>
      <trkpt lat="45.14467" lon="5.90705">
        <ele>1273</ele>
        <time>2020-08-11T11:49:33Z</time>
      </trkpt>
      <trkpt lat="45.14467" lon="5.90704">
        <ele>1272.2</ele>
        <time>2020-08-11T11:49:34Z</time>
      </trkpt>
      <trkpt lat="45.14468" lon="5.90703">
        <ele>1271.6</ele>
        <time>2020-08-11T11:49:35Z</time>
      </trkpt>
      <trkpt lat="45.14469" lon="5.90702">
        <ele>1271</ele>
        <time>2020-08-11T11:49:36Z</time>
      </trkpt>
      <trkpt lat="45.14469" lon="5.907">
        <ele>1270.2</ele>
        <time>2020-08-11T11:49:37Z</time>
      </trkpt>
      <trkpt lat="45.1447" lon="5.90699">
        <ele>1269.8</ele>
        <time>2020-08-11T11:49:38Z</time>
      </trkpt>
      <trkpt lat="45.1447" lon="5.90698">
        <ele>1269.2</ele>
        <time>2020-08-11T11:49:39Z</time>
      </trkpt>
      <trkpt lat="45.14469" lon="5.90696">
        <ele>1268.8</ele>
        <time>2020-08-11T11:49:40Z</time>
      </trkpt>
      <trkpt lat="45.14469" lon="5.90695">
        <ele>1268.2</ele>
        <time>2020-08-11T11:49:41Z</time>
      </trkpt>
      <trkpt lat="45.14468" lon="5.90693">
        <ele>1268</ele>
        <time>2020-08-11T11:49:42Z</time>
      </trkpt>
      <trkpt lat="45.14468" lon="5.90692">
        <ele>1266.6</ele>
        <time>2020-08-11T11:49:43Z</time>
      </trkpt>
      <trkpt lat="45.14467" lon="5.9069">
        <ele>1266</ele>
        <time>2020-08-11T11:49:44Z</time>
      </trkpt>
      <trkpt lat="45.14467" lon="5.90689">
        <ele>1265.8</ele>
        <time>2020-08-11T11:49:45Z</time>
      </trkpt>
      <trkpt lat="45.14466" lon="5.90687">
        <ele>1265</ele>
        <time>2020-08-11T11:49:46Z</time>
      </trkpt>
      <trkpt lat="45.14465" lon="5.90686">
        <ele>1264.8</ele>
        <time>2020-08-11T11:49:47Z</time>
      </trkpt>
      <trkpt lat="45.14464" lon="5.90682">
        <ele>1264</ele>
        <time>2020-08-11T11:49:48Z</time>
      </trkpt>
      <trkpt lat="45.14463" lon="5.90678">
        <ele>1264</ele>
        <time>2020-08-11T11:49:49Z</time>
      </trkpt>
      <trkpt lat="45.14462" lon="5.90675">
        <ele>1263.2</ele>
        <time>2020-08-11T11:49:50Z</time>
      </trkpt>
      <trkpt lat="45.14461" lon="5.90671">
        <ele>1262.8</ele>
        <time>2020-08-11T11:49:51Z</time>
      </trkpt>
      <trkpt lat="45.1446" lon="5.90668">
        <ele>1262.2</ele>
        <time>2020-08-11T11:49:52Z</time>
      </trkpt>
      <trkpt lat="45.14459" lon="5.90664">
        <ele>1261.8</ele>
        <time>2020-08-11T11:49:53Z</time>
      </trkpt>
      <trkpt lat="45.14458" lon="5.9066">
        <ele>1260.4</ele>
        <time>2020-08-11T11:49:54Z</time>
      </trkpt>
      <trkpt lat="45.14457" lon="5.90653">
        <ele>1259.6</ele>
        <time>2020-08-11T11:49:55Z</time>
      </trkpt>
      <trkpt lat="45.14457" lon="5.90653">
        <ele>1259.2</ele>
        <time>2020-08-11T11:49:56Z</time>
      </trkpt>
      <trkpt lat="45.14457" lon="5.9065">
        <ele>1258.6</ele>
        <time>2020-08-11T11:49:57Z</time>
      </trkpt>
      <trkpt lat="45.14456" lon="5.90648">
        <ele>1258.4</ele>
        <time>2020-08-11T11:49:58Z</time>
      </trkpt>
      <trkpt lat="45.14455" lon="5.90645">
        <ele>1257.6</ele>
        <time>2020-08-11T11:49:59Z</time>
      </trkpt>
      <trkpt lat="45.14454" lon="5.90643">
        <ele>1257.6</ele>
        <time>2020-08-11T11:50:00Z</time>
      </trkpt>
      <trkpt lat="45.14454" lon="5.9064">
        <ele>1256.8</ele>
        <time>2020-08-11T11:50:01Z</time>
      </trkpt>
      <trkpt lat="45.14455" lon="5.90638">
        <ele>1256.4</ele>
        <time>2020-08-11T11:50:02Z</time>
      </trkpt>
      <trkpt lat="45.14455" lon="5.90635">
        <ele>1255.8</ele>
        <time>2020-08-11T11:50:03Z</time>
      </trkpt>
      <trkpt lat="45.14456" lon="5.90633">
        <ele>1255.6</ele>
        <time>2020-08-11T11:50:04Z</time>
      </trkpt>
      <trkpt lat="45.14457" lon="5.9063">
        <ele>1254.8</ele>
        <time>2020-08-11T11:50:05Z</time>
      </trkpt>
      <trkpt lat="45.14458" lon="5.90628">
        <ele>1254.4</ele>
        <time>2020-08-11T11:50:06Z</time>
      </trkpt>
      <trkpt lat="45.14458" lon="5.90625">
        <ele>1253.4</ele>
        <time>2020-08-11T11:50:07Z</time>
      </trkpt>
      <trkpt lat="45.14459" lon="5.90623">
        <ele>1253.4</ele>
        <time>2020-08-11T11:50:08Z</time>
      </trkpt>
      <trkpt lat="45.14459" lon="5.9062">
        <ele>1252.4</ele>
        <time>2020-08-11T11:50:09Z</time>
      </trkpt>
      <trkpt lat="45.14459" lon="5.90618">
        <ele>1252</ele>
        <time>2020-08-11T11:50:10Z</time>
      </trkpt>
      <trkpt lat="45.1446" lon="5.90615">
        <ele>1250.8</ele>
        <time>2020-08-11T11:50:11Z</time>
      </trkpt>
      <trkpt lat="45.1446" lon="5.90613">
        <ele>1250.6</ele>
        <time>2020-08-11T11:50:12Z</time>
      </trkpt>
      <trkpt lat="45.14461" lon="5.9061">
        <ele>1249.8</ele>
        <time>2020-08-11T11:50:13Z</time>
      </trkpt>
      <trkpt lat="45.14462" lon="5.90608">
        <ele>1249.6</ele>
        <time>2020-08-11T11:50:14Z</time>
      </trkpt>
      <trkpt lat="45.14462" lon="5.90605">
        <ele>1248.8</ele>
        <time>2020-08-11T11:50:15Z</time>
      </trkpt>
      <trkpt lat="45.14463" lon="5.90603">
        <ele>1247.6</ele>
        <time>2020-08-11T11:50:16Z</time>
      </trkpt>
      <trkpt lat="45.14464" lon="5.906">
        <ele>1246.6</ele>
        <time>2020-08-11T11:50:17Z</time>
      </trkpt>
      <trkpt lat="45.14465" lon="5.90597">
        <ele>1245.8</ele>
        <time>2020-08-11T11:50:18Z</time>
      </trkpt>
      <trkpt lat="45.14466" lon="5.90594">
        <ele>1245.4</ele>
        <time>2020-08-11T11:50:19Z</time>
      </trkpt>
      <trkpt lat="45.14468" lon="5.90591">
        <ele>1244.8</ele>
        <time>2020-08-11T11:50:20Z</time>
      </trkpt>
      <trkpt lat="45.14468" lon="5.90588">
        <ele>1244</ele>
        <time>2020-08-11T11:50:21Z</time>
      </trkpt>
      <trkpt lat="45.14468" lon="5.90585">
        <ele>1243.2</ele>
        <time>2020-08-11T11:50:22Z</time>
      </trkpt>
      <trkpt lat="45.14468" lon="5.90582">
        <ele>1242.4</ele>
        <time>2020-08-11T11:50:23Z</time>
      </trkpt>
      <trkpt lat="45.14468" lon="5.90579">
        <ele>1241.4</ele>
        <time>2020-08-11T11:50:24Z</time>
      </trkpt>
      <trkpt lat="45.14469" lon="5.90576">
        <ele>1240.4</ele>
        <time>2020-08-11T11:50:25Z</time>
      </trkpt>
      <trkpt lat="45.1447" lon="5.90574">
        <ele>1240.4</ele>
        <time>2020-08-11T11:50:26Z</time>
      </trkpt>
      <trkpt lat="45.14472" lon="5.90572">
        <ele>1239.8</ele>
        <time>2020-08-11T11:50:27Z</time>
      </trkpt>
      <trkpt lat="45.14473" lon="5.90569">
        <ele>1239.4</ele>
        <time>2020-08-11T11:50:28Z</time>
      </trkpt>
      <trkpt lat="45.14474" lon="5.90567">
        <ele>1238.6</ele>
        <time>2020-08-11T11:50:29Z</time>
      </trkpt>
      <trkpt lat="45.14476" lon="5.90564">
        <ele>1237.4</ele>
        <time>2020-08-11T11:50:31Z</time>
      </trkpt>
      <trkpt lat="45.14477" lon="5.90561">
        <ele>1237</ele>
        <time>2020-08-11T11:50:32Z</time>
      </trkpt>
      <trkpt lat="45.14479" lon="5.90557">
        <ele>1236.6</ele>
        <time>2020-08-11T11:50:33Z</time>
      </trkpt>
      <trkpt lat="45.14481" lon="5.90554">
        <ele>1236.4</ele>
        <time>2020-08-11T11:50:34Z</time>
      </trkpt>
      <trkpt lat="45.14482" lon="5.90551">
        <ele>1236.6</ele>
        <time>2020-08-11T11:50:35Z</time>
      </trkpt>
      <trkpt lat="45.14482" lon="5.90549">
        <ele>1236</ele>
        <time>2020-08-11T11:50:36Z</time>
      </trkpt>
      <trkpt lat="45.14483" lon="5.90546">
        <ele>1235.2</ele>
        <time>2020-08-11T11:50:37Z</time>
      </trkpt>
      <trkpt lat="45.14484" lon="5.90543">
        <ele>1235.6</ele>
        <time>2020-08-11T11:50:38Z</time>
      </trkpt>
      <trkpt lat="45.14485" lon="5.90541">
        <ele>1235.4</ele>
        <time>2020-08-11T11:50:39Z</time>
      </trkpt>
      <trkpt lat="45.14484" lon="5.90538">
        <ele>1235.6</ele>
        <time>2020-08-11T11:50:40Z</time>
      </trkpt>
      <trkpt lat="45.14484" lon="5.90535">
        <ele>1235</ele>
        <time>2020-08-11T11:50:41Z</time>
      </trkpt>
      <trkpt lat="45.14483" lon="5.90533">
        <ele>1234.6</ele>
        <time>2020-08-11T11:50:42Z</time>
      </trkpt>
      <trkpt lat="45.14483" lon="5.9053">
        <ele>1233.8</ele>
        <time>2020-08-11T11:50:43Z</time>
      </trkpt>
      <trkpt lat="45.14482" lon="5.90527">
        <ele>1233.8</ele>
        <time>2020-08-11T11:50:44Z</time>
      </trkpt>
      <trkpt lat="45.14482" lon="5.90524">
        <ele>1233.4</ele>
        <time>2020-08-11T11:50:45Z</time>
      </trkpt>
      <trkpt lat="45.14482" lon="5.90521">
        <ele>1233</ele>
        <time>2020-08-11T11:50:46Z</time>
      </trkpt>
      <trkpt lat="45.14482" lon="5.90518">
        <ele>1232.2</ele>
        <time>2020-08-11T11:50:47Z</time>
      </trkpt>
      <trkpt lat="45.14481" lon="5.90515">
        <ele>1232.2</ele>
        <time>2020-08-11T11:50:48Z</time>
      </trkpt>
      <trkpt lat="45.14482" lon="5.90511">
        <ele>1231.4</ele>
        <time>2020-08-11T11:50:49Z</time>
      </trkpt>
      <trkpt lat="45.14482" lon="5.90507">
        <ele>1231.6</ele>
        <time>2020-08-11T11:50:50Z</time>
      </trkpt>
      <trkpt lat="45.14482" lon="5.90503">
        <ele>1230.6</ele>
        <time>2020-08-11T11:50:51Z</time>
      </trkpt>
      <trkpt lat="45.14483" lon="5.90499">
        <ele>1230</ele>
        <time>2020-08-11T11:50:52Z</time>
      </trkpt>
      <trkpt lat="45.14483" lon="5.90493">
        <ele>1229.2</ele>
        <time>2020-08-11T11:50:53Z</time>
      </trkpt>
      <trkpt lat="45.14483" lon="5.90487">
        <ele>1228.6</ele>
        <time>2020-08-11T11:50:54Z</time>
      </trkpt>
      <trkpt lat="45.14484" lon="5.90481">
        <ele>1228.2</ele>
        <time>2020-08-11T11:50:55Z</time>
      </trkpt>
      <trkpt lat="45.14484" lon="5.90476">
        <ele>1228.2</ele>
        <time>2020-08-11T11:50:56Z</time>
      </trkpt>
      <trkpt lat="45.14484" lon="5.90472">
        <ele>1227.6</ele>
        <time>2020-08-11T11:50:57Z</time>
      </trkpt>
      <trkpt lat="45.14485" lon="5.90467">
        <ele>1227.6</ele>
        <time>2020-08-11T11:50:58Z</time>
      </trkpt>
      <trkpt lat="45.14484" lon="5.90464">
        <ele>1226.8</ele>
        <time>2020-08-11T11:50:59Z</time>
      </trkpt>
      <trkpt lat="45.14483" lon="5.90461">
        <ele>1226.8</ele>
        <time>2020-08-11T11:51:00Z</time>
      </trkpt>
      <trkpt lat="45.14483" lon="5.90457">
        <ele>1226.2</ele>
        <time>2020-08-11T11:51:01Z</time>
      </trkpt>
      <trkpt lat="45.14482" lon="5.90454">
        <ele>1225.6</ele>
        <time>2020-08-11T11:51:02Z</time>
      </trkpt>
      <trkpt lat="45.14482" lon="5.90451">
        <ele>1225.2</ele>
        <time>2020-08-11T11:51:03Z</time>
      </trkpt>
      <trkpt lat="45.14482" lon="5.90448">
        <ele>1224.8</ele>
        <time>2020-08-11T11:51:04Z</time>
      </trkpt>
      <trkpt lat="45.14481" lon="5.90445">
        <ele>1225</ele>
        <time>2020-08-11T11:51:05Z</time>
      </trkpt>
      <trkpt lat="45.14481" lon="5.90442">
        <ele>1224.2</ele>
        <time>2020-08-11T11:51:06Z</time>
      </trkpt>
      <trkpt lat="45.14481" lon="5.90439">
        <ele>1223.8</ele>
        <time>2020-08-11T11:51:07Z</time>
      </trkpt>
      <trkpt lat="45.14482" lon="5.90436">
        <ele>1223</ele>
        <time>2020-08-11T11:51:08Z</time>
      </trkpt>
      <trkpt lat="45.14483" lon="5.90433">
        <ele>1222.6</ele>
        <time>2020-08-11T11:51:09Z</time>
      </trkpt>
      <trkpt lat="45.14484" lon="5.9043">
        <ele>1222.2</ele>
        <time>2020-08-11T11:51:10Z</time>
      </trkpt>
      <trkpt lat="45.14485" lon="5.90427">
        <ele>1221.4</ele>
        <time>2020-08-11T11:51:11Z</time>
      </trkpt>
      <trkpt lat="45.14485" lon="5.90424">
        <ele>1220.8</ele>
        <time>2020-08-11T11:51:12Z</time>
      </trkpt>
      <trkpt lat="45.14484" lon="5.90422">
        <ele>1220</ele>
        <time>2020-08-11T11:51:13Z</time>
      </trkpt>
      <trkpt lat="45.14484" lon="5.90419">
        <ele>1219.2</ele>
        <time>2020-08-11T11:51:14Z</time>
      </trkpt>
      <trkpt lat="45.14483" lon="5.90416">
        <ele>1218.6</ele>
        <time>2020-08-11T11:51:15Z</time>
      </trkpt>
      <trkpt lat="45.14483" lon="5.90413">
        <ele>1218.8</ele>
        <time>2020-08-11T11:51:16Z</time>
      </trkpt>
      <trkpt lat="45.14483" lon="5.90408">
        <ele>1218.2</ele>
        <time>2020-08-11T11:51:17Z</time>
      </trkpt>
      <trkpt lat="45.14484" lon="5.90404">
        <ele>1218</ele>
        <time>2020-08-11T11:51:18Z</time>
      </trkpt>
      <trkpt lat="45.14484" lon="5.90399">
        <ele>1217.2</ele>
        <time>2020-08-11T11:51:19Z</time>
      </trkpt>
      <trkpt lat="45.14483" lon="5.90395">
        <ele>1217.4</ele>
        <time>2020-08-11T11:51:20Z</time>
      </trkpt>
      <trkpt lat="45.14483" lon="5.90392">
        <ele>1216.6</ele>
        <time>2020-08-11T11:51:21Z</time>
      </trkpt>
      <trkpt lat="45.14482" lon="5.90388">
        <ele>1216.6</ele>
        <time>2020-08-11T11:51:22Z</time>
      </trkpt>
      <trkpt lat="45.14481" lon="5.90384">
        <ele>1216</ele>
        <time>2020-08-11T11:51:23Z</time>
      </trkpt>
      <trkpt lat="45.14482" lon="5.90379">
        <ele>1215</ele>
        <time>2020-08-11T11:51:24Z</time>
      </trkpt>
      <trkpt lat="45.14482" lon="5.90375">
        <ele>1213.6</ele>
        <time>2020-08-11T11:51:25Z</time>
      </trkpt>
      <trkpt lat="45.14483" lon="5.9037">
        <ele>1212.6</ele>
        <time>2020-08-11T11:51:26Z</time>
      </trkpt>
      <trkpt lat="45.14484" lon="5.90367">
        <ele>1212.8</ele>
        <time>2020-08-11T11:51:27Z</time>
      </trkpt>
      <trkpt lat="45.14485" lon="5.90365">
        <ele>1212.6</ele>
        <time>2020-08-11T11:51:28Z</time>
      </trkpt>
      <trkpt lat="45.14486" lon="5.90362">
        <ele>1212.4</ele>
        <time>2020-08-11T11:51:29Z</time>
      </trkpt>
      <trkpt lat="45.14487" lon="5.9036">
        <ele>1212</ele>
        <time>2020-08-11T11:51:30Z</time>
      </trkpt>
      <trkpt lat="45.14488" lon="5.90357">
        <ele>1211.6</ele>
        <time>2020-08-11T11:51:31Z</time>
      </trkpt>
      <trkpt lat="45.14489" lon="5.90355">
        <ele>1210.6</ele>
        <time>2020-08-11T11:51:32Z</time>
      </trkpt>
      <trkpt lat="45.14491" lon="5.90353">
        <ele>1209.8</ele>
        <time>2020-08-11T11:51:33Z</time>
      </trkpt>
      <trkpt lat="45.14493" lon="5.9035">
        <ele>1210.4</ele>
        <time>2020-08-11T11:51:34Z</time>
      </trkpt>
      <trkpt lat="45.14495" lon="5.90348">
        <ele>1209.4</ele>
        <time>2020-08-11T11:51:35Z</time>
      </trkpt>
      <trkpt lat="45.14496" lon="5.90345">
        <ele>1208.6</ele>
        <time>2020-08-11T11:51:36Z</time>
      </trkpt>
      <trkpt lat="45.14496" lon="5.90343">
        <ele>1208</ele>
        <time>2020-08-11T11:51:37Z</time>
      </trkpt>
      <trkpt lat="45.14497" lon="5.90341">
        <ele>1207.4</ele>
        <time>2020-08-11T11:51:38Z</time>
      </trkpt>
      <trkpt lat="45.14498" lon="5.90338">
        <ele>1207.6</ele>
        <time>2020-08-11T11:51:39Z</time>
      </trkpt>
      <trkpt lat="45.14499" lon="5.90336">
        <ele>1207</ele>
        <time>2020-08-11T11:51:40Z</time>
      </trkpt>
      <trkpt lat="45.14499" lon="5.90333">
        <ele>1207</ele>
        <time>2020-08-11T11:51:41Z</time>
      </trkpt>
      <trkpt lat="45.145" lon="5.90331">
        <ele>1206.4</ele>
        <time>2020-08-11T11:51:42Z</time>
      </trkpt>
      <trkpt lat="45.14501" lon="5.90328">
        <ele>1206.4</ele>
        <time>2020-08-11T11:51:43Z</time>
      </trkpt>
      <trkpt lat="45.14501" lon="5.90326">
        <ele>1205.4</ele>
        <time>2020-08-11T11:51:44Z</time>
      </trkpt>
      <trkpt lat="45.14502" lon="5.90324">
        <ele>1204.6</ele>
        <time>2020-08-11T11:51:45Z</time>
      </trkpt>
      <trkpt lat="45.14502" lon="5.90319">
        <ele>1204</ele>
        <time>2020-08-11T11:51:46Z</time>
      </trkpt>
      <trkpt lat="45.14502" lon="5.90314">
        <ele>1203.4</ele>
        <time>2020-08-11T11:51:47Z</time>
      </trkpt>
      <trkpt lat="45.14502" lon="5.90309">
        <ele>1202.8</ele>
        <time>2020-08-11T11:51:48Z</time>
      </trkpt>
      <trkpt lat="45.14503" lon="5.90306">
        <ele>1202.2</ele>
        <time>2020-08-11T11:51:49Z</time>
      </trkpt>
      <trkpt lat="45.14503" lon="5.90303">
        <ele>1202</ele>
        <time>2020-08-11T11:51:50Z</time>
      </trkpt>
      <trkpt lat="45.14504" lon="5.90299">
        <ele>1201.6</ele>
        <time>2020-08-11T11:51:51Z</time>
      </trkpt>
      <trkpt lat="45.14505" lon="5.90296">
        <ele>1201.2</ele>
        <time>2020-08-11T11:51:52Z</time>
      </trkpt>
      <trkpt lat="45.14505" lon="5.90293">
        <ele>1200.6</ele>
        <time>2020-08-11T11:51:53Z</time>
      </trkpt>
      <trkpt lat="45.14505" lon="5.9029">
        <ele>1199.8</ele>
        <time>2020-08-11T11:51:54Z</time>
      </trkpt>
      <trkpt lat="45.14505" lon="5.90287">
        <ele>1199.8</ele>
        <time>2020-08-11T11:51:55Z</time>
      </trkpt>
      <trkpt lat="45.14506" lon="5.90284">
        <ele>1199.2</ele>
        <time>2020-08-11T11:51:56Z</time>
      </trkpt>
      <trkpt lat="45.14506" lon="5.90281">
        <ele>1199.2</ele>
        <time>2020-08-11T11:51:57Z</time>
      </trkpt>
      <trkpt lat="45.14507" lon="5.90278">
        <ele>1198.6</ele>
        <time>2020-08-11T11:51:58Z</time>
      </trkpt>
      <trkpt lat="45.14509" lon="5.90276">
        <ele>1198.8</ele>
        <time>2020-08-11T11:51:59Z</time>
      </trkpt>
      <trkpt lat="45.14511" lon="5.90273">
        <ele>1198.4</ele>
        <time>2020-08-11T11:52:00Z</time>
      </trkpt>
      <trkpt lat="45.14512" lon="5.9027">
        <ele>1197.8</ele>
        <time>2020-08-11T11:52:01Z</time>
      </trkpt>
      <trkpt lat="45.14514" lon="5.90268">
        <ele>1197</ele>
        <time>2020-08-11T11:52:02Z</time>
      </trkpt>
      <trkpt lat="45.14516" lon="5.90265">
        <ele>1196.2</ele>
        <time>2020-08-11T11:52:03Z</time>
      </trkpt>
      <trkpt lat="45.14518" lon="5.90263">
        <ele>1195.4</ele>
        <time>2020-08-11T11:52:04Z</time>
      </trkpt>
      <trkpt lat="45.1452" lon="5.9026">
        <ele>1194.6</ele>
        <time>2020-08-11T11:52:05Z</time>
      </trkpt>
      <trkpt lat="45.14521" lon="5.90257">
        <ele>1194.2</ele>
        <time>2020-08-11T11:52:06Z</time>
      </trkpt>
      <trkpt lat="45.14522" lon="5.90255">
        <ele>1193.6</ele>
        <time>2020-08-11T11:52:07Z</time>
      </trkpt>
      <trkpt lat="45.14523" lon="5.90252">
        <ele>1193.6</ele>
        <time>2020-08-11T11:52:08Z</time>
      </trkpt>
      <trkpt lat="45.14524" lon="5.9025">
        <ele>1193.4</ele>
        <time>2020-08-11T11:52:09Z</time>
      </trkpt>
      <trkpt lat="45.14525" lon="5.90247">
        <ele>1192.8</ele>
        <time>2020-08-11T11:52:10Z</time>
      </trkpt>
      <trkpt lat="45.14526" lon="5.90243">
        <ele>1192.4</ele>
        <time>2020-08-11T11:52:11Z</time>
      </trkpt>
      <trkpt lat="45.14526" lon="5.90238">
        <ele>1191.6</ele>
        <time>2020-08-11T11:52:12Z</time>
      </trkpt>
      <trkpt lat="45.14526" lon="5.90233">
        <ele>1190.6</ele>
        <time>2020-08-11T11:52:13Z</time>
      </trkpt>
      <trkpt lat="45.14527" lon="5.90231">
        <ele>1190</ele>
        <time>2020-08-11T11:52:14Z</time>
      </trkpt>
      <trkpt lat="45.14528" lon="5.90229">
        <ele>1189.2</ele>
        <time>2020-08-11T11:52:15Z</time>
      </trkpt>
      <trkpt lat="45.14529" lon="5.90227">
        <ele>1188.6</ele>
        <time>2020-08-11T11:52:16Z</time>
      </trkpt>
      <trkpt lat="45.1453" lon="5.90225">
        <ele>1188.4</ele>
        <time>2020-08-11T11:52:17Z</time>
      </trkpt>
      <trkpt lat="45.14531" lon="5.90223">
        <ele>1188.4</ele>
        <time>2020-08-11T11:52:18Z</time>
      </trkpt>
      <trkpt lat="45.14532" lon="5.90222">
        <ele>1188.4</ele>
        <time>2020-08-11T11:52:19Z</time>
      </trkpt>
      <trkpt lat="45.14533" lon="5.9022">
        <ele>1188.2</ele>
        <time>2020-08-11T11:52:20Z</time>
      </trkpt>
      <trkpt lat="45.14534" lon="5.90219">
        <ele>1187.4</ele>
        <time>2020-08-11T11:52:21Z</time>
      </trkpt>
      <trkpt lat="45.14534" lon="5.90217">
        <ele>1187.2</ele>
        <time>2020-08-11T11:52:22Z</time>
      </trkpt>
      <trkpt lat="45.14535" lon="5.90216">
        <ele>1187</ele>
        <time>2020-08-11T11:52:23Z</time>
      </trkpt>
      <trkpt lat="45.14536" lon="5.90214">
        <ele>1186.4</ele>
        <time>2020-08-11T11:52:24Z</time>
      </trkpt>
      <trkpt lat="45.14537" lon="5.90213">
        <ele>1186</ele>
        <time>2020-08-11T11:52:25Z</time>
      </trkpt>
      <trkpt lat="45.14538" lon="5.90211">
        <ele>1185.4</ele>
        <time>2020-08-11T11:52:26Z</time>
      </trkpt>
      <trkpt lat="45.14539" lon="5.9021">
        <ele>1184.8</ele>
        <time>2020-08-11T11:52:27Z</time>
      </trkpt>
      <trkpt lat="45.14539" lon="5.90208">
        <ele>1184</ele>
        <time>2020-08-11T11:52:28Z</time>
      </trkpt>
      <trkpt lat="45.1454" lon="5.90206">
        <ele>1183.4</ele>
        <time>2020-08-11T11:52:29Z</time>
      </trkpt>
      <trkpt lat="45.14541" lon="5.90204">
        <ele>1182.8</ele>
        <time>2020-08-11T11:52:30Z</time>
      </trkpt>
      <trkpt lat="45.14542" lon="5.90202">
        <ele>1183.2</ele>
        <time>2020-08-11T11:52:31Z</time>
      </trkpt>
      <trkpt lat="45.14543" lon="5.90201">
        <ele>1183</ele>
        <time>2020-08-11T11:52:32Z</time>
      </trkpt>
      <trkpt lat="45.14543" lon="5.90199">
        <ele>1182.8</ele>
        <time>2020-08-11T11:52:33Z</time>
      </trkpt>
      <trkpt lat="45.14543" lon="5.90197">
        <ele>1182.4</ele>
        <time>2020-08-11T11:52:34Z</time>
      </trkpt>
      <trkpt lat="45.14543" lon="5.90195">
        <ele>1182</ele>
        <time>2020-08-11T11:52:35Z</time>
      </trkpt>
      <trkpt lat="45.14543" lon="5.90193">
        <ele>1181.8</ele>
        <time>2020-08-11T11:52:36Z</time>
      </trkpt>
      <trkpt lat="45.14543" lon="5.90192">
        <ele>1181.2</ele>
        <time>2020-08-11T11:52:37Z</time>
      </trkpt>
      <trkpt lat="45.14542" lon="5.9019">
        <ele>1181</ele>
        <time>2020-08-11T11:52:38Z</time>
      </trkpt>
      <trkpt lat="45.14542" lon="5.90188">
        <ele>1180.4</ele>
        <time>2020-08-11T11:52:39Z</time>
      </trkpt>
      <trkpt lat="45.14543" lon="5.90186">
        <ele>1180.2</ele>
        <time>2020-08-11T11:52:40Z</time>
      </trkpt>
      <trkpt lat="45.14544" lon="5.90185">
        <ele>1180.2</ele>
        <time>2020-08-11T11:52:41Z</time>
      </trkpt>
      <trkpt lat="45.14545" lon="5.90184">
        <ele>1180.4</ele>
        <time>2020-08-11T11:52:42Z</time>
      </trkpt>
      <trkpt lat="45.14545" lon="5.90182">
        <ele>1180</ele>
        <time>2020-08-11T11:52:43Z</time>
      </trkpt>
      <trkpt lat="45.14546" lon="5.90181">
        <ele>1179.8</ele>
        <time>2020-08-11T11:52:44Z</time>
      </trkpt>
      <trkpt lat="45.14547" lon="5.90179">
        <ele>1179.4</ele>
        <time>2020-08-11T11:52:45Z</time>
      </trkpt>
      <trkpt lat="45.14548" lon="5.90178">
        <ele>1179.2</ele>
        <time>2020-08-11T11:52:46Z</time>
      </trkpt>
      <trkpt lat="45.14548" lon="5.90176">
        <ele>1179.2</ele>
        <time>2020-08-11T11:52:47Z</time>
      </trkpt>
      <trkpt lat="45.14549" lon="5.90175">
        <ele>1179.2</ele>
        <time>2020-08-11T11:52:48Z</time>
      </trkpt>
      <trkpt lat="45.14549" lon="5.90174">
        <ele>1179.6</ele>
        <time>2020-08-11T11:52:49Z</time>
      </trkpt>
      <trkpt lat="45.14549" lon="5.90173">
        <ele>1179.8</ele>
        <time>2020-08-11T11:52:50Z</time>
      </trkpt>
      <trkpt lat="45.14549" lon="5.90172">
        <ele>1180</ele>
        <time>2020-08-11T11:52:51Z</time>
      </trkpt>
      <trkpt lat="45.1455" lon="5.90171">
        <ele>1180.4</ele>
        <time>2020-08-11T11:52:52Z</time>
      </trkpt>
      <trkpt lat="45.1455" lon="5.9017">
        <ele>1180.6</ele>
        <time>2020-08-11T11:52:53Z</time>
      </trkpt>
      <trkpt lat="45.1455" lon="5.90169">
        <ele>1180.6</ele>
        <time>2020-08-11T11:52:54Z</time>
      </trkpt>
      <trkpt lat="45.1455" lon="5.90168">
        <ele>1181</ele>
        <time>2020-08-11T11:52:55Z</time>
      </trkpt>
      <trkpt lat="45.1455" lon="5.90167">
        <ele>1181</ele>
        <time>2020-08-11T11:52:56Z</time>
      </trkpt>
      <trkpt lat="45.14551" lon="5.90166">
        <ele>1181</ele>
        <time>2020-08-11T11:52:57Z</time>
      </trkpt>
      <trkpt lat="45.14551" lon="5.90165">
        <ele>1180.8</ele>
        <time>2020-08-11T11:52:58Z</time>
      </trkpt>
      <trkpt lat="45.14551" lon="5.90164">
        <ele>1180.8</ele>
        <time>2020-08-11T11:52:59Z</time>
      </trkpt>
      <trkpt lat="45.14551" lon="5.90163">
        <ele>1180.6</ele>
        <time>2020-08-11T11:53:00Z</time>
      </trkpt>
      <trkpt lat="45.14553" lon="5.9016">
        <ele>1180.8</ele>
        <time>2020-08-11T11:53:01Z</time>
      </trkpt>
      <trkpt lat="45.14554" lon="5.90157">
        <ele>1180.2</ele>
        <time>2020-08-11T11:53:02Z</time>
      </trkpt>
      <trkpt lat="45.14555" lon="5.90155">
        <ele>1179.4</ele>
        <time>2020-08-11T11:53:03Z</time>
      </trkpt>
      <trkpt lat="45.14556" lon="5.90152">
        <ele>1179.8</ele>
        <time>2020-08-11T11:53:04Z</time>
      </trkpt>
      <trkpt lat="45.14557" lon="5.9015">
        <ele>1179</ele>
        <time>2020-08-11T11:53:05Z</time>
      </trkpt>
      <trkpt lat="45.14559" lon="5.90147">
        <ele>1178.6</ele>
        <time>2020-08-11T11:53:06Z</time>
      </trkpt>
      <trkpt lat="45.14561" lon="5.90144">
        <ele>1178.8</ele>
        <time>2020-08-11T11:53:07Z</time>
      </trkpt>
      <trkpt lat="45.14563" lon="5.90141">
        <ele>1178.4</ele>
        <time>2020-08-11T11:53:08Z</time>
      </trkpt>
      <trkpt lat="45.14565" lon="5.90138">
        <ele>1178.2</ele>
        <time>2020-08-11T11:53:09Z</time>
      </trkpt>
      <trkpt lat="45.14567" lon="5.90135">
        <ele>1177.8</ele>
        <time>2020-08-11T11:53:10Z</time>
      </trkpt>
      <trkpt lat="45.14569" lon="5.90132">
        <ele>1178</ele>
        <time>2020-08-11T11:53:11Z</time>
      </trkpt>
      <trkpt lat="45.1457" lon="5.90128">
        <ele>1178</ele>
        <time>2020-08-11T11:53:12Z</time>
      </trkpt>
      <trkpt lat="45.14572" lon="5.90125">
        <ele>1178</ele>
        <time>2020-08-11T11:53:13Z</time>
      </trkpt>
      <trkpt lat="45.14574" lon="5.90122">
        <ele>1177.4</ele>
        <time>2020-08-11T11:53:14Z</time>
      </trkpt>
      <trkpt lat="45.14576" lon="5.90119">
        <ele>1177.4</ele>
        <time>2020-08-11T11:53:15Z</time>
      </trkpt>
      <trkpt lat="45.14577" lon="5.90116">
        <ele>1176.6</ele>
        <time>2020-08-11T11:53:16Z</time>
      </trkpt>
      <trkpt lat="45.14579" lon="5.90113">
        <ele>1175.8</ele>
        <time>2020-08-11T11:53:17Z</time>
      </trkpt>
      <trkpt lat="45.14581" lon="5.9011">
        <ele>1175.6</ele>
        <time>2020-08-11T11:53:18Z</time>
      </trkpt>
      <trkpt lat="45.14582" lon="5.90107">
        <ele>1175.4</ele>
        <time>2020-08-11T11:53:19Z</time>
      </trkpt>
      <trkpt lat="45.14584" lon="5.90104">
        <ele>1175.2</ele>
        <time>2020-08-11T11:53:20Z</time>
      </trkpt>
      <trkpt lat="45.14585" lon="5.901">
        <ele>1174.2</ele>
        <time>2020-08-11T11:53:21Z</time>
      </trkpt>
      <trkpt lat="45.14587" lon="5.90098">
        <ele>1174.4</ele>
        <time>2020-08-11T11:53:22Z</time>
      </trkpt>
      <trkpt lat="45.14589" lon="5.90096">
        <ele>1175</ele>
        <time>2020-08-11T11:53:23Z</time>
      </trkpt>
      <trkpt lat="45.14591" lon="5.90094">
        <ele>1174.8</ele>
        <time>2020-08-11T11:53:24Z</time>
      </trkpt>
      <trkpt lat="45.14592" lon="5.90092">
        <ele>1174.6</ele>
        <time>2020-08-11T11:53:25Z</time>
      </trkpt>
      <trkpt lat="45.14594" lon="5.90087">
        <ele>1174.6</ele>
        <time>2020-08-11T11:53:26Z</time>
      </trkpt>
      <trkpt lat="45.14595" lon="5.90082">
        <ele>1174.4</ele>
        <time>2020-08-11T11:53:27Z</time>
      </trkpt>
      <trkpt lat="45.14596" lon="5.90078">
        <ele>1174.8</ele>
        <time>2020-08-11T11:53:28Z</time>
      </trkpt>
      <trkpt lat="45.14597" lon="5.90075">
        <ele>1174.6</ele>
        <time>2020-08-11T11:53:29Z</time>
      </trkpt>
      <trkpt lat="45.14599" lon="5.90071">
        <ele>1174.6</ele>
        <time>2020-08-11T11:53:30Z</time>
      </trkpt>
      <trkpt lat="45.146" lon="5.90068">
        <ele>1174</ele>
        <time>2020-08-11T11:53:31Z</time>
      </trkpt>
      <trkpt lat="45.14602" lon="5.90065">
        <ele>1174</ele>
        <time>2020-08-11T11:53:32Z</time>
      </trkpt>
      <trkpt lat="45.14603" lon="5.90061">
        <ele>1173.2</ele>
        <time>2020-08-11T11:53:33Z</time>
      </trkpt>
      <trkpt lat="45.14605" lon="5.90056">
        <ele>1173.2</ele>
        <time>2020-08-11T11:53:34Z</time>
      </trkpt>
      <trkpt lat="45.14607" lon="5.90052">
        <ele>1172.8</ele>
        <time>2020-08-11T11:53:35Z</time>
      </trkpt>
      <trkpt lat="45.14608" lon="5.90049">
        <ele>1173</ele>
        <time>2020-08-11T11:53:36Z</time>
      </trkpt>
      <trkpt lat="45.14609" lon="5.90046">
        <ele>1172.6</ele>
        <time>2020-08-11T11:53:37Z</time>
      </trkpt>
      <trkpt lat="45.1461" lon="5.90042">
        <ele>1172.6</ele>
        <time>2020-08-11T11:53:38Z</time>
      </trkpt>
      <trkpt lat="45.14612" lon="5.90039">
        <ele>1172.4</ele>
        <time>2020-08-11T11:53:39Z</time>
      </trkpt>
      <trkpt lat="45.14613" lon="5.90037">
        <ele>1172.4</ele>
        <time>2020-08-11T11:53:40Z</time>
      </trkpt>
      <trkpt lat="45.14614" lon="5.90035">
        <ele>1171.8</ele>
        <time>2020-08-11T11:53:41Z</time>
      </trkpt>
      <trkpt lat="45.14615" lon="5.90033">
        <ele>1171.4</ele>
        <time>2020-08-11T11:53:42Z</time>
      </trkpt>
      <trkpt lat="45.14616" lon="5.90032">
        <ele>1170.8</ele>
        <time>2020-08-11T11:53:43Z</time>
      </trkpt>
      <trkpt lat="45.14617" lon="5.9003">
        <ele>1170.2</ele>
        <time>2020-08-11T11:53:44Z</time>
      </trkpt>
      <trkpt lat="45.14618" lon="5.90028">
        <ele>1170.4</ele>
        <time>2020-08-11T11:53:45Z</time>
      </trkpt>
      <trkpt lat="45.14621" lon="5.90026">
        <ele>1170</ele>
        <time>2020-08-11T11:53:46Z</time>
      </trkpt>
      <trkpt lat="45.14623" lon="5.90023">
        <ele>1170</ele>
        <time>2020-08-11T11:53:47Z</time>
      </trkpt>
      <trkpt lat="45.14626" lon="5.90021">
        <ele>1169.4</ele>
        <time>2020-08-11T11:53:48Z</time>
      </trkpt>
      <trkpt lat="45.14628" lon="5.90018">
        <ele>1169</ele>
        <time>2020-08-11T11:53:49Z</time>
      </trkpt>
      <trkpt lat="45.14631" lon="5.90014">
        <ele>1168.6</ele>
        <time>2020-08-11T11:53:50Z</time>
      </trkpt>
      <trkpt lat="45.14634" lon="5.90011">
        <ele>1168</ele>
        <time>2020-08-11T11:53:51Z</time>
      </trkpt>
      <trkpt lat="45.14637" lon="5.90008">
        <ele>1168</ele>
        <time>2020-08-11T11:53:52Z</time>
      </trkpt>
      <trkpt lat="45.14639" lon="5.90005">
        <ele>1167.6</ele>
        <time>2020-08-11T11:53:53Z</time>
      </trkpt>
      <trkpt lat="45.14642" lon="5.90001">
        <ele>1167.4</ele>
        <time>2020-08-11T11:53:54Z</time>
      </trkpt>
      <trkpt lat="45.14643" lon="5.89998">
        <ele>1166.6</ele>
        <time>2020-08-11T11:53:55Z</time>
      </trkpt>
      <trkpt lat="45.14644" lon="5.89995">
        <ele>1166.4</ele>
        <time>2020-08-11T11:53:56Z</time>
      </trkpt>
      <trkpt lat="45.14645" lon="5.89991">
        <ele>1165.6</ele>
        <time>2020-08-11T11:53:57Z</time>
      </trkpt>
      <trkpt lat="45.14646" lon="5.89988">
        <ele>1165</ele>
        <time>2020-08-11T11:53:58Z</time>
      </trkpt>
      <trkpt lat="45.14646" lon="5.89985">
        <ele>1164.6</ele>
        <time>2020-08-11T11:53:59Z</time>
      </trkpt>
      <trkpt lat="45.14647" lon="5.89982">
        <ele>1164.4</ele>
        <time>2020-08-11T11:54:00Z</time>
      </trkpt>
      <trkpt lat="45.14648" lon="5.89979">
        <ele>1164.4</ele>
        <time>2020-08-11T11:54:01Z</time>
      </trkpt>
      <trkpt lat="45.14648" lon="5.89976">
        <ele>1164.2</ele>
        <time>2020-08-11T11:54:02Z</time>
      </trkpt>
      <trkpt lat="45.14649" lon="5.89972">
        <ele>1164.2</ele>
        <time>2020-08-11T11:54:03Z</time>
      </trkpt>
      <trkpt lat="45.1465" lon="5.89969">
        <ele>1163.6</ele>
        <time>2020-08-11T11:54:04Z</time>
      </trkpt>
      <trkpt lat="45.1465" lon="5.89966">
        <ele>1163.2</ele>
        <time>2020-08-11T11:54:05Z</time>
      </trkpt>
      <trkpt lat="45.14651" lon="5.89963">
        <ele>1162.6</ele>
        <time>2020-08-11T11:54:06Z</time>
      </trkpt>
      <trkpt lat="45.14652" lon="5.8996">
        <ele>1161.2</ele>
        <time>2020-08-11T11:54:07Z</time>
      </trkpt>
      <trkpt lat="45.14653" lon="5.89956">
        <ele>1161.6</ele>
        <time>2020-08-11T11:54:08Z</time>
      </trkpt>
      <trkpt lat="45.14654" lon="5.89953">
        <ele>1161.4</ele>
        <time>2020-08-11T11:54:09Z</time>
      </trkpt>
      <trkpt lat="45.14656" lon="5.8995">
        <ele>1161.4</ele>
        <time>2020-08-11T11:54:10Z</time>
      </trkpt>
      <trkpt lat="45.14657" lon="5.89947">
        <ele>1161.2</ele>
        <time>2020-08-11T11:54:11Z</time>
      </trkpt>
      <trkpt lat="45.14658" lon="5.89944">
        <ele>1161.2</ele>
        <time>2020-08-11T11:54:12Z</time>
      </trkpt>
      <trkpt lat="45.1466" lon="5.89941">
        <ele>1160.6</ele>
        <time>2020-08-11T11:54:13Z</time>
      </trkpt>
      <trkpt lat="45.14661" lon="5.89938">
        <ele>1160.6</ele>
        <time>2020-08-11T11:54:14Z</time>
      </trkpt>
      <trkpt lat="45.14663" lon="5.89935">
        <ele>1160.6</ele>
        <time>2020-08-11T11:54:15Z</time>
      </trkpt>
      <trkpt lat="45.14666" lon="5.89932">
        <ele>1160.8</ele>
        <time>2020-08-11T11:54:16Z</time>
      </trkpt>
      <trkpt lat="45.14668" lon="5.89928">
        <ele>1160</ele>
        <time>2020-08-11T11:54:17Z</time>
      </trkpt>
      <trkpt lat="45.14671" lon="5.89924">
        <ele>1159.8</ele>
        <time>2020-08-11T11:54:18Z</time>
      </trkpt>
      <trkpt lat="45.14674" lon="5.8992">
        <ele>1159</ele>
        <time>2020-08-11T11:54:19Z</time>
      </trkpt>
      <trkpt lat="45.14677" lon="5.89916">
        <ele>1158.6</ele>
        <time>2020-08-11T11:54:20Z</time>
      </trkpt>
      <trkpt lat="45.1468" lon="5.89912">
        <ele>1158</ele>
        <time>2020-08-11T11:54:21Z</time>
      </trkpt>
      <trkpt lat="45.14682" lon="5.89909">
        <ele>1157.6</ele>
        <time>2020-08-11T11:54:22Z</time>
      </trkpt>
      <trkpt lat="45.14685" lon="5.89905">
        <ele>1157</ele>
        <time>2020-08-11T11:54:23Z</time>
      </trkpt>
      <trkpt lat="45.14686" lon="5.89902">
        <ele>1156.4</ele>
        <time>2020-08-11T11:54:24Z</time>
      </trkpt>
      <trkpt lat="45.14687" lon="5.89898">
        <ele>1156</ele>
        <time>2020-08-11T11:54:25Z</time>
      </trkpt>
      <trkpt lat="45.14689" lon="5.89894">
        <ele>1155.4</ele>
        <time>2020-08-11T11:54:26Z</time>
      </trkpt>
      <trkpt lat="45.1469" lon="5.89891">
        <ele>1154.8</ele>
        <time>2020-08-11T11:54:27Z</time>
      </trkpt>
      <trkpt lat="45.14692" lon="5.89885">
        <ele>1154</ele>
        <time>2020-08-11T11:54:28Z</time>
      </trkpt>
      <trkpt lat="45.14693" lon="5.8988">
        <ele>1153.8</ele>
        <time>2020-08-11T11:54:29Z</time>
      </trkpt>
      <trkpt lat="45.14694" lon="5.89875">
        <ele>1153.6</ele>
        <time>2020-08-11T11:54:30Z</time>
      </trkpt>
      <trkpt lat="45.14696" lon="5.89871">
        <ele>1153.2</ele>
        <time>2020-08-11T11:54:31Z</time>
      </trkpt>
      <trkpt lat="45.14697" lon="5.89866">
        <ele>1153.6</ele>
        <time>2020-08-11T11:54:32Z</time>
      </trkpt>
      <trkpt lat="45.14698" lon="5.89862">
        <ele>1153.4</ele>
        <time>2020-08-11T11:54:33Z</time>
      </trkpt>
      <trkpt lat="45.147" lon="5.89859">
        <ele>1153.2</ele>
        <time>2020-08-11T11:54:34Z</time>
      </trkpt>
      <trkpt lat="45.14701" lon="5.89855">
        <ele>1152.8</ele>
        <time>2020-08-11T11:54:35Z</time>
      </trkpt>
      <trkpt lat="45.14702" lon="5.89852">
        <ele>1152.8</ele>
        <time>2020-08-11T11:54:36Z</time>
      </trkpt>
      <trkpt lat="45.14703" lon="5.89848">
        <ele>1152.4</ele>
        <time>2020-08-11T11:54:37Z</time>
      </trkpt>
      <trkpt lat="45.14706" lon="5.89844">
        <ele>1152.2</ele>
        <time>2020-08-11T11:54:38Z</time>
      </trkpt>
      <trkpt lat="45.14708" lon="5.89841">
        <ele>1151.6</ele>
        <time>2020-08-11T11:54:39Z</time>
      </trkpt>
      <trkpt lat="45.14711" lon="5.89837">
        <ele>1151.4</ele>
        <time>2020-08-11T11:54:40Z</time>
      </trkpt>
      <trkpt lat="45.14713" lon="5.89833">
        <ele>1151</ele>
        <time>2020-08-11T11:54:41Z</time>
      </trkpt>
      <trkpt lat="45.14715" lon="5.8983">
        <ele>1150.6</ele>
        <time>2020-08-11T11:54:42Z</time>
      </trkpt>
      <trkpt lat="45.14717" lon="5.89826">
        <ele>1150.6</ele>
        <time>2020-08-11T11:54:43Z</time>
      </trkpt>
      <trkpt lat="45.1472" lon="5.89824">
        <ele>1149.8</ele>
        <time>2020-08-11T11:54:44Z</time>
      </trkpt>
      <trkpt lat="45.14722" lon="5.89821">
        <ele>1150</ele>
        <time>2020-08-11T11:54:45Z</time>
      </trkpt>
      <trkpt lat="45.14724" lon="5.89818">
        <ele>1149.4</ele>
        <time>2020-08-11T11:54:46Z</time>
      </trkpt>
      <trkpt lat="45.14726" lon="5.89816">
        <ele>1149.6</ele>
        <time>2020-08-11T11:54:47Z</time>
      </trkpt>
      <trkpt lat="45.14728" lon="5.89814">
        <ele>1149.2</ele>
        <time>2020-08-11T11:54:48Z</time>
      </trkpt>
      <trkpt lat="45.1473" lon="5.89811">
        <ele>1149.6</ele>
        <time>2020-08-11T11:54:49Z</time>
      </trkpt>
      <trkpt lat="45.14732" lon="5.89809">
        <ele>1149.2</ele>
        <time>2020-08-11T11:54:50Z</time>
      </trkpt>
      <trkpt lat="45.14733" lon="5.89807">
        <ele>1149.4</ele>
        <time>2020-08-11T11:54:51Z</time>
      </trkpt>
      <trkpt lat="45.14735" lon="5.89805">
        <ele>1149</ele>
        <time>2020-08-11T11:54:52Z</time>
      </trkpt>
      <trkpt lat="45.14737" lon="5.89803">
        <ele>1149</ele>
        <time>2020-08-11T11:54:53Z</time>
      </trkpt>
      <trkpt lat="45.14739" lon="5.89801">
        <ele>1148.4</ele>
        <time>2020-08-11T11:54:54Z</time>
      </trkpt>
      <trkpt lat="45.14741" lon="5.89799">
        <ele>1148.4</ele>
        <time>2020-08-11T11:54:55Z</time>
      </trkpt>
      <trkpt lat="45.14742" lon="5.89797">
        <ele>1147.6</ele>
        <time>2020-08-11T11:54:56Z</time>
      </trkpt>
      <trkpt lat="45.14743" lon="5.89794">
        <ele>1147.4</ele>
        <time>2020-08-11T11:54:57Z</time>
      </trkpt>
      <trkpt lat="45.14745" lon="5.89792">
        <ele>1146.6</ele>
        <time>2020-08-11T11:54:58Z</time>
      </trkpt>
      <trkpt lat="45.14746" lon="5.8979">
        <ele>1146.4</ele>
        <time>2020-08-11T11:54:59Z</time>
      </trkpt>
      <trkpt lat="45.14747" lon="5.89787">
        <ele>1145.6</ele>
        <time>2020-08-11T11:55:00Z</time>
      </trkpt>
      <trkpt lat="45.14748" lon="5.89785">
        <ele>1145.2</ele>
        <time>2020-08-11T11:55:01Z</time>
      </trkpt>
      <trkpt lat="45.14749" lon="5.89782">
        <ele>1144.8</ele>
        <time>2020-08-11T11:55:02Z</time>
      </trkpt>
      <trkpt lat="45.1475" lon="5.89779">
        <ele>1144</ele>
        <time>2020-08-11T11:55:03Z</time>
      </trkpt>
      <trkpt lat="45.14751" lon="5.89777">
        <ele>1143.6</ele>
        <time>2020-08-11T11:55:04Z</time>
      </trkpt>
      <trkpt lat="45.14753" lon="5.89773">
        <ele>1143.2</ele>
        <time>2020-08-11T11:55:05Z</time>
      </trkpt>
      <trkpt lat="45.14755" lon="5.8977">
        <ele>1143.4</ele>
        <time>2020-08-11T11:55:06Z</time>
      </trkpt>
      <trkpt lat="45.14756" lon="5.89766">
        <ele>1143.2</ele>
        <time>2020-08-11T11:55:07Z</time>
      </trkpt>
      <trkpt lat="45.14758" lon="5.89764">
        <ele>1143.4</ele>
        <time>2020-08-11T11:55:08Z</time>
      </trkpt>
      <trkpt lat="45.14759" lon="5.89761">
        <ele>1142.2</ele>
        <time>2020-08-11T11:55:09Z</time>
      </trkpt>
      <trkpt lat="45.14761" lon="5.89759">
        <ele>1141.4</ele>
        <time>2020-08-11T11:55:10Z</time>
      </trkpt>
      <trkpt lat="45.14762" lon="5.89756">
        <ele>1140.6</ele>
        <time>2020-08-11T11:55:11Z</time>
      </trkpt>
      <trkpt lat="45.14764" lon="5.89753">
        <ele>1141</ele>
        <time>2020-08-11T11:55:12Z</time>
      </trkpt>
      <trkpt lat="45.14767" lon="5.8975">
        <ele>1140.6</ele>
        <time>2020-08-11T11:55:13Z</time>
      </trkpt>
      <trkpt lat="45.14769" lon="5.89747">
        <ele>1140.4</ele>
        <time>2020-08-11T11:55:14Z</time>
      </trkpt>
      <trkpt lat="45.14771" lon="5.89744">
        <ele>1140.6</ele>
        <time>2020-08-11T11:55:15Z</time>
      </trkpt>
      <trkpt lat="45.14772" lon="5.89744">
        <ele>1140.4</ele>
        <time>2020-08-11T11:55:16Z</time>
      </trkpt>
      <trkpt lat="45.14774" lon="5.89744">
        <ele>1140.4</ele>
        <time>2020-08-11T11:55:17Z</time>
      </trkpt>
      <trkpt lat="45.14776" lon="5.89743">
        <ele>1140.2</ele>
        <time>2020-08-11T11:55:18Z</time>
      </trkpt>
      <trkpt lat="45.14778" lon="5.89743">
        <ele>1139.6</ele>
        <time>2020-08-11T11:55:19Z</time>
      </trkpt>
      <trkpt lat="45.1478" lon="5.89743">
        <ele>1139.2</ele>
        <time>2020-08-11T11:55:20Z</time>
      </trkpt>
      <trkpt lat="45.14782" lon="5.89741">
        <ele>1138.4</ele>
        <time>2020-08-11T11:55:21Z</time>
      </trkpt>
      <trkpt lat="45.14784" lon="5.8974">
        <ele>1137.8</ele>
        <time>2020-08-11T11:55:22Z</time>
      </trkpt>
      <trkpt lat="45.14787" lon="5.89739">
        <ele>1137.4</ele>
        <time>2020-08-11T11:55:23Z</time>
      </trkpt>
      <trkpt lat="45.14789" lon="5.89738">
        <ele>1136.8</ele>
        <time>2020-08-11T11:55:24Z</time>
      </trkpt>
      <trkpt lat="45.14791" lon="5.89736">
        <ele>1136</ele>
        <time>2020-08-11T11:55:25Z</time>
      </trkpt>
      <trkpt lat="45.14794" lon="5.89735">
        <ele>1135.4</ele>
        <time>2020-08-11T11:55:26Z</time>
      </trkpt>
      <trkpt lat="45.14796" lon="5.89734">
        <ele>1134.8</ele>
        <time>2020-08-11T11:55:27Z</time>
      </trkpt>
      <trkpt lat="45.14799" lon="5.89728">
        <ele>1135</ele>
        <time>2020-08-11T11:55:28Z</time>
      </trkpt>
      <trkpt lat="45.14799" lon="5.89728">
        <ele>1134.4</ele>
        <time>2020-08-11T11:55:29Z</time>
      </trkpt>
      <trkpt lat="45.14801" lon="5.89725">
        <ele>1133.8</ele>
        <time>2020-08-11T11:55:30Z</time>
      </trkpt>
      <trkpt lat="45.14803" lon="5.89721">
        <ele>1134.2</ele>
        <time>2020-08-11T11:55:31Z</time>
      </trkpt>
      <trkpt lat="45.14806" lon="5.89718">
        <ele>1133.8</ele>
        <time>2020-08-11T11:55:32Z</time>
      </trkpt>
      <trkpt lat="45.14808" lon="5.89716">
        <ele>1134</ele>
        <time>2020-08-11T11:55:33Z</time>
      </trkpt>
      <trkpt lat="45.1481" lon="5.89713">
        <ele>1133.6</ele>
        <time>2020-08-11T11:55:34Z</time>
      </trkpt>
      <trkpt lat="45.14813" lon="5.89711">
        <ele>1133.4</ele>
        <time>2020-08-11T11:55:35Z</time>
      </trkpt>
      <trkpt lat="45.14815" lon="5.89709">
        <ele>1132.8</ele>
        <time>2020-08-11T11:55:36Z</time>
      </trkpt>
      <trkpt lat="45.14818" lon="5.89706">
        <ele>1133</ele>
        <time>2020-08-11T11:55:37Z</time>
      </trkpt>
      <trkpt lat="45.1482" lon="5.89704">
        <ele>1132.2</ele>
        <time>2020-08-11T11:55:38Z</time>
      </trkpt>
      <trkpt lat="45.14821" lon="5.89702">
        <ele>1132.2</ele>
        <time>2020-08-11T11:55:39Z</time>
      </trkpt>
      <trkpt lat="45.14823" lon="5.897">
        <ele>1131.6</ele>
        <time>2020-08-11T11:55:40Z</time>
      </trkpt>
      <trkpt lat="45.14825" lon="5.89698">
        <ele>1131.2</ele>
        <time>2020-08-11T11:55:41Z</time>
      </trkpt>
      <trkpt lat="45.14828" lon="5.89695">
        <ele>1130.4</ele>
        <time>2020-08-11T11:55:42Z</time>
      </trkpt>
      <trkpt lat="45.1483" lon="5.89693">
        <ele>1130</ele>
        <time>2020-08-11T11:55:43Z</time>
      </trkpt>
      <trkpt lat="45.14832" lon="5.8969">
        <ele>1129.6</ele>
        <time>2020-08-11T11:55:44Z</time>
      </trkpt>
      <trkpt lat="45.14834" lon="5.89688">
        <ele>1129</ele>
        <time>2020-08-11T11:55:45Z</time>
      </trkpt>
      <trkpt lat="45.14837" lon="5.89685">
        <ele>1129.2</ele>
        <time>2020-08-11T11:55:46Z</time>
      </trkpt>
      <trkpt lat="45.14839" lon="5.89683">
        <ele>1128.6</ele>
        <time>2020-08-11T11:55:47Z</time>
      </trkpt>
      <trkpt lat="45.14842" lon="5.8968">
        <ele>1128.6</ele>
        <time>2020-08-11T11:55:48Z</time>
      </trkpt>
      <trkpt lat="45.14843" lon="5.89677">
        <ele>1128</ele>
        <time>2020-08-11T11:55:49Z</time>
      </trkpt>
      <trkpt lat="45.14845" lon="5.89674">
        <ele>1127.6</ele>
        <time>2020-08-11T11:55:50Z</time>
      </trkpt>
      <trkpt lat="45.14847" lon="5.8967">
        <ele>1127.8</ele>
        <time>2020-08-11T11:55:51Z</time>
      </trkpt>
      <trkpt lat="45.14848" lon="5.89667">
        <ele>1126.6</ele>
        <time>2020-08-11T11:55:52Z</time>
      </trkpt>
      <trkpt lat="45.14851" lon="5.89665">
        <ele>1125.8</ele>
        <time>2020-08-11T11:55:53Z</time>
      </trkpt>
      <trkpt lat="45.14853" lon="5.89662">
        <ele>1125.6</ele>
        <time>2020-08-11T11:55:54Z</time>
      </trkpt>
      <trkpt lat="45.14855" lon="5.89659">
        <ele>1125</ele>
        <time>2020-08-11T11:55:55Z</time>
      </trkpt>
      <trkpt lat="45.14857" lon="5.89657">
        <ele>1124</ele>
        <time>2020-08-11T11:55:56Z</time>
      </trkpt>
      <trkpt lat="45.14859" lon="5.89654">
        <ele>1123.8</ele>
        <time>2020-08-11T11:55:57Z</time>
      </trkpt>
      <trkpt lat="45.1486" lon="5.89652">
        <ele>1123</ele>
        <time>2020-08-11T11:55:58Z</time>
      </trkpt>
      <trkpt lat="45.14862" lon="5.8965">
        <ele>1122.6</ele>
        <time>2020-08-11T11:55:59Z</time>
      </trkpt>
      <trkpt lat="45.14864" lon="5.89647">
        <ele>1122.6</ele>
        <time>2020-08-11T11:56:00Z</time>
      </trkpt>
      <trkpt lat="45.14867" lon="5.89646">
        <ele>1123</ele>
        <time>2020-08-11T11:56:01Z</time>
      </trkpt>
      <trkpt lat="45.1487" lon="5.89645">
        <ele>1123</ele>
        <time>2020-08-11T11:56:02Z</time>
      </trkpt>
      <trkpt lat="45.14873" lon="5.89644">
        <ele>1123.4</ele>
        <time>2020-08-11T11:56:03Z</time>
      </trkpt>
      <trkpt lat="45.14876" lon="5.89642">
        <ele>1123</ele>
        <time>2020-08-11T11:56:04Z</time>
      </trkpt>
      <trkpt lat="45.14879" lon="5.89641">
        <ele>1123</ele>
        <time>2020-08-11T11:56:05Z</time>
      </trkpt>
      <trkpt lat="45.14882" lon="5.89639">
        <ele>1122.2</ele>
        <time>2020-08-11T11:56:06Z</time>
      </trkpt>
      <trkpt lat="45.14885" lon="5.89637">
        <ele>1122</ele>
        <time>2020-08-11T11:56:07Z</time>
      </trkpt>
      <trkpt lat="45.14887" lon="5.89636">
        <ele>1121.6</ele>
        <time>2020-08-11T11:56:08Z</time>
      </trkpt>
      <trkpt lat="45.14889" lon="5.89633">
        <ele>1121.6</ele>
        <time>2020-08-11T11:56:09Z</time>
      </trkpt>
      <trkpt lat="45.14891" lon="5.89629">
        <ele>1121.2</ele>
        <time>2020-08-11T11:56:10Z</time>
      </trkpt>
      <trkpt lat="45.14893" lon="5.89626">
        <ele>1121.2</ele>
        <time>2020-08-11T11:56:11Z</time>
      </trkpt>
      <trkpt lat="45.14895" lon="5.89623">
        <ele>1120.6</ele>
        <time>2020-08-11T11:56:12Z</time>
      </trkpt>
      <trkpt lat="45.14898" lon="5.89618">
        <ele>1120.8</ele>
        <time>2020-08-11T11:56:13Z</time>
      </trkpt>
      <trkpt lat="45.14902" lon="5.89613">
        <ele>1120.6</ele>
        <time>2020-08-11T11:56:14Z</time>
      </trkpt>
      <trkpt lat="45.14906" lon="5.89607">
        <ele>1120.8</ele>
        <time>2020-08-11T11:56:15Z</time>
      </trkpt>
      <trkpt lat="45.1491" lon="5.89604">
        <ele>1120.4</ele>
        <time>2020-08-11T11:56:16Z</time>
      </trkpt>
      <trkpt lat="45.1491" lon="5.89604">
        <ele>1120.2</ele>
        <time>2020-08-11T11:56:17Z</time>
      </trkpt>
      <trkpt lat="45.1491" lon="5.89604">
        <ele>1119.6</ele>
        <time>2020-08-11T11:56:18Z</time>
      </trkpt>
      <trkpt lat="45.14913" lon="5.896">
        <ele>1119.2</ele>
        <time>2020-08-11T11:56:19Z</time>
      </trkpt>
      <trkpt lat="45.14915" lon="5.89597">
        <ele>1118.8</ele>
        <time>2020-08-11T11:56:20Z</time>
      </trkpt>
      <trkpt lat="45.14918" lon="5.89594">
        <ele>1118.4</ele>
        <time>2020-08-11T11:56:21Z</time>
      </trkpt>
      <trkpt lat="45.14919" lon="5.89589">
        <ele>1118.8</ele>
        <time>2020-08-11T11:56:22Z</time>
      </trkpt>
      <trkpt lat="45.1492" lon="5.89584">
        <ele>1118.4</ele>
        <time>2020-08-11T11:56:23Z</time>
      </trkpt>
      <trkpt lat="45.14922" lon="5.89579">
        <ele>1118.6</ele>
        <time>2020-08-11T11:56:24Z</time>
      </trkpt>
      <trkpt lat="45.14923" lon="5.89575">
        <ele>1117.8</ele>
        <time>2020-08-11T11:56:25Z</time>
      </trkpt>
      <trkpt lat="45.14925" lon="5.8957">
        <ele>1117.8</ele>
        <time>2020-08-11T11:56:26Z</time>
      </trkpt>
      <trkpt lat="45.14926" lon="5.89566">
        <ele>1117.2</ele>
        <time>2020-08-11T11:56:27Z</time>
      </trkpt>
      <trkpt lat="45.14928" lon="5.89563">
        <ele>1117.4</ele>
        <time>2020-08-11T11:56:28Z</time>
      </trkpt>
      <trkpt lat="45.1493" lon="5.89559">
        <ele>1117.2</ele>
        <time>2020-08-11T11:56:29Z</time>
      </trkpt>
      <trkpt lat="45.14932" lon="5.89556">
        <ele>1117.2</ele>
        <time>2020-08-11T11:56:30Z</time>
      </trkpt>
      <trkpt lat="45.14933" lon="5.89553">
        <ele>1116.8</ele>
        <time>2020-08-11T11:56:31Z</time>
      </trkpt>
      <trkpt lat="45.14935" lon="5.8955">
        <ele>1117.2</ele>
        <time>2020-08-11T11:56:32Z</time>
      </trkpt>
      <trkpt lat="45.14936" lon="5.89547">
        <ele>1117</ele>
        <time>2020-08-11T11:56:33Z</time>
      </trkpt>
      <trkpt lat="45.14938" lon="5.89544">
        <ele>1117.4</ele>
        <time>2020-08-11T11:56:34Z</time>
      </trkpt>
      <trkpt lat="45.14939" lon="5.8954">
        <ele>1116.8</ele>
        <time>2020-08-11T11:56:35Z</time>
      </trkpt>
      <trkpt lat="45.14941" lon="5.89536">
        <ele>1117</ele>
        <time>2020-08-11T11:56:36Z</time>
      </trkpt>
      <trkpt lat="45.14943" lon="5.89532">
        <ele>1116.8</ele>
        <time>2020-08-11T11:56:37Z</time>
      </trkpt>
      <trkpt lat="45.14945" lon="5.89519">
        <ele>1117</ele>
        <time>2020-08-11T11:56:38Z</time>
      </trkpt>
      <trkpt lat="45.14945" lon="5.89519">
        <ele>1116.6</ele>
        <time>2020-08-11T11:56:39Z</time>
      </trkpt>
      <trkpt lat="45.14945" lon="5.89519">
        <ele>1116.2</ele>
        <time>2020-08-11T11:56:40Z</time>
      </trkpt>
      <trkpt lat="45.14944" lon="5.89515">
        <ele>1115.4</ele>
        <time>2020-08-11T11:56:41Z</time>
      </trkpt>
      <trkpt lat="45.14943" lon="5.89511">
        <ele>1115</ele>
        <time>2020-08-11T11:56:42Z</time>
      </trkpt>
      <trkpt lat="45.14942" lon="5.89506">
        <ele>1114.2</ele>
        <time>2020-08-11T11:56:43Z</time>
      </trkpt>
      <trkpt lat="45.14941" lon="5.89502">
        <ele>1113.6</ele>
        <time>2020-08-11T11:56:44Z</time>
      </trkpt>
      <trkpt lat="45.1494" lon="5.89498">
        <ele>1113.6</ele>
        <time>2020-08-11T11:56:45Z</time>
      </trkpt>
      <trkpt lat="45.14938" lon="5.89495">
        <ele>1113</ele>
        <time>2020-08-11T11:56:46Z</time>
      </trkpt>
      <trkpt lat="45.14936" lon="5.89491">
        <ele>1113.2</ele>
        <time>2020-08-11T11:56:47Z</time>
      </trkpt>
      <trkpt lat="45.14934" lon="5.89487">
        <ele>1112.8</ele>
        <time>2020-08-11T11:56:48Z</time>
      </trkpt>
      <trkpt lat="45.14931" lon="5.89485">
        <ele>1112.8</ele>
        <time>2020-08-11T11:56:49Z</time>
      </trkpt>
      <trkpt lat="45.14929" lon="5.89483">
        <ele>1112</ele>
        <time>2020-08-11T11:56:50Z</time>
      </trkpt>
      <trkpt lat="45.14927" lon="5.89481">
        <ele>1111.8</ele>
        <time>2020-08-11T11:56:51Z</time>
      </trkpt>
      <trkpt lat="45.14925" lon="5.89479">
        <ele>1111.2</ele>
        <time>2020-08-11T11:56:52Z</time>
      </trkpt>
      <trkpt lat="45.14922" lon="5.89477">
        <ele>1111</ele>
        <time>2020-08-11T11:56:53Z</time>
      </trkpt>
      <trkpt lat="45.1492" lon="5.89475">
        <ele>1110.2</ele>
        <time>2020-08-11T11:56:54Z</time>
      </trkpt>
      <trkpt lat="45.14918" lon="5.89472">
        <ele>1109.6</ele>
        <time>2020-08-11T11:56:55Z</time>
      </trkpt>
      <trkpt lat="45.14915" lon="5.8947">
        <ele>1109</ele>
        <time>2020-08-11T11:56:56Z</time>
      </trkpt>
      <trkpt lat="45.14913" lon="5.89467">
        <ele>1108.6</ele>
        <time>2020-08-11T11:56:57Z</time>
      </trkpt>
      <trkpt lat="45.14911" lon="5.89464">
        <ele>1107.8</ele>
        <time>2020-08-11T11:56:58Z</time>
      </trkpt>
      <trkpt lat="45.14908" lon="5.89461">
        <ele>1107</ele>
        <time>2020-08-11T11:56:59Z</time>
      </trkpt>
      <trkpt lat="45.14906" lon="5.89458">
        <ele>1106.8</ele>
        <time>2020-08-11T11:57:00Z</time>
      </trkpt>
      <trkpt lat="45.14904" lon="5.89456">
        <ele>1106.8</ele>
        <time>2020-08-11T11:57:01Z</time>
      </trkpt>
      <trkpt lat="45.14902" lon="5.89453">
        <ele>1106</ele>
        <time>2020-08-11T11:57:02Z</time>
      </trkpt>
      <trkpt lat="45.149" lon="5.8945">
        <ele>1106</ele>
        <time>2020-08-11T11:57:03Z</time>
      </trkpt>
      <trkpt lat="45.14898" lon="5.89447">
        <ele>1105.2</ele>
        <time>2020-08-11T11:57:04Z</time>
      </trkpt>
      <trkpt lat="45.14896" lon="5.89444">
        <ele>1105.4</ele>
        <time>2020-08-11T11:57:05Z</time>
      </trkpt>
      <trkpt lat="45.14894" lon="5.89442">
        <ele>1105.4</ele>
        <time>2020-08-11T11:57:06Z</time>
      </trkpt>
      <trkpt lat="45.14893" lon="5.89439">
        <ele>1104.8</ele>
        <time>2020-08-11T11:57:07Z</time>
      </trkpt>
      <trkpt lat="45.1489" lon="5.89437">
        <ele>1104.4</ele>
        <time>2020-08-11T11:57:08Z</time>
      </trkpt>
      <trkpt lat="45.14887" lon="5.89434">
        <ele>1103.8</ele>
        <time>2020-08-11T11:57:09Z</time>
      </trkpt>
      <trkpt lat="45.14884" lon="5.89431">
        <ele>1104</ele>
        <time>2020-08-11T11:57:10Z</time>
      </trkpt>
      <trkpt lat="45.14882" lon="5.8943">
        <ele>1103.4</ele>
        <time>2020-08-11T11:57:11Z</time>
      </trkpt>
      <trkpt lat="45.14879" lon="5.89428">
        <ele>1103</ele>
        <time>2020-08-11T11:57:12Z</time>
      </trkpt>
      <trkpt lat="45.14877" lon="5.89426">
        <ele>1102.4</ele>
        <time>2020-08-11T11:57:13Z</time>
      </trkpt>
      <trkpt lat="45.14875" lon="5.89424">
        <ele>1102.4</ele>
        <time>2020-08-11T11:57:14Z</time>
      </trkpt>
      <trkpt lat="45.14873" lon="5.89422">
        <ele>1101.6</ele>
        <time>2020-08-11T11:57:15Z</time>
      </trkpt>
      <trkpt lat="45.14871" lon="5.89419">
        <ele>1101.6</ele>
        <time>2020-08-11T11:57:16Z</time>
      </trkpt>
      <trkpt lat="45.14869" lon="5.89417">
        <ele>1100.8</ele>
        <time>2020-08-11T11:57:17Z</time>
      </trkpt>
      <trkpt lat="45.14867" lon="5.89414">
        <ele>1100.8</ele>
        <time>2020-08-11T11:57:18Z</time>
      </trkpt>
      <trkpt lat="45.14865" lon="5.89411">
        <ele>1100.2</ele>
        <time>2020-08-11T11:57:19Z</time>
      </trkpt>
      <trkpt lat="45.14863" lon="5.89408">
        <ele>1100.2</ele>
        <time>2020-08-11T11:57:20Z</time>
      </trkpt>
      <trkpt lat="45.14861" lon="5.89405">
        <ele>1099.6</ele>
        <time>2020-08-11T11:57:21Z</time>
      </trkpt>
      <trkpt lat="45.14859" lon="5.89402">
        <ele>1099.2</ele>
        <time>2020-08-11T11:57:22Z</time>
      </trkpt>
      <trkpt lat="45.14857" lon="5.894">
        <ele>1098.8</ele>
        <time>2020-08-11T11:57:23Z</time>
      </trkpt>
      <trkpt lat="45.14855" lon="5.89397">
        <ele>1098.2</ele>
        <time>2020-08-11T11:57:24Z</time>
      </trkpt>
      <trkpt lat="45.14853" lon="5.89395">
        <ele>1097.2</ele>
        <time>2020-08-11T11:57:25Z</time>
      </trkpt>
      <trkpt lat="45.14851" lon="5.89392">
        <ele>1097</ele>
        <time>2020-08-11T11:57:26Z</time>
      </trkpt>
      <trkpt lat="45.14849" lon="5.89388">
        <ele>1096.2</ele>
        <time>2020-08-11T11:57:27Z</time>
      </trkpt>
      <trkpt lat="45.14847" lon="5.89384">
        <ele>1096</ele>
        <time>2020-08-11T11:57:28Z</time>
      </trkpt>
      <trkpt lat="45.14845" lon="5.89381">
        <ele>1095.4</ele>
        <time>2020-08-11T11:57:29Z</time>
      </trkpt>
      <trkpt lat="45.14843" lon="5.89377">
        <ele>1095.4</ele>
        <time>2020-08-11T11:57:30Z</time>
      </trkpt>
      <trkpt lat="45.14841" lon="5.89374">
        <ele>1095.2</ele>
        <time>2020-08-11T11:57:31Z</time>
      </trkpt>
      <trkpt lat="45.14839" lon="5.8937">
        <ele>1095.4</ele>
        <time>2020-08-11T11:57:32Z</time>
      </trkpt>
      <trkpt lat="45.14836" lon="5.89367">
        <ele>1095.2</ele>
        <time>2020-08-11T11:57:33Z</time>
      </trkpt>
      <trkpt lat="45.14834" lon="5.89363">
        <ele>1095.8</ele>
        <time>2020-08-11T11:57:34Z</time>
      </trkpt>
      <trkpt lat="45.14831" lon="5.89359">
        <ele>1095.6</ele>
        <time>2020-08-11T11:57:35Z</time>
      </trkpt>
      <trkpt lat="45.14829" lon="5.89356">
        <ele>1096</ele>
        <time>2020-08-11T11:57:36Z</time>
      </trkpt>
      <trkpt lat="45.14827" lon="5.89352">
        <ele>1095.6</ele>
        <time>2020-08-11T11:57:37Z</time>
      </trkpt>
      <trkpt lat="45.14825" lon="5.89349">
        <ele>1096</ele>
        <time>2020-08-11T11:57:38Z</time>
      </trkpt>
      <trkpt lat="45.14823" lon="5.89345">
        <ele>1095.6</ele>
        <time>2020-08-11T11:57:39Z</time>
      </trkpt>
      <trkpt lat="45.14822" lon="5.89341">
        <ele>1095.8</ele>
        <time>2020-08-11T11:57:40Z</time>
      </trkpt>
      <trkpt lat="45.1482" lon="5.89338">
        <ele>1095.2</ele>
        <time>2020-08-11T11:57:41Z</time>
      </trkpt>
      <trkpt lat="45.14818" lon="5.89333">
        <ele>1095.4</ele>
        <time>2020-08-11T11:57:42Z</time>
      </trkpt>
      <trkpt lat="45.14816" lon="5.89329">
        <ele>1094.8</ele>
        <time>2020-08-11T11:57:43Z</time>
      </trkpt>
      <trkpt lat="45.14814" lon="5.89325">
        <ele>1095</ele>
        <time>2020-08-11T11:57:44Z</time>
      </trkpt>
      <trkpt lat="45.14812" lon="5.89322">
        <ele>1094.4</ele>
        <time>2020-08-11T11:57:45Z</time>
      </trkpt>
      <trkpt lat="45.1481" lon="5.89318">
        <ele>1094.4</ele>
        <time>2020-08-11T11:57:46Z</time>
      </trkpt>
      <trkpt lat="45.14809" lon="5.89315">
        <ele>1093.4</ele>
        <time>2020-08-11T11:57:47Z</time>
      </trkpt>
      <trkpt lat="45.14807" lon="5.89313">
        <ele>1093.4</ele>
        <time>2020-08-11T11:57:48Z</time>
      </trkpt>
      <trkpt lat="45.14805" lon="5.89311">
        <ele>1093.2</ele>
        <time>2020-08-11T11:57:49Z</time>
      </trkpt>
      <trkpt lat="45.14803" lon="5.89309">
        <ele>1093</ele>
        <time>2020-08-11T11:57:50Z</time>
      </trkpt>
      <trkpt lat="45.14801" lon="5.89307">
        <ele>1093.4</ele>
        <time>2020-08-11T11:57:51Z</time>
      </trkpt>
      <trkpt lat="45.14799" lon="5.89306">
        <ele>1093.2</ele>
        <time>2020-08-11T11:57:52Z</time>
      </trkpt>
      <trkpt lat="45.14798" lon="5.89304">
        <ele>1093.6</ele>
        <time>2020-08-11T11:57:53Z</time>
      </trkpt>
      <trkpt lat="45.14796" lon="5.89303">
        <ele>1093.2</ele>
        <time>2020-08-11T11:57:54Z</time>
      </trkpt>
      <trkpt lat="45.14795" lon="5.89301">
        <ele>1093.6</ele>
        <time>2020-08-11T11:57:55Z</time>
      </trkpt>
      <trkpt lat="45.14793" lon="5.893">
        <ele>1093.4</ele>
        <time>2020-08-11T11:57:56Z</time>
      </trkpt>
      <trkpt lat="45.14791" lon="5.89298">
        <ele>1093.8</ele>
        <time>2020-08-11T11:57:57Z</time>
      </trkpt>
      <trkpt lat="45.1479" lon="5.89296">
        <ele>1093.6</ele>
        <time>2020-08-11T11:57:58Z</time>
      </trkpt>
      <trkpt lat="45.14788" lon="5.89294">
        <ele>1094</ele>
        <time>2020-08-11T11:57:59Z</time>
      </trkpt>
      <trkpt lat="45.14786" lon="5.89292">
        <ele>1093.8</ele>
        <time>2020-08-11T11:58:00Z</time>
      </trkpt>
      <trkpt lat="45.14785" lon="5.89289">
        <ele>1093.6</ele>
        <time>2020-08-11T11:58:01Z</time>
      </trkpt>
      <trkpt lat="45.14783" lon="5.89288">
        <ele>1093.4</ele>
        <time>2020-08-11T11:58:02Z</time>
      </trkpt>
      <trkpt lat="45.14781" lon="5.89287">
        <ele>1093.2</ele>
        <time>2020-08-11T11:58:03Z</time>
      </trkpt>
      <trkpt lat="45.14779" lon="5.89285">
        <ele>1093.2</ele>
        <time>2020-08-11T11:58:04Z</time>
      </trkpt>
      <trkpt lat="45.14777" lon="5.89284">
        <ele>1093.2</ele>
        <time>2020-08-11T11:58:05Z</time>
      </trkpt>
      <trkpt lat="45.14774" lon="5.89276">
        <ele>1093.6</ele>
        <time>2020-08-11T11:58:06Z</time>
      </trkpt>
      <trkpt lat="45.14771" lon="5.89268">
        <ele>1093.4</ele>
        <time>2020-08-11T11:58:07Z</time>
      </trkpt>
      <trkpt lat="45.14769" lon="5.8926">
        <ele>1093.6</ele>
        <time>2020-08-11T11:58:08Z</time>
      </trkpt>
      <trkpt lat="45.14766" lon="5.89252">
        <ele>1093.6</ele>
        <time>2020-08-11T11:58:09Z</time>
      </trkpt>
      <trkpt lat="45.14763" lon="5.89244">
        <ele>1093.4</ele>
        <time>2020-08-11T11:58:10Z</time>
      </trkpt>
      <trkpt lat="45.14761" lon="5.89237">
        <ele>1093</ele>
        <time>2020-08-11T11:58:11Z</time>
      </trkpt>
      <trkpt lat="45.1476" lon="5.89231">
        <ele>1093</ele>
        <time>2020-08-11T11:58:12Z</time>
      </trkpt>
      <trkpt lat="45.1476" lon="5.89226">
        <ele>1092.6</ele>
        <time>2020-08-11T11:58:13Z</time>
      </trkpt>
      <trkpt lat="45.14759" lon="5.8922">
        <ele>1092.6</ele>
        <time>2020-08-11T11:58:14Z</time>
      </trkpt>
      <trkpt lat="45.14757" lon="5.89218">
        <ele>1092.2</ele>
        <time>2020-08-11T11:58:15Z</time>
      </trkpt>
      <trkpt lat="45.14756" lon="5.89216">
        <ele>1091.2</ele>
        <time>2020-08-11T11:58:16Z</time>
      </trkpt>
      <trkpt lat="45.14754" lon="5.89213">
        <ele>1091.4</ele>
        <time>2020-08-11T11:58:17Z</time>
      </trkpt>
      <trkpt lat="45.14752" lon="5.89211">
        <ele>1090.2</ele>
        <time>2020-08-11T11:58:18Z</time>
      </trkpt>
      <trkpt lat="45.1475" lon="5.89208">
        <ele>1090</ele>
        <time>2020-08-11T11:58:19Z</time>
      </trkpt>
      <trkpt lat="45.14748" lon="5.89206">
        <ele>1090.2</ele>
        <time>2020-08-11T11:58:20Z</time>
      </trkpt>
      <trkpt lat="45.14745" lon="5.89203">
        <ele>1089.8</ele>
        <time>2020-08-11T11:58:21Z</time>
      </trkpt>
      <trkpt lat="45.14743" lon="5.89201">
        <ele>1090.4</ele>
        <time>2020-08-11T11:58:22Z</time>
      </trkpt>
      <trkpt lat="45.14742" lon="5.89197">
        <ele>1090.4</ele>
        <time>2020-08-11T11:58:23Z</time>
      </trkpt>
      <trkpt lat="45.1474" lon="5.89192">
        <ele>1090.8</ele>
        <time>2020-08-11T11:58:24Z</time>
      </trkpt>
      <trkpt lat="45.14738" lon="5.89188">
        <ele>1090.6</ele>
        <time>2020-08-11T11:58:25Z</time>
      </trkpt>
      <trkpt lat="45.14739" lon="5.89185">
        <ele>1090.8</ele>
        <time>2020-08-11T11:58:26Z</time>
      </trkpt>
      <trkpt lat="45.14739" lon="5.89182">
        <ele>1090.8</ele>
        <time>2020-08-11T11:58:27Z</time>
      </trkpt>
      <trkpt lat="45.14739" lon="5.89179">
        <ele>1090.8</ele>
        <time>2020-08-11T11:58:28Z</time>
      </trkpt>
      <trkpt lat="45.14739" lon="5.89176">
        <ele>1091</ele>
        <time>2020-08-11T11:58:29Z</time>
      </trkpt>
      <trkpt lat="45.14741" lon="5.89173">
        <ele>1091.2</ele>
        <time>2020-08-11T11:58:30Z</time>
      </trkpt>
      <trkpt lat="45.14743" lon="5.8917">
        <ele>1090.8</ele>
        <time>2020-08-11T11:58:31Z</time>
      </trkpt>
      <trkpt lat="45.14745" lon="5.89167">
        <ele>1090.8</ele>
        <time>2020-08-11T11:58:32Z</time>
      </trkpt>
      <trkpt lat="45.14746" lon="5.89164">
        <ele>1090.6</ele>
        <time>2020-08-11T11:58:33Z</time>
      </trkpt>
      <trkpt lat="45.14749" lon="5.89164">
        <ele>1090.8</ele>
        <time>2020-08-11T11:58:34Z</time>
      </trkpt>
      <trkpt lat="45.14752" lon="5.89164">
        <ele>1090.6</ele>
        <time>2020-08-11T11:58:35Z</time>
      </trkpt>
      <trkpt lat="45.14754" lon="5.89165">
        <ele>1090.8</ele>
        <time>2020-08-11T11:58:36Z</time>
      </trkpt>
      <trkpt lat="45.14757" lon="5.89165">
        <ele>1090.4</ele>
        <time>2020-08-11T11:58:37Z</time>
      </trkpt>
      <trkpt lat="45.14758" lon="5.89163">
        <ele>1090.2</ele>
        <time>2020-08-11T11:58:38Z</time>
      </trkpt>
      <trkpt lat="45.1476" lon="5.89162">
        <ele>1090.6</ele>
        <time>2020-08-11T11:58:39Z</time>
      </trkpt>
      <trkpt lat="45.14761" lon="5.8916">
        <ele>1090.6</ele>
        <time>2020-08-11T11:58:40Z</time>
      </trkpt>
      <trkpt lat="45.14763" lon="5.89158">
        <ele>1091</ele>
        <time>2020-08-11T11:58:41Z</time>
      </trkpt>
      <trkpt lat="45.14764" lon="5.89157">
        <ele>1091</ele>
        <time>2020-08-11T11:58:42Z</time>
      </trkpt>
      <trkpt lat="45.14766" lon="5.89155">
        <ele>1091.4</ele>
        <time>2020-08-11T11:58:43Z</time>
      </trkpt>
      <trkpt lat="45.14768" lon="5.89154">
        <ele>1091.2</ele>
        <time>2020-08-11T11:58:44Z</time>
      </trkpt>
      <trkpt lat="45.1477" lon="5.89152">
        <ele>1091.6</ele>
        <time>2020-08-11T11:58:45Z</time>
      </trkpt>
      <trkpt lat="45.14772" lon="5.8915">
        <ele>1091.4</ele>
        <time>2020-08-11T11:58:46Z</time>
      </trkpt>
      <trkpt lat="45.14774" lon="5.89149">
        <ele>1091.4</ele>
        <time>2020-08-11T11:58:47Z</time>
      </trkpt>
      <trkpt lat="45.14776" lon="5.89147">
        <ele>1091.6</ele>
        <time>2020-08-11T11:58:48Z</time>
      </trkpt>
      <trkpt lat="45.14779" lon="5.89145">
        <ele>1091.6</ele>
        <time>2020-08-11T11:58:49Z</time>
      </trkpt>
      <trkpt lat="45.14781" lon="5.89144">
        <ele>1092.2</ele>
        <time>2020-08-11T11:58:50Z</time>
      </trkpt>
      <trkpt lat="45.14784" lon="5.89142">
        <ele>1092.4</ele>
        <time>2020-08-11T11:58:51Z</time>
      </trkpt>
      <trkpt lat="45.14786" lon="5.89141">
        <ele>1093</ele>
        <time>2020-08-11T11:58:52Z</time>
      </trkpt>
      <trkpt lat="45.14788" lon="5.89139">
        <ele>1092.8</ele>
        <time>2020-08-11T11:58:53Z</time>
      </trkpt>
      <trkpt lat="45.1479" lon="5.89138">
        <ele>1093</ele>
        <time>2020-08-11T11:58:54Z</time>
      </trkpt>
      <trkpt lat="45.14792" lon="5.89136">
        <ele>1092.8</ele>
        <time>2020-08-11T11:58:55Z</time>
      </trkpt>
      <trkpt lat="45.14794" lon="5.89135">
        <ele>1092.8</ele>
        <time>2020-08-11T11:58:56Z</time>
      </trkpt>
      <trkpt lat="45.14795" lon="5.89134">
        <ele>1093</ele>
        <time>2020-08-11T11:58:57Z</time>
      </trkpt>
      <trkpt lat="45.14797" lon="5.89133">
        <ele>1093.2</ele>
        <time>2020-08-11T11:58:58Z</time>
      </trkpt>
      <trkpt lat="45.14798" lon="5.89132">
        <ele>1093.8</ele>
        <time>2020-08-11T11:58:59Z</time>
      </trkpt>
      <trkpt lat="45.148" lon="5.89131">
        <ele>1094</ele>
        <time>2020-08-11T11:59:00Z</time>
      </trkpt>
      <trkpt lat="45.14801" lon="5.8913">
        <ele>1094.6</ele>
        <time>2020-08-11T11:59:01Z</time>
      </trkpt>
      <trkpt lat="45.14803" lon="5.89129">
        <ele>1094.6</ele>
        <time>2020-08-11T11:59:02Z</time>
      </trkpt>
      <trkpt lat="45.14805" lon="5.89127">
        <ele>1095.2</ele>
        <time>2020-08-11T11:59:03Z</time>
      </trkpt>
      <trkpt lat="45.14807" lon="5.89125">
        <ele>1094.8</ele>
        <time>2020-08-11T11:59:04Z</time>
      </trkpt>
      <trkpt lat="45.14809" lon="5.89123">
        <ele>1095.2</ele>
        <time>2020-08-11T11:59:05Z</time>
      </trkpt>
      <trkpt lat="45.14811" lon="5.89121">
        <ele>1095.2</ele>
        <time>2020-08-11T11:59:06Z</time>
      </trkpt>
      <trkpt lat="45.14813" lon="5.8912">
        <ele>1095.2</ele>
        <time>2020-08-11T11:59:07Z</time>
      </trkpt>
      <trkpt lat="45.14814" lon="5.89119">
        <ele>1095.8</ele>
        <time>2020-08-11T11:59:08Z</time>
      </trkpt>
      <trkpt lat="45.14816" lon="5.89118">
        <ele>1095.8</ele>
        <time>2020-08-11T11:59:09Z</time>
      </trkpt>
      <trkpt lat="45.14818" lon="5.89116">
        <ele>1096.4</ele>
        <time>2020-08-11T11:59:10Z</time>
      </trkpt>
      <trkpt lat="45.14819" lon="5.89115">
        <ele>1096.6</ele>
        <time>2020-08-11T11:59:11Z</time>
      </trkpt>
      <trkpt lat="45.14821" lon="5.89114">
        <ele>1097</ele>
        <time>2020-08-11T11:59:12Z</time>
      </trkpt>
      <trkpt lat="45.14822" lon="5.89113">
        <ele>1097.2</ele>
        <time>2020-08-11T11:59:13Z</time>
      </trkpt>
      <trkpt lat="45.14824" lon="5.89111">
        <ele>1097.6</ele>
        <time>2020-08-11T11:59:14Z</time>
      </trkpt>
      <trkpt lat="45.14826" lon="5.8911">
        <ele>1097.4</ele>
        <time>2020-08-11T11:59:15Z</time>
      </trkpt>
      <trkpt lat="45.14827" lon="5.89109">
        <ele>1097.8</ele>
        <time>2020-08-11T11:59:16Z</time>
      </trkpt>
      <trkpt lat="45.14829" lon="5.89107">
        <ele>1097.4</ele>
        <time>2020-08-11T11:59:17Z</time>
      </trkpt>
      <trkpt lat="45.14831" lon="5.89106">
        <ele>1097.8</ele>
        <time>2020-08-11T11:59:18Z</time>
      </trkpt>
      <trkpt lat="45.14832" lon="5.89105">
        <ele>1097.8</ele>
        <time>2020-08-11T11:59:19Z</time>
      </trkpt>
      <trkpt lat="45.14834" lon="5.89104">
        <ele>1097.6</ele>
        <time>2020-08-11T11:59:20Z</time>
      </trkpt>
      <trkpt lat="45.14836" lon="5.89102">
        <ele>1097.6</ele>
        <time>2020-08-11T11:59:21Z</time>
      </trkpt>
      <trkpt lat="45.14838" lon="5.89101">
        <ele>1097.6</ele>
        <time>2020-08-11T11:59:22Z</time>
      </trkpt>
      <trkpt lat="45.1484" lon="5.891">
        <ele>1097.8</ele>
        <time>2020-08-11T11:59:23Z</time>
      </trkpt>
      <trkpt lat="45.14843" lon="5.89099">
        <ele>1097.8</ele>
        <time>2020-08-11T11:59:24Z</time>
      </trkpt>
      <trkpt lat="45.14845" lon="5.89097">
        <ele>1098.2</ele>
        <time>2020-08-11T11:59:25Z</time>
      </trkpt>
      <trkpt lat="45.14847" lon="5.89096">
        <ele>1098.4</ele>
        <time>2020-08-11T11:59:26Z</time>
      </trkpt>
      <trkpt lat="45.1485" lon="5.89092">
        <ele>1098.8</ele>
        <time>2020-08-11T11:59:27Z</time>
      </trkpt>
      <trkpt lat="45.14853" lon="5.89089">
        <ele>1098.8</ele>
        <time>2020-08-11T11:59:28Z</time>
      </trkpt>
      <trkpt lat="45.14856" lon="5.89085">
        <ele>1099.2</ele>
        <time>2020-08-11T11:59:29Z</time>
      </trkpt>
      <trkpt lat="45.14859" lon="5.89081">
        <ele>1098.8</ele>
        <time>2020-08-11T11:59:30Z</time>
      </trkpt>
      <trkpt lat="45.14862" lon="5.89076">
        <ele>1099</ele>
        <time>2020-08-11T11:59:31Z</time>
      </trkpt>
      <trkpt lat="45.14862" lon="5.89076">
        <ele>1098.8</ele>
        <time>2020-08-11T11:59:32Z</time>
      </trkpt>
      <trkpt lat="45.14864" lon="5.89073">
        <ele>1099</ele>
        <time>2020-08-11T11:59:33Z</time>
      </trkpt>
      <trkpt lat="45.14867" lon="5.8907">
        <ele>1098.6</ele>
        <time>2020-08-11T11:59:34Z</time>
      </trkpt>
      <trkpt lat="45.14869" lon="5.89067">
        <ele>1098.6</ele>
        <time>2020-08-11T11:59:35Z</time>
      </trkpt>
      <trkpt lat="45.14871" lon="5.89065">
        <ele>1098.2</ele>
        <time>2020-08-11T11:59:36Z</time>
      </trkpt>
      <trkpt lat="45.14873" lon="5.89063">
        <ele>1098.2</ele>
        <time>2020-08-11T11:59:37Z</time>
      </trkpt>
      <trkpt lat="45.14875" lon="5.89061">
        <ele>1098.2</ele>
        <time>2020-08-11T11:59:38Z</time>
      </trkpt>
      <trkpt lat="45.14877" lon="5.89059">
        <ele>1098</ele>
        <time>2020-08-11T11:59:39Z</time>
      </trkpt>
      <trkpt lat="45.14879" lon="5.89056">
        <ele>1098</ele>
        <time>2020-08-11T11:59:40Z</time>
      </trkpt>
      <trkpt lat="45.14882" lon="5.89054">
        <ele>1097.8</ele>
        <time>2020-08-11T11:59:41Z</time>
      </trkpt>
      <trkpt lat="45.14884" lon="5.89052">
        <ele>1098</ele>
        <time>2020-08-11T11:59:42Z</time>
      </trkpt>
      <trkpt lat="45.14886" lon="5.8905">
        <ele>1097.8</ele>
        <time>2020-08-11T11:59:43Z</time>
      </trkpt>
      <trkpt lat="45.14889" lon="5.89049">
        <ele>1098</ele>
        <time>2020-08-11T11:59:44Z</time>
      </trkpt>
      <trkpt lat="45.14891" lon="5.89048">
        <ele>1097.6</ele>
        <time>2020-08-11T11:59:45Z</time>
      </trkpt>
      <trkpt lat="45.14894" lon="5.89047">
        <ele>1097.6</ele>
        <time>2020-08-11T11:59:46Z</time>
      </trkpt>
      <trkpt lat="45.14896" lon="5.89046">
        <ele>1097.2</ele>
        <time>2020-08-11T11:59:47Z</time>
      </trkpt>
      <trkpt lat="45.14899" lon="5.89044">
        <ele>1097.2</ele>
        <time>2020-08-11T11:59:48Z</time>
      </trkpt>
      <trkpt lat="45.14902" lon="5.89042">
        <ele>1097.2</ele>
        <time>2020-08-11T11:59:49Z</time>
      </trkpt>
      <trkpt lat="45.14905" lon="5.8904">
        <ele>1097.4</ele>
        <time>2020-08-11T11:59:50Z</time>
      </trkpt>
      <trkpt lat="45.14907" lon="5.89039">
        <ele>1097.2</ele>
        <time>2020-08-11T11:59:51Z</time>
      </trkpt>
      <trkpt lat="45.14909" lon="5.89038">
        <ele>1097.4</ele>
        <time>2020-08-11T11:59:52Z</time>
      </trkpt>
      <trkpt lat="45.1491" lon="5.89036">
        <ele>1097</ele>
        <time>2020-08-11T11:59:53Z</time>
      </trkpt>
      <trkpt lat="45.14912" lon="5.89035">
        <ele>1097.2</ele>
        <time>2020-08-11T11:59:54Z</time>
      </trkpt>
      <trkpt lat="45.14914" lon="5.89034">
        <ele>1096.8</ele>
        <time>2020-08-11T11:59:55Z</time>
      </trkpt>
      <trkpt lat="45.14916" lon="5.89032">
        <ele>1097.2</ele>
        <time>2020-08-11T11:59:56Z</time>
      </trkpt>
      <trkpt lat="45.14919" lon="5.89031">
        <ele>1096.8</ele>
        <time>2020-08-11T11:59:57Z</time>
      </trkpt>
      <trkpt lat="45.14922" lon="5.89029">
        <ele>1097</ele>
        <time>2020-08-11T11:59:58Z</time>
      </trkpt>
      <trkpt lat="45.14924" lon="5.89027">
        <ele>1096.8</ele>
        <time>2020-08-11T11:59:59Z</time>
      </trkpt>
      <trkpt lat="45.14932" lon="5.89022">
        <ele>1096.4</ele>
        <time>2020-08-11T12:00:01Z</time>
      </trkpt>
      <trkpt lat="45.14937" lon="5.89019">
        <ele>1096.6</ele>
        <time>2020-08-11T12:00:02Z</time>
      </trkpt>
      <trkpt lat="45.14937" lon="5.89019">
        <ele>1096.2</ele>
        <time>2020-08-11T12:00:03Z</time>
      </trkpt>
      <trkpt lat="45.14939" lon="5.89017">
        <ele>1096.2</ele>
        <time>2020-08-11T12:00:04Z</time>
      </trkpt>
      <trkpt lat="45.14942" lon="5.89015">
        <ele>1095.8</ele>
        <time>2020-08-11T12:00:05Z</time>
      </trkpt>
      <trkpt lat="45.14944" lon="5.89014">
        <ele>1096</ele>
        <time>2020-08-11T12:00:06Z</time>
      </trkpt>
      <trkpt lat="45.14947" lon="5.89012">
        <ele>1095.6</ele>
        <time>2020-08-11T12:00:07Z</time>
      </trkpt>
      <trkpt lat="45.1495" lon="5.89011">
        <ele>1095.8</ele>
        <time>2020-08-11T12:00:08Z</time>
      </trkpt>
      <trkpt lat="45.14952" lon="5.8901">
        <ele>1095.4</ele>
        <time>2020-08-11T12:00:09Z</time>
      </trkpt>
      <trkpt lat="45.14955" lon="5.89009">
        <ele>1095.6</ele>
        <time>2020-08-11T12:00:10Z</time>
      </trkpt>
      <trkpt lat="45.14957" lon="5.89009">
        <ele>1095.2</ele>
        <time>2020-08-11T12:00:11Z</time>
      </trkpt>
      <trkpt lat="45.14961" lon="5.89008">
        <ele>1095.6</ele>
        <time>2020-08-11T12:00:12Z</time>
      </trkpt>
      <trkpt lat="45.14964" lon="5.89008">
        <ele>1095</ele>
        <time>2020-08-11T12:00:13Z</time>
      </trkpt>
      <trkpt lat="45.14967" lon="5.89008">
        <ele>1095.2</ele>
        <time>2020-08-11T12:00:14Z</time>
      </trkpt>
      <trkpt lat="45.1497" lon="5.89007">
        <ele>1095</ele>
        <time>2020-08-11T12:00:15Z</time>
      </trkpt>
      <trkpt lat="45.14972" lon="5.89006">
        <ele>1095.2</ele>
        <time>2020-08-11T12:00:16Z</time>
      </trkpt>
      <trkpt lat="45.14975" lon="5.89006">
        <ele>1095</ele>
        <time>2020-08-11T12:00:17Z</time>
      </trkpt>
      <trkpt lat="45.14977" lon="5.89005">
        <ele>1095</ele>
        <time>2020-08-11T12:00:18Z</time>
      </trkpt>
      <trkpt lat="45.1498" lon="5.89004">
        <ele>1094.8</ele>
        <time>2020-08-11T12:00:19Z</time>
      </trkpt>
      <trkpt lat="45.14982" lon="5.89004">
        <ele>1095</ele>
        <time>2020-08-11T12:00:20Z</time>
      </trkpt>
      <trkpt lat="45.14985" lon="5.89003">
        <ele>1094.8</ele>
        <time>2020-08-11T12:00:21Z</time>
      </trkpt>
      <trkpt lat="45.14987" lon="5.89003">
        <ele>1095</ele>
        <time>2020-08-11T12:00:22Z</time>
      </trkpt>
      <trkpt lat="45.14989" lon="5.89003">
        <ele>1094.8</ele>
        <time>2020-08-11T12:00:23Z</time>
      </trkpt>
      <trkpt lat="45.14991" lon="5.89004">
        <ele>1095.2</ele>
        <time>2020-08-11T12:00:24Z</time>
      </trkpt>
      <trkpt lat="45.14993" lon="5.89004">
        <ele>1095</ele>
        <time>2020-08-11T12:00:25Z</time>
      </trkpt>
      <trkpt lat="45.14994" lon="5.89005">
        <ele>1095</ele>
        <time>2020-08-11T12:00:26Z</time>
      </trkpt>
      <trkpt lat="45.14996" lon="5.89005">
        <ele>1094.6</ele>
        <time>2020-08-11T12:00:27Z</time>
      </trkpt>
      <trkpt lat="45.14999" lon="5.89005">
        <ele>1094.8</ele>
        <time>2020-08-11T12:00:28Z</time>
      </trkpt>
      <trkpt lat="45.15002" lon="5.89005">
        <ele>1094.6</ele>
        <time>2020-08-11T12:00:29Z</time>
      </trkpt>
      <trkpt lat="45.15004" lon="5.89005">
        <ele>1094.4</ele>
        <time>2020-08-11T12:00:30Z</time>
      </trkpt>
      <trkpt lat="45.15007" lon="5.89005">
        <ele>1094</ele>
        <time>2020-08-11T12:00:31Z</time>
      </trkpt>
      <trkpt lat="45.15009" lon="5.89005">
        <ele>1094.4</ele>
        <time>2020-08-11T12:00:32Z</time>
      </trkpt>
      <trkpt lat="45.15012" lon="5.89005">
        <ele>1094.2</ele>
        <time>2020-08-11T12:00:33Z</time>
      </trkpt>
      <trkpt lat="45.15014" lon="5.89004">
        <ele>1094.4</ele>
        <time>2020-08-11T12:00:34Z</time>
      </trkpt>
      <trkpt lat="45.15017" lon="5.89004">
        <ele>1094.2</ele>
        <time>2020-08-11T12:00:35Z</time>
      </trkpt>
      <trkpt lat="45.15019" lon="5.89003">
        <ele>1094.2</ele>
        <time>2020-08-11T12:00:36Z</time>
      </trkpt>
      <trkpt lat="45.15021" lon="5.89003">
        <ele>1093.8</ele>
        <time>2020-08-11T12:00:37Z</time>
      </trkpt>
      <trkpt lat="45.15024" lon="5.89002">
        <ele>1093.8</ele>
        <time>2020-08-11T12:00:38Z</time>
      </trkpt>
      <trkpt lat="45.15026" lon="5.89001">
        <ele>1093.4</ele>
        <time>2020-08-11T12:00:39Z</time>
      </trkpt>
      <trkpt lat="45.15029" lon="5.89">
        <ele>1093.6</ele>
        <time>2020-08-11T12:00:40Z</time>
      </trkpt>
      <trkpt lat="45.15032" lon="5.88998">
        <ele>1093.2</ele>
        <time>2020-08-11T12:00:42Z</time>
      </trkpt>
      <trkpt lat="45.15035" lon="5.88996">
        <ele>1092.6</ele>
        <time>2020-08-11T12:00:43Z</time>
      </trkpt>
      <trkpt lat="45.15038" lon="5.88994">
        <ele>1092.4</ele>
        <time>2020-08-11T12:00:44Z</time>
      </trkpt>
      <trkpt lat="45.15041" lon="5.88993">
        <ele>1092.4</ele>
        <time>2020-08-11T12:00:45Z</time>
      </trkpt>
      <trkpt lat="45.15043" lon="5.88991">
        <ele>1092.2</ele>
        <time>2020-08-11T12:00:46Z</time>
      </trkpt>
      <trkpt lat="45.15046" lon="5.8899">
        <ele>1092.4</ele>
        <time>2020-08-11T12:00:47Z</time>
      </trkpt>
      <trkpt lat="45.15049" lon="5.88984">
        <ele>1092.2</ele>
        <time>2020-08-11T12:00:48Z</time>
      </trkpt>
      <trkpt lat="45.15053" lon="5.88978">
        <ele>1092.2</ele>
        <time>2020-08-11T12:00:49Z</time>
      </trkpt>
      <trkpt lat="45.15056" lon="5.88972">
        <ele>1092.2</ele>
        <time>2020-08-11T12:00:50Z</time>
      </trkpt>
      <trkpt lat="45.1506" lon="5.88966">
        <ele>1092.4</ele>
        <time>2020-08-11T12:00:51Z</time>
      </trkpt>
      <trkpt lat="45.15063" lon="5.88961">
        <ele>1092.2</ele>
        <time>2020-08-11T12:00:52Z</time>
      </trkpt>
      <trkpt lat="45.15063" lon="5.88961">
        <ele>1092.6</ele>
        <time>2020-08-11T12:00:53Z</time>
      </trkpt>
      <trkpt lat="45.15063" lon="5.88961">
        <ele>1092.4</ele>
        <time>2020-08-11T12:00:54Z</time>
      </trkpt>
      <trkpt lat="45.15065" lon="5.88958">
        <ele>1092.6</ele>
        <time>2020-08-11T12:00:55Z</time>
      </trkpt>
      <trkpt lat="45.15067" lon="5.88956">
        <ele>1092.4</ele>
        <time>2020-08-11T12:00:56Z</time>
      </trkpt>
      <trkpt lat="45.15069" lon="5.88954">
        <ele>1092.6</ele>
        <time>2020-08-11T12:00:57Z</time>
      </trkpt>
      <trkpt lat="45.15071" lon="5.88951">
        <ele>1092.4</ele>
        <time>2020-08-11T12:00:58Z</time>
      </trkpt>
      <trkpt lat="45.15074" lon="5.88949">
        <ele>1092.8</ele>
        <time>2020-08-11T12:00:59Z</time>
      </trkpt>
      <trkpt lat="45.15076" lon="5.88947">
        <ele>1092.4</ele>
        <time>2020-08-11T12:01:00Z</time>
      </trkpt>
      <trkpt lat="45.15078" lon="5.88945">
        <ele>1092.8</ele>
        <time>2020-08-11T12:01:01Z</time>
      </trkpt>
      <trkpt lat="45.15081" lon="5.88943">
        <ele>1092.8</ele>
        <time>2020-08-11T12:01:02Z</time>
      </trkpt>
      <trkpt lat="45.15083" lon="5.88942">
        <ele>1092.8</ele>
        <time>2020-08-11T12:01:03Z</time>
      </trkpt>
      <trkpt lat="45.15085" lon="5.8894">
        <ele>1092.4</ele>
        <time>2020-08-11T12:01:04Z</time>
      </trkpt>
      <trkpt lat="45.15088" lon="5.88939">
        <ele>1092.4</ele>
        <time>2020-08-11T12:01:05Z</time>
      </trkpt>
      <trkpt lat="45.1509" lon="5.88937">
        <ele>1092</ele>
        <time>2020-08-11T12:01:06Z</time>
      </trkpt>
      <trkpt lat="45.15092" lon="5.88935">
        <ele>1091.8</ele>
        <time>2020-08-11T12:01:07Z</time>
      </trkpt>
      <trkpt lat="45.15094" lon="5.88934">
        <ele>1091.6</ele>
        <time>2020-08-11T12:01:08Z</time>
      </trkpt>
      <trkpt lat="45.15096" lon="5.88932">
        <ele>1091.4</ele>
        <time>2020-08-11T12:01:09Z</time>
      </trkpt>
      <trkpt lat="45.15098" lon="5.8893">
        <ele>1091</ele>
        <time>2020-08-11T12:01:10Z</time>
      </trkpt>
      <trkpt lat="45.151" lon="5.88929">
        <ele>1091.2</ele>
        <time>2020-08-11T12:01:11Z</time>
      </trkpt>
      <trkpt lat="45.15102" lon="5.88929">
        <ele>1091</ele>
        <time>2020-08-11T12:01:12Z</time>
      </trkpt>
      <trkpt lat="45.15105" lon="5.88929">
        <ele>1091</ele>
        <time>2020-08-11T12:01:13Z</time>
      </trkpt>
      <trkpt lat="45.15107" lon="5.88928">
        <ele>1091.2</ele>
        <time>2020-08-11T12:01:14Z</time>
      </trkpt>
      <trkpt lat="45.15109" lon="5.88928">
        <ele>1091</ele>
        <time>2020-08-11T12:01:15Z</time>
      </trkpt>
      <trkpt lat="45.15115" lon="5.8892">
        <ele>1091.2</ele>
        <time>2020-08-11T12:01:16Z</time>
      </trkpt>
      <trkpt lat="45.1512" lon="5.88911">
        <ele>1091.2</ele>
        <time>2020-08-11T12:01:17Z</time>
      </trkpt>
      <trkpt lat="45.15125" lon="5.88903">
        <ele>1091.4</ele>
        <time>2020-08-11T12:01:18Z</time>
      </trkpt>
      <trkpt lat="45.1513" lon="5.88888">
        <ele>1091.2</ele>
        <time>2020-08-11T12:01:19Z</time>
      </trkpt>
      <trkpt lat="45.15137" lon="5.88875">
        <ele>1091.4</ele>
        <time>2020-08-11T12:01:20Z</time>
      </trkpt>
      <trkpt lat="45.15138" lon="5.88874">
        <ele>1091</ele>
        <time>2020-08-11T12:01:21Z</time>
      </trkpt>
      <trkpt lat="45.15139" lon="5.88873">
        <ele>1091.2</ele>
        <time>2020-08-11T12:01:22Z</time>
      </trkpt>
      <trkpt lat="45.1514" lon="5.88873">
        <ele>1091</ele>
        <time>2020-08-11T12:01:23Z</time>
      </trkpt>
      <trkpt lat="45.15144" lon="5.8887">
        <ele>1091</ele>
        <time>2020-08-11T12:01:24Z</time>
      </trkpt>
      <trkpt lat="45.15147" lon="5.88867">
        <ele>1090.8</ele>
        <time>2020-08-11T12:01:25Z</time>
      </trkpt>
      <trkpt lat="45.15151" lon="5.88865">
        <ele>1091</ele>
        <time>2020-08-11T12:01:26Z</time>
      </trkpt>
      <trkpt lat="45.15153" lon="5.8886">
        <ele>1090.6</ele>
        <time>2020-08-11T12:01:27Z</time>
      </trkpt>
      <trkpt lat="45.15155" lon="5.88855">
        <ele>1090.6</ele>
        <time>2020-08-11T12:01:28Z</time>
      </trkpt>
      <trkpt lat="45.15157" lon="5.8885">
        <ele>1090.4</ele>
        <time>2020-08-11T12:01:29Z</time>
      </trkpt>
      <trkpt lat="45.15158" lon="5.88845">
        <ele>1090.6</ele>
        <time>2020-08-11T12:01:30Z</time>
      </trkpt>
      <trkpt lat="45.1516" lon="5.88841">
        <ele>1090.4</ele>
        <time>2020-08-11T12:01:31Z</time>
      </trkpt>
      <trkpt lat="45.15162" lon="5.88837">
        <ele>1090.4</ele>
        <time>2020-08-11T12:01:32Z</time>
      </trkpt>
      <trkpt lat="45.15164" lon="5.88833">
        <ele>1090.2</ele>
        <time>2020-08-11T12:01:33Z</time>
      </trkpt>
      <trkpt lat="45.15166" lon="5.8883">
        <ele>1090.2</ele>
        <time>2020-08-11T12:01:34Z</time>
      </trkpt>
      <trkpt lat="45.15168" lon="5.88827">
        <ele>1089.8</ele>
        <time>2020-08-11T12:01:35Z</time>
      </trkpt>
      <trkpt lat="45.1517" lon="5.88823">
        <ele>1090</ele>
        <time>2020-08-11T12:01:36Z</time>
      </trkpt>
      <trkpt lat="45.15172" lon="5.8882">
        <ele>1089.8</ele>
        <time>2020-08-11T12:01:37Z</time>
      </trkpt>
      <trkpt lat="45.15174" lon="5.88816">
        <ele>1089.8</ele>
        <time>2020-08-11T12:01:38Z</time>
      </trkpt>
      <trkpt lat="45.15174" lon="5.88813">
        <ele>1089.6</ele>
        <time>2020-08-11T12:01:39Z</time>
      </trkpt>
      <trkpt lat="45.15175" lon="5.88809">
        <ele>1089.6</ele>
        <time>2020-08-11T12:01:40Z</time>
      </trkpt>
      <trkpt lat="45.15176" lon="5.88805">
        <ele>1089.4</ele>
        <time>2020-08-11T12:01:41Z</time>
      </trkpt>
      <trkpt lat="45.15176" lon="5.88802">
        <ele>1089</ele>
        <time>2020-08-11T12:01:42Z</time>
      </trkpt>
      <trkpt lat="45.15176" lon="5.88802">
        <ele>1089.2</ele>
        <time>2020-08-11T12:01:43Z</time>
      </trkpt>
      <trkpt lat="45.15176" lon="5.88802">
        <ele>1089.2</ele>
        <time>2020-08-11T12:01:44Z</time>
      </trkpt>
      <trkpt lat="45.15176" lon="5.88802">
        <ele>1089.4</ele>
        <time>2020-08-11T12:01:45Z</time>
      </trkpt>
      <trkpt lat="45.15176" lon="5.88802">
        <ele>1089.4</ele>
        <time>2020-08-11T12:01:46Z</time>
      </trkpt>
    </trkseg>
  </trk>
</gpx>